<?xml version="1.0" encoding="UTF-8" standalone="no" ?>
<gpx xmlns="http://www.topografix.com/GPX/1/1" xmlns:xsi="http://www.w3.org/2001/XMLSchema-instance" xsi:schemaLocation="http://www.topografix.com/GPX/1/1 http://www.topografix.com/GPX/1/1/gpx.xsd" version="1.1" creator="VisuGPX - https://www.visugpx.com">
  <metadata>
    <name>SO-NE-St Pazanne La Marne La Limouzinière Montbert St Fiacre Vertou</name>
    <desc><![CDATA[SO-NE-St Pazanne La Marne La Limouzinière Montbert St Fiacre Vertou]]></desc>
  </metadata>
  <trk>
    <name><![CDATA[2020-06-06 09:19]]></name>
    <desc><![CDATA[<p>Heure de départ: 06/06/2020 09:19<br/>Heure d'arrivée: 06/06/2020 13:05<br/>Distance: 99,7 km (03:46)<br/>Temps déplacement: 03:45<br/>Vitesse moyenne: 26,4 km/h<br/>Vitesse moyenne mouv.: 26,53 km/h<br/>Vitesse Max.: 44,7 km/h<br/>Altitude minimale: -21 m<br/>Altitude maximale: 73 m<br/>Vitesse de montée: 844,4 m/h<br/>Vitesse de descente: -837 m/h<br/>Gain d'altitude: 1310 m<br/>Perte d'altitude: -1358 m<br/>Temps de montée: 01:33<br/>Temps de descente: 01:37<br/></p><hr align="center" width="480" style="height: 2px; width: 517px"/>]]></desc>
    <trkseg>
      <trkpt lat="47.16778" lon="-1.6265">
        <ele>73.31</ele>
        <time>2020-06-06T07:19:19Z</time>
      </trkpt>
      <trkpt lat="47.16782" lon="-1.62663">
        <ele>32.88</ele>
        <time>2020-06-06T07:19:54Z</time>
      </trkpt>
      <trkpt lat="47.16771" lon="-1.62675">
        <ele>28</ele>
        <time>2020-06-06T07:19:59Z</time>
      </trkpt>
      <trkpt lat="47.1676" lon="-1.62673">
        <ele>26.39</ele>
        <time>2020-06-06T07:20:01Z</time>
      </trkpt>
      <trkpt lat="47.16751" lon="-1.6267">
        <ele>26.12</ele>
        <time>2020-06-06T07:20:03Z</time>
      </trkpt>
      <trkpt lat="47.1674" lon="-1.62677">
        <ele>25.91</ele>
        <time>2020-06-06T07:20:05Z</time>
      </trkpt>
      <trkpt lat="47.1673" lon="-1.62683">
        <ele>25.56</ele>
        <time>2020-06-06T07:20:07Z</time>
      </trkpt>
      <trkpt lat="47.16719" lon="-1.62691">
        <ele>25.23</ele>
        <time>2020-06-06T07:20:09Z</time>
      </trkpt>
      <trkpt lat="47.16714" lon="-1.62707">
        <ele>25.44</ele>
        <time>2020-06-06T07:20:11Z</time>
      </trkpt>
      <trkpt lat="47.16722" lon="-1.62724">
        <ele>26.04</ele>
        <time>2020-06-06T07:20:13Z</time>
      </trkpt>
      <trkpt lat="47.1673" lon="-1.62739">
        <ele>27.07</ele>
        <time>2020-06-06T07:20:15Z</time>
      </trkpt>
      <trkpt lat="47.16738" lon="-1.62754">
        <ele>27.15</ele>
        <time>2020-06-06T07:20:17Z</time>
      </trkpt>
      <trkpt lat="47.16746" lon="-1.62763">
        <ele>26.76</ele>
        <time>2020-06-06T07:20:19Z</time>
      </trkpt>
      <trkpt lat="47.16757" lon="-1.62774">
        <ele>26.41</ele>
        <time>2020-06-06T07:20:21Z</time>
      </trkpt>
      <trkpt lat="47.16768" lon="-1.62784">
        <ele>25.62</ele>
        <time>2020-06-06T07:20:23Z</time>
      </trkpt>
      <trkpt lat="47.16779" lon="-1.62794">
        <ele>25.17</ele>
        <time>2020-06-06T07:20:25Z</time>
      </trkpt>
      <trkpt lat="47.16788" lon="-1.62802">
        <ele>25.41</ele>
        <time>2020-06-06T07:20:27Z</time>
      </trkpt>
      <trkpt lat="47.16798" lon="-1.62811">
        <ele>25.25</ele>
        <time>2020-06-06T07:20:29Z</time>
      </trkpt>
      <trkpt lat="47.16809" lon="-1.62821">
        <ele>24.91</ele>
        <time>2020-06-06T07:20:31Z</time>
      </trkpt>
      <trkpt lat="47.16819" lon="-1.62829">
        <ele>24.93</ele>
        <time>2020-06-06T07:20:33Z</time>
      </trkpt>
      <trkpt lat="47.16827" lon="-1.62836">
        <ele>24.09</ele>
        <time>2020-06-06T07:20:35Z</time>
      </trkpt>
      <trkpt lat="47.16837" lon="-1.62846">
        <ele>24.22</ele>
        <time>2020-06-06T07:20:37Z</time>
      </trkpt>
      <trkpt lat="47.16847" lon="-1.62856">
        <ele>24.65</ele>
        <time>2020-06-06T07:20:39Z</time>
      </trkpt>
      <trkpt lat="47.16857" lon="-1.62865">
        <ele>24.44</ele>
        <time>2020-06-06T07:20:41Z</time>
      </trkpt>
      <trkpt lat="47.16866" lon="-1.62875">
        <ele>24.59</ele>
        <time>2020-06-06T07:20:43Z</time>
      </trkpt>
      <trkpt lat="47.16874" lon="-1.62884">
        <ele>25.43</ele>
        <time>2020-06-06T07:20:45Z</time>
      </trkpt>
      <trkpt lat="47.16881" lon="-1.62896">
        <ele>25.26</ele>
        <time>2020-06-06T07:20:47Z</time>
      </trkpt>
      <trkpt lat="47.16886" lon="-1.62909">
        <ele>25.09</ele>
        <time>2020-06-06T07:20:49Z</time>
      </trkpt>
      <trkpt lat="47.16889" lon="-1.62924">
        <ele>25.28</ele>
        <time>2020-06-06T07:20:51Z</time>
      </trkpt>
      <trkpt lat="47.16891" lon="-1.62939">
        <ele>25.81</ele>
        <time>2020-06-06T07:20:53Z</time>
      </trkpt>
      <trkpt lat="47.16892" lon="-1.62954">
        <ele>25.55</ele>
        <time>2020-06-06T07:20:55Z</time>
      </trkpt>
      <trkpt lat="47.16892" lon="-1.62971">
        <ele>25.65</ele>
        <time>2020-06-06T07:20:57Z</time>
      </trkpt>
      <trkpt lat="47.16891" lon="-1.62988">
        <ele>25.02</ele>
        <time>2020-06-06T07:20:59Z</time>
      </trkpt>
      <trkpt lat="47.1689" lon="-1.63003">
        <ele>24.42</ele>
        <time>2020-06-06T07:21:01Z</time>
      </trkpt>
      <trkpt lat="47.16889" lon="-1.63022">
        <ele>24.17</ele>
        <time>2020-06-06T07:21:03Z</time>
      </trkpt>
      <trkpt lat="47.16889" lon="-1.63038">
        <ele>24.22</ele>
        <time>2020-06-06T07:21:05Z</time>
      </trkpt>
      <trkpt lat="47.1689" lon="-1.63056">
        <ele>25.62</ele>
        <time>2020-06-06T07:21:07Z</time>
      </trkpt>
      <trkpt lat="47.16891" lon="-1.63073">
        <ele>26.93</ele>
        <time>2020-06-06T07:21:09Z</time>
      </trkpt>
      <trkpt lat="47.16893" lon="-1.63089">
        <ele>27.22</ele>
        <time>2020-06-06T07:21:11Z</time>
      </trkpt>
      <trkpt lat="47.16896" lon="-1.63106">
        <ele>27.42</ele>
        <time>2020-06-06T07:21:13Z</time>
      </trkpt>
      <trkpt lat="47.169" lon="-1.63122">
        <ele>27.48</ele>
        <time>2020-06-06T07:21:15Z</time>
      </trkpt>
      <trkpt lat="47.16904" lon="-1.63136">
        <ele>28.15</ele>
        <time>2020-06-06T07:21:17Z</time>
      </trkpt>
      <trkpt lat="47.16909" lon="-1.63151">
        <ele>29.08</ele>
        <time>2020-06-06T07:21:19Z</time>
      </trkpt>
      <trkpt lat="47.16915" lon="-1.63166">
        <ele>29.29</ele>
        <time>2020-06-06T07:21:21Z</time>
      </trkpt>
      <trkpt lat="47.16921" lon="-1.63182">
        <ele>29.57</ele>
        <time>2020-06-06T07:21:23Z</time>
      </trkpt>
      <trkpt lat="47.16928" lon="-1.63197">
        <ele>29.34</ele>
        <time>2020-06-06T07:21:25Z</time>
      </trkpt>
      <trkpt lat="47.16934" lon="-1.63208">
        <ele>29.61</ele>
        <time>2020-06-06T07:21:27Z</time>
      </trkpt>
      <trkpt lat="47.16941" lon="-1.63219">
        <ele>29.58</ele>
        <time>2020-06-06T07:21:29Z</time>
      </trkpt>
      <trkpt lat="47.16952" lon="-1.63232">
        <ele>28.96</ele>
        <time>2020-06-06T07:21:32Z</time>
      </trkpt>
      <trkpt lat="47.1696" lon="-1.63242">
        <ele>28.5</ele>
        <time>2020-06-06T07:21:34Z</time>
      </trkpt>
      <trkpt lat="47.16969" lon="-1.63252">
        <ele>27.61</ele>
        <time>2020-06-06T07:21:37Z</time>
      </trkpt>
      <trkpt lat="47.16961" lon="-1.63265">
        <ele>27.01</ele>
        <time>2020-06-06T07:21:40Z</time>
      </trkpt>
      <trkpt lat="47.16953" lon="-1.63281">
        <ele>27.25</ele>
        <time>2020-06-06T07:21:42Z</time>
      </trkpt>
      <trkpt lat="47.16946" lon="-1.63295">
        <ele>27.81</ele>
        <time>2020-06-06T07:21:44Z</time>
      </trkpt>
      <trkpt lat="47.16937" lon="-1.63308">
        <ele>27.87</ele>
        <time>2020-06-06T07:21:46Z</time>
      </trkpt>
      <trkpt lat="47.16927" lon="-1.63323">
        <ele>28.26</ele>
        <time>2020-06-06T07:21:48Z</time>
      </trkpt>
      <trkpt lat="47.16919" lon="-1.63336">
        <ele>28.64</ele>
        <time>2020-06-06T07:21:50Z</time>
      </trkpt>
      <trkpt lat="47.16911" lon="-1.63348">
        <ele>29.54</ele>
        <time>2020-06-06T07:21:52Z</time>
      </trkpt>
      <trkpt lat="47.16902" lon="-1.63361">
        <ele>30.57</ele>
        <time>2020-06-06T07:21:54Z</time>
      </trkpt>
      <trkpt lat="47.16892" lon="-1.63375">
        <ele>30.96</ele>
        <time>2020-06-06T07:21:56Z</time>
      </trkpt>
      <trkpt lat="47.16883" lon="-1.63388">
        <ele>31.2</ele>
        <time>2020-06-06T07:21:58Z</time>
      </trkpt>
      <trkpt lat="47.16874" lon="-1.63403">
        <ele>31.64</ele>
        <time>2020-06-06T07:22:00Z</time>
      </trkpt>
      <trkpt lat="47.16866" lon="-1.63417">
        <ele>31.86</ele>
        <time>2020-06-06T07:22:02Z</time>
      </trkpt>
      <trkpt lat="47.16857" lon="-1.63431">
        <ele>32.82</ele>
        <time>2020-06-06T07:22:04Z</time>
      </trkpt>
      <trkpt lat="47.16848" lon="-1.63447">
        <ele>32.07</ele>
        <time>2020-06-06T07:22:06Z</time>
      </trkpt>
      <trkpt lat="47.1684" lon="-1.63461">
        <ele>30.91</ele>
        <time>2020-06-06T07:22:08Z</time>
      </trkpt>
      <trkpt lat="47.16831" lon="-1.63476">
        <ele>31.1</ele>
        <time>2020-06-06T07:22:10Z</time>
      </trkpt>
      <trkpt lat="47.16822" lon="-1.6349">
        <ele>32.08</ele>
        <time>2020-06-06T07:22:12Z</time>
      </trkpt>
      <trkpt lat="47.16813" lon="-1.63504">
        <ele>33.39</ele>
        <time>2020-06-06T07:22:14Z</time>
      </trkpt>
      <trkpt lat="47.16805" lon="-1.63518">
        <ele>33.43</ele>
        <time>2020-06-06T07:22:16Z</time>
      </trkpt>
      <trkpt lat="47.16797" lon="-1.63532">
        <ele>33.2</ele>
        <time>2020-06-06T07:22:18Z</time>
      </trkpt>
      <trkpt lat="47.16788" lon="-1.63548">
        <ele>32.37</ele>
        <time>2020-06-06T07:22:20Z</time>
      </trkpt>
      <trkpt lat="47.16781" lon="-1.63562">
        <ele>31.92</ele>
        <time>2020-06-06T07:22:22Z</time>
      </trkpt>
      <trkpt lat="47.16772" lon="-1.63577">
        <ele>32.34</ele>
        <time>2020-06-06T07:22:24Z</time>
      </trkpt>
      <trkpt lat="47.16763" lon="-1.63592">
        <ele>32.78</ele>
        <time>2020-06-06T07:22:26Z</time>
      </trkpt>
      <trkpt lat="47.16754" lon="-1.63608">
        <ele>32.98</ele>
        <time>2020-06-06T07:22:28Z</time>
      </trkpt>
      <trkpt lat="47.16747" lon="-1.63621">
        <ele>33.15</ele>
        <time>2020-06-06T07:22:30Z</time>
      </trkpt>
      <trkpt lat="47.16741" lon="-1.63635">
        <ele>33.25</ele>
        <time>2020-06-06T07:22:32Z</time>
      </trkpt>
      <trkpt lat="47.16749" lon="-1.63651">
        <ele>32.75</ele>
        <time>2020-06-06T07:22:34Z</time>
      </trkpt>
      <trkpt lat="47.16763" lon="-1.63655">
        <ele>32.44</ele>
        <time>2020-06-06T07:22:36Z</time>
      </trkpt>
      <trkpt lat="47.16776" lon="-1.63659">
        <ele>32.71</ele>
        <time>2020-06-06T07:22:38Z</time>
      </trkpt>
      <trkpt lat="47.16789" lon="-1.63663">
        <ele>32.6</ele>
        <time>2020-06-06T07:22:40Z</time>
      </trkpt>
      <trkpt lat="47.16802" lon="-1.63667">
        <ele>31.66</ele>
        <time>2020-06-06T07:22:42Z</time>
      </trkpt>
      <trkpt lat="47.16817" lon="-1.63672">
        <ele>30.76</ele>
        <time>2020-06-06T07:22:44Z</time>
      </trkpt>
      <trkpt lat="47.1683" lon="-1.63676">
        <ele>30.09</ele>
        <time>2020-06-06T07:22:46Z</time>
      </trkpt>
      <trkpt lat="47.16843" lon="-1.6368">
        <ele>30.63</ele>
        <time>2020-06-06T07:22:48Z</time>
      </trkpt>
      <trkpt lat="47.16855" lon="-1.63684">
        <ele>31.2</ele>
        <time>2020-06-06T07:22:50Z</time>
      </trkpt>
      <trkpt lat="47.16867" lon="-1.63689">
        <ele>31.19</ele>
        <time>2020-06-06T07:22:52Z</time>
      </trkpt>
      <trkpt lat="47.1688" lon="-1.63693">
        <ele>30.66</ele>
        <time>2020-06-06T07:22:54Z</time>
      </trkpt>
      <trkpt lat="47.16893" lon="-1.63699">
        <ele>30.55</ele>
        <time>2020-06-06T07:22:56Z</time>
      </trkpt>
      <trkpt lat="47.16906" lon="-1.63704">
        <ele>31.55</ele>
        <time>2020-06-06T07:22:58Z</time>
      </trkpt>
      <trkpt lat="47.16919" lon="-1.63709">
        <ele>33.19</ele>
        <time>2020-06-06T07:23:00Z</time>
      </trkpt>
      <trkpt lat="47.16933" lon="-1.63714">
        <ele>33.39</ele>
        <time>2020-06-06T07:23:02Z</time>
      </trkpt>
      <trkpt lat="47.16945" lon="-1.63719">
        <ele>32.48</ele>
        <time>2020-06-06T07:23:04Z</time>
      </trkpt>
      <trkpt lat="47.16961" lon="-1.63725">
        <ele>32.26</ele>
        <time>2020-06-06T07:23:06Z</time>
      </trkpt>
      <trkpt lat="47.16974" lon="-1.63728">
        <ele>31.52</ele>
        <time>2020-06-06T07:23:08Z</time>
      </trkpt>
      <trkpt lat="47.16987" lon="-1.63732">
        <ele>31.46</ele>
        <time>2020-06-06T07:23:10Z</time>
      </trkpt>
      <trkpt lat="47.17" lon="-1.63737">
        <ele>31.35</ele>
        <time>2020-06-06T07:23:12Z</time>
      </trkpt>
      <trkpt lat="47.17012" lon="-1.63742">
        <ele>31.22</ele>
        <time>2020-06-06T07:23:14Z</time>
      </trkpt>
      <trkpt lat="47.17024" lon="-1.63747">
        <ele>30.66</ele>
        <time>2020-06-06T07:23:16Z</time>
      </trkpt>
      <trkpt lat="47.17037" lon="-1.63751">
        <ele>30.53</ele>
        <time>2020-06-06T07:23:18Z</time>
      </trkpt>
      <trkpt lat="47.1705" lon="-1.63759">
        <ele>30.66</ele>
        <time>2020-06-06T07:23:20Z</time>
      </trkpt>
      <trkpt lat="47.17062" lon="-1.63771">
        <ele>30.67</ele>
        <time>2020-06-06T07:23:22Z</time>
      </trkpt>
      <trkpt lat="47.1707" lon="-1.63788">
        <ele>30.08</ele>
        <time>2020-06-06T07:23:24Z</time>
      </trkpt>
      <trkpt lat="47.17076" lon="-1.63807">
        <ele>30.07</ele>
        <time>2020-06-06T07:23:26Z</time>
      </trkpt>
      <trkpt lat="47.17082" lon="-1.63824">
        <ele>30.12</ele>
        <time>2020-06-06T07:23:28Z</time>
      </trkpt>
      <trkpt lat="47.17087" lon="-1.63842">
        <ele>30.49</ele>
        <time>2020-06-06T07:23:30Z</time>
      </trkpt>
      <trkpt lat="47.17093" lon="-1.63858">
        <ele>30.35</ele>
        <time>2020-06-06T07:23:32Z</time>
      </trkpt>
      <trkpt lat="47.17098" lon="-1.63874">
        <ele>29.58</ele>
        <time>2020-06-06T07:23:34Z</time>
      </trkpt>
      <trkpt lat="47.17104" lon="-1.6389">
        <ele>28.54</ele>
        <time>2020-06-06T07:23:36Z</time>
      </trkpt>
      <trkpt lat="47.1711" lon="-1.63908">
        <ele>28.1</ele>
        <time>2020-06-06T07:23:38Z</time>
      </trkpt>
      <trkpt lat="47.17116" lon="-1.63924">
        <ele>27.05</ele>
        <time>2020-06-06T07:23:40Z</time>
      </trkpt>
      <trkpt lat="47.17121" lon="-1.63938">
        <ele>26.5</ele>
        <time>2020-06-06T07:23:42Z</time>
      </trkpt>
      <trkpt lat="47.1713" lon="-1.63946">
        <ele>26.52</ele>
        <time>2020-06-06T07:23:44Z</time>
      </trkpt>
      <trkpt lat="47.17137" lon="-1.63957">
        <ele>26.53</ele>
        <time>2020-06-06T07:23:47Z</time>
      </trkpt>
      <trkpt lat="47.17138" lon="-1.63972">
        <ele>26.82</ele>
        <time>2020-06-06T07:23:49Z</time>
      </trkpt>
      <trkpt lat="47.17139" lon="-1.6399">
        <ele>27.14</ele>
        <time>2020-06-06T07:23:51Z</time>
      </trkpt>
      <trkpt lat="47.17139" lon="-1.6401">
        <ele>26.79</ele>
        <time>2020-06-06T07:23:53Z</time>
      </trkpt>
      <trkpt lat="47.17137" lon="-1.6403">
        <ele>26.08</ele>
        <time>2020-06-06T07:23:55Z</time>
      </trkpt>
      <trkpt lat="47.17136" lon="-1.6405">
        <ele>25.54</ele>
        <time>2020-06-06T07:23:57Z</time>
      </trkpt>
      <trkpt lat="47.17134" lon="-1.64069">
        <ele>25.7</ele>
        <time>2020-06-06T07:23:59Z</time>
      </trkpt>
      <trkpt lat="47.17131" lon="-1.64087">
        <ele>26.62</ele>
        <time>2020-06-06T07:24:01Z</time>
      </trkpt>
      <trkpt lat="47.17128" lon="-1.64107">
        <ele>26.16</ele>
        <time>2020-06-06T07:24:03Z</time>
      </trkpt>
      <trkpt lat="47.17125" lon="-1.64129">
        <ele>26.44</ele>
        <time>2020-06-06T07:24:05Z</time>
      </trkpt>
      <trkpt lat="47.17123" lon="-1.64149">
        <ele>26.94</ele>
        <time>2020-06-06T07:24:07Z</time>
      </trkpt>
      <trkpt lat="47.1712" lon="-1.6417">
        <ele>26.36</ele>
        <time>2020-06-06T07:24:09Z</time>
      </trkpt>
      <trkpt lat="47.17118" lon="-1.6419">
        <ele>25.72</ele>
        <time>2020-06-06T07:24:11Z</time>
      </trkpt>
      <trkpt lat="47.17116" lon="-1.64209">
        <ele>26.17</ele>
        <time>2020-06-06T07:24:13Z</time>
      </trkpt>
      <trkpt lat="47.17114" lon="-1.64229">
        <ele>25.81</ele>
        <time>2020-06-06T07:24:15Z</time>
      </trkpt>
      <trkpt lat="47.17112" lon="-1.6425">
        <ele>26.43</ele>
        <time>2020-06-06T07:24:17Z</time>
      </trkpt>
      <trkpt lat="47.17109" lon="-1.64268">
        <ele>26.59</ele>
        <time>2020-06-06T07:24:19Z</time>
      </trkpt>
      <trkpt lat="47.17107" lon="-1.64289">
        <ele>26.56</ele>
        <time>2020-06-06T07:24:21Z</time>
      </trkpt>
      <trkpt lat="47.17105" lon="-1.64311">
        <ele>25.26</ele>
        <time>2020-06-06T07:24:23Z</time>
      </trkpt>
      <trkpt lat="47.17103" lon="-1.64331">
        <ele>25.38</ele>
        <time>2020-06-06T07:24:25Z</time>
      </trkpt>
      <trkpt lat="47.17101" lon="-1.64349">
        <ele>25.97</ele>
        <time>2020-06-06T07:24:27Z</time>
      </trkpt>
      <trkpt lat="47.171" lon="-1.64366">
        <ele>26.96</ele>
        <time>2020-06-06T07:24:29Z</time>
      </trkpt>
      <trkpt lat="47.17098" lon="-1.64385">
        <ele>27.41</ele>
        <time>2020-06-06T07:24:31Z</time>
      </trkpt>
      <trkpt lat="47.17096" lon="-1.64409">
        <ele>27.64</ele>
        <time>2020-06-06T07:24:33Z</time>
      </trkpt>
      <trkpt lat="47.17095" lon="-1.6443">
        <ele>28.24</ele>
        <time>2020-06-06T07:24:35Z</time>
      </trkpt>
      <trkpt lat="47.17094" lon="-1.64452">
        <ele>28.41</ele>
        <time>2020-06-06T07:24:37Z</time>
      </trkpt>
      <trkpt lat="47.17092" lon="-1.64474">
        <ele>27.48</ele>
        <time>2020-06-06T07:24:39Z</time>
      </trkpt>
      <trkpt lat="47.17091" lon="-1.64495">
        <ele>27.69</ele>
        <time>2020-06-06T07:24:41Z</time>
      </trkpt>
      <trkpt lat="47.1709" lon="-1.64517">
        <ele>28.11</ele>
        <time>2020-06-06T07:24:43Z</time>
      </trkpt>
      <trkpt lat="47.17089" lon="-1.64539">
        <ele>27.32</ele>
        <time>2020-06-06T07:24:45Z</time>
      </trkpt>
      <trkpt lat="47.17088" lon="-1.6456">
        <ele>26.45</ele>
        <time>2020-06-06T07:24:47Z</time>
      </trkpt>
      <trkpt lat="47.17087" lon="-1.64584">
        <ele>26.58</ele>
        <time>2020-06-06T07:24:49Z</time>
      </trkpt>
      <trkpt lat="47.17086" lon="-1.64606">
        <ele>26.14</ele>
        <time>2020-06-06T07:24:51Z</time>
      </trkpt>
      <trkpt lat="47.17086" lon="-1.64625">
        <ele>26.99</ele>
        <time>2020-06-06T07:24:53Z</time>
      </trkpt>
      <trkpt lat="47.17086" lon="-1.64647">
        <ele>26.84</ele>
        <time>2020-06-06T07:24:55Z</time>
      </trkpt>
      <trkpt lat="47.17086" lon="-1.64669">
        <ele>27.5</ele>
        <time>2020-06-06T07:24:57Z</time>
      </trkpt>
      <trkpt lat="47.17087" lon="-1.64693">
        <ele>27.94</ele>
        <time>2020-06-06T07:24:59Z</time>
      </trkpt>
      <trkpt lat="47.17088" lon="-1.64714">
        <ele>27.75</ele>
        <time>2020-06-06T07:25:01Z</time>
      </trkpt>
      <trkpt lat="47.1709" lon="-1.64734">
        <ele>26.91</ele>
        <time>2020-06-06T07:25:03Z</time>
      </trkpt>
      <trkpt lat="47.17091" lon="-1.64755">
        <ele>26.88</ele>
        <time>2020-06-06T07:25:05Z</time>
      </trkpt>
      <trkpt lat="47.17092" lon="-1.64778">
        <ele>26.23</ele>
        <time>2020-06-06T07:25:07Z</time>
      </trkpt>
      <trkpt lat="47.17093" lon="-1.64801">
        <ele>24.44</ele>
        <time>2020-06-06T07:25:09Z</time>
      </trkpt>
      <trkpt lat="47.17095" lon="-1.64821">
        <ele>23.04</ele>
        <time>2020-06-06T07:25:11Z</time>
      </trkpt>
      <trkpt lat="47.17097" lon="-1.64843">
        <ele>23.05</ele>
        <time>2020-06-06T07:25:13Z</time>
      </trkpt>
      <trkpt lat="47.17099" lon="-1.64865">
        <ele>24.05</ele>
        <time>2020-06-06T07:25:15Z</time>
      </trkpt>
      <trkpt lat="47.17101" lon="-1.64888">
        <ele>24.22</ele>
        <time>2020-06-06T07:25:17Z</time>
      </trkpt>
      <trkpt lat="47.17103" lon="-1.64909">
        <ele>24.27</ele>
        <time>2020-06-06T07:25:19Z</time>
      </trkpt>
      <trkpt lat="47.17104" lon="-1.64931">
        <ele>23.49</ele>
        <time>2020-06-06T07:25:21Z</time>
      </trkpt>
      <trkpt lat="47.17106" lon="-1.6495">
        <ele>23.34</ele>
        <time>2020-06-06T07:25:23Z</time>
      </trkpt>
      <trkpt lat="47.17108" lon="-1.64972">
        <ele>22.88</ele>
        <time>2020-06-06T07:25:25Z</time>
      </trkpt>
      <trkpt lat="47.1711" lon="-1.64992">
        <ele>22.08</ele>
        <time>2020-06-06T07:25:27Z</time>
      </trkpt>
      <trkpt lat="47.17111" lon="-1.65012">
        <ele>21.54</ele>
        <time>2020-06-06T07:25:29Z</time>
      </trkpt>
      <trkpt lat="47.17113" lon="-1.65032">
        <ele>22.61</ele>
        <time>2020-06-06T07:25:31Z</time>
      </trkpt>
      <trkpt lat="47.17114" lon="-1.65053">
        <ele>23</ele>
        <time>2020-06-06T07:25:33Z</time>
      </trkpt>
      <trkpt lat="47.17116" lon="-1.65076">
        <ele>22.41</ele>
        <time>2020-06-06T07:25:35Z</time>
      </trkpt>
      <trkpt lat="47.17117" lon="-1.65095">
        <ele>22.15</ele>
        <time>2020-06-06T07:25:37Z</time>
      </trkpt>
      <trkpt lat="47.17119" lon="-1.65116">
        <ele>21.87</ele>
        <time>2020-06-06T07:25:39Z</time>
      </trkpt>
      <trkpt lat="47.1712" lon="-1.65136">
        <ele>21.93</ele>
        <time>2020-06-06T07:25:41Z</time>
      </trkpt>
      <trkpt lat="47.17121" lon="-1.65155">
        <ele>22.42</ele>
        <time>2020-06-06T07:25:43Z</time>
      </trkpt>
      <trkpt lat="47.17123" lon="-1.65174">
        <ele>23.3</ele>
        <time>2020-06-06T07:25:45Z</time>
      </trkpt>
      <trkpt lat="47.17124" lon="-1.65192">
        <ele>24.22</ele>
        <time>2020-06-06T07:25:47Z</time>
      </trkpt>
      <trkpt lat="47.17125" lon="-1.6521">
        <ele>25.23</ele>
        <time>2020-06-06T07:25:49Z</time>
      </trkpt>
      <trkpt lat="47.17126" lon="-1.65231">
        <ele>25.7</ele>
        <time>2020-06-06T07:25:51Z</time>
      </trkpt>
      <trkpt lat="47.17127" lon="-1.6525">
        <ele>25.93</ele>
        <time>2020-06-06T07:25:53Z</time>
      </trkpt>
      <trkpt lat="47.17128" lon="-1.65264">
        <ele>25.2</ele>
        <time>2020-06-06T07:25:55Z</time>
      </trkpt>
      <trkpt lat="47.17132" lon="-1.65279">
        <ele>26.19</ele>
        <time>2020-06-06T07:25:57Z</time>
      </trkpt>
      <trkpt lat="47.17141" lon="-1.65295">
        <ele>27.58</ele>
        <time>2020-06-06T07:25:59Z</time>
      </trkpt>
      <trkpt lat="47.17141" lon="-1.65313">
        <ele>28.15</ele>
        <time>2020-06-06T07:26:01Z</time>
      </trkpt>
      <trkpt lat="47.17137" lon="-1.6533">
        <ele>27.97</ele>
        <time>2020-06-06T07:26:03Z</time>
      </trkpt>
      <trkpt lat="47.17126" lon="-1.65341">
        <ele>28.19</ele>
        <time>2020-06-06T07:26:05Z</time>
      </trkpt>
      <trkpt lat="47.17119" lon="-1.65356">
        <ele>29.5</ele>
        <time>2020-06-06T07:26:07Z</time>
      </trkpt>
      <trkpt lat="47.17118" lon="-1.65374">
        <ele>30.44</ele>
        <time>2020-06-06T07:26:09Z</time>
      </trkpt>
      <trkpt lat="47.17118" lon="-1.65391">
        <ele>30.8</ele>
        <time>2020-06-06T07:26:11Z</time>
      </trkpt>
      <trkpt lat="47.17118" lon="-1.65409">
        <ele>30.65</ele>
        <time>2020-06-06T07:26:13Z</time>
      </trkpt>
      <trkpt lat="47.17118" lon="-1.65427">
        <ele>30.14</ele>
        <time>2020-06-06T07:26:15Z</time>
      </trkpt>
      <trkpt lat="47.17117" lon="-1.65441">
        <ele>29.97</ele>
        <time>2020-06-06T07:26:17Z</time>
      </trkpt>
      <trkpt lat="47.17118" lon="-1.65459">
        <ele>30.98</ele>
        <time>2020-06-06T07:26:19Z</time>
      </trkpt>
      <trkpt lat="47.17116" lon="-1.65477">
        <ele>32.48</ele>
        <time>2020-06-06T07:26:21Z</time>
      </trkpt>
      <trkpt lat="47.17114" lon="-1.65496">
        <ele>34.59</ele>
        <time>2020-06-06T07:26:24Z</time>
      </trkpt>
      <trkpt lat="47.17111" lon="-1.65512">
        <ele>34.31</ele>
        <time>2020-06-06T07:26:26Z</time>
      </trkpt>
      <trkpt lat="47.17107" lon="-1.65526">
        <ele>35.03</ele>
        <time>2020-06-06T07:26:28Z</time>
      </trkpt>
      <trkpt lat="47.17102" lon="-1.65539">
        <ele>35.18</ele>
        <time>2020-06-06T07:26:30Z</time>
      </trkpt>
      <trkpt lat="47.17097" lon="-1.65551">
        <ele>35.72</ele>
        <time>2020-06-06T07:26:32Z</time>
      </trkpt>
      <trkpt lat="47.1709" lon="-1.65564">
        <ele>35.35</ele>
        <time>2020-06-06T07:26:34Z</time>
      </trkpt>
      <trkpt lat="47.17083" lon="-1.65575">
        <ele>35.19</ele>
        <time>2020-06-06T07:26:36Z</time>
      </trkpt>
      <trkpt lat="47.17075" lon="-1.65587">
        <ele>34.6</ele>
        <time>2020-06-06T07:26:38Z</time>
      </trkpt>
      <trkpt lat="47.17068" lon="-1.65599">
        <ele>33.57</ele>
        <time>2020-06-06T07:26:40Z</time>
      </trkpt>
      <trkpt lat="47.17061" lon="-1.65611">
        <ele>32.89</ele>
        <time>2020-06-06T07:26:42Z</time>
      </trkpt>
      <trkpt lat="47.17054" lon="-1.65622">
        <ele>32.76</ele>
        <time>2020-06-06T07:26:44Z</time>
      </trkpt>
      <trkpt lat="47.17046" lon="-1.65635">
        <ele>32.6</ele>
        <time>2020-06-06T07:26:45Z</time>
      </trkpt>
      <trkpt lat="47.17037" lon="-1.6565">
        <ele>32.62</ele>
        <time>2020-06-06T07:26:47Z</time>
      </trkpt>
      <trkpt lat="47.17028" lon="-1.65666">
        <ele>33.23</ele>
        <time>2020-06-06T07:26:49Z</time>
      </trkpt>
      <trkpt lat="47.1702" lon="-1.65683">
        <ele>34.03</ele>
        <time>2020-06-06T07:26:51Z</time>
      </trkpt>
      <trkpt lat="47.17012" lon="-1.65699">
        <ele>34.73</ele>
        <time>2020-06-06T07:26:53Z</time>
      </trkpt>
      <trkpt lat="47.17004" lon="-1.6572">
        <ele>34.76</ele>
        <time>2020-06-06T07:26:55Z</time>
      </trkpt>
      <trkpt lat="47.17001" lon="-1.65739">
        <ele>35.05</ele>
        <time>2020-06-06T07:26:57Z</time>
      </trkpt>
      <trkpt lat="47.16998" lon="-1.65758">
        <ele>34.74</ele>
        <time>2020-06-06T07:26:59Z</time>
      </trkpt>
      <trkpt lat="47.16988" lon="-1.6577">
        <ele>34.86</ele>
        <time>2020-06-06T07:27:01Z</time>
      </trkpt>
      <trkpt lat="47.16976" lon="-1.65778">
        <ele>35.33</ele>
        <time>2020-06-06T07:27:03Z</time>
      </trkpt>
      <trkpt lat="47.16964" lon="-1.65787">
        <ele>34.83</ele>
        <time>2020-06-06T07:27:05Z</time>
      </trkpt>
      <trkpt lat="47.16952" lon="-1.65801">
        <ele>34.27</ele>
        <time>2020-06-06T07:27:07Z</time>
      </trkpt>
      <trkpt lat="47.16943" lon="-1.65819">
        <ele>33.43</ele>
        <time>2020-06-06T07:27:09Z</time>
      </trkpt>
      <trkpt lat="47.16935" lon="-1.65836">
        <ele>34.28</ele>
        <time>2020-06-06T07:27:11Z</time>
      </trkpt>
      <trkpt lat="47.16927" lon="-1.65853">
        <ele>34.62</ele>
        <time>2020-06-06T07:27:13Z</time>
      </trkpt>
      <trkpt lat="47.16919" lon="-1.6587">
        <ele>35.31</ele>
        <time>2020-06-06T07:27:15Z</time>
      </trkpt>
      <trkpt lat="47.16911" lon="-1.65887">
        <ele>35.68</ele>
        <time>2020-06-06T07:27:17Z</time>
      </trkpt>
      <trkpt lat="47.16903" lon="-1.65905">
        <ele>36.25</ele>
        <time>2020-06-06T07:27:19Z</time>
      </trkpt>
      <trkpt lat="47.16895" lon="-1.65921">
        <ele>36.18</ele>
        <time>2020-06-06T07:27:21Z</time>
      </trkpt>
      <trkpt lat="47.16886" lon="-1.65939">
        <ele>35.19</ele>
        <time>2020-06-06T07:27:23Z</time>
      </trkpt>
      <trkpt lat="47.16878" lon="-1.65956">
        <ele>33.5</ele>
        <time>2020-06-06T07:27:25Z</time>
      </trkpt>
      <trkpt lat="47.16869" lon="-1.65975">
        <ele>32.29</ele>
        <time>2020-06-06T07:27:27Z</time>
      </trkpt>
      <trkpt lat="47.16864" lon="-1.65991">
        <ele>31.85</ele>
        <time>2020-06-06T07:27:29Z</time>
      </trkpt>
      <trkpt lat="47.16858" lon="-1.66013">
        <ele>31.48</ele>
        <time>2020-06-06T07:27:31Z</time>
      </trkpt>
      <trkpt lat="47.16852" lon="-1.66033">
        <ele>30.24</ele>
        <time>2020-06-06T07:27:33Z</time>
      </trkpt>
      <trkpt lat="47.16848" lon="-1.66055">
        <ele>29.61</ele>
        <time>2020-06-06T07:27:35Z</time>
      </trkpt>
      <trkpt lat="47.16844" lon="-1.66074">
        <ele>28.51</ele>
        <time>2020-06-06T07:27:37Z</time>
      </trkpt>
      <trkpt lat="47.16842" lon="-1.66094">
        <ele>27.62</ele>
        <time>2020-06-06T07:27:39Z</time>
      </trkpt>
      <trkpt lat="47.1684" lon="-1.66114">
        <ele>28.09</ele>
        <time>2020-06-06T07:27:41Z</time>
      </trkpt>
      <trkpt lat="47.16838" lon="-1.66135">
        <ele>28.56</ele>
        <time>2020-06-06T07:27:43Z</time>
      </trkpt>
      <trkpt lat="47.16838" lon="-1.66155">
        <ele>29.37</ele>
        <time>2020-06-06T07:27:45Z</time>
      </trkpt>
      <trkpt lat="47.16839" lon="-1.66175">
        <ele>29.67</ele>
        <time>2020-06-06T07:27:47Z</time>
      </trkpt>
      <trkpt lat="47.1684" lon="-1.66194">
        <ele>30.59</ele>
        <time>2020-06-06T07:27:49Z</time>
      </trkpt>
      <trkpt lat="47.16841" lon="-1.66214">
        <ele>31</ele>
        <time>2020-06-06T07:27:51Z</time>
      </trkpt>
      <trkpt lat="47.16844" lon="-1.66233">
        <ele>31.17</ele>
        <time>2020-06-06T07:27:53Z</time>
      </trkpt>
      <trkpt lat="47.16846" lon="-1.66252">
        <ele>30.64</ele>
        <time>2020-06-06T07:27:55Z</time>
      </trkpt>
      <trkpt lat="47.16848" lon="-1.66273">
        <ele>30.29</ele>
        <time>2020-06-06T07:27:57Z</time>
      </trkpt>
      <trkpt lat="47.1685" lon="-1.66294">
        <ele>30.32</ele>
        <time>2020-06-06T07:27:59Z</time>
      </trkpt>
      <trkpt lat="47.16852" lon="-1.66309">
        <ele>30.7</ele>
        <time>2020-06-06T07:28:01Z</time>
      </trkpt>
      <trkpt lat="47.16854" lon="-1.6633">
        <ele>30.8</ele>
        <time>2020-06-06T07:28:03Z</time>
      </trkpt>
      <trkpt lat="47.16857" lon="-1.66348">
        <ele>30.34</ele>
        <time>2020-06-06T07:28:05Z</time>
      </trkpt>
      <trkpt lat="47.16859" lon="-1.66368">
        <ele>29.78</ele>
        <time>2020-06-06T07:28:07Z</time>
      </trkpt>
      <trkpt lat="47.16862" lon="-1.66388">
        <ele>29.3</ele>
        <time>2020-06-06T07:28:09Z</time>
      </trkpt>
      <trkpt lat="47.16864" lon="-1.66407">
        <ele>29.39</ele>
        <time>2020-06-06T07:28:11Z</time>
      </trkpt>
      <trkpt lat="47.16867" lon="-1.6643">
        <ele>29.55</ele>
        <time>2020-06-06T07:28:13Z</time>
      </trkpt>
      <trkpt lat="47.1687" lon="-1.66449">
        <ele>29.94</ele>
        <time>2020-06-06T07:28:15Z</time>
      </trkpt>
      <trkpt lat="47.16872" lon="-1.66469">
        <ele>30.12</ele>
        <time>2020-06-06T07:28:17Z</time>
      </trkpt>
      <trkpt lat="47.16874" lon="-1.66487">
        <ele>29.61</ele>
        <time>2020-06-06T07:28:19Z</time>
      </trkpt>
      <trkpt lat="47.16876" lon="-1.66505">
        <ele>29.63</ele>
        <time>2020-06-06T07:28:21Z</time>
      </trkpt>
      <trkpt lat="47.16878" lon="-1.66526">
        <ele>28.82</ele>
        <time>2020-06-06T07:28:23Z</time>
      </trkpt>
      <trkpt lat="47.1688" lon="-1.66544">
        <ele>28.37</ele>
        <time>2020-06-06T07:28:25Z</time>
      </trkpt>
      <trkpt lat="47.16883" lon="-1.66563">
        <ele>27.08</ele>
        <time>2020-06-06T07:28:27Z</time>
      </trkpt>
      <trkpt lat="47.16887" lon="-1.66583">
        <ele>26.94</ele>
        <time>2020-06-06T07:28:29Z</time>
      </trkpt>
      <trkpt lat="47.16889" lon="-1.66601">
        <ele>26.5</ele>
        <time>2020-06-06T07:28:31Z</time>
      </trkpt>
      <trkpt lat="47.16891" lon="-1.66619">
        <ele>25.25</ele>
        <time>2020-06-06T07:28:33Z</time>
      </trkpt>
      <trkpt lat="47.16893" lon="-1.66637">
        <ele>24.45</ele>
        <time>2020-06-06T07:28:35Z</time>
      </trkpt>
      <trkpt lat="47.16895" lon="-1.66657">
        <ele>23.39</ele>
        <time>2020-06-06T07:28:37Z</time>
      </trkpt>
      <trkpt lat="47.16895" lon="-1.66675">
        <ele>23.32</ele>
        <time>2020-06-06T07:28:39Z</time>
      </trkpt>
      <trkpt lat="47.16893" lon="-1.66695">
        <ele>22.68</ele>
        <time>2020-06-06T07:28:41Z</time>
      </trkpt>
      <trkpt lat="47.16889" lon="-1.66713">
        <ele>23.23</ele>
        <time>2020-06-06T07:28:43Z</time>
      </trkpt>
      <trkpt lat="47.16883" lon="-1.66732">
        <ele>24.62</ele>
        <time>2020-06-06T07:28:45Z</time>
      </trkpt>
      <trkpt lat="47.16876" lon="-1.66749">
        <ele>25.94</ele>
        <time>2020-06-06T07:28:47Z</time>
      </trkpt>
      <trkpt lat="47.16866" lon="-1.66765">
        <ele>26.13</ele>
        <time>2020-06-06T07:28:49Z</time>
      </trkpt>
      <trkpt lat="47.16857" lon="-1.66782">
        <ele>25.83</ele>
        <time>2020-06-06T07:28:51Z</time>
      </trkpt>
      <trkpt lat="47.16848" lon="-1.66799">
        <ele>25.52</ele>
        <time>2020-06-06T07:28:53Z</time>
      </trkpt>
      <trkpt lat="47.16838" lon="-1.66817">
        <ele>25.17</ele>
        <time>2020-06-06T07:28:55Z</time>
      </trkpt>
      <trkpt lat="47.1683" lon="-1.66832">
        <ele>25.96</ele>
        <time>2020-06-06T07:28:57Z</time>
      </trkpt>
      <trkpt lat="47.16821" lon="-1.66849">
        <ele>26.51</ele>
        <time>2020-06-06T07:28:59Z</time>
      </trkpt>
      <trkpt lat="47.16812" lon="-1.66865">
        <ele>27.67</ele>
        <time>2020-06-06T07:29:01Z</time>
      </trkpt>
      <trkpt lat="47.16803" lon="-1.66879">
        <ele>29.04</ele>
        <time>2020-06-06T07:29:03Z</time>
      </trkpt>
      <trkpt lat="47.16793" lon="-1.66893">
        <ele>30.29</ele>
        <time>2020-06-06T07:29:05Z</time>
      </trkpt>
      <trkpt lat="47.16782" lon="-1.66901">
        <ele>30.69</ele>
        <time>2020-06-06T07:29:07Z</time>
      </trkpt>
      <trkpt lat="47.16769" lon="-1.6691">
        <ele>31.32</ele>
        <time>2020-06-06T07:29:09Z</time>
      </trkpt>
      <trkpt lat="47.16755" lon="-1.66916">
        <ele>31.61</ele>
        <time>2020-06-06T07:29:11Z</time>
      </trkpt>
      <trkpt lat="47.16742" lon="-1.66921">
        <ele>31.39</ele>
        <time>2020-06-06T07:29:13Z</time>
      </trkpt>
      <trkpt lat="47.1673" lon="-1.66924">
        <ele>31.53</ele>
        <time>2020-06-06T07:29:15Z</time>
      </trkpt>
      <trkpt lat="47.16715" lon="-1.66929">
        <ele>31.17</ele>
        <time>2020-06-06T07:29:17Z</time>
      </trkpt>
      <trkpt lat="47.167" lon="-1.66934">
        <ele>30.18</ele>
        <time>2020-06-06T07:29:19Z</time>
      </trkpt>
      <trkpt lat="47.16687" lon="-1.66941">
        <ele>30.53</ele>
        <time>2020-06-06T07:29:21Z</time>
      </trkpt>
      <trkpt lat="47.16675" lon="-1.66953">
        <ele>30.8</ele>
        <time>2020-06-06T07:29:23Z</time>
      </trkpt>
      <trkpt lat="47.16667" lon="-1.6697">
        <ele>32.02</ele>
        <time>2020-06-06T07:29:25Z</time>
      </trkpt>
      <trkpt lat="47.16661" lon="-1.66989">
        <ele>32.9</ele>
        <time>2020-06-06T07:29:27Z</time>
      </trkpt>
      <trkpt lat="47.16657" lon="-1.67009">
        <ele>34.2</ele>
        <time>2020-06-06T07:29:29Z</time>
      </trkpt>
      <trkpt lat="47.16653" lon="-1.67029">
        <ele>34.98</ele>
        <time>2020-06-06T07:29:31Z</time>
      </trkpt>
      <trkpt lat="47.16649" lon="-1.6705">
        <ele>33.88</ele>
        <time>2020-06-06T07:29:33Z</time>
      </trkpt>
      <trkpt lat="47.16646" lon="-1.67067">
        <ele>33.87</ele>
        <time>2020-06-06T07:29:35Z</time>
      </trkpt>
      <trkpt lat="47.16643" lon="-1.67084">
        <ele>34.31</ele>
        <time>2020-06-06T07:29:37Z</time>
      </trkpt>
      <trkpt lat="47.16639" lon="-1.67104">
        <ele>33.75</ele>
        <time>2020-06-06T07:29:39Z</time>
      </trkpt>
      <trkpt lat="47.16635" lon="-1.67124">
        <ele>33.1</ele>
        <time>2020-06-06T07:29:41Z</time>
      </trkpt>
      <trkpt lat="47.16632" lon="-1.67141">
        <ele>32.25</ele>
        <time>2020-06-06T07:29:43Z</time>
      </trkpt>
      <trkpt lat="47.16628" lon="-1.67161">
        <ele>31.68</ele>
        <time>2020-06-06T07:29:45Z</time>
      </trkpt>
      <trkpt lat="47.16624" lon="-1.67182">
        <ele>31.54</ele>
        <time>2020-06-06T07:29:47Z</time>
      </trkpt>
      <trkpt lat="47.16621" lon="-1.672">
        <ele>31.35</ele>
        <time>2020-06-06T07:29:49Z</time>
      </trkpt>
      <trkpt lat="47.16618" lon="-1.67216">
        <ele>30.73</ele>
        <time>2020-06-06T07:29:51Z</time>
      </trkpt>
      <trkpt lat="47.16615" lon="-1.67233">
        <ele>30.2</ele>
        <time>2020-06-06T07:29:53Z</time>
      </trkpt>
      <trkpt lat="47.16612" lon="-1.67247">
        <ele>30.54</ele>
        <time>2020-06-06T07:29:55Z</time>
      </trkpt>
      <trkpt lat="47.16609" lon="-1.67263">
        <ele>30.54</ele>
        <time>2020-06-06T07:29:57Z</time>
      </trkpt>
      <trkpt lat="47.16605" lon="-1.67278">
        <ele>28.47</ele>
        <time>2020-06-06T07:30:00Z</time>
      </trkpt>
      <trkpt lat="47.16599" lon="-1.67294">
        <ele>27.75</ele>
        <time>2020-06-06T07:30:02Z</time>
      </trkpt>
      <trkpt lat="47.16591" lon="-1.67312">
        <ele>27.31</ele>
        <time>2020-06-06T07:30:04Z</time>
      </trkpt>
      <trkpt lat="47.16583" lon="-1.67329">
        <ele>26.93</ele>
        <time>2020-06-06T07:30:06Z</time>
      </trkpt>
      <trkpt lat="47.16574" lon="-1.67347">
        <ele>25.97</ele>
        <time>2020-06-06T07:30:08Z</time>
      </trkpt>
      <trkpt lat="47.16566" lon="-1.67363">
        <ele>25.86</ele>
        <time>2020-06-06T07:30:10Z</time>
      </trkpt>
      <trkpt lat="47.16558" lon="-1.67375">
        <ele>26.25</ele>
        <time>2020-06-06T07:30:12Z</time>
      </trkpt>
      <trkpt lat="47.16548" lon="-1.67391">
        <ele>26.13</ele>
        <time>2020-06-06T07:30:14Z</time>
      </trkpt>
      <trkpt lat="47.16538" lon="-1.67406">
        <ele>26.81</ele>
        <time>2020-06-06T07:30:16Z</time>
      </trkpt>
      <trkpt lat="47.16528" lon="-1.6742">
        <ele>27.75</ele>
        <time>2020-06-06T07:30:18Z</time>
      </trkpt>
      <trkpt lat="47.16518" lon="-1.67434">
        <ele>27.89</ele>
        <time>2020-06-06T07:30:20Z</time>
      </trkpt>
      <trkpt lat="47.16509" lon="-1.67448">
        <ele>28.26</ele>
        <time>2020-06-06T07:30:22Z</time>
      </trkpt>
      <trkpt lat="47.165" lon="-1.67464">
        <ele>28.7</ele>
        <time>2020-06-06T07:30:24Z</time>
      </trkpt>
      <trkpt lat="47.1649" lon="-1.67483">
        <ele>29.33</ele>
        <time>2020-06-06T07:30:26Z</time>
      </trkpt>
      <trkpt lat="47.16481" lon="-1.67498">
        <ele>29.68</ele>
        <time>2020-06-06T07:30:28Z</time>
      </trkpt>
      <trkpt lat="47.16472" lon="-1.67512">
        <ele>29.61</ele>
        <time>2020-06-06T07:30:30Z</time>
      </trkpt>
      <trkpt lat="47.16465" lon="-1.67526">
        <ele>30.18</ele>
        <time>2020-06-06T07:30:32Z</time>
      </trkpt>
      <trkpt lat="47.16456" lon="-1.67542">
        <ele>30.25</ele>
        <time>2020-06-06T07:30:34Z</time>
      </trkpt>
      <trkpt lat="47.16447" lon="-1.67557">
        <ele>30.26</ele>
        <time>2020-06-06T07:30:36Z</time>
      </trkpt>
      <trkpt lat="47.16439" lon="-1.67571">
        <ele>29.77</ele>
        <time>2020-06-06T07:30:38Z</time>
      </trkpt>
      <trkpt lat="47.16432" lon="-1.67585">
        <ele>30.42</ele>
        <time>2020-06-06T07:30:40Z</time>
      </trkpt>
      <trkpt lat="47.16423" lon="-1.67603">
        <ele>30.24</ele>
        <time>2020-06-06T07:30:42Z</time>
      </trkpt>
      <trkpt lat="47.16415" lon="-1.67618">
        <ele>30.05</ele>
        <time>2020-06-06T07:30:44Z</time>
      </trkpt>
      <trkpt lat="47.16408" lon="-1.67634">
        <ele>29.88</ele>
        <time>2020-06-06T07:30:46Z</time>
      </trkpt>
      <trkpt lat="47.164" lon="-1.67648">
        <ele>29.13</ele>
        <time>2020-06-06T07:30:48Z</time>
      </trkpt>
      <trkpt lat="47.16393" lon="-1.67663">
        <ele>29.21</ele>
        <time>2020-06-06T07:30:50Z</time>
      </trkpt>
      <trkpt lat="47.16386" lon="-1.67677">
        <ele>30.09</ele>
        <time>2020-06-06T07:30:52Z</time>
      </trkpt>
      <trkpt lat="47.16378" lon="-1.67693">
        <ele>30.7</ele>
        <time>2020-06-06T07:30:54Z</time>
      </trkpt>
      <trkpt lat="47.16369" lon="-1.67709">
        <ele>30.04</ele>
        <time>2020-06-06T07:30:56Z</time>
      </trkpt>
      <trkpt lat="47.1636" lon="-1.67726">
        <ele>29.67</ele>
        <time>2020-06-06T07:30:58Z</time>
      </trkpt>
      <trkpt lat="47.16351" lon="-1.67743">
        <ele>28.99</ele>
        <time>2020-06-06T07:31:00Z</time>
      </trkpt>
      <trkpt lat="47.16343" lon="-1.67758">
        <ele>28.1</ele>
        <time>2020-06-06T07:31:02Z</time>
      </trkpt>
      <trkpt lat="47.16336" lon="-1.67771">
        <ele>27.16</ele>
        <time>2020-06-06T07:31:04Z</time>
      </trkpt>
      <trkpt lat="47.16327" lon="-1.67786">
        <ele>26.95</ele>
        <time>2020-06-06T07:31:06Z</time>
      </trkpt>
      <trkpt lat="47.16318" lon="-1.67802">
        <ele>26.78</ele>
        <time>2020-06-06T07:31:08Z</time>
      </trkpt>
      <trkpt lat="47.1631" lon="-1.67814">
        <ele>26.62</ele>
        <time>2020-06-06T07:31:10Z</time>
      </trkpt>
      <trkpt lat="47.16302" lon="-1.67829">
        <ele>26.99</ele>
        <time>2020-06-06T07:31:12Z</time>
      </trkpt>
      <trkpt lat="47.16294" lon="-1.67843">
        <ele>26.72</ele>
        <time>2020-06-06T07:31:14Z</time>
      </trkpt>
      <trkpt lat="47.16286" lon="-1.67857">
        <ele>26.19</ele>
        <time>2020-06-06T07:31:16Z</time>
      </trkpt>
      <trkpt lat="47.16279" lon="-1.6787">
        <ele>27.51</ele>
        <time>2020-06-06T07:31:18Z</time>
      </trkpt>
      <trkpt lat="47.1627" lon="-1.67887">
        <ele>27.55</ele>
        <time>2020-06-06T07:31:20Z</time>
      </trkpt>
      <trkpt lat="47.16263" lon="-1.67901">
        <ele>27.3</ele>
        <time>2020-06-06T07:31:22Z</time>
      </trkpt>
      <trkpt lat="47.16255" lon="-1.67916">
        <ele>26.74</ele>
        <time>2020-06-06T07:31:24Z</time>
      </trkpt>
      <trkpt lat="47.16248" lon="-1.67929">
        <ele>27.23</ele>
        <time>2020-06-06T07:31:26Z</time>
      </trkpt>
      <trkpt lat="47.16239" lon="-1.67942">
        <ele>28.37</ele>
        <time>2020-06-06T07:31:28Z</time>
      </trkpt>
      <trkpt lat="47.16231" lon="-1.67954">
        <ele>29.06</ele>
        <time>2020-06-06T07:31:30Z</time>
      </trkpt>
      <trkpt lat="47.16224" lon="-1.67969">
        <ele>29.99</ele>
        <time>2020-06-06T07:31:32Z</time>
      </trkpt>
      <trkpt lat="47.1622" lon="-1.67986">
        <ele>30.58</ele>
        <time>2020-06-06T07:31:34Z</time>
      </trkpt>
      <trkpt lat="47.1621" lon="-1.67998">
        <ele>29.67</ele>
        <time>2020-06-06T07:31:36Z</time>
      </trkpt>
      <trkpt lat="47.16197" lon="-1.68006">
        <ele>29.29</ele>
        <time>2020-06-06T07:31:38Z</time>
      </trkpt>
      <trkpt lat="47.16186" lon="-1.68019">
        <ele>29.3</ele>
        <time>2020-06-06T07:31:40Z</time>
      </trkpt>
      <trkpt lat="47.16177" lon="-1.68032">
        <ele>29.23</ele>
        <time>2020-06-06T07:31:42Z</time>
      </trkpt>
      <trkpt lat="47.16167" lon="-1.68046">
        <ele>29.25</ele>
        <time>2020-06-06T07:31:44Z</time>
      </trkpt>
      <trkpt lat="47.16159" lon="-1.68059">
        <ele>29.61</ele>
        <time>2020-06-06T07:31:46Z</time>
      </trkpt>
      <trkpt lat="47.16151" lon="-1.68073">
        <ele>30.28</ele>
        <time>2020-06-06T07:31:48Z</time>
      </trkpt>
      <trkpt lat="47.16144" lon="-1.6809">
        <ele>30.15</ele>
        <time>2020-06-06T07:31:50Z</time>
      </trkpt>
      <trkpt lat="47.16138" lon="-1.68108">
        <ele>30.09</ele>
        <time>2020-06-06T07:31:52Z</time>
      </trkpt>
      <trkpt lat="47.16133" lon="-1.68128">
        <ele>30.2</ele>
        <time>2020-06-06T07:31:54Z</time>
      </trkpt>
      <trkpt lat="47.16129" lon="-1.68145">
        <ele>31.02</ele>
        <time>2020-06-06T07:31:56Z</time>
      </trkpt>
      <trkpt lat="47.16126" lon="-1.68163">
        <ele>30.55</ele>
        <time>2020-06-06T07:31:58Z</time>
      </trkpt>
      <trkpt lat="47.16122" lon="-1.6818">
        <ele>29.12</ele>
        <time>2020-06-06T07:32:00Z</time>
      </trkpt>
      <trkpt lat="47.16119" lon="-1.68198">
        <ele>27.95</ele>
        <time>2020-06-06T07:32:02Z</time>
      </trkpt>
      <trkpt lat="47.16115" lon="-1.68217">
        <ele>27.67</ele>
        <time>2020-06-06T07:32:04Z</time>
      </trkpt>
      <trkpt lat="47.16112" lon="-1.68236">
        <ele>27.91</ele>
        <time>2020-06-06T07:32:06Z</time>
      </trkpt>
      <trkpt lat="47.16107" lon="-1.68257">
        <ele>27.63</ele>
        <time>2020-06-06T07:32:08Z</time>
      </trkpt>
      <trkpt lat="47.16103" lon="-1.68278">
        <ele>26.54</ele>
        <time>2020-06-06T07:32:10Z</time>
      </trkpt>
      <trkpt lat="47.16099" lon="-1.68298">
        <ele>25.86</ele>
        <time>2020-06-06T07:32:12Z</time>
      </trkpt>
      <trkpt lat="47.16095" lon="-1.68318">
        <ele>24.81</ele>
        <time>2020-06-06T07:32:14Z</time>
      </trkpt>
      <trkpt lat="47.16092" lon="-1.68338">
        <ele>23.79</ele>
        <time>2020-06-06T07:32:16Z</time>
      </trkpt>
      <trkpt lat="47.16087" lon="-1.6836">
        <ele>22.72</ele>
        <time>2020-06-06T07:32:18Z</time>
      </trkpt>
      <trkpt lat="47.16084" lon="-1.68375">
        <ele>21.48</ele>
        <time>2020-06-06T07:32:20Z</time>
      </trkpt>
      <trkpt lat="47.1608" lon="-1.68393">
        <ele>21.46</ele>
        <time>2020-06-06T07:32:22Z</time>
      </trkpt>
      <trkpt lat="47.16077" lon="-1.68412">
        <ele>22.39</ele>
        <time>2020-06-06T07:32:24Z</time>
      </trkpt>
      <trkpt lat="47.16073" lon="-1.68432">
        <ele>23.15</ele>
        <time>2020-06-06T07:32:26Z</time>
      </trkpt>
      <trkpt lat="47.16069" lon="-1.68451">
        <ele>23.59</ele>
        <time>2020-06-06T07:32:28Z</time>
      </trkpt>
      <trkpt lat="47.16065" lon="-1.68469">
        <ele>24.89</ele>
        <time>2020-06-06T07:32:30Z</time>
      </trkpt>
      <trkpt lat="47.16061" lon="-1.68488">
        <ele>25.17</ele>
        <time>2020-06-06T07:32:32Z</time>
      </trkpt>
      <trkpt lat="47.16058" lon="-1.68508">
        <ele>25.5</ele>
        <time>2020-06-06T07:32:34Z</time>
      </trkpt>
      <trkpt lat="47.16055" lon="-1.68527">
        <ele>25.91</ele>
        <time>2020-06-06T07:32:36Z</time>
      </trkpt>
      <trkpt lat="47.16053" lon="-1.68544">
        <ele>26.42</ele>
        <time>2020-06-06T07:32:38Z</time>
      </trkpt>
      <trkpt lat="47.16051" lon="-1.68564">
        <ele>26.39</ele>
        <time>2020-06-06T07:32:40Z</time>
      </trkpt>
      <trkpt lat="47.16048" lon="-1.68582">
        <ele>26.31</ele>
        <time>2020-06-06T07:32:42Z</time>
      </trkpt>
      <trkpt lat="47.16046" lon="-1.686">
        <ele>26.28</ele>
        <time>2020-06-06T07:32:44Z</time>
      </trkpt>
      <trkpt lat="47.16044" lon="-1.68618">
        <ele>25.77</ele>
        <time>2020-06-06T07:32:46Z</time>
      </trkpt>
      <trkpt lat="47.16042" lon="-1.68639">
        <ele>25.94</ele>
        <time>2020-06-06T07:32:48Z</time>
      </trkpt>
      <trkpt lat="47.16041" lon="-1.68658">
        <ele>26.03</ele>
        <time>2020-06-06T07:32:50Z</time>
      </trkpt>
      <trkpt lat="47.16041" lon="-1.68675">
        <ele>25.83</ele>
        <time>2020-06-06T07:32:52Z</time>
      </trkpt>
      <trkpt lat="47.16042" lon="-1.68694">
        <ele>25.85</ele>
        <time>2020-06-06T07:32:54Z</time>
      </trkpt>
      <trkpt lat="47.16044" lon="-1.68713">
        <ele>25.53</ele>
        <time>2020-06-06T07:32:56Z</time>
      </trkpt>
      <trkpt lat="47.16046" lon="-1.68728">
        <ele>24.91</ele>
        <time>2020-06-06T07:32:58Z</time>
      </trkpt>
      <trkpt lat="47.16048" lon="-1.68746">
        <ele>24.51</ele>
        <time>2020-06-06T07:33:00Z</time>
      </trkpt>
      <trkpt lat="47.16052" lon="-1.68764">
        <ele>24.8</ele>
        <time>2020-06-06T07:33:02Z</time>
      </trkpt>
      <trkpt lat="47.16056" lon="-1.68781">
        <ele>25.17</ele>
        <time>2020-06-06T07:33:04Z</time>
      </trkpt>
      <trkpt lat="47.1606" lon="-1.68797">
        <ele>26.13</ele>
        <time>2020-06-06T07:33:06Z</time>
      </trkpt>
      <trkpt lat="47.16064" lon="-1.68812">
        <ele>26.71</ele>
        <time>2020-06-06T07:33:08Z</time>
      </trkpt>
      <trkpt lat="47.1607" lon="-1.68829">
        <ele>27.07</ele>
        <time>2020-06-06T07:33:10Z</time>
      </trkpt>
      <trkpt lat="47.16075" lon="-1.68844">
        <ele>27.42</ele>
        <time>2020-06-06T07:33:12Z</time>
      </trkpt>
      <trkpt lat="47.16079" lon="-1.68859">
        <ele>27.12</ele>
        <time>2020-06-06T07:33:14Z</time>
      </trkpt>
      <trkpt lat="47.16084" lon="-1.68873">
        <ele>26.91</ele>
        <time>2020-06-06T07:33:16Z</time>
      </trkpt>
      <trkpt lat="47.16089" lon="-1.68889">
        <ele>27.47</ele>
        <time>2020-06-06T07:33:18Z</time>
      </trkpt>
      <trkpt lat="47.16093" lon="-1.68904">
        <ele>27.48</ele>
        <time>2020-06-06T07:33:20Z</time>
      </trkpt>
      <trkpt lat="47.16098" lon="-1.68918">
        <ele>27.82</ele>
        <time>2020-06-06T07:33:22Z</time>
      </trkpt>
      <trkpt lat="47.16103" lon="-1.68936">
        <ele>28.84</ele>
        <time>2020-06-06T07:33:24Z</time>
      </trkpt>
      <trkpt lat="47.16107" lon="-1.68952">
        <ele>28.76</ele>
        <time>2020-06-06T07:33:26Z</time>
      </trkpt>
      <trkpt lat="47.16111" lon="-1.68967">
        <ele>28.9</ele>
        <time>2020-06-06T07:33:28Z</time>
      </trkpt>
      <trkpt lat="47.16117" lon="-1.68985">
        <ele>29.2</ele>
        <time>2020-06-06T07:33:30Z</time>
      </trkpt>
      <trkpt lat="47.16122" lon="-1.69002">
        <ele>27.82</ele>
        <time>2020-06-06T07:33:32Z</time>
      </trkpt>
      <trkpt lat="47.16127" lon="-1.69019">
        <ele>27.33</ele>
        <time>2020-06-06T07:33:34Z</time>
      </trkpt>
      <trkpt lat="47.1613" lon="-1.69035">
        <ele>27.1</ele>
        <time>2020-06-06T07:33:36Z</time>
      </trkpt>
      <trkpt lat="47.16135" lon="-1.69054">
        <ele>26.43</ele>
        <time>2020-06-06T07:33:38Z</time>
      </trkpt>
      <trkpt lat="47.16138" lon="-1.69074">
        <ele>24.69</ele>
        <time>2020-06-06T07:33:40Z</time>
      </trkpt>
      <trkpt lat="47.16142" lon="-1.69093">
        <ele>23.58</ele>
        <time>2020-06-06T07:33:42Z</time>
      </trkpt>
      <trkpt lat="47.16144" lon="-1.69112">
        <ele>22.44</ele>
        <time>2020-06-06T07:33:44Z</time>
      </trkpt>
      <trkpt lat="47.16146" lon="-1.69132">
        <ele>21.34</ele>
        <time>2020-06-06T07:33:46Z</time>
      </trkpt>
      <trkpt lat="47.16147" lon="-1.69151">
        <ele>20.04</ele>
        <time>2020-06-06T07:33:48Z</time>
      </trkpt>
      <trkpt lat="47.16146" lon="-1.6917">
        <ele>19.45</ele>
        <time>2020-06-06T07:33:50Z</time>
      </trkpt>
      <trkpt lat="47.16145" lon="-1.69192">
        <ele>18.57</ele>
        <time>2020-06-06T07:33:52Z</time>
      </trkpt>
      <trkpt lat="47.16144" lon="-1.69208">
        <ele>18.63</ele>
        <time>2020-06-06T07:33:54Z</time>
      </trkpt>
      <trkpt lat="47.16142" lon="-1.69229">
        <ele>19.63</ele>
        <time>2020-06-06T07:33:56Z</time>
      </trkpt>
      <trkpt lat="47.1614" lon="-1.6925">
        <ele>20.24</ele>
        <time>2020-06-06T07:33:58Z</time>
      </trkpt>
      <trkpt lat="47.16138" lon="-1.6927">
        <ele>20.33</ele>
        <time>2020-06-06T07:34:00Z</time>
      </trkpt>
      <trkpt lat="47.16136" lon="-1.69288">
        <ele>20.2</ele>
        <time>2020-06-06T07:34:02Z</time>
      </trkpt>
      <trkpt lat="47.16133" lon="-1.69308">
        <ele>19.82</ele>
        <time>2020-06-06T07:34:04Z</time>
      </trkpt>
      <trkpt lat="47.1613" lon="-1.69326">
        <ele>20.65</ele>
        <time>2020-06-06T07:34:06Z</time>
      </trkpt>
      <trkpt lat="47.16126" lon="-1.69345">
        <ele>21.32</ele>
        <time>2020-06-06T07:34:08Z</time>
      </trkpt>
      <trkpt lat="47.16123" lon="-1.69363">
        <ele>22.2</ele>
        <time>2020-06-06T07:34:10Z</time>
      </trkpt>
      <trkpt lat="47.16121" lon="-1.6938">
        <ele>23.53</ele>
        <time>2020-06-06T07:34:12Z</time>
      </trkpt>
      <trkpt lat="47.16119" lon="-1.69398">
        <ele>24.28</ele>
        <time>2020-06-06T07:34:14Z</time>
      </trkpt>
      <trkpt lat="47.16117" lon="-1.69417">
        <ele>24.38</ele>
        <time>2020-06-06T07:34:16Z</time>
      </trkpt>
      <trkpt lat="47.16116" lon="-1.69432">
        <ele>24.7</ele>
        <time>2020-06-06T07:34:18Z</time>
      </trkpt>
      <trkpt lat="47.16115" lon="-1.69452">
        <ele>24.4</ele>
        <time>2020-06-06T07:34:20Z</time>
      </trkpt>
      <trkpt lat="47.16113" lon="-1.69469">
        <ele>24.71</ele>
        <time>2020-06-06T07:34:22Z</time>
      </trkpt>
      <trkpt lat="47.16111" lon="-1.69486">
        <ele>24.75</ele>
        <time>2020-06-06T07:34:24Z</time>
      </trkpt>
      <trkpt lat="47.1611" lon="-1.69502">
        <ele>24.28</ele>
        <time>2020-06-06T07:34:26Z</time>
      </trkpt>
      <trkpt lat="47.16109" lon="-1.69518">
        <ele>23.88</ele>
        <time>2020-06-06T07:34:28Z</time>
      </trkpt>
      <trkpt lat="47.16107" lon="-1.69537">
        <ele>22.06</ele>
        <time>2020-06-06T07:34:30Z</time>
      </trkpt>
      <trkpt lat="47.16106" lon="-1.69555">
        <ele>21.48</ele>
        <time>2020-06-06T07:34:32Z</time>
      </trkpt>
      <trkpt lat="47.16104" lon="-1.69574">
        <ele>21.71</ele>
        <time>2020-06-06T07:34:34Z</time>
      </trkpt>
      <trkpt lat="47.16103" lon="-1.69592">
        <ele>22.49</ele>
        <time>2020-06-06T07:34:36Z</time>
      </trkpt>
      <trkpt lat="47.16101" lon="-1.6961">
        <ele>22.74</ele>
        <time>2020-06-06T07:34:38Z</time>
      </trkpt>
      <trkpt lat="47.161" lon="-1.6963">
        <ele>23.57</ele>
        <time>2020-06-06T07:34:40Z</time>
      </trkpt>
      <trkpt lat="47.161" lon="-1.69648">
        <ele>23.56</ele>
        <time>2020-06-06T07:34:42Z</time>
      </trkpt>
      <trkpt lat="47.16099" lon="-1.69663">
        <ele>23.65</ele>
        <time>2020-06-06T07:34:44Z</time>
      </trkpt>
      <trkpt lat="47.16098" lon="-1.69683">
        <ele>23.7</ele>
        <time>2020-06-06T07:34:46Z</time>
      </trkpt>
      <trkpt lat="47.16096" lon="-1.697">
        <ele>25.46</ele>
        <time>2020-06-06T07:34:48Z</time>
      </trkpt>
      <trkpt lat="47.16095" lon="-1.69721">
        <ele>26.77</ele>
        <time>2020-06-06T07:34:50Z</time>
      </trkpt>
      <trkpt lat="47.16094" lon="-1.69738">
        <ele>27.08</ele>
        <time>2020-06-06T07:34:52Z</time>
      </trkpt>
      <trkpt lat="47.16093" lon="-1.69756">
        <ele>26.99</ele>
        <time>2020-06-06T07:34:54Z</time>
      </trkpt>
      <trkpt lat="47.16092" lon="-1.69775">
        <ele>27.2</ele>
        <time>2020-06-06T07:34:56Z</time>
      </trkpt>
      <trkpt lat="47.16091" lon="-1.69794">
        <ele>28.26</ele>
        <time>2020-06-06T07:34:58Z</time>
      </trkpt>
      <trkpt lat="47.1609" lon="-1.69814">
        <ele>28.41</ele>
        <time>2020-06-06T07:35:00Z</time>
      </trkpt>
      <trkpt lat="47.16089" lon="-1.69833">
        <ele>27.64</ele>
        <time>2020-06-06T07:35:02Z</time>
      </trkpt>
      <trkpt lat="47.16088" lon="-1.69849">
        <ele>27.43</ele>
        <time>2020-06-06T07:35:04Z</time>
      </trkpt>
      <trkpt lat="47.16086" lon="-1.69863">
        <ele>26.95</ele>
        <time>2020-06-06T07:35:06Z</time>
      </trkpt>
      <trkpt lat="47.16085" lon="-1.69885">
        <ele>26.44</ele>
        <time>2020-06-06T07:35:08Z</time>
      </trkpt>
      <trkpt lat="47.16084" lon="-1.69904">
        <ele>25.93</ele>
        <time>2020-06-06T07:35:10Z</time>
      </trkpt>
      <trkpt lat="47.16082" lon="-1.69923">
        <ele>25.78</ele>
        <time>2020-06-06T07:35:12Z</time>
      </trkpt>
      <trkpt lat="47.1608" lon="-1.69941">
        <ele>25.67</ele>
        <time>2020-06-06T07:35:14Z</time>
      </trkpt>
      <trkpt lat="47.16079" lon="-1.6996">
        <ele>25.59</ele>
        <time>2020-06-06T07:35:16Z</time>
      </trkpt>
      <trkpt lat="47.16078" lon="-1.69979">
        <ele>25.54</ele>
        <time>2020-06-06T07:35:18Z</time>
      </trkpt>
      <trkpt lat="47.16076" lon="-1.69999">
        <ele>25.35</ele>
        <time>2020-06-06T07:35:20Z</time>
      </trkpt>
      <trkpt lat="47.16075" lon="-1.70017">
        <ele>24.86</ele>
        <time>2020-06-06T07:35:22Z</time>
      </trkpt>
      <trkpt lat="47.16074" lon="-1.70033">
        <ele>24.85</ele>
        <time>2020-06-06T07:35:24Z</time>
      </trkpt>
      <trkpt lat="47.16073" lon="-1.70053">
        <ele>25.02</ele>
        <time>2020-06-06T07:35:26Z</time>
      </trkpt>
      <trkpt lat="47.16073" lon="-1.70073">
        <ele>26.19</ele>
        <time>2020-06-06T07:35:28Z</time>
      </trkpt>
      <trkpt lat="47.16071" lon="-1.70092">
        <ele>26.24</ele>
        <time>2020-06-06T07:35:30Z</time>
      </trkpt>
      <trkpt lat="47.16069" lon="-1.70112">
        <ele>25.76</ele>
        <time>2020-06-06T07:35:32Z</time>
      </trkpt>
      <trkpt lat="47.16065" lon="-1.7013">
        <ele>24.88</ele>
        <time>2020-06-06T07:35:34Z</time>
      </trkpt>
      <trkpt lat="47.16061" lon="-1.70149">
        <ele>24.49</ele>
        <time>2020-06-06T07:35:36Z</time>
      </trkpt>
      <trkpt lat="47.16054" lon="-1.70166">
        <ele>25.07</ele>
        <time>2020-06-06T07:35:38Z</time>
      </trkpt>
      <trkpt lat="47.16048" lon="-1.70181">
        <ele>25.78</ele>
        <time>2020-06-06T07:35:40Z</time>
      </trkpt>
      <trkpt lat="47.1604" lon="-1.70197">
        <ele>26.15</ele>
        <time>2020-06-06T07:35:42Z</time>
      </trkpt>
      <trkpt lat="47.16032" lon="-1.70213">
        <ele>25.76</ele>
        <time>2020-06-06T07:35:44Z</time>
      </trkpt>
      <trkpt lat="47.16024" lon="-1.70229">
        <ele>25.49</ele>
        <time>2020-06-06T07:35:46Z</time>
      </trkpt>
      <trkpt lat="47.16016" lon="-1.70245">
        <ele>25.69</ele>
        <time>2020-06-06T07:35:48Z</time>
      </trkpt>
      <trkpt lat="47.16009" lon="-1.70261">
        <ele>25.62</ele>
        <time>2020-06-06T07:35:51Z</time>
      </trkpt>
      <trkpt lat="47.16001" lon="-1.7028">
        <ele>24.56</ele>
        <time>2020-06-06T07:35:52Z</time>
      </trkpt>
      <trkpt lat="47.15994" lon="-1.70296">
        <ele>24.55</ele>
        <time>2020-06-06T07:35:54Z</time>
      </trkpt>
      <trkpt lat="47.15987" lon="-1.70314">
        <ele>24.9</ele>
        <time>2020-06-06T07:35:56Z</time>
      </trkpt>
      <trkpt lat="47.15979" lon="-1.7033">
        <ele>24.41</ele>
        <time>2020-06-06T07:35:58Z</time>
      </trkpt>
      <trkpt lat="47.15971" lon="-1.70348">
        <ele>23.9</ele>
        <time>2020-06-06T07:36:00Z</time>
      </trkpt>
      <trkpt lat="47.15964" lon="-1.70364">
        <ele>23.88</ele>
        <time>2020-06-06T07:36:02Z</time>
      </trkpt>
      <trkpt lat="47.15957" lon="-1.7038">
        <ele>24.34</ele>
        <time>2020-06-06T07:36:04Z</time>
      </trkpt>
      <trkpt lat="47.15949" lon="-1.70397">
        <ele>25.05</ele>
        <time>2020-06-06T07:36:06Z</time>
      </trkpt>
      <trkpt lat="47.15941" lon="-1.70414">
        <ele>25.3</ele>
        <time>2020-06-06T07:36:08Z</time>
      </trkpt>
      <trkpt lat="47.15933" lon="-1.70431">
        <ele>25.17</ele>
        <time>2020-06-06T07:36:10Z</time>
      </trkpt>
      <trkpt lat="47.15925" lon="-1.70449">
        <ele>24.57</ele>
        <time>2020-06-06T07:36:12Z</time>
      </trkpt>
      <trkpt lat="47.15917" lon="-1.70465">
        <ele>23.96</ele>
        <time>2020-06-06T07:36:14Z</time>
      </trkpt>
      <trkpt lat="47.15909" lon="-1.70482">
        <ele>23.48</ele>
        <time>2020-06-06T07:36:16Z</time>
      </trkpt>
      <trkpt lat="47.15901" lon="-1.70499">
        <ele>22.85</ele>
        <time>2020-06-06T07:36:18Z</time>
      </trkpt>
      <trkpt lat="47.15893" lon="-1.70516">
        <ele>22.33</ele>
        <time>2020-06-06T07:36:20Z</time>
      </trkpt>
      <trkpt lat="47.15886" lon="-1.70535">
        <ele>22.58</ele>
        <time>2020-06-06T07:36:22Z</time>
      </trkpt>
      <trkpt lat="47.15882" lon="-1.70553">
        <ele>22.89</ele>
        <time>2020-06-06T07:36:25Z</time>
      </trkpt>
      <trkpt lat="47.15877" lon="-1.70569">
        <ele>23.15</ele>
        <time>2020-06-06T07:36:27Z</time>
      </trkpt>
      <trkpt lat="47.15872" lon="-1.70587">
        <ele>23.95</ele>
        <time>2020-06-06T07:36:29Z</time>
      </trkpt>
      <trkpt lat="47.15868" lon="-1.70604">
        <ele>25.12</ele>
        <time>2020-06-06T07:36:31Z</time>
      </trkpt>
      <trkpt lat="47.15864" lon="-1.7062">
        <ele>26.29</ele>
        <time>2020-06-06T07:36:33Z</time>
      </trkpt>
      <trkpt lat="47.15859" lon="-1.70637">
        <ele>28.03</ele>
        <time>2020-06-06T07:36:35Z</time>
      </trkpt>
      <trkpt lat="47.15854" lon="-1.70653">
        <ele>28.64</ele>
        <time>2020-06-06T07:36:37Z</time>
      </trkpt>
      <trkpt lat="47.15849" lon="-1.7067">
        <ele>28.69</ele>
        <time>2020-06-06T07:36:39Z</time>
      </trkpt>
      <trkpt lat="47.15842" lon="-1.70686">
        <ele>28.32</ele>
        <time>2020-06-06T07:36:41Z</time>
      </trkpt>
      <trkpt lat="47.15836" lon="-1.70702">
        <ele>28.1</ele>
        <time>2020-06-06T07:36:43Z</time>
      </trkpt>
      <trkpt lat="47.15829" lon="-1.70718">
        <ele>27.44</ele>
        <time>2020-06-06T07:36:45Z</time>
      </trkpt>
      <trkpt lat="47.15822" lon="-1.70732">
        <ele>27.19</ele>
        <time>2020-06-06T07:36:47Z</time>
      </trkpt>
      <trkpt lat="47.15815" lon="-1.70747">
        <ele>26.69</ele>
        <time>2020-06-06T07:36:49Z</time>
      </trkpt>
      <trkpt lat="47.15807" lon="-1.70762">
        <ele>26.85</ele>
        <time>2020-06-06T07:36:51Z</time>
      </trkpt>
      <trkpt lat="47.15799" lon="-1.70779">
        <ele>27.27</ele>
        <time>2020-06-06T07:36:53Z</time>
      </trkpt>
      <trkpt lat="47.15792" lon="-1.70795">
        <ele>27.75</ele>
        <time>2020-06-06T07:36:55Z</time>
      </trkpt>
      <trkpt lat="47.15783" lon="-1.70814">
        <ele>27.61</ele>
        <time>2020-06-06T07:36:57Z</time>
      </trkpt>
      <trkpt lat="47.15776" lon="-1.70829">
        <ele>27.26</ele>
        <time>2020-06-06T07:36:59Z</time>
      </trkpt>
      <trkpt lat="47.15768" lon="-1.70842">
        <ele>26.95</ele>
        <time>2020-06-06T07:37:01Z</time>
      </trkpt>
      <trkpt lat="47.1576" lon="-1.70856">
        <ele>26.88</ele>
        <time>2020-06-06T07:37:03Z</time>
      </trkpt>
      <trkpt lat="47.15753" lon="-1.70872">
        <ele>26.67</ele>
        <time>2020-06-06T07:37:05Z</time>
      </trkpt>
      <trkpt lat="47.15745" lon="-1.70887">
        <ele>26.89</ele>
        <time>2020-06-06T07:37:07Z</time>
      </trkpt>
      <trkpt lat="47.15736" lon="-1.709">
        <ele>27.58</ele>
        <time>2020-06-06T07:37:09Z</time>
      </trkpt>
      <trkpt lat="47.15728" lon="-1.70914">
        <ele>27.81</ele>
        <time>2020-06-06T07:37:11Z</time>
      </trkpt>
      <trkpt lat="47.15719" lon="-1.7093">
        <ele>28.07</ele>
        <time>2020-06-06T07:37:13Z</time>
      </trkpt>
      <trkpt lat="47.1571" lon="-1.70946">
        <ele>28.4</ele>
        <time>2020-06-06T07:37:15Z</time>
      </trkpt>
      <trkpt lat="47.15702" lon="-1.70961">
        <ele>27.93</ele>
        <time>2020-06-06T07:37:17Z</time>
      </trkpt>
      <trkpt lat="47.15696" lon="-1.70975">
        <ele>27</ele>
        <time>2020-06-06T07:37:19Z</time>
      </trkpt>
      <trkpt lat="47.15689" lon="-1.7099">
        <ele>26.31</ele>
        <time>2020-06-06T07:37:21Z</time>
      </trkpt>
      <trkpt lat="47.15681" lon="-1.71005">
        <ele>25.91</ele>
        <time>2020-06-06T07:37:23Z</time>
      </trkpt>
      <trkpt lat="47.15675" lon="-1.71019">
        <ele>26.14</ele>
        <time>2020-06-06T07:37:25Z</time>
      </trkpt>
      <trkpt lat="47.15669" lon="-1.71033">
        <ele>26.73</ele>
        <time>2020-06-06T07:37:27Z</time>
      </trkpt>
      <trkpt lat="47.15662" lon="-1.71048">
        <ele>27.55</ele>
        <time>2020-06-06T07:37:29Z</time>
      </trkpt>
      <trkpt lat="47.15657" lon="-1.7106">
        <ele>27.37</ele>
        <time>2020-06-06T07:37:31Z</time>
      </trkpt>
      <trkpt lat="47.15646" lon="-1.71068">
        <ele>26.88</ele>
        <time>2020-06-06T07:37:41Z</time>
      </trkpt>
      <trkpt lat="47.15635" lon="-1.71076">
        <ele>26.74</ele>
        <time>2020-06-06T07:37:43Z</time>
      </trkpt>
      <trkpt lat="47.15625" lon="-1.7109">
        <ele>26.84</ele>
        <time>2020-06-06T07:37:45Z</time>
      </trkpt>
      <trkpt lat="47.15616" lon="-1.71105">
        <ele>27.43</ele>
        <time>2020-06-06T07:37:47Z</time>
      </trkpt>
      <trkpt lat="47.15609" lon="-1.71119">
        <ele>28.06</ele>
        <time>2020-06-06T07:37:49Z</time>
      </trkpt>
      <trkpt lat="47.15601" lon="-1.71134">
        <ele>29.33</ele>
        <time>2020-06-06T07:37:51Z</time>
      </trkpt>
      <trkpt lat="47.15593" lon="-1.71148">
        <ele>30.17</ele>
        <time>2020-06-06T07:37:53Z</time>
      </trkpt>
      <trkpt lat="47.15585" lon="-1.71162">
        <ele>29.86</ele>
        <time>2020-06-06T07:37:55Z</time>
      </trkpt>
      <trkpt lat="47.15575" lon="-1.71178">
        <ele>29.27</ele>
        <time>2020-06-06T07:37:57Z</time>
      </trkpt>
      <trkpt lat="47.15566" lon="-1.71191">
        <ele>28.28</ele>
        <time>2020-06-06T07:37:59Z</time>
      </trkpt>
      <trkpt lat="47.15558" lon="-1.71207">
        <ele>27.56</ele>
        <time>2020-06-06T07:38:01Z</time>
      </trkpt>
      <trkpt lat="47.1555" lon="-1.71221">
        <ele>27.22</ele>
        <time>2020-06-06T07:38:03Z</time>
      </trkpt>
      <trkpt lat="47.15541" lon="-1.71239">
        <ele>26.18</ele>
        <time>2020-06-06T07:38:05Z</time>
      </trkpt>
      <trkpt lat="47.15536" lon="-1.71254">
        <ele>27.13</ele>
        <time>2020-06-06T07:38:07Z</time>
      </trkpt>
      <trkpt lat="47.1553" lon="-1.71268">
        <ele>27.67</ele>
        <time>2020-06-06T07:38:09Z</time>
      </trkpt>
      <trkpt lat="47.15522" lon="-1.71286">
        <ele>28.16</ele>
        <time>2020-06-06T07:38:11Z</time>
      </trkpt>
      <trkpt lat="47.15516" lon="-1.71301">
        <ele>29.24</ele>
        <time>2020-06-06T07:38:13Z</time>
      </trkpt>
      <trkpt lat="47.15508" lon="-1.71318">
        <ele>28.59</ele>
        <time>2020-06-06T07:38:15Z</time>
      </trkpt>
      <trkpt lat="47.155" lon="-1.71336">
        <ele>27.98</ele>
        <time>2020-06-06T07:38:17Z</time>
      </trkpt>
      <trkpt lat="47.15492" lon="-1.71349">
        <ele>27.94</ele>
        <time>2020-06-06T07:38:19Z</time>
      </trkpt>
      <trkpt lat="47.15484" lon="-1.71363">
        <ele>28.94</ele>
        <time>2020-06-06T07:38:21Z</time>
      </trkpt>
      <trkpt lat="47.15475" lon="-1.71377">
        <ele>30.21</ele>
        <time>2020-06-06T07:38:23Z</time>
      </trkpt>
      <trkpt lat="47.15465" lon="-1.7139">
        <ele>29.42</ele>
        <time>2020-06-06T07:38:25Z</time>
      </trkpt>
      <trkpt lat="47.15455" lon="-1.714">
        <ele>28.15</ele>
        <time>2020-06-06T07:38:27Z</time>
      </trkpt>
      <trkpt lat="47.15443" lon="-1.71412">
        <ele>27.46</ele>
        <time>2020-06-06T07:38:29Z</time>
      </trkpt>
      <trkpt lat="47.15432" lon="-1.71423">
        <ele>26.87</ele>
        <time>2020-06-06T07:38:31Z</time>
      </trkpt>
      <trkpt lat="47.15421" lon="-1.71434">
        <ele>26.7</ele>
        <time>2020-06-06T07:38:33Z</time>
      </trkpt>
      <trkpt lat="47.15408" lon="-1.71445">
        <ele>26.71</ele>
        <time>2020-06-06T07:38:35Z</time>
      </trkpt>
      <trkpt lat="47.15397" lon="-1.71455">
        <ele>26.57</ele>
        <time>2020-06-06T07:38:37Z</time>
      </trkpt>
      <trkpt lat="47.15385" lon="-1.71465">
        <ele>25.96</ele>
        <time>2020-06-06T07:38:39Z</time>
      </trkpt>
      <trkpt lat="47.15372" lon="-1.71474">
        <ele>25.86</ele>
        <time>2020-06-06T07:38:41Z</time>
      </trkpt>
      <trkpt lat="47.15362" lon="-1.71483">
        <ele>26.25</ele>
        <time>2020-06-06T07:38:43Z</time>
      </trkpt>
      <trkpt lat="47.1535" lon="-1.71494">
        <ele>25.64</ele>
        <time>2020-06-06T07:38:45Z</time>
      </trkpt>
      <trkpt lat="47.15338" lon="-1.71507">
        <ele>26.09</ele>
        <time>2020-06-06T07:38:47Z</time>
      </trkpt>
      <trkpt lat="47.15328" lon="-1.71518">
        <ele>26.69</ele>
        <time>2020-06-06T07:38:49Z</time>
      </trkpt>
      <trkpt lat="47.15318" lon="-1.7153">
        <ele>27.73</ele>
        <time>2020-06-06T07:38:51Z</time>
      </trkpt>
      <trkpt lat="47.15305" lon="-1.71543">
        <ele>27.13</ele>
        <time>2020-06-06T07:38:53Z</time>
      </trkpt>
      <trkpt lat="47.15294" lon="-1.71556">
        <ele>26.4</ele>
        <time>2020-06-06T07:38:55Z</time>
      </trkpt>
      <trkpt lat="47.15282" lon="-1.71569">
        <ele>26.03</ele>
        <time>2020-06-06T07:38:57Z</time>
      </trkpt>
      <trkpt lat="47.15271" lon="-1.71581">
        <ele>25.28</ele>
        <time>2020-06-06T07:38:59Z</time>
      </trkpt>
      <trkpt lat="47.15262" lon="-1.71592">
        <ele>24.27</ele>
        <time>2020-06-06T07:39:01Z</time>
      </trkpt>
      <trkpt lat="47.1525" lon="-1.71606">
        <ele>22.77</ele>
        <time>2020-06-06T07:39:03Z</time>
      </trkpt>
      <trkpt lat="47.1524" lon="-1.71621">
        <ele>21.26</ele>
        <time>2020-06-06T07:39:05Z</time>
      </trkpt>
      <trkpt lat="47.15226" lon="-1.71626">
        <ele>20.64</ele>
        <time>2020-06-06T07:39:07Z</time>
      </trkpt>
      <trkpt lat="47.15213" lon="-1.71618">
        <ele>20.64</ele>
        <time>2020-06-06T07:39:09Z</time>
      </trkpt>
      <trkpt lat="47.15201" lon="-1.71608">
        <ele>21.1</ele>
        <time>2020-06-06T07:39:11Z</time>
      </trkpt>
      <trkpt lat="47.15186" lon="-1.71598">
        <ele>21.53</ele>
        <time>2020-06-06T07:39:13Z</time>
      </trkpt>
      <trkpt lat="47.15175" lon="-1.71588">
        <ele>21.99</ele>
        <time>2020-06-06T07:39:15Z</time>
      </trkpt>
      <trkpt lat="47.15163" lon="-1.71579">
        <ele>22.1</ele>
        <time>2020-06-06T07:39:17Z</time>
      </trkpt>
      <trkpt lat="47.15151" lon="-1.71569">
        <ele>22.13</ele>
        <time>2020-06-06T07:39:19Z</time>
      </trkpt>
      <trkpt lat="47.15139" lon="-1.71559">
        <ele>22.03</ele>
        <time>2020-06-06T07:39:21Z</time>
      </trkpt>
      <trkpt lat="47.15128" lon="-1.71548">
        <ele>21.91</ele>
        <time>2020-06-06T07:39:23Z</time>
      </trkpt>
      <trkpt lat="47.15115" lon="-1.71537">
        <ele>22.23</ele>
        <time>2020-06-06T07:39:25Z</time>
      </trkpt>
      <trkpt lat="47.15102" lon="-1.71527">
        <ele>22.92</ele>
        <time>2020-06-06T07:39:27Z</time>
      </trkpt>
      <trkpt lat="47.1509" lon="-1.71517">
        <ele>23.64</ele>
        <time>2020-06-06T07:39:29Z</time>
      </trkpt>
      <trkpt lat="47.15079" lon="-1.71505">
        <ele>23.53</ele>
        <time>2020-06-06T07:39:31Z</time>
      </trkpt>
      <trkpt lat="47.15067" lon="-1.71493">
        <ele>23.29</ele>
        <time>2020-06-06T07:39:33Z</time>
      </trkpt>
      <trkpt lat="47.15056" lon="-1.71481">
        <ele>23.67</ele>
        <time>2020-06-06T07:39:35Z</time>
      </trkpt>
      <trkpt lat="47.15044" lon="-1.71469">
        <ele>23.71</ele>
        <time>2020-06-06T07:39:37Z</time>
      </trkpt>
      <trkpt lat="47.15033" lon="-1.71456">
        <ele>23.27</ele>
        <time>2020-06-06T07:39:39Z</time>
      </trkpt>
      <trkpt lat="47.15022" lon="-1.71445">
        <ele>22.63</ele>
        <time>2020-06-06T07:39:41Z</time>
      </trkpt>
      <trkpt lat="47.1501" lon="-1.71433">
        <ele>22.52</ele>
        <time>2020-06-06T07:39:43Z</time>
      </trkpt>
      <trkpt lat="47.14997" lon="-1.71421">
        <ele>23.13</ele>
        <time>2020-06-06T07:39:45Z</time>
      </trkpt>
      <trkpt lat="47.14987" lon="-1.71411">
        <ele>24.1</ele>
        <time>2020-06-06T07:39:47Z</time>
      </trkpt>
      <trkpt lat="47.14974" lon="-1.71399">
        <ele>24.35</ele>
        <time>2020-06-06T07:39:49Z</time>
      </trkpt>
      <trkpt lat="47.14962" lon="-1.71388">
        <ele>24.45</ele>
        <time>2020-06-06T07:39:51Z</time>
      </trkpt>
      <trkpt lat="47.14951" lon="-1.71376">
        <ele>24.58</ele>
        <time>2020-06-06T07:39:53Z</time>
      </trkpt>
      <trkpt lat="47.14938" lon="-1.71363">
        <ele>24.93</ele>
        <time>2020-06-06T07:39:55Z</time>
      </trkpt>
      <trkpt lat="47.14927" lon="-1.71349">
        <ele>24.64</ele>
        <time>2020-06-06T07:39:57Z</time>
      </trkpt>
      <trkpt lat="47.14917" lon="-1.71335">
        <ele>24.87</ele>
        <time>2020-06-06T07:39:59Z</time>
      </trkpt>
      <trkpt lat="47.14907" lon="-1.71323">
        <ele>24.48</ele>
        <time>2020-06-06T07:40:01Z</time>
      </trkpt>
      <trkpt lat="47.14896" lon="-1.71309">
        <ele>24.27</ele>
        <time>2020-06-06T07:40:03Z</time>
      </trkpt>
      <trkpt lat="47.14885" lon="-1.71296">
        <ele>24.02</ele>
        <time>2020-06-06T07:40:05Z</time>
      </trkpt>
      <trkpt lat="47.14875" lon="-1.71285">
        <ele>24.35</ele>
        <time>2020-06-06T07:40:07Z</time>
      </trkpt>
      <trkpt lat="47.14864" lon="-1.71274">
        <ele>24.17</ele>
        <time>2020-06-06T07:40:09Z</time>
      </trkpt>
      <trkpt lat="47.14852" lon="-1.71261">
        <ele>23.77</ele>
        <time>2020-06-06T07:40:11Z</time>
      </trkpt>
      <trkpt lat="47.14844" lon="-1.71242">
        <ele>24.17</ele>
        <time>2020-06-06T07:40:13Z</time>
      </trkpt>
      <trkpt lat="47.14839" lon="-1.71231">
        <ele>24.13</ele>
        <time>2020-06-06T07:40:14Z</time>
      </trkpt>
      <trkpt lat="47.14832" lon="-1.71212">
        <ele>24.28</ele>
        <time>2020-06-06T07:40:16Z</time>
      </trkpt>
      <trkpt lat="47.14825" lon="-1.71193">
        <ele>24.62</ele>
        <time>2020-06-06T07:40:18Z</time>
      </trkpt>
      <trkpt lat="47.14819" lon="-1.71174">
        <ele>25.57</ele>
        <time>2020-06-06T07:40:20Z</time>
      </trkpt>
      <trkpt lat="47.14812" lon="-1.71155">
        <ele>26.06</ele>
        <time>2020-06-06T07:40:22Z</time>
      </trkpt>
      <trkpt lat="47.14805" lon="-1.71136">
        <ele>26.28</ele>
        <time>2020-06-06T07:40:24Z</time>
      </trkpt>
      <trkpt lat="47.14798" lon="-1.7112">
        <ele>26.37</ele>
        <time>2020-06-06T07:40:26Z</time>
      </trkpt>
      <trkpt lat="47.1479" lon="-1.71101">
        <ele>27.02</ele>
        <time>2020-06-06T07:40:28Z</time>
      </trkpt>
      <trkpt lat="47.14783" lon="-1.71083">
        <ele>27.54</ele>
        <time>2020-06-06T07:40:30Z</time>
      </trkpt>
      <trkpt lat="47.14775" lon="-1.71066">
        <ele>28.22</ele>
        <time>2020-06-06T07:40:32Z</time>
      </trkpt>
      <trkpt lat="47.14768" lon="-1.71048">
        <ele>28.61</ele>
        <time>2020-06-06T07:40:34Z</time>
      </trkpt>
      <trkpt lat="47.14761" lon="-1.71028">
        <ele>27.93</ele>
        <time>2020-06-06T07:40:36Z</time>
      </trkpt>
      <trkpt lat="47.14756" lon="-1.71011">
        <ele>26.57</ele>
        <time>2020-06-06T07:40:38Z</time>
      </trkpt>
      <trkpt lat="47.14751" lon="-1.70991">
        <ele>25.47</ele>
        <time>2020-06-06T07:40:40Z</time>
      </trkpt>
      <trkpt lat="47.1474" lon="-1.70979">
        <ele>24.89</ele>
        <time>2020-06-06T07:40:42Z</time>
      </trkpt>
      <trkpt lat="47.14729" lon="-1.70983">
        <ele>24.93</ele>
        <time>2020-06-06T07:40:44Z</time>
      </trkpt>
      <trkpt lat="47.14719" lon="-1.70996">
        <ele>24.64</ele>
        <time>2020-06-06T07:40:46Z</time>
      </trkpt>
      <trkpt lat="47.14711" lon="-1.71018">
        <ele>24.23</ele>
        <time>2020-06-06T07:40:48Z</time>
      </trkpt>
      <trkpt lat="47.14709" lon="-1.71042">
        <ele>25.05</ele>
        <time>2020-06-06T07:40:50Z</time>
      </trkpt>
      <trkpt lat="47.14709" lon="-1.71063">
        <ele>26.05</ele>
        <time>2020-06-06T07:40:52Z</time>
      </trkpt>
      <trkpt lat="47.14711" lon="-1.71086">
        <ele>27.17</ele>
        <time>2020-06-06T07:40:54Z</time>
      </trkpt>
      <trkpt lat="47.14714" lon="-1.71106">
        <ele>27.85</ele>
        <time>2020-06-06T07:40:56Z</time>
      </trkpt>
      <trkpt lat="47.14718" lon="-1.71127">
        <ele>27.6</ele>
        <time>2020-06-06T07:40:58Z</time>
      </trkpt>
      <trkpt lat="47.14721" lon="-1.71145">
        <ele>27.15</ele>
        <time>2020-06-06T07:41:00Z</time>
      </trkpt>
      <trkpt lat="47.14724" lon="-1.71165">
        <ele>26.63</ele>
        <time>2020-06-06T07:41:02Z</time>
      </trkpt>
      <trkpt lat="47.14727" lon="-1.71185">
        <ele>26.52</ele>
        <time>2020-06-06T07:41:04Z</time>
      </trkpt>
      <trkpt lat="47.14732" lon="-1.71203">
        <ele>26.32</ele>
        <time>2020-06-06T07:41:06Z</time>
      </trkpt>
      <trkpt lat="47.14737" lon="-1.7122">
        <ele>26.52</ele>
        <time>2020-06-06T07:41:08Z</time>
      </trkpt>
      <trkpt lat="47.14743" lon="-1.71239">
        <ele>26.63</ele>
        <time>2020-06-06T07:41:10Z</time>
      </trkpt>
      <trkpt lat="47.14748" lon="-1.71258">
        <ele>26.64</ele>
        <time>2020-06-06T07:41:12Z</time>
      </trkpt>
      <trkpt lat="47.14753" lon="-1.71275">
        <ele>26.99</ele>
        <time>2020-06-06T07:41:14Z</time>
      </trkpt>
      <trkpt lat="47.14756" lon="-1.71294">
        <ele>26.79</ele>
        <time>2020-06-06T07:41:16Z</time>
      </trkpt>
      <trkpt lat="47.1476" lon="-1.71312">
        <ele>26.64</ele>
        <time>2020-06-06T07:41:18Z</time>
      </trkpt>
      <trkpt lat="47.14764" lon="-1.71334">
        <ele>26.68</ele>
        <time>2020-06-06T07:41:20Z</time>
      </trkpt>
      <trkpt lat="47.14766" lon="-1.71352">
        <ele>26.01</ele>
        <time>2020-06-06T07:41:22Z</time>
      </trkpt>
      <trkpt lat="47.14769" lon="-1.71371">
        <ele>24.92</ele>
        <time>2020-06-06T07:41:24Z</time>
      </trkpt>
      <trkpt lat="47.14771" lon="-1.71388">
        <ele>23.97</ele>
        <time>2020-06-06T07:41:26Z</time>
      </trkpt>
      <trkpt lat="47.14774" lon="-1.71407">
        <ele>22.96</ele>
        <time>2020-06-06T07:41:28Z</time>
      </trkpt>
      <trkpt lat="47.14777" lon="-1.71425">
        <ele>23.46</ele>
        <time>2020-06-06T07:41:30Z</time>
      </trkpt>
      <trkpt lat="47.1478" lon="-1.71443">
        <ele>23.73</ele>
        <time>2020-06-06T07:41:32Z</time>
      </trkpt>
      <trkpt lat="47.14784" lon="-1.71464">
        <ele>23.79</ele>
        <time>2020-06-06T07:41:34Z</time>
      </trkpt>
      <trkpt lat="47.14788" lon="-1.71484">
        <ele>24.48</ele>
        <time>2020-06-06T07:41:36Z</time>
      </trkpt>
      <trkpt lat="47.14791" lon="-1.71502">
        <ele>25.59</ele>
        <time>2020-06-06T07:41:38Z</time>
      </trkpt>
      <trkpt lat="47.14793" lon="-1.71522">
        <ele>26.08</ele>
        <time>2020-06-06T07:41:40Z</time>
      </trkpt>
      <trkpt lat="47.14793" lon="-1.71538">
        <ele>26.16</ele>
        <time>2020-06-06T07:41:42Z</time>
      </trkpt>
      <trkpt lat="47.14793" lon="-1.71558">
        <ele>26.56</ele>
        <time>2020-06-06T07:41:44Z</time>
      </trkpt>
      <trkpt lat="47.14793" lon="-1.71579">
        <ele>26.16</ele>
        <time>2020-06-06T07:41:46Z</time>
      </trkpt>
      <trkpt lat="47.14791" lon="-1.71594">
        <ele>25.51</ele>
        <time>2020-06-06T07:41:48Z</time>
      </trkpt>
      <trkpt lat="47.14789" lon="-1.71609">
        <ele>25.75</ele>
        <time>2020-06-06T07:41:50Z</time>
      </trkpt>
      <trkpt lat="47.14786" lon="-1.71628">
        <ele>26.37</ele>
        <time>2020-06-06T07:41:52Z</time>
      </trkpt>
      <trkpt lat="47.14783" lon="-1.71646">
        <ele>26.42</ele>
        <time>2020-06-06T07:41:54Z</time>
      </trkpt>
      <trkpt lat="47.14779" lon="-1.71666">
        <ele>26.88</ele>
        <time>2020-06-06T07:41:56Z</time>
      </trkpt>
      <trkpt lat="47.14776" lon="-1.71683">
        <ele>27.3</ele>
        <time>2020-06-06T07:41:58Z</time>
      </trkpt>
      <trkpt lat="47.14772" lon="-1.71702">
        <ele>27.6</ele>
        <time>2020-06-06T07:42:00Z</time>
      </trkpt>
      <trkpt lat="47.14769" lon="-1.71721">
        <ele>27.42</ele>
        <time>2020-06-06T07:42:02Z</time>
      </trkpt>
      <trkpt lat="47.14766" lon="-1.71738">
        <ele>27.02</ele>
        <time>2020-06-06T07:42:04Z</time>
      </trkpt>
      <trkpt lat="47.14763" lon="-1.71754">
        <ele>26.61</ele>
        <time>2020-06-06T07:42:06Z</time>
      </trkpt>
      <trkpt lat="47.14759" lon="-1.71772">
        <ele>26.77</ele>
        <time>2020-06-06T07:42:08Z</time>
      </trkpt>
      <trkpt lat="47.14753" lon="-1.71789">
        <ele>28.04</ele>
        <time>2020-06-06T07:42:10Z</time>
      </trkpt>
      <trkpt lat="47.14744" lon="-1.71803">
        <ele>28.49</ele>
        <time>2020-06-06T07:42:12Z</time>
      </trkpt>
      <trkpt lat="47.14733" lon="-1.71816">
        <ele>28</ele>
        <time>2020-06-06T07:42:14Z</time>
      </trkpt>
      <trkpt lat="47.14721" lon="-1.71825">
        <ele>27.4</ele>
        <time>2020-06-06T07:42:16Z</time>
      </trkpt>
      <trkpt lat="47.14707" lon="-1.71833">
        <ele>26.56</ele>
        <time>2020-06-06T07:42:18Z</time>
      </trkpt>
      <trkpt lat="47.14693" lon="-1.7184">
        <ele>26.37</ele>
        <time>2020-06-06T07:42:20Z</time>
      </trkpt>
      <trkpt lat="47.14679" lon="-1.71846">
        <ele>26.72</ele>
        <time>2020-06-06T07:42:22Z</time>
      </trkpt>
      <trkpt lat="47.14666" lon="-1.71852">
        <ele>27.3</ele>
        <time>2020-06-06T07:42:24Z</time>
      </trkpt>
      <trkpt lat="47.14652" lon="-1.71857">
        <ele>27.5</ele>
        <time>2020-06-06T07:42:26Z</time>
      </trkpt>
      <trkpt lat="47.14637" lon="-1.71859">
        <ele>28.5</ele>
        <time>2020-06-06T07:42:28Z</time>
      </trkpt>
      <trkpt lat="47.14623" lon="-1.7186">
        <ele>28.92</ele>
        <time>2020-06-06T07:42:30Z</time>
      </trkpt>
      <trkpt lat="47.14609" lon="-1.71858">
        <ele>29.61</ele>
        <time>2020-06-06T07:42:32Z</time>
      </trkpt>
      <trkpt lat="47.14593" lon="-1.71854">
        <ele>29.62</ele>
        <time>2020-06-06T07:42:34Z</time>
      </trkpt>
      <trkpt lat="47.14578" lon="-1.71848">
        <ele>28.89</ele>
        <time>2020-06-06T07:42:36Z</time>
      </trkpt>
      <trkpt lat="47.14563" lon="-1.71841">
        <ele>28.41</ele>
        <time>2020-06-06T07:42:38Z</time>
      </trkpt>
      <trkpt lat="47.1455" lon="-1.71833">
        <ele>27.99</ele>
        <time>2020-06-06T07:42:40Z</time>
      </trkpt>
      <trkpt lat="47.1454" lon="-1.71827">
        <ele>27.01</ele>
        <time>2020-06-06T07:42:42Z</time>
      </trkpt>
      <trkpt lat="47.14526" lon="-1.7182">
        <ele>26.87</ele>
        <time>2020-06-06T07:42:44Z</time>
      </trkpt>
      <trkpt lat="47.14511" lon="-1.71813">
        <ele>26.42</ele>
        <time>2020-06-06T07:42:46Z</time>
      </trkpt>
      <trkpt lat="47.14497" lon="-1.71805">
        <ele>26.39</ele>
        <time>2020-06-06T07:42:48Z</time>
      </trkpt>
      <trkpt lat="47.14481" lon="-1.71797">
        <ele>25.87</ele>
        <time>2020-06-06T07:42:50Z</time>
      </trkpt>
      <trkpt lat="47.14467" lon="-1.71791">
        <ele>25.68</ele>
        <time>2020-06-06T07:42:52Z</time>
      </trkpt>
      <trkpt lat="47.14453" lon="-1.71785">
        <ele>25.72</ele>
        <time>2020-06-06T07:42:54Z</time>
      </trkpt>
      <trkpt lat="47.1444" lon="-1.7178">
        <ele>25.55</ele>
        <time>2020-06-06T07:42:56Z</time>
      </trkpt>
      <trkpt lat="47.14425" lon="-1.71778">
        <ele>24.92</ele>
        <time>2020-06-06T07:42:58Z</time>
      </trkpt>
      <trkpt lat="47.1441" lon="-1.71777">
        <ele>23.8</ele>
        <time>2020-06-06T07:43:00Z</time>
      </trkpt>
      <trkpt lat="47.14396" lon="-1.7178">
        <ele>23.08</ele>
        <time>2020-06-06T07:43:02Z</time>
      </trkpt>
      <trkpt lat="47.14379" lon="-1.71784">
        <ele>22.31</ele>
        <time>2020-06-06T07:43:04Z</time>
      </trkpt>
      <trkpt lat="47.14363" lon="-1.71789">
        <ele>21.53</ele>
        <time>2020-06-06T07:43:06Z</time>
      </trkpt>
      <trkpt lat="47.14351" lon="-1.71794">
        <ele>21.42</ele>
        <time>2020-06-06T07:43:08Z</time>
      </trkpt>
      <trkpt lat="47.14336" lon="-1.71799">
        <ele>21.67</ele>
        <time>2020-06-06T07:43:10Z</time>
      </trkpt>
      <trkpt lat="47.14321" lon="-1.71805">
        <ele>21.75</ele>
        <time>2020-06-06T07:43:12Z</time>
      </trkpt>
      <trkpt lat="47.14306" lon="-1.7181">
        <ele>21.38</ele>
        <time>2020-06-06T07:43:14Z</time>
      </trkpt>
      <trkpt lat="47.14291" lon="-1.71816">
        <ele>20.82</ele>
        <time>2020-06-06T07:43:16Z</time>
      </trkpt>
      <trkpt lat="47.14276" lon="-1.71821">
        <ele>19.85</ele>
        <time>2020-06-06T07:43:18Z</time>
      </trkpt>
      <trkpt lat="47.14262" lon="-1.71825">
        <ele>19.56</ele>
        <time>2020-06-06T07:43:20Z</time>
      </trkpt>
      <trkpt lat="47.14248" lon="-1.71831">
        <ele>19.89</ele>
        <time>2020-06-06T07:43:22Z</time>
      </trkpt>
      <trkpt lat="47.14232" lon="-1.71836">
        <ele>20.05</ele>
        <time>2020-06-06T07:43:24Z</time>
      </trkpt>
      <trkpt lat="47.14216" lon="-1.71841">
        <ele>19.95</ele>
        <time>2020-06-06T07:43:26Z</time>
      </trkpt>
      <trkpt lat="47.14202" lon="-1.71846">
        <ele>19.88</ele>
        <time>2020-06-06T07:43:28Z</time>
      </trkpt>
      <trkpt lat="47.14187" lon="-1.71851">
        <ele>19.97</ele>
        <time>2020-06-06T07:43:30Z</time>
      </trkpt>
      <trkpt lat="47.14172" lon="-1.71857">
        <ele>20.97</ele>
        <time>2020-06-06T07:43:32Z</time>
      </trkpt>
      <trkpt lat="47.14158" lon="-1.71862">
        <ele>20.46</ele>
        <time>2020-06-06T07:43:34Z</time>
      </trkpt>
      <trkpt lat="47.14141" lon="-1.71867">
        <ele>19.41</ele>
        <time>2020-06-06T07:43:36Z</time>
      </trkpt>
      <trkpt lat="47.14124" lon="-1.71873">
        <ele>19.3</ele>
        <time>2020-06-06T07:43:38Z</time>
      </trkpt>
      <trkpt lat="47.14108" lon="-1.71878">
        <ele>18.64</ele>
        <time>2020-06-06T07:43:40Z</time>
      </trkpt>
      <trkpt lat="47.14099" lon="-1.71881">
        <ele>18.15</ele>
        <time>2020-06-06T07:43:41Z</time>
      </trkpt>
      <trkpt lat="47.14082" lon="-1.71887">
        <ele>17.22</ele>
        <time>2020-06-06T07:43:43Z</time>
      </trkpt>
      <trkpt lat="47.14073" lon="-1.7189">
        <ele>16.5</ele>
        <time>2020-06-06T07:43:44Z</time>
      </trkpt>
      <trkpt lat="47.14064" lon="-1.71893">
        <ele>15.65</ele>
        <time>2020-06-06T07:43:45Z</time>
      </trkpt>
      <trkpt lat="47.14054" lon="-1.71896">
        <ele>15.36</ele>
        <time>2020-06-06T07:43:46Z</time>
      </trkpt>
      <trkpt lat="47.14045" lon="-1.71899">
        <ele>15.16</ele>
        <time>2020-06-06T07:43:47Z</time>
      </trkpt>
      <trkpt lat="47.14036" lon="-1.71902">
        <ele>14.92</ele>
        <time>2020-06-06T07:43:48Z</time>
      </trkpt>
      <trkpt lat="47.14017" lon="-1.71907">
        <ele>13.99</ele>
        <time>2020-06-06T07:43:50Z</time>
      </trkpt>
      <trkpt lat="47.14007" lon="-1.71909">
        <ele>13.62</ele>
        <time>2020-06-06T07:43:51Z</time>
      </trkpt>
      <trkpt lat="47.13997" lon="-1.71905">
        <ele>13.27</ele>
        <time>2020-06-06T07:43:52Z</time>
      </trkpt>
      <trkpt lat="47.13979" lon="-1.71898">
        <ele>13.61</ele>
        <time>2020-06-06T07:43:54Z</time>
      </trkpt>
      <trkpt lat="47.13967" lon="-1.71909">
        <ele>13.59</ele>
        <time>2020-06-06T07:43:56Z</time>
      </trkpt>
      <trkpt lat="47.13964" lon="-1.71932">
        <ele>11.96</ele>
        <time>2020-06-06T07:43:58Z</time>
      </trkpt>
      <trkpt lat="47.13963" lon="-1.71953">
        <ele>9.89</ele>
        <time>2020-06-06T07:44:00Z</time>
      </trkpt>
      <trkpt lat="47.13954" lon="-1.71968">
        <ele>8.27</ele>
        <time>2020-06-06T07:44:02Z</time>
      </trkpt>
      <trkpt lat="47.13942" lon="-1.71981">
        <ele>7.08</ele>
        <time>2020-06-06T07:44:04Z</time>
      </trkpt>
      <trkpt lat="47.1393" lon="-1.71989">
        <ele>7.21</ele>
        <time>2020-06-06T07:44:06Z</time>
      </trkpt>
      <trkpt lat="47.13918" lon="-1.71995">
        <ele>7.23</ele>
        <time>2020-06-06T07:44:08Z</time>
      </trkpt>
      <trkpt lat="47.13905" lon="-1.72001">
        <ele>6.75</ele>
        <time>2020-06-06T07:44:10Z</time>
      </trkpt>
      <trkpt lat="47.13892" lon="-1.72007">
        <ele>6.35</ele>
        <time>2020-06-06T07:44:12Z</time>
      </trkpt>
      <trkpt lat="47.13879" lon="-1.72015">
        <ele>7.73</ele>
        <time>2020-06-06T07:44:14Z</time>
      </trkpt>
      <trkpt lat="47.13868" lon="-1.72028">
        <ele>9.11</ele>
        <time>2020-06-06T07:44:16Z</time>
      </trkpt>
      <trkpt lat="47.13859" lon="-1.72041">
        <ele>10.56</ele>
        <time>2020-06-06T07:44:18Z</time>
      </trkpt>
      <trkpt lat="47.13849" lon="-1.72054">
        <ele>12</ele>
        <time>2020-06-06T07:44:20Z</time>
      </trkpt>
      <trkpt lat="47.13841" lon="-1.72067">
        <ele>13.7</ele>
        <time>2020-06-06T07:44:22Z</time>
      </trkpt>
      <trkpt lat="47.13834" lon="-1.72079">
        <ele>15.23</ele>
        <time>2020-06-06T07:44:24Z</time>
      </trkpt>
      <trkpt lat="47.13826" lon="-1.72091">
        <ele>16.6</ele>
        <time>2020-06-06T07:44:26Z</time>
      </trkpt>
      <trkpt lat="47.13817" lon="-1.72106">
        <ele>18.07</ele>
        <time>2020-06-06T07:44:28Z</time>
      </trkpt>
      <trkpt lat="47.13807" lon="-1.72124">
        <ele>18.47</ele>
        <time>2020-06-06T07:44:30Z</time>
      </trkpt>
      <trkpt lat="47.13799" lon="-1.72138">
        <ele>17.5</ele>
        <time>2020-06-06T07:44:32Z</time>
      </trkpt>
      <trkpt lat="47.13791" lon="-1.72151">
        <ele>16.9</ele>
        <time>2020-06-06T07:44:34Z</time>
      </trkpt>
      <trkpt lat="47.13784" lon="-1.72163">
        <ele>16.56</ele>
        <time>2020-06-06T07:44:36Z</time>
      </trkpt>
      <trkpt lat="47.13776" lon="-1.72177">
        <ele>16.58</ele>
        <time>2020-06-06T07:44:38Z</time>
      </trkpt>
      <trkpt lat="47.13768" lon="-1.72191">
        <ele>16.89</ele>
        <time>2020-06-06T07:44:40Z</time>
      </trkpt>
      <trkpt lat="47.13762" lon="-1.72204">
        <ele>17.76</ele>
        <time>2020-06-06T07:44:42Z</time>
      </trkpt>
      <trkpt lat="47.13754" lon="-1.72216">
        <ele>18.52</ele>
        <time>2020-06-06T07:44:44Z</time>
      </trkpt>
      <trkpt lat="47.13746" lon="-1.72231">
        <ele>18.93</ele>
        <time>2020-06-06T07:44:46Z</time>
      </trkpt>
      <trkpt lat="47.1374" lon="-1.72247">
        <ele>19.51</ele>
        <time>2020-06-06T07:44:48Z</time>
      </trkpt>
      <trkpt lat="47.13736" lon="-1.72264">
        <ele>20.06</ele>
        <time>2020-06-06T07:44:50Z</time>
      </trkpt>
      <trkpt lat="47.13733" lon="-1.72282">
        <ele>20.5</ele>
        <time>2020-06-06T07:44:52Z</time>
      </trkpt>
      <trkpt lat="47.13731" lon="-1.723">
        <ele>20.5</ele>
        <time>2020-06-06T07:44:54Z</time>
      </trkpt>
      <trkpt lat="47.13729" lon="-1.72317">
        <ele>20.62</ele>
        <time>2020-06-06T07:44:56Z</time>
      </trkpt>
      <trkpt lat="47.13727" lon="-1.72334">
        <ele>21.11</ele>
        <time>2020-06-06T07:44:58Z</time>
      </trkpt>
      <trkpt lat="47.13725" lon="-1.7235">
        <ele>21.51</ele>
        <time>2020-06-06T07:45:00Z</time>
      </trkpt>
      <trkpt lat="47.13722" lon="-1.72365">
        <ele>21.9</ele>
        <time>2020-06-06T07:45:02Z</time>
      </trkpt>
      <trkpt lat="47.13718" lon="-1.72381">
        <ele>22.46</ele>
        <time>2020-06-06T07:45:04Z</time>
      </trkpt>
      <trkpt lat="47.13714" lon="-1.72397">
        <ele>22.57</ele>
        <time>2020-06-06T07:45:05Z</time>
      </trkpt>
      <trkpt lat="47.13709" lon="-1.72414">
        <ele>22.38</ele>
        <time>2020-06-06T07:45:07Z</time>
      </trkpt>
      <trkpt lat="47.13705" lon="-1.72431">
        <ele>22.52</ele>
        <time>2020-06-06T07:45:09Z</time>
      </trkpt>
      <trkpt lat="47.137" lon="-1.72448">
        <ele>22.35</ele>
        <time>2020-06-06T07:45:11Z</time>
      </trkpt>
      <trkpt lat="47.13695" lon="-1.72464">
        <ele>21.85</ele>
        <time>2020-06-06T07:45:13Z</time>
      </trkpt>
      <trkpt lat="47.1369" lon="-1.72481">
        <ele>21.75</ele>
        <time>2020-06-06T07:45:15Z</time>
      </trkpt>
      <trkpt lat="47.13686" lon="-1.72497">
        <ele>22.53</ele>
        <time>2020-06-06T07:45:17Z</time>
      </trkpt>
      <trkpt lat="47.13682" lon="-1.72514">
        <ele>22.99</ele>
        <time>2020-06-06T07:45:19Z</time>
      </trkpt>
      <trkpt lat="47.13679" lon="-1.72533">
        <ele>22.87</ele>
        <time>2020-06-06T07:45:21Z</time>
      </trkpt>
      <trkpt lat="47.13677" lon="-1.72553">
        <ele>22.23</ele>
        <time>2020-06-06T07:45:23Z</time>
      </trkpt>
      <trkpt lat="47.13677" lon="-1.72572">
        <ele>21.61</ele>
        <time>2020-06-06T07:45:25Z</time>
      </trkpt>
      <trkpt lat="47.13676" lon="-1.72589">
        <ele>21.45</ele>
        <time>2020-06-06T07:45:27Z</time>
      </trkpt>
      <trkpt lat="47.13676" lon="-1.72607">
        <ele>21.65</ele>
        <time>2020-06-06T07:45:29Z</time>
      </trkpt>
      <trkpt lat="47.13673" lon="-1.72626">
        <ele>22.17</ele>
        <time>2020-06-06T07:45:31Z</time>
      </trkpt>
      <trkpt lat="47.1367" lon="-1.72643">
        <ele>23.22</ele>
        <time>2020-06-06T07:45:33Z</time>
      </trkpt>
      <trkpt lat="47.13667" lon="-1.72661">
        <ele>23.22</ele>
        <time>2020-06-06T07:45:35Z</time>
      </trkpt>
      <trkpt lat="47.13665" lon="-1.72675">
        <ele>23.57</ele>
        <time>2020-06-06T07:45:37Z</time>
      </trkpt>
      <trkpt lat="47.13662" lon="-1.72694">
        <ele>24.58</ele>
        <time>2020-06-06T07:45:39Z</time>
      </trkpt>
      <trkpt lat="47.1366" lon="-1.72713">
        <ele>24.54</ele>
        <time>2020-06-06T07:45:41Z</time>
      </trkpt>
      <trkpt lat="47.13658" lon="-1.7273">
        <ele>24.85</ele>
        <time>2020-06-06T07:45:43Z</time>
      </trkpt>
      <trkpt lat="47.13657" lon="-1.72748">
        <ele>25</ele>
        <time>2020-06-06T07:45:45Z</time>
      </trkpt>
      <trkpt lat="47.13656" lon="-1.72763">
        <ele>25.32</ele>
        <time>2020-06-06T07:45:47Z</time>
      </trkpt>
      <trkpt lat="47.13656" lon="-1.7278">
        <ele>24.63</ele>
        <time>2020-06-06T07:45:49Z</time>
      </trkpt>
      <trkpt lat="47.13654" lon="-1.72797">
        <ele>24.34</ele>
        <time>2020-06-06T07:45:51Z</time>
      </trkpt>
      <trkpt lat="47.13653" lon="-1.72811">
        <ele>24.83</ele>
        <time>2020-06-06T07:45:53Z</time>
      </trkpt>
      <trkpt lat="47.13652" lon="-1.72825">
        <ele>26.2</ele>
        <time>2020-06-06T07:45:55Z</time>
      </trkpt>
      <trkpt lat="47.13651" lon="-1.72845">
        <ele>26.87</ele>
        <time>2020-06-06T07:45:57Z</time>
      </trkpt>
      <trkpt lat="47.13649" lon="-1.72862">
        <ele>27.29</ele>
        <time>2020-06-06T07:45:59Z</time>
      </trkpt>
      <trkpt lat="47.13647" lon="-1.72881">
        <ele>26.63</ele>
        <time>2020-06-06T07:46:01Z</time>
      </trkpt>
      <trkpt lat="47.13645" lon="-1.72902">
        <ele>25.15</ele>
        <time>2020-06-06T07:46:03Z</time>
      </trkpt>
      <trkpt lat="47.13643" lon="-1.72921">
        <ele>23.41</ele>
        <time>2020-06-06T07:46:05Z</time>
      </trkpt>
      <trkpt lat="47.13642" lon="-1.72944">
        <ele>21.66</ele>
        <time>2020-06-06T07:46:07Z</time>
      </trkpt>
      <trkpt lat="47.1364" lon="-1.72967">
        <ele>19.69</ele>
        <time>2020-06-06T07:46:09Z</time>
      </trkpt>
      <trkpt lat="47.13638" lon="-1.72994">
        <ele>17.81</ele>
        <time>2020-06-06T07:46:11Z</time>
      </trkpt>
      <trkpt lat="47.13636" lon="-1.73018">
        <ele>15.16</ele>
        <time>2020-06-06T07:46:13Z</time>
      </trkpt>
      <trkpt lat="47.1363" lon="-1.73039">
        <ele>13.76</ele>
        <time>2020-06-06T07:46:15Z</time>
      </trkpt>
      <trkpt lat="47.13618" lon="-1.73054">
        <ele>12.91</ele>
        <time>2020-06-06T07:46:17Z</time>
      </trkpt>
      <trkpt lat="47.13604" lon="-1.73067">
        <ele>11.5</ele>
        <time>2020-06-06T07:46:19Z</time>
      </trkpt>
      <trkpt lat="47.1359" lon="-1.73079">
        <ele>11.14</ele>
        <time>2020-06-06T07:46:21Z</time>
      </trkpt>
      <trkpt lat="47.13577" lon="-1.7309">
        <ele>10.89</ele>
        <time>2020-06-06T07:46:23Z</time>
      </trkpt>
      <trkpt lat="47.13564" lon="-1.73102">
        <ele>10.27</ele>
        <time>2020-06-06T07:46:25Z</time>
      </trkpt>
      <trkpt lat="47.13552" lon="-1.73115">
        <ele>10.55</ele>
        <time>2020-06-06T07:46:27Z</time>
      </trkpt>
      <trkpt lat="47.1354" lon="-1.73126">
        <ele>9.83</ele>
        <time>2020-06-06T07:46:29Z</time>
      </trkpt>
      <trkpt lat="47.13528" lon="-1.73138">
        <ele>9.33</ele>
        <time>2020-06-06T07:46:31Z</time>
      </trkpt>
      <trkpt lat="47.13517" lon="-1.73154">
        <ele>9.3</ele>
        <time>2020-06-06T07:46:33Z</time>
      </trkpt>
      <trkpt lat="47.13512" lon="-1.73175">
        <ele>9.81</ele>
        <time>2020-06-06T07:46:35Z</time>
      </trkpt>
      <trkpt lat="47.13509" lon="-1.73194">
        <ele>10.37</ele>
        <time>2020-06-06T07:46:37Z</time>
      </trkpt>
      <trkpt lat="47.13507" lon="-1.73208">
        <ele>10.46</ele>
        <time>2020-06-06T07:46:39Z</time>
      </trkpt>
      <trkpt lat="47.13507" lon="-1.73223">
        <ele>10.18</ele>
        <time>2020-06-06T07:46:41Z</time>
      </trkpt>
      <trkpt lat="47.13506" lon="-1.73237">
        <ele>10.11</ele>
        <time>2020-06-06T07:46:43Z</time>
      </trkpt>
      <trkpt lat="47.13505" lon="-1.73255">
        <ele>9.94</ele>
        <time>2020-06-06T07:46:45Z</time>
      </trkpt>
      <trkpt lat="47.13503" lon="-1.73274">
        <ele>9.44</ele>
        <time>2020-06-06T07:46:47Z</time>
      </trkpt>
      <trkpt lat="47.13502" lon="-1.73289">
        <ele>8.31</ele>
        <time>2020-06-06T07:46:49Z</time>
      </trkpt>
      <trkpt lat="47.13504" lon="-1.73307">
        <ele>7.78</ele>
        <time>2020-06-06T07:46:51Z</time>
      </trkpt>
      <trkpt lat="47.13507" lon="-1.73325">
        <ele>7.63</ele>
        <time>2020-06-06T07:46:53Z</time>
      </trkpt>
      <trkpt lat="47.13513" lon="-1.73343">
        <ele>8.01</ele>
        <time>2020-06-06T07:46:55Z</time>
      </trkpt>
      <trkpt lat="47.13519" lon="-1.73359">
        <ele>8.15</ele>
        <time>2020-06-06T07:46:57Z</time>
      </trkpt>
      <trkpt lat="47.13526" lon="-1.73377">
        <ele>8.02</ele>
        <time>2020-06-06T07:46:59Z</time>
      </trkpt>
      <trkpt lat="47.13531" lon="-1.73394">
        <ele>7.2</ele>
        <time>2020-06-06T07:47:01Z</time>
      </trkpt>
      <trkpt lat="47.13535" lon="-1.73408">
        <ele>6.98</ele>
        <time>2020-06-06T07:47:03Z</time>
      </trkpt>
      <trkpt lat="47.1354" lon="-1.73423">
        <ele>8.73</ele>
        <time>2020-06-06T07:47:05Z</time>
      </trkpt>
      <trkpt lat="47.13545" lon="-1.73443">
        <ele>10.05</ele>
        <time>2020-06-06T07:47:07Z</time>
      </trkpt>
      <trkpt lat="47.13551" lon="-1.73459">
        <ele>10.2</ele>
        <time>2020-06-06T07:47:09Z</time>
      </trkpt>
      <trkpt lat="47.13555" lon="-1.73475">
        <ele>10.31</ele>
        <time>2020-06-06T07:47:11Z</time>
      </trkpt>
      <trkpt lat="47.1356" lon="-1.73491">
        <ele>11.38</ele>
        <time>2020-06-06T07:47:13Z</time>
      </trkpt>
      <trkpt lat="47.13564" lon="-1.73507">
        <ele>12.75</ele>
        <time>2020-06-06T07:47:15Z</time>
      </trkpt>
      <trkpt lat="47.13569" lon="-1.73525">
        <ele>13.48</ele>
        <time>2020-06-06T07:47:17Z</time>
      </trkpt>
      <trkpt lat="47.13573" lon="-1.73539">
        <ele>14.18</ele>
        <time>2020-06-06T07:47:19Z</time>
      </trkpt>
      <trkpt lat="47.13577" lon="-1.73556">
        <ele>14.76</ele>
        <time>2020-06-06T07:47:21Z</time>
      </trkpt>
      <trkpt lat="47.13582" lon="-1.73572">
        <ele>14.66</ele>
        <time>2020-06-06T07:47:23Z</time>
      </trkpt>
      <trkpt lat="47.13587" lon="-1.7359">
        <ele>14.83</ele>
        <time>2020-06-06T07:47:25Z</time>
      </trkpt>
      <trkpt lat="47.13593" lon="-1.73605">
        <ele>15.29</ele>
        <time>2020-06-06T07:47:27Z</time>
      </trkpt>
      <trkpt lat="47.136" lon="-1.7362">
        <ele>15.04</ele>
        <time>2020-06-06T07:47:29Z</time>
      </trkpt>
      <trkpt lat="47.13605" lon="-1.73637">
        <ele>14.4</ele>
        <time>2020-06-06T07:47:31Z</time>
      </trkpt>
      <trkpt lat="47.13612" lon="-1.73656">
        <ele>13.82</ele>
        <time>2020-06-06T07:47:33Z</time>
      </trkpt>
      <trkpt lat="47.13617" lon="-1.7367">
        <ele>14.19</ele>
        <time>2020-06-06T07:47:35Z</time>
      </trkpt>
      <trkpt lat="47.13623" lon="-1.73686">
        <ele>14.39</ele>
        <time>2020-06-06T07:47:37Z</time>
      </trkpt>
      <trkpt lat="47.13629" lon="-1.73704">
        <ele>14.17</ele>
        <time>2020-06-06T07:47:39Z</time>
      </trkpt>
      <trkpt lat="47.13632" lon="-1.73718">
        <ele>12.59</ele>
        <time>2020-06-06T07:47:41Z</time>
      </trkpt>
      <trkpt lat="47.13632" lon="-1.73734">
        <ele>10.67</ele>
        <time>2020-06-06T07:47:43Z</time>
      </trkpt>
      <trkpt lat="47.13634" lon="-1.73756">
        <ele>9.85</ele>
        <time>2020-06-06T07:47:45Z</time>
      </trkpt>
      <trkpt lat="47.13635" lon="-1.73777">
        <ele>8.63</ele>
        <time>2020-06-06T07:47:47Z</time>
      </trkpt>
      <trkpt lat="47.13638" lon="-1.73801">
        <ele>7.91</ele>
        <time>2020-06-06T07:47:49Z</time>
      </trkpt>
      <trkpt lat="47.1364" lon="-1.73823">
        <ele>6.65</ele>
        <time>2020-06-06T07:47:51Z</time>
      </trkpt>
      <trkpt lat="47.13642" lon="-1.73845">
        <ele>5.44</ele>
        <time>2020-06-06T07:47:53Z</time>
      </trkpt>
      <trkpt lat="47.13643" lon="-1.73866">
        <ele>4.61</ele>
        <time>2020-06-06T07:47:55Z</time>
      </trkpt>
      <trkpt lat="47.13644" lon="-1.73885">
        <ele>5.03</ele>
        <time>2020-06-06T07:47:57Z</time>
      </trkpt>
      <trkpt lat="47.13644" lon="-1.73905">
        <ele>6.63</ele>
        <time>2020-06-06T07:47:59Z</time>
      </trkpt>
      <trkpt lat="47.13644" lon="-1.73925">
        <ele>7.62</ele>
        <time>2020-06-06T07:48:01Z</time>
      </trkpt>
      <trkpt lat="47.13646" lon="-1.73942">
        <ele>8.7</ele>
        <time>2020-06-06T07:48:03Z</time>
      </trkpt>
      <trkpt lat="47.13647" lon="-1.73961">
        <ele>9.65</ele>
        <time>2020-06-06T07:48:05Z</time>
      </trkpt>
      <trkpt lat="47.13648" lon="-1.73975">
        <ele>11.07</ele>
        <time>2020-06-06T07:48:07Z</time>
      </trkpt>
      <trkpt lat="47.13648" lon="-1.73991">
        <ele>12.17</ele>
        <time>2020-06-06T07:48:09Z</time>
      </trkpt>
      <trkpt lat="47.13646" lon="-1.74008">
        <ele>12.21</ele>
        <time>2020-06-06T07:48:11Z</time>
      </trkpt>
      <trkpt lat="47.13644" lon="-1.74026">
        <ele>12.88</ele>
        <time>2020-06-06T07:48:13Z</time>
      </trkpt>
      <trkpt lat="47.13643" lon="-1.7404">
        <ele>12.31</ele>
        <time>2020-06-06T07:48:15Z</time>
      </trkpt>
      <trkpt lat="47.13642" lon="-1.74055">
        <ele>12</ele>
        <time>2020-06-06T07:48:17Z</time>
      </trkpt>
      <trkpt lat="47.13641" lon="-1.74072">
        <ele>12.73</ele>
        <time>2020-06-06T07:48:19Z</time>
      </trkpt>
      <trkpt lat="47.1364" lon="-1.74085">
        <ele>14.71</ele>
        <time>2020-06-06T07:48:21Z</time>
      </trkpt>
      <trkpt lat="47.1364" lon="-1.74102">
        <ele>14.34</ele>
        <time>2020-06-06T07:48:23Z</time>
      </trkpt>
      <trkpt lat="47.13641" lon="-1.74121">
        <ele>14.03</ele>
        <time>2020-06-06T07:48:25Z</time>
      </trkpt>
      <trkpt lat="47.13642" lon="-1.74136">
        <ele>14.8</ele>
        <time>2020-06-06T07:48:27Z</time>
      </trkpt>
      <trkpt lat="47.13645" lon="-1.74151">
        <ele>16.44</ele>
        <time>2020-06-06T07:48:29Z</time>
      </trkpt>
      <trkpt lat="47.13647" lon="-1.74168">
        <ele>17.64</ele>
        <time>2020-06-06T07:48:31Z</time>
      </trkpt>
      <trkpt lat="47.13651" lon="-1.74183">
        <ele>19.25</ele>
        <time>2020-06-06T07:48:33Z</time>
      </trkpt>
      <trkpt lat="47.13654" lon="-1.74197">
        <ele>19.15</ele>
        <time>2020-06-06T07:48:35Z</time>
      </trkpt>
      <trkpt lat="47.13658" lon="-1.74213">
        <ele>17.7</ele>
        <time>2020-06-06T07:48:37Z</time>
      </trkpt>
      <trkpt lat="47.13662" lon="-1.74228">
        <ele>16.6</ele>
        <time>2020-06-06T07:48:39Z</time>
      </trkpt>
      <trkpt lat="47.13666" lon="-1.74243">
        <ele>16.51</ele>
        <time>2020-06-06T07:48:41Z</time>
      </trkpt>
      <trkpt lat="47.1367" lon="-1.74259">
        <ele>16.24</ele>
        <time>2020-06-06T07:48:43Z</time>
      </trkpt>
      <trkpt lat="47.13675" lon="-1.74274">
        <ele>16.42</ele>
        <time>2020-06-06T07:48:45Z</time>
      </trkpt>
      <trkpt lat="47.1368" lon="-1.74288">
        <ele>15.91</ele>
        <time>2020-06-06T07:48:47Z</time>
      </trkpt>
      <trkpt lat="47.13686" lon="-1.74305">
        <ele>15.83</ele>
        <time>2020-06-06T07:48:49Z</time>
      </trkpt>
      <trkpt lat="47.13692" lon="-1.74325">
        <ele>14.57</ele>
        <time>2020-06-06T07:48:51Z</time>
      </trkpt>
      <trkpt lat="47.13693" lon="-1.74345">
        <ele>13.73</ele>
        <time>2020-06-06T07:48:53Z</time>
      </trkpt>
      <trkpt lat="47.13694" lon="-1.74365">
        <ele>13.75</ele>
        <time>2020-06-06T07:48:55Z</time>
      </trkpt>
      <trkpt lat="47.13695" lon="-1.7439">
        <ele>13.02</ele>
        <time>2020-06-06T07:48:57Z</time>
      </trkpt>
      <trkpt lat="47.13695" lon="-1.74413">
        <ele>11.15</ele>
        <time>2020-06-06T07:48:59Z</time>
      </trkpt>
      <trkpt lat="47.13695" lon="-1.74438">
        <ele>8.7</ele>
        <time>2020-06-06T07:49:01Z</time>
      </trkpt>
      <trkpt lat="47.1369" lon="-1.74459">
        <ele>7.7</ele>
        <time>2020-06-06T07:49:03Z</time>
      </trkpt>
      <trkpt lat="47.13679" lon="-1.74477">
        <ele>6.86</ele>
        <time>2020-06-06T07:49:05Z</time>
      </trkpt>
      <trkpt lat="47.13665" lon="-1.74489">
        <ele>6.56</ele>
        <time>2020-06-06T07:49:07Z</time>
      </trkpt>
      <trkpt lat="47.13651" lon="-1.74503">
        <ele>6.23</ele>
        <time>2020-06-06T07:49:09Z</time>
      </trkpt>
      <trkpt lat="47.13638" lon="-1.74516">
        <ele>5.54</ele>
        <time>2020-06-06T07:49:11Z</time>
      </trkpt>
      <trkpt lat="47.13626" lon="-1.74526">
        <ele>5.02</ele>
        <time>2020-06-06T07:49:13Z</time>
      </trkpt>
      <trkpt lat="47.13615" lon="-1.74537">
        <ele>5.23</ele>
        <time>2020-06-06T07:49:15Z</time>
      </trkpt>
      <trkpt lat="47.13604" lon="-1.74547">
        <ele>6.06</ele>
        <time>2020-06-06T07:49:17Z</time>
      </trkpt>
      <trkpt lat="47.13592" lon="-1.7456">
        <ele>6.04</ele>
        <time>2020-06-06T07:49:19Z</time>
      </trkpt>
      <trkpt lat="47.13577" lon="-1.74574">
        <ele>6.54</ele>
        <time>2020-06-06T07:49:21Z</time>
      </trkpt>
      <trkpt lat="47.13562" lon="-1.74588">
        <ele>6.46</ele>
        <time>2020-06-06T07:49:23Z</time>
      </trkpt>
      <trkpt lat="47.13549" lon="-1.74602">
        <ele>5.3</ele>
        <time>2020-06-06T07:49:25Z</time>
      </trkpt>
      <trkpt lat="47.13536" lon="-1.74614">
        <ele>4.46</ele>
        <time>2020-06-06T07:49:27Z</time>
      </trkpt>
      <trkpt lat="47.13525" lon="-1.74626">
        <ele>4.95</ele>
        <time>2020-06-06T07:49:29Z</time>
      </trkpt>
      <trkpt lat="47.13513" lon="-1.74637">
        <ele>5.67</ele>
        <time>2020-06-06T07:49:31Z</time>
      </trkpt>
      <trkpt lat="47.13501" lon="-1.74648">
        <ele>5.48</ele>
        <time>2020-06-06T07:49:33Z</time>
      </trkpt>
      <trkpt lat="47.13493" lon="-1.74665">
        <ele>5.02</ele>
        <time>2020-06-06T07:49:35Z</time>
      </trkpt>
      <trkpt lat="47.13488" lon="-1.7468">
        <ele>6.01</ele>
        <time>2020-06-06T07:49:37Z</time>
      </trkpt>
      <trkpt lat="47.13483" lon="-1.74695">
        <ele>7.99</ele>
        <time>2020-06-06T07:49:39Z</time>
      </trkpt>
      <trkpt lat="47.13477" lon="-1.74711">
        <ele>7.6</ele>
        <time>2020-06-06T07:49:41Z</time>
      </trkpt>
      <trkpt lat="47.13473" lon="-1.74723">
        <ele>5.77</ele>
        <time>2020-06-06T07:49:43Z</time>
      </trkpt>
      <trkpt lat="47.13464" lon="-1.74739">
        <ele>5.39</ele>
        <time>2020-06-06T07:49:46Z</time>
      </trkpt>
      <trkpt lat="47.13456" lon="-1.74749">
        <ele>6.58</ele>
        <time>2020-06-06T07:49:48Z</time>
      </trkpt>
      <trkpt lat="47.13446" lon="-1.74758">
        <ele>7.59</ele>
        <time>2020-06-06T07:49:50Z</time>
      </trkpt>
      <trkpt lat="47.13436" lon="-1.74765">
        <ele>7.94</ele>
        <time>2020-06-06T07:49:52Z</time>
      </trkpt>
      <trkpt lat="47.13426" lon="-1.74772">
        <ele>6.81</ele>
        <time>2020-06-06T07:49:54Z</time>
      </trkpt>
      <trkpt lat="47.13414" lon="-1.74781">
        <ele>6.57</ele>
        <time>2020-06-06T07:49:56Z</time>
      </trkpt>
      <trkpt lat="47.13403" lon="-1.74792">
        <ele>7.36</ele>
        <time>2020-06-06T07:49:58Z</time>
      </trkpt>
      <trkpt lat="47.13392" lon="-1.74803">
        <ele>7.16</ele>
        <time>2020-06-06T07:50:00Z</time>
      </trkpt>
      <trkpt lat="47.13384" lon="-1.74818">
        <ele>7</ele>
        <time>2020-06-06T07:50:02Z</time>
      </trkpt>
      <trkpt lat="47.13378" lon="-1.74834">
        <ele>7.13</ele>
        <time>2020-06-06T07:50:04Z</time>
      </trkpt>
      <trkpt lat="47.13374" lon="-1.74851">
        <ele>8.05</ele>
        <time>2020-06-06T07:50:06Z</time>
      </trkpt>
      <trkpt lat="47.1337" lon="-1.74868">
        <ele>9.01</ele>
        <time>2020-06-06T07:50:08Z</time>
      </trkpt>
      <trkpt lat="47.13366" lon="-1.74885">
        <ele>10.54</ele>
        <time>2020-06-06T07:50:10Z</time>
      </trkpt>
      <trkpt lat="47.13361" lon="-1.749">
        <ele>11.92</ele>
        <time>2020-06-06T07:50:12Z</time>
      </trkpt>
      <trkpt lat="47.13357" lon="-1.74917">
        <ele>12.96</ele>
        <time>2020-06-06T07:50:14Z</time>
      </trkpt>
      <trkpt lat="47.13351" lon="-1.74932">
        <ele>14.1</ele>
        <time>2020-06-06T07:50:16Z</time>
      </trkpt>
      <trkpt lat="47.13345" lon="-1.74946">
        <ele>15.5</ele>
        <time>2020-06-06T07:50:18Z</time>
      </trkpt>
      <trkpt lat="47.13339" lon="-1.7496">
        <ele>15.16</ele>
        <time>2020-06-06T07:50:20Z</time>
      </trkpt>
      <trkpt lat="47.13332" lon="-1.74974">
        <ele>15.27</ele>
        <time>2020-06-06T07:50:22Z</time>
      </trkpt>
      <trkpt lat="47.13324" lon="-1.74987">
        <ele>14.92</ele>
        <time>2020-06-06T07:50:24Z</time>
      </trkpt>
      <trkpt lat="47.13316" lon="-1.75">
        <ele>13.77</ele>
        <time>2020-06-06T07:50:26Z</time>
      </trkpt>
      <trkpt lat="47.13307" lon="-1.75009">
        <ele>13.37</ele>
        <time>2020-06-06T07:50:28Z</time>
      </trkpt>
      <trkpt lat="47.13295" lon="-1.7502">
        <ele>13.13</ele>
        <time>2020-06-06T07:50:30Z</time>
      </trkpt>
      <trkpt lat="47.13285" lon="-1.75028">
        <ele>11.55</ele>
        <time>2020-06-06T07:50:32Z</time>
      </trkpt>
      <trkpt lat="47.13273" lon="-1.75037">
        <ele>10.48</ele>
        <time>2020-06-06T07:50:34Z</time>
      </trkpt>
      <trkpt lat="47.13263" lon="-1.75045">
        <ele>10.09</ele>
        <time>2020-06-06T07:50:36Z</time>
      </trkpt>
      <trkpt lat="47.13251" lon="-1.75052">
        <ele>10.76</ele>
        <time>2020-06-06T07:50:38Z</time>
      </trkpt>
      <trkpt lat="47.1324" lon="-1.75061">
        <ele>11.46</ele>
        <time>2020-06-06T07:50:40Z</time>
      </trkpt>
      <trkpt lat="47.1323" lon="-1.75069">
        <ele>12.99</ele>
        <time>2020-06-06T07:50:42Z</time>
      </trkpt>
      <trkpt lat="47.1322" lon="-1.75078">
        <ele>14.36</ele>
        <time>2020-06-06T07:50:44Z</time>
      </trkpt>
      <trkpt lat="47.13212" lon="-1.75089">
        <ele>14.59</ele>
        <time>2020-06-06T07:50:46Z</time>
      </trkpt>
      <trkpt lat="47.13203" lon="-1.75103">
        <ele>15.49</ele>
        <time>2020-06-06T07:50:48Z</time>
      </trkpt>
      <trkpt lat="47.13196" lon="-1.75115">
        <ele>17.35</ele>
        <time>2020-06-06T07:50:50Z</time>
      </trkpt>
      <trkpt lat="47.13188" lon="-1.7513">
        <ele>18.73</ele>
        <time>2020-06-06T07:50:52Z</time>
      </trkpt>
      <trkpt lat="47.13181" lon="-1.75145">
        <ele>19.47</ele>
        <time>2020-06-06T07:50:54Z</time>
      </trkpt>
      <trkpt lat="47.13174" lon="-1.75161">
        <ele>19.19</ele>
        <time>2020-06-06T07:50:56Z</time>
      </trkpt>
      <trkpt lat="47.13167" lon="-1.75177">
        <ele>19.24</ele>
        <time>2020-06-06T07:50:58Z</time>
      </trkpt>
      <trkpt lat="47.13161" lon="-1.75194">
        <ele>19.79</ele>
        <time>2020-06-06T07:51:00Z</time>
      </trkpt>
      <trkpt lat="47.13156" lon="-1.75212">
        <ele>18.9</ele>
        <time>2020-06-06T07:51:02Z</time>
      </trkpt>
      <trkpt lat="47.13153" lon="-1.75226">
        <ele>18.99</ele>
        <time>2020-06-06T07:51:04Z</time>
      </trkpt>
      <trkpt lat="47.1315" lon="-1.75243">
        <ele>19.17</ele>
        <time>2020-06-06T07:51:06Z</time>
      </trkpt>
      <trkpt lat="47.13148" lon="-1.75261">
        <ele>20.15</ele>
        <time>2020-06-06T07:51:08Z</time>
      </trkpt>
      <trkpt lat="47.13146" lon="-1.75276">
        <ele>21.33</ele>
        <time>2020-06-06T07:51:10Z</time>
      </trkpt>
      <trkpt lat="47.13145" lon="-1.75293">
        <ele>22.02</ele>
        <time>2020-06-06T07:51:12Z</time>
      </trkpt>
      <trkpt lat="47.13143" lon="-1.7531">
        <ele>22.26</ele>
        <time>2020-06-06T07:51:14Z</time>
      </trkpt>
      <trkpt lat="47.13138" lon="-1.75326">
        <ele>22.57</ele>
        <time>2020-06-06T07:51:16Z</time>
      </trkpt>
      <trkpt lat="47.13134" lon="-1.75343">
        <ele>21.74</ele>
        <time>2020-06-06T07:51:18Z</time>
      </trkpt>
      <trkpt lat="47.13129" lon="-1.75359">
        <ele>21.29</ele>
        <time>2020-06-06T07:51:20Z</time>
      </trkpt>
      <trkpt lat="47.13125" lon="-1.75377">
        <ele>20.63</ele>
        <time>2020-06-06T07:51:22Z</time>
      </trkpt>
      <trkpt lat="47.13122" lon="-1.75393">
        <ele>20.78</ele>
        <time>2020-06-06T07:51:24Z</time>
      </trkpt>
      <trkpt lat="47.13119" lon="-1.75407">
        <ele>21.38</ele>
        <time>2020-06-06T07:51:26Z</time>
      </trkpt>
      <trkpt lat="47.13114" lon="-1.75422">
        <ele>22.57</ele>
        <time>2020-06-06T07:51:29Z</time>
      </trkpt>
      <trkpt lat="47.13114" lon="-1.75441">
        <ele>23.08</ele>
        <time>2020-06-06T07:51:32Z</time>
      </trkpt>
      <trkpt lat="47.1311" lon="-1.75457">
        <ele>23.53</ele>
        <time>2020-06-06T07:51:34Z</time>
      </trkpt>
      <trkpt lat="47.13106" lon="-1.75471">
        <ele>24.2</ele>
        <time>2020-06-06T07:51:36Z</time>
      </trkpt>
      <trkpt lat="47.13105" lon="-1.75489">
        <ele>25.25</ele>
        <time>2020-06-06T07:51:38Z</time>
      </trkpt>
      <trkpt lat="47.13105" lon="-1.75509">
        <ele>25.44</ele>
        <time>2020-06-06T07:51:40Z</time>
      </trkpt>
      <trkpt lat="47.13102" lon="-1.75525">
        <ele>25.32</ele>
        <time>2020-06-06T07:51:42Z</time>
      </trkpt>
      <trkpt lat="47.131" lon="-1.75543">
        <ele>24.81</ele>
        <time>2020-06-06T07:51:44Z</time>
      </trkpt>
      <trkpt lat="47.13096" lon="-1.75562">
        <ele>24.87</ele>
        <time>2020-06-06T07:51:46Z</time>
      </trkpt>
      <trkpt lat="47.13093" lon="-1.75578">
        <ele>25.26</ele>
        <time>2020-06-06T07:51:48Z</time>
      </trkpt>
      <trkpt lat="47.1309" lon="-1.75594">
        <ele>25.57</ele>
        <time>2020-06-06T07:51:50Z</time>
      </trkpt>
      <trkpt lat="47.13086" lon="-1.75612">
        <ele>26.23</ele>
        <time>2020-06-06T07:51:52Z</time>
      </trkpt>
      <trkpt lat="47.13083" lon="-1.7563">
        <ele>25.82</ele>
        <time>2020-06-06T07:51:54Z</time>
      </trkpt>
      <trkpt lat="47.1308" lon="-1.75649">
        <ele>24.85</ele>
        <time>2020-06-06T07:51:56Z</time>
      </trkpt>
      <trkpt lat="47.13077" lon="-1.75668">
        <ele>24.57</ele>
        <time>2020-06-06T07:51:58Z</time>
      </trkpt>
      <trkpt lat="47.13072" lon="-1.75688">
        <ele>25.14</ele>
        <time>2020-06-06T07:52:00Z</time>
      </trkpt>
      <trkpt lat="47.13068" lon="-1.75706">
        <ele>24.41</ele>
        <time>2020-06-06T07:52:02Z</time>
      </trkpt>
      <trkpt lat="47.13065" lon="-1.75722">
        <ele>24.89</ele>
        <time>2020-06-06T07:52:04Z</time>
      </trkpt>
      <trkpt lat="47.13059" lon="-1.75739">
        <ele>25.15</ele>
        <time>2020-06-06T07:52:06Z</time>
      </trkpt>
      <trkpt lat="47.13052" lon="-1.75753">
        <ele>24.72</ele>
        <time>2020-06-06T07:52:08Z</time>
      </trkpt>
      <trkpt lat="47.13042" lon="-1.7577">
        <ele>25.44</ele>
        <time>2020-06-06T07:52:10Z</time>
      </trkpt>
      <trkpt lat="47.13032" lon="-1.75784">
        <ele>25.15</ele>
        <time>2020-06-06T07:52:12Z</time>
      </trkpt>
      <trkpt lat="47.13023" lon="-1.75796">
        <ele>25.21</ele>
        <time>2020-06-06T07:52:14Z</time>
      </trkpt>
      <trkpt lat="47.13014" lon="-1.7581">
        <ele>25.42</ele>
        <time>2020-06-06T07:52:16Z</time>
      </trkpt>
      <trkpt lat="47.13007" lon="-1.75828">
        <ele>25.58</ele>
        <time>2020-06-06T07:52:18Z</time>
      </trkpt>
      <trkpt lat="47.13007" lon="-1.75847">
        <ele>25.71</ele>
        <time>2020-06-06T07:52:20Z</time>
      </trkpt>
      <trkpt lat="47.13008" lon="-1.75867">
        <ele>26.94</ele>
        <time>2020-06-06T07:52:22Z</time>
      </trkpt>
      <trkpt lat="47.13009" lon="-1.75886">
        <ele>28.76</ele>
        <time>2020-06-06T07:52:24Z</time>
      </trkpt>
      <trkpt lat="47.13005" lon="-1.75903">
        <ele>29.38</ele>
        <time>2020-06-06T07:52:26Z</time>
      </trkpt>
      <trkpt lat="47.13001" lon="-1.75921">
        <ele>30.79</ele>
        <time>2020-06-06T07:52:28Z</time>
      </trkpt>
      <trkpt lat="47.12997" lon="-1.75938">
        <ele>31.97</ele>
        <time>2020-06-06T07:52:30Z</time>
      </trkpt>
      <trkpt lat="47.12993" lon="-1.75956">
        <ele>32.62</ele>
        <time>2020-06-06T07:52:32Z</time>
      </trkpt>
      <trkpt lat="47.1299" lon="-1.75975">
        <ele>32.97</ele>
        <time>2020-06-06T07:52:34Z</time>
      </trkpt>
      <trkpt lat="47.12987" lon="-1.75993">
        <ele>32.6</ele>
        <time>2020-06-06T07:52:36Z</time>
      </trkpt>
      <trkpt lat="47.12985" lon="-1.76009">
        <ele>31.44</ele>
        <time>2020-06-06T07:52:38Z</time>
      </trkpt>
      <trkpt lat="47.12984" lon="-1.76028">
        <ele>29.72</ele>
        <time>2020-06-06T07:52:40Z</time>
      </trkpt>
      <trkpt lat="47.12983" lon="-1.76047">
        <ele>28.9</ele>
        <time>2020-06-06T07:52:42Z</time>
      </trkpt>
      <trkpt lat="47.12982" lon="-1.76065">
        <ele>28.19</ele>
        <time>2020-06-06T07:52:44Z</time>
      </trkpt>
      <trkpt lat="47.12982" lon="-1.76082">
        <ele>28.41</ele>
        <time>2020-06-06T07:52:46Z</time>
      </trkpt>
      <trkpt lat="47.12983" lon="-1.76099">
        <ele>29.5</ele>
        <time>2020-06-06T07:52:48Z</time>
      </trkpt>
      <trkpt lat="47.12985" lon="-1.76117">
        <ele>29.53</ele>
        <time>2020-06-06T07:52:50Z</time>
      </trkpt>
      <trkpt lat="47.12988" lon="-1.76136">
        <ele>30.44</ele>
        <time>2020-06-06T07:52:52Z</time>
      </trkpt>
      <trkpt lat="47.12992" lon="-1.76152">
        <ele>31.48</ele>
        <time>2020-06-06T07:52:54Z</time>
      </trkpt>
      <trkpt lat="47.12997" lon="-1.7617">
        <ele>31.79</ele>
        <time>2020-06-06T07:52:56Z</time>
      </trkpt>
      <trkpt lat="47.13002" lon="-1.76186">
        <ele>31.61</ele>
        <time>2020-06-06T07:52:58Z</time>
      </trkpt>
      <trkpt lat="47.13007" lon="-1.76201">
        <ele>32.58</ele>
        <time>2020-06-06T07:53:00Z</time>
      </trkpt>
      <trkpt lat="47.13012" lon="-1.76219">
        <ele>32.85</ele>
        <time>2020-06-06T07:53:02Z</time>
      </trkpt>
      <trkpt lat="47.13017" lon="-1.76237">
        <ele>32.94</ele>
        <time>2020-06-06T07:53:04Z</time>
      </trkpt>
      <trkpt lat="47.13021" lon="-1.76253">
        <ele>33.61</ele>
        <time>2020-06-06T07:53:06Z</time>
      </trkpt>
      <trkpt lat="47.13026" lon="-1.7627">
        <ele>33.64</ele>
        <time>2020-06-06T07:53:08Z</time>
      </trkpt>
      <trkpt lat="47.13029" lon="-1.76286">
        <ele>32.83</ele>
        <time>2020-06-06T07:53:10Z</time>
      </trkpt>
      <trkpt lat="47.13032" lon="-1.76302">
        <ele>31.42</ele>
        <time>2020-06-06T07:53:12Z</time>
      </trkpt>
      <trkpt lat="47.13036" lon="-1.76321">
        <ele>29.47</ele>
        <time>2020-06-06T07:53:14Z</time>
      </trkpt>
      <trkpt lat="47.13039" lon="-1.76339">
        <ele>28.75</ele>
        <time>2020-06-06T07:53:16Z</time>
      </trkpt>
      <trkpt lat="47.13042" lon="-1.76357">
        <ele>28.45</ele>
        <time>2020-06-06T07:53:18Z</time>
      </trkpt>
      <trkpt lat="47.13046" lon="-1.76374">
        <ele>29.03</ele>
        <time>2020-06-06T07:53:20Z</time>
      </trkpt>
      <trkpt lat="47.13049" lon="-1.76391">
        <ele>29.4</ele>
        <time>2020-06-06T07:53:22Z</time>
      </trkpt>
      <trkpt lat="47.13051" lon="-1.76408">
        <ele>29.92</ele>
        <time>2020-06-06T07:53:24Z</time>
      </trkpt>
      <trkpt lat="47.13052" lon="-1.76425">
        <ele>30.26</ele>
        <time>2020-06-06T07:53:26Z</time>
      </trkpt>
      <trkpt lat="47.13053" lon="-1.76442">
        <ele>29.37</ele>
        <time>2020-06-06T07:53:28Z</time>
      </trkpt>
      <trkpt lat="47.13054" lon="-1.76458">
        <ele>28.7</ele>
        <time>2020-06-06T07:53:30Z</time>
      </trkpt>
      <trkpt lat="47.13054" lon="-1.76475">
        <ele>28.73</ele>
        <time>2020-06-06T07:53:32Z</time>
      </trkpt>
      <trkpt lat="47.13055" lon="-1.76495">
        <ele>28.57</ele>
        <time>2020-06-06T07:53:34Z</time>
      </trkpt>
      <trkpt lat="47.13056" lon="-1.7651">
        <ele>29.1</ele>
        <time>2020-06-06T07:53:36Z</time>
      </trkpt>
      <trkpt lat="47.13057" lon="-1.76528">
        <ele>29.48</ele>
        <time>2020-06-06T07:53:38Z</time>
      </trkpt>
      <trkpt lat="47.13058" lon="-1.76547">
        <ele>28.9</ele>
        <time>2020-06-06T07:53:40Z</time>
      </trkpt>
      <trkpt lat="47.13059" lon="-1.76564">
        <ele>28.5</ele>
        <time>2020-06-06T07:53:42Z</time>
      </trkpt>
      <trkpt lat="47.13061" lon="-1.76581">
        <ele>26.92</ele>
        <time>2020-06-06T07:53:44Z</time>
      </trkpt>
      <trkpt lat="47.13063" lon="-1.76599">
        <ele>26.65</ele>
        <time>2020-06-06T07:53:46Z</time>
      </trkpt>
      <trkpt lat="47.13064" lon="-1.76616">
        <ele>26.65</ele>
        <time>2020-06-06T07:53:48Z</time>
      </trkpt>
      <trkpt lat="47.13066" lon="-1.76636">
        <ele>26.87</ele>
        <time>2020-06-06T07:53:50Z</time>
      </trkpt>
      <trkpt lat="47.13067" lon="-1.76653">
        <ele>27.81</ele>
        <time>2020-06-06T07:53:52Z</time>
      </trkpt>
      <trkpt lat="47.13069" lon="-1.76672">
        <ele>29.22</ele>
        <time>2020-06-06T07:53:54Z</time>
      </trkpt>
      <trkpt lat="47.13069" lon="-1.76686">
        <ele>29.54</ele>
        <time>2020-06-06T07:53:56Z</time>
      </trkpt>
      <trkpt lat="47.13069" lon="-1.76702">
        <ele>27.8</ele>
        <time>2020-06-06T07:53:58Z</time>
      </trkpt>
      <trkpt lat="47.13069" lon="-1.76719">
        <ele>28.26</ele>
        <time>2020-06-06T07:54:00Z</time>
      </trkpt>
      <trkpt lat="47.13067" lon="-1.76739">
        <ele>28.2</ele>
        <time>2020-06-06T07:54:02Z</time>
      </trkpt>
      <trkpt lat="47.13064" lon="-1.76757">
        <ele>27.91</ele>
        <time>2020-06-06T07:54:04Z</time>
      </trkpt>
      <trkpt lat="47.13062" lon="-1.76776">
        <ele>28.09</ele>
        <time>2020-06-06T07:54:06Z</time>
      </trkpt>
      <trkpt lat="47.13059" lon="-1.76794">
        <ele>28.4</ele>
        <time>2020-06-06T07:54:08Z</time>
      </trkpt>
      <trkpt lat="47.13056" lon="-1.76811">
        <ele>28.47</ele>
        <time>2020-06-06T07:54:10Z</time>
      </trkpt>
      <trkpt lat="47.13054" lon="-1.7683">
        <ele>28.65</ele>
        <time>2020-06-06T07:54:12Z</time>
      </trkpt>
      <trkpt lat="47.13051" lon="-1.76848">
        <ele>28.97</ele>
        <time>2020-06-06T07:54:14Z</time>
      </trkpt>
      <trkpt lat="47.13049" lon="-1.76867">
        <ele>29.26</ele>
        <time>2020-06-06T07:54:16Z</time>
      </trkpt>
      <trkpt lat="47.13047" lon="-1.76885">
        <ele>28.95</ele>
        <time>2020-06-06T07:54:18Z</time>
      </trkpt>
      <trkpt lat="47.13045" lon="-1.76903">
        <ele>28.5</ele>
        <time>2020-06-06T07:54:20Z</time>
      </trkpt>
      <trkpt lat="47.13044" lon="-1.76921">
        <ele>28.85</ele>
        <time>2020-06-06T07:54:22Z</time>
      </trkpt>
      <trkpt lat="47.13042" lon="-1.76941">
        <ele>29.63</ele>
        <time>2020-06-06T07:54:24Z</time>
      </trkpt>
      <trkpt lat="47.1304" lon="-1.76957">
        <ele>29.81</ele>
        <time>2020-06-06T07:54:26Z</time>
      </trkpt>
      <trkpt lat="47.13039" lon="-1.76974">
        <ele>30.15</ele>
        <time>2020-06-06T07:54:28Z</time>
      </trkpt>
      <trkpt lat="47.13039" lon="-1.76992">
        <ele>30.06</ele>
        <time>2020-06-06T07:54:31Z</time>
      </trkpt>
      <trkpt lat="47.13039" lon="-1.77007">
        <ele>29.86</ele>
        <time>2020-06-06T07:54:33Z</time>
      </trkpt>
      <trkpt lat="47.13038" lon="-1.77022">
        <ele>29.3</ele>
        <time>2020-06-06T07:54:35Z</time>
      </trkpt>
      <trkpt lat="47.13037" lon="-1.77042">
        <ele>29.27</ele>
        <time>2020-06-06T07:54:37Z</time>
      </trkpt>
      <trkpt lat="47.13035" lon="-1.77055">
        <ele>28.9</ele>
        <time>2020-06-06T07:54:39Z</time>
      </trkpt>
      <trkpt lat="47.13034" lon="-1.77072">
        <ele>28.87</ele>
        <time>2020-06-06T07:54:41Z</time>
      </trkpt>
      <trkpt lat="47.13032" lon="-1.7709">
        <ele>29.23</ele>
        <time>2020-06-06T07:54:43Z</time>
      </trkpt>
      <trkpt lat="47.1303" lon="-1.77107">
        <ele>30.38</ele>
        <time>2020-06-06T07:54:45Z</time>
      </trkpt>
      <trkpt lat="47.13028" lon="-1.77126">
        <ele>30.34</ele>
        <time>2020-06-06T07:54:47Z</time>
      </trkpt>
      <trkpt lat="47.13026" lon="-1.77142">
        <ele>30.66</ele>
        <time>2020-06-06T07:54:49Z</time>
      </trkpt>
      <trkpt lat="47.13023" lon="-1.77158">
        <ele>31.83</ele>
        <time>2020-06-06T07:54:51Z</time>
      </trkpt>
      <trkpt lat="47.1302" lon="-1.77173">
        <ele>32.8</ele>
        <time>2020-06-06T07:54:53Z</time>
      </trkpt>
      <trkpt lat="47.13016" lon="-1.77189">
        <ele>32.55</ele>
        <time>2020-06-06T07:54:55Z</time>
      </trkpt>
      <trkpt lat="47.13012" lon="-1.77206">
        <ele>32.47</ele>
        <time>2020-06-06T07:54:57Z</time>
      </trkpt>
      <trkpt lat="47.13007" lon="-1.77224">
        <ele>33.36</ele>
        <time>2020-06-06T07:54:59Z</time>
      </trkpt>
      <trkpt lat="47.13003" lon="-1.77241">
        <ele>33.22</ele>
        <time>2020-06-06T07:55:01Z</time>
      </trkpt>
      <trkpt lat="47.12998" lon="-1.77258">
        <ele>32.35</ele>
        <time>2020-06-06T07:55:03Z</time>
      </trkpt>
      <trkpt lat="47.12993" lon="-1.77275">
        <ele>32.89</ele>
        <time>2020-06-06T07:55:05Z</time>
      </trkpt>
      <trkpt lat="47.12988" lon="-1.77293">
        <ele>33.24</ele>
        <time>2020-06-06T07:55:07Z</time>
      </trkpt>
      <trkpt lat="47.12981" lon="-1.7731">
        <ele>32.33</ele>
        <time>2020-06-06T07:55:09Z</time>
      </trkpt>
      <trkpt lat="47.12976" lon="-1.77325">
        <ele>31.17</ele>
        <time>2020-06-06T07:55:11Z</time>
      </trkpt>
      <trkpt lat="47.12968" lon="-1.77344">
        <ele>31.25</ele>
        <time>2020-06-06T07:55:13Z</time>
      </trkpt>
      <trkpt lat="47.1296" lon="-1.77364">
        <ele>31.87</ele>
        <time>2020-06-06T07:55:15Z</time>
      </trkpt>
      <trkpt lat="47.12953" lon="-1.77382">
        <ele>31.94</ele>
        <time>2020-06-06T07:55:17Z</time>
      </trkpt>
      <trkpt lat="47.12945" lon="-1.77401">
        <ele>31.54</ele>
        <time>2020-06-06T07:55:19Z</time>
      </trkpt>
      <trkpt lat="47.12938" lon="-1.77418">
        <ele>31.11</ele>
        <time>2020-06-06T07:55:21Z</time>
      </trkpt>
      <trkpt lat="47.12931" lon="-1.77435">
        <ele>30.36</ele>
        <time>2020-06-06T07:55:23Z</time>
      </trkpt>
      <trkpt lat="47.12924" lon="-1.77453">
        <ele>29.77</ele>
        <time>2020-06-06T07:55:25Z</time>
      </trkpt>
      <trkpt lat="47.12917" lon="-1.77473">
        <ele>29.96</ele>
        <time>2020-06-06T07:55:27Z</time>
      </trkpt>
      <trkpt lat="47.12913" lon="-1.77489">
        <ele>30.82</ele>
        <time>2020-06-06T07:55:29Z</time>
      </trkpt>
      <trkpt lat="47.12908" lon="-1.77506">
        <ele>31.15</ele>
        <time>2020-06-06T07:55:31Z</time>
      </trkpt>
      <trkpt lat="47.12905" lon="-1.7752">
        <ele>31.04</ele>
        <time>2020-06-06T07:55:33Z</time>
      </trkpt>
      <trkpt lat="47.129" lon="-1.77539">
        <ele>31.65</ele>
        <time>2020-06-06T07:55:35Z</time>
      </trkpt>
      <trkpt lat="47.12896" lon="-1.77554">
        <ele>31.72</ele>
        <time>2020-06-06T07:55:37Z</time>
      </trkpt>
      <trkpt lat="47.12892" lon="-1.77572">
        <ele>32.38</ele>
        <time>2020-06-06T07:55:39Z</time>
      </trkpt>
      <trkpt lat="47.12888" lon="-1.77588">
        <ele>32.92</ele>
        <time>2020-06-06T07:55:41Z</time>
      </trkpt>
      <trkpt lat="47.12883" lon="-1.77607">
        <ele>33.09</ele>
        <time>2020-06-06T07:55:43Z</time>
      </trkpt>
      <trkpt lat="47.12879" lon="-1.77625">
        <ele>32.92</ele>
        <time>2020-06-06T07:55:45Z</time>
      </trkpt>
      <trkpt lat="47.12875" lon="-1.77638">
        <ele>32.14</ele>
        <time>2020-06-06T07:55:47Z</time>
      </trkpt>
      <trkpt lat="47.12872" lon="-1.77654">
        <ele>31.99</ele>
        <time>2020-06-06T07:55:49Z</time>
      </trkpt>
      <trkpt lat="47.12867" lon="-1.77672">
        <ele>32.61</ele>
        <time>2020-06-06T07:55:51Z</time>
      </trkpt>
      <trkpt lat="47.12861" lon="-1.77693">
        <ele>32.32</ele>
        <time>2020-06-06T07:55:53Z</time>
      </trkpt>
      <trkpt lat="47.12857" lon="-1.77707">
        <ele>32.67</ele>
        <time>2020-06-06T07:55:55Z</time>
      </trkpt>
      <trkpt lat="47.12853" lon="-1.77726">
        <ele>32.58</ele>
        <time>2020-06-06T07:55:57Z</time>
      </trkpt>
      <trkpt lat="47.12848" lon="-1.77745">
        <ele>32.72</ele>
        <time>2020-06-06T07:55:59Z</time>
      </trkpt>
      <trkpt lat="47.12843" lon="-1.77762">
        <ele>32.46</ele>
        <time>2020-06-06T07:56:01Z</time>
      </trkpt>
      <trkpt lat="47.12838" lon="-1.77779">
        <ele>31.84</ele>
        <time>2020-06-06T07:56:03Z</time>
      </trkpt>
      <trkpt lat="47.12832" lon="-1.77796">
        <ele>31.35</ele>
        <time>2020-06-06T07:56:05Z</time>
      </trkpt>
      <trkpt lat="47.12826" lon="-1.77813">
        <ele>31.96</ele>
        <time>2020-06-06T07:56:07Z</time>
      </trkpt>
      <trkpt lat="47.12819" lon="-1.77831">
        <ele>32.85</ele>
        <time>2020-06-06T07:56:09Z</time>
      </trkpt>
      <trkpt lat="47.12811" lon="-1.7785">
        <ele>33.08</ele>
        <time>2020-06-06T07:56:11Z</time>
      </trkpt>
      <trkpt lat="47.12804" lon="-1.77867">
        <ele>32.6</ele>
        <time>2020-06-06T07:56:13Z</time>
      </trkpt>
      <trkpt lat="47.12797" lon="-1.77885">
        <ele>33.11</ele>
        <time>2020-06-06T07:56:15Z</time>
      </trkpt>
      <trkpt lat="47.12791" lon="-1.77903">
        <ele>32.85</ele>
        <time>2020-06-06T07:56:17Z</time>
      </trkpt>
      <trkpt lat="47.12786" lon="-1.77919">
        <ele>32.52</ele>
        <time>2020-06-06T07:56:19Z</time>
      </trkpt>
      <trkpt lat="47.12781" lon="-1.77936">
        <ele>31.98</ele>
        <time>2020-06-06T07:56:21Z</time>
      </trkpt>
      <trkpt lat="47.12775" lon="-1.77956">
        <ele>31.81</ele>
        <time>2020-06-06T07:56:23Z</time>
      </trkpt>
      <trkpt lat="47.12771" lon="-1.77974">
        <ele>32.3</ele>
        <time>2020-06-06T07:56:25Z</time>
      </trkpt>
      <trkpt lat="47.12766" lon="-1.77992">
        <ele>33.39</ele>
        <time>2020-06-06T07:56:27Z</time>
      </trkpt>
      <trkpt lat="47.12761" lon="-1.7801">
        <ele>35.17</ele>
        <time>2020-06-06T07:56:29Z</time>
      </trkpt>
      <trkpt lat="47.12756" lon="-1.78026">
        <ele>35.64</ele>
        <time>2020-06-06T07:56:31Z</time>
      </trkpt>
      <trkpt lat="47.12749" lon="-1.78044">
        <ele>36.15</ele>
        <time>2020-06-06T07:56:33Z</time>
      </trkpt>
      <trkpt lat="47.12742" lon="-1.7806">
        <ele>36.03</ele>
        <time>2020-06-06T07:56:35Z</time>
      </trkpt>
      <trkpt lat="47.12734" lon="-1.78075">
        <ele>35.42</ele>
        <time>2020-06-06T07:56:37Z</time>
      </trkpt>
      <trkpt lat="47.12723" lon="-1.7809">
        <ele>34.68</ele>
        <time>2020-06-06T07:56:39Z</time>
      </trkpt>
      <trkpt lat="47.12714" lon="-1.78103">
        <ele>33.31</ele>
        <time>2020-06-06T07:56:41Z</time>
      </trkpt>
      <trkpt lat="47.12704" lon="-1.78117">
        <ele>32.5</ele>
        <time>2020-06-06T07:56:43Z</time>
      </trkpt>
      <trkpt lat="47.12694" lon="-1.78131">
        <ele>32.64</ele>
        <time>2020-06-06T07:56:45Z</time>
      </trkpt>
      <trkpt lat="47.12685" lon="-1.78143">
        <ele>32.31</ele>
        <time>2020-06-06T07:56:47Z</time>
      </trkpt>
      <trkpt lat="47.12674" lon="-1.78157">
        <ele>31.86</ele>
        <time>2020-06-06T07:56:49Z</time>
      </trkpt>
      <trkpt lat="47.12664" lon="-1.78171">
        <ele>31.89</ele>
        <time>2020-06-06T07:56:51Z</time>
      </trkpt>
      <trkpt lat="47.12653" lon="-1.78186">
        <ele>32.22</ele>
        <time>2020-06-06T07:56:53Z</time>
      </trkpt>
      <trkpt lat="47.12643" lon="-1.78199">
        <ele>32.81</ele>
        <time>2020-06-06T07:56:55Z</time>
      </trkpt>
      <trkpt lat="47.12634" lon="-1.78213">
        <ele>33.22</ele>
        <time>2020-06-06T07:56:57Z</time>
      </trkpt>
      <trkpt lat="47.12627" lon="-1.78226">
        <ele>33.8</ele>
        <time>2020-06-06T07:56:59Z</time>
      </trkpt>
      <trkpt lat="47.12621" lon="-1.78246">
        <ele>33.03</ele>
        <time>2020-06-06T07:57:01Z</time>
      </trkpt>
      <trkpt lat="47.12617" lon="-1.78258">
        <ele>32.12</ele>
        <time>2020-06-06T07:57:02Z</time>
      </trkpt>
      <trkpt lat="47.12613" lon="-1.78276">
        <ele>30.9</ele>
        <time>2020-06-06T07:57:04Z</time>
      </trkpt>
      <trkpt lat="47.1261" lon="-1.78292">
        <ele>30.51</ele>
        <time>2020-06-06T07:57:06Z</time>
      </trkpt>
      <trkpt lat="47.12606" lon="-1.78313">
        <ele>30.47</ele>
        <time>2020-06-06T07:57:08Z</time>
      </trkpt>
      <trkpt lat="47.12602" lon="-1.78329">
        <ele>30.92</ele>
        <time>2020-06-06T07:57:10Z</time>
      </trkpt>
      <trkpt lat="47.12597" lon="-1.78349">
        <ele>30.26</ele>
        <time>2020-06-06T07:57:12Z</time>
      </trkpt>
      <trkpt lat="47.12593" lon="-1.78367">
        <ele>30.21</ele>
        <time>2020-06-06T07:57:14Z</time>
      </trkpt>
      <trkpt lat="47.12588" lon="-1.78385">
        <ele>31.61</ele>
        <time>2020-06-06T07:57:16Z</time>
      </trkpt>
      <trkpt lat="47.12585" lon="-1.78403">
        <ele>32.04</ele>
        <time>2020-06-06T07:57:18Z</time>
      </trkpt>
      <trkpt lat="47.12581" lon="-1.7842">
        <ele>32.75</ele>
        <time>2020-06-06T07:57:20Z</time>
      </trkpt>
      <trkpt lat="47.12575" lon="-1.78441">
        <ele>33.68</ele>
        <time>2020-06-06T07:57:22Z</time>
      </trkpt>
      <trkpt lat="47.1257" lon="-1.7846">
        <ele>33.93</ele>
        <time>2020-06-06T07:57:24Z</time>
      </trkpt>
      <trkpt lat="47.12566" lon="-1.78479">
        <ele>33.17</ele>
        <time>2020-06-06T07:57:26Z</time>
      </trkpt>
      <trkpt lat="47.12562" lon="-1.785">
        <ele>31.47</ele>
        <time>2020-06-06T07:57:28Z</time>
      </trkpt>
      <trkpt lat="47.12557" lon="-1.78518">
        <ele>29.75</ele>
        <time>2020-06-06T07:57:30Z</time>
      </trkpt>
      <trkpt lat="47.12552" lon="-1.78537">
        <ele>29.03</ele>
        <time>2020-06-06T07:57:32Z</time>
      </trkpt>
      <trkpt lat="47.12547" lon="-1.78558">
        <ele>28.6</ele>
        <time>2020-06-06T07:57:34Z</time>
      </trkpt>
      <trkpt lat="47.12543" lon="-1.78576">
        <ele>28.02</ele>
        <time>2020-06-06T07:57:36Z</time>
      </trkpt>
      <trkpt lat="47.12539" lon="-1.78594">
        <ele>28.64</ele>
        <time>2020-06-06T07:57:38Z</time>
      </trkpt>
      <trkpt lat="47.12535" lon="-1.78615">
        <ele>28.71</ele>
        <time>2020-06-06T07:57:40Z</time>
      </trkpt>
      <trkpt lat="47.1253" lon="-1.78631">
        <ele>28.94</ele>
        <time>2020-06-06T07:57:42Z</time>
      </trkpt>
      <trkpt lat="47.12525" lon="-1.78648">
        <ele>29.79</ele>
        <time>2020-06-06T07:57:44Z</time>
      </trkpt>
      <trkpt lat="47.12519" lon="-1.78666">
        <ele>29.53</ele>
        <time>2020-06-06T07:57:46Z</time>
      </trkpt>
      <trkpt lat="47.12511" lon="-1.78684">
        <ele>29.03</ele>
        <time>2020-06-06T07:57:48Z</time>
      </trkpt>
      <trkpt lat="47.12505" lon="-1.78701">
        <ele>28.39</ele>
        <time>2020-06-06T07:57:50Z</time>
      </trkpt>
      <trkpt lat="47.12499" lon="-1.7872">
        <ele>28.21</ele>
        <time>2020-06-06T07:57:52Z</time>
      </trkpt>
      <trkpt lat="47.12493" lon="-1.78739">
        <ele>27.64</ele>
        <time>2020-06-06T07:57:54Z</time>
      </trkpt>
      <trkpt lat="47.12488" lon="-1.78757">
        <ele>27.58</ele>
        <time>2020-06-06T07:57:56Z</time>
      </trkpt>
      <trkpt lat="47.12484" lon="-1.78776">
        <ele>27.23</ele>
        <time>2020-06-06T07:57:58Z</time>
      </trkpt>
      <trkpt lat="47.12479" lon="-1.78795">
        <ele>26.45</ele>
        <time>2020-06-06T07:58:00Z</time>
      </trkpt>
      <trkpt lat="47.12475" lon="-1.78812">
        <ele>26.95</ele>
        <time>2020-06-06T07:58:02Z</time>
      </trkpt>
      <trkpt lat="47.12472" lon="-1.7883">
        <ele>27.5</ele>
        <time>2020-06-06T07:58:04Z</time>
      </trkpt>
      <trkpt lat="47.12469" lon="-1.78851">
        <ele>27.2</ele>
        <time>2020-06-06T07:58:06Z</time>
      </trkpt>
      <trkpt lat="47.12467" lon="-1.78871">
        <ele>25.88</ele>
        <time>2020-06-06T07:58:08Z</time>
      </trkpt>
      <trkpt lat="47.12465" lon="-1.7889">
        <ele>25.12</ele>
        <time>2020-06-06T07:58:10Z</time>
      </trkpt>
      <trkpt lat="47.12464" lon="-1.78909">
        <ele>26.3</ele>
        <time>2020-06-06T07:58:12Z</time>
      </trkpt>
      <trkpt lat="47.12462" lon="-1.78928">
        <ele>27.19</ele>
        <time>2020-06-06T07:58:14Z</time>
      </trkpt>
      <trkpt lat="47.12458" lon="-1.78948">
        <ele>27.16</ele>
        <time>2020-06-06T07:58:16Z</time>
      </trkpt>
      <trkpt lat="47.12454" lon="-1.78965">
        <ele>27.35</ele>
        <time>2020-06-06T07:58:18Z</time>
      </trkpt>
      <trkpt lat="47.12449" lon="-1.78984">
        <ele>27.48</ele>
        <time>2020-06-06T07:58:20Z</time>
      </trkpt>
      <trkpt lat="47.12443" lon="-1.79003">
        <ele>27.18</ele>
        <time>2020-06-06T07:58:22Z</time>
      </trkpt>
      <trkpt lat="47.12439" lon="-1.79021">
        <ele>27.06</ele>
        <time>2020-06-06T07:58:24Z</time>
      </trkpt>
      <trkpt lat="47.12435" lon="-1.79036">
        <ele>27.37</ele>
        <time>2020-06-06T07:58:26Z</time>
      </trkpt>
      <trkpt lat="47.1243" lon="-1.79056">
        <ele>27.49</ele>
        <time>2020-06-06T07:58:28Z</time>
      </trkpt>
      <trkpt lat="47.12426" lon="-1.79075">
        <ele>27.94</ele>
        <time>2020-06-06T07:58:30Z</time>
      </trkpt>
      <trkpt lat="47.12423" lon="-1.79094">
        <ele>27.71</ele>
        <time>2020-06-06T07:58:32Z</time>
      </trkpt>
      <trkpt lat="47.1242" lon="-1.7911">
        <ele>27.26</ele>
        <time>2020-06-06T07:58:34Z</time>
      </trkpt>
      <trkpt lat="47.12418" lon="-1.7913">
        <ele>27.49</ele>
        <time>2020-06-06T07:58:36Z</time>
      </trkpt>
      <trkpt lat="47.12416" lon="-1.7915">
        <ele>27.6</ele>
        <time>2020-06-06T07:58:38Z</time>
      </trkpt>
      <trkpt lat="47.12416" lon="-1.7917">
        <ele>27.32</ele>
        <time>2020-06-06T07:58:40Z</time>
      </trkpt>
      <trkpt lat="47.12417" lon="-1.79191">
        <ele>27.19</ele>
        <time>2020-06-06T07:58:42Z</time>
      </trkpt>
      <trkpt lat="47.12419" lon="-1.7921">
        <ele>27.18</ele>
        <time>2020-06-06T07:58:44Z</time>
      </trkpt>
      <trkpt lat="47.12421" lon="-1.79227">
        <ele>27</ele>
        <time>2020-06-06T07:58:46Z</time>
      </trkpt>
      <trkpt lat="47.12423" lon="-1.79247">
        <ele>26.43</ele>
        <time>2020-06-06T07:58:48Z</time>
      </trkpt>
      <trkpt lat="47.12422" lon="-1.79264">
        <ele>25.04</ele>
        <time>2020-06-06T07:58:50Z</time>
      </trkpt>
      <trkpt lat="47.12417" lon="-1.79282">
        <ele>23.79</ele>
        <time>2020-06-06T07:58:52Z</time>
      </trkpt>
      <trkpt lat="47.12412" lon="-1.79298">
        <ele>23.85</ele>
        <time>2020-06-06T07:58:54Z</time>
      </trkpt>
      <trkpt lat="47.12405" lon="-1.79314">
        <ele>24.24</ele>
        <time>2020-06-06T07:58:56Z</time>
      </trkpt>
      <trkpt lat="47.12398" lon="-1.7933">
        <ele>25.1</ele>
        <time>2020-06-06T07:58:58Z</time>
      </trkpt>
      <trkpt lat="47.12391" lon="-1.79344">
        <ele>26.01</ele>
        <time>2020-06-06T07:59:00Z</time>
      </trkpt>
      <trkpt lat="47.12384" lon="-1.79359">
        <ele>26.22</ele>
        <time>2020-06-06T07:59:02Z</time>
      </trkpt>
      <trkpt lat="47.12377" lon="-1.79374">
        <ele>26.43</ele>
        <time>2020-06-06T07:59:04Z</time>
      </trkpt>
      <trkpt lat="47.1237" lon="-1.7939">
        <ele>26.33</ele>
        <time>2020-06-06T07:59:06Z</time>
      </trkpt>
      <trkpt lat="47.12363" lon="-1.79406">
        <ele>26.54</ele>
        <time>2020-06-06T07:59:08Z</time>
      </trkpt>
      <trkpt lat="47.12358" lon="-1.79422">
        <ele>26.05</ele>
        <time>2020-06-06T07:59:10Z</time>
      </trkpt>
      <trkpt lat="47.12351" lon="-1.79443">
        <ele>25.28</ele>
        <time>2020-06-06T07:59:12Z</time>
      </trkpt>
      <trkpt lat="47.12347" lon="-1.79461">
        <ele>26.21</ele>
        <time>2020-06-06T07:59:14Z</time>
      </trkpt>
      <trkpt lat="47.12344" lon="-1.79479">
        <ele>27.38</ele>
        <time>2020-06-06T07:59:16Z</time>
      </trkpt>
      <trkpt lat="47.12341" lon="-1.795">
        <ele>26.9</ele>
        <time>2020-06-06T07:59:18Z</time>
      </trkpt>
      <trkpt lat="47.12338" lon="-1.79517">
        <ele>26.32</ele>
        <time>2020-06-06T07:59:20Z</time>
      </trkpt>
      <trkpt lat="47.12335" lon="-1.79536">
        <ele>26.29</ele>
        <time>2020-06-06T07:59:22Z</time>
      </trkpt>
      <trkpt lat="47.12332" lon="-1.79557">
        <ele>26.58</ele>
        <time>2020-06-06T07:59:24Z</time>
      </trkpt>
      <trkpt lat="47.1233" lon="-1.79574">
        <ele>26.57</ele>
        <time>2020-06-06T07:59:26Z</time>
      </trkpt>
      <trkpt lat="47.12322" lon="-1.79589">
        <ele>27.78</ele>
        <time>2020-06-06T07:59:28Z</time>
      </trkpt>
      <trkpt lat="47.12312" lon="-1.79596">
        <ele>28.07</ele>
        <time>2020-06-06T07:59:30Z</time>
      </trkpt>
      <trkpt lat="47.12299" lon="-1.79599">
        <ele>28.1</ele>
        <time>2020-06-06T07:59:32Z</time>
      </trkpt>
      <trkpt lat="47.12284" lon="-1.79599">
        <ele>28.26</ele>
        <time>2020-06-06T07:59:34Z</time>
      </trkpt>
      <trkpt lat="47.12269" lon="-1.79599">
        <ele>27.49</ele>
        <time>2020-06-06T07:59:36Z</time>
      </trkpt>
      <trkpt lat="47.12256" lon="-1.79598">
        <ele>27.14</ele>
        <time>2020-06-06T07:59:38Z</time>
      </trkpt>
      <trkpt lat="47.12243" lon="-1.79597">
        <ele>27.11</ele>
        <time>2020-06-06T07:59:40Z</time>
      </trkpt>
      <trkpt lat="47.12231" lon="-1.79596">
        <ele>27.36</ele>
        <time>2020-06-06T07:59:42Z</time>
      </trkpt>
      <trkpt lat="47.12219" lon="-1.79595">
        <ele>27.4</ele>
        <time>2020-06-06T07:59:44Z</time>
      </trkpt>
      <trkpt lat="47.12206" lon="-1.79594">
        <ele>28.13</ele>
        <time>2020-06-06T07:59:46Z</time>
      </trkpt>
      <trkpt lat="47.12193" lon="-1.79594">
        <ele>28.47</ele>
        <time>2020-06-06T07:59:48Z</time>
      </trkpt>
      <trkpt lat="47.1218" lon="-1.79593">
        <ele>27.96</ele>
        <time>2020-06-06T07:59:50Z</time>
      </trkpt>
      <trkpt lat="47.12166" lon="-1.79593">
        <ele>26.95</ele>
        <time>2020-06-06T07:59:52Z</time>
      </trkpt>
      <trkpt lat="47.12152" lon="-1.79593">
        <ele>26.53</ele>
        <time>2020-06-06T07:59:54Z</time>
      </trkpt>
      <trkpt lat="47.12141" lon="-1.79593">
        <ele>26.83</ele>
        <time>2020-06-06T07:59:56Z</time>
      </trkpt>
      <trkpt lat="47.12128" lon="-1.79594">
        <ele>27.12</ele>
        <time>2020-06-06T07:59:58Z</time>
      </trkpt>
      <trkpt lat="47.12115" lon="-1.79595">
        <ele>27.76</ele>
        <time>2020-06-06T08:00:00Z</time>
      </trkpt>
      <trkpt lat="47.12101" lon="-1.79598">
        <ele>28.01</ele>
        <time>2020-06-06T08:00:02Z</time>
      </trkpt>
      <trkpt lat="47.12086" lon="-1.79605">
        <ele>27.4</ele>
        <time>2020-06-06T08:00:04Z</time>
      </trkpt>
      <trkpt lat="47.12075" lon="-1.79616">
        <ele>27.31</ele>
        <time>2020-06-06T08:00:06Z</time>
      </trkpt>
      <trkpt lat="47.12063" lon="-1.79627">
        <ele>27.82</ele>
        <time>2020-06-06T08:00:08Z</time>
      </trkpt>
      <trkpt lat="47.12052" lon="-1.7964">
        <ele>27.86</ele>
        <time>2020-06-06T08:00:10Z</time>
      </trkpt>
      <trkpt lat="47.1204" lon="-1.79652">
        <ele>27.12</ele>
        <time>2020-06-06T08:00:12Z</time>
      </trkpt>
      <trkpt lat="47.1203" lon="-1.79664">
        <ele>27.02</ele>
        <time>2020-06-06T08:00:14Z</time>
      </trkpt>
      <trkpt lat="47.12017" lon="-1.79676">
        <ele>27.15</ele>
        <time>2020-06-06T08:00:16Z</time>
      </trkpt>
      <trkpt lat="47.12006" lon="-1.79688">
        <ele>27.53</ele>
        <time>2020-06-06T08:00:18Z</time>
      </trkpt>
      <trkpt lat="47.11996" lon="-1.79699">
        <ele>27.31</ele>
        <time>2020-06-06T08:00:20Z</time>
      </trkpt>
      <trkpt lat="47.11984" lon="-1.7971">
        <ele>26.18</ele>
        <time>2020-06-06T08:00:22Z</time>
      </trkpt>
      <trkpt lat="47.11971" lon="-1.79724">
        <ele>24.74</ele>
        <time>2020-06-06T08:00:24Z</time>
      </trkpt>
      <trkpt lat="47.11961" lon="-1.79736">
        <ele>24.71</ele>
        <time>2020-06-06T08:00:26Z</time>
      </trkpt>
      <trkpt lat="47.1195" lon="-1.7975">
        <ele>23.31</ele>
        <time>2020-06-06T08:00:28Z</time>
      </trkpt>
      <trkpt lat="47.1194" lon="-1.79761">
        <ele>22.79</ele>
        <time>2020-06-06T08:00:30Z</time>
      </trkpt>
      <trkpt lat="47.11929" lon="-1.79776">
        <ele>23.35</ele>
        <time>2020-06-06T08:00:32Z</time>
      </trkpt>
      <trkpt lat="47.11919" lon="-1.79789">
        <ele>24.92</ele>
        <time>2020-06-06T08:00:34Z</time>
      </trkpt>
      <trkpt lat="47.11908" lon="-1.79803">
        <ele>26.22</ele>
        <time>2020-06-06T08:00:36Z</time>
      </trkpt>
      <trkpt lat="47.11898" lon="-1.79817">
        <ele>25.89</ele>
        <time>2020-06-06T08:00:38Z</time>
      </trkpt>
      <trkpt lat="47.11887" lon="-1.79831">
        <ele>25.74</ele>
        <time>2020-06-06T08:00:40Z</time>
      </trkpt>
      <trkpt lat="47.11877" lon="-1.79843">
        <ele>26.14</ele>
        <time>2020-06-06T08:00:42Z</time>
      </trkpt>
      <trkpt lat="47.11865" lon="-1.79856">
        <ele>26.67</ele>
        <time>2020-06-06T08:00:44Z</time>
      </trkpt>
      <trkpt lat="47.11854" lon="-1.79868">
        <ele>25.6</ele>
        <time>2020-06-06T08:00:46Z</time>
      </trkpt>
      <trkpt lat="47.11843" lon="-1.7988">
        <ele>24.04</ele>
        <time>2020-06-06T08:00:48Z</time>
      </trkpt>
      <trkpt lat="47.11832" lon="-1.79891">
        <ele>23.5</ele>
        <time>2020-06-06T08:00:50Z</time>
      </trkpt>
      <trkpt lat="47.11822" lon="-1.79902">
        <ele>23.64</ele>
        <time>2020-06-06T08:00:52Z</time>
      </trkpt>
      <trkpt lat="47.1181" lon="-1.79914">
        <ele>23.59</ele>
        <time>2020-06-06T08:00:54Z</time>
      </trkpt>
      <trkpt lat="47.11799" lon="-1.79925">
        <ele>23.32</ele>
        <time>2020-06-06T08:00:56Z</time>
      </trkpt>
      <trkpt lat="47.1179" lon="-1.79935">
        <ele>23.14</ele>
        <time>2020-06-06T08:00:58Z</time>
      </trkpt>
      <trkpt lat="47.1178" lon="-1.79947">
        <ele>22.92</ele>
        <time>2020-06-06T08:01:00Z</time>
      </trkpt>
      <trkpt lat="47.1177" lon="-1.79958">
        <ele>23.12</ele>
        <time>2020-06-06T08:01:02Z</time>
      </trkpt>
      <trkpt lat="47.11763" lon="-1.79969">
        <ele>22.7</ele>
        <time>2020-06-06T08:01:04Z</time>
      </trkpt>
      <trkpt lat="47.11755" lon="-1.79977">
        <ele>21.96</ele>
        <time>2020-06-06T08:01:06Z</time>
      </trkpt>
      <trkpt lat="47.11743" lon="-1.79978">
        <ele>21.32</ele>
        <time>2020-06-06T08:01:08Z</time>
      </trkpt>
      <trkpt lat="47.11731" lon="-1.79976">
        <ele>21.65</ele>
        <time>2020-06-06T08:01:10Z</time>
      </trkpt>
      <trkpt lat="47.11718" lon="-1.79973">
        <ele>21.29</ele>
        <time>2020-06-06T08:01:12Z</time>
      </trkpt>
      <trkpt lat="47.11703" lon="-1.79972">
        <ele>20.97</ele>
        <time>2020-06-06T08:01:14Z</time>
      </trkpt>
      <trkpt lat="47.1169" lon="-1.79969">
        <ele>20.54</ele>
        <time>2020-06-06T08:01:16Z</time>
      </trkpt>
      <trkpt lat="47.11676" lon="-1.79967">
        <ele>20.23</ele>
        <time>2020-06-06T08:01:18Z</time>
      </trkpt>
      <trkpt lat="47.11663" lon="-1.79964">
        <ele>20.64</ele>
        <time>2020-06-06T08:01:20Z</time>
      </trkpt>
      <trkpt lat="47.11648" lon="-1.79962">
        <ele>21.07</ele>
        <time>2020-06-06T08:01:22Z</time>
      </trkpt>
      <trkpt lat="47.11637" lon="-1.79961">
        <ele>22.23</ele>
        <time>2020-06-06T08:01:24Z</time>
      </trkpt>
      <trkpt lat="47.11624" lon="-1.79959">
        <ele>22.96</ele>
        <time>2020-06-06T08:01:26Z</time>
      </trkpt>
      <trkpt lat="47.11609" lon="-1.79956">
        <ele>24.04</ele>
        <time>2020-06-06T08:01:28Z</time>
      </trkpt>
      <trkpt lat="47.11596" lon="-1.79953">
        <ele>24.62</ele>
        <time>2020-06-06T08:01:30Z</time>
      </trkpt>
      <trkpt lat="47.11582" lon="-1.79952">
        <ele>24.33</ele>
        <time>2020-06-06T08:01:32Z</time>
      </trkpt>
      <trkpt lat="47.11569" lon="-1.79952">
        <ele>23.56</ele>
        <time>2020-06-06T08:01:34Z</time>
      </trkpt>
      <trkpt lat="47.11556" lon="-1.79955">
        <ele>23.28</ele>
        <time>2020-06-06T08:01:36Z</time>
      </trkpt>
      <trkpt lat="47.11542" lon="-1.79962">
        <ele>23.11</ele>
        <time>2020-06-06T08:01:38Z</time>
      </trkpt>
      <trkpt lat="47.1153" lon="-1.79973">
        <ele>22.5</ele>
        <time>2020-06-06T08:01:40Z</time>
      </trkpt>
      <trkpt lat="47.1152" lon="-1.79984">
        <ele>22.9</ele>
        <time>2020-06-06T08:01:42Z</time>
      </trkpt>
      <trkpt lat="47.11508" lon="-1.79998">
        <ele>22.78</ele>
        <time>2020-06-06T08:01:44Z</time>
      </trkpt>
      <trkpt lat="47.11497" lon="-1.80012">
        <ele>21.72</ele>
        <time>2020-06-06T08:01:46Z</time>
      </trkpt>
      <trkpt lat="47.11486" lon="-1.80026">
        <ele>20.31</ele>
        <time>2020-06-06T08:01:48Z</time>
      </trkpt>
      <trkpt lat="47.11476" lon="-1.80039">
        <ele>19.45</ele>
        <time>2020-06-06T08:01:50Z</time>
      </trkpt>
      <trkpt lat="47.11465" lon="-1.80054">
        <ele>19.07</ele>
        <time>2020-06-06T08:01:52Z</time>
      </trkpt>
      <trkpt lat="47.11455" lon="-1.80067">
        <ele>19.24</ele>
        <time>2020-06-06T08:01:54Z</time>
      </trkpt>
      <trkpt lat="47.11445" lon="-1.80081">
        <ele>19.46</ele>
        <time>2020-06-06T08:01:56Z</time>
      </trkpt>
      <trkpt lat="47.11436" lon="-1.80093">
        <ele>19.88</ele>
        <time>2020-06-06T08:01:58Z</time>
      </trkpt>
      <trkpt lat="47.11426" lon="-1.80106">
        <ele>19.7</ele>
        <time>2020-06-06T08:02:00Z</time>
      </trkpt>
      <trkpt lat="47.11418" lon="-1.8012">
        <ele>19.57</ele>
        <time>2020-06-06T08:02:02Z</time>
      </trkpt>
      <trkpt lat="47.11409" lon="-1.80134">
        <ele>19.54</ele>
        <time>2020-06-06T08:02:04Z</time>
      </trkpt>
      <trkpt lat="47.114" lon="-1.80146">
        <ele>19.87</ele>
        <time>2020-06-06T08:02:06Z</time>
      </trkpt>
      <trkpt lat="47.1139" lon="-1.80159">
        <ele>20.39</ele>
        <time>2020-06-06T08:02:08Z</time>
      </trkpt>
      <trkpt lat="47.11379" lon="-1.80173">
        <ele>20.38</ele>
        <time>2020-06-06T08:02:10Z</time>
      </trkpt>
      <trkpt lat="47.11367" lon="-1.80187">
        <ele>20.04</ele>
        <time>2020-06-06T08:02:12Z</time>
      </trkpt>
      <trkpt lat="47.11357" lon="-1.802">
        <ele>19.81</ele>
        <time>2020-06-06T08:02:14Z</time>
      </trkpt>
      <trkpt lat="47.11347" lon="-1.80213">
        <ele>19.12</ele>
        <time>2020-06-06T08:02:16Z</time>
      </trkpt>
      <trkpt lat="47.11339" lon="-1.80226">
        <ele>18.45</ele>
        <time>2020-06-06T08:02:18Z</time>
      </trkpt>
      <trkpt lat="47.11328" lon="-1.8024">
        <ele>18.69</ele>
        <time>2020-06-06T08:02:20Z</time>
      </trkpt>
      <trkpt lat="47.11318" lon="-1.80257">
        <ele>19.33</ele>
        <time>2020-06-06T08:02:22Z</time>
      </trkpt>
      <trkpt lat="47.11309" lon="-1.80271">
        <ele>19.1</ele>
        <time>2020-06-06T08:02:24Z</time>
      </trkpt>
      <trkpt lat="47.11299" lon="-1.80286">
        <ele>19.04</ele>
        <time>2020-06-06T08:02:26Z</time>
      </trkpt>
      <trkpt lat="47.11289" lon="-1.80299">
        <ele>19</ele>
        <time>2020-06-06T08:02:28Z</time>
      </trkpt>
      <trkpt lat="47.11278" lon="-1.80314">
        <ele>18.95</ele>
        <time>2020-06-06T08:02:30Z</time>
      </trkpt>
      <trkpt lat="47.11268" lon="-1.80327">
        <ele>18.88</ele>
        <time>2020-06-06T08:02:32Z</time>
      </trkpt>
      <trkpt lat="47.11257" lon="-1.8034">
        <ele>18.59</ele>
        <time>2020-06-06T08:02:34Z</time>
      </trkpt>
      <trkpt lat="47.11247" lon="-1.80354">
        <ele>17.42</ele>
        <time>2020-06-06T08:02:36Z</time>
      </trkpt>
      <trkpt lat="47.11236" lon="-1.80367">
        <ele>16.71</ele>
        <time>2020-06-06T08:02:38Z</time>
      </trkpt>
      <trkpt lat="47.11227" lon="-1.8038">
        <ele>16.81</ele>
        <time>2020-06-06T08:02:40Z</time>
      </trkpt>
      <trkpt lat="47.11216" lon="-1.80393">
        <ele>17.13</ele>
        <time>2020-06-06T08:02:42Z</time>
      </trkpt>
      <trkpt lat="47.11206" lon="-1.80404">
        <ele>16.3</ele>
        <time>2020-06-06T08:02:44Z</time>
      </trkpt>
      <trkpt lat="47.11195" lon="-1.80416">
        <ele>15.63</ele>
        <time>2020-06-06T08:02:46Z</time>
      </trkpt>
      <trkpt lat="47.11185" lon="-1.80426">
        <ele>15.02</ele>
        <time>2020-06-06T08:02:48Z</time>
      </trkpt>
      <trkpt lat="47.11173" lon="-1.80435">
        <ele>15.05</ele>
        <time>2020-06-06T08:02:50Z</time>
      </trkpt>
      <trkpt lat="47.11161" lon="-1.80445">
        <ele>14.58</ele>
        <time>2020-06-06T08:02:52Z</time>
      </trkpt>
      <trkpt lat="47.11148" lon="-1.80453">
        <ele>14.85</ele>
        <time>2020-06-06T08:02:54Z</time>
      </trkpt>
      <trkpt lat="47.11137" lon="-1.8046">
        <ele>15.11</ele>
        <time>2020-06-06T08:02:56Z</time>
      </trkpt>
      <trkpt lat="47.11124" lon="-1.80468">
        <ele>15.52</ele>
        <time>2020-06-06T08:02:58Z</time>
      </trkpt>
      <trkpt lat="47.11113" lon="-1.80475">
        <ele>15.11</ele>
        <time>2020-06-06T08:03:00Z</time>
      </trkpt>
      <trkpt lat="47.11102" lon="-1.80484">
        <ele>14.62</ele>
        <time>2020-06-06T08:03:02Z</time>
      </trkpt>
      <trkpt lat="47.11089" lon="-1.80492">
        <ele>14.41</ele>
        <time>2020-06-06T08:03:04Z</time>
      </trkpt>
      <trkpt lat="47.11078" lon="-1.80499">
        <ele>14.4</ele>
        <time>2020-06-06T08:03:06Z</time>
      </trkpt>
      <trkpt lat="47.11066" lon="-1.80507">
        <ele>15.25</ele>
        <time>2020-06-06T08:03:08Z</time>
      </trkpt>
      <trkpt lat="47.11054" lon="-1.80515">
        <ele>16.04</ele>
        <time>2020-06-06T08:03:10Z</time>
      </trkpt>
      <trkpt lat="47.11043" lon="-1.80522">
        <ele>17.24</ele>
        <time>2020-06-06T08:03:12Z</time>
      </trkpt>
      <trkpt lat="47.11032" lon="-1.80529">
        <ele>17.87</ele>
        <time>2020-06-06T08:03:14Z</time>
      </trkpt>
      <trkpt lat="47.1102" lon="-1.80537">
        <ele>18.2</ele>
        <time>2020-06-06T08:03:16Z</time>
      </trkpt>
      <trkpt lat="47.11009" lon="-1.80545">
        <ele>18.31</ele>
        <time>2020-06-06T08:03:18Z</time>
      </trkpt>
      <trkpt lat="47.10997" lon="-1.80552">
        <ele>17.55</ele>
        <time>2020-06-06T08:03:20Z</time>
      </trkpt>
      <trkpt lat="47.10985" lon="-1.8056">
        <ele>16.48</ele>
        <time>2020-06-06T08:03:22Z</time>
      </trkpt>
      <trkpt lat="47.10972" lon="-1.80569">
        <ele>15.38</ele>
        <time>2020-06-06T08:03:24Z</time>
      </trkpt>
      <trkpt lat="47.1096" lon="-1.80577">
        <ele>14.07</ele>
        <time>2020-06-06T08:03:26Z</time>
      </trkpt>
      <trkpt lat="47.10949" lon="-1.80584">
        <ele>14.29</ele>
        <time>2020-06-06T08:03:27Z</time>
      </trkpt>
      <trkpt lat="47.10937" lon="-1.80592">
        <ele>14.65</ele>
        <time>2020-06-06T08:03:29Z</time>
      </trkpt>
      <trkpt lat="47.10924" lon="-1.806">
        <ele>14.39</ele>
        <time>2020-06-06T08:03:31Z</time>
      </trkpt>
      <trkpt lat="47.10911" lon="-1.80609">
        <ele>14.96</ele>
        <time>2020-06-06T08:03:33Z</time>
      </trkpt>
      <trkpt lat="47.10899" lon="-1.80617">
        <ele>14.53</ele>
        <time>2020-06-06T08:03:35Z</time>
      </trkpt>
      <trkpt lat="47.10888" lon="-1.80624">
        <ele>14.05</ele>
        <time>2020-06-06T08:03:37Z</time>
      </trkpt>
      <trkpt lat="47.10877" lon="-1.80629">
        <ele>13.84</ele>
        <time>2020-06-06T08:03:39Z</time>
      </trkpt>
      <trkpt lat="47.10864" lon="-1.80636">
        <ele>13.82</ele>
        <time>2020-06-06T08:03:41Z</time>
      </trkpt>
      <trkpt lat="47.10851" lon="-1.80641">
        <ele>14.32</ele>
        <time>2020-06-06T08:03:43Z</time>
      </trkpt>
      <trkpt lat="47.10839" lon="-1.80646">
        <ele>15.6</ele>
        <time>2020-06-06T08:03:45Z</time>
      </trkpt>
      <trkpt lat="47.10825" lon="-1.80651">
        <ele>15.81</ele>
        <time>2020-06-06T08:03:47Z</time>
      </trkpt>
      <trkpt lat="47.10812" lon="-1.80656">
        <ele>15.15</ele>
        <time>2020-06-06T08:03:49Z</time>
      </trkpt>
      <trkpt lat="47.10801" lon="-1.80661">
        <ele>13.05</ele>
        <time>2020-06-06T08:03:51Z</time>
      </trkpt>
      <trkpt lat="47.10788" lon="-1.80666">
        <ele>11.67</ele>
        <time>2020-06-06T08:03:53Z</time>
      </trkpt>
      <trkpt lat="47.10774" lon="-1.80671">
        <ele>11.79</ele>
        <time>2020-06-06T08:03:55Z</time>
      </trkpt>
      <trkpt lat="47.10762" lon="-1.80674">
        <ele>12.93</ele>
        <time>2020-06-06T08:03:57Z</time>
      </trkpt>
      <trkpt lat="47.10748" lon="-1.80679">
        <ele>13.9</ele>
        <time>2020-06-06T08:03:59Z</time>
      </trkpt>
      <trkpt lat="47.10735" lon="-1.80682">
        <ele>15.01</ele>
        <time>2020-06-06T08:04:01Z</time>
      </trkpt>
      <trkpt lat="47.10722" lon="-1.80684">
        <ele>14.41</ele>
        <time>2020-06-06T08:04:03Z</time>
      </trkpt>
      <trkpt lat="47.10708" lon="-1.80687">
        <ele>13.91</ele>
        <time>2020-06-06T08:04:05Z</time>
      </trkpt>
      <trkpt lat="47.10694" lon="-1.80688">
        <ele>14.06</ele>
        <time>2020-06-06T08:04:07Z</time>
      </trkpt>
      <trkpt lat="47.10682" lon="-1.80689">
        <ele>14.14</ele>
        <time>2020-06-06T08:04:09Z</time>
      </trkpt>
      <trkpt lat="47.10668" lon="-1.8069">
        <ele>15.13</ele>
        <time>2020-06-06T08:04:11Z</time>
      </trkpt>
      <trkpt lat="47.10655" lon="-1.80691">
        <ele>15.45</ele>
        <time>2020-06-06T08:04:13Z</time>
      </trkpt>
      <trkpt lat="47.10642" lon="-1.80693">
        <ele>14.47</ele>
        <time>2020-06-06T08:04:15Z</time>
      </trkpt>
      <trkpt lat="47.10628" lon="-1.80695">
        <ele>12.8</ele>
        <time>2020-06-06T08:04:17Z</time>
      </trkpt>
      <trkpt lat="47.10615" lon="-1.80698">
        <ele>11.85</ele>
        <time>2020-06-06T08:04:19Z</time>
      </trkpt>
      <trkpt lat="47.10602" lon="-1.80703">
        <ele>11.98</ele>
        <time>2020-06-06T08:04:21Z</time>
      </trkpt>
      <trkpt lat="47.10588" lon="-1.8071">
        <ele>12.33</ele>
        <time>2020-06-06T08:04:23Z</time>
      </trkpt>
      <trkpt lat="47.10576" lon="-1.80718">
        <ele>12.26</ele>
        <time>2020-06-06T08:04:25Z</time>
      </trkpt>
      <trkpt lat="47.10564" lon="-1.80728">
        <ele>12.01</ele>
        <time>2020-06-06T08:04:27Z</time>
      </trkpt>
      <trkpt lat="47.10555" lon="-1.80739">
        <ele>12.87</ele>
        <time>2020-06-06T08:04:29Z</time>
      </trkpt>
      <trkpt lat="47.10543" lon="-1.80754">
        <ele>13.38</ele>
        <time>2020-06-06T08:04:31Z</time>
      </trkpt>
      <trkpt lat="47.10533" lon="-1.80767">
        <ele>12.4</ele>
        <time>2020-06-06T08:04:33Z</time>
      </trkpt>
      <trkpt lat="47.10524" lon="-1.8078">
        <ele>10.89</ele>
        <time>2020-06-06T08:04:35Z</time>
      </trkpt>
      <trkpt lat="47.10515" lon="-1.80795">
        <ele>10.69</ele>
        <time>2020-06-06T08:04:37Z</time>
      </trkpt>
      <trkpt lat="47.10505" lon="-1.80808">
        <ele>10.1</ele>
        <time>2020-06-06T08:04:39Z</time>
      </trkpt>
      <trkpt lat="47.10493" lon="-1.80816">
        <ele>10.07</ele>
        <time>2020-06-06T08:04:41Z</time>
      </trkpt>
      <trkpt lat="47.1048" lon="-1.80827">
        <ele>9.31</ele>
        <time>2020-06-06T08:04:43Z</time>
      </trkpt>
      <trkpt lat="47.1047" lon="-1.8084">
        <ele>9.89</ele>
        <time>2020-06-06T08:04:45Z</time>
      </trkpt>
      <trkpt lat="47.10461" lon="-1.80854">
        <ele>10.57</ele>
        <time>2020-06-06T08:04:47Z</time>
      </trkpt>
      <trkpt lat="47.10453" lon="-1.80869">
        <ele>9.92</ele>
        <time>2020-06-06T08:04:49Z</time>
      </trkpt>
      <trkpt lat="47.10445" lon="-1.80882">
        <ele>10</ele>
        <time>2020-06-06T08:04:51Z</time>
      </trkpt>
      <trkpt lat="47.10438" lon="-1.80896">
        <ele>10.78</ele>
        <time>2020-06-06T08:04:53Z</time>
      </trkpt>
      <trkpt lat="47.10431" lon="-1.80908">
        <ele>11.56</ele>
        <time>2020-06-06T08:04:55Z</time>
      </trkpt>
      <trkpt lat="47.10421" lon="-1.80922">
        <ele>13.07</ele>
        <time>2020-06-06T08:04:57Z</time>
      </trkpt>
      <trkpt lat="47.10412" lon="-1.80937">
        <ele>13.07</ele>
        <time>2020-06-06T08:04:59Z</time>
      </trkpt>
      <trkpt lat="47.10404" lon="-1.80949">
        <ele>12.4</ele>
        <time>2020-06-06T08:05:01Z</time>
      </trkpt>
      <trkpt lat="47.10398" lon="-1.80961">
        <ele>11.28</ele>
        <time>2020-06-06T08:05:03Z</time>
      </trkpt>
      <trkpt lat="47.10391" lon="-1.80973">
        <ele>10.82</ele>
        <time>2020-06-06T08:05:05Z</time>
      </trkpt>
      <trkpt lat="47.10384" lon="-1.80984">
        <ele>10.26</ele>
        <time>2020-06-06T08:05:07Z</time>
      </trkpt>
      <trkpt lat="47.10377" lon="-1.81001">
        <ele>9.57</ele>
        <time>2020-06-06T08:05:10Z</time>
      </trkpt>
      <trkpt lat="47.10371" lon="-1.81015">
        <ele>10.58</ele>
        <time>2020-06-06T08:05:12Z</time>
      </trkpt>
      <trkpt lat="47.10367" lon="-1.81028">
        <ele>11.09</ele>
        <time>2020-06-06T08:05:14Z</time>
      </trkpt>
      <trkpt lat="47.10362" lon="-1.81041">
        <ele>12.37</ele>
        <time>2020-06-06T08:05:16Z</time>
      </trkpt>
      <trkpt lat="47.10349" lon="-1.81041">
        <ele>11.88</ele>
        <time>2020-06-06T08:05:19Z</time>
      </trkpt>
      <trkpt lat="47.1034" lon="-1.81024">
        <ele>12.24</ele>
        <time>2020-06-06T08:05:21Z</time>
      </trkpt>
      <trkpt lat="47.1033" lon="-1.81014">
        <ele>12.4</ele>
        <time>2020-06-06T08:05:23Z</time>
      </trkpt>
      <trkpt lat="47.1032" lon="-1.81012">
        <ele>12.42</ele>
        <time>2020-06-06T08:05:25Z</time>
      </trkpt>
      <trkpt lat="47.10309" lon="-1.81011">
        <ele>11.9</ele>
        <time>2020-06-06T08:05:28Z</time>
      </trkpt>
      <trkpt lat="47.10294" lon="-1.81007">
        <ele>10.43</ele>
        <time>2020-06-06T08:05:31Z</time>
      </trkpt>
      <trkpt lat="47.10282" lon="-1.81006">
        <ele>10.14</ele>
        <time>2020-06-06T08:05:33Z</time>
      </trkpt>
      <trkpt lat="47.10267" lon="-1.81003">
        <ele>9.85</ele>
        <time>2020-06-06T08:05:35Z</time>
      </trkpt>
      <trkpt lat="47.10253" lon="-1.81004">
        <ele>9.37</ele>
        <time>2020-06-06T08:05:37Z</time>
      </trkpt>
      <trkpt lat="47.1024" lon="-1.81006">
        <ele>9.54</ele>
        <time>2020-06-06T08:05:39Z</time>
      </trkpt>
      <trkpt lat="47.10226" lon="-1.81006">
        <ele>10.11</ele>
        <time>2020-06-06T08:05:41Z</time>
      </trkpt>
      <trkpt lat="47.1021" lon="-1.81003">
        <ele>10.56</ele>
        <time>2020-06-06T08:05:43Z</time>
      </trkpt>
      <trkpt lat="47.10197" lon="-1.80998">
        <ele>11.11</ele>
        <time>2020-06-06T08:05:45Z</time>
      </trkpt>
      <trkpt lat="47.10184" lon="-1.80991">
        <ele>11.29</ele>
        <time>2020-06-06T08:05:47Z</time>
      </trkpt>
      <trkpt lat="47.10172" lon="-1.80985">
        <ele>11.31</ele>
        <time>2020-06-06T08:05:49Z</time>
      </trkpt>
      <trkpt lat="47.10161" lon="-1.8098">
        <ele>11.05</ele>
        <time>2020-06-06T08:05:51Z</time>
      </trkpt>
      <trkpt lat="47.10149" lon="-1.80974">
        <ele>10.59</ele>
        <time>2020-06-06T08:05:53Z</time>
      </trkpt>
      <trkpt lat="47.10139" lon="-1.8097">
        <ele>10.63</ele>
        <time>2020-06-06T08:05:55Z</time>
      </trkpt>
      <trkpt lat="47.10127" lon="-1.80967">
        <ele>10.27</ele>
        <time>2020-06-06T08:05:57Z</time>
      </trkpt>
      <trkpt lat="47.10115" lon="-1.80967">
        <ele>9.11</ele>
        <time>2020-06-06T08:05:59Z</time>
      </trkpt>
      <trkpt lat="47.101" lon="-1.80968">
        <ele>8.52</ele>
        <time>2020-06-06T08:06:01Z</time>
      </trkpt>
      <trkpt lat="47.10087" lon="-1.80968">
        <ele>8.71</ele>
        <time>2020-06-06T08:06:03Z</time>
      </trkpt>
      <trkpt lat="47.10073" lon="-1.8097">
        <ele>8.48</ele>
        <time>2020-06-06T08:06:05Z</time>
      </trkpt>
      <trkpt lat="47.10061" lon="-1.8097">
        <ele>9.37</ele>
        <time>2020-06-06T08:06:07Z</time>
      </trkpt>
      <trkpt lat="47.10048" lon="-1.80971">
        <ele>10.55</ele>
        <time>2020-06-06T08:06:09Z</time>
      </trkpt>
      <trkpt lat="47.10036" lon="-1.80972">
        <ele>11.5</ele>
        <time>2020-06-06T08:06:11Z</time>
      </trkpt>
      <trkpt lat="47.10022" lon="-1.80974">
        <ele>12.25</ele>
        <time>2020-06-06T08:06:13Z</time>
      </trkpt>
      <trkpt lat="47.1001" lon="-1.80976">
        <ele>12.27</ele>
        <time>2020-06-06T08:06:15Z</time>
      </trkpt>
      <trkpt lat="47.09998" lon="-1.80977">
        <ele>11.26</ele>
        <time>2020-06-06T08:06:17Z</time>
      </trkpt>
      <trkpt lat="47.09986" lon="-1.80977">
        <ele>10.42</ele>
        <time>2020-06-06T08:06:19Z</time>
      </trkpt>
      <trkpt lat="47.09974" lon="-1.80976">
        <ele>10.51</ele>
        <time>2020-06-06T08:06:21Z</time>
      </trkpt>
      <trkpt lat="47.0996" lon="-1.80976">
        <ele>10.87</ele>
        <time>2020-06-06T08:06:23Z</time>
      </trkpt>
      <trkpt lat="47.09948" lon="-1.80977">
        <ele>11.82</ele>
        <time>2020-06-06T08:06:25Z</time>
      </trkpt>
      <trkpt lat="47.09936" lon="-1.80979">
        <ele>12.27</ele>
        <time>2020-06-06T08:06:27Z</time>
      </trkpt>
      <trkpt lat="47.09924" lon="-1.8098">
        <ele>11.52</ele>
        <time>2020-06-06T08:06:29Z</time>
      </trkpt>
      <trkpt lat="47.09913" lon="-1.80981">
        <ele>11.02</ele>
        <time>2020-06-06T08:06:31Z</time>
      </trkpt>
      <trkpt lat="47.099" lon="-1.80982">
        <ele>10.33</ele>
        <time>2020-06-06T08:06:33Z</time>
      </trkpt>
      <trkpt lat="47.09888" lon="-1.80983">
        <ele>10.05</ele>
        <time>2020-06-06T08:06:35Z</time>
      </trkpt>
      <trkpt lat="47.09874" lon="-1.80983">
        <ele>11.17</ele>
        <time>2020-06-06T08:06:37Z</time>
      </trkpt>
      <trkpt lat="47.0986" lon="-1.80984">
        <ele>12.16</ele>
        <time>2020-06-06T08:06:39Z</time>
      </trkpt>
      <trkpt lat="47.09847" lon="-1.80984">
        <ele>12.99</ele>
        <time>2020-06-06T08:06:41Z</time>
      </trkpt>
      <trkpt lat="47.09835" lon="-1.80985">
        <ele>12.95</ele>
        <time>2020-06-06T08:06:43Z</time>
      </trkpt>
      <trkpt lat="47.09823" lon="-1.80986">
        <ele>13.11</ele>
        <time>2020-06-06T08:06:45Z</time>
      </trkpt>
      <trkpt lat="47.09811" lon="-1.80987">
        <ele>13.49</ele>
        <time>2020-06-06T08:06:47Z</time>
      </trkpt>
      <trkpt lat="47.09799" lon="-1.80989">
        <ele>13.91</ele>
        <time>2020-06-06T08:06:49Z</time>
      </trkpt>
      <trkpt lat="47.09788" lon="-1.80988">
        <ele>13.85</ele>
        <time>2020-06-06T08:06:51Z</time>
      </trkpt>
      <trkpt lat="47.09775" lon="-1.80987">
        <ele>14.65</ele>
        <time>2020-06-06T08:06:53Z</time>
      </trkpt>
      <trkpt lat="47.09762" lon="-1.80986">
        <ele>14.69</ele>
        <time>2020-06-06T08:06:55Z</time>
      </trkpt>
      <trkpt lat="47.09749" lon="-1.8098">
        <ele>14.91</ele>
        <time>2020-06-06T08:06:57Z</time>
      </trkpt>
      <trkpt lat="47.09735" lon="-1.80974">
        <ele>14.52</ele>
        <time>2020-06-06T08:06:59Z</time>
      </trkpt>
      <trkpt lat="47.0972" lon="-1.80972">
        <ele>14.38</ele>
        <time>2020-06-06T08:07:01Z</time>
      </trkpt>
      <trkpt lat="47.09704" lon="-1.80972">
        <ele>14.41</ele>
        <time>2020-06-06T08:07:03Z</time>
      </trkpt>
      <trkpt lat="47.0969" lon="-1.80969">
        <ele>13.57</ele>
        <time>2020-06-06T08:07:05Z</time>
      </trkpt>
      <trkpt lat="47.09675" lon="-1.80966">
        <ele>13.51</ele>
        <time>2020-06-06T08:07:07Z</time>
      </trkpt>
      <trkpt lat="47.09661" lon="-1.80962">
        <ele>13.81</ele>
        <time>2020-06-06T08:07:09Z</time>
      </trkpt>
      <trkpt lat="47.09646" lon="-1.80959">
        <ele>13.31</ele>
        <time>2020-06-06T08:07:11Z</time>
      </trkpt>
      <trkpt lat="47.09631" lon="-1.80955">
        <ele>12.33</ele>
        <time>2020-06-06T08:07:13Z</time>
      </trkpt>
      <trkpt lat="47.09614" lon="-1.80951">
        <ele>11.65</ele>
        <time>2020-06-06T08:07:15Z</time>
      </trkpt>
      <trkpt lat="47.09598" lon="-1.80948">
        <ele>11.97</ele>
        <time>2020-06-06T08:07:17Z</time>
      </trkpt>
      <trkpt lat="47.09583" lon="-1.80943">
        <ele>12.35</ele>
        <time>2020-06-06T08:07:19Z</time>
      </trkpt>
      <trkpt lat="47.09567" lon="-1.80939">
        <ele>12.06</ele>
        <time>2020-06-06T08:07:21Z</time>
      </trkpt>
      <trkpt lat="47.0955" lon="-1.80935">
        <ele>11.77</ele>
        <time>2020-06-06T08:07:23Z</time>
      </trkpt>
      <trkpt lat="47.09534" lon="-1.80931">
        <ele>11.33</ele>
        <time>2020-06-06T08:07:25Z</time>
      </trkpt>
      <trkpt lat="47.0952" lon="-1.80928">
        <ele>11.28</ele>
        <time>2020-06-06T08:07:27Z</time>
      </trkpt>
      <trkpt lat="47.09505" lon="-1.80925">
        <ele>10.96</ele>
        <time>2020-06-06T08:07:29Z</time>
      </trkpt>
      <trkpt lat="47.09488" lon="-1.80924">
        <ele>10.04</ele>
        <time>2020-06-06T08:07:31Z</time>
      </trkpt>
      <trkpt lat="47.09474" lon="-1.8093">
        <ele>9.35</ele>
        <time>2020-06-06T08:07:33Z</time>
      </trkpt>
      <trkpt lat="47.0946" lon="-1.80935">
        <ele>9.25</ele>
        <time>2020-06-06T08:07:35Z</time>
      </trkpt>
      <trkpt lat="47.09447" lon="-1.80943">
        <ele>9.64</ele>
        <time>2020-06-06T08:07:37Z</time>
      </trkpt>
      <trkpt lat="47.09434" lon="-1.8095">
        <ele>10.13</ele>
        <time>2020-06-06T08:07:39Z</time>
      </trkpt>
      <trkpt lat="47.09421" lon="-1.80959">
        <ele>9.89</ele>
        <time>2020-06-06T08:07:41Z</time>
      </trkpt>
      <trkpt lat="47.0941" lon="-1.80966">
        <ele>8.48</ele>
        <time>2020-06-06T08:07:43Z</time>
      </trkpt>
      <trkpt lat="47.09398" lon="-1.80974">
        <ele>7.68</ele>
        <time>2020-06-06T08:07:45Z</time>
      </trkpt>
      <trkpt lat="47.09384" lon="-1.80982">
        <ele>7.48</ele>
        <time>2020-06-06T08:07:47Z</time>
      </trkpt>
      <trkpt lat="47.0937" lon="-1.8099">
        <ele>7.05</ele>
        <time>2020-06-06T08:07:49Z</time>
      </trkpt>
      <trkpt lat="47.09355" lon="-1.80998">
        <ele>6.23</ele>
        <time>2020-06-06T08:07:51Z</time>
      </trkpt>
      <trkpt lat="47.09341" lon="-1.81006">
        <ele>6.03</ele>
        <time>2020-06-06T08:07:53Z</time>
      </trkpt>
      <trkpt lat="47.09328" lon="-1.81014">
        <ele>6.48</ele>
        <time>2020-06-06T08:07:55Z</time>
      </trkpt>
      <trkpt lat="47.09313" lon="-1.81022">
        <ele>6.96</ele>
        <time>2020-06-06T08:07:57Z</time>
      </trkpt>
      <trkpt lat="47.09302" lon="-1.8103">
        <ele>7.32</ele>
        <time>2020-06-06T08:07:59Z</time>
      </trkpt>
      <trkpt lat="47.09287" lon="-1.8104">
        <ele>6.86</ele>
        <time>2020-06-06T08:08:01Z</time>
      </trkpt>
      <trkpt lat="47.09275" lon="-1.81048">
        <ele>6.8</ele>
        <time>2020-06-06T08:08:03Z</time>
      </trkpt>
      <trkpt lat="47.09262" lon="-1.81056">
        <ele>6.03</ele>
        <time>2020-06-06T08:08:05Z</time>
      </trkpt>
      <trkpt lat="47.09251" lon="-1.81063">
        <ele>5.61</ele>
        <time>2020-06-06T08:08:07Z</time>
      </trkpt>
      <trkpt lat="47.09238" lon="-1.81071">
        <ele>6.14</ele>
        <time>2020-06-06T08:08:09Z</time>
      </trkpt>
      <trkpt lat="47.09229" lon="-1.81084">
        <ele>6.31</ele>
        <time>2020-06-06T08:08:12Z</time>
      </trkpt>
      <trkpt lat="47.09221" lon="-1.81091">
        <ele>6.38</ele>
        <time>2020-06-06T08:08:17Z</time>
      </trkpt>
      <trkpt lat="47.09208" lon="-1.8108">
        <ele>6.33</ele>
        <time>2020-06-06T08:08:19Z</time>
      </trkpt>
      <trkpt lat="47.09196" lon="-1.8107">
        <ele>6.41</ele>
        <time>2020-06-06T08:08:21Z</time>
      </trkpt>
      <trkpt lat="47.09185" lon="-1.81061">
        <ele>6.46</ele>
        <time>2020-06-06T08:08:23Z</time>
      </trkpt>
      <trkpt lat="47.09174" lon="-1.81051">
        <ele>6.39</ele>
        <time>2020-06-06T08:08:25Z</time>
      </trkpt>
      <trkpt lat="47.09163" lon="-1.81055">
        <ele>7.02</ele>
        <time>2020-06-06T08:08:27Z</time>
      </trkpt>
      <trkpt lat="47.09154" lon="-1.81074">
        <ele>7.13</ele>
        <time>2020-06-06T08:08:29Z</time>
      </trkpt>
      <trkpt lat="47.09145" lon="-1.81093">
        <ele>7.81</ele>
        <time>2020-06-06T08:08:31Z</time>
      </trkpt>
      <trkpt lat="47.09133" lon="-1.81106">
        <ele>7.7</ele>
        <time>2020-06-06T08:08:33Z</time>
      </trkpt>
      <trkpt lat="47.09121" lon="-1.81113">
        <ele>6.81</ele>
        <time>2020-06-06T08:08:35Z</time>
      </trkpt>
      <trkpt lat="47.09107" lon="-1.81117">
        <ele>6.17</ele>
        <time>2020-06-06T08:08:37Z</time>
      </trkpt>
      <trkpt lat="47.09092" lon="-1.8112">
        <ele>5.95</ele>
        <time>2020-06-06T08:08:39Z</time>
      </trkpt>
      <trkpt lat="47.09078" lon="-1.81121">
        <ele>6.61</ele>
        <time>2020-06-06T08:08:41Z</time>
      </trkpt>
      <trkpt lat="47.09066" lon="-1.81129">
        <ele>6.75</ele>
        <time>2020-06-06T08:08:43Z</time>
      </trkpt>
      <trkpt lat="47.09055" lon="-1.81143">
        <ele>6.82</ele>
        <time>2020-06-06T08:08:45Z</time>
      </trkpt>
      <trkpt lat="47.09047" lon="-1.81157">
        <ele>7.33</ele>
        <time>2020-06-06T08:08:47Z</time>
      </trkpt>
      <trkpt lat="47.09041" lon="-1.81173">
        <ele>7.04</ele>
        <time>2020-06-06T08:08:49Z</time>
      </trkpt>
      <trkpt lat="47.09036" lon="-1.81188">
        <ele>7.7</ele>
        <time>2020-06-06T08:08:51Z</time>
      </trkpt>
      <trkpt lat="47.09033" lon="-1.81205">
        <ele>8.15</ele>
        <time>2020-06-06T08:08:53Z</time>
      </trkpt>
      <trkpt lat="47.09028" lon="-1.81221">
        <ele>7.75</ele>
        <time>2020-06-06T08:08:55Z</time>
      </trkpt>
      <trkpt lat="47.09023" lon="-1.81236">
        <ele>8.33</ele>
        <time>2020-06-06T08:08:57Z</time>
      </trkpt>
      <trkpt lat="47.09017" lon="-1.81252">
        <ele>8.67</ele>
        <time>2020-06-06T08:08:59Z</time>
      </trkpt>
      <trkpt lat="47.09011" lon="-1.81266">
        <ele>8.09</ele>
        <time>2020-06-06T08:09:01Z</time>
      </trkpt>
      <trkpt lat="47.09004" lon="-1.81279">
        <ele>7.42</ele>
        <time>2020-06-06T08:09:03Z</time>
      </trkpt>
      <trkpt lat="47.08996" lon="-1.8129">
        <ele>7.08</ele>
        <time>2020-06-06T08:09:05Z</time>
      </trkpt>
      <trkpt lat="47.08986" lon="-1.81301">
        <ele>6.86</ele>
        <time>2020-06-06T08:09:07Z</time>
      </trkpt>
      <trkpt lat="47.08977" lon="-1.81312">
        <ele>7.07</ele>
        <time>2020-06-06T08:09:09Z</time>
      </trkpt>
      <trkpt lat="47.08967" lon="-1.81324">
        <ele>7.57</ele>
        <time>2020-06-06T08:09:11Z</time>
      </trkpt>
      <trkpt lat="47.08958" lon="-1.81336">
        <ele>7.54</ele>
        <time>2020-06-06T08:09:13Z</time>
      </trkpt>
      <trkpt lat="47.08949" lon="-1.81348">
        <ele>7.48</ele>
        <time>2020-06-06T08:09:15Z</time>
      </trkpt>
      <trkpt lat="47.08941" lon="-1.81358">
        <ele>7.42</ele>
        <time>2020-06-06T08:09:17Z</time>
      </trkpt>
      <trkpt lat="47.0893" lon="-1.81369">
        <ele>8.04</ele>
        <time>2020-06-06T08:09:19Z</time>
      </trkpt>
      <trkpt lat="47.0892" lon="-1.81379">
        <ele>9.46</ele>
        <time>2020-06-06T08:09:21Z</time>
      </trkpt>
      <trkpt lat="47.0891" lon="-1.8139">
        <ele>9.69</ele>
        <time>2020-06-06T08:09:23Z</time>
      </trkpt>
      <trkpt lat="47.08899" lon="-1.81401">
        <ele>9.46</ele>
        <time>2020-06-06T08:09:25Z</time>
      </trkpt>
      <trkpt lat="47.0889" lon="-1.81411">
        <ele>8.79</ele>
        <time>2020-06-06T08:09:27Z</time>
      </trkpt>
      <trkpt lat="47.08882" lon="-1.81422">
        <ele>8.55</ele>
        <time>2020-06-06T08:09:29Z</time>
      </trkpt>
      <trkpt lat="47.08874" lon="-1.81433">
        <ele>8.66</ele>
        <time>2020-06-06T08:09:31Z</time>
      </trkpt>
      <trkpt lat="47.08864" lon="-1.81444">
        <ele>8.92</ele>
        <time>2020-06-06T08:09:33Z</time>
      </trkpt>
      <trkpt lat="47.08854" lon="-1.81455">
        <ele>8.64</ele>
        <time>2020-06-06T08:09:35Z</time>
      </trkpt>
      <trkpt lat="47.08844" lon="-1.81465">
        <ele>8.87</ele>
        <time>2020-06-06T08:09:37Z</time>
      </trkpt>
      <trkpt lat="47.08835" lon="-1.81474">
        <ele>8.91</ele>
        <time>2020-06-06T08:09:39Z</time>
      </trkpt>
      <trkpt lat="47.08824" lon="-1.81483">
        <ele>9.09</ele>
        <time>2020-06-06T08:09:41Z</time>
      </trkpt>
      <trkpt lat="47.08815" lon="-1.8149">
        <ele>9.4</ele>
        <time>2020-06-06T08:09:43Z</time>
      </trkpt>
      <trkpt lat="47.08805" lon="-1.81497">
        <ele>9.96</ele>
        <time>2020-06-06T08:09:45Z</time>
      </trkpt>
      <trkpt lat="47.08795" lon="-1.81506">
        <ele>10.04</ele>
        <time>2020-06-06T08:09:47Z</time>
      </trkpt>
      <trkpt lat="47.08785" lon="-1.81515">
        <ele>9.5</ele>
        <time>2020-06-06T08:09:49Z</time>
      </trkpt>
      <trkpt lat="47.08775" lon="-1.81523">
        <ele>9.41</ele>
        <time>2020-06-06T08:09:51Z</time>
      </trkpt>
      <trkpt lat="47.08765" lon="-1.81533">
        <ele>9.46</ele>
        <time>2020-06-06T08:09:53Z</time>
      </trkpt>
      <trkpt lat="47.08755" lon="-1.81542">
        <ele>9.87</ele>
        <time>2020-06-06T08:09:55Z</time>
      </trkpt>
      <trkpt lat="47.08747" lon="-1.8155">
        <ele>11.06</ele>
        <time>2020-06-06T08:09:57Z</time>
      </trkpt>
      <trkpt lat="47.08738" lon="-1.81559">
        <ele>12.06</ele>
        <time>2020-06-06T08:09:59Z</time>
      </trkpt>
      <trkpt lat="47.08729" lon="-1.81571">
        <ele>13.18</ele>
        <time>2020-06-06T08:10:01Z</time>
      </trkpt>
      <trkpt lat="47.08721" lon="-1.81586">
        <ele>14.22</ele>
        <time>2020-06-06T08:10:03Z</time>
      </trkpt>
      <trkpt lat="47.08716" lon="-1.81599">
        <ele>15.01</ele>
        <time>2020-06-06T08:10:05Z</time>
      </trkpt>
      <trkpt lat="47.08711" lon="-1.81615">
        <ele>14.17</ele>
        <time>2020-06-06T08:10:07Z</time>
      </trkpt>
      <trkpt lat="47.08706" lon="-1.81629">
        <ele>14.22</ele>
        <time>2020-06-06T08:10:09Z</time>
      </trkpt>
      <trkpt lat="47.08702" lon="-1.81644">
        <ele>14.81</ele>
        <time>2020-06-06T08:10:11Z</time>
      </trkpt>
      <trkpt lat="47.08696" lon="-1.81661">
        <ele>14.91</ele>
        <time>2020-06-06T08:10:13Z</time>
      </trkpt>
      <trkpt lat="47.0869" lon="-1.81676">
        <ele>15.36</ele>
        <time>2020-06-06T08:10:15Z</time>
      </trkpt>
      <trkpt lat="47.08681" lon="-1.81687">
        <ele>15.32</ele>
        <time>2020-06-06T08:10:17Z</time>
      </trkpt>
      <trkpt lat="47.08673" lon="-1.81692">
        <ele>15.77</ele>
        <time>2020-06-06T08:10:19Z</time>
      </trkpt>
      <trkpt lat="47.0866" lon="-1.81698">
        <ele>15.3</ele>
        <time>2020-06-06T08:10:21Z</time>
      </trkpt>
      <trkpt lat="47.08649" lon="-1.81699">
        <ele>14.58</ele>
        <time>2020-06-06T08:10:23Z</time>
      </trkpt>
      <trkpt lat="47.08636" lon="-1.81697">
        <ele>16.05</ele>
        <time>2020-06-06T08:10:25Z</time>
      </trkpt>
      <trkpt lat="47.08623" lon="-1.81694">
        <ele>17.2</ele>
        <time>2020-06-06T08:10:27Z</time>
      </trkpt>
      <trkpt lat="47.08612" lon="-1.81691">
        <ele>18.21</ele>
        <time>2020-06-06T08:10:29Z</time>
      </trkpt>
      <trkpt lat="47.08601" lon="-1.81688">
        <ele>18.19</ele>
        <time>2020-06-06T08:10:31Z</time>
      </trkpt>
      <trkpt lat="47.08589" lon="-1.81684">
        <ele>18.19</ele>
        <time>2020-06-06T08:10:33Z</time>
      </trkpt>
      <trkpt lat="47.08578" lon="-1.81679">
        <ele>18.49</ele>
        <time>2020-06-06T08:10:35Z</time>
      </trkpt>
      <trkpt lat="47.08566" lon="-1.81676">
        <ele>17.86</ele>
        <time>2020-06-06T08:10:37Z</time>
      </trkpt>
      <trkpt lat="47.08555" lon="-1.81671">
        <ele>18.33</ele>
        <time>2020-06-06T08:10:39Z</time>
      </trkpt>
      <trkpt lat="47.08542" lon="-1.81668">
        <ele>18.77</ele>
        <time>2020-06-06T08:10:41Z</time>
      </trkpt>
      <trkpt lat="47.08529" lon="-1.81665">
        <ele>19.06</ele>
        <time>2020-06-06T08:10:43Z</time>
      </trkpt>
      <trkpt lat="47.08516" lon="-1.81662">
        <ele>19.56</ele>
        <time>2020-06-06T08:10:45Z</time>
      </trkpt>
      <trkpt lat="47.08505" lon="-1.8166">
        <ele>19.93</ele>
        <time>2020-06-06T08:10:47Z</time>
      </trkpt>
      <trkpt lat="47.08493" lon="-1.81658">
        <ele>20.18</ele>
        <time>2020-06-06T08:10:49Z</time>
      </trkpt>
      <trkpt lat="47.0848" lon="-1.81657">
        <ele>19.84</ele>
        <time>2020-06-06T08:10:51Z</time>
      </trkpt>
      <trkpt lat="47.08467" lon="-1.81655">
        <ele>20.49</ele>
        <time>2020-06-06T08:10:53Z</time>
      </trkpt>
      <trkpt lat="47.08455" lon="-1.81655">
        <ele>20.45</ele>
        <time>2020-06-06T08:10:55Z</time>
      </trkpt>
      <trkpt lat="47.08444" lon="-1.81653">
        <ele>20.06</ele>
        <time>2020-06-06T08:10:57Z</time>
      </trkpt>
      <trkpt lat="47.08432" lon="-1.8165">
        <ele>20.11</ele>
        <time>2020-06-06T08:10:59Z</time>
      </trkpt>
      <trkpt lat="47.0842" lon="-1.81649">
        <ele>20.58</ele>
        <time>2020-06-06T08:11:01Z</time>
      </trkpt>
      <trkpt lat="47.08408" lon="-1.81648">
        <ele>19.46</ele>
        <time>2020-06-06T08:11:03Z</time>
      </trkpt>
      <trkpt lat="47.08395" lon="-1.81646">
        <ele>19.11</ele>
        <time>2020-06-06T08:11:05Z</time>
      </trkpt>
      <trkpt lat="47.08384" lon="-1.81644">
        <ele>18.65</ele>
        <time>2020-06-06T08:11:07Z</time>
      </trkpt>
      <trkpt lat="47.08371" lon="-1.81642">
        <ele>19.24</ele>
        <time>2020-06-06T08:11:09Z</time>
      </trkpt>
      <trkpt lat="47.08359" lon="-1.8164">
        <ele>19.69</ele>
        <time>2020-06-06T08:11:11Z</time>
      </trkpt>
      <trkpt lat="47.08345" lon="-1.81639">
        <ele>19.72</ele>
        <time>2020-06-06T08:11:13Z</time>
      </trkpt>
      <trkpt lat="47.08333" lon="-1.81638">
        <ele>18.8</ele>
        <time>2020-06-06T08:11:15Z</time>
      </trkpt>
      <trkpt lat="47.08322" lon="-1.81636">
        <ele>17.97</ele>
        <time>2020-06-06T08:11:17Z</time>
      </trkpt>
      <trkpt lat="47.0831" lon="-1.81634">
        <ele>18.04</ele>
        <time>2020-06-06T08:11:19Z</time>
      </trkpt>
      <trkpt lat="47.08301" lon="-1.81633">
        <ele>18.46</ele>
        <time>2020-06-06T08:11:21Z</time>
      </trkpt>
      <trkpt lat="47.08288" lon="-1.81633">
        <ele>19.09</ele>
        <time>2020-06-06T08:11:23Z</time>
      </trkpt>
      <trkpt lat="47.08277" lon="-1.81633">
        <ele>20.4</ele>
        <time>2020-06-06T08:11:25Z</time>
      </trkpt>
      <trkpt lat="47.08265" lon="-1.81634">
        <ele>20.6</ele>
        <time>2020-06-06T08:11:27Z</time>
      </trkpt>
      <trkpt lat="47.08252" lon="-1.81633">
        <ele>19.18</ele>
        <time>2020-06-06T08:11:29Z</time>
      </trkpt>
      <trkpt lat="47.08239" lon="-1.81632">
        <ele>17.36</ele>
        <time>2020-06-06T08:11:31Z</time>
      </trkpt>
      <trkpt lat="47.08226" lon="-1.81632">
        <ele>17.92</ele>
        <time>2020-06-06T08:11:33Z</time>
      </trkpt>
      <trkpt lat="47.08211" lon="-1.81631">
        <ele>18.62</ele>
        <time>2020-06-06T08:11:35Z</time>
      </trkpt>
      <trkpt lat="47.08197" lon="-1.81629">
        <ele>19.38</ele>
        <time>2020-06-06T08:11:37Z</time>
      </trkpt>
      <trkpt lat="47.08183" lon="-1.81628">
        <ele>19.59</ele>
        <time>2020-06-06T08:11:39Z</time>
      </trkpt>
      <trkpt lat="47.0817" lon="-1.81627">
        <ele>20.37</ele>
        <time>2020-06-06T08:11:41Z</time>
      </trkpt>
      <trkpt lat="47.08156" lon="-1.81626">
        <ele>20.64</ele>
        <time>2020-06-06T08:11:43Z</time>
      </trkpt>
      <trkpt lat="47.08142" lon="-1.81626">
        <ele>20.06</ele>
        <time>2020-06-06T08:11:45Z</time>
      </trkpt>
      <trkpt lat="47.0813" lon="-1.81625">
        <ele>19.66</ele>
        <time>2020-06-06T08:11:47Z</time>
      </trkpt>
      <trkpt lat="47.08116" lon="-1.81624">
        <ele>18.85</ele>
        <time>2020-06-06T08:11:49Z</time>
      </trkpt>
      <trkpt lat="47.08102" lon="-1.81621">
        <ele>18.62</ele>
        <time>2020-06-06T08:11:51Z</time>
      </trkpt>
      <trkpt lat="47.08089" lon="-1.81618">
        <ele>18.61</ele>
        <time>2020-06-06T08:11:53Z</time>
      </trkpt>
      <trkpt lat="47.08076" lon="-1.81613">
        <ele>19.46</ele>
        <time>2020-06-06T08:11:55Z</time>
      </trkpt>
      <trkpt lat="47.08062" lon="-1.81607">
        <ele>20.54</ele>
        <time>2020-06-06T08:11:57Z</time>
      </trkpt>
      <trkpt lat="47.08049" lon="-1.816">
        <ele>20.2</ele>
        <time>2020-06-06T08:11:59Z</time>
      </trkpt>
      <trkpt lat="47.08036" lon="-1.81592">
        <ele>20.16</ele>
        <time>2020-06-06T08:12:01Z</time>
      </trkpt>
      <trkpt lat="47.08024" lon="-1.81584">
        <ele>19.68</ele>
        <time>2020-06-06T08:12:03Z</time>
      </trkpt>
      <trkpt lat="47.0801" lon="-1.81576">
        <ele>19.06</ele>
        <time>2020-06-06T08:12:05Z</time>
      </trkpt>
      <trkpt lat="47.07999" lon="-1.81571">
        <ele>19.58</ele>
        <time>2020-06-06T08:12:07Z</time>
      </trkpt>
      <trkpt lat="47.07985" lon="-1.81565">
        <ele>20.33</ele>
        <time>2020-06-06T08:12:09Z</time>
      </trkpt>
      <trkpt lat="47.07972" lon="-1.8156">
        <ele>19.72</ele>
        <time>2020-06-06T08:12:11Z</time>
      </trkpt>
      <trkpt lat="47.07958" lon="-1.81556">
        <ele>19.54</ele>
        <time>2020-06-06T08:12:13Z</time>
      </trkpt>
      <trkpt lat="47.07944" lon="-1.81555">
        <ele>19.73</ele>
        <time>2020-06-06T08:12:15Z</time>
      </trkpt>
      <trkpt lat="47.0793" lon="-1.81556">
        <ele>20.8</ele>
        <time>2020-06-06T08:12:17Z</time>
      </trkpt>
      <trkpt lat="47.07916" lon="-1.81558">
        <ele>20.37</ele>
        <time>2020-06-06T08:12:19Z</time>
      </trkpt>
      <trkpt lat="47.07902" lon="-1.8156">
        <ele>19.73</ele>
        <time>2020-06-06T08:12:21Z</time>
      </trkpt>
      <trkpt lat="47.07888" lon="-1.81561">
        <ele>19.32</ele>
        <time>2020-06-06T08:12:23Z</time>
      </trkpt>
      <trkpt lat="47.07875" lon="-1.81562">
        <ele>19.08</ele>
        <time>2020-06-06T08:12:25Z</time>
      </trkpt>
      <trkpt lat="47.07861" lon="-1.81562">
        <ele>19.19</ele>
        <time>2020-06-06T08:12:27Z</time>
      </trkpt>
      <trkpt lat="47.07848" lon="-1.81562">
        <ele>19.78</ele>
        <time>2020-06-06T08:12:30Z</time>
      </trkpt>
      <trkpt lat="47.07836" lon="-1.8156">
        <ele>20.82</ele>
        <time>2020-06-06T08:12:31Z</time>
      </trkpt>
      <trkpt lat="47.07822" lon="-1.81557">
        <ele>20.87</ele>
        <time>2020-06-06T08:12:33Z</time>
      </trkpt>
      <trkpt lat="47.0781" lon="-1.81554">
        <ele>20.15</ele>
        <time>2020-06-06T08:12:36Z</time>
      </trkpt>
      <trkpt lat="47.07796" lon="-1.81552">
        <ele>19.89</ele>
        <time>2020-06-06T08:12:38Z</time>
      </trkpt>
      <trkpt lat="47.07784" lon="-1.8155">
        <ele>19.47</ele>
        <time>2020-06-06T08:12:40Z</time>
      </trkpt>
      <trkpt lat="47.0777" lon="-1.81548">
        <ele>18.76</ele>
        <time>2020-06-06T08:12:42Z</time>
      </trkpt>
      <trkpt lat="47.07755" lon="-1.81547">
        <ele>18.74</ele>
        <time>2020-06-06T08:12:44Z</time>
      </trkpt>
      <trkpt lat="47.07744" lon="-1.81547">
        <ele>19.08</ele>
        <time>2020-06-06T08:12:46Z</time>
      </trkpt>
      <trkpt lat="47.07732" lon="-1.81547">
        <ele>18.45</ele>
        <time>2020-06-06T08:12:48Z</time>
      </trkpt>
      <trkpt lat="47.0772" lon="-1.81547">
        <ele>18.48</ele>
        <time>2020-06-06T08:12:50Z</time>
      </trkpt>
      <trkpt lat="47.07707" lon="-1.81546">
        <ele>19.01</ele>
        <time>2020-06-06T08:12:52Z</time>
      </trkpt>
      <trkpt lat="47.07694" lon="-1.81545">
        <ele>19</ele>
        <time>2020-06-06T08:12:54Z</time>
      </trkpt>
      <trkpt lat="47.07679" lon="-1.81545">
        <ele>18.55</ele>
        <time>2020-06-06T08:12:56Z</time>
      </trkpt>
      <trkpt lat="47.07667" lon="-1.81543">
        <ele>18.82</ele>
        <time>2020-06-06T08:12:58Z</time>
      </trkpt>
      <trkpt lat="47.07653" lon="-1.81541">
        <ele>19.57</ele>
        <time>2020-06-06T08:13:00Z</time>
      </trkpt>
      <trkpt lat="47.0764" lon="-1.81537">
        <ele>20.28</ele>
        <time>2020-06-06T08:13:02Z</time>
      </trkpt>
      <trkpt lat="47.07627" lon="-1.8153">
        <ele>20.7</ele>
        <time>2020-06-06T08:13:04Z</time>
      </trkpt>
      <trkpt lat="47.07615" lon="-1.8152">
        <ele>21.46</ele>
        <time>2020-06-06T08:13:06Z</time>
      </trkpt>
      <trkpt lat="47.07604" lon="-1.8151">
        <ele>22.17</ele>
        <time>2020-06-06T08:13:08Z</time>
      </trkpt>
      <trkpt lat="47.07594" lon="-1.81499">
        <ele>22.28</ele>
        <time>2020-06-06T08:13:10Z</time>
      </trkpt>
      <trkpt lat="47.07584" lon="-1.81488">
        <ele>22.41</ele>
        <time>2020-06-06T08:13:12Z</time>
      </trkpt>
      <trkpt lat="47.07572" lon="-1.81475">
        <ele>22.04</ele>
        <time>2020-06-06T08:13:14Z</time>
      </trkpt>
      <trkpt lat="47.07563" lon="-1.81465">
        <ele>21.4</ele>
        <time>2020-06-06T08:13:16Z</time>
      </trkpt>
      <trkpt lat="47.07552" lon="-1.81454">
        <ele>21.27</ele>
        <time>2020-06-06T08:13:18Z</time>
      </trkpt>
      <trkpt lat="47.07541" lon="-1.81444">
        <ele>21.34</ele>
        <time>2020-06-06T08:13:20Z</time>
      </trkpt>
      <trkpt lat="47.07529" lon="-1.8144">
        <ele>20.7</ele>
        <time>2020-06-06T08:13:22Z</time>
      </trkpt>
      <trkpt lat="47.07515" lon="-1.81439">
        <ele>20.52</ele>
        <time>2020-06-06T08:13:24Z</time>
      </trkpt>
      <trkpt lat="47.07504" lon="-1.81446">
        <ele>20.53</ele>
        <time>2020-06-06T08:13:26Z</time>
      </trkpt>
      <trkpt lat="47.07494" lon="-1.81453">
        <ele>20.68</ele>
        <time>2020-06-06T08:13:28Z</time>
      </trkpt>
      <trkpt lat="47.07481" lon="-1.81461">
        <ele>20.44</ele>
        <time>2020-06-06T08:13:30Z</time>
      </trkpt>
      <trkpt lat="47.07467" lon="-1.8147">
        <ele>21.47</ele>
        <time>2020-06-06T08:13:32Z</time>
      </trkpt>
      <trkpt lat="47.07456" lon="-1.81476">
        <ele>22.3</ele>
        <time>2020-06-06T08:13:34Z</time>
      </trkpt>
      <trkpt lat="47.07441" lon="-1.81482">
        <ele>23.22</ele>
        <time>2020-06-06T08:13:36Z</time>
      </trkpt>
      <trkpt lat="47.07429" lon="-1.81484">
        <ele>23.57</ele>
        <time>2020-06-06T08:13:38Z</time>
      </trkpt>
      <trkpt lat="47.07413" lon="-1.81486">
        <ele>24.59</ele>
        <time>2020-06-06T08:13:40Z</time>
      </trkpt>
      <trkpt lat="47.074" lon="-1.81487">
        <ele>24.48</ele>
        <time>2020-06-06T08:13:42Z</time>
      </trkpt>
      <trkpt lat="47.07386" lon="-1.81487">
        <ele>24.53</ele>
        <time>2020-06-06T08:13:44Z</time>
      </trkpt>
      <trkpt lat="47.07373" lon="-1.81486">
        <ele>24.21</ele>
        <time>2020-06-06T08:13:46Z</time>
      </trkpt>
      <trkpt lat="47.07358" lon="-1.81483">
        <ele>23.61</ele>
        <time>2020-06-06T08:13:48Z</time>
      </trkpt>
      <trkpt lat="47.07345" lon="-1.81478">
        <ele>23.68</ele>
        <time>2020-06-06T08:13:50Z</time>
      </trkpt>
      <trkpt lat="47.07332" lon="-1.81472">
        <ele>23.8</ele>
        <time>2020-06-06T08:13:52Z</time>
      </trkpt>
      <trkpt lat="47.07321" lon="-1.81466">
        <ele>23.76</ele>
        <time>2020-06-06T08:13:54Z</time>
      </trkpt>
      <trkpt lat="47.07309" lon="-1.81459">
        <ele>23.47</ele>
        <time>2020-06-06T08:13:56Z</time>
      </trkpt>
      <trkpt lat="47.07296" lon="-1.81451">
        <ele>23.41</ele>
        <time>2020-06-06T08:13:58Z</time>
      </trkpt>
      <trkpt lat="47.07284" lon="-1.81443">
        <ele>23.19</ele>
        <time>2020-06-06T08:14:00Z</time>
      </trkpt>
      <trkpt lat="47.07274" lon="-1.81433">
        <ele>22.85</ele>
        <time>2020-06-06T08:14:02Z</time>
      </trkpt>
      <trkpt lat="47.07261" lon="-1.81421">
        <ele>22.29</ele>
        <time>2020-06-06T08:14:04Z</time>
      </trkpt>
      <trkpt lat="47.0725" lon="-1.81411">
        <ele>22.19</ele>
        <time>2020-06-06T08:14:06Z</time>
      </trkpt>
      <trkpt lat="47.07239" lon="-1.81399">
        <ele>21.89</ele>
        <time>2020-06-06T08:14:08Z</time>
      </trkpt>
      <trkpt lat="47.07228" lon="-1.81388">
        <ele>21.84</ele>
        <time>2020-06-06T08:14:10Z</time>
      </trkpt>
      <trkpt lat="47.07217" lon="-1.81376">
        <ele>22.06</ele>
        <time>2020-06-06T08:14:12Z</time>
      </trkpt>
      <trkpt lat="47.07205" lon="-1.81365">
        <ele>22.43</ele>
        <time>2020-06-06T08:14:14Z</time>
      </trkpt>
      <trkpt lat="47.07196" lon="-1.81355">
        <ele>23.65</ele>
        <time>2020-06-06T08:14:16Z</time>
      </trkpt>
      <trkpt lat="47.07185" lon="-1.81346">
        <ele>23.62</ele>
        <time>2020-06-06T08:14:18Z</time>
      </trkpt>
      <trkpt lat="47.07172" lon="-1.81343">
        <ele>23.09</ele>
        <time>2020-06-06T08:14:20Z</time>
      </trkpt>
      <trkpt lat="47.0716" lon="-1.8135">
        <ele>23.1</ele>
        <time>2020-06-06T08:14:22Z</time>
      </trkpt>
      <trkpt lat="47.07148" lon="-1.81361">
        <ele>22.89</ele>
        <time>2020-06-06T08:14:24Z</time>
      </trkpt>
      <trkpt lat="47.07139" lon="-1.81371">
        <ele>22.4</ele>
        <time>2020-06-06T08:14:26Z</time>
      </trkpt>
      <trkpt lat="47.07129" lon="-1.81382">
        <ele>22.55</ele>
        <time>2020-06-06T08:14:28Z</time>
      </trkpt>
      <trkpt lat="47.0712" lon="-1.81394">
        <ele>23.18</ele>
        <time>2020-06-06T08:14:30Z</time>
      </trkpt>
      <trkpt lat="47.0711" lon="-1.81406">
        <ele>23.61</ele>
        <time>2020-06-06T08:14:32Z</time>
      </trkpt>
      <trkpt lat="47.07101" lon="-1.81419">
        <ele>23.92</ele>
        <time>2020-06-06T08:14:34Z</time>
      </trkpt>
      <trkpt lat="47.07091" lon="-1.81433">
        <ele>24.31</ele>
        <time>2020-06-06T08:14:36Z</time>
      </trkpt>
      <trkpt lat="47.07082" lon="-1.81448">
        <ele>24.39</ele>
        <time>2020-06-06T08:14:38Z</time>
      </trkpt>
      <trkpt lat="47.07074" lon="-1.8146">
        <ele>24.17</ele>
        <time>2020-06-06T08:14:40Z</time>
      </trkpt>
      <trkpt lat="47.07067" lon="-1.81474">
        <ele>23.6</ele>
        <time>2020-06-06T08:14:42Z</time>
      </trkpt>
      <trkpt lat="47.07059" lon="-1.81486">
        <ele>23.8</ele>
        <time>2020-06-06T08:14:44Z</time>
      </trkpt>
      <trkpt lat="47.07051" lon="-1.81501">
        <ele>24.58</ele>
        <time>2020-06-06T08:14:46Z</time>
      </trkpt>
      <trkpt lat="47.07045" lon="-1.81515">
        <ele>25.43</ele>
        <time>2020-06-06T08:14:48Z</time>
      </trkpt>
      <trkpt lat="47.07039" lon="-1.81529">
        <ele>26.27</ele>
        <time>2020-06-06T08:14:50Z</time>
      </trkpt>
      <trkpt lat="47.07033" lon="-1.81543">
        <ele>26.59</ele>
        <time>2020-06-06T08:14:52Z</time>
      </trkpt>
      <trkpt lat="47.07027" lon="-1.81557">
        <ele>26.56</ele>
        <time>2020-06-06T08:14:54Z</time>
      </trkpt>
      <trkpt lat="47.07021" lon="-1.81575">
        <ele>26.3</ele>
        <time>2020-06-06T08:14:56Z</time>
      </trkpt>
      <trkpt lat="47.07017" lon="-1.81592">
        <ele>26.15</ele>
        <time>2020-06-06T08:14:58Z</time>
      </trkpt>
      <trkpt lat="47.07013" lon="-1.81607">
        <ele>26.27</ele>
        <time>2020-06-06T08:15:00Z</time>
      </trkpt>
      <trkpt lat="47.07009" lon="-1.81621">
        <ele>26.55</ele>
        <time>2020-06-06T08:15:02Z</time>
      </trkpt>
      <trkpt lat="47.07005" lon="-1.81637">
        <ele>26.86</ele>
        <time>2020-06-06T08:15:04Z</time>
      </trkpt>
      <trkpt lat="47.07002" lon="-1.81651">
        <ele>27.23</ele>
        <time>2020-06-06T08:15:06Z</time>
      </trkpt>
      <trkpt lat="47.06998" lon="-1.81667">
        <ele>27.14</ele>
        <time>2020-06-06T08:15:08Z</time>
      </trkpt>
      <trkpt lat="47.06994" lon="-1.81682">
        <ele>26.65</ele>
        <time>2020-06-06T08:15:10Z</time>
      </trkpt>
      <trkpt lat="47.06989" lon="-1.81697">
        <ele>26.54</ele>
        <time>2020-06-06T08:15:12Z</time>
      </trkpt>
      <trkpt lat="47.06984" lon="-1.81711">
        <ele>26.77</ele>
        <time>2020-06-06T08:15:14Z</time>
      </trkpt>
      <trkpt lat="47.0698" lon="-1.81724">
        <ele>26.99</ele>
        <time>2020-06-06T08:15:16Z</time>
      </trkpt>
      <trkpt lat="47.06974" lon="-1.81739">
        <ele>27.24</ele>
        <time>2020-06-06T08:15:18Z</time>
      </trkpt>
      <trkpt lat="47.06969" lon="-1.81751">
        <ele>27.82</ele>
        <time>2020-06-06T08:15:20Z</time>
      </trkpt>
      <trkpt lat="47.06964" lon="-1.81763">
        <ele>27.86</ele>
        <time>2020-06-06T08:15:22Z</time>
      </trkpt>
      <trkpt lat="47.06959" lon="-1.81775">
        <ele>27.68</ele>
        <time>2020-06-06T08:15:24Z</time>
      </trkpt>
      <trkpt lat="47.06954" lon="-1.81787">
        <ele>27.75</ele>
        <time>2020-06-06T08:15:26Z</time>
      </trkpt>
      <trkpt lat="47.06949" lon="-1.818">
        <ele>28.16</ele>
        <time>2020-06-06T08:15:28Z</time>
      </trkpt>
      <trkpt lat="47.06943" lon="-1.81814">
        <ele>28.85</ele>
        <time>2020-06-06T08:15:30Z</time>
      </trkpt>
      <trkpt lat="47.06937" lon="-1.81827">
        <ele>29.15</ele>
        <time>2020-06-06T08:15:32Z</time>
      </trkpt>
      <trkpt lat="47.06932" lon="-1.81841">
        <ele>29.19</ele>
        <time>2020-06-06T08:15:34Z</time>
      </trkpt>
      <trkpt lat="47.06926" lon="-1.81853">
        <ele>28.73</ele>
        <time>2020-06-06T08:15:36Z</time>
      </trkpt>
      <trkpt lat="47.0692" lon="-1.81866">
        <ele>28.21</ele>
        <time>2020-06-06T08:15:38Z</time>
      </trkpt>
      <trkpt lat="47.06913" lon="-1.8188">
        <ele>28.62</ele>
        <time>2020-06-06T08:15:40Z</time>
      </trkpt>
      <trkpt lat="47.06906" lon="-1.81896">
        <ele>29.53</ele>
        <time>2020-06-06T08:15:42Z</time>
      </trkpt>
      <trkpt lat="47.06902" lon="-1.81908">
        <ele>30.68</ele>
        <time>2020-06-06T08:15:44Z</time>
      </trkpt>
      <trkpt lat="47.06894" lon="-1.81926">
        <ele>30.88</ele>
        <time>2020-06-06T08:15:47Z</time>
      </trkpt>
      <trkpt lat="47.0689" lon="-1.81942">
        <ele>31.64</ele>
        <time>2020-06-06T08:15:49Z</time>
      </trkpt>
      <trkpt lat="47.06889" lon="-1.81961">
        <ele>32.73</ele>
        <time>2020-06-06T08:15:51Z</time>
      </trkpt>
      <trkpt lat="47.06889" lon="-1.81977">
        <ele>33.17</ele>
        <time>2020-06-06T08:15:53Z</time>
      </trkpt>
      <trkpt lat="47.06891" lon="-1.81993">
        <ele>32.68</ele>
        <time>2020-06-06T08:15:55Z</time>
      </trkpt>
      <trkpt lat="47.06893" lon="-1.82007">
        <ele>31.45</ele>
        <time>2020-06-06T08:15:57Z</time>
      </trkpt>
      <trkpt lat="47.06895" lon="-1.82022">
        <ele>29.81</ele>
        <time>2020-06-06T08:15:59Z</time>
      </trkpt>
      <trkpt lat="47.06897" lon="-1.82039">
        <ele>29.77</ele>
        <time>2020-06-06T08:16:01Z</time>
      </trkpt>
      <trkpt lat="47.06898" lon="-1.82053">
        <ele>28.97</ele>
        <time>2020-06-06T08:16:03Z</time>
      </trkpt>
      <trkpt lat="47.069" lon="-1.82072">
        <ele>28.99</ele>
        <time>2020-06-06T08:16:05Z</time>
      </trkpt>
      <trkpt lat="47.06901" lon="-1.82089">
        <ele>29.03</ele>
        <time>2020-06-06T08:16:07Z</time>
      </trkpt>
      <trkpt lat="47.06903" lon="-1.82105">
        <ele>29.37</ele>
        <time>2020-06-06T08:16:09Z</time>
      </trkpt>
      <trkpt lat="47.06903" lon="-1.82121">
        <ele>30.12</ele>
        <time>2020-06-06T08:16:11Z</time>
      </trkpt>
      <trkpt lat="47.06903" lon="-1.82141">
        <ele>30.2</ele>
        <time>2020-06-06T08:16:13Z</time>
      </trkpt>
      <trkpt lat="47.06903" lon="-1.82156">
        <ele>28.9</ele>
        <time>2020-06-06T08:16:15Z</time>
      </trkpt>
      <trkpt lat="47.06903" lon="-1.82173">
        <ele>29.05</ele>
        <time>2020-06-06T08:16:17Z</time>
      </trkpt>
      <trkpt lat="47.06903" lon="-1.82188">
        <ele>29.59</ele>
        <time>2020-06-06T08:16:19Z</time>
      </trkpt>
      <trkpt lat="47.06903" lon="-1.82207">
        <ele>30.45</ele>
        <time>2020-06-06T08:16:21Z</time>
      </trkpt>
      <trkpt lat="47.06902" lon="-1.82224">
        <ele>30.49</ele>
        <time>2020-06-06T08:16:23Z</time>
      </trkpt>
      <trkpt lat="47.06902" lon="-1.8224">
        <ele>30.1</ele>
        <time>2020-06-06T08:16:25Z</time>
      </trkpt>
      <trkpt lat="47.06902" lon="-1.82258">
        <ele>29.64</ele>
        <time>2020-06-06T08:16:27Z</time>
      </trkpt>
      <trkpt lat="47.06901" lon="-1.8228">
        <ele>30.17</ele>
        <time>2020-06-06T08:16:30Z</time>
      </trkpt>
      <trkpt lat="47.06901" lon="-1.82296">
        <ele>30.93</ele>
        <time>2020-06-06T08:16:32Z</time>
      </trkpt>
      <trkpt lat="47.06899" lon="-1.82313">
        <ele>31.12</ele>
        <time>2020-06-06T08:16:34Z</time>
      </trkpt>
      <trkpt lat="47.06897" lon="-1.8233">
        <ele>31.76</ele>
        <time>2020-06-06T08:16:36Z</time>
      </trkpt>
      <trkpt lat="47.06895" lon="-1.82349">
        <ele>32.95</ele>
        <time>2020-06-06T08:16:38Z</time>
      </trkpt>
      <trkpt lat="47.06893" lon="-1.82364">
        <ele>33.63</ele>
        <time>2020-06-06T08:16:40Z</time>
      </trkpt>
      <trkpt lat="47.06891" lon="-1.82381">
        <ele>31.84</ele>
        <time>2020-06-06T08:16:42Z</time>
      </trkpt>
      <trkpt lat="47.06889" lon="-1.82398">
        <ele>30.87</ele>
        <time>2020-06-06T08:16:44Z</time>
      </trkpt>
      <trkpt lat="47.06886" lon="-1.82412">
        <ele>30.05</ele>
        <time>2020-06-06T08:16:46Z</time>
      </trkpt>
      <trkpt lat="47.06884" lon="-1.82428">
        <ele>30.08</ele>
        <time>2020-06-06T08:16:48Z</time>
      </trkpt>
      <trkpt lat="47.06882" lon="-1.82445">
        <ele>30.61</ele>
        <time>2020-06-06T08:16:50Z</time>
      </trkpt>
      <trkpt lat="47.0688" lon="-1.82463">
        <ele>31.66</ele>
        <time>2020-06-06T08:16:52Z</time>
      </trkpt>
      <trkpt lat="47.06879" lon="-1.82483">
        <ele>32.89</ele>
        <time>2020-06-06T08:16:54Z</time>
      </trkpt>
      <trkpt lat="47.06879" lon="-1.825">
        <ele>34.49</ele>
        <time>2020-06-06T08:16:56Z</time>
      </trkpt>
      <trkpt lat="47.06881" lon="-1.82515">
        <ele>35.01</ele>
        <time>2020-06-06T08:16:58Z</time>
      </trkpt>
      <trkpt lat="47.06882" lon="-1.82534">
        <ele>33.74</ele>
        <time>2020-06-06T08:17:00Z</time>
      </trkpt>
      <trkpt lat="47.06884" lon="-1.82553">
        <ele>32.82</ele>
        <time>2020-06-06T08:17:02Z</time>
      </trkpt>
      <trkpt lat="47.06886" lon="-1.82574">
        <ele>32.13</ele>
        <time>2020-06-06T08:17:04Z</time>
      </trkpt>
      <trkpt lat="47.06888" lon="-1.82591">
        <ele>32.97</ele>
        <time>2020-06-06T08:17:06Z</time>
      </trkpt>
      <trkpt lat="47.0689" lon="-1.82609">
        <ele>34.01</ele>
        <time>2020-06-06T08:17:08Z</time>
      </trkpt>
      <trkpt lat="47.06892" lon="-1.82627">
        <ele>33.71</ele>
        <time>2020-06-06T08:17:10Z</time>
      </trkpt>
      <trkpt lat="47.06893" lon="-1.82645">
        <ele>33.57</ele>
        <time>2020-06-06T08:17:12Z</time>
      </trkpt>
      <trkpt lat="47.06894" lon="-1.82661">
        <ele>33.06</ele>
        <time>2020-06-06T08:17:14Z</time>
      </trkpt>
      <trkpt lat="47.06894" lon="-1.82679">
        <ele>32.46</ele>
        <time>2020-06-06T08:17:16Z</time>
      </trkpt>
      <trkpt lat="47.06894" lon="-1.82699">
        <ele>32.86</ele>
        <time>2020-06-06T08:17:18Z</time>
      </trkpt>
      <trkpt lat="47.06894" lon="-1.8272">
        <ele>32.99</ele>
        <time>2020-06-06T08:17:20Z</time>
      </trkpt>
      <trkpt lat="47.06894" lon="-1.82739">
        <ele>32.81</ele>
        <time>2020-06-06T08:17:22Z</time>
      </trkpt>
      <trkpt lat="47.06894" lon="-1.82756">
        <ele>32.92</ele>
        <time>2020-06-06T08:17:24Z</time>
      </trkpt>
      <trkpt lat="47.06894" lon="-1.82775">
        <ele>32.52</ele>
        <time>2020-06-06T08:17:26Z</time>
      </trkpt>
      <trkpt lat="47.06895" lon="-1.82793">
        <ele>31.82</ele>
        <time>2020-06-06T08:17:28Z</time>
      </trkpt>
      <trkpt lat="47.06896" lon="-1.82811">
        <ele>32.24</ele>
        <time>2020-06-06T08:17:30Z</time>
      </trkpt>
      <trkpt lat="47.06897" lon="-1.82831">
        <ele>33.2</ele>
        <time>2020-06-06T08:17:32Z</time>
      </trkpt>
      <trkpt lat="47.06898" lon="-1.82851">
        <ele>33.3</ele>
        <time>2020-06-06T08:17:34Z</time>
      </trkpt>
      <trkpt lat="47.06899" lon="-1.82869">
        <ele>32.73</ele>
        <time>2020-06-06T08:17:36Z</time>
      </trkpt>
      <trkpt lat="47.069" lon="-1.82886">
        <ele>32.81</ele>
        <time>2020-06-06T08:17:38Z</time>
      </trkpt>
      <trkpt lat="47.06901" lon="-1.82905">
        <ele>33.06</ele>
        <time>2020-06-06T08:17:40Z</time>
      </trkpt>
      <trkpt lat="47.06902" lon="-1.82924">
        <ele>32.6</ele>
        <time>2020-06-06T08:17:42Z</time>
      </trkpt>
      <trkpt lat="47.06903" lon="-1.82943">
        <ele>31.94</ele>
        <time>2020-06-06T08:17:44Z</time>
      </trkpt>
      <trkpt lat="47.06904" lon="-1.82961">
        <ele>31.94</ele>
        <time>2020-06-06T08:17:46Z</time>
      </trkpt>
      <trkpt lat="47.06905" lon="-1.82978">
        <ele>31.83</ele>
        <time>2020-06-06T08:17:48Z</time>
      </trkpt>
      <trkpt lat="47.06905" lon="-1.82994">
        <ele>31.41</ele>
        <time>2020-06-06T08:17:50Z</time>
      </trkpt>
      <trkpt lat="47.06907" lon="-1.83012">
        <ele>32.2</ele>
        <time>2020-06-06T08:17:52Z</time>
      </trkpt>
      <trkpt lat="47.06912" lon="-1.83026">
        <ele>32.95</ele>
        <time>2020-06-06T08:17:54Z</time>
      </trkpt>
      <trkpt lat="47.06912" lon="-1.83041">
        <ele>33.71</ele>
        <time>2020-06-06T08:17:57Z</time>
      </trkpt>
      <trkpt lat="47.06902" lon="-1.83044">
        <ele>34.34</ele>
        <time>2020-06-06T08:17:59Z</time>
      </trkpt>
      <trkpt lat="47.0689" lon="-1.83043">
        <ele>34.61</ele>
        <time>2020-06-06T08:18:01Z</time>
      </trkpt>
      <trkpt lat="47.06879" lon="-1.83041">
        <ele>34.38</ele>
        <time>2020-06-06T08:18:03Z</time>
      </trkpt>
      <trkpt lat="47.06865" lon="-1.83038">
        <ele>34.17</ele>
        <time>2020-06-06T08:18:05Z</time>
      </trkpt>
      <trkpt lat="47.06851" lon="-1.83036">
        <ele>34.36</ele>
        <time>2020-06-06T08:18:07Z</time>
      </trkpt>
      <trkpt lat="47.06836" lon="-1.83035">
        <ele>35.42</ele>
        <time>2020-06-06T08:18:09Z</time>
      </trkpt>
      <trkpt lat="47.06824" lon="-1.83034">
        <ele>35.58</ele>
        <time>2020-06-06T08:18:11Z</time>
      </trkpt>
      <trkpt lat="47.0681" lon="-1.83034">
        <ele>35.05</ele>
        <time>2020-06-06T08:18:13Z</time>
      </trkpt>
      <trkpt lat="47.06794" lon="-1.83035">
        <ele>34.4</ele>
        <time>2020-06-06T08:18:15Z</time>
      </trkpt>
      <trkpt lat="47.06785" lon="-1.83036">
        <ele>34.07</ele>
        <time>2020-06-06T08:18:16Z</time>
      </trkpt>
      <trkpt lat="47.0677" lon="-1.83038">
        <ele>33.26</ele>
        <time>2020-06-06T08:18:18Z</time>
      </trkpt>
      <trkpt lat="47.06758" lon="-1.8304">
        <ele>32.55</ele>
        <time>2020-06-06T08:18:20Z</time>
      </trkpt>
      <trkpt lat="47.06744" lon="-1.83042">
        <ele>31.74</ele>
        <time>2020-06-06T08:18:22Z</time>
      </trkpt>
      <trkpt lat="47.06731" lon="-1.83045">
        <ele>31.19</ele>
        <time>2020-06-06T08:18:24Z</time>
      </trkpt>
      <trkpt lat="47.06717" lon="-1.83048">
        <ele>31.32</ele>
        <time>2020-06-06T08:18:26Z</time>
      </trkpt>
      <trkpt lat="47.06703" lon="-1.83051">
        <ele>31.09</ele>
        <time>2020-06-06T08:18:28Z</time>
      </trkpt>
      <trkpt lat="47.06689" lon="-1.83054">
        <ele>31.06</ele>
        <time>2020-06-06T08:18:30Z</time>
      </trkpt>
      <trkpt lat="47.06674" lon="-1.83057">
        <ele>30.59</ele>
        <time>2020-06-06T08:18:32Z</time>
      </trkpt>
      <trkpt lat="47.06659" lon="-1.83061">
        <ele>30.15</ele>
        <time>2020-06-06T08:18:34Z</time>
      </trkpt>
      <trkpt lat="47.06645" lon="-1.83064">
        <ele>30.46</ele>
        <time>2020-06-06T08:18:36Z</time>
      </trkpt>
      <trkpt lat="47.06632" lon="-1.83067">
        <ele>30.84</ele>
        <time>2020-06-06T08:18:38Z</time>
      </trkpt>
      <trkpt lat="47.06619" lon="-1.83071">
        <ele>30.9</ele>
        <time>2020-06-06T08:18:40Z</time>
      </trkpt>
      <trkpt lat="47.06604" lon="-1.83075">
        <ele>31.16</ele>
        <time>2020-06-06T08:18:42Z</time>
      </trkpt>
      <trkpt lat="47.06591" lon="-1.83078">
        <ele>31.87</ele>
        <time>2020-06-06T08:18:44Z</time>
      </trkpt>
      <trkpt lat="47.06576" lon="-1.83083">
        <ele>32.46</ele>
        <time>2020-06-06T08:18:46Z</time>
      </trkpt>
      <trkpt lat="47.06563" lon="-1.83087">
        <ele>32.19</ele>
        <time>2020-06-06T08:18:48Z</time>
      </trkpt>
      <trkpt lat="47.0655" lon="-1.83091">
        <ele>31.62</ele>
        <time>2020-06-06T08:18:50Z</time>
      </trkpt>
      <trkpt lat="47.06537" lon="-1.83096">
        <ele>31.03</ele>
        <time>2020-06-06T08:18:52Z</time>
      </trkpt>
      <trkpt lat="47.06524" lon="-1.83102">
        <ele>31.19</ele>
        <time>2020-06-06T08:18:54Z</time>
      </trkpt>
      <trkpt lat="47.06512" lon="-1.83107">
        <ele>31.77</ele>
        <time>2020-06-06T08:18:56Z</time>
      </trkpt>
      <trkpt lat="47.065" lon="-1.83112">
        <ele>32.15</ele>
        <time>2020-06-06T08:18:58Z</time>
      </trkpt>
      <trkpt lat="47.06486" lon="-1.83118">
        <ele>31.27</ele>
        <time>2020-06-06T08:19:00Z</time>
      </trkpt>
      <trkpt lat="47.06474" lon="-1.83124">
        <ele>30.56</ele>
        <time>2020-06-06T08:19:02Z</time>
      </trkpt>
      <trkpt lat="47.06463" lon="-1.83129">
        <ele>30.84</ele>
        <time>2020-06-06T08:19:04Z</time>
      </trkpt>
      <trkpt lat="47.06451" lon="-1.83134">
        <ele>31.29</ele>
        <time>2020-06-06T08:19:06Z</time>
      </trkpt>
      <trkpt lat="47.06438" lon="-1.8314">
        <ele>31.36</ele>
        <time>2020-06-06T08:19:08Z</time>
      </trkpt>
      <trkpt lat="47.06424" lon="-1.83146">
        <ele>31.02</ele>
        <time>2020-06-06T08:19:10Z</time>
      </trkpt>
      <trkpt lat="47.06412" lon="-1.83151">
        <ele>32.11</ele>
        <time>2020-06-06T08:19:12Z</time>
      </trkpt>
      <trkpt lat="47.06399" lon="-1.83157">
        <ele>32.64</ele>
        <time>2020-06-06T08:19:14Z</time>
      </trkpt>
      <trkpt lat="47.06387" lon="-1.83161">
        <ele>32.94</ele>
        <time>2020-06-06T08:19:16Z</time>
      </trkpt>
      <trkpt lat="47.06373" lon="-1.83166">
        <ele>33.01</ele>
        <time>2020-06-06T08:19:18Z</time>
      </trkpt>
      <trkpt lat="47.06361" lon="-1.83172">
        <ele>33.25</ele>
        <time>2020-06-06T08:19:20Z</time>
      </trkpt>
      <trkpt lat="47.06349" lon="-1.83177">
        <ele>33.91</ele>
        <time>2020-06-06T08:19:22Z</time>
      </trkpt>
      <trkpt lat="47.06337" lon="-1.83182">
        <ele>33.69</ele>
        <time>2020-06-06T08:19:24Z</time>
      </trkpt>
      <trkpt lat="47.06324" lon="-1.83187">
        <ele>32.44</ele>
        <time>2020-06-06T08:19:26Z</time>
      </trkpt>
      <trkpt lat="47.06313" lon="-1.83192">
        <ele>31.7</ele>
        <time>2020-06-06T08:19:28Z</time>
      </trkpt>
      <trkpt lat="47.06301" lon="-1.83197">
        <ele>30.63</ele>
        <time>2020-06-06T08:19:30Z</time>
      </trkpt>
      <trkpt lat="47.06289" lon="-1.832">
        <ele>30.36</ele>
        <time>2020-06-06T08:19:32Z</time>
      </trkpt>
      <trkpt lat="47.06276" lon="-1.83203">
        <ele>30.38</ele>
        <time>2020-06-06T08:19:34Z</time>
      </trkpt>
      <trkpt lat="47.06262" lon="-1.83204">
        <ele>31.01</ele>
        <time>2020-06-06T08:19:36Z</time>
      </trkpt>
      <trkpt lat="47.06249" lon="-1.83205">
        <ele>31.65</ele>
        <time>2020-06-06T08:19:38Z</time>
      </trkpt>
      <trkpt lat="47.06235" lon="-1.83207">
        <ele>32.81</ele>
        <time>2020-06-06T08:19:40Z</time>
      </trkpt>
      <trkpt lat="47.06222" lon="-1.83206">
        <ele>33.71</ele>
        <time>2020-06-06T08:19:42Z</time>
      </trkpt>
      <trkpt lat="47.06209" lon="-1.83206">
        <ele>34.98</ele>
        <time>2020-06-06T08:19:44Z</time>
      </trkpt>
      <trkpt lat="47.06195" lon="-1.83206">
        <ele>35.87</ele>
        <time>2020-06-06T08:19:46Z</time>
      </trkpt>
      <trkpt lat="47.06182" lon="-1.83206">
        <ele>35.4</ele>
        <time>2020-06-06T08:19:48Z</time>
      </trkpt>
      <trkpt lat="47.06169" lon="-1.83208">
        <ele>34.34</ele>
        <time>2020-06-06T08:19:50Z</time>
      </trkpt>
      <trkpt lat="47.06156" lon="-1.83208">
        <ele>33.47</ele>
        <time>2020-06-06T08:19:52Z</time>
      </trkpt>
      <trkpt lat="47.06143" lon="-1.83208">
        <ele>33.76</ele>
        <time>2020-06-06T08:19:54Z</time>
      </trkpt>
      <trkpt lat="47.06131" lon="-1.83209">
        <ele>34.15</ele>
        <time>2020-06-06T08:19:56Z</time>
      </trkpt>
      <trkpt lat="47.06116" lon="-1.83209">
        <ele>34.71</ele>
        <time>2020-06-06T08:19:58Z</time>
      </trkpt>
      <trkpt lat="47.06102" lon="-1.8321">
        <ele>34.73</ele>
        <time>2020-06-06T08:20:00Z</time>
      </trkpt>
      <trkpt lat="47.06088" lon="-1.83211">
        <ele>34.19</ele>
        <time>2020-06-06T08:20:02Z</time>
      </trkpt>
      <trkpt lat="47.06074" lon="-1.83211">
        <ele>33.5</ele>
        <time>2020-06-06T08:20:04Z</time>
      </trkpt>
      <trkpt lat="47.06062" lon="-1.83213">
        <ele>32.82</ele>
        <time>2020-06-06T08:20:06Z</time>
      </trkpt>
      <trkpt lat="47.06048" lon="-1.83214">
        <ele>32.48</ele>
        <time>2020-06-06T08:20:08Z</time>
      </trkpt>
      <trkpt lat="47.06035" lon="-1.83215">
        <ele>32.93</ele>
        <time>2020-06-06T08:20:10Z</time>
      </trkpt>
      <trkpt lat="47.06022" lon="-1.83217">
        <ele>33.32</ele>
        <time>2020-06-06T08:20:12Z</time>
      </trkpt>
      <trkpt lat="47.06009" lon="-1.83217">
        <ele>33.88</ele>
        <time>2020-06-06T08:20:14Z</time>
      </trkpt>
      <trkpt lat="47.05995" lon="-1.83218">
        <ele>33.78</ele>
        <time>2020-06-06T08:20:16Z</time>
      </trkpt>
      <trkpt lat="47.05981" lon="-1.8322">
        <ele>32.58</ele>
        <time>2020-06-06T08:20:18Z</time>
      </trkpt>
      <trkpt lat="47.05969" lon="-1.83228">
        <ele>31.9</ele>
        <time>2020-06-06T08:20:20Z</time>
      </trkpt>
      <trkpt lat="47.05959" lon="-1.83241">
        <ele>32</ele>
        <time>2020-06-06T08:20:22Z</time>
      </trkpt>
      <trkpt lat="47.05949" lon="-1.83255">
        <ele>32.11</ele>
        <time>2020-06-06T08:20:24Z</time>
      </trkpt>
      <trkpt lat="47.05939" lon="-1.83269">
        <ele>32.64</ele>
        <time>2020-06-06T08:20:26Z</time>
      </trkpt>
      <trkpt lat="47.05931" lon="-1.83282">
        <ele>32.88</ele>
        <time>2020-06-06T08:20:28Z</time>
      </trkpt>
      <trkpt lat="47.05922" lon="-1.83295">
        <ele>33.92</ele>
        <time>2020-06-06T08:20:30Z</time>
      </trkpt>
      <trkpt lat="47.05913" lon="-1.8331">
        <ele>34.88</ele>
        <time>2020-06-06T08:20:32Z</time>
      </trkpt>
      <trkpt lat="47.05905" lon="-1.83322">
        <ele>35.36</ele>
        <time>2020-06-06T08:20:34Z</time>
      </trkpt>
      <trkpt lat="47.05895" lon="-1.83336">
        <ele>34.89</ele>
        <time>2020-06-06T08:20:36Z</time>
      </trkpt>
      <trkpt lat="47.05886" lon="-1.83349">
        <ele>35.15</ele>
        <time>2020-06-06T08:20:38Z</time>
      </trkpt>
      <trkpt lat="47.05877" lon="-1.83363">
        <ele>35.57</ele>
        <time>2020-06-06T08:20:40Z</time>
      </trkpt>
      <trkpt lat="47.05868" lon="-1.83376">
        <ele>34.99</ele>
        <time>2020-06-06T08:20:42Z</time>
      </trkpt>
      <trkpt lat="47.05859" lon="-1.8339">
        <ele>34.2</ele>
        <time>2020-06-06T08:20:44Z</time>
      </trkpt>
      <trkpt lat="47.05852" lon="-1.83402">
        <ele>34.44</ele>
        <time>2020-06-06T08:20:46Z</time>
      </trkpt>
      <trkpt lat="47.05843" lon="-1.83417">
        <ele>34.84</ele>
        <time>2020-06-06T08:20:48Z</time>
      </trkpt>
      <trkpt lat="47.05834" lon="-1.8343">
        <ele>34.68</ele>
        <time>2020-06-06T08:20:50Z</time>
      </trkpt>
      <trkpt lat="47.05825" lon="-1.83444">
        <ele>34.04</ele>
        <time>2020-06-06T08:20:52Z</time>
      </trkpt>
      <trkpt lat="47.05816" lon="-1.83456">
        <ele>34.32</ele>
        <time>2020-06-06T08:20:54Z</time>
      </trkpt>
      <trkpt lat="47.05807" lon="-1.83469">
        <ele>35.31</ele>
        <time>2020-06-06T08:20:56Z</time>
      </trkpt>
      <trkpt lat="47.05798" lon="-1.83482">
        <ele>35.83</ele>
        <time>2020-06-06T08:20:58Z</time>
      </trkpt>
      <trkpt lat="47.0579" lon="-1.83491">
        <ele>36.41</ele>
        <time>2020-06-06T08:21:00Z</time>
      </trkpt>
      <trkpt lat="47.05779" lon="-1.83503">
        <ele>37.02</ele>
        <time>2020-06-06T08:21:02Z</time>
      </trkpt>
      <trkpt lat="47.05768" lon="-1.83515">
        <ele>36.16</ele>
        <time>2020-06-06T08:21:04Z</time>
      </trkpt>
      <trkpt lat="47.05758" lon="-1.83527">
        <ele>35.48</ele>
        <time>2020-06-06T08:21:06Z</time>
      </trkpt>
      <trkpt lat="47.05749" lon="-1.83538">
        <ele>35.7</ele>
        <time>2020-06-06T08:21:08Z</time>
      </trkpt>
      <trkpt lat="47.05739" lon="-1.83551">
        <ele>35.53</ele>
        <time>2020-06-06T08:21:10Z</time>
      </trkpt>
      <trkpt lat="47.05729" lon="-1.83562">
        <ele>34.82</ele>
        <time>2020-06-06T08:21:12Z</time>
      </trkpt>
      <trkpt lat="47.05721" lon="-1.83576">
        <ele>34.75</ele>
        <time>2020-06-06T08:21:14Z</time>
      </trkpt>
      <trkpt lat="47.05714" lon="-1.8359">
        <ele>35.24</ele>
        <time>2020-06-06T08:21:16Z</time>
      </trkpt>
      <trkpt lat="47.05706" lon="-1.83605">
        <ele>35.89</ele>
        <time>2020-06-06T08:21:18Z</time>
      </trkpt>
      <trkpt lat="47.05698" lon="-1.83619">
        <ele>36.17</ele>
        <time>2020-06-06T08:21:20Z</time>
      </trkpt>
      <trkpt lat="47.0569" lon="-1.83633">
        <ele>36.78</ele>
        <time>2020-06-06T08:21:22Z</time>
      </trkpt>
      <trkpt lat="47.05681" lon="-1.83647">
        <ele>36.16</ele>
        <time>2020-06-06T08:21:24Z</time>
      </trkpt>
      <trkpt lat="47.05671" lon="-1.83664">
        <ele>36.85</ele>
        <time>2020-06-06T08:21:26Z</time>
      </trkpt>
      <trkpt lat="47.05663" lon="-1.83678">
        <ele>37.55</ele>
        <time>2020-06-06T08:21:28Z</time>
      </trkpt>
      <trkpt lat="47.05654" lon="-1.83693">
        <ele>38.7</ele>
        <time>2020-06-06T08:21:30Z</time>
      </trkpt>
      <trkpt lat="47.05646" lon="-1.83708">
        <ele>38.94</ele>
        <time>2020-06-06T08:21:32Z</time>
      </trkpt>
      <trkpt lat="47.05639" lon="-1.83722">
        <ele>39.1</ele>
        <time>2020-06-06T08:21:34Z</time>
      </trkpt>
      <trkpt lat="47.05632" lon="-1.83736">
        <ele>38.77</ele>
        <time>2020-06-06T08:21:36Z</time>
      </trkpt>
      <trkpt lat="47.05624" lon="-1.83751">
        <ele>37.72</ele>
        <time>2020-06-06T08:21:38Z</time>
      </trkpt>
      <trkpt lat="47.05615" lon="-1.83766">
        <ele>37.12</ele>
        <time>2020-06-06T08:21:40Z</time>
      </trkpt>
      <trkpt lat="47.05607" lon="-1.83781">
        <ele>36.24</ele>
        <time>2020-06-06T08:21:42Z</time>
      </trkpt>
      <trkpt lat="47.05599" lon="-1.83795">
        <ele>34.73</ele>
        <time>2020-06-06T08:21:44Z</time>
      </trkpt>
      <trkpt lat="47.0559" lon="-1.8381">
        <ele>33.96</ele>
        <time>2020-06-06T08:21:46Z</time>
      </trkpt>
      <trkpt lat="47.05583" lon="-1.83824">
        <ele>34.21</ele>
        <time>2020-06-06T08:21:48Z</time>
      </trkpt>
      <trkpt lat="47.05575" lon="-1.83839">
        <ele>34.6</ele>
        <time>2020-06-06T08:21:50Z</time>
      </trkpt>
      <trkpt lat="47.05566" lon="-1.83854">
        <ele>34.83</ele>
        <time>2020-06-06T08:21:52Z</time>
      </trkpt>
      <trkpt lat="47.05559" lon="-1.83868">
        <ele>34.58</ele>
        <time>2020-06-06T08:21:54Z</time>
      </trkpt>
      <trkpt lat="47.05549" lon="-1.83885">
        <ele>33.93</ele>
        <time>2020-06-06T08:21:56Z</time>
      </trkpt>
      <trkpt lat="47.05542" lon="-1.83899">
        <ele>33.65</ele>
        <time>2020-06-06T08:21:58Z</time>
      </trkpt>
      <trkpt lat="47.05534" lon="-1.83913">
        <ele>33.3</ele>
        <time>2020-06-06T08:22:00Z</time>
      </trkpt>
      <trkpt lat="47.05526" lon="-1.83927">
        <ele>33.41</ele>
        <time>2020-06-06T08:22:02Z</time>
      </trkpt>
      <trkpt lat="47.05517" lon="-1.83944">
        <ele>33.97</ele>
        <time>2020-06-06T08:22:04Z</time>
      </trkpt>
      <trkpt lat="47.05508" lon="-1.83959">
        <ele>35.32</ele>
        <time>2020-06-06T08:22:06Z</time>
      </trkpt>
      <trkpt lat="47.05501" lon="-1.83973">
        <ele>36.6</ele>
        <time>2020-06-06T08:22:08Z</time>
      </trkpt>
      <trkpt lat="47.05494" lon="-1.83986">
        <ele>36.43</ele>
        <time>2020-06-06T08:22:10Z</time>
      </trkpt>
      <trkpt lat="47.05486" lon="-1.84001">
        <ele>36.13</ele>
        <time>2020-06-06T08:22:12Z</time>
      </trkpt>
      <trkpt lat="47.05478" lon="-1.84016">
        <ele>36.45</ele>
        <time>2020-06-06T08:22:14Z</time>
      </trkpt>
      <trkpt lat="47.0547" lon="-1.8403">
        <ele>37.16</ele>
        <time>2020-06-06T08:22:16Z</time>
      </trkpt>
      <trkpt lat="47.05462" lon="-1.84045">
        <ele>36.8</ele>
        <time>2020-06-06T08:22:18Z</time>
      </trkpt>
      <trkpt lat="47.05454" lon="-1.84062">
        <ele>36.48</ele>
        <time>2020-06-06T08:22:20Z</time>
      </trkpt>
      <trkpt lat="47.05446" lon="-1.84078">
        <ele>35.96</ele>
        <time>2020-06-06T08:22:22Z</time>
      </trkpt>
      <trkpt lat="47.05439" lon="-1.84093">
        <ele>36.33</ele>
        <time>2020-06-06T08:22:24Z</time>
      </trkpt>
      <trkpt lat="47.05432" lon="-1.84107">
        <ele>36.72</ele>
        <time>2020-06-06T08:22:26Z</time>
      </trkpt>
      <trkpt lat="47.05423" lon="-1.84125">
        <ele>36.32</ele>
        <time>2020-06-06T08:22:28Z</time>
      </trkpt>
      <trkpt lat="47.05416" lon="-1.8414">
        <ele>35.89</ele>
        <time>2020-06-06T08:22:30Z</time>
      </trkpt>
      <trkpt lat="47.05409" lon="-1.84154">
        <ele>35.3</ele>
        <time>2020-06-06T08:22:32Z</time>
      </trkpt>
      <trkpt lat="47.05401" lon="-1.8417">
        <ele>34.7</ele>
        <time>2020-06-06T08:22:34Z</time>
      </trkpt>
      <trkpt lat="47.05393" lon="-1.84186">
        <ele>34.17</ele>
        <time>2020-06-06T08:22:36Z</time>
      </trkpt>
      <trkpt lat="47.05386" lon="-1.842">
        <ele>33.67</ele>
        <time>2020-06-06T08:22:38Z</time>
      </trkpt>
      <trkpt lat="47.05379" lon="-1.84215">
        <ele>33.8</ele>
        <time>2020-06-06T08:22:40Z</time>
      </trkpt>
      <trkpt lat="47.05372" lon="-1.8423">
        <ele>33.02</ele>
        <time>2020-06-06T08:22:42Z</time>
      </trkpt>
      <trkpt lat="47.05365" lon="-1.84243">
        <ele>32.88</ele>
        <time>2020-06-06T08:22:44Z</time>
      </trkpt>
      <trkpt lat="47.05356" lon="-1.8426">
        <ele>33.5</ele>
        <time>2020-06-06T08:22:46Z</time>
      </trkpt>
      <trkpt lat="47.05348" lon="-1.84275">
        <ele>34.43</ele>
        <time>2020-06-06T08:22:48Z</time>
      </trkpt>
      <trkpt lat="47.05341" lon="-1.84288">
        <ele>35.74</ele>
        <time>2020-06-06T08:22:50Z</time>
      </trkpt>
      <trkpt lat="47.05333" lon="-1.84303">
        <ele>37.16</ele>
        <time>2020-06-06T08:22:52Z</time>
      </trkpt>
      <trkpt lat="47.05326" lon="-1.84317">
        <ele>37.23</ele>
        <time>2020-06-06T08:22:54Z</time>
      </trkpt>
      <trkpt lat="47.05317" lon="-1.84333">
        <ele>36.7</ele>
        <time>2020-06-06T08:22:56Z</time>
      </trkpt>
      <trkpt lat="47.0531" lon="-1.84347">
        <ele>36.26</ele>
        <time>2020-06-06T08:22:58Z</time>
      </trkpt>
      <trkpt lat="47.05302" lon="-1.84364">
        <ele>35.8</ele>
        <time>2020-06-06T08:23:00Z</time>
      </trkpt>
      <trkpt lat="47.05295" lon="-1.84379">
        <ele>36.01</ele>
        <time>2020-06-06T08:23:02Z</time>
      </trkpt>
      <trkpt lat="47.05287" lon="-1.84395">
        <ele>36.17</ele>
        <time>2020-06-06T08:23:04Z</time>
      </trkpt>
      <trkpt lat="47.0528" lon="-1.8441">
        <ele>35.56</ele>
        <time>2020-06-06T08:23:06Z</time>
      </trkpt>
      <trkpt lat="47.05273" lon="-1.84425">
        <ele>34.47</ele>
        <time>2020-06-06T08:23:08Z</time>
      </trkpt>
      <trkpt lat="47.05265" lon="-1.84441">
        <ele>34.61</ele>
        <time>2020-06-06T08:23:10Z</time>
      </trkpt>
      <trkpt lat="47.05258" lon="-1.84456">
        <ele>35.92</ele>
        <time>2020-06-06T08:23:12Z</time>
      </trkpt>
      <trkpt lat="47.0525" lon="-1.84472">
        <ele>36.53</ele>
        <time>2020-06-06T08:23:14Z</time>
      </trkpt>
      <trkpt lat="47.05243" lon="-1.84484">
        <ele>36.82</ele>
        <time>2020-06-06T08:23:16Z</time>
      </trkpt>
      <trkpt lat="47.05237" lon="-1.84497">
        <ele>37.12</ele>
        <time>2020-06-06T08:23:18Z</time>
      </trkpt>
      <trkpt lat="47.05231" lon="-1.84509">
        <ele>38.37</ele>
        <time>2020-06-06T08:23:19Z</time>
      </trkpt>
      <trkpt lat="47.05223" lon="-1.84525">
        <ele>38.8</ele>
        <time>2020-06-06T08:23:21Z</time>
      </trkpt>
      <trkpt lat="47.05216" lon="-1.84538">
        <ele>39.04</ele>
        <time>2020-06-06T08:23:23Z</time>
      </trkpt>
      <trkpt lat="47.05208" lon="-1.84548">
        <ele>39.08</ele>
        <time>2020-06-06T08:23:25Z</time>
      </trkpt>
      <trkpt lat="47.05197" lon="-1.84541">
        <ele>37.36</ele>
        <time>2020-06-06T08:23:27Z</time>
      </trkpt>
      <trkpt lat="47.05186" lon="-1.84526">
        <ele>36.54</ele>
        <time>2020-06-06T08:23:29Z</time>
      </trkpt>
      <trkpt lat="47.05176" lon="-1.84513">
        <ele>36.73</ele>
        <time>2020-06-06T08:23:31Z</time>
      </trkpt>
      <trkpt lat="47.05164" lon="-1.84497">
        <ele>36.83</ele>
        <time>2020-06-06T08:23:33Z</time>
      </trkpt>
      <trkpt lat="47.05156" lon="-1.84485">
        <ele>37.13</ele>
        <time>2020-06-06T08:23:35Z</time>
      </trkpt>
      <trkpt lat="47.05147" lon="-1.84471">
        <ele>36.9</ele>
        <time>2020-06-06T08:23:37Z</time>
      </trkpt>
      <trkpt lat="47.05138" lon="-1.84458">
        <ele>36.73</ele>
        <time>2020-06-06T08:23:39Z</time>
      </trkpt>
      <trkpt lat="47.05128" lon="-1.84442">
        <ele>36.57</ele>
        <time>2020-06-06T08:23:41Z</time>
      </trkpt>
      <trkpt lat="47.05119" lon="-1.84427">
        <ele>36.94</ele>
        <time>2020-06-06T08:23:43Z</time>
      </trkpt>
      <trkpt lat="47.05109" lon="-1.84413">
        <ele>38.01</ele>
        <time>2020-06-06T08:23:45Z</time>
      </trkpt>
      <trkpt lat="47.05099" lon="-1.844">
        <ele>39.66</ele>
        <time>2020-06-06T08:23:47Z</time>
      </trkpt>
      <trkpt lat="47.05089" lon="-1.84389">
        <ele>40.7</ele>
        <time>2020-06-06T08:23:49Z</time>
      </trkpt>
      <trkpt lat="47.05078" lon="-1.84375">
        <ele>40.37</ele>
        <time>2020-06-06T08:23:51Z</time>
      </trkpt>
      <trkpt lat="47.05066" lon="-1.84362">
        <ele>39.81</ele>
        <time>2020-06-06T08:23:53Z</time>
      </trkpt>
      <trkpt lat="47.05057" lon="-1.84353">
        <ele>39.72</ele>
        <time>2020-06-06T08:23:55Z</time>
      </trkpt>
      <trkpt lat="47.05047" lon="-1.84343">
        <ele>39.99</ele>
        <time>2020-06-06T08:23:57Z</time>
      </trkpt>
      <trkpt lat="47.05036" lon="-1.84331">
        <ele>40.57</ele>
        <time>2020-06-06T08:23:59Z</time>
      </trkpt>
      <trkpt lat="47.05025" lon="-1.84318">
        <ele>40.06</ele>
        <time>2020-06-06T08:24:01Z</time>
      </trkpt>
      <trkpt lat="47.05013" lon="-1.84308">
        <ele>39.89</ele>
        <time>2020-06-06T08:24:03Z</time>
      </trkpt>
      <trkpt lat="47.05003" lon="-1.84299">
        <ele>40.49</ele>
        <time>2020-06-06T08:24:05Z</time>
      </trkpt>
      <trkpt lat="47.04991" lon="-1.84289">
        <ele>41.08</ele>
        <time>2020-06-06T08:24:07Z</time>
      </trkpt>
      <trkpt lat="47.0498" lon="-1.84281">
        <ele>42.16</ele>
        <time>2020-06-06T08:24:09Z</time>
      </trkpt>
      <trkpt lat="47.04969" lon="-1.84272">
        <ele>43.15</ele>
        <time>2020-06-06T08:24:11Z</time>
      </trkpt>
      <trkpt lat="47.04958" lon="-1.84262">
        <ele>44.07</ele>
        <time>2020-06-06T08:24:13Z</time>
      </trkpt>
      <trkpt lat="47.04947" lon="-1.84252">
        <ele>44.52</ele>
        <time>2020-06-06T08:24:15Z</time>
      </trkpt>
      <trkpt lat="47.04936" lon="-1.84242">
        <ele>43.05</ele>
        <time>2020-06-06T08:24:17Z</time>
      </trkpt>
      <trkpt lat="47.04924" lon="-1.84231">
        <ele>40.84</ele>
        <time>2020-06-06T08:24:19Z</time>
      </trkpt>
      <trkpt lat="47.04914" lon="-1.84222">
        <ele>39.99</ele>
        <time>2020-06-06T08:24:21Z</time>
      </trkpt>
      <trkpt lat="47.04905" lon="-1.84212">
        <ele>39.12</ele>
        <time>2020-06-06T08:24:23Z</time>
      </trkpt>
      <trkpt lat="47.04894" lon="-1.84201">
        <ele>39.09</ele>
        <time>2020-06-06T08:24:25Z</time>
      </trkpt>
      <trkpt lat="47.04884" lon="-1.84189">
        <ele>39.57</ele>
        <time>2020-06-06T08:24:27Z</time>
      </trkpt>
      <trkpt lat="47.04873" lon="-1.84178">
        <ele>38.93</ele>
        <time>2020-06-06T08:24:29Z</time>
      </trkpt>
      <trkpt lat="47.0486" lon="-1.84165">
        <ele>38.38</ele>
        <time>2020-06-06T08:24:31Z</time>
      </trkpt>
      <trkpt lat="47.0485" lon="-1.84155">
        <ele>37.97</ele>
        <time>2020-06-06T08:24:33Z</time>
      </trkpt>
      <trkpt lat="47.04839" lon="-1.84143">
        <ele>37.74</ele>
        <time>2020-06-06T08:24:35Z</time>
      </trkpt>
      <trkpt lat="47.0483" lon="-1.84132">
        <ele>38.27</ele>
        <time>2020-06-06T08:24:37Z</time>
      </trkpt>
      <trkpt lat="47.0482" lon="-1.84119">
        <ele>38.19</ele>
        <time>2020-06-06T08:24:39Z</time>
      </trkpt>
      <trkpt lat="47.0481" lon="-1.84106">
        <ele>37.79</ele>
        <time>2020-06-06T08:24:41Z</time>
      </trkpt>
      <trkpt lat="47.04799" lon="-1.84093">
        <ele>37.73</ele>
        <time>2020-06-06T08:24:43Z</time>
      </trkpt>
      <trkpt lat="47.04789" lon="-1.84081">
        <ele>38.43</ele>
        <time>2020-06-06T08:24:45Z</time>
      </trkpt>
      <trkpt lat="47.04779" lon="-1.84069">
        <ele>39.04</ele>
        <time>2020-06-06T08:24:47Z</time>
      </trkpt>
      <trkpt lat="47.04769" lon="-1.84056">
        <ele>38.65</ele>
        <time>2020-06-06T08:24:49Z</time>
      </trkpt>
      <trkpt lat="47.04759" lon="-1.84042">
        <ele>37.74</ele>
        <time>2020-06-06T08:24:51Z</time>
      </trkpt>
      <trkpt lat="47.04748" lon="-1.84029">
        <ele>36.17</ele>
        <time>2020-06-06T08:24:53Z</time>
      </trkpt>
      <trkpt lat="47.04738" lon="-1.84015">
        <ele>35.46</ele>
        <time>2020-06-06T08:24:55Z</time>
      </trkpt>
      <trkpt lat="47.04728" lon="-1.84001">
        <ele>35.21</ele>
        <time>2020-06-06T08:24:57Z</time>
      </trkpt>
      <trkpt lat="47.04716" lon="-1.83986">
        <ele>35.01</ele>
        <time>2020-06-06T08:24:59Z</time>
      </trkpt>
      <trkpt lat="47.04706" lon="-1.83974">
        <ele>35.09</ele>
        <time>2020-06-06T08:25:01Z</time>
      </trkpt>
      <trkpt lat="47.04695" lon="-1.83963">
        <ele>35.47</ele>
        <time>2020-06-06T08:25:03Z</time>
      </trkpt>
      <trkpt lat="47.04685" lon="-1.83951">
        <ele>35.29</ele>
        <time>2020-06-06T08:25:05Z</time>
      </trkpt>
      <trkpt lat="47.04674" lon="-1.83937">
        <ele>35.16</ele>
        <time>2020-06-06T08:25:07Z</time>
      </trkpt>
      <trkpt lat="47.04663" lon="-1.83925">
        <ele>34.59</ele>
        <time>2020-06-06T08:25:09Z</time>
      </trkpt>
      <trkpt lat="47.04653" lon="-1.83912">
        <ele>33.51</ele>
        <time>2020-06-06T08:25:11Z</time>
      </trkpt>
      <trkpt lat="47.04643" lon="-1.83898">
        <ele>33.45</ele>
        <time>2020-06-06T08:25:13Z</time>
      </trkpt>
      <trkpt lat="47.04633" lon="-1.83883">
        <ele>34.62</ele>
        <time>2020-06-06T08:25:15Z</time>
      </trkpt>
      <trkpt lat="47.04623" lon="-1.83868">
        <ele>34.87</ele>
        <time>2020-06-06T08:25:17Z</time>
      </trkpt>
      <trkpt lat="47.04613" lon="-1.83853">
        <ele>34.53</ele>
        <time>2020-06-06T08:25:19Z</time>
      </trkpt>
      <trkpt lat="47.04603" lon="-1.83841">
        <ele>34.18</ele>
        <time>2020-06-06T08:25:21Z</time>
      </trkpt>
      <trkpt lat="47.04593" lon="-1.83829">
        <ele>34.08</ele>
        <time>2020-06-06T08:25:23Z</time>
      </trkpt>
      <trkpt lat="47.04581" lon="-1.8382">
        <ele>34.58</ele>
        <time>2020-06-06T08:25:25Z</time>
      </trkpt>
      <trkpt lat="47.04568" lon="-1.83811">
        <ele>35.39</ele>
        <time>2020-06-06T08:25:27Z</time>
      </trkpt>
      <trkpt lat="47.04556" lon="-1.83803">
        <ele>35.44</ele>
        <time>2020-06-06T08:25:29Z</time>
      </trkpt>
      <trkpt lat="47.04544" lon="-1.83796">
        <ele>35.6</ele>
        <time>2020-06-06T08:25:31Z</time>
      </trkpt>
      <trkpt lat="47.04531" lon="-1.83787">
        <ele>35.71</ele>
        <time>2020-06-06T08:25:33Z</time>
      </trkpt>
      <trkpt lat="47.04518" lon="-1.83778">
        <ele>36.62</ele>
        <time>2020-06-06T08:25:35Z</time>
      </trkpt>
      <trkpt lat="47.04506" lon="-1.8377">
        <ele>37.37</ele>
        <time>2020-06-06T08:25:37Z</time>
      </trkpt>
      <trkpt lat="47.04494" lon="-1.8376">
        <ele>37.98</ele>
        <time>2020-06-06T08:25:39Z</time>
      </trkpt>
      <trkpt lat="47.04483" lon="-1.83752">
        <ele>38.02</ele>
        <time>2020-06-06T08:25:41Z</time>
      </trkpt>
      <trkpt lat="47.04471" lon="-1.83742">
        <ele>38.15</ele>
        <time>2020-06-06T08:25:43Z</time>
      </trkpt>
      <trkpt lat="47.0446" lon="-1.83733">
        <ele>38.22</ele>
        <time>2020-06-06T08:25:45Z</time>
      </trkpt>
      <trkpt lat="47.04447" lon="-1.83723">
        <ele>37.22</ele>
        <time>2020-06-06T08:25:47Z</time>
      </trkpt>
      <trkpt lat="47.04436" lon="-1.83713">
        <ele>36.65</ele>
        <time>2020-06-06T08:25:49Z</time>
      </trkpt>
      <trkpt lat="47.04425" lon="-1.83704">
        <ele>36.45</ele>
        <time>2020-06-06T08:25:51Z</time>
      </trkpt>
      <trkpt lat="47.04411" lon="-1.83694">
        <ele>36.11</ele>
        <time>2020-06-06T08:25:53Z</time>
      </trkpt>
      <trkpt lat="47.04398" lon="-1.83684">
        <ele>36.94</ele>
        <time>2020-06-06T08:25:55Z</time>
      </trkpt>
      <trkpt lat="47.04385" lon="-1.83675">
        <ele>37.29</ele>
        <time>2020-06-06T08:25:57Z</time>
      </trkpt>
      <trkpt lat="47.04373" lon="-1.83669">
        <ele>37.75</ele>
        <time>2020-06-06T08:25:59Z</time>
      </trkpt>
      <trkpt lat="47.0436" lon="-1.83663">
        <ele>38.22</ele>
        <time>2020-06-06T08:26:01Z</time>
      </trkpt>
      <trkpt lat="47.04345" lon="-1.8366">
        <ele>38.33</ele>
        <time>2020-06-06T08:26:03Z</time>
      </trkpt>
      <trkpt lat="47.04331" lon="-1.83658">
        <ele>37.98</ele>
        <time>2020-06-06T08:26:05Z</time>
      </trkpt>
      <trkpt lat="47.04317" lon="-1.83655">
        <ele>37.89</ele>
        <time>2020-06-06T08:26:07Z</time>
      </trkpt>
      <trkpt lat="47.04304" lon="-1.83652">
        <ele>36.97</ele>
        <time>2020-06-06T08:26:09Z</time>
      </trkpt>
      <trkpt lat="47.0429" lon="-1.83649">
        <ele>36.82</ele>
        <time>2020-06-06T08:26:11Z</time>
      </trkpt>
      <trkpt lat="47.04275" lon="-1.83645">
        <ele>36.37</ele>
        <time>2020-06-06T08:26:13Z</time>
      </trkpt>
      <trkpt lat="47.04261" lon="-1.83641">
        <ele>36.18</ele>
        <time>2020-06-06T08:26:15Z</time>
      </trkpt>
      <trkpt lat="47.04248" lon="-1.83638">
        <ele>36.03</ele>
        <time>2020-06-06T08:26:17Z</time>
      </trkpt>
      <trkpt lat="47.04234" lon="-1.83634">
        <ele>35.4</ele>
        <time>2020-06-06T08:26:19Z</time>
      </trkpt>
      <trkpt lat="47.0422" lon="-1.83627">
        <ele>34.81</ele>
        <time>2020-06-06T08:26:21Z</time>
      </trkpt>
      <trkpt lat="47.04209" lon="-1.83617">
        <ele>35.1</ele>
        <time>2020-06-06T08:26:23Z</time>
      </trkpt>
      <trkpt lat="47.04196" lon="-1.83614">
        <ele>34.94</ele>
        <time>2020-06-06T08:26:25Z</time>
      </trkpt>
      <trkpt lat="47.04184" lon="-1.83615">
        <ele>34.26</ele>
        <time>2020-06-06T08:26:27Z</time>
      </trkpt>
      <trkpt lat="47.0417" lon="-1.83613">
        <ele>33.75</ele>
        <time>2020-06-06T08:26:29Z</time>
      </trkpt>
      <trkpt lat="47.04158" lon="-1.83608">
        <ele>33.65</ele>
        <time>2020-06-06T08:26:31Z</time>
      </trkpt>
      <trkpt lat="47.04145" lon="-1.83601">
        <ele>34.24</ele>
        <time>2020-06-06T08:26:33Z</time>
      </trkpt>
      <trkpt lat="47.04133" lon="-1.83594">
        <ele>34.75</ele>
        <time>2020-06-06T08:26:35Z</time>
      </trkpt>
      <trkpt lat="47.04121" lon="-1.83587">
        <ele>35.5</ele>
        <time>2020-06-06T08:26:37Z</time>
      </trkpt>
      <trkpt lat="47.04107" lon="-1.83581">
        <ele>35.86</ele>
        <time>2020-06-06T08:26:39Z</time>
      </trkpt>
      <trkpt lat="47.04093" lon="-1.83576">
        <ele>36.16</ele>
        <time>2020-06-06T08:26:41Z</time>
      </trkpt>
      <trkpt lat="47.04081" lon="-1.83572">
        <ele>35.31</ele>
        <time>2020-06-06T08:26:43Z</time>
      </trkpt>
      <trkpt lat="47.04069" lon="-1.83569">
        <ele>35.22</ele>
        <time>2020-06-06T08:26:45Z</time>
      </trkpt>
      <trkpt lat="47.04056" lon="-1.83566">
        <ele>34.36</ele>
        <time>2020-06-06T08:26:47Z</time>
      </trkpt>
      <trkpt lat="47.04042" lon="-1.83565">
        <ele>34.67</ele>
        <time>2020-06-06T08:26:49Z</time>
      </trkpt>
      <trkpt lat="47.0403" lon="-1.83564">
        <ele>35.39</ele>
        <time>2020-06-06T08:26:51Z</time>
      </trkpt>
      <trkpt lat="47.04017" lon="-1.83562">
        <ele>36.74</ele>
        <time>2020-06-06T08:26:53Z</time>
      </trkpt>
      <trkpt lat="47.04002" lon="-1.8356">
        <ele>36.59</ele>
        <time>2020-06-06T08:26:55Z</time>
      </trkpt>
      <trkpt lat="47.0399" lon="-1.83559">
        <ele>36.08</ele>
        <time>2020-06-06T08:26:57Z</time>
      </trkpt>
      <trkpt lat="47.03978" lon="-1.83557">
        <ele>36.45</ele>
        <time>2020-06-06T08:26:59Z</time>
      </trkpt>
      <trkpt lat="47.03965" lon="-1.83556">
        <ele>35.8</ele>
        <time>2020-06-06T08:27:01Z</time>
      </trkpt>
      <trkpt lat="47.03951" lon="-1.83554">
        <ele>35.33</ele>
        <time>2020-06-06T08:27:03Z</time>
      </trkpt>
      <trkpt lat="47.03937" lon="-1.83552">
        <ele>35.02</ele>
        <time>2020-06-06T08:27:05Z</time>
      </trkpt>
      <trkpt lat="47.03922" lon="-1.8355">
        <ele>35.13</ele>
        <time>2020-06-06T08:27:07Z</time>
      </trkpt>
      <trkpt lat="47.03908" lon="-1.83548">
        <ele>35.05</ele>
        <time>2020-06-06T08:27:09Z</time>
      </trkpt>
      <trkpt lat="47.03895" lon="-1.83547">
        <ele>35.22</ele>
        <time>2020-06-06T08:27:11Z</time>
      </trkpt>
      <trkpt lat="47.03882" lon="-1.83545">
        <ele>35.01</ele>
        <time>2020-06-06T08:27:13Z</time>
      </trkpt>
      <trkpt lat="47.03869" lon="-1.83543">
        <ele>34.3</ele>
        <time>2020-06-06T08:27:15Z</time>
      </trkpt>
      <trkpt lat="47.03854" lon="-1.83541">
        <ele>33.08</ele>
        <time>2020-06-06T08:27:17Z</time>
      </trkpt>
      <trkpt lat="47.03841" lon="-1.83539">
        <ele>32.01</ele>
        <time>2020-06-06T08:27:19Z</time>
      </trkpt>
      <trkpt lat="47.03827" lon="-1.83537">
        <ele>32.18</ele>
        <time>2020-06-06T08:27:21Z</time>
      </trkpt>
      <trkpt lat="47.03815" lon="-1.83535">
        <ele>32.87</ele>
        <time>2020-06-06T08:27:23Z</time>
      </trkpt>
      <trkpt lat="47.03802" lon="-1.83534">
        <ele>33.64</ele>
        <time>2020-06-06T08:27:25Z</time>
      </trkpt>
      <trkpt lat="47.03786" lon="-1.83534">
        <ele>33.36</ele>
        <time>2020-06-06T08:27:27Z</time>
      </trkpt>
      <trkpt lat="47.03773" lon="-1.83535">
        <ele>32.7</ele>
        <time>2020-06-06T08:27:29Z</time>
      </trkpt>
      <trkpt lat="47.0376" lon="-1.83535">
        <ele>32.29</ele>
        <time>2020-06-06T08:27:31Z</time>
      </trkpt>
      <trkpt lat="47.03745" lon="-1.83535">
        <ele>32.1</ele>
        <time>2020-06-06T08:27:33Z</time>
      </trkpt>
      <trkpt lat="47.03732" lon="-1.83535">
        <ele>32.66</ele>
        <time>2020-06-06T08:27:35Z</time>
      </trkpt>
      <trkpt lat="47.03719" lon="-1.83535">
        <ele>32.96</ele>
        <time>2020-06-06T08:27:37Z</time>
      </trkpt>
      <trkpt lat="47.03705" lon="-1.83535">
        <ele>33.57</ele>
        <time>2020-06-06T08:27:39Z</time>
      </trkpt>
      <trkpt lat="47.03692" lon="-1.83535">
        <ele>34.24</ele>
        <time>2020-06-06T08:27:41Z</time>
      </trkpt>
      <trkpt lat="47.03678" lon="-1.83535">
        <ele>34.97</ele>
        <time>2020-06-06T08:27:43Z</time>
      </trkpt>
      <trkpt lat="47.03663" lon="-1.83536">
        <ele>35.8</ele>
        <time>2020-06-06T08:27:45Z</time>
      </trkpt>
      <trkpt lat="47.0365" lon="-1.83536">
        <ele>36.3</ele>
        <time>2020-06-06T08:27:47Z</time>
      </trkpt>
      <trkpt lat="47.03636" lon="-1.83536">
        <ele>36.1</ele>
        <time>2020-06-06T08:27:49Z</time>
      </trkpt>
      <trkpt lat="47.03622" lon="-1.83537">
        <ele>35.4</ele>
        <time>2020-06-06T08:27:51Z</time>
      </trkpt>
      <trkpt lat="47.03606" lon="-1.83537">
        <ele>35.47</ele>
        <time>2020-06-06T08:27:53Z</time>
      </trkpt>
      <trkpt lat="47.03592" lon="-1.83538">
        <ele>35.29</ele>
        <time>2020-06-06T08:27:55Z</time>
      </trkpt>
      <trkpt lat="47.03579" lon="-1.83537">
        <ele>34.81</ele>
        <time>2020-06-06T08:27:57Z</time>
      </trkpt>
      <trkpt lat="47.03565" lon="-1.83538">
        <ele>34.47</ele>
        <time>2020-06-06T08:27:59Z</time>
      </trkpt>
      <trkpt lat="47.0355" lon="-1.83539">
        <ele>34.53</ele>
        <time>2020-06-06T08:28:01Z</time>
      </trkpt>
      <trkpt lat="47.03536" lon="-1.83539">
        <ele>33.75</ele>
        <time>2020-06-06T08:28:03Z</time>
      </trkpt>
      <trkpt lat="47.03521" lon="-1.83539">
        <ele>32.96</ele>
        <time>2020-06-06T08:28:05Z</time>
      </trkpt>
      <trkpt lat="47.03507" lon="-1.83538">
        <ele>32.51</ele>
        <time>2020-06-06T08:28:07Z</time>
      </trkpt>
      <trkpt lat="47.03494" lon="-1.83536">
        <ele>31.41</ele>
        <time>2020-06-06T08:28:09Z</time>
      </trkpt>
      <trkpt lat="47.03479" lon="-1.83534">
        <ele>31.04</ele>
        <time>2020-06-06T08:28:11Z</time>
      </trkpt>
      <trkpt lat="47.03464" lon="-1.8353">
        <ele>31.41</ele>
        <time>2020-06-06T08:28:13Z</time>
      </trkpt>
      <trkpt lat="47.0345" lon="-1.83526">
        <ele>31.74</ele>
        <time>2020-06-06T08:28:15Z</time>
      </trkpt>
      <trkpt lat="47.03434" lon="-1.83521">
        <ele>32.6</ele>
        <time>2020-06-06T08:28:17Z</time>
      </trkpt>
      <trkpt lat="47.03419" lon="-1.83516">
        <ele>32.83</ele>
        <time>2020-06-06T08:28:19Z</time>
      </trkpt>
      <trkpt lat="47.03403" lon="-1.83511">
        <ele>32.56</ele>
        <time>2020-06-06T08:28:21Z</time>
      </trkpt>
      <trkpt lat="47.03388" lon="-1.83507">
        <ele>31.65</ele>
        <time>2020-06-06T08:28:23Z</time>
      </trkpt>
      <trkpt lat="47.03374" lon="-1.83503">
        <ele>31.42</ele>
        <time>2020-06-06T08:28:25Z</time>
      </trkpt>
      <trkpt lat="47.03358" lon="-1.83498">
        <ele>31.54</ele>
        <time>2020-06-06T08:28:27Z</time>
      </trkpt>
      <trkpt lat="47.03344" lon="-1.83494">
        <ele>31.28</ele>
        <time>2020-06-06T08:28:29Z</time>
      </trkpt>
      <trkpt lat="47.03331" lon="-1.83491">
        <ele>29.97</ele>
        <time>2020-06-06T08:28:31Z</time>
      </trkpt>
      <trkpt lat="47.03316" lon="-1.83486">
        <ele>29.27</ele>
        <time>2020-06-06T08:28:33Z</time>
      </trkpt>
      <trkpt lat="47.03302" lon="-1.83483">
        <ele>28.2</ele>
        <time>2020-06-06T08:28:35Z</time>
      </trkpt>
      <trkpt lat="47.03287" lon="-1.83479">
        <ele>28.04</ele>
        <time>2020-06-06T08:28:37Z</time>
      </trkpt>
      <trkpt lat="47.03274" lon="-1.83475">
        <ele>29.12</ele>
        <time>2020-06-06T08:28:39Z</time>
      </trkpt>
      <trkpt lat="47.03261" lon="-1.83471">
        <ele>29.39</ele>
        <time>2020-06-06T08:28:41Z</time>
      </trkpt>
      <trkpt lat="47.03247" lon="-1.83468">
        <ele>29.5</ele>
        <time>2020-06-06T08:28:43Z</time>
      </trkpt>
      <trkpt lat="47.03232" lon="-1.83464">
        <ele>29.37</ele>
        <time>2020-06-06T08:28:45Z</time>
      </trkpt>
      <trkpt lat="47.03219" lon="-1.8346">
        <ele>29.36</ele>
        <time>2020-06-06T08:28:47Z</time>
      </trkpt>
      <trkpt lat="47.03206" lon="-1.83457">
        <ele>28.86</ele>
        <time>2020-06-06T08:28:49Z</time>
      </trkpt>
      <trkpt lat="47.03193" lon="-1.83453">
        <ele>28.97</ele>
        <time>2020-06-06T08:28:51Z</time>
      </trkpt>
      <trkpt lat="47.03181" lon="-1.8345">
        <ele>29.34</ele>
        <time>2020-06-06T08:28:53Z</time>
      </trkpt>
      <trkpt lat="47.0317" lon="-1.83449">
        <ele>28.51</ele>
        <time>2020-06-06T08:28:55Z</time>
      </trkpt>
      <trkpt lat="47.03165" lon="-1.83427">
        <ele>27.11</ele>
        <time>2020-06-06T08:28:58Z</time>
      </trkpt>
      <trkpt lat="47.03164" lon="-1.83405">
        <ele>26.82</ele>
        <time>2020-06-06T08:29:00Z</time>
      </trkpt>
      <trkpt lat="47.03163" lon="-1.83382">
        <ele>26.92</ele>
        <time>2020-06-06T08:29:02Z</time>
      </trkpt>
      <trkpt lat="47.03161" lon="-1.83362">
        <ele>27.19</ele>
        <time>2020-06-06T08:29:04Z</time>
      </trkpt>
      <trkpt lat="47.03156" lon="-1.83341">
        <ele>26.88</ele>
        <time>2020-06-06T08:29:06Z</time>
      </trkpt>
      <trkpt lat="47.03151" lon="-1.83322">
        <ele>26.82</ele>
        <time>2020-06-06T08:29:08Z</time>
      </trkpt>
      <trkpt lat="47.03144" lon="-1.833">
        <ele>26.91</ele>
        <time>2020-06-06T08:29:10Z</time>
      </trkpt>
      <trkpt lat="47.03136" lon="-1.83279">
        <ele>26.79</ele>
        <time>2020-06-06T08:29:12Z</time>
      </trkpt>
      <trkpt lat="47.03129" lon="-1.8326">
        <ele>26.51</ele>
        <time>2020-06-06T08:29:14Z</time>
      </trkpt>
      <trkpt lat="47.03121" lon="-1.83238">
        <ele>27.09</ele>
        <time>2020-06-06T08:29:16Z</time>
      </trkpt>
      <trkpt lat="47.03114" lon="-1.83217">
        <ele>27.31</ele>
        <time>2020-06-06T08:29:18Z</time>
      </trkpt>
      <trkpt lat="47.03107" lon="-1.83197">
        <ele>27.66</ele>
        <time>2020-06-06T08:29:20Z</time>
      </trkpt>
      <trkpt lat="47.03103" lon="-1.83185">
        <ele>27.55</ele>
        <time>2020-06-06T08:29:21Z</time>
      </trkpt>
      <trkpt lat="47.03096" lon="-1.83164">
        <ele>26.34</ele>
        <time>2020-06-06T08:29:23Z</time>
      </trkpt>
      <trkpt lat="47.0309" lon="-1.83145">
        <ele>25.09</ele>
        <time>2020-06-06T08:29:25Z</time>
      </trkpt>
      <trkpt lat="47.03082" lon="-1.83123">
        <ele>25.14</ele>
        <time>2020-06-06T08:29:27Z</time>
      </trkpt>
      <trkpt lat="47.03078" lon="-1.83111">
        <ele>24.82</ele>
        <time>2020-06-06T08:29:28Z</time>
      </trkpt>
      <trkpt lat="47.03071" lon="-1.83091">
        <ele>24.02</ele>
        <time>2020-06-06T08:29:30Z</time>
      </trkpt>
      <trkpt lat="47.03064" lon="-1.83072">
        <ele>23.42</ele>
        <time>2020-06-06T08:29:32Z</time>
      </trkpt>
      <trkpt lat="47.03055" lon="-1.83053">
        <ele>23.25</ele>
        <time>2020-06-06T08:29:34Z</time>
      </trkpt>
      <trkpt lat="47.03047" lon="-1.83036">
        <ele>22.74</ele>
        <time>2020-06-06T08:29:36Z</time>
      </trkpt>
      <trkpt lat="47.03036" lon="-1.83016">
        <ele>22.22</ele>
        <time>2020-06-06T08:29:38Z</time>
      </trkpt>
      <trkpt lat="47.03027" lon="-1.82999">
        <ele>21.61</ele>
        <time>2020-06-06T08:29:40Z</time>
      </trkpt>
      <trkpt lat="47.03017" lon="-1.8298">
        <ele>22.18</ele>
        <time>2020-06-06T08:29:42Z</time>
      </trkpt>
      <trkpt lat="47.03008" lon="-1.82962">
        <ele>22.3</ele>
        <time>2020-06-06T08:29:44Z</time>
      </trkpt>
      <trkpt lat="47.02997" lon="-1.82942">
        <ele>22.96</ele>
        <time>2020-06-06T08:29:46Z</time>
      </trkpt>
      <trkpt lat="47.02988" lon="-1.82925">
        <ele>23.37</ele>
        <time>2020-06-06T08:29:48Z</time>
      </trkpt>
      <trkpt lat="47.02979" lon="-1.82907">
        <ele>23.58</ele>
        <time>2020-06-06T08:29:50Z</time>
      </trkpt>
      <trkpt lat="47.0297" lon="-1.82888">
        <ele>23.39</ele>
        <time>2020-06-06T08:29:52Z</time>
      </trkpt>
      <trkpt lat="47.02962" lon="-1.82869">
        <ele>22.9</ele>
        <time>2020-06-06T08:29:54Z</time>
      </trkpt>
      <trkpt lat="47.02953" lon="-1.82849">
        <ele>22.24</ele>
        <time>2020-06-06T08:29:56Z</time>
      </trkpt>
      <trkpt lat="47.02946" lon="-1.82831">
        <ele>22.59</ele>
        <time>2020-06-06T08:29:58Z</time>
      </trkpt>
      <trkpt lat="47.02941" lon="-1.82819">
        <ele>22.38</ele>
        <time>2020-06-06T08:29:59Z</time>
      </trkpt>
      <trkpt lat="47.02934" lon="-1.82801">
        <ele>21.99</ele>
        <time>2020-06-06T08:30:01Z</time>
      </trkpt>
      <trkpt lat="47.02926" lon="-1.82781">
        <ele>21.92</ele>
        <time>2020-06-06T08:30:03Z</time>
      </trkpt>
      <trkpt lat="47.02919" lon="-1.82764">
        <ele>21.45</ele>
        <time>2020-06-06T08:30:05Z</time>
      </trkpt>
      <trkpt lat="47.02911" lon="-1.82743">
        <ele>21.34</ele>
        <time>2020-06-06T08:30:07Z</time>
      </trkpt>
      <trkpt lat="47.02904" lon="-1.82725">
        <ele>21.31</ele>
        <time>2020-06-06T08:30:09Z</time>
      </trkpt>
      <trkpt lat="47.02898" lon="-1.82707">
        <ele>21.42</ele>
        <time>2020-06-06T08:30:11Z</time>
      </trkpt>
      <trkpt lat="47.0289" lon="-1.82688">
        <ele>21.36</ele>
        <time>2020-06-06T08:30:13Z</time>
      </trkpt>
      <trkpt lat="47.02884" lon="-1.82671">
        <ele>21.71</ele>
        <time>2020-06-06T08:30:15Z</time>
      </trkpt>
      <trkpt lat="47.02877" lon="-1.82653">
        <ele>21.26</ele>
        <time>2020-06-06T08:30:17Z</time>
      </trkpt>
      <trkpt lat="47.0287" lon="-1.82635">
        <ele>20.72</ele>
        <time>2020-06-06T08:30:19Z</time>
      </trkpt>
      <trkpt lat="47.02862" lon="-1.82618">
        <ele>20.45</ele>
        <time>2020-06-06T08:30:21Z</time>
      </trkpt>
      <trkpt lat="47.02854" lon="-1.82602">
        <ele>20.3</ele>
        <time>2020-06-06T08:30:23Z</time>
      </trkpt>
      <trkpt lat="47.02846" lon="-1.82588">
        <ele>20.03</ele>
        <time>2020-06-06T08:30:25Z</time>
      </trkpt>
      <trkpt lat="47.02837" lon="-1.82572">
        <ele>19.88</ele>
        <time>2020-06-06T08:30:27Z</time>
      </trkpt>
      <trkpt lat="47.0283" lon="-1.82558">
        <ele>19.79</ele>
        <time>2020-06-06T08:30:29Z</time>
      </trkpt>
      <trkpt lat="47.02821" lon="-1.82543">
        <ele>20.28</ele>
        <time>2020-06-06T08:30:31Z</time>
      </trkpt>
      <trkpt lat="47.02814" lon="-1.82529">
        <ele>20.31</ele>
        <time>2020-06-06T08:30:33Z</time>
      </trkpt>
      <trkpt lat="47.02806" lon="-1.82517">
        <ele>21.79</ele>
        <time>2020-06-06T08:30:35Z</time>
      </trkpt>
      <trkpt lat="47.02797" lon="-1.82503">
        <ele>22.14</ele>
        <time>2020-06-06T08:30:37Z</time>
      </trkpt>
      <trkpt lat="47.02787" lon="-1.82488">
        <ele>22.23</ele>
        <time>2020-06-06T08:30:39Z</time>
      </trkpt>
      <trkpt lat="47.0278" lon="-1.82477">
        <ele>22.26</ele>
        <time>2020-06-06T08:30:41Z</time>
      </trkpt>
      <trkpt lat="47.02774" lon="-1.82466">
        <ele>22.67</ele>
        <time>2020-06-06T08:30:43Z</time>
      </trkpt>
      <trkpt lat="47.02766" lon="-1.82454">
        <ele>22.69</ele>
        <time>2020-06-06T08:30:45Z</time>
      </trkpt>
      <trkpt lat="47.02756" lon="-1.82439">
        <ele>23.14</ele>
        <time>2020-06-06T08:30:47Z</time>
      </trkpt>
      <trkpt lat="47.02747" lon="-1.82424">
        <ele>24.3</ele>
        <time>2020-06-06T08:30:50Z</time>
      </trkpt>
      <trkpt lat="47.0274" lon="-1.82412">
        <ele>25.85</ele>
        <time>2020-06-06T08:30:52Z</time>
      </trkpt>
      <trkpt lat="47.02731" lon="-1.82398">
        <ele>26.66</ele>
        <time>2020-06-06T08:30:54Z</time>
      </trkpt>
      <trkpt lat="47.02722" lon="-1.82385">
        <ele>26.21</ele>
        <time>2020-06-06T08:30:56Z</time>
      </trkpt>
      <trkpt lat="47.02713" lon="-1.82373">
        <ele>26.45</ele>
        <time>2020-06-06T08:30:58Z</time>
      </trkpt>
      <trkpt lat="47.02703" lon="-1.82359">
        <ele>26.55</ele>
        <time>2020-06-06T08:31:00Z</time>
      </trkpt>
      <trkpt lat="47.02695" lon="-1.82347">
        <ele>27.42</ele>
        <time>2020-06-06T08:31:02Z</time>
      </trkpt>
      <trkpt lat="47.02688" lon="-1.82337">
        <ele>28.03</ele>
        <time>2020-06-06T08:31:04Z</time>
      </trkpt>
      <trkpt lat="47.0268" lon="-1.82323">
        <ele>28.4</ele>
        <time>2020-06-06T08:31:06Z</time>
      </trkpt>
      <trkpt lat="47.02673" lon="-1.82312">
        <ele>28.45</ele>
        <time>2020-06-06T08:31:08Z</time>
      </trkpt>
      <trkpt lat="47.02663" lon="-1.82298">
        <ele>28.75</ele>
        <time>2020-06-06T08:31:10Z</time>
      </trkpt>
      <trkpt lat="47.02655" lon="-1.82286">
        <ele>29.41</ele>
        <time>2020-06-06T08:31:12Z</time>
      </trkpt>
      <trkpt lat="47.02646" lon="-1.82272">
        <ele>29.43</ele>
        <time>2020-06-06T08:31:14Z</time>
      </trkpt>
      <trkpt lat="47.02639" lon="-1.82259">
        <ele>29.68</ele>
        <time>2020-06-06T08:31:16Z</time>
      </trkpt>
      <trkpt lat="47.02633" lon="-1.82244">
        <ele>29.17</ele>
        <time>2020-06-06T08:31:18Z</time>
      </trkpt>
      <trkpt lat="47.02627" lon="-1.82227">
        <ele>28.96</ele>
        <time>2020-06-06T08:31:20Z</time>
      </trkpt>
      <trkpt lat="47.0262" lon="-1.82208">
        <ele>28.82</ele>
        <time>2020-06-06T08:31:22Z</time>
      </trkpt>
      <trkpt lat="47.02615" lon="-1.82192">
        <ele>28.59</ele>
        <time>2020-06-06T08:31:24Z</time>
      </trkpt>
      <trkpt lat="47.02609" lon="-1.82176">
        <ele>27.94</ele>
        <time>2020-06-06T08:31:26Z</time>
      </trkpt>
      <trkpt lat="47.02604" lon="-1.82162">
        <ele>27.95</ele>
        <time>2020-06-06T08:31:28Z</time>
      </trkpt>
      <trkpt lat="47.02599" lon="-1.82146">
        <ele>28.31</ele>
        <time>2020-06-06T08:31:30Z</time>
      </trkpt>
      <trkpt lat="47.02595" lon="-1.82133">
        <ele>28.42</ele>
        <time>2020-06-06T08:31:32Z</time>
      </trkpt>
      <trkpt lat="47.0259" lon="-1.82119">
        <ele>28.96</ele>
        <time>2020-06-06T08:31:34Z</time>
      </trkpt>
      <trkpt lat="47.02585" lon="-1.82102">
        <ele>29.13</ele>
        <time>2020-06-06T08:31:36Z</time>
      </trkpt>
      <trkpt lat="47.02579" lon="-1.82087">
        <ele>28.64</ele>
        <time>2020-06-06T08:31:38Z</time>
      </trkpt>
      <trkpt lat="47.02575" lon="-1.82075">
        <ele>28.09</ele>
        <time>2020-06-06T08:31:41Z</time>
      </trkpt>
      <trkpt lat="47.0257" lon="-1.8206">
        <ele>26.85</ele>
        <time>2020-06-06T08:31:44Z</time>
      </trkpt>
      <trkpt lat="47.02565" lon="-1.8204">
        <ele>27.02</ele>
        <time>2020-06-06T08:31:46Z</time>
      </trkpt>
      <trkpt lat="47.02561" lon="-1.82027">
        <ele>27.09</ele>
        <time>2020-06-06T08:31:47Z</time>
      </trkpt>
      <trkpt lat="47.02554" lon="-1.82007">
        <ele>27.34</ele>
        <time>2020-06-06T08:31:49Z</time>
      </trkpt>
      <trkpt lat="47.02548" lon="-1.81989">
        <ele>27.33</ele>
        <time>2020-06-06T08:31:51Z</time>
      </trkpt>
      <trkpt lat="47.02541" lon="-1.8197">
        <ele>27.62</ele>
        <time>2020-06-06T08:31:53Z</time>
      </trkpt>
      <trkpt lat="47.02533" lon="-1.8195">
        <ele>27.74</ele>
        <time>2020-06-06T08:31:55Z</time>
      </trkpt>
      <trkpt lat="47.02526" lon="-1.81929">
        <ele>27.81</ele>
        <time>2020-06-06T08:31:57Z</time>
      </trkpt>
      <trkpt lat="47.02519" lon="-1.8191">
        <ele>27.35</ele>
        <time>2020-06-06T08:31:59Z</time>
      </trkpt>
      <trkpt lat="47.02511" lon="-1.8189">
        <ele>26.6</ele>
        <time>2020-06-06T08:32:01Z</time>
      </trkpt>
      <trkpt lat="47.02503" lon="-1.81867">
        <ele>25.53</ele>
        <time>2020-06-06T08:32:03Z</time>
      </trkpt>
      <trkpt lat="47.02495" lon="-1.81846">
        <ele>24.81</ele>
        <time>2020-06-06T08:32:05Z</time>
      </trkpt>
      <trkpt lat="47.02489" lon="-1.81825">
        <ele>24.83</ele>
        <time>2020-06-06T08:32:07Z</time>
      </trkpt>
      <trkpt lat="47.02482" lon="-1.81803">
        <ele>25.05</ele>
        <time>2020-06-06T08:32:09Z</time>
      </trkpt>
      <trkpt lat="47.02475" lon="-1.81782">
        <ele>25.35</ele>
        <time>2020-06-06T08:32:11Z</time>
      </trkpt>
      <trkpt lat="47.02468" lon="-1.8176">
        <ele>25.45</ele>
        <time>2020-06-06T08:32:13Z</time>
      </trkpt>
      <trkpt lat="47.02461" lon="-1.8174">
        <ele>25.6</ele>
        <time>2020-06-06T08:32:15Z</time>
      </trkpt>
      <trkpt lat="47.02455" lon="-1.81721">
        <ele>24.51</ele>
        <time>2020-06-06T08:32:17Z</time>
      </trkpt>
      <trkpt lat="47.02447" lon="-1.81699">
        <ele>23.28</ele>
        <time>2020-06-06T08:32:19Z</time>
      </trkpt>
      <trkpt lat="47.02441" lon="-1.81681">
        <ele>22.68</ele>
        <time>2020-06-06T08:32:21Z</time>
      </trkpt>
      <trkpt lat="47.02434" lon="-1.8166">
        <ele>22.4</ele>
        <time>2020-06-06T08:32:23Z</time>
      </trkpt>
      <trkpt lat="47.02428" lon="-1.81642">
        <ele>21.9</ele>
        <time>2020-06-06T08:32:25Z</time>
      </trkpt>
      <trkpt lat="47.02422" lon="-1.81621">
        <ele>21.69</ele>
        <time>2020-06-06T08:32:27Z</time>
      </trkpt>
      <trkpt lat="47.02416" lon="-1.81604">
        <ele>22.33</ele>
        <time>2020-06-06T08:32:29Z</time>
      </trkpt>
      <trkpt lat="47.0241" lon="-1.81583">
        <ele>23.51</ele>
        <time>2020-06-06T08:32:31Z</time>
      </trkpt>
      <trkpt lat="47.02404" lon="-1.81564">
        <ele>23.48</ele>
        <time>2020-06-06T08:32:33Z</time>
      </trkpt>
      <trkpt lat="47.02398" lon="-1.81545">
        <ele>22.98</ele>
        <time>2020-06-06T08:32:35Z</time>
      </trkpt>
      <trkpt lat="47.02391" lon="-1.81525">
        <ele>23.2</ele>
        <time>2020-06-06T08:32:37Z</time>
      </trkpt>
      <trkpt lat="47.02383" lon="-1.81505">
        <ele>23.04</ele>
        <time>2020-06-06T08:32:39Z</time>
      </trkpt>
      <trkpt lat="47.02375" lon="-1.81482">
        <ele>22.98</ele>
        <time>2020-06-06T08:32:41Z</time>
      </trkpt>
      <trkpt lat="47.02367" lon="-1.8146">
        <ele>22.99</ele>
        <time>2020-06-06T08:32:43Z</time>
      </trkpt>
      <trkpt lat="47.0236" lon="-1.8144">
        <ele>22.6</ele>
        <time>2020-06-06T08:32:45Z</time>
      </trkpt>
      <trkpt lat="47.02353" lon="-1.8142">
        <ele>22.62</ele>
        <time>2020-06-06T08:32:47Z</time>
      </trkpt>
      <trkpt lat="47.02345" lon="-1.81399">
        <ele>22.89</ele>
        <time>2020-06-06T08:32:49Z</time>
      </trkpt>
      <trkpt lat="47.02337" lon="-1.81376">
        <ele>23.05</ele>
        <time>2020-06-06T08:32:51Z</time>
      </trkpt>
      <trkpt lat="47.0233" lon="-1.81356">
        <ele>22.35</ele>
        <time>2020-06-06T08:32:53Z</time>
      </trkpt>
      <trkpt lat="47.02323" lon="-1.81333">
        <ele>21.46</ele>
        <time>2020-06-06T08:32:55Z</time>
      </trkpt>
      <trkpt lat="47.02315" lon="-1.8131">
        <ele>19.81</ele>
        <time>2020-06-06T08:32:57Z</time>
      </trkpt>
      <trkpt lat="47.02311" lon="-1.81298">
        <ele>19.16</ele>
        <time>2020-06-06T08:32:58Z</time>
      </trkpt>
      <trkpt lat="47.02303" lon="-1.81274">
        <ele>17.36</ele>
        <time>2020-06-06T08:33:00Z</time>
      </trkpt>
      <trkpt lat="47.02296" lon="-1.81252">
        <ele>15.95</ele>
        <time>2020-06-06T08:33:02Z</time>
      </trkpt>
      <trkpt lat="47.02289" lon="-1.8123">
        <ele>14.78</ele>
        <time>2020-06-06T08:33:04Z</time>
      </trkpt>
      <trkpt lat="47.02281" lon="-1.81207">
        <ele>14.44</ele>
        <time>2020-06-06T08:33:06Z</time>
      </trkpt>
      <trkpt lat="47.02274" lon="-1.81188">
        <ele>15.03</ele>
        <time>2020-06-06T08:33:08Z</time>
      </trkpt>
      <trkpt lat="47.02267" lon="-1.81168">
        <ele>15.4</ele>
        <time>2020-06-06T08:33:10Z</time>
      </trkpt>
      <trkpt lat="47.02261" lon="-1.81147">
        <ele>15.72</ele>
        <time>2020-06-06T08:33:12Z</time>
      </trkpt>
      <trkpt lat="47.02254" lon="-1.81127">
        <ele>15.49</ele>
        <time>2020-06-06T08:33:14Z</time>
      </trkpt>
      <trkpt lat="47.02247" lon="-1.81109">
        <ele>14.9</ele>
        <time>2020-06-06T08:33:16Z</time>
      </trkpt>
      <trkpt lat="47.02241" lon="-1.81092">
        <ele>14.64</ele>
        <time>2020-06-06T08:33:18Z</time>
      </trkpt>
      <trkpt lat="47.02235" lon="-1.81075">
        <ele>14.5</ele>
        <time>2020-06-06T08:33:20Z</time>
      </trkpt>
      <trkpt lat="47.02227" lon="-1.81056">
        <ele>14.98</ele>
        <time>2020-06-06T08:33:22Z</time>
      </trkpt>
      <trkpt lat="47.0222" lon="-1.81042">
        <ele>15.32</ele>
        <time>2020-06-06T08:33:24Z</time>
      </trkpt>
      <trkpt lat="47.02211" lon="-1.81027">
        <ele>16.31</ele>
        <time>2020-06-06T08:33:26Z</time>
      </trkpt>
      <trkpt lat="47.02202" lon="-1.81011">
        <ele>17.15</ele>
        <time>2020-06-06T08:33:28Z</time>
      </trkpt>
      <trkpt lat="47.02193" lon="-1.80995">
        <ele>17.57</ele>
        <time>2020-06-06T08:33:30Z</time>
      </trkpt>
      <trkpt lat="47.02185" lon="-1.80979">
        <ele>18.02</ele>
        <time>2020-06-06T08:33:32Z</time>
      </trkpt>
      <trkpt lat="47.02177" lon="-1.80967">
        <ele>18.96</ele>
        <time>2020-06-06T08:33:34Z</time>
      </trkpt>
      <trkpt lat="47.02169" lon="-1.80953">
        <ele>20.19</ele>
        <time>2020-06-06T08:33:36Z</time>
      </trkpt>
      <trkpt lat="47.02162" lon="-1.8094">
        <ele>20.3</ele>
        <time>2020-06-06T08:33:38Z</time>
      </trkpt>
      <trkpt lat="47.02153" lon="-1.80924">
        <ele>20.14</ele>
        <time>2020-06-06T08:33:40Z</time>
      </trkpt>
      <trkpt lat="47.02146" lon="-1.80911">
        <ele>20.3</ele>
        <time>2020-06-06T08:33:42Z</time>
      </trkpt>
      <trkpt lat="47.02138" lon="-1.80897">
        <ele>20.17</ele>
        <time>2020-06-06T08:33:44Z</time>
      </trkpt>
      <trkpt lat="47.0213" lon="-1.80882">
        <ele>21.13</ele>
        <time>2020-06-06T08:33:46Z</time>
      </trkpt>
      <trkpt lat="47.02124" lon="-1.80868">
        <ele>21.57</ele>
        <time>2020-06-06T08:33:48Z</time>
      </trkpt>
      <trkpt lat="47.02119" lon="-1.80853">
        <ele>21.55</ele>
        <time>2020-06-06T08:33:50Z</time>
      </trkpt>
      <trkpt lat="47.02114" lon="-1.80835">
        <ele>21.84</ele>
        <time>2020-06-06T08:33:52Z</time>
      </trkpt>
      <trkpt lat="47.02112" lon="-1.80817">
        <ele>22.04</ele>
        <time>2020-06-06T08:33:54Z</time>
      </trkpt>
      <trkpt lat="47.02112" lon="-1.80801">
        <ele>22.78</ele>
        <time>2020-06-06T08:33:56Z</time>
      </trkpt>
      <trkpt lat="47.02112" lon="-1.80781">
        <ele>23.15</ele>
        <time>2020-06-06T08:33:58Z</time>
      </trkpt>
      <trkpt lat="47.02112" lon="-1.80762">
        <ele>22.52</ele>
        <time>2020-06-06T08:34:00Z</time>
      </trkpt>
      <trkpt lat="47.02112" lon="-1.80746">
        <ele>22.99</ele>
        <time>2020-06-06T08:34:02Z</time>
      </trkpt>
      <trkpt lat="47.02111" lon="-1.80726">
        <ele>23.05</ele>
        <time>2020-06-06T08:34:04Z</time>
      </trkpt>
      <trkpt lat="47.02112" lon="-1.80704">
        <ele>22.92</ele>
        <time>2020-06-06T08:34:06Z</time>
      </trkpt>
      <trkpt lat="47.02112" lon="-1.80685">
        <ele>23.36</ele>
        <time>2020-06-06T08:34:08Z</time>
      </trkpt>
      <trkpt lat="47.02112" lon="-1.80664">
        <ele>22.4</ele>
        <time>2020-06-06T08:34:10Z</time>
      </trkpt>
      <trkpt lat="47.02112" lon="-1.80643">
        <ele>21.79</ele>
        <time>2020-06-06T08:34:12Z</time>
      </trkpt>
      <trkpt lat="47.02112" lon="-1.80623">
        <ele>22.56</ele>
        <time>2020-06-06T08:34:14Z</time>
      </trkpt>
      <trkpt lat="47.02111" lon="-1.80599">
        <ele>22.49</ele>
        <time>2020-06-06T08:34:16Z</time>
      </trkpt>
      <trkpt lat="47.02111" lon="-1.80576">
        <ele>21.37</ele>
        <time>2020-06-06T08:34:18Z</time>
      </trkpt>
      <trkpt lat="47.02111" lon="-1.80551">
        <ele>21.09</ele>
        <time>2020-06-06T08:34:20Z</time>
      </trkpt>
      <trkpt lat="47.02111" lon="-1.80527">
        <ele>21.12</ele>
        <time>2020-06-06T08:34:22Z</time>
      </trkpt>
      <trkpt lat="47.02111" lon="-1.80514">
        <ele>21.12</ele>
        <time>2020-06-06T08:34:23Z</time>
      </trkpt>
      <trkpt lat="47.02111" lon="-1.80491">
        <ele>21.33</ele>
        <time>2020-06-06T08:34:25Z</time>
      </trkpt>
      <trkpt lat="47.02111" lon="-1.80477">
        <ele>20.96</ele>
        <time>2020-06-06T08:34:26Z</time>
      </trkpt>
      <trkpt lat="47.0211" lon="-1.80451">
        <ele>20.09</ele>
        <time>2020-06-06T08:34:28Z</time>
      </trkpt>
      <trkpt lat="47.02109" lon="-1.80426">
        <ele>18.61</ele>
        <time>2020-06-06T08:34:30Z</time>
      </trkpt>
      <trkpt lat="47.02108" lon="-1.80401">
        <ele>16.96</ele>
        <time>2020-06-06T08:34:32Z</time>
      </trkpt>
      <trkpt lat="47.02107" lon="-1.80374">
        <ele>16.75</ele>
        <time>2020-06-06T08:34:34Z</time>
      </trkpt>
      <trkpt lat="47.02107" lon="-1.80348">
        <ele>17.32</ele>
        <time>2020-06-06T08:34:36Z</time>
      </trkpt>
      <trkpt lat="47.02107" lon="-1.8032">
        <ele>17.54</ele>
        <time>2020-06-06T08:34:38Z</time>
      </trkpt>
      <trkpt lat="47.02107" lon="-1.80305">
        <ele>17.65</ele>
        <time>2020-06-06T08:34:39Z</time>
      </trkpt>
      <trkpt lat="47.02106" lon="-1.80291">
        <ele>17.21</ele>
        <time>2020-06-06T08:34:40Z</time>
      </trkpt>
      <trkpt lat="47.02106" lon="-1.80277">
        <ele>16.9</ele>
        <time>2020-06-06T08:34:41Z</time>
      </trkpt>
      <trkpt lat="47.02106" lon="-1.80264">
        <ele>16.34</ele>
        <time>2020-06-06T08:34:42Z</time>
      </trkpt>
      <trkpt lat="47.02105" lon="-1.8025">
        <ele>15.75</ele>
        <time>2020-06-06T08:34:43Z</time>
      </trkpt>
      <trkpt lat="47.02105" lon="-1.80235">
        <ele>15.32</ele>
        <time>2020-06-06T08:34:44Z</time>
      </trkpt>
      <trkpt lat="47.02105" lon="-1.80213">
        <ele>14.78</ele>
        <time>2020-06-06T08:34:46Z</time>
      </trkpt>
      <trkpt lat="47.02105" lon="-1.80196">
        <ele>14.46</ele>
        <time>2020-06-06T08:34:47Z</time>
      </trkpt>
      <trkpt lat="47.02104" lon="-1.8017">
        <ele>13.69</ele>
        <time>2020-06-06T08:34:49Z</time>
      </trkpt>
      <trkpt lat="47.02104" lon="-1.80157">
        <ele>13.19</ele>
        <time>2020-06-06T08:34:50Z</time>
      </trkpt>
      <trkpt lat="47.02104" lon="-1.8013">
        <ele>12.58</ele>
        <time>2020-06-06T08:34:52Z</time>
      </trkpt>
      <trkpt lat="47.02104" lon="-1.80116">
        <ele>12.08</ele>
        <time>2020-06-06T08:34:53Z</time>
      </trkpt>
      <trkpt lat="47.02103" lon="-1.80093">
        <ele>10.61</ele>
        <time>2020-06-06T08:34:55Z</time>
      </trkpt>
      <trkpt lat="47.02103" lon="-1.8008">
        <ele>10.04</ele>
        <time>2020-06-06T08:34:56Z</time>
      </trkpt>
      <trkpt lat="47.02103" lon="-1.80063">
        <ele>9.54</ele>
        <time>2020-06-06T08:34:57Z</time>
      </trkpt>
      <trkpt lat="47.02103" lon="-1.8004">
        <ele>8.72</ele>
        <time>2020-06-06T08:34:59Z</time>
      </trkpt>
      <trkpt lat="47.02103" lon="-1.80024">
        <ele>8.5</ele>
        <time>2020-06-06T08:35:00Z</time>
      </trkpt>
      <trkpt lat="47.02103" lon="-1.8001">
        <ele>8.02</ele>
        <time>2020-06-06T08:35:01Z</time>
      </trkpt>
      <trkpt lat="47.02101" lon="-1.79985">
        <ele>7.81</ele>
        <time>2020-06-06T08:35:03Z</time>
      </trkpt>
      <trkpt lat="47.02101" lon="-1.79972">
        <ele>6.91</ele>
        <time>2020-06-06T08:35:04Z</time>
      </trkpt>
      <trkpt lat="47.021" lon="-1.79959">
        <ele>6.04</ele>
        <time>2020-06-06T08:35:05Z</time>
      </trkpt>
      <trkpt lat="47.02098" lon="-1.79934">
        <ele>4.66</ele>
        <time>2020-06-06T08:35:07Z</time>
      </trkpt>
      <trkpt lat="47.02095" lon="-1.79909">
        <ele>4.65</ele>
        <time>2020-06-06T08:35:09Z</time>
      </trkpt>
      <trkpt lat="47.02094" lon="-1.79895">
        <ele>4.89</ele>
        <time>2020-06-06T08:35:10Z</time>
      </trkpt>
      <trkpt lat="47.02093" lon="-1.79872">
        <ele>5.45</ele>
        <time>2020-06-06T08:35:12Z</time>
      </trkpt>
      <trkpt lat="47.0209" lon="-1.79848">
        <ele>6.44</ele>
        <time>2020-06-06T08:35:14Z</time>
      </trkpt>
      <trkpt lat="47.02089" lon="-1.79823">
        <ele>6.8</ele>
        <time>2020-06-06T08:35:16Z</time>
      </trkpt>
      <trkpt lat="47.02087" lon="-1.79797">
        <ele>6.58</ele>
        <time>2020-06-06T08:35:18Z</time>
      </trkpt>
      <trkpt lat="47.02086" lon="-1.79774">
        <ele>6.18</ele>
        <time>2020-06-06T08:35:20Z</time>
      </trkpt>
      <trkpt lat="47.02085" lon="-1.7975">
        <ele>6.11</ele>
        <time>2020-06-06T08:35:22Z</time>
      </trkpt>
      <trkpt lat="47.02085" lon="-1.79729">
        <ele>6.93</ele>
        <time>2020-06-06T08:35:24Z</time>
      </trkpt>
      <trkpt lat="47.02085" lon="-1.79707">
        <ele>7.2</ele>
        <time>2020-06-06T08:35:26Z</time>
      </trkpt>
      <trkpt lat="47.02085" lon="-1.79687">
        <ele>6.63</ele>
        <time>2020-06-06T08:35:28Z</time>
      </trkpt>
      <trkpt lat="47.02085" lon="-1.79666">
        <ele>6.01</ele>
        <time>2020-06-06T08:35:30Z</time>
      </trkpt>
      <trkpt lat="47.02085" lon="-1.79645">
        <ele>5.3</ele>
        <time>2020-06-06T08:35:32Z</time>
      </trkpt>
      <trkpt lat="47.02085" lon="-1.79623">
        <ele>5.38</ele>
        <time>2020-06-06T08:35:34Z</time>
      </trkpt>
      <trkpt lat="47.02084" lon="-1.79602">
        <ele>5.89</ele>
        <time>2020-06-06T08:35:36Z</time>
      </trkpt>
      <trkpt lat="47.02084" lon="-1.7958">
        <ele>6.57</ele>
        <time>2020-06-06T08:35:38Z</time>
      </trkpt>
      <trkpt lat="47.02085" lon="-1.79553">
        <ele>7.43</ele>
        <time>2020-06-06T08:35:40Z</time>
      </trkpt>
      <trkpt lat="47.02087" lon="-1.79532">
        <ele>7.78</ele>
        <time>2020-06-06T08:35:42Z</time>
      </trkpt>
      <trkpt lat="47.02088" lon="-1.7951">
        <ele>6.97</ele>
        <time>2020-06-06T08:35:44Z</time>
      </trkpt>
      <trkpt lat="47.02089" lon="-1.79497">
        <ele>6.79</ele>
        <time>2020-06-06T08:35:45Z</time>
      </trkpt>
      <trkpt lat="47.02089" lon="-1.79473">
        <ele>6.24</ele>
        <time>2020-06-06T08:35:47Z</time>
      </trkpt>
      <trkpt lat="47.0209" lon="-1.79449">
        <ele>6</ele>
        <time>2020-06-06T08:35:49Z</time>
      </trkpt>
      <trkpt lat="47.02091" lon="-1.79429">
        <ele>6.48</ele>
        <time>2020-06-06T08:35:51Z</time>
      </trkpt>
      <trkpt lat="47.02091" lon="-1.79414">
        <ele>6.41</ele>
        <time>2020-06-06T08:35:53Z</time>
      </trkpt>
      <trkpt lat="47.02094" lon="-1.794">
        <ele>7.13</ele>
        <time>2020-06-06T08:35:55Z</time>
      </trkpt>
      <trkpt lat="47.02099" lon="-1.79384">
        <ele>7.52</ele>
        <time>2020-06-06T08:35:57Z</time>
      </trkpt>
      <trkpt lat="47.02105" lon="-1.79365">
        <ele>6.9</ele>
        <time>2020-06-06T08:35:59Z</time>
      </trkpt>
      <trkpt lat="47.02109" lon="-1.79345">
        <ele>6.6</ele>
        <time>2020-06-06T08:36:01Z</time>
      </trkpt>
      <trkpt lat="47.02114" lon="-1.79324">
        <ele>6.5</ele>
        <time>2020-06-06T08:36:03Z</time>
      </trkpt>
      <trkpt lat="47.02119" lon="-1.79303">
        <ele>6.52</ele>
        <time>2020-06-06T08:36:05Z</time>
      </trkpt>
      <trkpt lat="47.02124" lon="-1.79283">
        <ele>5.64</ele>
        <time>2020-06-06T08:36:07Z</time>
      </trkpt>
      <trkpt lat="47.02129" lon="-1.79263">
        <ele>4.88</ele>
        <time>2020-06-06T08:36:09Z</time>
      </trkpt>
      <trkpt lat="47.02135" lon="-1.79244">
        <ele>4.62</ele>
        <time>2020-06-06T08:36:11Z</time>
      </trkpt>
      <trkpt lat="47.02141" lon="-1.79223">
        <ele>4.91</ele>
        <time>2020-06-06T08:36:13Z</time>
      </trkpt>
      <trkpt lat="47.02146" lon="-1.79206">
        <ele>6.16</ele>
        <time>2020-06-06T08:36:15Z</time>
      </trkpt>
      <trkpt lat="47.0215" lon="-1.79188">
        <ele>7.28</ele>
        <time>2020-06-06T08:36:17Z</time>
      </trkpt>
      <trkpt lat="47.02155" lon="-1.7917">
        <ele>7.66</ele>
        <time>2020-06-06T08:36:19Z</time>
      </trkpt>
      <trkpt lat="47.02159" lon="-1.7915">
        <ele>7.7</ele>
        <time>2020-06-06T08:36:21Z</time>
      </trkpt>
      <trkpt lat="47.02165" lon="-1.79129">
        <ele>7.16</ele>
        <time>2020-06-06T08:36:23Z</time>
      </trkpt>
      <trkpt lat="47.0217" lon="-1.79112">
        <ele>6.45</ele>
        <time>2020-06-06T08:36:25Z</time>
      </trkpt>
      <trkpt lat="47.02175" lon="-1.79093">
        <ele>6.81</ele>
        <time>2020-06-06T08:36:27Z</time>
      </trkpt>
      <trkpt lat="47.0218" lon="-1.79073">
        <ele>6.95</ele>
        <time>2020-06-06T08:36:29Z</time>
      </trkpt>
      <trkpt lat="47.02186" lon="-1.79056">
        <ele>6.4</ele>
        <time>2020-06-06T08:36:31Z</time>
      </trkpt>
      <trkpt lat="47.02191" lon="-1.79036">
        <ele>5.24</ele>
        <time>2020-06-06T08:36:33Z</time>
      </trkpt>
      <trkpt lat="47.02189" lon="-1.79018">
        <ele>6.23</ele>
        <time>2020-06-06T08:36:35Z</time>
      </trkpt>
      <trkpt lat="47.02183" lon="-1.79004">
        <ele>6.56</ele>
        <time>2020-06-06T08:36:37Z</time>
      </trkpt>
      <trkpt lat="47.02177" lon="-1.78986">
        <ele>5.91</ele>
        <time>2020-06-06T08:36:39Z</time>
      </trkpt>
      <trkpt lat="47.02171" lon="-1.78969">
        <ele>5.1</ele>
        <time>2020-06-06T08:36:41Z</time>
      </trkpt>
      <trkpt lat="47.02165" lon="-1.78951">
        <ele>5.05</ele>
        <time>2020-06-06T08:36:43Z</time>
      </trkpt>
      <trkpt lat="47.02159" lon="-1.78933">
        <ele>4.98</ele>
        <time>2020-06-06T08:36:45Z</time>
      </trkpt>
      <trkpt lat="47.02155" lon="-1.7892">
        <ele>5.03</ele>
        <time>2020-06-06T08:36:47Z</time>
      </trkpt>
      <trkpt lat="47.02149" lon="-1.78902">
        <ele>5.93</ele>
        <time>2020-06-06T08:36:49Z</time>
      </trkpt>
      <trkpt lat="47.02144" lon="-1.78884">
        <ele>6.92</ele>
        <time>2020-06-06T08:36:51Z</time>
      </trkpt>
      <trkpt lat="47.02138" lon="-1.78865">
        <ele>7.42</ele>
        <time>2020-06-06T08:36:53Z</time>
      </trkpt>
      <trkpt lat="47.02134" lon="-1.78851">
        <ele>7.18</ele>
        <time>2020-06-06T08:36:55Z</time>
      </trkpt>
      <trkpt lat="47.02129" lon="-1.78834">
        <ele>7.47</ele>
        <time>2020-06-06T08:36:57Z</time>
      </trkpt>
      <trkpt lat="47.02123" lon="-1.78817">
        <ele>6.93</ele>
        <time>2020-06-06T08:36:59Z</time>
      </trkpt>
      <trkpt lat="47.02118" lon="-1.78801">
        <ele>6.52</ele>
        <time>2020-06-06T08:37:01Z</time>
      </trkpt>
      <trkpt lat="47.02114" lon="-1.78787">
        <ele>6.72</ele>
        <time>2020-06-06T08:37:03Z</time>
      </trkpt>
      <trkpt lat="47.02109" lon="-1.7877">
        <ele>6.91</ele>
        <time>2020-06-06T08:37:05Z</time>
      </trkpt>
      <trkpt lat="47.02105" lon="-1.78757">
        <ele>7.7</ele>
        <time>2020-06-06T08:37:07Z</time>
      </trkpt>
      <trkpt lat="47.02101" lon="-1.7874">
        <ele>8.71</ele>
        <time>2020-06-06T08:37:09Z</time>
      </trkpt>
      <trkpt lat="47.02096" lon="-1.78725">
        <ele>8.35</ele>
        <time>2020-06-06T08:37:11Z</time>
      </trkpt>
      <trkpt lat="47.0209" lon="-1.78709">
        <ele>7.75</ele>
        <time>2020-06-06T08:37:13Z</time>
      </trkpt>
      <trkpt lat="47.02082" lon="-1.78691">
        <ele>7.17</ele>
        <time>2020-06-06T08:37:15Z</time>
      </trkpt>
      <trkpt lat="47.02074" lon="-1.78674">
        <ele>7.32</ele>
        <time>2020-06-06T08:37:17Z</time>
      </trkpt>
      <trkpt lat="47.02065" lon="-1.78658">
        <ele>6.94</ele>
        <time>2020-06-06T08:37:19Z</time>
      </trkpt>
      <trkpt lat="47.02053" lon="-1.78642">
        <ele>6.38</ele>
        <time>2020-06-06T08:37:21Z</time>
      </trkpt>
      <trkpt lat="47.02046" lon="-1.78633">
        <ele>6.14</ele>
        <time>2020-06-06T08:37:22Z</time>
      </trkpt>
      <trkpt lat="47.02033" lon="-1.78617">
        <ele>5.79</ele>
        <time>2020-06-06T08:37:24Z</time>
      </trkpt>
      <trkpt lat="47.02021" lon="-1.78602">
        <ele>6.02</ele>
        <time>2020-06-06T08:37:26Z</time>
      </trkpt>
      <trkpt lat="47.02007" lon="-1.78586">
        <ele>6.02</ele>
        <time>2020-06-06T08:37:28Z</time>
      </trkpt>
      <trkpt lat="47.01994" lon="-1.78572">
        <ele>6.02</ele>
        <time>2020-06-06T08:37:30Z</time>
      </trkpt>
      <trkpt lat="47.01983" lon="-1.78558">
        <ele>5.78</ele>
        <time>2020-06-06T08:37:32Z</time>
      </trkpt>
      <trkpt lat="47.01972" lon="-1.78546">
        <ele>6</ele>
        <time>2020-06-06T08:37:34Z</time>
      </trkpt>
      <trkpt lat="47.01959" lon="-1.78531">
        <ele>6.8</ele>
        <time>2020-06-06T08:37:36Z</time>
      </trkpt>
      <trkpt lat="47.01948" lon="-1.78518">
        <ele>7.32</ele>
        <time>2020-06-06T08:37:38Z</time>
      </trkpt>
      <trkpt lat="47.01937" lon="-1.78504">
        <ele>7.29</ele>
        <time>2020-06-06T08:37:40Z</time>
      </trkpt>
      <trkpt lat="47.01926" lon="-1.78491">
        <ele>6.95</ele>
        <time>2020-06-06T08:37:42Z</time>
      </trkpt>
      <trkpt lat="47.01916" lon="-1.78478">
        <ele>7.39</ele>
        <time>2020-06-06T08:37:44Z</time>
      </trkpt>
      <trkpt lat="47.01907" lon="-1.78467">
        <ele>7.59</ele>
        <time>2020-06-06T08:37:46Z</time>
      </trkpt>
      <trkpt lat="47.01899" lon="-1.78457">
        <ele>7.55</ele>
        <time>2020-06-06T08:37:48Z</time>
      </trkpt>
      <trkpt lat="47.01889" lon="-1.78445">
        <ele>8.32</ele>
        <time>2020-06-06T08:37:50Z</time>
      </trkpt>
      <trkpt lat="47.0188" lon="-1.78435">
        <ele>10.05</ele>
        <time>2020-06-06T08:37:52Z</time>
      </trkpt>
      <trkpt lat="47.01872" lon="-1.78425">
        <ele>10.97</ele>
        <time>2020-06-06T08:37:54Z</time>
      </trkpt>
      <trkpt lat="47.01862" lon="-1.78413">
        <ele>10.03</ele>
        <time>2020-06-06T08:37:56Z</time>
      </trkpt>
      <trkpt lat="47.01853" lon="-1.78402">
        <ele>9.5</ele>
        <time>2020-06-06T08:37:58Z</time>
      </trkpt>
      <trkpt lat="47.01844" lon="-1.78391">
        <ele>10.26</ele>
        <time>2020-06-06T08:38:00Z</time>
      </trkpt>
      <trkpt lat="47.01835" lon="-1.78381">
        <ele>10.07</ele>
        <time>2020-06-06T08:38:02Z</time>
      </trkpt>
      <trkpt lat="47.01826" lon="-1.78371">
        <ele>10.4</ele>
        <time>2020-06-06T08:38:04Z</time>
      </trkpt>
      <trkpt lat="47.01818" lon="-1.78361">
        <ele>11.62</ele>
        <time>2020-06-06T08:38:06Z</time>
      </trkpt>
      <trkpt lat="47.0181" lon="-1.78351">
        <ele>11.45</ele>
        <time>2020-06-06T08:38:08Z</time>
      </trkpt>
      <trkpt lat="47.01802" lon="-1.78342">
        <ele>12.87</ele>
        <time>2020-06-06T08:38:10Z</time>
      </trkpt>
      <trkpt lat="47.01793" lon="-1.7833">
        <ele>12.67</ele>
        <time>2020-06-06T08:38:12Z</time>
      </trkpt>
      <trkpt lat="47.01785" lon="-1.78319">
        <ele>11.74</ele>
        <time>2020-06-06T08:38:14Z</time>
      </trkpt>
      <trkpt lat="47.01775" lon="-1.78308">
        <ele>10.25</ele>
        <time>2020-06-06T08:38:16Z</time>
      </trkpt>
      <trkpt lat="47.01767" lon="-1.78299">
        <ele>9.77</ele>
        <time>2020-06-06T08:38:18Z</time>
      </trkpt>
      <trkpt lat="47.01757" lon="-1.78289">
        <ele>10.86</ele>
        <time>2020-06-06T08:38:20Z</time>
      </trkpt>
      <trkpt lat="47.01747" lon="-1.78277">
        <ele>11.29</ele>
        <time>2020-06-06T08:38:22Z</time>
      </trkpt>
      <trkpt lat="47.01739" lon="-1.78266">
        <ele>11.5</ele>
        <time>2020-06-06T08:38:24Z</time>
      </trkpt>
      <trkpt lat="47.01731" lon="-1.78255">
        <ele>11.17</ele>
        <time>2020-06-06T08:38:26Z</time>
      </trkpt>
      <trkpt lat="47.01721" lon="-1.78242">
        <ele>10.8</ele>
        <time>2020-06-06T08:38:28Z</time>
      </trkpt>
      <trkpt lat="47.01712" lon="-1.78231">
        <ele>11.47</ele>
        <time>2020-06-06T08:38:30Z</time>
      </trkpt>
      <trkpt lat="47.01703" lon="-1.78221">
        <ele>11.75</ele>
        <time>2020-06-06T08:38:32Z</time>
      </trkpt>
      <trkpt lat="47.01694" lon="-1.78211">
        <ele>12</ele>
        <time>2020-06-06T08:38:34Z</time>
      </trkpt>
      <trkpt lat="47.01683" lon="-1.78198">
        <ele>11.87</ele>
        <time>2020-06-06T08:38:36Z</time>
      </trkpt>
      <trkpt lat="47.01673" lon="-1.78186">
        <ele>12.51</ele>
        <time>2020-06-06T08:38:38Z</time>
      </trkpt>
      <trkpt lat="47.01664" lon="-1.78176">
        <ele>13.47</ele>
        <time>2020-06-06T08:38:40Z</time>
      </trkpt>
      <trkpt lat="47.01653" lon="-1.78162">
        <ele>14.1</ele>
        <time>2020-06-06T08:38:42Z</time>
      </trkpt>
      <trkpt lat="47.01644" lon="-1.78151">
        <ele>14.66</ele>
        <time>2020-06-06T08:38:44Z</time>
      </trkpt>
      <trkpt lat="47.01634" lon="-1.7814">
        <ele>14.52</ele>
        <time>2020-06-06T08:38:46Z</time>
      </trkpt>
      <trkpt lat="47.01622" lon="-1.78126">
        <ele>13.71</ele>
        <time>2020-06-06T08:38:48Z</time>
      </trkpt>
      <trkpt lat="47.01611" lon="-1.78113">
        <ele>14.18</ele>
        <time>2020-06-06T08:38:50Z</time>
      </trkpt>
      <trkpt lat="47.01604" lon="-1.78103">
        <ele>14.16</ele>
        <time>2020-06-06T08:38:52Z</time>
      </trkpt>
      <trkpt lat="47.01594" lon="-1.78091">
        <ele>13.73</ele>
        <time>2020-06-06T08:38:54Z</time>
      </trkpt>
      <trkpt lat="47.01584" lon="-1.78078">
        <ele>13.08</ele>
        <time>2020-06-06T08:38:56Z</time>
      </trkpt>
      <trkpt lat="47.01575" lon="-1.78066">
        <ele>14.09</ele>
        <time>2020-06-06T08:38:58Z</time>
      </trkpt>
      <trkpt lat="47.01567" lon="-1.78056">
        <ele>14.28</ele>
        <time>2020-06-06T08:39:00Z</time>
      </trkpt>
      <trkpt lat="47.01558" lon="-1.78045">
        <ele>13.73</ele>
        <time>2020-06-06T08:39:02Z</time>
      </trkpt>
      <trkpt lat="47.01549" lon="-1.78034">
        <ele>15.17</ele>
        <time>2020-06-06T08:39:04Z</time>
      </trkpt>
      <trkpt lat="47.01541" lon="-1.78025">
        <ele>16.9</ele>
        <time>2020-06-06T08:39:06Z</time>
      </trkpt>
      <trkpt lat="47.01531" lon="-1.78013">
        <ele>16.87</ele>
        <time>2020-06-06T08:39:08Z</time>
      </trkpt>
      <trkpt lat="47.01521" lon="-1.78002">
        <ele>16.83</ele>
        <time>2020-06-06T08:39:10Z</time>
      </trkpt>
      <trkpt lat="47.01511" lon="-1.7799">
        <ele>16.35</ele>
        <time>2020-06-06T08:39:12Z</time>
      </trkpt>
      <trkpt lat="47.01502" lon="-1.77979">
        <ele>15.69</ele>
        <time>2020-06-06T08:39:14Z</time>
      </trkpt>
      <trkpt lat="47.01493" lon="-1.77969">
        <ele>16.13</ele>
        <time>2020-06-06T08:39:16Z</time>
      </trkpt>
      <trkpt lat="47.01483" lon="-1.77959">
        <ele>16.15</ele>
        <time>2020-06-06T08:39:18Z</time>
      </trkpt>
      <trkpt lat="47.01475" lon="-1.7795">
        <ele>16.53</ele>
        <time>2020-06-06T08:39:20Z</time>
      </trkpt>
      <trkpt lat="47.01468" lon="-1.77939">
        <ele>17.33</ele>
        <time>2020-06-06T08:39:22Z</time>
      </trkpt>
      <trkpt lat="47.01459" lon="-1.77929">
        <ele>18.42</ele>
        <time>2020-06-06T08:39:24Z</time>
      </trkpt>
      <trkpt lat="47.0145" lon="-1.77918">
        <ele>19.62</ele>
        <time>2020-06-06T08:39:26Z</time>
      </trkpt>
      <trkpt lat="47.01442" lon="-1.77909">
        <ele>19.48</ele>
        <time>2020-06-06T08:39:28Z</time>
      </trkpt>
      <trkpt lat="47.01434" lon="-1.77898">
        <ele>18</ele>
        <time>2020-06-06T08:39:30Z</time>
      </trkpt>
      <trkpt lat="47.01425" lon="-1.77889">
        <ele>16.78</ele>
        <time>2020-06-06T08:39:32Z</time>
      </trkpt>
      <trkpt lat="47.01415" lon="-1.77877">
        <ele>16.46</ele>
        <time>2020-06-06T08:39:34Z</time>
      </trkpt>
      <trkpt lat="47.01407" lon="-1.77867">
        <ele>17.09</ele>
        <time>2020-06-06T08:39:36Z</time>
      </trkpt>
      <trkpt lat="47.01397" lon="-1.77856">
        <ele>16.53</ele>
        <time>2020-06-06T08:39:38Z</time>
      </trkpt>
      <trkpt lat="47.01386" lon="-1.77842">
        <ele>16.12</ele>
        <time>2020-06-06T08:39:40Z</time>
      </trkpt>
      <trkpt lat="47.01376" lon="-1.77828">
        <ele>16.87</ele>
        <time>2020-06-06T08:39:42Z</time>
      </trkpt>
      <trkpt lat="47.01366" lon="-1.77815">
        <ele>18.33</ele>
        <time>2020-06-06T08:39:44Z</time>
      </trkpt>
      <trkpt lat="47.01357" lon="-1.77804">
        <ele>19.82</ele>
        <time>2020-06-06T08:39:46Z</time>
      </trkpt>
      <trkpt lat="47.01347" lon="-1.77793">
        <ele>20.09</ele>
        <time>2020-06-06T08:39:48Z</time>
      </trkpt>
      <trkpt lat="47.01337" lon="-1.7778">
        <ele>19.83</ele>
        <time>2020-06-06T08:39:50Z</time>
      </trkpt>
      <trkpt lat="47.01326" lon="-1.77767">
        <ele>18.88</ele>
        <time>2020-06-06T08:39:52Z</time>
      </trkpt>
      <trkpt lat="47.01316" lon="-1.77755">
        <ele>17.61</ele>
        <time>2020-06-06T08:39:54Z</time>
      </trkpt>
      <trkpt lat="47.01306" lon="-1.77743">
        <ele>16.99</ele>
        <time>2020-06-06T08:39:56Z</time>
      </trkpt>
      <trkpt lat="47.01298" lon="-1.77732">
        <ele>16.36</ele>
        <time>2020-06-06T08:39:58Z</time>
      </trkpt>
      <trkpt lat="47.01288" lon="-1.7772">
        <ele>16.28</ele>
        <time>2020-06-06T08:40:00Z</time>
      </trkpt>
      <trkpt lat="47.01278" lon="-1.77709">
        <ele>16.12</ele>
        <time>2020-06-06T08:40:02Z</time>
      </trkpt>
      <trkpt lat="47.01268" lon="-1.77697">
        <ele>16.49</ele>
        <time>2020-06-06T08:40:04Z</time>
      </trkpt>
      <trkpt lat="47.01258" lon="-1.77683">
        <ele>16.91</ele>
        <time>2020-06-06T08:40:06Z</time>
      </trkpt>
      <trkpt lat="47.01246" lon="-1.77668">
        <ele>16.27</ele>
        <time>2020-06-06T08:40:07Z</time>
      </trkpt>
      <trkpt lat="47.01234" lon="-1.77653">
        <ele>15.86</ele>
        <time>2020-06-06T08:40:09Z</time>
      </trkpt>
      <trkpt lat="47.01223" lon="-1.7764">
        <ele>15.25</ele>
        <time>2020-06-06T08:40:11Z</time>
      </trkpt>
      <trkpt lat="47.01212" lon="-1.77627">
        <ele>15.24</ele>
        <time>2020-06-06T08:40:13Z</time>
      </trkpt>
      <trkpt lat="47.01201" lon="-1.77614">
        <ele>14.95</ele>
        <time>2020-06-06T08:40:15Z</time>
      </trkpt>
      <trkpt lat="47.01191" lon="-1.77601">
        <ele>15.02</ele>
        <time>2020-06-06T08:40:17Z</time>
      </trkpt>
      <trkpt lat="47.0118" lon="-1.77586">
        <ele>14.82</ele>
        <time>2020-06-06T08:40:19Z</time>
      </trkpt>
      <trkpt lat="47.01169" lon="-1.77571">
        <ele>14.23</ele>
        <time>2020-06-06T08:40:21Z</time>
      </trkpt>
      <trkpt lat="47.0116" lon="-1.77557">
        <ele>12.85</ele>
        <time>2020-06-06T08:40:23Z</time>
      </trkpt>
      <trkpt lat="47.0115" lon="-1.77539">
        <ele>12.07</ele>
        <time>2020-06-06T08:40:25Z</time>
      </trkpt>
      <trkpt lat="47.0114" lon="-1.77519">
        <ele>11.76</ele>
        <time>2020-06-06T08:40:27Z</time>
      </trkpt>
      <trkpt lat="47.01132" lon="-1.77499">
        <ele>11.39</ele>
        <time>2020-06-06T08:40:29Z</time>
      </trkpt>
      <trkpt lat="47.01124" lon="-1.77479">
        <ele>11.54</ele>
        <time>2020-06-06T08:40:31Z</time>
      </trkpt>
      <trkpt lat="47.01116" lon="-1.77459">
        <ele>11.98</ele>
        <time>2020-06-06T08:40:33Z</time>
      </trkpt>
      <trkpt lat="47.01109" lon="-1.7744">
        <ele>11.85</ele>
        <time>2020-06-06T08:40:35Z</time>
      </trkpt>
      <trkpt lat="47.01101" lon="-1.77422">
        <ele>12.21</ele>
        <time>2020-06-06T08:40:37Z</time>
      </trkpt>
      <trkpt lat="47.01094" lon="-1.77405">
        <ele>12.22</ele>
        <time>2020-06-06T08:40:39Z</time>
      </trkpt>
      <trkpt lat="47.01085" lon="-1.77387">
        <ele>12.55</ele>
        <time>2020-06-06T08:40:41Z</time>
      </trkpt>
      <trkpt lat="47.01077" lon="-1.77369">
        <ele>12.55</ele>
        <time>2020-06-06T08:40:43Z</time>
      </trkpt>
      <trkpt lat="47.01069" lon="-1.77353">
        <ele>13.02</ele>
        <time>2020-06-06T08:40:45Z</time>
      </trkpt>
      <trkpt lat="47.01059" lon="-1.77336">
        <ele>13.08</ele>
        <time>2020-06-06T08:40:47Z</time>
      </trkpt>
      <trkpt lat="47.01049" lon="-1.77319">
        <ele>12.56</ele>
        <time>2020-06-06T08:40:49Z</time>
      </trkpt>
      <trkpt lat="47.0104" lon="-1.77303">
        <ele>11.99</ele>
        <time>2020-06-06T08:40:51Z</time>
      </trkpt>
      <trkpt lat="47.01031" lon="-1.77287">
        <ele>11.72</ele>
        <time>2020-06-06T08:40:53Z</time>
      </trkpt>
      <trkpt lat="47.01023" lon="-1.77271">
        <ele>11.25</ele>
        <time>2020-06-06T08:40:55Z</time>
      </trkpt>
      <trkpt lat="47.01014" lon="-1.77255">
        <ele>11.51</ele>
        <time>2020-06-06T08:40:57Z</time>
      </trkpt>
      <trkpt lat="47.01006" lon="-1.77238">
        <ele>11.83</ele>
        <time>2020-06-06T08:40:59Z</time>
      </trkpt>
      <trkpt lat="47.00998" lon="-1.77223">
        <ele>13.16</ele>
        <time>2020-06-06T08:41:01Z</time>
      </trkpt>
      <trkpt lat="47.0099" lon="-1.77208">
        <ele>14.09</ele>
        <time>2020-06-06T08:41:03Z</time>
      </trkpt>
      <trkpt lat="47.00981" lon="-1.77191">
        <ele>14.48</ele>
        <time>2020-06-06T08:41:05Z</time>
      </trkpt>
      <trkpt lat="47.00972" lon="-1.77174">
        <ele>13.78</ele>
        <time>2020-06-06T08:41:07Z</time>
      </trkpt>
      <trkpt lat="47.00964" lon="-1.7716">
        <ele>13.5</ele>
        <time>2020-06-06T08:41:09Z</time>
      </trkpt>
      <trkpt lat="47.00956" lon="-1.77145">
        <ele>14</ele>
        <time>2020-06-06T08:41:11Z</time>
      </trkpt>
      <trkpt lat="47.00947" lon="-1.77128">
        <ele>13.8</ele>
        <time>2020-06-06T08:41:13Z</time>
      </trkpt>
      <trkpt lat="47.00937" lon="-1.77113">
        <ele>13.21</ele>
        <time>2020-06-06T08:41:15Z</time>
      </trkpt>
      <trkpt lat="47.00926" lon="-1.77098">
        <ele>12.98</ele>
        <time>2020-06-06T08:41:17Z</time>
      </trkpt>
      <trkpt lat="47.00915" lon="-1.77086">
        <ele>13.1</ele>
        <time>2020-06-06T08:41:19Z</time>
      </trkpt>
      <trkpt lat="47.00903" lon="-1.77075">
        <ele>13.7</ele>
        <time>2020-06-06T08:41:21Z</time>
      </trkpt>
      <trkpt lat="47.0089" lon="-1.77068">
        <ele>14.29</ele>
        <time>2020-06-06T08:41:23Z</time>
      </trkpt>
      <trkpt lat="47.00877" lon="-1.77062">
        <ele>14.16</ele>
        <time>2020-06-06T08:41:25Z</time>
      </trkpt>
      <trkpt lat="47.00864" lon="-1.77056">
        <ele>14.21</ele>
        <time>2020-06-06T08:41:27Z</time>
      </trkpt>
      <trkpt lat="47.00848" lon="-1.7705">
        <ele>15.37</ele>
        <time>2020-06-06T08:41:29Z</time>
      </trkpt>
      <trkpt lat="47.00835" lon="-1.77045">
        <ele>15.43</ele>
        <time>2020-06-06T08:41:31Z</time>
      </trkpt>
      <trkpt lat="47.00822" lon="-1.77041">
        <ele>15.5</ele>
        <time>2020-06-06T08:41:33Z</time>
      </trkpt>
      <trkpt lat="47.00808" lon="-1.77035">
        <ele>15.53</ele>
        <time>2020-06-06T08:41:35Z</time>
      </trkpt>
      <trkpt lat="47.00795" lon="-1.7703">
        <ele>15.61</ele>
        <time>2020-06-06T08:41:37Z</time>
      </trkpt>
      <trkpt lat="47.00782" lon="-1.77025">
        <ele>15.91</ele>
        <time>2020-06-06T08:41:39Z</time>
      </trkpt>
      <trkpt lat="47.00769" lon="-1.7702">
        <ele>14.92</ele>
        <time>2020-06-06T08:41:41Z</time>
      </trkpt>
      <trkpt lat="47.00755" lon="-1.77014">
        <ele>14.58</ele>
        <time>2020-06-06T08:41:43Z</time>
      </trkpt>
      <trkpt lat="47.00742" lon="-1.77009">
        <ele>15.69</ele>
        <time>2020-06-06T08:41:45Z</time>
      </trkpt>
      <trkpt lat="47.0073" lon="-1.77005">
        <ele>15.6</ele>
        <time>2020-06-06T08:41:47Z</time>
      </trkpt>
      <trkpt lat="47.00715" lon="-1.77">
        <ele>15.47</ele>
        <time>2020-06-06T08:41:49Z</time>
      </trkpt>
      <trkpt lat="47.00701" lon="-1.76993">
        <ele>14.58</ele>
        <time>2020-06-06T08:41:51Z</time>
      </trkpt>
      <trkpt lat="47.00687" lon="-1.76987">
        <ele>14</ele>
        <time>2020-06-06T08:41:53Z</time>
      </trkpt>
      <trkpt lat="47.00674" lon="-1.76982">
        <ele>14.6</ele>
        <time>2020-06-06T08:41:55Z</time>
      </trkpt>
      <trkpt lat="47.00659" lon="-1.76976">
        <ele>15.78</ele>
        <time>2020-06-06T08:41:57Z</time>
      </trkpt>
      <trkpt lat="47.00645" lon="-1.7697">
        <ele>16.41</ele>
        <time>2020-06-06T08:41:59Z</time>
      </trkpt>
      <trkpt lat="47.00631" lon="-1.76964">
        <ele>16.18</ele>
        <time>2020-06-06T08:42:01Z</time>
      </trkpt>
      <trkpt lat="47.00618" lon="-1.76958">
        <ele>15.1</ele>
        <time>2020-06-06T08:42:03Z</time>
      </trkpt>
      <trkpt lat="47.00604" lon="-1.76951">
        <ele>14.73</ele>
        <time>2020-06-06T08:42:05Z</time>
      </trkpt>
      <trkpt lat="47.00592" lon="-1.76944">
        <ele>15.15</ele>
        <time>2020-06-06T08:42:07Z</time>
      </trkpt>
      <trkpt lat="47.00579" lon="-1.76935">
        <ele>14.28</ele>
        <time>2020-06-06T08:42:09Z</time>
      </trkpt>
      <trkpt lat="47.00566" lon="-1.76926">
        <ele>13.79</ele>
        <time>2020-06-06T08:42:11Z</time>
      </trkpt>
      <trkpt lat="47.00552" lon="-1.76915">
        <ele>12.7</ele>
        <time>2020-06-06T08:42:13Z</time>
      </trkpt>
      <trkpt lat="47.00541" lon="-1.76904">
        <ele>12.58</ele>
        <time>2020-06-06T08:42:15Z</time>
      </trkpt>
      <trkpt lat="47.00531" lon="-1.76893">
        <ele>12.13</ele>
        <time>2020-06-06T08:42:17Z</time>
      </trkpt>
      <trkpt lat="47.0052" lon="-1.7688">
        <ele>12.24</ele>
        <time>2020-06-06T08:42:19Z</time>
      </trkpt>
      <trkpt lat="47.00508" lon="-1.76866">
        <ele>12.85</ele>
        <time>2020-06-06T08:42:21Z</time>
      </trkpt>
      <trkpt lat="47.00496" lon="-1.76853">
        <ele>12.62</ele>
        <time>2020-06-06T08:42:23Z</time>
      </trkpt>
      <trkpt lat="47.00484" lon="-1.76841">
        <ele>12.16</ele>
        <time>2020-06-06T08:42:25Z</time>
      </trkpt>
      <trkpt lat="47.00473" lon="-1.76829">
        <ele>12.23</ele>
        <time>2020-06-06T08:42:27Z</time>
      </trkpt>
      <trkpt lat="47.00461" lon="-1.76816">
        <ele>11.94</ele>
        <time>2020-06-06T08:42:29Z</time>
      </trkpt>
      <trkpt lat="47.00448" lon="-1.76803">
        <ele>12.41</ele>
        <time>2020-06-06T08:42:31Z</time>
      </trkpt>
      <trkpt lat="47.00437" lon="-1.7679">
        <ele>12.86</ele>
        <time>2020-06-06T08:42:33Z</time>
      </trkpt>
      <trkpt lat="47.00425" lon="-1.76777">
        <ele>13.41</ele>
        <time>2020-06-06T08:42:35Z</time>
      </trkpt>
      <trkpt lat="47.00411" lon="-1.76763">
        <ele>13.58</ele>
        <time>2020-06-06T08:42:37Z</time>
      </trkpt>
      <trkpt lat="47.00398" lon="-1.7675">
        <ele>12.41</ele>
        <time>2020-06-06T08:42:39Z</time>
      </trkpt>
      <trkpt lat="47.00385" lon="-1.76738">
        <ele>11.36</ele>
        <time>2020-06-06T08:42:41Z</time>
      </trkpt>
      <trkpt lat="47.00373" lon="-1.76725">
        <ele>10.37</ele>
        <time>2020-06-06T08:42:43Z</time>
      </trkpt>
      <trkpt lat="47.0036" lon="-1.76712">
        <ele>10.25</ele>
        <time>2020-06-06T08:42:45Z</time>
      </trkpt>
      <trkpt lat="47.00348" lon="-1.76699">
        <ele>9.59</ele>
        <time>2020-06-06T08:42:47Z</time>
      </trkpt>
      <trkpt lat="47.00335" lon="-1.76687">
        <ele>8.81</ele>
        <time>2020-06-06T08:42:49Z</time>
      </trkpt>
      <trkpt lat="47.00321" lon="-1.76674">
        <ele>8.73</ele>
        <time>2020-06-06T08:42:51Z</time>
      </trkpt>
      <trkpt lat="47.00307" lon="-1.76664">
        <ele>9.1</ele>
        <time>2020-06-06T08:42:53Z</time>
      </trkpt>
      <trkpt lat="47.00294" lon="-1.76656">
        <ele>9.47</ele>
        <time>2020-06-06T08:42:55Z</time>
      </trkpt>
      <trkpt lat="47.00279" lon="-1.76648">
        <ele>8.97</ele>
        <time>2020-06-06T08:42:57Z</time>
      </trkpt>
      <trkpt lat="47.00264" lon="-1.76641">
        <ele>8.99</ele>
        <time>2020-06-06T08:42:59Z</time>
      </trkpt>
      <trkpt lat="47.00247" lon="-1.76634">
        <ele>8.25</ele>
        <time>2020-06-06T08:43:01Z</time>
      </trkpt>
      <trkpt lat="47.00231" lon="-1.76627">
        <ele>7.3</ele>
        <time>2020-06-06T08:43:03Z</time>
      </trkpt>
      <trkpt lat="47.00216" lon="-1.76622">
        <ele>6.95</ele>
        <time>2020-06-06T08:43:05Z</time>
      </trkpt>
      <trkpt lat="47.00201" lon="-1.76617">
        <ele>6.31</ele>
        <time>2020-06-06T08:43:07Z</time>
      </trkpt>
      <trkpt lat="47.00188" lon="-1.76611">
        <ele>6.19</ele>
        <time>2020-06-06T08:43:09Z</time>
      </trkpt>
      <trkpt lat="47.00173" lon="-1.76605">
        <ele>4.5</ele>
        <time>2020-06-06T08:43:11Z</time>
      </trkpt>
      <trkpt lat="47.00159" lon="-1.766">
        <ele>3.6</ele>
        <time>2020-06-06T08:43:13Z</time>
      </trkpt>
      <trkpt lat="47.00146" lon="-1.76594">
        <ele>2.72</ele>
        <time>2020-06-06T08:43:15Z</time>
      </trkpt>
      <trkpt lat="47.00131" lon="-1.76588">
        <ele>2.81</ele>
        <time>2020-06-06T08:43:17Z</time>
      </trkpt>
      <trkpt lat="47.00115" lon="-1.76582">
        <ele>2.57</ele>
        <time>2020-06-06T08:43:19Z</time>
      </trkpt>
      <trkpt lat="47.00102" lon="-1.76576">
        <ele>2.72</ele>
        <time>2020-06-06T08:43:21Z</time>
      </trkpt>
      <trkpt lat="47.00089" lon="-1.7657">
        <ele>2.09</ele>
        <time>2020-06-06T08:43:23Z</time>
      </trkpt>
      <trkpt lat="47.00076" lon="-1.76563">
        <ele>2.68</ele>
        <time>2020-06-06T08:43:25Z</time>
      </trkpt>
      <trkpt lat="47.00065" lon="-1.76552">
        <ele>3.12</ele>
        <time>2020-06-06T08:43:27Z</time>
      </trkpt>
      <trkpt lat="47.00053" lon="-1.76538">
        <ele>4.36</ele>
        <time>2020-06-06T08:43:29Z</time>
      </trkpt>
      <trkpt lat="47.00044" lon="-1.76522">
        <ele>4.43</ele>
        <time>2020-06-06T08:43:31Z</time>
      </trkpt>
      <trkpt lat="47.00036" lon="-1.765">
        <ele>4.43</ele>
        <time>2020-06-06T08:43:33Z</time>
      </trkpt>
      <trkpt lat="47.00031" lon="-1.76479">
        <ele>4.54</ele>
        <time>2020-06-06T08:43:35Z</time>
      </trkpt>
      <trkpt lat="47.00027" lon="-1.7646">
        <ele>4.65</ele>
        <time>2020-06-06T08:43:37Z</time>
      </trkpt>
      <trkpt lat="47.00023" lon="-1.76442">
        <ele>4.31</ele>
        <time>2020-06-06T08:43:39Z</time>
      </trkpt>
      <trkpt lat="47.00019" lon="-1.76421">
        <ele>4.99</ele>
        <time>2020-06-06T08:43:41Z</time>
      </trkpt>
      <trkpt lat="47.00014" lon="-1.764">
        <ele>4.61</ele>
        <time>2020-06-06T08:43:43Z</time>
      </trkpt>
      <trkpt lat="47.0001" lon="-1.7638">
        <ele>4.5</ele>
        <time>2020-06-06T08:43:45Z</time>
      </trkpt>
      <trkpt lat="47.00006" lon="-1.7636">
        <ele>3.93</ele>
        <time>2020-06-06T08:43:47Z</time>
      </trkpt>
      <trkpt lat="47.00001" lon="-1.76341">
        <ele>3.16</ele>
        <time>2020-06-06T08:43:49Z</time>
      </trkpt>
      <trkpt lat="46.99996" lon="-1.76322">
        <ele>2.71</ele>
        <time>2020-06-06T08:43:51Z</time>
      </trkpt>
      <trkpt lat="46.99991" lon="-1.763">
        <ele>3.74</ele>
        <time>2020-06-06T08:43:53Z</time>
      </trkpt>
      <trkpt lat="46.99987" lon="-1.7628">
        <ele>3.99</ele>
        <time>2020-06-06T08:43:55Z</time>
      </trkpt>
      <trkpt lat="46.99983" lon="-1.76262">
        <ele>3.99</ele>
        <time>2020-06-06T08:43:57Z</time>
      </trkpt>
      <trkpt lat="46.99978" lon="-1.76242">
        <ele>2.36</ele>
        <time>2020-06-06T08:43:59Z</time>
      </trkpt>
      <trkpt lat="46.99973" lon="-1.76221">
        <ele>2.78</ele>
        <time>2020-06-06T08:44:01Z</time>
      </trkpt>
      <trkpt lat="46.99967" lon="-1.76202">
        <ele>3.16</ele>
        <time>2020-06-06T08:44:03Z</time>
      </trkpt>
      <trkpt lat="46.99962" lon="-1.76186">
        <ele>3.68</ele>
        <time>2020-06-06T08:44:05Z</time>
      </trkpt>
      <trkpt lat="46.99957" lon="-1.76168">
        <ele>4.31</ele>
        <time>2020-06-06T08:44:07Z</time>
      </trkpt>
      <trkpt lat="46.9995" lon="-1.76149">
        <ele>4.77</ele>
        <time>2020-06-06T08:44:09Z</time>
      </trkpt>
      <trkpt lat="46.99944" lon="-1.7613">
        <ele>4.9</ele>
        <time>2020-06-06T08:44:11Z</time>
      </trkpt>
      <trkpt lat="46.99939" lon="-1.76112">
        <ele>5.17</ele>
        <time>2020-06-06T08:44:13Z</time>
      </trkpt>
      <trkpt lat="46.99934" lon="-1.76093">
        <ele>5.41</ele>
        <time>2020-06-06T08:44:15Z</time>
      </trkpt>
      <trkpt lat="46.99928" lon="-1.76072">
        <ele>5.48</ele>
        <time>2020-06-06T08:44:17Z</time>
      </trkpt>
      <trkpt lat="46.99924" lon="-1.76053">
        <ele>5.88</ele>
        <time>2020-06-06T08:44:19Z</time>
      </trkpt>
      <trkpt lat="46.9992" lon="-1.76032">
        <ele>6.01</ele>
        <time>2020-06-06T08:44:21Z</time>
      </trkpt>
      <trkpt lat="46.99916" lon="-1.76011">
        <ele>5.28</ele>
        <time>2020-06-06T08:44:23Z</time>
      </trkpt>
      <trkpt lat="46.99913" lon="-1.75993">
        <ele>5.49</ele>
        <time>2020-06-06T08:44:25Z</time>
      </trkpt>
      <trkpt lat="46.9991" lon="-1.75973">
        <ele>6.02</ele>
        <time>2020-06-06T08:44:27Z</time>
      </trkpt>
      <trkpt lat="46.99906" lon="-1.75953">
        <ele>6.39</ele>
        <time>2020-06-06T08:44:29Z</time>
      </trkpt>
      <trkpt lat="46.99904" lon="-1.75933">
        <ele>7</ele>
        <time>2020-06-06T08:44:31Z</time>
      </trkpt>
      <trkpt lat="46.99901" lon="-1.75911">
        <ele>6.76</ele>
        <time>2020-06-06T08:44:33Z</time>
      </trkpt>
      <trkpt lat="46.99898" lon="-1.75891">
        <ele>6.61</ele>
        <time>2020-06-06T08:44:35Z</time>
      </trkpt>
      <trkpt lat="46.99895" lon="-1.75872">
        <ele>6.5</ele>
        <time>2020-06-06T08:44:37Z</time>
      </trkpt>
      <trkpt lat="46.99893" lon="-1.75855">
        <ele>6.58</ele>
        <time>2020-06-06T08:44:39Z</time>
      </trkpt>
      <trkpt lat="46.99891" lon="-1.75834">
        <ele>6.02</ele>
        <time>2020-06-06T08:44:41Z</time>
      </trkpt>
      <trkpt lat="46.99888" lon="-1.75812">
        <ele>5.27</ele>
        <time>2020-06-06T08:44:43Z</time>
      </trkpt>
      <trkpt lat="46.99885" lon="-1.75794">
        <ele>5.09</ele>
        <time>2020-06-06T08:44:45Z</time>
      </trkpt>
      <trkpt lat="46.99882" lon="-1.75772">
        <ele>5.65</ele>
        <time>2020-06-06T08:44:47Z</time>
      </trkpt>
      <trkpt lat="46.9988" lon="-1.75752">
        <ele>5.92</ele>
        <time>2020-06-06T08:44:49Z</time>
      </trkpt>
      <trkpt lat="46.99877" lon="-1.75733">
        <ele>5.88</ele>
        <time>2020-06-06T08:44:51Z</time>
      </trkpt>
      <trkpt lat="46.99875" lon="-1.75714">
        <ele>7.14</ele>
        <time>2020-06-06T08:44:53Z</time>
      </trkpt>
      <trkpt lat="46.99874" lon="-1.75695">
        <ele>8.12</ele>
        <time>2020-06-06T08:44:55Z</time>
      </trkpt>
      <trkpt lat="46.99872" lon="-1.75673">
        <ele>8.48</ele>
        <time>2020-06-06T08:44:57Z</time>
      </trkpt>
      <trkpt lat="46.99871" lon="-1.75655">
        <ele>9.07</ele>
        <time>2020-06-06T08:44:59Z</time>
      </trkpt>
      <trkpt lat="46.9987" lon="-1.75636">
        <ele>9.38</ele>
        <time>2020-06-06T08:45:01Z</time>
      </trkpt>
      <trkpt lat="46.99868" lon="-1.75615">
        <ele>8.37</ele>
        <time>2020-06-06T08:45:03Z</time>
      </trkpt>
      <trkpt lat="46.99867" lon="-1.75597">
        <ele>7.89</ele>
        <time>2020-06-06T08:45:05Z</time>
      </trkpt>
      <trkpt lat="46.99865" lon="-1.75577">
        <ele>8.2</ele>
        <time>2020-06-06T08:45:07Z</time>
      </trkpt>
      <trkpt lat="46.99863" lon="-1.75557">
        <ele>8.92</ele>
        <time>2020-06-06T08:45:09Z</time>
      </trkpt>
      <trkpt lat="46.99862" lon="-1.75539">
        <ele>8.12</ele>
        <time>2020-06-06T08:45:11Z</time>
      </trkpt>
      <trkpt lat="46.9986" lon="-1.75519">
        <ele>8.29</ele>
        <time>2020-06-06T08:45:13Z</time>
      </trkpt>
      <trkpt lat="46.99858" lon="-1.75503">
        <ele>8.91</ele>
        <time>2020-06-06T08:45:15Z</time>
      </trkpt>
      <trkpt lat="46.99855" lon="-1.75482">
        <ele>7.8</ele>
        <time>2020-06-06T08:45:17Z</time>
      </trkpt>
      <trkpt lat="46.99851" lon="-1.75464">
        <ele>6.58</ele>
        <time>2020-06-06T08:45:19Z</time>
      </trkpt>
      <trkpt lat="46.99845" lon="-1.75446">
        <ele>6.47</ele>
        <time>2020-06-06T08:45:21Z</time>
      </trkpt>
      <trkpt lat="46.99837" lon="-1.7543">
        <ele>6.73</ele>
        <time>2020-06-06T08:45:23Z</time>
      </trkpt>
      <trkpt lat="46.99829" lon="-1.75414">
        <ele>7.08</ele>
        <time>2020-06-06T08:45:25Z</time>
      </trkpt>
      <trkpt lat="46.9982" lon="-1.75397">
        <ele>7.53</ele>
        <time>2020-06-06T08:45:27Z</time>
      </trkpt>
      <trkpt lat="46.99811" lon="-1.75381">
        <ele>6.74</ele>
        <time>2020-06-06T08:45:29Z</time>
      </trkpt>
      <trkpt lat="46.99801" lon="-1.75363">
        <ele>5.49</ele>
        <time>2020-06-06T08:45:31Z</time>
      </trkpt>
      <trkpt lat="46.99792" lon="-1.75347">
        <ele>6.11</ele>
        <time>2020-06-06T08:45:33Z</time>
      </trkpt>
      <trkpt lat="46.99784" lon="-1.75332">
        <ele>6.91</ele>
        <time>2020-06-06T08:45:35Z</time>
      </trkpt>
      <trkpt lat="46.99776" lon="-1.75317">
        <ele>7.96</ele>
        <time>2020-06-06T08:45:37Z</time>
      </trkpt>
      <trkpt lat="46.99766" lon="-1.75301">
        <ele>9.05</ele>
        <time>2020-06-06T08:45:39Z</time>
      </trkpt>
      <trkpt lat="46.99757" lon="-1.75286">
        <ele>8.86</ele>
        <time>2020-06-06T08:45:41Z</time>
      </trkpt>
      <trkpt lat="46.99747" lon="-1.75272">
        <ele>8.07</ele>
        <time>2020-06-06T08:45:43Z</time>
      </trkpt>
      <trkpt lat="46.99738" lon="-1.75256">
        <ele>7.7</ele>
        <time>2020-06-06T08:45:45Z</time>
      </trkpt>
      <trkpt lat="46.9973" lon="-1.75241">
        <ele>8.93</ele>
        <time>2020-06-06T08:45:47Z</time>
      </trkpt>
      <trkpt lat="46.99722" lon="-1.75223">
        <ele>9.27</ele>
        <time>2020-06-06T08:45:49Z</time>
      </trkpt>
      <trkpt lat="46.99714" lon="-1.75205">
        <ele>9.26</ele>
        <time>2020-06-06T08:45:51Z</time>
      </trkpt>
      <trkpt lat="46.99708" lon="-1.75186">
        <ele>9.47</ele>
        <time>2020-06-06T08:45:53Z</time>
      </trkpt>
      <trkpt lat="46.99701" lon="-1.75167">
        <ele>10.42</ele>
        <time>2020-06-06T08:45:55Z</time>
      </trkpt>
      <trkpt lat="46.99695" lon="-1.75149">
        <ele>10.31</ele>
        <time>2020-06-06T08:45:57Z</time>
      </trkpt>
      <trkpt lat="46.9969" lon="-1.7513">
        <ele>9.41</ele>
        <time>2020-06-06T08:45:59Z</time>
      </trkpt>
      <trkpt lat="46.99683" lon="-1.75111">
        <ele>8.25</ele>
        <time>2020-06-06T08:46:01Z</time>
      </trkpt>
      <trkpt lat="46.99677" lon="-1.75093">
        <ele>7.52</ele>
        <time>2020-06-06T08:46:03Z</time>
      </trkpt>
      <trkpt lat="46.99672" lon="-1.75074">
        <ele>7.56</ele>
        <time>2020-06-06T08:46:05Z</time>
      </trkpt>
      <trkpt lat="46.99665" lon="-1.75054">
        <ele>7.99</ele>
        <time>2020-06-06T08:46:07Z</time>
      </trkpt>
      <trkpt lat="46.99659" lon="-1.75037">
        <ele>8.4</ele>
        <time>2020-06-06T08:46:09Z</time>
      </trkpt>
      <trkpt lat="46.99652" lon="-1.75017">
        <ele>8.49</ele>
        <time>2020-06-06T08:46:11Z</time>
      </trkpt>
      <trkpt lat="46.99647" lon="-1.74999">
        <ele>9.57</ele>
        <time>2020-06-06T08:46:13Z</time>
      </trkpt>
      <trkpt lat="46.99642" lon="-1.74982">
        <ele>10.83</ele>
        <time>2020-06-06T08:46:15Z</time>
      </trkpt>
      <trkpt lat="46.99636" lon="-1.74963">
        <ele>10.62</ele>
        <time>2020-06-06T08:46:17Z</time>
      </trkpt>
      <trkpt lat="46.99631" lon="-1.74947">
        <ele>10.63</ele>
        <time>2020-06-06T08:46:19Z</time>
      </trkpt>
      <trkpt lat="46.99625" lon="-1.7493">
        <ele>9.78</ele>
        <time>2020-06-06T08:46:21Z</time>
      </trkpt>
      <trkpt lat="46.99619" lon="-1.74911">
        <ele>9.2</ele>
        <time>2020-06-06T08:46:23Z</time>
      </trkpt>
      <trkpt lat="46.99612" lon="-1.74892">
        <ele>9.27</ele>
        <time>2020-06-06T08:46:25Z</time>
      </trkpt>
      <trkpt lat="46.99606" lon="-1.74873">
        <ele>9.4</ele>
        <time>2020-06-06T08:46:27Z</time>
      </trkpt>
      <trkpt lat="46.99601" lon="-1.74852">
        <ele>9.27</ele>
        <time>2020-06-06T08:46:29Z</time>
      </trkpt>
      <trkpt lat="46.99597" lon="-1.74836">
        <ele>8.96</ele>
        <time>2020-06-06T08:46:31Z</time>
      </trkpt>
      <trkpt lat="46.99595" lon="-1.74818">
        <ele>8.91</ele>
        <time>2020-06-06T08:46:33Z</time>
      </trkpt>
      <trkpt lat="46.99594" lon="-1.74798">
        <ele>9.65</ele>
        <time>2020-06-06T08:46:35Z</time>
      </trkpt>
      <trkpt lat="46.99595" lon="-1.74777">
        <ele>10.4</ele>
        <time>2020-06-06T08:46:37Z</time>
      </trkpt>
      <trkpt lat="46.99599" lon="-1.74756">
        <ele>11.41</ele>
        <time>2020-06-06T08:46:39Z</time>
      </trkpt>
      <trkpt lat="46.99604" lon="-1.74738">
        <ele>12.47</ele>
        <time>2020-06-06T08:46:41Z</time>
      </trkpt>
      <trkpt lat="46.9961" lon="-1.74719">
        <ele>12.52</ele>
        <time>2020-06-06T08:46:43Z</time>
      </trkpt>
      <trkpt lat="46.99617" lon="-1.74702">
        <ele>13.24</ele>
        <time>2020-06-06T08:46:45Z</time>
      </trkpt>
      <trkpt lat="46.99624" lon="-1.74686">
        <ele>13.42</ele>
        <time>2020-06-06T08:46:47Z</time>
      </trkpt>
      <trkpt lat="46.99632" lon="-1.7467">
        <ele>12.08</ele>
        <time>2020-06-06T08:46:49Z</time>
      </trkpt>
      <trkpt lat="46.9964" lon="-1.74651">
        <ele>11.01</ele>
        <time>2020-06-06T08:46:51Z</time>
      </trkpt>
      <trkpt lat="46.99648" lon="-1.74635">
        <ele>10.97</ele>
        <time>2020-06-06T08:46:53Z</time>
      </trkpt>
      <trkpt lat="46.99656" lon="-1.74619">
        <ele>12</ele>
        <time>2020-06-06T08:46:55Z</time>
      </trkpt>
      <trkpt lat="46.99663" lon="-1.74604">
        <ele>13.44</ele>
        <time>2020-06-06T08:46:57Z</time>
      </trkpt>
      <trkpt lat="46.99671" lon="-1.74588">
        <ele>14.31</ele>
        <time>2020-06-06T08:46:59Z</time>
      </trkpt>
      <trkpt lat="46.99679" lon="-1.74571">
        <ele>15.15</ele>
        <time>2020-06-06T08:47:01Z</time>
      </trkpt>
      <trkpt lat="46.99687" lon="-1.74557">
        <ele>15.21</ele>
        <time>2020-06-06T08:47:03Z</time>
      </trkpt>
      <trkpt lat="46.99695" lon="-1.7454">
        <ele>15.31</ele>
        <time>2020-06-06T08:47:05Z</time>
      </trkpt>
      <trkpt lat="46.99703" lon="-1.74526">
        <ele>15.31</ele>
        <time>2020-06-06T08:47:07Z</time>
      </trkpt>
      <trkpt lat="46.9971" lon="-1.74511">
        <ele>15</ele>
        <time>2020-06-06T08:47:09Z</time>
      </trkpt>
      <trkpt lat="46.99718" lon="-1.74495">
        <ele>15.09</ele>
        <time>2020-06-06T08:47:11Z</time>
      </trkpt>
      <trkpt lat="46.99725" lon="-1.7448">
        <ele>14.9</ele>
        <time>2020-06-06T08:47:13Z</time>
      </trkpt>
      <trkpt lat="46.99732" lon="-1.74466">
        <ele>15.2</ele>
        <time>2020-06-06T08:47:15Z</time>
      </trkpt>
      <trkpt lat="46.9974" lon="-1.7445">
        <ele>15.77</ele>
        <time>2020-06-06T08:47:17Z</time>
      </trkpt>
      <trkpt lat="46.99748" lon="-1.74431">
        <ele>16.4</ele>
        <time>2020-06-06T08:47:19Z</time>
      </trkpt>
      <trkpt lat="46.99754" lon="-1.74416">
        <ele>17.35</ele>
        <time>2020-06-06T08:47:21Z</time>
      </trkpt>
      <trkpt lat="46.99762" lon="-1.74398">
        <ele>18.18</ele>
        <time>2020-06-06T08:47:23Z</time>
      </trkpt>
      <trkpt lat="46.99769" lon="-1.7438">
        <ele>18.82</ele>
        <time>2020-06-06T08:47:25Z</time>
      </trkpt>
      <trkpt lat="46.99775" lon="-1.74364">
        <ele>19.22</ele>
        <time>2020-06-06T08:47:27Z</time>
      </trkpt>
      <trkpt lat="46.99781" lon="-1.74348">
        <ele>19.46</ele>
        <time>2020-06-06T08:47:29Z</time>
      </trkpt>
      <trkpt lat="46.99786" lon="-1.74331">
        <ele>19.22</ele>
        <time>2020-06-06T08:47:31Z</time>
      </trkpt>
      <trkpt lat="46.99792" lon="-1.74314">
        <ele>19.04</ele>
        <time>2020-06-06T08:47:33Z</time>
      </trkpt>
      <trkpt lat="46.99797" lon="-1.74298">
        <ele>19.15</ele>
        <time>2020-06-06T08:47:35Z</time>
      </trkpt>
      <trkpt lat="46.99803" lon="-1.74279">
        <ele>19.19</ele>
        <time>2020-06-06T08:47:37Z</time>
      </trkpt>
      <trkpt lat="46.99809" lon="-1.7426">
        <ele>17.93</ele>
        <time>2020-06-06T08:47:39Z</time>
      </trkpt>
      <trkpt lat="46.99814" lon="-1.74242">
        <ele>17.89</ele>
        <time>2020-06-06T08:47:41Z</time>
      </trkpt>
      <trkpt lat="46.9982" lon="-1.74223">
        <ele>17.65</ele>
        <time>2020-06-06T08:47:43Z</time>
      </trkpt>
      <trkpt lat="46.99825" lon="-1.74206">
        <ele>17.05</ele>
        <time>2020-06-06T08:47:45Z</time>
      </trkpt>
      <trkpt lat="46.99831" lon="-1.74186">
        <ele>18.01</ele>
        <time>2020-06-06T08:47:47Z</time>
      </trkpt>
      <trkpt lat="46.99836" lon="-1.74167">
        <ele>19.61</ele>
        <time>2020-06-06T08:47:49Z</time>
      </trkpt>
      <trkpt lat="46.99841" lon="-1.7415">
        <ele>20.99</ele>
        <time>2020-06-06T08:47:51Z</time>
      </trkpt>
      <trkpt lat="46.99847" lon="-1.74129">
        <ele>21.89</ele>
        <time>2020-06-06T08:47:53Z</time>
      </trkpt>
      <trkpt lat="46.99851" lon="-1.74113">
        <ele>21.71</ele>
        <time>2020-06-06T08:47:55Z</time>
      </trkpt>
      <trkpt lat="46.99856" lon="-1.74093">
        <ele>22.24</ele>
        <time>2020-06-06T08:47:57Z</time>
      </trkpt>
      <trkpt lat="46.9986" lon="-1.74076">
        <ele>22.69</ele>
        <time>2020-06-06T08:47:59Z</time>
      </trkpt>
      <trkpt lat="46.99865" lon="-1.74058">
        <ele>22.7</ele>
        <time>2020-06-06T08:48:01Z</time>
      </trkpt>
      <trkpt lat="46.9987" lon="-1.7404">
        <ele>22.86</ele>
        <time>2020-06-06T08:48:03Z</time>
      </trkpt>
      <trkpt lat="46.99875" lon="-1.74021">
        <ele>23.6</ele>
        <time>2020-06-06T08:48:05Z</time>
      </trkpt>
      <trkpt lat="46.99881" lon="-1.74001">
        <ele>23.86</ele>
        <time>2020-06-06T08:48:07Z</time>
      </trkpt>
      <trkpt lat="46.99886" lon="-1.73982">
        <ele>24.65</ele>
        <time>2020-06-06T08:48:09Z</time>
      </trkpt>
      <trkpt lat="46.99891" lon="-1.73962">
        <ele>24.7</ele>
        <time>2020-06-06T08:48:11Z</time>
      </trkpt>
      <trkpt lat="46.99896" lon="-1.73945">
        <ele>24.85</ele>
        <time>2020-06-06T08:48:13Z</time>
      </trkpt>
      <trkpt lat="46.99902" lon="-1.73928">
        <ele>24.28</ele>
        <time>2020-06-06T08:48:15Z</time>
      </trkpt>
      <trkpt lat="46.99909" lon="-1.73909">
        <ele>23.82</ele>
        <time>2020-06-06T08:48:17Z</time>
      </trkpt>
      <trkpt lat="46.99916" lon="-1.73892">
        <ele>24.35</ele>
        <time>2020-06-06T08:48:19Z</time>
      </trkpt>
      <trkpt lat="46.99925" lon="-1.73878">
        <ele>25.55</ele>
        <time>2020-06-06T08:48:21Z</time>
      </trkpt>
      <trkpt lat="46.99934" lon="-1.73865">
        <ele>25.43</ele>
        <time>2020-06-06T08:48:23Z</time>
      </trkpt>
      <trkpt lat="46.99944" lon="-1.73853">
        <ele>24.62</ele>
        <time>2020-06-06T08:48:25Z</time>
      </trkpt>
      <trkpt lat="46.99956" lon="-1.73842">
        <ele>23.28</ele>
        <time>2020-06-06T08:48:27Z</time>
      </trkpt>
      <trkpt lat="46.99968" lon="-1.73833">
        <ele>23.04</ele>
        <time>2020-06-06T08:48:29Z</time>
      </trkpt>
      <trkpt lat="46.9998" lon="-1.73826">
        <ele>23.05</ele>
        <time>2020-06-06T08:48:31Z</time>
      </trkpt>
      <trkpt lat="46.99992" lon="-1.7382">
        <ele>23.65</ele>
        <time>2020-06-06T08:48:33Z</time>
      </trkpt>
      <trkpt lat="47.00004" lon="-1.73815">
        <ele>23.89</ele>
        <time>2020-06-06T08:48:35Z</time>
      </trkpt>
      <trkpt lat="47.00016" lon="-1.73811">
        <ele>24.27</ele>
        <time>2020-06-06T08:48:37Z</time>
      </trkpt>
      <trkpt lat="47.00031" lon="-1.73805">
        <ele>24.34</ele>
        <time>2020-06-06T08:48:39Z</time>
      </trkpt>
      <trkpt lat="47.00043" lon="-1.738">
        <ele>24.3</ele>
        <time>2020-06-06T08:48:41Z</time>
      </trkpt>
      <trkpt lat="47.00055" lon="-1.73795">
        <ele>23.65</ele>
        <time>2020-06-06T08:48:43Z</time>
      </trkpt>
      <trkpt lat="47.00066" lon="-1.73784">
        <ele>23.44</ele>
        <time>2020-06-06T08:48:45Z</time>
      </trkpt>
      <trkpt lat="47.00076" lon="-1.7377">
        <ele>22.96</ele>
        <time>2020-06-06T08:48:47Z</time>
      </trkpt>
      <trkpt lat="47.0008" lon="-1.73752">
        <ele>22.7</ele>
        <time>2020-06-06T08:48:49Z</time>
      </trkpt>
      <trkpt lat="47.00078" lon="-1.73731">
        <ele>23.37</ele>
        <time>2020-06-06T08:48:51Z</time>
      </trkpt>
      <trkpt lat="47.00072" lon="-1.73712">
        <ele>22.64</ele>
        <time>2020-06-06T08:48:53Z</time>
      </trkpt>
      <trkpt lat="47.00058" lon="-1.73709">
        <ele>21.87</ele>
        <time>2020-06-06T08:48:55Z</time>
      </trkpt>
      <trkpt lat="47.00044" lon="-1.73717">
        <ele>21.56</ele>
        <time>2020-06-06T08:48:57Z</time>
      </trkpt>
      <trkpt lat="47.00031" lon="-1.7373">
        <ele>20.63</ele>
        <time>2020-06-06T08:48:59Z</time>
      </trkpt>
      <trkpt lat="47.00018" lon="-1.73742">
        <ele>19.56</ele>
        <time>2020-06-06T08:49:01Z</time>
      </trkpt>
      <trkpt lat="47.00005" lon="-1.73751">
        <ele>18.21</ele>
        <time>2020-06-06T08:49:03Z</time>
      </trkpt>
      <trkpt lat="46.9999" lon="-1.73756">
        <ele>17.32</ele>
        <time>2020-06-06T08:49:05Z</time>
      </trkpt>
      <trkpt lat="46.99974" lon="-1.7376">
        <ele>16.81</ele>
        <time>2020-06-06T08:49:07Z</time>
      </trkpt>
      <trkpt lat="46.99958" lon="-1.73761">
        <ele>16.19</ele>
        <time>2020-06-06T08:49:09Z</time>
      </trkpt>
      <trkpt lat="46.99942" lon="-1.73761">
        <ele>16.2</ele>
        <time>2020-06-06T08:49:11Z</time>
      </trkpt>
      <trkpt lat="46.99929" lon="-1.73761">
        <ele>16.13</ele>
        <time>2020-06-06T08:49:13Z</time>
      </trkpt>
      <trkpt lat="46.99914" lon="-1.73761">
        <ele>15.94</ele>
        <time>2020-06-06T08:49:15Z</time>
      </trkpt>
      <trkpt lat="46.99899" lon="-1.73761">
        <ele>15.91</ele>
        <time>2020-06-06T08:49:17Z</time>
      </trkpt>
      <trkpt lat="46.99885" lon="-1.73761">
        <ele>15.91</ele>
        <time>2020-06-06T08:49:19Z</time>
      </trkpt>
      <trkpt lat="46.99872" lon="-1.7376">
        <ele>15.53</ele>
        <time>2020-06-06T08:49:21Z</time>
      </trkpt>
      <trkpt lat="46.99856" lon="-1.73759">
        <ele>15.65</ele>
        <time>2020-06-06T08:49:23Z</time>
      </trkpt>
      <trkpt lat="46.99845" lon="-1.73757">
        <ele>15.61</ele>
        <time>2020-06-06T08:49:25Z</time>
      </trkpt>
      <trkpt lat="46.99831" lon="-1.73756">
        <ele>15.64</ele>
        <time>2020-06-06T08:49:27Z</time>
      </trkpt>
      <trkpt lat="46.99817" lon="-1.73758">
        <ele>15.72</ele>
        <time>2020-06-06T08:49:29Z</time>
      </trkpt>
      <trkpt lat="46.99807" lon="-1.73766">
        <ele>15.63</ele>
        <time>2020-06-06T08:49:31Z</time>
      </trkpt>
      <trkpt lat="46.99795" lon="-1.73777">
        <ele>16.09</ele>
        <time>2020-06-06T08:49:34Z</time>
      </trkpt>
      <trkpt lat="46.99782" lon="-1.73779">
        <ele>16.57</ele>
        <time>2020-06-06T08:49:36Z</time>
      </trkpt>
      <trkpt lat="46.99771" lon="-1.7377">
        <ele>17.2</ele>
        <time>2020-06-06T08:49:38Z</time>
      </trkpt>
      <trkpt lat="46.99763" lon="-1.73754">
        <ele>16.99</ele>
        <time>2020-06-06T08:49:40Z</time>
      </trkpt>
      <trkpt lat="46.99755" lon="-1.73738">
        <ele>17.31</ele>
        <time>2020-06-06T08:49:42Z</time>
      </trkpt>
      <trkpt lat="46.99745" lon="-1.73729">
        <ele>17.85</ele>
        <time>2020-06-06T08:49:44Z</time>
      </trkpt>
      <trkpt lat="46.99733" lon="-1.73717">
        <ele>17.85</ele>
        <time>2020-06-06T08:49:46Z</time>
      </trkpt>
      <trkpt lat="46.99722" lon="-1.73706">
        <ele>17.83</ele>
        <time>2020-06-06T08:49:48Z</time>
      </trkpt>
      <trkpt lat="46.99711" lon="-1.73695">
        <ele>18.12</ele>
        <time>2020-06-06T08:49:50Z</time>
      </trkpt>
      <trkpt lat="46.99706" lon="-1.73679">
        <ele>18.41</ele>
        <time>2020-06-06T08:49:52Z</time>
      </trkpt>
      <trkpt lat="46.99713" lon="-1.73665">
        <ele>18.67</ele>
        <time>2020-06-06T08:49:54Z</time>
      </trkpt>
      <trkpt lat="46.99722" lon="-1.73649">
        <ele>19.17</ele>
        <time>2020-06-06T08:49:56Z</time>
      </trkpt>
      <trkpt lat="46.9973" lon="-1.73633">
        <ele>20.57</ele>
        <time>2020-06-06T08:49:58Z</time>
      </trkpt>
      <trkpt lat="46.99739" lon="-1.73615">
        <ele>22.2</ele>
        <time>2020-06-06T08:50:00Z</time>
      </trkpt>
      <trkpt lat="46.99747" lon="-1.73599">
        <ele>23.22</ele>
        <time>2020-06-06T08:50:02Z</time>
      </trkpt>
      <trkpt lat="46.99754" lon="-1.73584">
        <ele>23.46</ele>
        <time>2020-06-06T08:50:04Z</time>
      </trkpt>
      <trkpt lat="46.99762" lon="-1.73569">
        <ele>22.7</ele>
        <time>2020-06-06T08:50:06Z</time>
      </trkpt>
      <trkpt lat="46.9977" lon="-1.73555">
        <ele>21.21</ele>
        <time>2020-06-06T08:50:08Z</time>
      </trkpt>
      <trkpt lat="46.99777" lon="-1.73538">
        <ele>20.68</ele>
        <time>2020-06-06T08:50:10Z</time>
      </trkpt>
      <trkpt lat="46.99785" lon="-1.73522">
        <ele>20.73</ele>
        <time>2020-06-06T08:50:12Z</time>
      </trkpt>
      <trkpt lat="46.99792" lon="-1.73507">
        <ele>21.01</ele>
        <time>2020-06-06T08:50:14Z</time>
      </trkpt>
      <trkpt lat="46.99799" lon="-1.73492">
        <ele>21.58</ele>
        <time>2020-06-06T08:50:16Z</time>
      </trkpt>
      <trkpt lat="46.99806" lon="-1.73477">
        <ele>22.84</ele>
        <time>2020-06-06T08:50:18Z</time>
      </trkpt>
      <trkpt lat="46.99814" lon="-1.73461">
        <ele>23.87</ele>
        <time>2020-06-06T08:50:20Z</time>
      </trkpt>
      <trkpt lat="46.99822" lon="-1.73444">
        <ele>24.75</ele>
        <time>2020-06-06T08:50:22Z</time>
      </trkpt>
      <trkpt lat="46.99829" lon="-1.7343">
        <ele>25.49</ele>
        <time>2020-06-06T08:50:24Z</time>
      </trkpt>
      <trkpt lat="46.99837" lon="-1.73415">
        <ele>25.87</ele>
        <time>2020-06-06T08:50:26Z</time>
      </trkpt>
      <trkpt lat="46.99845" lon="-1.734">
        <ele>26.04</ele>
        <time>2020-06-06T08:50:28Z</time>
      </trkpt>
      <trkpt lat="46.99853" lon="-1.73384">
        <ele>24.73</ele>
        <time>2020-06-06T08:50:30Z</time>
      </trkpt>
      <trkpt lat="46.9986" lon="-1.7337">
        <ele>24.24</ele>
        <time>2020-06-06T08:50:32Z</time>
      </trkpt>
      <trkpt lat="46.99868" lon="-1.73355">
        <ele>24.44</ele>
        <time>2020-06-06T08:50:34Z</time>
      </trkpt>
      <trkpt lat="46.99874" lon="-1.73341">
        <ele>23.56</ele>
        <time>2020-06-06T08:50:36Z</time>
      </trkpt>
      <trkpt lat="46.99882" lon="-1.73325">
        <ele>24.01</ele>
        <time>2020-06-06T08:50:38Z</time>
      </trkpt>
      <trkpt lat="46.9989" lon="-1.73311">
        <ele>24.25</ele>
        <time>2020-06-06T08:50:40Z</time>
      </trkpt>
      <trkpt lat="46.99897" lon="-1.73296">
        <ele>24.23</ele>
        <time>2020-06-06T08:50:42Z</time>
      </trkpt>
      <trkpt lat="46.99903" lon="-1.73283">
        <ele>24.29</ele>
        <time>2020-06-06T08:50:44Z</time>
      </trkpt>
      <trkpt lat="46.99906" lon="-1.73267">
        <ele>25.34</ele>
        <time>2020-06-06T08:50:46Z</time>
      </trkpt>
      <trkpt lat="46.99905" lon="-1.73248">
        <ele>26.11</ele>
        <time>2020-06-06T08:50:48Z</time>
      </trkpt>
      <trkpt lat="46.99902" lon="-1.73226">
        <ele>27.01</ele>
        <time>2020-06-06T08:50:50Z</time>
      </trkpt>
      <trkpt lat="46.99899" lon="-1.73207">
        <ele>27.02</ele>
        <time>2020-06-06T08:50:52Z</time>
      </trkpt>
      <trkpt lat="46.99895" lon="-1.73189">
        <ele>26.79</ele>
        <time>2020-06-06T08:50:54Z</time>
      </trkpt>
      <trkpt lat="46.99892" lon="-1.73171">
        <ele>26.4</ele>
        <time>2020-06-06T08:50:56Z</time>
      </trkpt>
      <trkpt lat="46.99889" lon="-1.73154">
        <ele>26.32</ele>
        <time>2020-06-06T08:50:58Z</time>
      </trkpt>
      <trkpt lat="46.99886" lon="-1.73134">
        <ele>26.02</ele>
        <time>2020-06-06T08:51:00Z</time>
      </trkpt>
      <trkpt lat="46.99882" lon="-1.73114">
        <ele>25.11</ele>
        <time>2020-06-06T08:51:02Z</time>
      </trkpt>
      <trkpt lat="46.99879" lon="-1.73095">
        <ele>24.32</ele>
        <time>2020-06-06T08:51:04Z</time>
      </trkpt>
      <trkpt lat="46.99876" lon="-1.73077">
        <ele>23.9</ele>
        <time>2020-06-06T08:51:06Z</time>
      </trkpt>
      <trkpt lat="46.99873" lon="-1.73059">
        <ele>23.41</ele>
        <time>2020-06-06T08:51:08Z</time>
      </trkpt>
      <trkpt lat="46.9987" lon="-1.73039">
        <ele>22.92</ele>
        <time>2020-06-06T08:51:10Z</time>
      </trkpt>
      <trkpt lat="46.99867" lon="-1.73019">
        <ele>22.57</ele>
        <time>2020-06-06T08:51:12Z</time>
      </trkpt>
      <trkpt lat="46.99864" lon="-1.73001">
        <ele>22.44</ele>
        <time>2020-06-06T08:51:14Z</time>
      </trkpt>
      <trkpt lat="46.99862" lon="-1.72984">
        <ele>23.48</ele>
        <time>2020-06-06T08:51:16Z</time>
      </trkpt>
      <trkpt lat="46.9986" lon="-1.72964">
        <ele>24.91</ele>
        <time>2020-06-06T08:51:18Z</time>
      </trkpt>
      <trkpt lat="46.99858" lon="-1.72945">
        <ele>26.18</ele>
        <time>2020-06-06T08:51:20Z</time>
      </trkpt>
      <trkpt lat="46.99855" lon="-1.72926">
        <ele>26.81</ele>
        <time>2020-06-06T08:51:22Z</time>
      </trkpt>
      <trkpt lat="46.99854" lon="-1.72907">
        <ele>27.56</ele>
        <time>2020-06-06T08:51:24Z</time>
      </trkpt>
      <trkpt lat="46.99853" lon="-1.72891">
        <ele>27.48</ele>
        <time>2020-06-06T08:51:26Z</time>
      </trkpt>
      <trkpt lat="46.99852" lon="-1.7287">
        <ele>27.31</ele>
        <time>2020-06-06T08:51:28Z</time>
      </trkpt>
      <trkpt lat="46.99852" lon="-1.72851">
        <ele>28.53</ele>
        <time>2020-06-06T08:51:30Z</time>
      </trkpt>
      <trkpt lat="46.99852" lon="-1.72832">
        <ele>28.75</ele>
        <time>2020-06-06T08:51:32Z</time>
      </trkpt>
      <trkpt lat="46.99851" lon="-1.72814">
        <ele>28.36</ele>
        <time>2020-06-06T08:51:34Z</time>
      </trkpt>
      <trkpt lat="46.99851" lon="-1.72793">
        <ele>28.11</ele>
        <time>2020-06-06T08:51:36Z</time>
      </trkpt>
      <trkpt lat="46.99851" lon="-1.72775">
        <ele>27.4</ele>
        <time>2020-06-06T08:51:38Z</time>
      </trkpt>
      <trkpt lat="46.99852" lon="-1.72757">
        <ele>26.93</ele>
        <time>2020-06-06T08:51:40Z</time>
      </trkpt>
      <trkpt lat="46.99852" lon="-1.72739">
        <ele>26.95</ele>
        <time>2020-06-06T08:51:42Z</time>
      </trkpt>
      <trkpt lat="46.99853" lon="-1.72719">
        <ele>27.56</ele>
        <time>2020-06-06T08:51:44Z</time>
      </trkpt>
      <trkpt lat="46.99853" lon="-1.72698">
        <ele>27.79</ele>
        <time>2020-06-06T08:51:46Z</time>
      </trkpt>
      <trkpt lat="46.99852" lon="-1.72681">
        <ele>27.34</ele>
        <time>2020-06-06T08:51:48Z</time>
      </trkpt>
      <trkpt lat="46.99852" lon="-1.72662">
        <ele>26.37</ele>
        <time>2020-06-06T08:51:50Z</time>
      </trkpt>
      <trkpt lat="46.99851" lon="-1.72648">
        <ele>25.72</ele>
        <time>2020-06-06T08:51:52Z</time>
      </trkpt>
      <trkpt lat="46.99851" lon="-1.72628">
        <ele>25.59</ele>
        <time>2020-06-06T08:51:54Z</time>
      </trkpt>
      <trkpt lat="46.9985" lon="-1.72609">
        <ele>25.03</ele>
        <time>2020-06-06T08:51:56Z</time>
      </trkpt>
      <trkpt lat="46.9985" lon="-1.72591">
        <ele>23.71</ele>
        <time>2020-06-06T08:51:58Z</time>
      </trkpt>
      <trkpt lat="46.9985" lon="-1.72575">
        <ele>23.1</ele>
        <time>2020-06-06T08:52:00Z</time>
      </trkpt>
      <trkpt lat="46.9985" lon="-1.72556">
        <ele>23.07</ele>
        <time>2020-06-06T08:52:02Z</time>
      </trkpt>
      <trkpt lat="46.99851" lon="-1.72537">
        <ele>24.51</ele>
        <time>2020-06-06T08:52:04Z</time>
      </trkpt>
      <trkpt lat="46.99852" lon="-1.72517">
        <ele>25.42</ele>
        <time>2020-06-06T08:52:06Z</time>
      </trkpt>
      <trkpt lat="46.99852" lon="-1.72497">
        <ele>26.21</ele>
        <time>2020-06-06T08:52:08Z</time>
      </trkpt>
      <trkpt lat="46.99853" lon="-1.72479">
        <ele>26.88</ele>
        <time>2020-06-06T08:52:10Z</time>
      </trkpt>
      <trkpt lat="46.99854" lon="-1.7246">
        <ele>27.27</ele>
        <time>2020-06-06T08:52:12Z</time>
      </trkpt>
      <trkpt lat="46.99856" lon="-1.72441">
        <ele>27.75</ele>
        <time>2020-06-06T08:52:14Z</time>
      </trkpt>
      <trkpt lat="46.99859" lon="-1.7242">
        <ele>28.33</ele>
        <time>2020-06-06T08:52:16Z</time>
      </trkpt>
      <trkpt lat="46.99861" lon="-1.72403">
        <ele>28.94</ele>
        <time>2020-06-06T08:52:18Z</time>
      </trkpt>
      <trkpt lat="46.99864" lon="-1.72384">
        <ele>29.52</ele>
        <time>2020-06-06T08:52:20Z</time>
      </trkpt>
      <trkpt lat="46.99867" lon="-1.72366">
        <ele>29.86</ele>
        <time>2020-06-06T08:52:22Z</time>
      </trkpt>
      <trkpt lat="46.99871" lon="-1.72348">
        <ele>30.18</ele>
        <time>2020-06-06T08:52:24Z</time>
      </trkpt>
      <trkpt lat="46.99875" lon="-1.7233">
        <ele>30.32</ele>
        <time>2020-06-06T08:52:26Z</time>
      </trkpt>
      <trkpt lat="46.9988" lon="-1.72311">
        <ele>30.51</ele>
        <time>2020-06-06T08:52:28Z</time>
      </trkpt>
      <trkpt lat="46.99884" lon="-1.72292">
        <ele>30.17</ele>
        <time>2020-06-06T08:52:30Z</time>
      </trkpt>
      <trkpt lat="46.99888" lon="-1.72273">
        <ele>29.93</ele>
        <time>2020-06-06T08:52:32Z</time>
      </trkpt>
      <trkpt lat="46.99891" lon="-1.72253">
        <ele>29.66</ele>
        <time>2020-06-06T08:52:34Z</time>
      </trkpt>
      <trkpt lat="46.99893" lon="-1.72235">
        <ele>29.76</ele>
        <time>2020-06-06T08:52:36Z</time>
      </trkpt>
      <trkpt lat="46.99894" lon="-1.72216">
        <ele>29.72</ele>
        <time>2020-06-06T08:52:38Z</time>
      </trkpt>
      <trkpt lat="46.99894" lon="-1.72199">
        <ele>29.76</ele>
        <time>2020-06-06T08:52:40Z</time>
      </trkpt>
      <trkpt lat="46.99894" lon="-1.7218">
        <ele>29.65</ele>
        <time>2020-06-06T08:52:42Z</time>
      </trkpt>
      <trkpt lat="46.99894" lon="-1.7216">
        <ele>29.86</ele>
        <time>2020-06-06T08:52:44Z</time>
      </trkpt>
      <trkpt lat="46.99893" lon="-1.7214">
        <ele>29.78</ele>
        <time>2020-06-06T08:52:46Z</time>
      </trkpt>
      <trkpt lat="46.99892" lon="-1.72119">
        <ele>28.78</ele>
        <time>2020-06-06T08:52:48Z</time>
      </trkpt>
      <trkpt lat="46.99891" lon="-1.72098">
        <ele>28.36</ele>
        <time>2020-06-06T08:52:50Z</time>
      </trkpt>
      <trkpt lat="46.99889" lon="-1.72081">
        <ele>28.82</ele>
        <time>2020-06-06T08:52:52Z</time>
      </trkpt>
      <trkpt lat="46.99888" lon="-1.72062">
        <ele>28.65</ele>
        <time>2020-06-06T08:52:54Z</time>
      </trkpt>
      <trkpt lat="46.99887" lon="-1.7204">
        <ele>27.92</ele>
        <time>2020-06-06T08:52:56Z</time>
      </trkpt>
      <trkpt lat="46.99886" lon="-1.72021">
        <ele>27.28</ele>
        <time>2020-06-06T08:52:58Z</time>
      </trkpt>
      <trkpt lat="46.99884" lon="-1.72001">
        <ele>26.5</ele>
        <time>2020-06-06T08:53:00Z</time>
      </trkpt>
      <trkpt lat="46.99883" lon="-1.71983">
        <ele>25.58</ele>
        <time>2020-06-06T08:53:02Z</time>
      </trkpt>
      <trkpt lat="46.99882" lon="-1.71965">
        <ele>25.27</ele>
        <time>2020-06-06T08:53:04Z</time>
      </trkpt>
      <trkpt lat="46.99881" lon="-1.71946">
        <ele>24.2</ele>
        <time>2020-06-06T08:53:06Z</time>
      </trkpt>
      <trkpt lat="46.9988" lon="-1.71925">
        <ele>23.1</ele>
        <time>2020-06-06T08:53:08Z</time>
      </trkpt>
      <trkpt lat="46.99879" lon="-1.71905">
        <ele>22.85</ele>
        <time>2020-06-06T08:53:10Z</time>
      </trkpt>
      <trkpt lat="46.99878" lon="-1.71885">
        <ele>23.48</ele>
        <time>2020-06-06T08:53:12Z</time>
      </trkpt>
      <trkpt lat="46.99877" lon="-1.71866">
        <ele>25</ele>
        <time>2020-06-06T08:53:14Z</time>
      </trkpt>
      <trkpt lat="46.99876" lon="-1.71846">
        <ele>26.36</ele>
        <time>2020-06-06T08:53:16Z</time>
      </trkpt>
      <trkpt lat="46.99875" lon="-1.71826">
        <ele>27.15</ele>
        <time>2020-06-06T08:53:18Z</time>
      </trkpt>
      <trkpt lat="46.99874" lon="-1.71807">
        <ele>26.91</ele>
        <time>2020-06-06T08:53:20Z</time>
      </trkpt>
      <trkpt lat="46.99874" lon="-1.71789">
        <ele>26.46</ele>
        <time>2020-06-06T08:53:22Z</time>
      </trkpt>
      <trkpt lat="46.99872" lon="-1.71769">
        <ele>25.99</ele>
        <time>2020-06-06T08:53:24Z</time>
      </trkpt>
      <trkpt lat="46.99871" lon="-1.71751">
        <ele>26.38</ele>
        <time>2020-06-06T08:53:26Z</time>
      </trkpt>
      <trkpt lat="46.9987" lon="-1.7173">
        <ele>27.21</ele>
        <time>2020-06-06T08:53:28Z</time>
      </trkpt>
      <trkpt lat="46.99868" lon="-1.7171">
        <ele>27.5</ele>
        <time>2020-06-06T08:53:30Z</time>
      </trkpt>
      <trkpt lat="46.99868" lon="-1.7169">
        <ele>27.07</ele>
        <time>2020-06-06T08:53:32Z</time>
      </trkpt>
      <trkpt lat="46.99867" lon="-1.71671">
        <ele>26.72</ele>
        <time>2020-06-06T08:53:34Z</time>
      </trkpt>
      <trkpt lat="46.99866" lon="-1.71651">
        <ele>27.16</ele>
        <time>2020-06-06T08:53:36Z</time>
      </trkpt>
      <trkpt lat="46.99866" lon="-1.71631">
        <ele>27.68</ele>
        <time>2020-06-06T08:53:38Z</time>
      </trkpt>
      <trkpt lat="46.99865" lon="-1.71612">
        <ele>28.08</ele>
        <time>2020-06-06T08:53:40Z</time>
      </trkpt>
      <trkpt lat="46.99864" lon="-1.71593">
        <ele>28.13</ele>
        <time>2020-06-06T08:53:42Z</time>
      </trkpt>
      <trkpt lat="46.99863" lon="-1.71572">
        <ele>28.53</ele>
        <time>2020-06-06T08:53:44Z</time>
      </trkpt>
      <trkpt lat="46.99862" lon="-1.71553">
        <ele>27.85</ele>
        <time>2020-06-06T08:53:46Z</time>
      </trkpt>
      <trkpt lat="46.99861" lon="-1.71533">
        <ele>27.7</ele>
        <time>2020-06-06T08:53:48Z</time>
      </trkpt>
      <trkpt lat="46.9986" lon="-1.71514">
        <ele>28.28</ele>
        <time>2020-06-06T08:53:50Z</time>
      </trkpt>
      <trkpt lat="46.9986" lon="-1.71495">
        <ele>28.98</ele>
        <time>2020-06-06T08:53:52Z</time>
      </trkpt>
      <trkpt lat="46.99859" lon="-1.71475">
        <ele>29.68</ele>
        <time>2020-06-06T08:53:54Z</time>
      </trkpt>
      <trkpt lat="46.99858" lon="-1.71453">
        <ele>29.88</ele>
        <time>2020-06-06T08:53:56Z</time>
      </trkpt>
      <trkpt lat="46.99858" lon="-1.71434">
        <ele>28.75</ele>
        <time>2020-06-06T08:53:58Z</time>
      </trkpt>
      <trkpt lat="46.99857" lon="-1.71416">
        <ele>28.23</ele>
        <time>2020-06-06T08:54:00Z</time>
      </trkpt>
      <trkpt lat="46.99857" lon="-1.71396">
        <ele>28.2</ele>
        <time>2020-06-06T08:54:02Z</time>
      </trkpt>
      <trkpt lat="46.99856" lon="-1.71376">
        <ele>28.75</ele>
        <time>2020-06-06T08:54:04Z</time>
      </trkpt>
      <trkpt lat="46.99856" lon="-1.71354">
        <ele>28.6</ele>
        <time>2020-06-06T08:54:06Z</time>
      </trkpt>
      <trkpt lat="46.99855" lon="-1.71336">
        <ele>28.77</ele>
        <time>2020-06-06T08:54:08Z</time>
      </trkpt>
      <trkpt lat="46.99854" lon="-1.71316">
        <ele>29.4</ele>
        <time>2020-06-06T08:54:10Z</time>
      </trkpt>
      <trkpt lat="46.99852" lon="-1.71296">
        <ele>29.48</ele>
        <time>2020-06-06T08:54:12Z</time>
      </trkpt>
      <trkpt lat="46.9985" lon="-1.71278">
        <ele>29.69</ele>
        <time>2020-06-06T08:54:14Z</time>
      </trkpt>
      <trkpt lat="46.99848" lon="-1.71258">
        <ele>29.58</ele>
        <time>2020-06-06T08:54:16Z</time>
      </trkpt>
      <trkpt lat="46.99845" lon="-1.71239">
        <ele>29.59</ele>
        <time>2020-06-06T08:54:18Z</time>
      </trkpt>
      <trkpt lat="46.99842" lon="-1.7122">
        <ele>29.12</ele>
        <time>2020-06-06T08:54:20Z</time>
      </trkpt>
      <trkpt lat="46.99838" lon="-1.71199">
        <ele>28.69</ele>
        <time>2020-06-06T08:54:22Z</time>
      </trkpt>
      <trkpt lat="46.99835" lon="-1.71179">
        <ele>28.51</ele>
        <time>2020-06-06T08:54:24Z</time>
      </trkpt>
      <trkpt lat="46.99833" lon="-1.71161">
        <ele>27.92</ele>
        <time>2020-06-06T08:54:26Z</time>
      </trkpt>
      <trkpt lat="46.9983" lon="-1.71142">
        <ele>27.93</ele>
        <time>2020-06-06T08:54:28Z</time>
      </trkpt>
      <trkpt lat="46.99826" lon="-1.7112">
        <ele>28.42</ele>
        <time>2020-06-06T08:54:30Z</time>
      </trkpt>
      <trkpt lat="46.99823" lon="-1.71101">
        <ele>28.05</ele>
        <time>2020-06-06T08:54:32Z</time>
      </trkpt>
      <trkpt lat="46.9982" lon="-1.71081">
        <ele>27.66</ele>
        <time>2020-06-06T08:54:34Z</time>
      </trkpt>
      <trkpt lat="46.99818" lon="-1.71061">
        <ele>27.34</ele>
        <time>2020-06-06T08:54:36Z</time>
      </trkpt>
      <trkpt lat="46.99815" lon="-1.7104">
        <ele>27.28</ele>
        <time>2020-06-06T08:54:38Z</time>
      </trkpt>
      <trkpt lat="46.99813" lon="-1.71021">
        <ele>26.54</ele>
        <time>2020-06-06T08:54:40Z</time>
      </trkpt>
      <trkpt lat="46.9981" lon="-1.71002">
        <ele>26.6</ele>
        <time>2020-06-06T08:54:42Z</time>
      </trkpt>
      <trkpt lat="46.99807" lon="-1.70982">
        <ele>27.1</ele>
        <time>2020-06-06T08:54:44Z</time>
      </trkpt>
      <trkpt lat="46.99803" lon="-1.70957">
        <ele>27.62</ele>
        <time>2020-06-06T08:54:46Z</time>
      </trkpt>
      <trkpt lat="46.998" lon="-1.70938">
        <ele>27.77</ele>
        <time>2020-06-06T08:54:48Z</time>
      </trkpt>
      <trkpt lat="46.99797" lon="-1.7092">
        <ele>27.52</ele>
        <time>2020-06-06T08:54:50Z</time>
      </trkpt>
      <trkpt lat="46.99794" lon="-1.70903">
        <ele>27.44</ele>
        <time>2020-06-06T08:54:52Z</time>
      </trkpt>
      <trkpt lat="46.99791" lon="-1.70884">
        <ele>26.99</ele>
        <time>2020-06-06T08:54:54Z</time>
      </trkpt>
      <trkpt lat="46.99788" lon="-1.70862">
        <ele>26.46</ele>
        <time>2020-06-06T08:54:56Z</time>
      </trkpt>
      <trkpt lat="46.99785" lon="-1.7084">
        <ele>26.16</ele>
        <time>2020-06-06T08:54:58Z</time>
      </trkpt>
      <trkpt lat="46.99783" lon="-1.70819">
        <ele>26.04</ele>
        <time>2020-06-06T08:55:00Z</time>
      </trkpt>
      <trkpt lat="46.9978" lon="-1.708">
        <ele>26.09</ele>
        <time>2020-06-06T08:55:02Z</time>
      </trkpt>
      <trkpt lat="46.99777" lon="-1.70778">
        <ele>25.71</ele>
        <time>2020-06-06T08:55:04Z</time>
      </trkpt>
      <trkpt lat="46.99774" lon="-1.70759">
        <ele>25.96</ele>
        <time>2020-06-06T08:55:06Z</time>
      </trkpt>
      <trkpt lat="46.99772" lon="-1.70737">
        <ele>25.73</ele>
        <time>2020-06-06T08:55:08Z</time>
      </trkpt>
      <trkpt lat="46.99769" lon="-1.70717">
        <ele>25.04</ele>
        <time>2020-06-06T08:55:10Z</time>
      </trkpt>
      <trkpt lat="46.99767" lon="-1.70697">
        <ele>24.35</ele>
        <time>2020-06-06T08:55:12Z</time>
      </trkpt>
      <trkpt lat="46.99765" lon="-1.70677">
        <ele>24.73</ele>
        <time>2020-06-06T08:55:14Z</time>
      </trkpt>
      <trkpt lat="46.99763" lon="-1.70656">
        <ele>24.98</ele>
        <time>2020-06-06T08:55:16Z</time>
      </trkpt>
      <trkpt lat="46.99761" lon="-1.70636">
        <ele>25.13</ele>
        <time>2020-06-06T08:55:18Z</time>
      </trkpt>
      <trkpt lat="46.99759" lon="-1.70615">
        <ele>25.4</ele>
        <time>2020-06-06T08:55:20Z</time>
      </trkpt>
      <trkpt lat="46.99758" lon="-1.70597">
        <ele>26.15</ele>
        <time>2020-06-06T08:55:22Z</time>
      </trkpt>
      <trkpt lat="46.99756" lon="-1.70578">
        <ele>27.17</ele>
        <time>2020-06-06T08:55:24Z</time>
      </trkpt>
      <trkpt lat="46.99755" lon="-1.70555">
        <ele>28.08</ele>
        <time>2020-06-06T08:55:26Z</time>
      </trkpt>
      <trkpt lat="46.99753" lon="-1.70537">
        <ele>28.93</ele>
        <time>2020-06-06T08:55:28Z</time>
      </trkpt>
      <trkpt lat="46.99752" lon="-1.70514">
        <ele>28.63</ele>
        <time>2020-06-06T08:55:30Z</time>
      </trkpt>
      <trkpt lat="46.99751" lon="-1.70494">
        <ele>28.78</ele>
        <time>2020-06-06T08:55:32Z</time>
      </trkpt>
      <trkpt lat="46.99749" lon="-1.70472">
        <ele>29.25</ele>
        <time>2020-06-06T08:55:34Z</time>
      </trkpt>
      <trkpt lat="46.99748" lon="-1.70451">
        <ele>29.31</ele>
        <time>2020-06-06T08:55:36Z</time>
      </trkpt>
      <trkpt lat="46.99747" lon="-1.70431">
        <ele>29.75</ele>
        <time>2020-06-06T08:55:38Z</time>
      </trkpt>
      <trkpt lat="46.99745" lon="-1.7041">
        <ele>29.1</ele>
        <time>2020-06-06T08:55:40Z</time>
      </trkpt>
      <trkpt lat="46.99744" lon="-1.70392">
        <ele>28.62</ele>
        <time>2020-06-06T08:55:42Z</time>
      </trkpt>
      <trkpt lat="46.99742" lon="-1.7037">
        <ele>28.84</ele>
        <time>2020-06-06T08:55:44Z</time>
      </trkpt>
      <trkpt lat="46.99741" lon="-1.7035">
        <ele>28.88</ele>
        <time>2020-06-06T08:55:46Z</time>
      </trkpt>
      <trkpt lat="46.9974" lon="-1.7033">
        <ele>29.45</ele>
        <time>2020-06-06T08:55:48Z</time>
      </trkpt>
      <trkpt lat="46.99739" lon="-1.70309">
        <ele>29.02</ele>
        <time>2020-06-06T08:55:50Z</time>
      </trkpt>
      <trkpt lat="46.99738" lon="-1.70285">
        <ele>28.69</ele>
        <time>2020-06-06T08:55:52Z</time>
      </trkpt>
      <trkpt lat="46.99738" lon="-1.70265">
        <ele>28.57</ele>
        <time>2020-06-06T08:55:54Z</time>
      </trkpt>
      <trkpt lat="46.99738" lon="-1.70245">
        <ele>28.3</ele>
        <time>2020-06-06T08:55:56Z</time>
      </trkpt>
      <trkpt lat="46.99738" lon="-1.70224">
        <ele>28.7</ele>
        <time>2020-06-06T08:55:58Z</time>
      </trkpt>
      <trkpt lat="46.99738" lon="-1.70203">
        <ele>28.9</ele>
        <time>2020-06-06T08:56:00Z</time>
      </trkpt>
      <trkpt lat="46.9974" lon="-1.70181">
        <ele>28.37</ele>
        <time>2020-06-06T08:56:02Z</time>
      </trkpt>
      <trkpt lat="46.99741" lon="-1.70162">
        <ele>27.52</ele>
        <time>2020-06-06T08:56:04Z</time>
      </trkpt>
      <trkpt lat="46.99742" lon="-1.70143">
        <ele>27.58</ele>
        <time>2020-06-06T08:56:06Z</time>
      </trkpt>
      <trkpt lat="46.99743" lon="-1.70122">
        <ele>28.1</ele>
        <time>2020-06-06T08:56:08Z</time>
      </trkpt>
      <trkpt lat="46.99746" lon="-1.70098">
        <ele>28.49</ele>
        <time>2020-06-06T08:56:10Z</time>
      </trkpt>
      <trkpt lat="46.99747" lon="-1.70077">
        <ele>29.44</ele>
        <time>2020-06-06T08:56:12Z</time>
      </trkpt>
      <trkpt lat="46.99747" lon="-1.70056">
        <ele>30.89</ele>
        <time>2020-06-06T08:56:14Z</time>
      </trkpt>
      <trkpt lat="46.99748" lon="-1.70035">
        <ele>32.06</ele>
        <time>2020-06-06T08:56:16Z</time>
      </trkpt>
      <trkpt lat="46.99749" lon="-1.70011">
        <ele>31.66</ele>
        <time>2020-06-06T08:56:18Z</time>
      </trkpt>
      <trkpt lat="46.99749" lon="-1.69991">
        <ele>30.66</ele>
        <time>2020-06-06T08:56:20Z</time>
      </trkpt>
      <trkpt lat="46.9975" lon="-1.69972">
        <ele>29.67</ele>
        <time>2020-06-06T08:56:22Z</time>
      </trkpt>
      <trkpt lat="46.99751" lon="-1.69951">
        <ele>28.97</ele>
        <time>2020-06-06T08:56:24Z</time>
      </trkpt>
      <trkpt lat="46.99752" lon="-1.69929">
        <ele>29.24</ele>
        <time>2020-06-06T08:56:26Z</time>
      </trkpt>
      <trkpt lat="46.99752" lon="-1.69909">
        <ele>29.91</ele>
        <time>2020-06-06T08:56:28Z</time>
      </trkpt>
      <trkpt lat="46.99751" lon="-1.69887">
        <ele>30.23</ele>
        <time>2020-06-06T08:56:30Z</time>
      </trkpt>
      <trkpt lat="46.9975" lon="-1.69865">
        <ele>31.04</ele>
        <time>2020-06-06T08:56:32Z</time>
      </trkpt>
      <trkpt lat="46.99748" lon="-1.69842">
        <ele>31.14</ele>
        <time>2020-06-06T08:56:34Z</time>
      </trkpt>
      <trkpt lat="46.99746" lon="-1.69824">
        <ele>30.89</ele>
        <time>2020-06-06T08:56:36Z</time>
      </trkpt>
      <trkpt lat="46.99742" lon="-1.69802">
        <ele>30.71</ele>
        <time>2020-06-06T08:56:38Z</time>
      </trkpt>
      <trkpt lat="46.99739" lon="-1.69778">
        <ele>30.94</ele>
        <time>2020-06-06T08:56:40Z</time>
      </trkpt>
      <trkpt lat="46.99736" lon="-1.69757">
        <ele>31.42</ele>
        <time>2020-06-06T08:56:42Z</time>
      </trkpt>
      <trkpt lat="46.99733" lon="-1.69736">
        <ele>31.55</ele>
        <time>2020-06-06T08:56:44Z</time>
      </trkpt>
      <trkpt lat="46.99731" lon="-1.69716">
        <ele>31.4</ele>
        <time>2020-06-06T08:56:46Z</time>
      </trkpt>
      <trkpt lat="46.99728" lon="-1.69695">
        <ele>31.05</ele>
        <time>2020-06-06T08:56:48Z</time>
      </trkpt>
      <trkpt lat="46.99725" lon="-1.69673">
        <ele>30.72</ele>
        <time>2020-06-06T08:56:50Z</time>
      </trkpt>
      <trkpt lat="46.99723" lon="-1.69653">
        <ele>30.06</ele>
        <time>2020-06-06T08:56:52Z</time>
      </trkpt>
      <trkpt lat="46.99721" lon="-1.69633">
        <ele>29.26</ele>
        <time>2020-06-06T08:56:54Z</time>
      </trkpt>
      <trkpt lat="46.99718" lon="-1.69612">
        <ele>28.89</ele>
        <time>2020-06-06T08:56:56Z</time>
      </trkpt>
      <trkpt lat="46.99716" lon="-1.69592">
        <ele>28.53</ele>
        <time>2020-06-06T08:56:58Z</time>
      </trkpt>
      <trkpt lat="46.99714" lon="-1.69572">
        <ele>28.79</ele>
        <time>2020-06-06T08:57:00Z</time>
      </trkpt>
      <trkpt lat="46.99711" lon="-1.69552">
        <ele>29.04</ele>
        <time>2020-06-06T08:57:02Z</time>
      </trkpt>
      <trkpt lat="46.99709" lon="-1.69531">
        <ele>29.57</ele>
        <time>2020-06-06T08:57:04Z</time>
      </trkpt>
      <trkpt lat="46.99706" lon="-1.69511">
        <ele>30.47</ele>
        <time>2020-06-06T08:57:06Z</time>
      </trkpt>
      <trkpt lat="46.99704" lon="-1.69492">
        <ele>31.28</ele>
        <time>2020-06-06T08:57:08Z</time>
      </trkpt>
      <trkpt lat="46.99702" lon="-1.69471">
        <ele>31.18</ele>
        <time>2020-06-06T08:57:10Z</time>
      </trkpt>
      <trkpt lat="46.997" lon="-1.6945">
        <ele>30.93</ele>
        <time>2020-06-06T08:57:12Z</time>
      </trkpt>
      <trkpt lat="46.99697" lon="-1.69429">
        <ele>30.71</ele>
        <time>2020-06-06T08:57:14Z</time>
      </trkpt>
      <trkpt lat="46.99695" lon="-1.69409">
        <ele>30.57</ele>
        <time>2020-06-06T08:57:16Z</time>
      </trkpt>
      <trkpt lat="46.99692" lon="-1.69388">
        <ele>30.48</ele>
        <time>2020-06-06T08:57:18Z</time>
      </trkpt>
      <trkpt lat="46.9969" lon="-1.69366">
        <ele>30.92</ele>
        <time>2020-06-06T08:57:20Z</time>
      </trkpt>
      <trkpt lat="46.99687" lon="-1.69347">
        <ele>31</ele>
        <time>2020-06-06T08:57:22Z</time>
      </trkpt>
      <trkpt lat="46.99684" lon="-1.69327">
        <ele>30.31</ele>
        <time>2020-06-06T08:57:24Z</time>
      </trkpt>
      <trkpt lat="46.9968" lon="-1.69308">
        <ele>29.15</ele>
        <time>2020-06-06T08:57:26Z</time>
      </trkpt>
      <trkpt lat="46.99676" lon="-1.69289">
        <ele>28.55</ele>
        <time>2020-06-06T08:57:28Z</time>
      </trkpt>
      <trkpt lat="46.99671" lon="-1.69269">
        <ele>28.71</ele>
        <time>2020-06-06T08:57:30Z</time>
      </trkpt>
      <trkpt lat="46.99664" lon="-1.69249">
        <ele>28.44</ele>
        <time>2020-06-06T08:57:32Z</time>
      </trkpt>
      <trkpt lat="46.99658" lon="-1.69231">
        <ele>27.5</ele>
        <time>2020-06-06T08:57:34Z</time>
      </trkpt>
      <trkpt lat="46.99649" lon="-1.69212">
        <ele>26.95</ele>
        <time>2020-06-06T08:57:36Z</time>
      </trkpt>
      <trkpt lat="46.9964" lon="-1.69194">
        <ele>27.13</ele>
        <time>2020-06-06T08:57:38Z</time>
      </trkpt>
      <trkpt lat="46.99632" lon="-1.69178">
        <ele>27.39</ele>
        <time>2020-06-06T08:57:40Z</time>
      </trkpt>
      <trkpt lat="46.99624" lon="-1.69161">
        <ele>27.66</ele>
        <time>2020-06-06T08:57:42Z</time>
      </trkpt>
      <trkpt lat="46.99616" lon="-1.69144">
        <ele>28.15</ele>
        <time>2020-06-06T08:57:44Z</time>
      </trkpt>
      <trkpt lat="46.99608" lon="-1.69125">
        <ele>28.76</ele>
        <time>2020-06-06T08:57:46Z</time>
      </trkpt>
      <trkpt lat="46.996" lon="-1.69105">
        <ele>29.36</ele>
        <time>2020-06-06T08:57:48Z</time>
      </trkpt>
      <trkpt lat="46.99593" lon="-1.69086">
        <ele>29.01</ele>
        <time>2020-06-06T08:57:50Z</time>
      </trkpt>
      <trkpt lat="46.99587" lon="-1.69068">
        <ele>28.31</ele>
        <time>2020-06-06T08:57:52Z</time>
      </trkpt>
      <trkpt lat="46.99583" lon="-1.69049">
        <ele>28.99</ele>
        <time>2020-06-06T08:57:54Z</time>
      </trkpt>
      <trkpt lat="46.99578" lon="-1.69028">
        <ele>29.64</ele>
        <time>2020-06-06T08:57:56Z</time>
      </trkpt>
      <trkpt lat="46.99575" lon="-1.69009">
        <ele>29.69</ele>
        <time>2020-06-06T08:57:58Z</time>
      </trkpt>
      <trkpt lat="46.99573" lon="-1.68989">
        <ele>29.9</ele>
        <time>2020-06-06T08:58:00Z</time>
      </trkpt>
      <trkpt lat="46.99572" lon="-1.6897">
        <ele>29.88</ele>
        <time>2020-06-06T08:58:02Z</time>
      </trkpt>
      <trkpt lat="46.9957" lon="-1.68952">
        <ele>29.42</ele>
        <time>2020-06-06T08:58:04Z</time>
      </trkpt>
      <trkpt lat="46.99568" lon="-1.68934">
        <ele>29.59</ele>
        <time>2020-06-06T08:58:06Z</time>
      </trkpt>
      <trkpt lat="46.99566" lon="-1.68914">
        <ele>29.04</ele>
        <time>2020-06-06T08:58:08Z</time>
      </trkpt>
      <trkpt lat="46.99563" lon="-1.68895">
        <ele>28.72</ele>
        <time>2020-06-06T08:58:10Z</time>
      </trkpt>
      <trkpt lat="46.99559" lon="-1.6887">
        <ele>28.76</ele>
        <time>2020-06-06T08:58:12Z</time>
      </trkpt>
      <trkpt lat="46.99556" lon="-1.68847">
        <ele>29.17</ele>
        <time>2020-06-06T08:58:14Z</time>
      </trkpt>
      <trkpt lat="46.99553" lon="-1.68825">
        <ele>29.62</ele>
        <time>2020-06-06T08:58:16Z</time>
      </trkpt>
      <trkpt lat="46.99551" lon="-1.68804">
        <ele>29.34</ele>
        <time>2020-06-06T08:58:18Z</time>
      </trkpt>
      <trkpt lat="46.99548" lon="-1.68784">
        <ele>29.14</ele>
        <time>2020-06-06T08:58:20Z</time>
      </trkpt>
      <trkpt lat="46.99546" lon="-1.68766">
        <ele>29.57</ele>
        <time>2020-06-06T08:58:22Z</time>
      </trkpt>
      <trkpt lat="46.99544" lon="-1.68746">
        <ele>29.98</ele>
        <time>2020-06-06T08:58:24Z</time>
      </trkpt>
      <trkpt lat="46.99542" lon="-1.68726">
        <ele>31.56</ele>
        <time>2020-06-06T08:58:26Z</time>
      </trkpt>
      <trkpt lat="46.9954" lon="-1.68706">
        <ele>32.97</ele>
        <time>2020-06-06T08:58:28Z</time>
      </trkpt>
      <trkpt lat="46.99537" lon="-1.68686">
        <ele>33.55</ele>
        <time>2020-06-06T08:58:30Z</time>
      </trkpt>
      <trkpt lat="46.99533" lon="-1.68664">
        <ele>33.74</ele>
        <time>2020-06-06T08:58:32Z</time>
      </trkpt>
      <trkpt lat="46.99531" lon="-1.68647">
        <ele>34.1</ele>
        <time>2020-06-06T08:58:33Z</time>
      </trkpt>
      <trkpt lat="46.99529" lon="-1.68627">
        <ele>34</ele>
        <time>2020-06-06T08:58:35Z</time>
      </trkpt>
      <trkpt lat="46.99526" lon="-1.68607">
        <ele>34.76</ele>
        <time>2020-06-06T08:58:37Z</time>
      </trkpt>
      <trkpt lat="46.99524" lon="-1.68586">
        <ele>35.05</ele>
        <time>2020-06-06T08:58:39Z</time>
      </trkpt>
      <trkpt lat="46.99521" lon="-1.68566">
        <ele>35</ele>
        <time>2020-06-06T08:58:41Z</time>
      </trkpt>
      <trkpt lat="46.99519" lon="-1.68547">
        <ele>35</ele>
        <time>2020-06-06T08:58:43Z</time>
      </trkpt>
      <trkpt lat="46.99517" lon="-1.68527">
        <ele>35.29</ele>
        <time>2020-06-06T08:58:45Z</time>
      </trkpt>
      <trkpt lat="46.99518" lon="-1.68507">
        <ele>34.67</ele>
        <time>2020-06-06T08:58:47Z</time>
      </trkpt>
      <trkpt lat="46.99519" lon="-1.68487">
        <ele>34.89</ele>
        <time>2020-06-06T08:58:49Z</time>
      </trkpt>
      <trkpt lat="46.9952" lon="-1.68466">
        <ele>35.5</ele>
        <time>2020-06-06T08:58:51Z</time>
      </trkpt>
      <trkpt lat="46.99521" lon="-1.68445">
        <ele>36.78</ele>
        <time>2020-06-06T08:58:53Z</time>
      </trkpt>
      <trkpt lat="46.99522" lon="-1.68425">
        <ele>37.74</ele>
        <time>2020-06-06T08:58:55Z</time>
      </trkpt>
      <trkpt lat="46.99523" lon="-1.68403">
        <ele>38.08</ele>
        <time>2020-06-06T08:58:57Z</time>
      </trkpt>
      <trkpt lat="46.99525" lon="-1.68382">
        <ele>38.08</ele>
        <time>2020-06-06T08:58:59Z</time>
      </trkpt>
      <trkpt lat="46.99527" lon="-1.68362">
        <ele>38.01</ele>
        <time>2020-06-06T08:59:01Z</time>
      </trkpt>
      <trkpt lat="46.99529" lon="-1.68341">
        <ele>38.54</ele>
        <time>2020-06-06T08:59:03Z</time>
      </trkpt>
      <trkpt lat="46.99531" lon="-1.68319">
        <ele>38.25</ele>
        <time>2020-06-06T08:59:05Z</time>
      </trkpt>
      <trkpt lat="46.99532" lon="-1.68297">
        <ele>38.24</ele>
        <time>2020-06-06T08:59:07Z</time>
      </trkpt>
      <trkpt lat="46.99534" lon="-1.68275">
        <ele>37.85</ele>
        <time>2020-06-06T08:59:09Z</time>
      </trkpt>
      <trkpt lat="46.99535" lon="-1.68254">
        <ele>37.72</ele>
        <time>2020-06-06T08:59:11Z</time>
      </trkpt>
      <trkpt lat="46.99536" lon="-1.68231">
        <ele>37.77</ele>
        <time>2020-06-06T08:59:13Z</time>
      </trkpt>
      <trkpt lat="46.99538" lon="-1.68213">
        <ele>37</ele>
        <time>2020-06-06T08:59:15Z</time>
      </trkpt>
      <trkpt lat="46.9954" lon="-1.68191">
        <ele>36.32</ele>
        <time>2020-06-06T08:59:17Z</time>
      </trkpt>
      <trkpt lat="46.99541" lon="-1.6817">
        <ele>36.4</ele>
        <time>2020-06-06T08:59:19Z</time>
      </trkpt>
      <trkpt lat="46.99543" lon="-1.68147">
        <ele>36.14</ele>
        <time>2020-06-06T08:59:21Z</time>
      </trkpt>
      <trkpt lat="46.99545" lon="-1.68123">
        <ele>35.68</ele>
        <time>2020-06-06T08:59:23Z</time>
      </trkpt>
      <trkpt lat="46.99547" lon="-1.68102">
        <ele>35.65</ele>
        <time>2020-06-06T08:59:25Z</time>
      </trkpt>
      <trkpt lat="46.99549" lon="-1.68078">
        <ele>35.39</ele>
        <time>2020-06-06T08:59:27Z</time>
      </trkpt>
      <trkpt lat="46.9955" lon="-1.68056">
        <ele>34.97</ele>
        <time>2020-06-06T08:59:29Z</time>
      </trkpt>
      <trkpt lat="46.99551" lon="-1.68035">
        <ele>34.02</ele>
        <time>2020-06-06T08:59:31Z</time>
      </trkpt>
      <trkpt lat="46.99553" lon="-1.68014">
        <ele>33.57</ele>
        <time>2020-06-06T08:59:33Z</time>
      </trkpt>
      <trkpt lat="46.99554" lon="-1.67992">
        <ele>32.72</ele>
        <time>2020-06-06T08:59:35Z</time>
      </trkpt>
      <trkpt lat="46.99556" lon="-1.67969">
        <ele>31.99</ele>
        <time>2020-06-06T08:59:37Z</time>
      </trkpt>
      <trkpt lat="46.99558" lon="-1.67948">
        <ele>31.96</ele>
        <time>2020-06-06T08:59:39Z</time>
      </trkpt>
      <trkpt lat="46.9956" lon="-1.67926">
        <ele>32.53</ele>
        <time>2020-06-06T08:59:41Z</time>
      </trkpt>
      <trkpt lat="46.99562" lon="-1.67905">
        <ele>32.98</ele>
        <time>2020-06-06T08:59:43Z</time>
      </trkpt>
      <trkpt lat="46.99564" lon="-1.67881">
        <ele>33.21</ele>
        <time>2020-06-06T08:59:45Z</time>
      </trkpt>
      <trkpt lat="46.99565" lon="-1.67859">
        <ele>33.06</ele>
        <time>2020-06-06T08:59:47Z</time>
      </trkpt>
      <trkpt lat="46.99567" lon="-1.67839">
        <ele>32.2</ele>
        <time>2020-06-06T08:59:49Z</time>
      </trkpt>
      <trkpt lat="46.99568" lon="-1.67816">
        <ele>31.34</ele>
        <time>2020-06-06T08:59:51Z</time>
      </trkpt>
      <trkpt lat="46.9957" lon="-1.67793">
        <ele>30.5</ele>
        <time>2020-06-06T08:59:53Z</time>
      </trkpt>
      <trkpt lat="46.99572" lon="-1.67767">
        <ele>29.49</ele>
        <time>2020-06-06T08:59:55Z</time>
      </trkpt>
      <trkpt lat="46.99573" lon="-1.67746">
        <ele>29.2</ele>
        <time>2020-06-06T08:59:57Z</time>
      </trkpt>
      <trkpt lat="46.99575" lon="-1.67723">
        <ele>29.4</ele>
        <time>2020-06-06T08:59:59Z</time>
      </trkpt>
      <trkpt lat="46.99576" lon="-1.677">
        <ele>29.4</ele>
        <time>2020-06-06T09:00:01Z</time>
      </trkpt>
      <trkpt lat="46.99578" lon="-1.67675">
        <ele>29.34</ele>
        <time>2020-06-06T09:00:03Z</time>
      </trkpt>
      <trkpt lat="46.99579" lon="-1.67655">
        <ele>29.3</ele>
        <time>2020-06-06T09:00:05Z</time>
      </trkpt>
      <trkpt lat="46.9958" lon="-1.67635">
        <ele>28.98</ele>
        <time>2020-06-06T09:00:07Z</time>
      </trkpt>
      <trkpt lat="46.99581" lon="-1.67615">
        <ele>28.57</ele>
        <time>2020-06-06T09:00:09Z</time>
      </trkpt>
      <trkpt lat="46.99582" lon="-1.67592">
        <ele>28.62</ele>
        <time>2020-06-06T09:00:11Z</time>
      </trkpt>
      <trkpt lat="46.99582" lon="-1.67573">
        <ele>28.31</ele>
        <time>2020-06-06T09:00:13Z</time>
      </trkpt>
      <trkpt lat="46.99584" lon="-1.67553">
        <ele>27.77</ele>
        <time>2020-06-06T09:00:15Z</time>
      </trkpt>
      <trkpt lat="46.99586" lon="-1.67529">
        <ele>27.52</ele>
        <time>2020-06-06T09:00:17Z</time>
      </trkpt>
      <trkpt lat="46.99588" lon="-1.67511">
        <ele>27.76</ele>
        <time>2020-06-06T09:00:19Z</time>
      </trkpt>
      <trkpt lat="46.9959" lon="-1.6749">
        <ele>28.33</ele>
        <time>2020-06-06T09:00:21Z</time>
      </trkpt>
      <trkpt lat="46.99592" lon="-1.67473">
        <ele>28.32</ele>
        <time>2020-06-06T09:00:23Z</time>
      </trkpt>
      <trkpt lat="46.99594" lon="-1.67455">
        <ele>28.23</ele>
        <time>2020-06-06T09:00:25Z</time>
      </trkpt>
      <trkpt lat="46.99596" lon="-1.67438">
        <ele>28.38</ele>
        <time>2020-06-06T09:00:27Z</time>
      </trkpt>
      <trkpt lat="46.99596" lon="-1.6742">
        <ele>29.03</ele>
        <time>2020-06-06T09:00:29Z</time>
      </trkpt>
      <trkpt lat="46.99597" lon="-1.67404">
        <ele>29.52</ele>
        <time>2020-06-06T09:00:31Z</time>
      </trkpt>
      <trkpt lat="46.99598" lon="-1.67386">
        <ele>30.56</ele>
        <time>2020-06-06T09:00:33Z</time>
      </trkpt>
      <trkpt lat="46.99599" lon="-1.67367">
        <ele>31.35</ele>
        <time>2020-06-06T09:00:35Z</time>
      </trkpt>
      <trkpt lat="46.996" lon="-1.67351">
        <ele>31.64</ele>
        <time>2020-06-06T09:00:37Z</time>
      </trkpt>
      <trkpt lat="46.99602" lon="-1.67332">
        <ele>31.52</ele>
        <time>2020-06-06T09:00:39Z</time>
      </trkpt>
      <trkpt lat="46.99603" lon="-1.67313">
        <ele>31.91</ele>
        <time>2020-06-06T09:00:41Z</time>
      </trkpt>
      <trkpt lat="46.99604" lon="-1.67295">
        <ele>32.26</ele>
        <time>2020-06-06T09:00:43Z</time>
      </trkpt>
      <trkpt lat="46.99606" lon="-1.67276">
        <ele>32.52</ele>
        <time>2020-06-06T09:00:45Z</time>
      </trkpt>
      <trkpt lat="46.99608" lon="-1.67258">
        <ele>32.85</ele>
        <time>2020-06-06T09:00:47Z</time>
      </trkpt>
      <trkpt lat="46.99609" lon="-1.6724">
        <ele>34</ele>
        <time>2020-06-06T09:00:49Z</time>
      </trkpt>
      <trkpt lat="46.99611" lon="-1.67221">
        <ele>34.96</ele>
        <time>2020-06-06T09:00:51Z</time>
      </trkpt>
      <trkpt lat="46.99613" lon="-1.67203">
        <ele>36.19</ele>
        <time>2020-06-06T09:00:53Z</time>
      </trkpt>
      <trkpt lat="46.99615" lon="-1.67182">
        <ele>35.91</ele>
        <time>2020-06-06T09:00:56Z</time>
      </trkpt>
      <trkpt lat="46.99617" lon="-1.67166">
        <ele>35.14</ele>
        <time>2020-06-06T09:00:58Z</time>
      </trkpt>
      <trkpt lat="46.99618" lon="-1.67146">
        <ele>33.79</ele>
        <time>2020-06-06T09:01:00Z</time>
      </trkpt>
      <trkpt lat="46.99619" lon="-1.6713">
        <ele>33.39</ele>
        <time>2020-06-06T09:01:02Z</time>
      </trkpt>
      <trkpt lat="46.99621" lon="-1.67109">
        <ele>32.74</ele>
        <time>2020-06-06T09:01:04Z</time>
      </trkpt>
      <trkpt lat="46.99622" lon="-1.67092">
        <ele>32.55</ele>
        <time>2020-06-06T09:01:06Z</time>
      </trkpt>
      <trkpt lat="46.99623" lon="-1.67075">
        <ele>33.43</ele>
        <time>2020-06-06T09:01:08Z</time>
      </trkpt>
      <trkpt lat="46.99624" lon="-1.67056">
        <ele>34.21</ele>
        <time>2020-06-06T09:01:10Z</time>
      </trkpt>
      <trkpt lat="46.99625" lon="-1.67038">
        <ele>34.53</ele>
        <time>2020-06-06T09:01:12Z</time>
      </trkpt>
      <trkpt lat="46.99627" lon="-1.67021">
        <ele>34.47</ele>
        <time>2020-06-06T09:01:14Z</time>
      </trkpt>
      <trkpt lat="46.99628" lon="-1.67002">
        <ele>34.91</ele>
        <time>2020-06-06T09:01:16Z</time>
      </trkpt>
      <trkpt lat="46.99629" lon="-1.66986">
        <ele>34.82</ele>
        <time>2020-06-06T09:01:18Z</time>
      </trkpt>
      <trkpt lat="46.9963" lon="-1.66971">
        <ele>35.01</ele>
        <time>2020-06-06T09:01:20Z</time>
      </trkpt>
      <trkpt lat="46.99631" lon="-1.6695">
        <ele>34.57</ele>
        <time>2020-06-06T09:01:22Z</time>
      </trkpt>
      <trkpt lat="46.99632" lon="-1.66931">
        <ele>34.48</ele>
        <time>2020-06-06T09:01:24Z</time>
      </trkpt>
      <trkpt lat="46.99633" lon="-1.66912">
        <ele>34.71</ele>
        <time>2020-06-06T09:01:26Z</time>
      </trkpt>
      <trkpt lat="46.99634" lon="-1.66892">
        <ele>35.1</ele>
        <time>2020-06-06T09:01:28Z</time>
      </trkpt>
      <trkpt lat="46.99635" lon="-1.66874">
        <ele>35.58</ele>
        <time>2020-06-06T09:01:30Z</time>
      </trkpt>
      <trkpt lat="46.99637" lon="-1.66854">
        <ele>36.18</ele>
        <time>2020-06-06T09:01:32Z</time>
      </trkpt>
      <trkpt lat="46.99637" lon="-1.66837">
        <ele>36.2</ele>
        <time>2020-06-06T09:01:34Z</time>
      </trkpt>
      <trkpt lat="46.99639" lon="-1.66817">
        <ele>36.08</ele>
        <time>2020-06-06T09:01:36Z</time>
      </trkpt>
      <trkpt lat="46.9964" lon="-1.668">
        <ele>36.11</ele>
        <time>2020-06-06T09:01:38Z</time>
      </trkpt>
      <trkpt lat="46.99641" lon="-1.66781">
        <ele>35.42</ele>
        <time>2020-06-06T09:01:40Z</time>
      </trkpt>
      <trkpt lat="46.99643" lon="-1.6676">
        <ele>34.98</ele>
        <time>2020-06-06T09:01:42Z</time>
      </trkpt>
      <trkpt lat="46.99645" lon="-1.66741">
        <ele>36.45</ele>
        <time>2020-06-06T09:01:44Z</time>
      </trkpt>
      <trkpt lat="46.99646" lon="-1.66721">
        <ele>38.14</ele>
        <time>2020-06-06T09:01:46Z</time>
      </trkpt>
      <trkpt lat="46.99648" lon="-1.66702">
        <ele>38.75</ele>
        <time>2020-06-06T09:01:48Z</time>
      </trkpt>
      <trkpt lat="46.99649" lon="-1.66684">
        <ele>39.5</ele>
        <time>2020-06-06T09:01:50Z</time>
      </trkpt>
      <trkpt lat="46.9965" lon="-1.66666">
        <ele>40.29</ele>
        <time>2020-06-06T09:01:52Z</time>
      </trkpt>
      <trkpt lat="46.99651" lon="-1.66647">
        <ele>40.03</ele>
        <time>2020-06-06T09:01:54Z</time>
      </trkpt>
      <trkpt lat="46.99652" lon="-1.66629">
        <ele>39.31</ele>
        <time>2020-06-06T09:01:56Z</time>
      </trkpt>
      <trkpt lat="46.99654" lon="-1.6661">
        <ele>38.79</ele>
        <time>2020-06-06T09:01:58Z</time>
      </trkpt>
      <trkpt lat="46.99656" lon="-1.6659">
        <ele>38.47</ele>
        <time>2020-06-06T09:02:00Z</time>
      </trkpt>
      <trkpt lat="46.99658" lon="-1.66573">
        <ele>38</ele>
        <time>2020-06-06T09:02:02Z</time>
      </trkpt>
      <trkpt lat="46.99659" lon="-1.66552">
        <ele>37.87</ele>
        <time>2020-06-06T09:02:04Z</time>
      </trkpt>
      <trkpt lat="46.99662" lon="-1.66532">
        <ele>37.97</ele>
        <time>2020-06-06T09:02:06Z</time>
      </trkpt>
      <trkpt lat="46.99663" lon="-1.66514">
        <ele>38.53</ele>
        <time>2020-06-06T09:02:08Z</time>
      </trkpt>
      <trkpt lat="46.99665" lon="-1.66494">
        <ele>38.44</ele>
        <time>2020-06-06T09:02:10Z</time>
      </trkpt>
      <trkpt lat="46.99666" lon="-1.66473">
        <ele>38.24</ele>
        <time>2020-06-06T09:02:12Z</time>
      </trkpt>
      <trkpt lat="46.99667" lon="-1.66456">
        <ele>38.19</ele>
        <time>2020-06-06T09:02:14Z</time>
      </trkpt>
      <trkpt lat="46.99669" lon="-1.66435">
        <ele>37.62</ele>
        <time>2020-06-06T09:02:16Z</time>
      </trkpt>
      <trkpt lat="46.9967" lon="-1.66416">
        <ele>37.79</ele>
        <time>2020-06-06T09:02:18Z</time>
      </trkpt>
      <trkpt lat="46.99671" lon="-1.66395">
        <ele>37.43</ele>
        <time>2020-06-06T09:02:20Z</time>
      </trkpt>
      <trkpt lat="46.99672" lon="-1.66377">
        <ele>36.87</ele>
        <time>2020-06-06T09:02:22Z</time>
      </trkpt>
      <trkpt lat="46.99673" lon="-1.6636">
        <ele>36.3</ele>
        <time>2020-06-06T09:02:24Z</time>
      </trkpt>
      <trkpt lat="46.99674" lon="-1.66341">
        <ele>36.34</ele>
        <time>2020-06-06T09:02:26Z</time>
      </trkpt>
      <trkpt lat="46.99674" lon="-1.66326">
        <ele>36.71</ele>
        <time>2020-06-06T09:02:28Z</time>
      </trkpt>
      <trkpt lat="46.99675" lon="-1.66309">
        <ele>36.15</ele>
        <time>2020-06-06T09:02:31Z</time>
      </trkpt>
      <trkpt lat="46.99676" lon="-1.66292">
        <ele>35.83</ele>
        <time>2020-06-06T09:02:34Z</time>
      </trkpt>
      <trkpt lat="46.99678" lon="-1.66276">
        <ele>34.78</ele>
        <time>2020-06-06T09:02:36Z</time>
      </trkpt>
      <trkpt lat="46.99681" lon="-1.66258">
        <ele>33.86</ele>
        <time>2020-06-06T09:02:38Z</time>
      </trkpt>
      <trkpt lat="46.99683" lon="-1.66237">
        <ele>34.8</ele>
        <time>2020-06-06T09:02:40Z</time>
      </trkpt>
      <trkpt lat="46.99686" lon="-1.66216">
        <ele>36.02</ele>
        <time>2020-06-06T09:02:42Z</time>
      </trkpt>
      <trkpt lat="46.99689" lon="-1.66192">
        <ele>37.03</ele>
        <time>2020-06-06T09:02:44Z</time>
      </trkpt>
      <trkpt lat="46.99692" lon="-1.66169">
        <ele>37.45</ele>
        <time>2020-06-06T09:02:46Z</time>
      </trkpt>
      <trkpt lat="46.99694" lon="-1.66149">
        <ele>38.19</ele>
        <time>2020-06-06T09:02:48Z</time>
      </trkpt>
      <trkpt lat="46.99696" lon="-1.66124">
        <ele>38.15</ele>
        <time>2020-06-06T09:02:50Z</time>
      </trkpt>
      <trkpt lat="46.99698" lon="-1.66104">
        <ele>38</ele>
        <time>2020-06-06T09:02:52Z</time>
      </trkpt>
      <trkpt lat="46.997" lon="-1.66083">
        <ele>38.86</ele>
        <time>2020-06-06T09:02:54Z</time>
      </trkpt>
      <trkpt lat="46.99702" lon="-1.66059">
        <ele>39.37</ele>
        <time>2020-06-06T09:02:56Z</time>
      </trkpt>
      <trkpt lat="46.99703" lon="-1.66037">
        <ele>39.16</ele>
        <time>2020-06-06T09:02:58Z</time>
      </trkpt>
      <trkpt lat="46.99705" lon="-1.66018">
        <ele>38.64</ele>
        <time>2020-06-06T09:03:00Z</time>
      </trkpt>
      <trkpt lat="46.99707" lon="-1.65994">
        <ele>38.29</ele>
        <time>2020-06-06T09:03:02Z</time>
      </trkpt>
      <trkpt lat="46.9971" lon="-1.6597">
        <ele>37.92</ele>
        <time>2020-06-06T09:03:04Z</time>
      </trkpt>
      <trkpt lat="46.99713" lon="-1.65946">
        <ele>37.65</ele>
        <time>2020-06-06T09:03:06Z</time>
      </trkpt>
      <trkpt lat="46.99715" lon="-1.65925">
        <ele>37.87</ele>
        <time>2020-06-06T09:03:08Z</time>
      </trkpt>
      <trkpt lat="46.99718" lon="-1.65901">
        <ele>37.98</ele>
        <time>2020-06-06T09:03:10Z</time>
      </trkpt>
      <trkpt lat="46.9972" lon="-1.65877">
        <ele>39.38</ele>
        <time>2020-06-06T09:03:12Z</time>
      </trkpt>
      <trkpt lat="46.99723" lon="-1.65852">
        <ele>40.29</ele>
        <time>2020-06-06T09:03:14Z</time>
      </trkpt>
      <trkpt lat="46.99726" lon="-1.65831">
        <ele>40.45</ele>
        <time>2020-06-06T09:03:16Z</time>
      </trkpt>
      <trkpt lat="46.99728" lon="-1.65805">
        <ele>40.25</ele>
        <time>2020-06-06T09:03:18Z</time>
      </trkpt>
      <trkpt lat="46.99731" lon="-1.65781">
        <ele>39.49</ele>
        <time>2020-06-06T09:03:20Z</time>
      </trkpt>
      <trkpt lat="46.99733" lon="-1.65756">
        <ele>38.77</ele>
        <time>2020-06-06T09:03:22Z</time>
      </trkpt>
      <trkpt lat="46.99734" lon="-1.65733">
        <ele>38.6</ele>
        <time>2020-06-06T09:03:24Z</time>
      </trkpt>
      <trkpt lat="46.99734" lon="-1.65711">
        <ele>39.04</ele>
        <time>2020-06-06T09:03:26Z</time>
      </trkpt>
      <trkpt lat="46.99733" lon="-1.65687">
        <ele>39.04</ele>
        <time>2020-06-06T09:03:28Z</time>
      </trkpt>
      <trkpt lat="46.9973" lon="-1.65663">
        <ele>39.07</ele>
        <time>2020-06-06T09:03:30Z</time>
      </trkpt>
      <trkpt lat="46.99727" lon="-1.65639">
        <ele>38.89</ele>
        <time>2020-06-06T09:03:32Z</time>
      </trkpt>
      <trkpt lat="46.99722" lon="-1.65619">
        <ele>38.64</ele>
        <time>2020-06-06T09:03:34Z</time>
      </trkpt>
      <trkpt lat="46.99716" lon="-1.65596">
        <ele>37.43</ele>
        <time>2020-06-06T09:03:36Z</time>
      </trkpt>
      <trkpt lat="46.99711" lon="-1.65574">
        <ele>37.09</ele>
        <time>2020-06-06T09:03:38Z</time>
      </trkpt>
      <trkpt lat="46.99707" lon="-1.65561">
        <ele>37.16</ele>
        <time>2020-06-06T09:03:39Z</time>
      </trkpt>
      <trkpt lat="46.99701" lon="-1.65538">
        <ele>36.75</ele>
        <time>2020-06-06T09:03:41Z</time>
      </trkpt>
      <trkpt lat="46.99696" lon="-1.65515">
        <ele>35.95</ele>
        <time>2020-06-06T09:03:43Z</time>
      </trkpt>
      <trkpt lat="46.9969" lon="-1.65491">
        <ele>36.1</ele>
        <time>2020-06-06T09:03:45Z</time>
      </trkpt>
      <trkpt lat="46.99686" lon="-1.65471">
        <ele>36.43</ele>
        <time>2020-06-06T09:03:47Z</time>
      </trkpt>
      <trkpt lat="46.9968" lon="-1.65447">
        <ele>35.88</ele>
        <time>2020-06-06T09:03:49Z</time>
      </trkpt>
      <trkpt lat="46.99676" lon="-1.65425">
        <ele>35.16</ele>
        <time>2020-06-06T09:03:51Z</time>
      </trkpt>
      <trkpt lat="46.99672" lon="-1.65401">
        <ele>34.41</ele>
        <time>2020-06-06T09:03:53Z</time>
      </trkpt>
      <trkpt lat="46.9967" lon="-1.65379">
        <ele>34.65</ele>
        <time>2020-06-06T09:03:55Z</time>
      </trkpt>
      <trkpt lat="46.9967" lon="-1.65355">
        <ele>34.9</ele>
        <time>2020-06-06T09:03:57Z</time>
      </trkpt>
      <trkpt lat="46.99674" lon="-1.65332">
        <ele>35.26</ele>
        <time>2020-06-06T09:03:59Z</time>
      </trkpt>
      <trkpt lat="46.9968" lon="-1.65307">
        <ele>35.5</ele>
        <time>2020-06-06T09:04:01Z</time>
      </trkpt>
      <trkpt lat="46.99687" lon="-1.65286">
        <ele>35.97</ele>
        <time>2020-06-06T09:04:03Z</time>
      </trkpt>
      <trkpt lat="46.99695" lon="-1.65264">
        <ele>37.4</ele>
        <time>2020-06-06T09:04:05Z</time>
      </trkpt>
      <trkpt lat="46.99703" lon="-1.65244">
        <ele>38.59</ele>
        <time>2020-06-06T09:04:07Z</time>
      </trkpt>
      <trkpt lat="46.99711" lon="-1.65222">
        <ele>38.27</ele>
        <time>2020-06-06T09:04:09Z</time>
      </trkpt>
      <trkpt lat="46.99719" lon="-1.65202">
        <ele>38.94</ele>
        <time>2020-06-06T09:04:11Z</time>
      </trkpt>
      <trkpt lat="46.99727" lon="-1.65182">
        <ele>39.34</ele>
        <time>2020-06-06T09:04:13Z</time>
      </trkpt>
      <trkpt lat="46.99735" lon="-1.6516">
        <ele>38.45</ele>
        <time>2020-06-06T09:04:15Z</time>
      </trkpt>
      <trkpt lat="46.99743" lon="-1.6514">
        <ele>38.27</ele>
        <time>2020-06-06T09:04:17Z</time>
      </trkpt>
      <trkpt lat="46.99751" lon="-1.6512">
        <ele>38.08</ele>
        <time>2020-06-06T09:04:19Z</time>
      </trkpt>
      <trkpt lat="46.99759" lon="-1.651">
        <ele>38.04</ele>
        <time>2020-06-06T09:04:21Z</time>
      </trkpt>
      <trkpt lat="46.99767" lon="-1.6508">
        <ele>37.32</ele>
        <time>2020-06-06T09:04:23Z</time>
      </trkpt>
      <trkpt lat="46.99774" lon="-1.6506">
        <ele>37.39</ele>
        <time>2020-06-06T09:04:25Z</time>
      </trkpt>
      <trkpt lat="46.99783" lon="-1.65039">
        <ele>38.56</ele>
        <time>2020-06-06T09:04:27Z</time>
      </trkpt>
      <trkpt lat="46.9979" lon="-1.65019">
        <ele>39.28</ele>
        <time>2020-06-06T09:04:29Z</time>
      </trkpt>
      <trkpt lat="46.99795" lon="-1.65007">
        <ele>39.17</ele>
        <time>2020-06-06T09:04:30Z</time>
      </trkpt>
      <trkpt lat="46.99803" lon="-1.64986">
        <ele>39.41</ele>
        <time>2020-06-06T09:04:32Z</time>
      </trkpt>
      <trkpt lat="46.9981" lon="-1.64965">
        <ele>39.33</ele>
        <time>2020-06-06T09:04:34Z</time>
      </trkpt>
      <trkpt lat="46.99817" lon="-1.64946">
        <ele>40.35</ele>
        <time>2020-06-06T09:04:36Z</time>
      </trkpt>
      <trkpt lat="46.99823" lon="-1.64924">
        <ele>40.37</ele>
        <time>2020-06-06T09:04:38Z</time>
      </trkpt>
      <trkpt lat="46.99825" lon="-1.64902">
        <ele>39.76</ele>
        <time>2020-06-06T09:04:40Z</time>
      </trkpt>
      <trkpt lat="46.99825" lon="-1.64889">
        <ele>39.7</ele>
        <time>2020-06-06T09:04:41Z</time>
      </trkpt>
      <trkpt lat="46.99822" lon="-1.64865">
        <ele>39.55</ele>
        <time>2020-06-06T09:04:43Z</time>
      </trkpt>
      <trkpt lat="46.99821" lon="-1.64851">
        <ele>39.07</ele>
        <time>2020-06-06T09:04:44Z</time>
      </trkpt>
      <trkpt lat="46.99818" lon="-1.64828">
        <ele>38.57</ele>
        <time>2020-06-06T09:04:46Z</time>
      </trkpt>
      <trkpt lat="46.99814" lon="-1.64807">
        <ele>38.11</ele>
        <time>2020-06-06T09:04:48Z</time>
      </trkpt>
      <trkpt lat="46.99812" lon="-1.64794">
        <ele>38.2</ele>
        <time>2020-06-06T09:04:49Z</time>
      </trkpt>
      <trkpt lat="46.99806" lon="-1.6477">
        <ele>37.68</ele>
        <time>2020-06-06T09:04:51Z</time>
      </trkpt>
      <trkpt lat="46.998" lon="-1.64744">
        <ele>36.28</ele>
        <time>2020-06-06T09:04:53Z</time>
      </trkpt>
      <trkpt lat="46.99794" lon="-1.64721">
        <ele>35.34</ele>
        <time>2020-06-06T09:04:55Z</time>
      </trkpt>
      <trkpt lat="46.99789" lon="-1.64697">
        <ele>34.93</ele>
        <time>2020-06-06T09:04:57Z</time>
      </trkpt>
      <trkpt lat="46.99786" lon="-1.64682">
        <ele>35.04</ele>
        <time>2020-06-06T09:04:58Z</time>
      </trkpt>
      <trkpt lat="46.99781" lon="-1.64657">
        <ele>35.21</ele>
        <time>2020-06-06T09:05:00Z</time>
      </trkpt>
      <trkpt lat="46.99775" lon="-1.64631">
        <ele>35.43</ele>
        <time>2020-06-06T09:05:02Z</time>
      </trkpt>
      <trkpt lat="46.99773" lon="-1.64617">
        <ele>35.36</ele>
        <time>2020-06-06T09:05:03Z</time>
      </trkpt>
      <trkpt lat="46.9977" lon="-1.64603">
        <ele>35.18</ele>
        <time>2020-06-06T09:05:04Z</time>
      </trkpt>
      <trkpt lat="46.99767" lon="-1.64589">
        <ele>35.15</ele>
        <time>2020-06-06T09:05:05Z</time>
      </trkpt>
      <trkpt lat="46.99762" lon="-1.64563">
        <ele>34.92</ele>
        <time>2020-06-06T09:05:07Z</time>
      </trkpt>
      <trkpt lat="46.99759" lon="-1.6455">
        <ele>35.19</ele>
        <time>2020-06-06T09:05:08Z</time>
      </trkpt>
      <trkpt lat="46.99756" lon="-1.64537">
        <ele>35.48</ele>
        <time>2020-06-06T09:05:09Z</time>
      </trkpt>
      <trkpt lat="46.99754" lon="-1.64523">
        <ele>35.23</ele>
        <time>2020-06-06T09:05:10Z</time>
      </trkpt>
      <trkpt lat="46.9975" lon="-1.64507">
        <ele>35.02</ele>
        <time>2020-06-06T09:05:11Z</time>
      </trkpt>
      <trkpt lat="46.99748" lon="-1.64493">
        <ele>34.81</ele>
        <time>2020-06-06T09:05:12Z</time>
      </trkpt>
      <trkpt lat="46.99745" lon="-1.64479">
        <ele>34.57</ele>
        <time>2020-06-06T09:05:13Z</time>
      </trkpt>
      <trkpt lat="46.99742" lon="-1.64465">
        <ele>34.4</ele>
        <time>2020-06-06T09:05:14Z</time>
      </trkpt>
      <trkpt lat="46.99739" lon="-1.6445">
        <ele>33.96</ele>
        <time>2020-06-06T09:05:15Z</time>
      </trkpt>
      <trkpt lat="46.99734" lon="-1.64425">
        <ele>32.87</ele>
        <time>2020-06-06T09:05:17Z</time>
      </trkpt>
      <trkpt lat="46.9973" lon="-1.64411">
        <ele>32.8</ele>
        <time>2020-06-06T09:05:18Z</time>
      </trkpt>
      <trkpt lat="46.99728" lon="-1.64399">
        <ele>32.56</ele>
        <time>2020-06-06T09:05:19Z</time>
      </trkpt>
      <trkpt lat="46.99724" lon="-1.64385">
        <ele>32.92</ele>
        <time>2020-06-06T09:05:20Z</time>
      </trkpt>
      <trkpt lat="46.99719" lon="-1.64359">
        <ele>33.1</ele>
        <time>2020-06-06T09:05:22Z</time>
      </trkpt>
      <trkpt lat="46.99713" lon="-1.64335">
        <ele>32.73</ele>
        <time>2020-06-06T09:05:24Z</time>
      </trkpt>
      <trkpt lat="46.9971" lon="-1.64322">
        <ele>32.28</ele>
        <time>2020-06-06T09:05:25Z</time>
      </trkpt>
      <trkpt lat="46.99705" lon="-1.64298">
        <ele>31.33</ele>
        <time>2020-06-06T09:05:27Z</time>
      </trkpt>
      <trkpt lat="46.99702" lon="-1.64285">
        <ele>31.47</ele>
        <time>2020-06-06T09:05:28Z</time>
      </trkpt>
      <trkpt lat="46.99698" lon="-1.6426">
        <ele>31.66</ele>
        <time>2020-06-06T09:05:30Z</time>
      </trkpt>
      <trkpt lat="46.99694" lon="-1.64235">
        <ele>31.92</ele>
        <time>2020-06-06T09:05:32Z</time>
      </trkpt>
      <trkpt lat="46.9969" lon="-1.64213">
        <ele>31.94</ele>
        <time>2020-06-06T09:05:34Z</time>
      </trkpt>
      <trkpt lat="46.99685" lon="-1.64188">
        <ele>31.86</ele>
        <time>2020-06-06T09:05:36Z</time>
      </trkpt>
      <trkpt lat="46.99682" lon="-1.64175">
        <ele>31.64</ele>
        <time>2020-06-06T09:05:37Z</time>
      </trkpt>
      <trkpt lat="46.9968" lon="-1.64162">
        <ele>31.3</ele>
        <time>2020-06-06T09:05:38Z</time>
      </trkpt>
      <trkpt lat="46.99675" lon="-1.64138">
        <ele>31.96</ele>
        <time>2020-06-06T09:05:40Z</time>
      </trkpt>
      <trkpt lat="46.9967" lon="-1.64114">
        <ele>33.77</ele>
        <time>2020-06-06T09:05:42Z</time>
      </trkpt>
      <trkpt lat="46.99667" lon="-1.64099">
        <ele>34.23</ele>
        <time>2020-06-06T09:05:43Z</time>
      </trkpt>
      <trkpt lat="46.99663" lon="-1.64076">
        <ele>34.71</ele>
        <time>2020-06-06T09:05:45Z</time>
      </trkpt>
      <trkpt lat="46.99658" lon="-1.64054">
        <ele>35.34</ele>
        <time>2020-06-06T09:05:47Z</time>
      </trkpt>
      <trkpt lat="46.99653" lon="-1.64031">
        <ele>35.6</ele>
        <time>2020-06-06T09:05:49Z</time>
      </trkpt>
      <trkpt lat="46.99649" lon="-1.6401">
        <ele>34.99</ele>
        <time>2020-06-06T09:05:51Z</time>
      </trkpt>
      <trkpt lat="46.99645" lon="-1.63986">
        <ele>34.93</ele>
        <time>2020-06-06T09:05:53Z</time>
      </trkpt>
      <trkpt lat="46.99641" lon="-1.63963">
        <ele>34.8</ele>
        <time>2020-06-06T09:05:55Z</time>
      </trkpt>
      <trkpt lat="46.99636" lon="-1.63939">
        <ele>34.62</ele>
        <time>2020-06-06T09:05:57Z</time>
      </trkpt>
      <trkpt lat="46.99633" lon="-1.63926">
        <ele>34.64</ele>
        <time>2020-06-06T09:05:58Z</time>
      </trkpt>
      <trkpt lat="46.99629" lon="-1.63905">
        <ele>33.99</ele>
        <time>2020-06-06T09:06:00Z</time>
      </trkpt>
      <trkpt lat="46.99624" lon="-1.63883">
        <ele>34.49</ele>
        <time>2020-06-06T09:06:02Z</time>
      </trkpt>
      <trkpt lat="46.9962" lon="-1.63859">
        <ele>34.98</ele>
        <time>2020-06-06T09:06:04Z</time>
      </trkpt>
      <trkpt lat="46.99615" lon="-1.63837">
        <ele>35.28</ele>
        <time>2020-06-06T09:06:06Z</time>
      </trkpt>
      <trkpt lat="46.9961" lon="-1.63812">
        <ele>35.64</ele>
        <time>2020-06-06T09:06:08Z</time>
      </trkpt>
      <trkpt lat="46.99605" lon="-1.63788">
        <ele>36.05</ele>
        <time>2020-06-06T09:06:10Z</time>
      </trkpt>
      <trkpt lat="46.99601" lon="-1.63767">
        <ele>35.97</ele>
        <time>2020-06-06T09:06:12Z</time>
      </trkpt>
      <trkpt lat="46.99596" lon="-1.63744">
        <ele>35.95</ele>
        <time>2020-06-06T09:06:14Z</time>
      </trkpt>
      <trkpt lat="46.99592" lon="-1.6372">
        <ele>35.48</ele>
        <time>2020-06-06T09:06:16Z</time>
      </trkpt>
      <trkpt lat="46.99587" lon="-1.63698">
        <ele>35.99</ele>
        <time>2020-06-06T09:06:18Z</time>
      </trkpt>
      <trkpt lat="46.99583" lon="-1.63676">
        <ele>36.55</ele>
        <time>2020-06-06T09:06:20Z</time>
      </trkpt>
      <trkpt lat="46.99577" lon="-1.63651">
        <ele>36.73</ele>
        <time>2020-06-06T09:06:22Z</time>
      </trkpt>
      <trkpt lat="46.99572" lon="-1.63628">
        <ele>37.3</ele>
        <time>2020-06-06T09:06:24Z</time>
      </trkpt>
      <trkpt lat="46.99568" lon="-1.63607">
        <ele>36.87</ele>
        <time>2020-06-06T09:06:26Z</time>
      </trkpt>
      <trkpt lat="46.99564" lon="-1.63585">
        <ele>36.84</ele>
        <time>2020-06-06T09:06:28Z</time>
      </trkpt>
      <trkpt lat="46.99559" lon="-1.63563">
        <ele>36.9</ele>
        <time>2020-06-06T09:06:30Z</time>
      </trkpt>
      <trkpt lat="46.99557" lon="-1.6355">
        <ele>37.15</ele>
        <time>2020-06-06T09:06:31Z</time>
      </trkpt>
      <trkpt lat="46.99553" lon="-1.63528">
        <ele>37.31</ele>
        <time>2020-06-06T09:06:33Z</time>
      </trkpt>
      <trkpt lat="46.99548" lon="-1.63507">
        <ele>36.44</ele>
        <time>2020-06-06T09:06:35Z</time>
      </trkpt>
      <trkpt lat="46.99544" lon="-1.63484">
        <ele>36.59</ele>
        <time>2020-06-06T09:06:37Z</time>
      </trkpt>
      <trkpt lat="46.99539" lon="-1.6346">
        <ele>37.44</ele>
        <time>2020-06-06T09:06:39Z</time>
      </trkpt>
      <trkpt lat="46.99534" lon="-1.63437">
        <ele>38.35</ele>
        <time>2020-06-06T09:06:41Z</time>
      </trkpt>
      <trkpt lat="46.9953" lon="-1.63413">
        <ele>38.28</ele>
        <time>2020-06-06T09:06:43Z</time>
      </trkpt>
      <trkpt lat="46.99525" lon="-1.6339">
        <ele>38.95</ele>
        <time>2020-06-06T09:06:45Z</time>
      </trkpt>
      <trkpt lat="46.99521" lon="-1.63369">
        <ele>39.6</ele>
        <time>2020-06-06T09:06:47Z</time>
      </trkpt>
      <trkpt lat="46.99516" lon="-1.63345">
        <ele>39.82</ele>
        <time>2020-06-06T09:06:49Z</time>
      </trkpt>
      <trkpt lat="46.99512" lon="-1.6332">
        <ele>40.09</ele>
        <time>2020-06-06T09:06:51Z</time>
      </trkpt>
      <trkpt lat="46.99508" lon="-1.63297">
        <ele>40.76</ele>
        <time>2020-06-06T09:06:53Z</time>
      </trkpt>
      <trkpt lat="46.99502" lon="-1.63271">
        <ele>40.77</ele>
        <time>2020-06-06T09:06:55Z</time>
      </trkpt>
      <trkpt lat="46.995" lon="-1.63259">
        <ele>40.35</ele>
        <time>2020-06-06T09:06:56Z</time>
      </trkpt>
      <trkpt lat="46.99494" lon="-1.63235">
        <ele>39.22</ele>
        <time>2020-06-06T09:06:58Z</time>
      </trkpt>
      <trkpt lat="46.99491" lon="-1.63223">
        <ele>39</ele>
        <time>2020-06-06T09:06:59Z</time>
      </trkpt>
      <trkpt lat="46.99484" lon="-1.632">
        <ele>38.19</ele>
        <time>2020-06-06T09:07:01Z</time>
      </trkpt>
      <trkpt lat="46.9948" lon="-1.63187">
        <ele>38.03</ele>
        <time>2020-06-06T09:07:02Z</time>
      </trkpt>
      <trkpt lat="46.99476" lon="-1.63175">
        <ele>37.56</ele>
        <time>2020-06-06T09:07:03Z</time>
      </trkpt>
      <trkpt lat="46.99467" lon="-1.63156">
        <ele>36.67</ele>
        <time>2020-06-06T09:07:05Z</time>
      </trkpt>
      <trkpt lat="46.99462" lon="-1.63146">
        <ele>36.23</ele>
        <time>2020-06-06T09:07:06Z</time>
      </trkpt>
      <trkpt lat="46.99456" lon="-1.63135">
        <ele>36.13</ele>
        <time>2020-06-06T09:07:07Z</time>
      </trkpt>
      <trkpt lat="46.99444" lon="-1.63114">
        <ele>36.84</ele>
        <time>2020-06-06T09:07:09Z</time>
      </trkpt>
      <trkpt lat="46.99437" lon="-1.63103">
        <ele>37.02</ele>
        <time>2020-06-06T09:07:10Z</time>
      </trkpt>
      <trkpt lat="46.99425" lon="-1.63084">
        <ele>37.69</ele>
        <time>2020-06-06T09:07:12Z</time>
      </trkpt>
      <trkpt lat="46.99412" lon="-1.63064">
        <ele>37.38</ele>
        <time>2020-06-06T09:07:14Z</time>
      </trkpt>
      <trkpt lat="46.99406" lon="-1.63055">
        <ele>37.44</ele>
        <time>2020-06-06T09:07:15Z</time>
      </trkpt>
      <trkpt lat="46.99393" lon="-1.63034">
        <ele>37.26</ele>
        <time>2020-06-06T09:07:17Z</time>
      </trkpt>
      <trkpt lat="46.99387" lon="-1.63024">
        <ele>37.31</ele>
        <time>2020-06-06T09:07:18Z</time>
      </trkpt>
      <trkpt lat="46.9938" lon="-1.63014">
        <ele>36.62</ele>
        <time>2020-06-06T09:07:19Z</time>
      </trkpt>
      <trkpt lat="46.99374" lon="-1.63004">
        <ele>35.88</ele>
        <time>2020-06-06T09:07:20Z</time>
      </trkpt>
      <trkpt lat="46.99368" lon="-1.62993">
        <ele>35.78</ele>
        <time>2020-06-06T09:07:21Z</time>
      </trkpt>
      <trkpt lat="46.99356" lon="-1.62974">
        <ele>35.75</ele>
        <time>2020-06-06T09:07:23Z</time>
      </trkpt>
      <trkpt lat="46.99349" lon="-1.62964">
        <ele>35.54</ele>
        <time>2020-06-06T09:07:25Z</time>
      </trkpt>
      <trkpt lat="46.99342" lon="-1.62953">
        <ele>35.23</ele>
        <time>2020-06-06T09:07:25Z</time>
      </trkpt>
      <trkpt lat="46.99336" lon="-1.62943">
        <ele>35.18</ele>
        <time>2020-06-06T09:07:26Z</time>
      </trkpt>
      <trkpt lat="46.99324" lon="-1.62923">
        <ele>35.37</ele>
        <time>2020-06-06T09:07:28Z</time>
      </trkpt>
      <trkpt lat="46.99318" lon="-1.62912">
        <ele>35.62</ele>
        <time>2020-06-06T09:07:29Z</time>
      </trkpt>
      <trkpt lat="46.99307" lon="-1.62894">
        <ele>36.27</ele>
        <time>2020-06-06T09:07:31Z</time>
      </trkpt>
      <trkpt lat="46.99296" lon="-1.62875">
        <ele>36.93</ele>
        <time>2020-06-06T09:07:33Z</time>
      </trkpt>
      <trkpt lat="46.99284" lon="-1.62855">
        <ele>37.28</ele>
        <time>2020-06-06T09:07:35Z</time>
      </trkpt>
      <trkpt lat="46.99272" lon="-1.62835">
        <ele>37.2</ele>
        <time>2020-06-06T09:07:37Z</time>
      </trkpt>
      <trkpt lat="46.99261" lon="-1.62816">
        <ele>37.22</ele>
        <time>2020-06-06T09:07:39Z</time>
      </trkpt>
      <trkpt lat="46.99255" lon="-1.62806">
        <ele>37.07</ele>
        <time>2020-06-06T09:07:40Z</time>
      </trkpt>
      <trkpt lat="46.99244" lon="-1.62786">
        <ele>37.39</ele>
        <time>2020-06-06T09:07:42Z</time>
      </trkpt>
      <trkpt lat="46.99231" lon="-1.62768">
        <ele>37.11</ele>
        <time>2020-06-06T09:07:44Z</time>
      </trkpt>
      <trkpt lat="46.9922" lon="-1.62749">
        <ele>36.51</ele>
        <time>2020-06-06T09:07:46Z</time>
      </trkpt>
      <trkpt lat="46.99209" lon="-1.62731">
        <ele>35.99</ele>
        <time>2020-06-06T09:07:48Z</time>
      </trkpt>
      <trkpt lat="46.99203" lon="-1.62721">
        <ele>36.06</ele>
        <time>2020-06-06T09:07:49Z</time>
      </trkpt>
      <trkpt lat="46.99197" lon="-1.62711">
        <ele>36.12</ele>
        <time>2020-06-06T09:07:50Z</time>
      </trkpt>
      <trkpt lat="46.99191" lon="-1.62701">
        <ele>36.13</ele>
        <time>2020-06-06T09:07:51Z</time>
      </trkpt>
      <trkpt lat="46.99178" lon="-1.6268">
        <ele>35.66</ele>
        <time>2020-06-06T09:07:53Z</time>
      </trkpt>
      <trkpt lat="46.99172" lon="-1.6267">
        <ele>35.63</ele>
        <time>2020-06-06T09:07:54Z</time>
      </trkpt>
      <trkpt lat="46.9916" lon="-1.6265">
        <ele>35.59</ele>
        <time>2020-06-06T09:07:56Z</time>
      </trkpt>
      <trkpt lat="46.99149" lon="-1.62631">
        <ele>35.19</ele>
        <time>2020-06-06T09:07:59Z</time>
      </trkpt>
      <trkpt lat="46.99138" lon="-1.62613">
        <ele>35.16</ele>
        <time>2020-06-06T09:08:01Z</time>
      </trkpt>
      <trkpt lat="46.99127" lon="-1.62594">
        <ele>34.27</ele>
        <time>2020-06-06T09:08:03Z</time>
      </trkpt>
      <trkpt lat="46.99121" lon="-1.62584">
        <ele>34.37</ele>
        <time>2020-06-06T09:08:04Z</time>
      </trkpt>
      <trkpt lat="46.9911" lon="-1.62566">
        <ele>34.12</ele>
        <time>2020-06-06T09:08:06Z</time>
      </trkpt>
      <trkpt lat="46.99099" lon="-1.62548">
        <ele>33.72</ele>
        <time>2020-06-06T09:08:08Z</time>
      </trkpt>
      <trkpt lat="46.99093" lon="-1.62537">
        <ele>33.54</ele>
        <time>2020-06-06T09:08:09Z</time>
      </trkpt>
      <trkpt lat="46.99087" lon="-1.62526">
        <ele>33.65</ele>
        <time>2020-06-06T09:08:10Z</time>
      </trkpt>
      <trkpt lat="46.99077" lon="-1.62505">
        <ele>33.89</ele>
        <time>2020-06-06T09:08:12Z</time>
      </trkpt>
      <trkpt lat="46.9907" lon="-1.62493">
        <ele>34.36</ele>
        <time>2020-06-06T09:08:13Z</time>
      </trkpt>
      <trkpt lat="46.9906" lon="-1.62475">
        <ele>35.05</ele>
        <time>2020-06-06T09:08:15Z</time>
      </trkpt>
      <trkpt lat="46.99051" lon="-1.62455">
        <ele>37.11</ele>
        <time>2020-06-06T09:08:17Z</time>
      </trkpt>
      <trkpt lat="46.99043" lon="-1.62439">
        <ele>37.62</ele>
        <time>2020-06-06T09:08:19Z</time>
      </trkpt>
      <trkpt lat="46.99033" lon="-1.62418">
        <ele>36.66</ele>
        <time>2020-06-06T09:08:21Z</time>
      </trkpt>
      <trkpt lat="46.99024" lon="-1.62399">
        <ele>36.6</ele>
        <time>2020-06-06T09:08:23Z</time>
      </trkpt>
      <trkpt lat="46.99014" lon="-1.6238">
        <ele>37.02</ele>
        <time>2020-06-06T09:08:25Z</time>
      </trkpt>
      <trkpt lat="46.99004" lon="-1.6236">
        <ele>37.22</ele>
        <time>2020-06-06T09:08:27Z</time>
      </trkpt>
      <trkpt lat="46.98994" lon="-1.6234">
        <ele>38.13</ele>
        <time>2020-06-06T09:08:29Z</time>
      </trkpt>
      <trkpt lat="46.98988" lon="-1.62328">
        <ele>38.44</ele>
        <time>2020-06-06T09:08:30Z</time>
      </trkpt>
      <trkpt lat="46.98978" lon="-1.62308">
        <ele>39.34</ele>
        <time>2020-06-06T09:08:32Z</time>
      </trkpt>
      <trkpt lat="46.98972" lon="-1.62297">
        <ele>39.34</ele>
        <time>2020-06-06T09:08:33Z</time>
      </trkpt>
      <trkpt lat="46.98963" lon="-1.62279">
        <ele>38.9</ele>
        <time>2020-06-06T09:08:35Z</time>
      </trkpt>
      <trkpt lat="46.98953" lon="-1.62259">
        <ele>37.86</ele>
        <time>2020-06-06T09:08:37Z</time>
      </trkpt>
      <trkpt lat="46.98947" lon="-1.62248">
        <ele>38.06</ele>
        <time>2020-06-06T09:08:38Z</time>
      </trkpt>
      <trkpt lat="46.98937" lon="-1.62227">
        <ele>37.96</ele>
        <time>2020-06-06T09:08:40Z</time>
      </trkpt>
      <trkpt lat="46.98931" lon="-1.62216">
        <ele>37.5</ele>
        <time>2020-06-06T09:08:41Z</time>
      </trkpt>
      <trkpt lat="46.98925" lon="-1.62206">
        <ele>37.25</ele>
        <time>2020-06-06T09:08:42Z</time>
      </trkpt>
      <trkpt lat="46.98914" lon="-1.62187">
        <ele>36.78</ele>
        <time>2020-06-06T09:08:44Z</time>
      </trkpt>
      <trkpt lat="46.98904" lon="-1.62167">
        <ele>36.34</ele>
        <time>2020-06-06T09:08:46Z</time>
      </trkpt>
      <trkpt lat="46.98892" lon="-1.62145">
        <ele>35.73</ele>
        <time>2020-06-06T09:08:48Z</time>
      </trkpt>
      <trkpt lat="46.98886" lon="-1.62134">
        <ele>35.27</ele>
        <time>2020-06-06T09:08:49Z</time>
      </trkpt>
      <trkpt lat="46.98876" lon="-1.62116">
        <ele>34.83</ele>
        <time>2020-06-06T09:08:51Z</time>
      </trkpt>
      <trkpt lat="46.98871" lon="-1.62105">
        <ele>34.5</ele>
        <time>2020-06-06T09:08:52Z</time>
      </trkpt>
      <trkpt lat="46.9886" lon="-1.62085">
        <ele>34.23</ele>
        <time>2020-06-06T09:08:54Z</time>
      </trkpt>
      <trkpt lat="46.98852" lon="-1.62069">
        <ele>33.93</ele>
        <time>2020-06-06T09:08:56Z</time>
      </trkpt>
      <trkpt lat="46.98842" lon="-1.6205">
        <ele>34.61</ele>
        <time>2020-06-06T09:08:58Z</time>
      </trkpt>
      <trkpt lat="46.98832" lon="-1.62031">
        <ele>35.53</ele>
        <time>2020-06-06T09:09:00Z</time>
      </trkpt>
      <trkpt lat="46.98823" lon="-1.62012">
        <ele>35.75</ele>
        <time>2020-06-06T09:09:02Z</time>
      </trkpt>
      <trkpt lat="46.98815" lon="-1.61995">
        <ele>35.11</ele>
        <time>2020-06-06T09:09:04Z</time>
      </trkpt>
      <trkpt lat="46.98807" lon="-1.61979">
        <ele>34.75</ele>
        <time>2020-06-06T09:09:06Z</time>
      </trkpt>
      <trkpt lat="46.98799" lon="-1.61964">
        <ele>34.29</ele>
        <time>2020-06-06T09:09:08Z</time>
      </trkpt>
      <trkpt lat="46.98793" lon="-1.61949">
        <ele>34.02</ele>
        <time>2020-06-06T09:09:10Z</time>
      </trkpt>
      <trkpt lat="46.98787" lon="-1.61937">
        <ele>33.79</ele>
        <time>2020-06-06T09:09:12Z</time>
      </trkpt>
      <trkpt lat="46.9878" lon="-1.61923">
        <ele>34.03</ele>
        <time>2020-06-06T09:09:14Z</time>
      </trkpt>
      <trkpt lat="46.98774" lon="-1.61906">
        <ele>33.69</ele>
        <time>2020-06-06T09:09:18Z</time>
      </trkpt>
      <trkpt lat="46.98776" lon="-1.61894">
        <ele>33.46</ele>
        <time>2020-06-06T09:09:20Z</time>
      </trkpt>
      <trkpt lat="46.98782" lon="-1.61877">
        <ele>34.04</ele>
        <time>2020-06-06T09:09:22Z</time>
      </trkpt>
      <trkpt lat="46.98786" lon="-1.61863">
        <ele>35.07</ele>
        <time>2020-06-06T09:09:24Z</time>
      </trkpt>
      <trkpt lat="46.98792" lon="-1.61846">
        <ele>35.61</ele>
        <time>2020-06-06T09:09:26Z</time>
      </trkpt>
      <trkpt lat="46.98798" lon="-1.61828">
        <ele>35.43</ele>
        <time>2020-06-06T09:09:28Z</time>
      </trkpt>
      <trkpt lat="46.98803" lon="-1.6181">
        <ele>34.34</ele>
        <time>2020-06-06T09:09:30Z</time>
      </trkpt>
      <trkpt lat="46.98808" lon="-1.61792">
        <ele>34.45</ele>
        <time>2020-06-06T09:09:32Z</time>
      </trkpt>
      <trkpt lat="46.98814" lon="-1.61772">
        <ele>34.78</ele>
        <time>2020-06-06T09:09:34Z</time>
      </trkpt>
      <trkpt lat="46.9882" lon="-1.61754">
        <ele>34.77</ele>
        <time>2020-06-06T09:09:36Z</time>
      </trkpt>
      <trkpt lat="46.98825" lon="-1.61737">
        <ele>35.21</ele>
        <time>2020-06-06T09:09:38Z</time>
      </trkpt>
      <trkpt lat="46.98831" lon="-1.61719">
        <ele>35.51</ele>
        <time>2020-06-06T09:09:40Z</time>
      </trkpt>
      <trkpt lat="46.98838" lon="-1.61697">
        <ele>34.65</ele>
        <time>2020-06-06T09:09:42Z</time>
      </trkpt>
      <trkpt lat="46.98843" lon="-1.61678">
        <ele>33.91</ele>
        <time>2020-06-06T09:09:44Z</time>
      </trkpt>
      <trkpt lat="46.98848" lon="-1.61661">
        <ele>33.8</ele>
        <time>2020-06-06T09:09:46Z</time>
      </trkpt>
      <trkpt lat="46.98854" lon="-1.61643">
        <ele>32.87</ele>
        <time>2020-06-06T09:09:48Z</time>
      </trkpt>
      <trkpt lat="46.98859" lon="-1.61626">
        <ele>32.66</ele>
        <time>2020-06-06T09:09:50Z</time>
      </trkpt>
      <trkpt lat="46.98865" lon="-1.61605">
        <ele>33.46</ele>
        <time>2020-06-06T09:09:52Z</time>
      </trkpt>
      <trkpt lat="46.9887" lon="-1.61587">
        <ele>33.54</ele>
        <time>2020-06-06T09:09:54Z</time>
      </trkpt>
      <trkpt lat="46.98875" lon="-1.61569">
        <ele>33.23</ele>
        <time>2020-06-06T09:09:56Z</time>
      </trkpt>
      <trkpt lat="46.9888" lon="-1.61551">
        <ele>32.57</ele>
        <time>2020-06-06T09:09:58Z</time>
      </trkpt>
      <trkpt lat="46.98885" lon="-1.61533">
        <ele>32.86</ele>
        <time>2020-06-06T09:10:00Z</time>
      </trkpt>
      <trkpt lat="46.98891" lon="-1.61513">
        <ele>33.57</ele>
        <time>2020-06-06T09:10:02Z</time>
      </trkpt>
      <trkpt lat="46.98896" lon="-1.61494">
        <ele>33.88</ele>
        <time>2020-06-06T09:10:04Z</time>
      </trkpt>
      <trkpt lat="46.98901" lon="-1.61475">
        <ele>34.26</ele>
        <time>2020-06-06T09:10:06Z</time>
      </trkpt>
      <trkpt lat="46.98906" lon="-1.61456">
        <ele>32.84</ele>
        <time>2020-06-06T09:10:08Z</time>
      </trkpt>
      <trkpt lat="46.98911" lon="-1.61439">
        <ele>32.18</ele>
        <time>2020-06-06T09:10:10Z</time>
      </trkpt>
      <trkpt lat="46.98916" lon="-1.6142">
        <ele>31.79</ele>
        <time>2020-06-06T09:10:12Z</time>
      </trkpt>
      <trkpt lat="46.9892" lon="-1.61405">
        <ele>31.14</ele>
        <time>2020-06-06T09:10:14Z</time>
      </trkpt>
      <trkpt lat="46.98924" lon="-1.61388">
        <ele>30.38</ele>
        <time>2020-06-06T09:10:16Z</time>
      </trkpt>
      <trkpt lat="46.98929" lon="-1.61369">
        <ele>30.38</ele>
        <time>2020-06-06T09:10:18Z</time>
      </trkpt>
      <trkpt lat="46.98933" lon="-1.61351">
        <ele>30.88</ele>
        <time>2020-06-06T09:10:20Z</time>
      </trkpt>
      <trkpt lat="46.98938" lon="-1.6133">
        <ele>31.07</ele>
        <time>2020-06-06T09:10:22Z</time>
      </trkpt>
      <trkpt lat="46.98943" lon="-1.61312">
        <ele>31.18</ele>
        <time>2020-06-06T09:10:24Z</time>
      </trkpt>
      <trkpt lat="46.98949" lon="-1.61292">
        <ele>32.33</ele>
        <time>2020-06-06T09:10:26Z</time>
      </trkpt>
      <trkpt lat="46.98955" lon="-1.6127">
        <ele>34.04</ele>
        <time>2020-06-06T09:10:28Z</time>
      </trkpt>
      <trkpt lat="46.98961" lon="-1.61252">
        <ele>35.41</ele>
        <time>2020-06-06T09:10:30Z</time>
      </trkpt>
      <trkpt lat="46.98967" lon="-1.61231">
        <ele>36.68</ele>
        <time>2020-06-06T09:10:32Z</time>
      </trkpt>
      <trkpt lat="46.98972" lon="-1.61211">
        <ele>38.03</ele>
        <time>2020-06-06T09:10:34Z</time>
      </trkpt>
      <trkpt lat="46.98978" lon="-1.6119">
        <ele>38.65</ele>
        <time>2020-06-06T09:10:36Z</time>
      </trkpt>
      <trkpt lat="46.98983" lon="-1.61171">
        <ele>38.71</ele>
        <time>2020-06-06T09:10:38Z</time>
      </trkpt>
      <trkpt lat="46.98989" lon="-1.61149">
        <ele>38.7</ele>
        <time>2020-06-06T09:10:40Z</time>
      </trkpt>
      <trkpt lat="46.98995" lon="-1.61127">
        <ele>38.57</ele>
        <time>2020-06-06T09:10:42Z</time>
      </trkpt>
      <trkpt lat="46.99001" lon="-1.61105">
        <ele>38.28</ele>
        <time>2020-06-06T09:10:44Z</time>
      </trkpt>
      <trkpt lat="46.99007" lon="-1.61086">
        <ele>38.4</ele>
        <time>2020-06-06T09:10:46Z</time>
      </trkpt>
      <trkpt lat="46.99013" lon="-1.61066">
        <ele>38.41</ele>
        <time>2020-06-06T09:10:48Z</time>
      </trkpt>
      <trkpt lat="46.9902" lon="-1.61043">
        <ele>38.01</ele>
        <time>2020-06-06T09:10:50Z</time>
      </trkpt>
      <trkpt lat="46.99026" lon="-1.61022">
        <ele>38.03</ele>
        <time>2020-06-06T09:10:52Z</time>
      </trkpt>
      <trkpt lat="46.99032" lon="-1.61001">
        <ele>37.4</ele>
        <time>2020-06-06T09:10:54Z</time>
      </trkpt>
      <trkpt lat="46.99038" lon="-1.60979">
        <ele>37.57</ele>
        <time>2020-06-06T09:10:56Z</time>
      </trkpt>
      <trkpt lat="46.99044" lon="-1.6096">
        <ele>38.23</ele>
        <time>2020-06-06T09:10:58Z</time>
      </trkpt>
      <trkpt lat="46.9905" lon="-1.60938">
        <ele>39.2</ele>
        <time>2020-06-06T09:11:00Z</time>
      </trkpt>
      <trkpt lat="46.99056" lon="-1.60917">
        <ele>40.16</ele>
        <time>2020-06-06T09:11:02Z</time>
      </trkpt>
      <trkpt lat="46.99062" lon="-1.60896">
        <ele>40.68</ele>
        <time>2020-06-06T09:11:04Z</time>
      </trkpt>
      <trkpt lat="46.99068" lon="-1.60876">
        <ele>40.65</ele>
        <time>2020-06-06T09:11:06Z</time>
      </trkpt>
      <trkpt lat="46.99074" lon="-1.60856">
        <ele>39.92</ele>
        <time>2020-06-06T09:11:08Z</time>
      </trkpt>
      <trkpt lat="46.9908" lon="-1.60836">
        <ele>38.74</ele>
        <time>2020-06-06T09:11:10Z</time>
      </trkpt>
      <trkpt lat="46.99083" lon="-1.60823">
        <ele>38.08</ele>
        <time>2020-06-06T09:11:11Z</time>
      </trkpt>
      <trkpt lat="46.99089" lon="-1.60803">
        <ele>37.12</ele>
        <time>2020-06-06T09:11:13Z</time>
      </trkpt>
      <trkpt lat="46.99095" lon="-1.60783">
        <ele>36.9</ele>
        <time>2020-06-06T09:11:15Z</time>
      </trkpt>
      <trkpt lat="46.99101" lon="-1.6076">
        <ele>36.78</ele>
        <time>2020-06-06T09:11:17Z</time>
      </trkpt>
      <trkpt lat="46.99108" lon="-1.60737">
        <ele>36.36</ele>
        <time>2020-06-06T09:11:19Z</time>
      </trkpt>
      <trkpt lat="46.99115" lon="-1.60713">
        <ele>35.92</ele>
        <time>2020-06-06T09:11:21Z</time>
      </trkpt>
      <trkpt lat="46.99121" lon="-1.6069">
        <ele>35.8</ele>
        <time>2020-06-06T09:11:23Z</time>
      </trkpt>
      <trkpt lat="46.99125" lon="-1.60678">
        <ele>35.73</ele>
        <time>2020-06-06T09:11:24Z</time>
      </trkpt>
      <trkpt lat="46.99132" lon="-1.60655">
        <ele>36.01</ele>
        <time>2020-06-06T09:11:26Z</time>
      </trkpt>
      <trkpt lat="46.99138" lon="-1.60633">
        <ele>36.21</ele>
        <time>2020-06-06T09:11:28Z</time>
      </trkpt>
      <trkpt lat="46.99144" lon="-1.60611">
        <ele>36.21</ele>
        <time>2020-06-06T09:11:30Z</time>
      </trkpt>
      <trkpt lat="46.99148" lon="-1.60598">
        <ele>35.84</ele>
        <time>2020-06-06T09:11:31Z</time>
      </trkpt>
      <trkpt lat="46.99152" lon="-1.60586">
        <ele>35.92</ele>
        <time>2020-06-06T09:11:32Z</time>
      </trkpt>
      <trkpt lat="46.99158" lon="-1.60563">
        <ele>35.48</ele>
        <time>2020-06-06T09:11:34Z</time>
      </trkpt>
      <trkpt lat="46.99165" lon="-1.60541">
        <ele>34.77</ele>
        <time>2020-06-06T09:11:36Z</time>
      </trkpt>
      <trkpt lat="46.99172" lon="-1.60517">
        <ele>34.55</ele>
        <time>2020-06-06T09:11:38Z</time>
      </trkpt>
      <trkpt lat="46.99178" lon="-1.60494">
        <ele>34.15</ele>
        <time>2020-06-06T09:11:40Z</time>
      </trkpt>
      <trkpt lat="46.99185" lon="-1.60471">
        <ele>33.57</ele>
        <time>2020-06-06T09:11:42Z</time>
      </trkpt>
      <trkpt lat="46.99192" lon="-1.60448">
        <ele>32.99</ele>
        <time>2020-06-06T09:11:44Z</time>
      </trkpt>
      <trkpt lat="46.99199" lon="-1.60427">
        <ele>32.89</ele>
        <time>2020-06-06T09:11:46Z</time>
      </trkpt>
      <trkpt lat="46.99205" lon="-1.60405">
        <ele>32.72</ele>
        <time>2020-06-06T09:11:48Z</time>
      </trkpt>
      <trkpt lat="46.99211" lon="-1.60382">
        <ele>31.47</ele>
        <time>2020-06-06T09:11:50Z</time>
      </trkpt>
      <trkpt lat="46.99218" lon="-1.6036">
        <ele>30.06</ele>
        <time>2020-06-06T09:11:52Z</time>
      </trkpt>
      <trkpt lat="46.99225" lon="-1.60337">
        <ele>29.4</ele>
        <time>2020-06-06T09:11:54Z</time>
      </trkpt>
      <trkpt lat="46.99231" lon="-1.60315">
        <ele>28.68</ele>
        <time>2020-06-06T09:11:56Z</time>
      </trkpt>
      <trkpt lat="46.99237" lon="-1.60293">
        <ele>28.65</ele>
        <time>2020-06-06T09:11:58Z</time>
      </trkpt>
      <trkpt lat="46.99242" lon="-1.60271">
        <ele>28.33</ele>
        <time>2020-06-06T09:12:00Z</time>
      </trkpt>
      <trkpt lat="46.99247" lon="-1.60248">
        <ele>29.13</ele>
        <time>2020-06-06T09:12:02Z</time>
      </trkpt>
      <trkpt lat="46.99252" lon="-1.60224">
        <ele>28.63</ele>
        <time>2020-06-06T09:12:04Z</time>
      </trkpt>
      <trkpt lat="46.99255" lon="-1.60212">
        <ele>28.08</ele>
        <time>2020-06-06T09:12:05Z</time>
      </trkpt>
      <trkpt lat="46.9926" lon="-1.60187">
        <ele>28.11</ele>
        <time>2020-06-06T09:12:07Z</time>
      </trkpt>
      <trkpt lat="46.99265" lon="-1.60164">
        <ele>28.63</ele>
        <time>2020-06-06T09:12:09Z</time>
      </trkpt>
      <trkpt lat="46.99271" lon="-1.6014">
        <ele>29.26</ele>
        <time>2020-06-06T09:12:11Z</time>
      </trkpt>
      <trkpt lat="46.99276" lon="-1.60116">
        <ele>29.39</ele>
        <time>2020-06-06T09:12:13Z</time>
      </trkpt>
      <trkpt lat="46.99281" lon="-1.6009">
        <ele>29.01</ele>
        <time>2020-06-06T09:12:15Z</time>
      </trkpt>
      <trkpt lat="46.99283" lon="-1.60068">
        <ele>29.1</ele>
        <time>2020-06-06T09:12:17Z</time>
      </trkpt>
      <trkpt lat="46.99285" lon="-1.60045">
        <ele>28.49</ele>
        <time>2020-06-06T09:12:19Z</time>
      </trkpt>
      <trkpt lat="46.99285" lon="-1.60032">
        <ele>28.12</ele>
        <time>2020-06-06T09:12:20Z</time>
      </trkpt>
      <trkpt lat="46.99285" lon="-1.60018">
        <ele>28.08</ele>
        <time>2020-06-06T09:12:21Z</time>
      </trkpt>
      <trkpt lat="46.99283" lon="-1.59995">
        <ele>29.1</ele>
        <time>2020-06-06T09:12:23Z</time>
      </trkpt>
      <trkpt lat="46.99281" lon="-1.59973">
        <ele>29.75</ele>
        <time>2020-06-06T09:12:25Z</time>
      </trkpt>
      <trkpt lat="46.99277" lon="-1.59948">
        <ele>29.11</ele>
        <time>2020-06-06T09:12:27Z</time>
      </trkpt>
      <trkpt lat="46.99274" lon="-1.59936">
        <ele>28.83</ele>
        <time>2020-06-06T09:12:28Z</time>
      </trkpt>
      <trkpt lat="46.99269" lon="-1.59911">
        <ele>28.72</ele>
        <time>2020-06-06T09:12:30Z</time>
      </trkpt>
      <trkpt lat="46.99264" lon="-1.59891">
        <ele>27.94</ele>
        <time>2020-06-06T09:12:32Z</time>
      </trkpt>
      <trkpt lat="46.99261" lon="-1.59878">
        <ele>27.34</ele>
        <time>2020-06-06T09:12:33Z</time>
      </trkpt>
      <trkpt lat="46.99256" lon="-1.59853">
        <ele>26.19</ele>
        <time>2020-06-06T09:12:35Z</time>
      </trkpt>
      <trkpt lat="46.99252" lon="-1.59828">
        <ele>25.76</ele>
        <time>2020-06-06T09:12:37Z</time>
      </trkpt>
      <trkpt lat="46.99248" lon="-1.59805">
        <ele>26.75</ele>
        <time>2020-06-06T09:12:39Z</time>
      </trkpt>
      <trkpt lat="46.99245" lon="-1.59781">
        <ele>27.41</ele>
        <time>2020-06-06T09:12:41Z</time>
      </trkpt>
      <trkpt lat="46.99242" lon="-1.59762">
        <ele>27.42</ele>
        <time>2020-06-06T09:12:43Z</time>
      </trkpt>
      <trkpt lat="46.99237" lon="-1.5974">
        <ele>27.52</ele>
        <time>2020-06-06T09:12:45Z</time>
      </trkpt>
      <trkpt lat="46.99232" lon="-1.59718">
        <ele>26.34</ele>
        <time>2020-06-06T09:12:47Z</time>
      </trkpt>
      <trkpt lat="46.99227" lon="-1.59699">
        <ele>26.7</ele>
        <time>2020-06-06T09:12:49Z</time>
      </trkpt>
      <trkpt lat="46.99222" lon="-1.59682">
        <ele>26.03</ele>
        <time>2020-06-06T09:12:51Z</time>
      </trkpt>
      <trkpt lat="46.99217" lon="-1.59664">
        <ele>25.86</ele>
        <time>2020-06-06T09:12:53Z</time>
      </trkpt>
      <trkpt lat="46.99213" lon="-1.5965">
        <ele>25.9</ele>
        <time>2020-06-06T09:12:55Z</time>
      </trkpt>
      <trkpt lat="46.99221" lon="-1.59637">
        <ele>26.47</ele>
        <time>2020-06-06T09:12:57Z</time>
      </trkpt>
      <trkpt lat="46.99233" lon="-1.59632">
        <ele>27.03</ele>
        <time>2020-06-06T09:12:59Z</time>
      </trkpt>
      <trkpt lat="46.99249" lon="-1.59628">
        <ele>26.61</ele>
        <time>2020-06-06T09:13:01Z</time>
      </trkpt>
      <trkpt lat="46.99263" lon="-1.59624">
        <ele>25.65</ele>
        <time>2020-06-06T09:13:03Z</time>
      </trkpt>
      <trkpt lat="46.99277" lon="-1.59622">
        <ele>25.24</ele>
        <time>2020-06-06T09:13:05Z</time>
      </trkpt>
      <trkpt lat="46.99292" lon="-1.59621">
        <ele>25.02</ele>
        <time>2020-06-06T09:13:07Z</time>
      </trkpt>
      <trkpt lat="46.99308" lon="-1.5962">
        <ele>24.64</ele>
        <time>2020-06-06T09:13:09Z</time>
      </trkpt>
      <trkpt lat="46.99321" lon="-1.59619">
        <ele>25.43</ele>
        <time>2020-06-06T09:13:11Z</time>
      </trkpt>
      <trkpt lat="46.99332" lon="-1.59618">
        <ele>25.33</ele>
        <time>2020-06-06T09:13:13Z</time>
      </trkpt>
      <trkpt lat="46.99343" lon="-1.59614">
        <ele>24.57</ele>
        <time>2020-06-06T09:13:15Z</time>
      </trkpt>
      <trkpt lat="46.99353" lon="-1.59602">
        <ele>25.43</ele>
        <time>2020-06-06T09:13:17Z</time>
      </trkpt>
      <trkpt lat="46.99363" lon="-1.59586">
        <ele>25.52</ele>
        <time>2020-06-06T09:13:19Z</time>
      </trkpt>
      <trkpt lat="46.99372" lon="-1.59566">
        <ele>26.01</ele>
        <time>2020-06-06T09:13:21Z</time>
      </trkpt>
      <trkpt lat="46.99379" lon="-1.59549">
        <ele>27.17</ele>
        <time>2020-06-06T09:13:23Z</time>
      </trkpt>
      <trkpt lat="46.99386" lon="-1.59529">
        <ele>27.11</ele>
        <time>2020-06-06T09:13:25Z</time>
      </trkpt>
      <trkpt lat="46.99393" lon="-1.59512">
        <ele>27.95</ele>
        <time>2020-06-06T09:13:27Z</time>
      </trkpt>
      <trkpt lat="46.994" lon="-1.59493">
        <ele>28.02</ele>
        <time>2020-06-06T09:13:29Z</time>
      </trkpt>
      <trkpt lat="46.99408" lon="-1.59474">
        <ele>27.93</ele>
        <time>2020-06-06T09:13:31Z</time>
      </trkpt>
      <trkpt lat="46.99416" lon="-1.59455">
        <ele>28.27</ele>
        <time>2020-06-06T09:13:33Z</time>
      </trkpt>
      <trkpt lat="46.99426" lon="-1.59437">
        <ele>29.1</ele>
        <time>2020-06-06T09:13:35Z</time>
      </trkpt>
      <trkpt lat="46.99435" lon="-1.5942">
        <ele>29.56</ele>
        <time>2020-06-06T09:13:37Z</time>
      </trkpt>
      <trkpt lat="46.99444" lon="-1.59407">
        <ele>29.5</ele>
        <time>2020-06-06T09:13:39Z</time>
      </trkpt>
      <trkpt lat="46.99455" lon="-1.59395">
        <ele>29.16</ele>
        <time>2020-06-06T09:13:41Z</time>
      </trkpt>
      <trkpt lat="46.99467" lon="-1.59386">
        <ele>28.97</ele>
        <time>2020-06-06T09:13:43Z</time>
      </trkpt>
      <trkpt lat="46.9948" lon="-1.59377">
        <ele>28.51</ele>
        <time>2020-06-06T09:13:45Z</time>
      </trkpt>
      <trkpt lat="46.99493" lon="-1.59368">
        <ele>27.24</ele>
        <time>2020-06-06T09:13:47Z</time>
      </trkpt>
      <trkpt lat="46.99507" lon="-1.59359">
        <ele>25.98</ele>
        <time>2020-06-06T09:13:49Z</time>
      </trkpt>
      <trkpt lat="46.99521" lon="-1.59351">
        <ele>25.39</ele>
        <time>2020-06-06T09:13:51Z</time>
      </trkpt>
      <trkpt lat="46.99537" lon="-1.59342">
        <ele>25.32</ele>
        <time>2020-06-06T09:13:53Z</time>
      </trkpt>
      <trkpt lat="46.99552" lon="-1.59333">
        <ele>24.74</ele>
        <time>2020-06-06T09:13:55Z</time>
      </trkpt>
      <trkpt lat="46.99566" lon="-1.59325">
        <ele>23.65</ele>
        <time>2020-06-06T09:13:57Z</time>
      </trkpt>
      <trkpt lat="46.99581" lon="-1.59317">
        <ele>23.04</ele>
        <time>2020-06-06T09:13:59Z</time>
      </trkpt>
      <trkpt lat="46.99595" lon="-1.59309">
        <ele>23.52</ele>
        <time>2020-06-06T09:14:01Z</time>
      </trkpt>
      <trkpt lat="46.9961" lon="-1.593">
        <ele>24.01</ele>
        <time>2020-06-06T09:14:03Z</time>
      </trkpt>
      <trkpt lat="46.99624" lon="-1.59291">
        <ele>23.59</ele>
        <time>2020-06-06T09:14:05Z</time>
      </trkpt>
      <trkpt lat="46.99637" lon="-1.59283">
        <ele>22.22</ele>
        <time>2020-06-06T09:14:07Z</time>
      </trkpt>
      <trkpt lat="46.99651" lon="-1.59275">
        <ele>21.05</ele>
        <time>2020-06-06T09:14:09Z</time>
      </trkpt>
      <trkpt lat="46.99665" lon="-1.59267">
        <ele>20.79</ele>
        <time>2020-06-06T09:14:11Z</time>
      </trkpt>
      <trkpt lat="46.99679" lon="-1.59257">
        <ele>21.41</ele>
        <time>2020-06-06T09:14:13Z</time>
      </trkpt>
      <trkpt lat="46.9969" lon="-1.59249">
        <ele>21.52</ele>
        <time>2020-06-06T09:14:15Z</time>
      </trkpt>
      <trkpt lat="46.99703" lon="-1.59241">
        <ele>20.95</ele>
        <time>2020-06-06T09:14:17Z</time>
      </trkpt>
      <trkpt lat="46.99717" lon="-1.59232">
        <ele>20.75</ele>
        <time>2020-06-06T09:14:19Z</time>
      </trkpt>
      <trkpt lat="46.9973" lon="-1.59223">
        <ele>20.79</ele>
        <time>2020-06-06T09:14:21Z</time>
      </trkpt>
      <trkpt lat="46.99743" lon="-1.59215">
        <ele>20.12</ele>
        <time>2020-06-06T09:14:23Z</time>
      </trkpt>
      <trkpt lat="46.99756" lon="-1.59208">
        <ele>19.71</ele>
        <time>2020-06-06T09:14:25Z</time>
      </trkpt>
      <trkpt lat="46.99771" lon="-1.59199">
        <ele>19.77</ele>
        <time>2020-06-06T09:14:27Z</time>
      </trkpt>
      <trkpt lat="46.99784" lon="-1.59189">
        <ele>19.7</ele>
        <time>2020-06-06T09:14:29Z</time>
      </trkpt>
      <trkpt lat="46.99796" lon="-1.59176">
        <ele>19.29</ele>
        <time>2020-06-06T09:14:31Z</time>
      </trkpt>
      <trkpt lat="46.99809" lon="-1.59157">
        <ele>19.18</ele>
        <time>2020-06-06T09:14:33Z</time>
      </trkpt>
      <trkpt lat="46.99816" lon="-1.59136">
        <ele>19.08</ele>
        <time>2020-06-06T09:14:35Z</time>
      </trkpt>
      <trkpt lat="46.99823" lon="-1.59112">
        <ele>19.5</ele>
        <time>2020-06-06T09:14:37Z</time>
      </trkpt>
      <trkpt lat="46.99826" lon="-1.59099">
        <ele>19.63</ele>
        <time>2020-06-06T09:14:38Z</time>
      </trkpt>
      <trkpt lat="46.99831" lon="-1.59077">
        <ele>19.5</ele>
        <time>2020-06-06T09:14:40Z</time>
      </trkpt>
      <trkpt lat="46.99837" lon="-1.59051">
        <ele>19.61</ele>
        <time>2020-06-06T09:14:42Z</time>
      </trkpt>
      <trkpt lat="46.99843" lon="-1.59026">
        <ele>19.66</ele>
        <time>2020-06-06T09:14:44Z</time>
      </trkpt>
      <trkpt lat="46.99848" lon="-1.59002">
        <ele>19.27</ele>
        <time>2020-06-06T09:14:46Z</time>
      </trkpt>
      <trkpt lat="46.99851" lon="-1.58989">
        <ele>18.8</ele>
        <time>2020-06-06T09:14:47Z</time>
      </trkpt>
      <trkpt lat="46.99857" lon="-1.58965">
        <ele>17.22</ele>
        <time>2020-06-06T09:14:49Z</time>
      </trkpt>
      <trkpt lat="46.9986" lon="-1.58953">
        <ele>17.1</ele>
        <time>2020-06-06T09:14:50Z</time>
      </trkpt>
      <trkpt lat="46.99873" lon="-1.58939">
        <ele>16.23</ele>
        <time>2020-06-06T09:14:52Z</time>
      </trkpt>
      <trkpt lat="46.99888" lon="-1.58928">
        <ele>15.58</ele>
        <time>2020-06-06T09:14:54Z</time>
      </trkpt>
      <trkpt lat="46.99904" lon="-1.58923">
        <ele>16.25</ele>
        <time>2020-06-06T09:14:56Z</time>
      </trkpt>
      <trkpt lat="46.9992" lon="-1.58917">
        <ele>17.19</ele>
        <time>2020-06-06T09:14:58Z</time>
      </trkpt>
      <trkpt lat="46.99937" lon="-1.58912">
        <ele>16.83</ele>
        <time>2020-06-06T09:15:00Z</time>
      </trkpt>
      <trkpt lat="46.99954" lon="-1.58906">
        <ele>16.03</ele>
        <time>2020-06-06T09:15:02Z</time>
      </trkpt>
      <trkpt lat="46.99963" lon="-1.58903">
        <ele>15.77</ele>
        <time>2020-06-06T09:15:03Z</time>
      </trkpt>
      <trkpt lat="46.9998" lon="-1.58897">
        <ele>15.51</ele>
        <time>2020-06-06T09:15:05Z</time>
      </trkpt>
      <trkpt lat="46.99997" lon="-1.58891">
        <ele>15.22</ele>
        <time>2020-06-06T09:15:07Z</time>
      </trkpt>
      <trkpt lat="47.00013" lon="-1.58887">
        <ele>15.27</ele>
        <time>2020-06-06T09:15:09Z</time>
      </trkpt>
      <trkpt lat="47.00031" lon="-1.58883">
        <ele>15.15</ele>
        <time>2020-06-06T09:15:11Z</time>
      </trkpt>
      <trkpt lat="47.0004" lon="-1.58882">
        <ele>15.02</ele>
        <time>2020-06-06T09:15:12Z</time>
      </trkpt>
      <trkpt lat="47.00057" lon="-1.58881">
        <ele>14.46</ele>
        <time>2020-06-06T09:15:14Z</time>
      </trkpt>
      <trkpt lat="47.00066" lon="-1.5888">
        <ele>14.19</ele>
        <time>2020-06-06T09:15:15Z</time>
      </trkpt>
      <trkpt lat="47.00075" lon="-1.5888">
        <ele>14.03</ele>
        <time>2020-06-06T09:15:16Z</time>
      </trkpt>
      <trkpt lat="47.00092" lon="-1.58879">
        <ele>13.88</ele>
        <time>2020-06-06T09:15:18Z</time>
      </trkpt>
      <trkpt lat="47.00108" lon="-1.58878">
        <ele>14.21</ele>
        <time>2020-06-06T09:15:20Z</time>
      </trkpt>
      <trkpt lat="47.00118" lon="-1.58877">
        <ele>14.3</ele>
        <time>2020-06-06T09:15:21Z</time>
      </trkpt>
      <trkpt lat="47.00135" lon="-1.58875">
        <ele>14.19</ele>
        <time>2020-06-06T09:15:23Z</time>
      </trkpt>
      <trkpt lat="47.00152" lon="-1.58871">
        <ele>14.27</ele>
        <time>2020-06-06T09:15:25Z</time>
      </trkpt>
      <trkpt lat="47.00169" lon="-1.58864">
        <ele>14.76</ele>
        <time>2020-06-06T09:15:27Z</time>
      </trkpt>
      <trkpt lat="47.00177" lon="-1.5886">
        <ele>14.72</ele>
        <time>2020-06-06T09:15:28Z</time>
      </trkpt>
      <trkpt lat="47.00194" lon="-1.5885">
        <ele>14.71</ele>
        <time>2020-06-06T09:15:30Z</time>
      </trkpt>
      <trkpt lat="47.00202" lon="-1.58844">
        <ele>14.64</ele>
        <time>2020-06-06T09:15:31Z</time>
      </trkpt>
      <trkpt lat="47.00216" lon="-1.58832">
        <ele>14.41</ele>
        <time>2020-06-06T09:15:33Z</time>
      </trkpt>
      <trkpt lat="47.00229" lon="-1.58819">
        <ele>14.11</ele>
        <time>2020-06-06T09:15:35Z</time>
      </trkpt>
      <trkpt lat="47.00241" lon="-1.58805">
        <ele>13.99</ele>
        <time>2020-06-06T09:15:37Z</time>
      </trkpt>
      <trkpt lat="47.00252" lon="-1.58792">
        <ele>14.24</ele>
        <time>2020-06-06T09:15:39Z</time>
      </trkpt>
      <trkpt lat="47.00264" lon="-1.58778">
        <ele>14.4</ele>
        <time>2020-06-06T09:15:41Z</time>
      </trkpt>
      <trkpt lat="47.00277" lon="-1.58764">
        <ele>14.45</ele>
        <time>2020-06-06T09:15:43Z</time>
      </trkpt>
      <trkpt lat="47.00289" lon="-1.58751">
        <ele>14.79</ele>
        <time>2020-06-06T09:15:45Z</time>
      </trkpt>
      <trkpt lat="47.00301" lon="-1.58738">
        <ele>15.35</ele>
        <time>2020-06-06T09:15:47Z</time>
      </trkpt>
      <trkpt lat="47.00312" lon="-1.58727">
        <ele>16.38</ele>
        <time>2020-06-06T09:15:49Z</time>
      </trkpt>
      <trkpt lat="47.00323" lon="-1.58714">
        <ele>17.17</ele>
        <time>2020-06-06T09:15:51Z</time>
      </trkpt>
      <trkpt lat="47.00333" lon="-1.58702">
        <ele>17.37</ele>
        <time>2020-06-06T09:15:53Z</time>
      </trkpt>
      <trkpt lat="47.00343" lon="-1.58691">
        <ele>17.18</ele>
        <time>2020-06-06T09:15:55Z</time>
      </trkpt>
      <trkpt lat="47.00353" lon="-1.58679">
        <ele>17.56</ele>
        <time>2020-06-06T09:15:57Z</time>
      </trkpt>
      <trkpt lat="47.00364" lon="-1.58668">
        <ele>17.72</ele>
        <time>2020-06-06T09:15:59Z</time>
      </trkpt>
      <trkpt lat="47.00375" lon="-1.58657">
        <ele>18.11</ele>
        <time>2020-06-06T09:16:01Z</time>
      </trkpt>
      <trkpt lat="47.00387" lon="-1.58645">
        <ele>17.86</ele>
        <time>2020-06-06T09:16:03Z</time>
      </trkpt>
      <trkpt lat="47.00397" lon="-1.58634">
        <ele>17.45</ele>
        <time>2020-06-06T09:16:05Z</time>
      </trkpt>
      <trkpt lat="47.00408" lon="-1.58622">
        <ele>17.14</ele>
        <time>2020-06-06T09:16:07Z</time>
      </trkpt>
      <trkpt lat="47.00419" lon="-1.58609">
        <ele>17.52</ele>
        <time>2020-06-06T09:16:09Z</time>
      </trkpt>
      <trkpt lat="47.00428" lon="-1.58595">
        <ele>18.18</ele>
        <time>2020-06-06T09:16:11Z</time>
      </trkpt>
      <trkpt lat="47.00436" lon="-1.58583">
        <ele>18.42</ele>
        <time>2020-06-06T09:16:13Z</time>
      </trkpt>
      <trkpt lat="47.00445" lon="-1.58568">
        <ele>18.94</ele>
        <time>2020-06-06T09:16:15Z</time>
      </trkpt>
      <trkpt lat="47.00455" lon="-1.58553">
        <ele>19.48</ele>
        <time>2020-06-06T09:16:17Z</time>
      </trkpt>
      <trkpt lat="47.00463" lon="-1.58541">
        <ele>19.68</ele>
        <time>2020-06-06T09:16:19Z</time>
      </trkpt>
      <trkpt lat="47.00472" lon="-1.58528">
        <ele>19.65</ele>
        <time>2020-06-06T09:16:21Z</time>
      </trkpt>
      <trkpt lat="47.00483" lon="-1.58515">
        <ele>19.75</ele>
        <time>2020-06-06T09:16:23Z</time>
      </trkpt>
      <trkpt lat="47.00492" lon="-1.58503">
        <ele>20.21</ele>
        <time>2020-06-06T09:16:25Z</time>
      </trkpt>
      <trkpt lat="47.00501" lon="-1.58493">
        <ele>20.13</ele>
        <time>2020-06-06T09:16:27Z</time>
      </trkpt>
      <trkpt lat="47.00511" lon="-1.58482">
        <ele>20.55</ele>
        <time>2020-06-06T09:16:29Z</time>
      </trkpt>
      <trkpt lat="47.0052" lon="-1.58473">
        <ele>20.64</ele>
        <time>2020-06-06T09:16:30Z</time>
      </trkpt>
      <trkpt lat="47.00532" lon="-1.58461">
        <ele>20.73</ele>
        <time>2020-06-06T09:16:32Z</time>
      </trkpt>
      <trkpt lat="47.00542" lon="-1.58452">
        <ele>20.56</ele>
        <time>2020-06-06T09:16:34Z</time>
      </trkpt>
      <trkpt lat="47.00552" lon="-1.58442">
        <ele>20.78</ele>
        <time>2020-06-06T09:16:36Z</time>
      </trkpt>
      <trkpt lat="47.00562" lon="-1.58432">
        <ele>20.99</ele>
        <time>2020-06-06T09:16:38Z</time>
      </trkpt>
      <trkpt lat="47.00574" lon="-1.58422">
        <ele>21.36</ele>
        <time>2020-06-06T09:16:40Z</time>
      </trkpt>
      <trkpt lat="47.00587" lon="-1.58413">
        <ele>22.46</ele>
        <time>2020-06-06T09:16:42Z</time>
      </trkpt>
      <trkpt lat="47.00598" lon="-1.58404">
        <ele>22.83</ele>
        <time>2020-06-06T09:16:44Z</time>
      </trkpt>
      <trkpt lat="47.0061" lon="-1.58398">
        <ele>22.97</ele>
        <time>2020-06-06T09:16:46Z</time>
      </trkpt>
      <trkpt lat="47.00621" lon="-1.58393">
        <ele>22.95</ele>
        <time>2020-06-06T09:16:48Z</time>
      </trkpt>
      <trkpt lat="47.00635" lon="-1.58387">
        <ele>23.31</ele>
        <time>2020-06-06T09:16:50Z</time>
      </trkpt>
      <trkpt lat="47.00648" lon="-1.58383">
        <ele>22.79</ele>
        <time>2020-06-06T09:16:52Z</time>
      </trkpt>
      <trkpt lat="47.00661" lon="-1.58379">
        <ele>21.83</ele>
        <time>2020-06-06T09:16:54Z</time>
      </trkpt>
      <trkpt lat="47.00675" lon="-1.58375">
        <ele>21.29</ele>
        <time>2020-06-06T09:16:56Z</time>
      </trkpt>
      <trkpt lat="47.00689" lon="-1.58372">
        <ele>20.98</ele>
        <time>2020-06-06T09:16:58Z</time>
      </trkpt>
      <trkpt lat="47.00702" lon="-1.5837">
        <ele>21.14</ele>
        <time>2020-06-06T09:17:00Z</time>
      </trkpt>
      <trkpt lat="47.00714" lon="-1.58369">
        <ele>21.04</ele>
        <time>2020-06-06T09:17:02Z</time>
      </trkpt>
      <trkpt lat="47.00728" lon="-1.58367">
        <ele>20.29</ele>
        <time>2020-06-06T09:17:04Z</time>
      </trkpt>
      <trkpt lat="47.00741" lon="-1.58365">
        <ele>20.34</ele>
        <time>2020-06-06T09:17:06Z</time>
      </trkpt>
      <trkpt lat="47.00753" lon="-1.58363">
        <ele>21.4</ele>
        <time>2020-06-06T09:17:08Z</time>
      </trkpt>
      <trkpt lat="47.00767" lon="-1.5836">
        <ele>22.8</ele>
        <time>2020-06-06T09:17:10Z</time>
      </trkpt>
      <trkpt lat="47.0078" lon="-1.58356">
        <ele>24.08</ele>
        <time>2020-06-06T09:17:12Z</time>
      </trkpt>
      <trkpt lat="47.00791" lon="-1.58351">
        <ele>24.79</ele>
        <time>2020-06-06T09:17:14Z</time>
      </trkpt>
      <trkpt lat="47.00804" lon="-1.58346">
        <ele>23.72</ele>
        <time>2020-06-06T09:17:16Z</time>
      </trkpt>
      <trkpt lat="47.00817" lon="-1.5834">
        <ele>23.52</ele>
        <time>2020-06-06T09:17:18Z</time>
      </trkpt>
      <trkpt lat="47.00831" lon="-1.58335">
        <ele>23.17</ele>
        <time>2020-06-06T09:17:20Z</time>
      </trkpt>
      <trkpt lat="47.00844" lon="-1.5833">
        <ele>22.99</ele>
        <time>2020-06-06T09:17:22Z</time>
      </trkpt>
      <trkpt lat="47.00857" lon="-1.58325">
        <ele>22.34</ele>
        <time>2020-06-06T09:17:24Z</time>
      </trkpt>
      <trkpt lat="47.00869" lon="-1.5832">
        <ele>22.08</ele>
        <time>2020-06-06T09:17:26Z</time>
      </trkpt>
      <trkpt lat="47.00878" lon="-1.58313">
        <ele>22.25</ele>
        <time>2020-06-06T09:17:28Z</time>
      </trkpt>
      <trkpt lat="47.0089" lon="-1.58308">
        <ele>22.41</ele>
        <time>2020-06-06T09:17:31Z</time>
      </trkpt>
      <trkpt lat="47.00903" lon="-1.58305">
        <ele>22.19</ele>
        <time>2020-06-06T09:17:33Z</time>
      </trkpt>
      <trkpt lat="47.00916" lon="-1.58301">
        <ele>21.44</ele>
        <time>2020-06-06T09:17:35Z</time>
      </trkpt>
      <trkpt lat="47.00931" lon="-1.58296">
        <ele>21.49</ele>
        <time>2020-06-06T09:17:37Z</time>
      </trkpt>
      <trkpt lat="47.00944" lon="-1.58298">
        <ele>21.38</ele>
        <time>2020-06-06T09:17:39Z</time>
      </trkpt>
      <trkpt lat="47.00956" lon="-1.58309">
        <ele>21.05</ele>
        <time>2020-06-06T09:17:41Z</time>
      </trkpt>
      <trkpt lat="47.00967" lon="-1.58323">
        <ele>21.09</ele>
        <time>2020-06-06T09:17:43Z</time>
      </trkpt>
      <trkpt lat="47.00975" lon="-1.58337">
        <ele>22.28</ele>
        <time>2020-06-06T09:17:45Z</time>
      </trkpt>
      <trkpt lat="47.00984" lon="-1.58347">
        <ele>22.07</ele>
        <time>2020-06-06T09:17:47Z</time>
      </trkpt>
      <trkpt lat="47.00994" lon="-1.58344">
        <ele>21.28</ele>
        <time>2020-06-06T09:17:49Z</time>
      </trkpt>
      <trkpt lat="47.0101" lon="-1.58333">
        <ele>20.84</ele>
        <time>2020-06-06T09:17:51Z</time>
      </trkpt>
      <trkpt lat="47.0102" lon="-1.58328">
        <ele>21.34</ele>
        <time>2020-06-06T09:17:52Z</time>
      </trkpt>
      <trkpt lat="47.0103" lon="-1.58315">
        <ele>22.13</ele>
        <time>2020-06-06T09:17:54Z</time>
      </trkpt>
      <trkpt lat="47.01043" lon="-1.58302">
        <ele>22.11</ele>
        <time>2020-06-06T09:17:56Z</time>
      </trkpt>
      <trkpt lat="47.01055" lon="-1.58289">
        <ele>22.05</ele>
        <time>2020-06-06T09:17:58Z</time>
      </trkpt>
      <trkpt lat="47.01066" lon="-1.58278">
        <ele>21.51</ele>
        <time>2020-06-06T09:18:00Z</time>
      </trkpt>
      <trkpt lat="47.01078" lon="-1.58267">
        <ele>20.93</ele>
        <time>2020-06-06T09:18:02Z</time>
      </trkpt>
      <trkpt lat="47.01091" lon="-1.58254">
        <ele>19.64</ele>
        <time>2020-06-06T09:18:04Z</time>
      </trkpt>
      <trkpt lat="47.01102" lon="-1.58244">
        <ele>18.95</ele>
        <time>2020-06-06T09:18:06Z</time>
      </trkpt>
      <trkpt lat="47.01115" lon="-1.58233">
        <ele>19.14</ele>
        <time>2020-06-06T09:18:08Z</time>
      </trkpt>
      <trkpt lat="47.01127" lon="-1.58224">
        <ele>20.03</ele>
        <time>2020-06-06T09:18:10Z</time>
      </trkpt>
      <trkpt lat="47.01138" lon="-1.58216">
        <ele>19.78</ele>
        <time>2020-06-06T09:18:12Z</time>
      </trkpt>
      <trkpt lat="47.01153" lon="-1.58206">
        <ele>19.63</ele>
        <time>2020-06-06T09:18:14Z</time>
      </trkpt>
      <trkpt lat="47.01165" lon="-1.58198">
        <ele>19.99</ele>
        <time>2020-06-06T09:18:16Z</time>
      </trkpt>
      <trkpt lat="47.01177" lon="-1.58186">
        <ele>19.97</ele>
        <time>2020-06-06T09:18:18Z</time>
      </trkpt>
      <trkpt lat="47.01186" lon="-1.58171">
        <ele>20.5</ele>
        <time>2020-06-06T09:18:20Z</time>
      </trkpt>
      <trkpt lat="47.0119" lon="-1.58152">
        <ele>21.06</ele>
        <time>2020-06-06T09:18:22Z</time>
      </trkpt>
      <trkpt lat="47.01192" lon="-1.58129">
        <ele>21.53</ele>
        <time>2020-06-06T09:18:24Z</time>
      </trkpt>
      <trkpt lat="47.01192" lon="-1.58106">
        <ele>21.37</ele>
        <time>2020-06-06T09:18:26Z</time>
      </trkpt>
      <trkpt lat="47.01191" lon="-1.58087">
        <ele>22.64</ele>
        <time>2020-06-06T09:18:28Z</time>
      </trkpt>
      <trkpt lat="47.01191" lon="-1.58066">
        <ele>23.79</ele>
        <time>2020-06-06T09:18:30Z</time>
      </trkpt>
      <trkpt lat="47.0119" lon="-1.58045">
        <ele>24.25</ele>
        <time>2020-06-06T09:18:32Z</time>
      </trkpt>
      <trkpt lat="47.0119" lon="-1.58023">
        <ele>24.29</ele>
        <time>2020-06-06T09:18:34Z</time>
      </trkpt>
      <trkpt lat="47.01192" lon="-1.58006">
        <ele>24.63</ele>
        <time>2020-06-06T09:18:36Z</time>
      </trkpt>
      <trkpt lat="47.01195" lon="-1.57986">
        <ele>24.5</ele>
        <time>2020-06-06T09:18:38Z</time>
      </trkpt>
      <trkpt lat="47.01199" lon="-1.57966">
        <ele>24.15</ele>
        <time>2020-06-06T09:18:40Z</time>
      </trkpt>
      <trkpt lat="47.01203" lon="-1.57946">
        <ele>24.4</ele>
        <time>2020-06-06T09:18:42Z</time>
      </trkpt>
      <trkpt lat="47.01206" lon="-1.57928">
        <ele>25.04</ele>
        <time>2020-06-06T09:18:44Z</time>
      </trkpt>
      <trkpt lat="47.0121" lon="-1.57908">
        <ele>25.61</ele>
        <time>2020-06-06T09:18:46Z</time>
      </trkpt>
      <trkpt lat="47.01214" lon="-1.57889">
        <ele>25.75</ele>
        <time>2020-06-06T09:18:48Z</time>
      </trkpt>
      <trkpt lat="47.01219" lon="-1.5787">
        <ele>26.43</ele>
        <time>2020-06-06T09:18:50Z</time>
      </trkpt>
      <trkpt lat="47.01224" lon="-1.57849">
        <ele>26.82</ele>
        <time>2020-06-06T09:18:52Z</time>
      </trkpt>
      <trkpt lat="47.01228" lon="-1.5783">
        <ele>27.1</ele>
        <time>2020-06-06T09:18:54Z</time>
      </trkpt>
      <trkpt lat="47.01232" lon="-1.57812">
        <ele>26.96</ele>
        <time>2020-06-06T09:18:56Z</time>
      </trkpt>
      <trkpt lat="47.01236" lon="-1.57794">
        <ele>26.75</ele>
        <time>2020-06-06T09:18:58Z</time>
      </trkpt>
      <trkpt lat="47.01239" lon="-1.57776">
        <ele>26.29</ele>
        <time>2020-06-06T09:19:00Z</time>
      </trkpt>
      <trkpt lat="47.01243" lon="-1.57757">
        <ele>26.25</ele>
        <time>2020-06-06T09:19:02Z</time>
      </trkpt>
      <trkpt lat="47.01248" lon="-1.57736">
        <ele>26.17</ele>
        <time>2020-06-06T09:19:04Z</time>
      </trkpt>
      <trkpt lat="47.01252" lon="-1.57716">
        <ele>26.8</ele>
        <time>2020-06-06T09:19:06Z</time>
      </trkpt>
      <trkpt lat="47.01256" lon="-1.57697">
        <ele>27.63</ele>
        <time>2020-06-06T09:19:08Z</time>
      </trkpt>
      <trkpt lat="47.01259" lon="-1.57677">
        <ele>28.65</ele>
        <time>2020-06-06T09:19:10Z</time>
      </trkpt>
      <trkpt lat="47.01263" lon="-1.57657">
        <ele>29.18</ele>
        <time>2020-06-06T09:19:12Z</time>
      </trkpt>
      <trkpt lat="47.01266" lon="-1.57638">
        <ele>29.71</ele>
        <time>2020-06-06T09:19:14Z</time>
      </trkpt>
      <trkpt lat="47.01269" lon="-1.57619">
        <ele>30.46</ele>
        <time>2020-06-06T09:19:16Z</time>
      </trkpt>
      <trkpt lat="47.01272" lon="-1.57598">
        <ele>30.54</ele>
        <time>2020-06-06T09:19:18Z</time>
      </trkpt>
      <trkpt lat="47.01276" lon="-1.57576">
        <ele>30.46</ele>
        <time>2020-06-06T09:19:20Z</time>
      </trkpt>
      <trkpt lat="47.01279" lon="-1.57555">
        <ele>30.98</ele>
        <time>2020-06-06T09:19:22Z</time>
      </trkpt>
      <trkpt lat="47.01284" lon="-1.57533">
        <ele>31.01</ele>
        <time>2020-06-06T09:19:24Z</time>
      </trkpt>
      <trkpt lat="47.01287" lon="-1.5751">
        <ele>30.25</ele>
        <time>2020-06-06T09:19:26Z</time>
      </trkpt>
      <trkpt lat="47.01291" lon="-1.57488">
        <ele>29.87</ele>
        <time>2020-06-06T09:19:28Z</time>
      </trkpt>
      <trkpt lat="47.01294" lon="-1.57467">
        <ele>29.37</ele>
        <time>2020-06-06T09:19:30Z</time>
      </trkpt>
      <trkpt lat="47.01298" lon="-1.57443">
        <ele>28.57</ele>
        <time>2020-06-06T09:19:32Z</time>
      </trkpt>
      <trkpt lat="47.01302" lon="-1.5742">
        <ele>28.43</ele>
        <time>2020-06-06T09:19:34Z</time>
      </trkpt>
      <trkpt lat="47.01306" lon="-1.57397">
        <ele>28.62</ele>
        <time>2020-06-06T09:19:36Z</time>
      </trkpt>
      <trkpt lat="47.0131" lon="-1.57376">
        <ele>28.19</ele>
        <time>2020-06-06T09:19:38Z</time>
      </trkpt>
      <trkpt lat="47.01314" lon="-1.57351">
        <ele>27.44</ele>
        <time>2020-06-06T09:19:40Z</time>
      </trkpt>
      <trkpt lat="47.01318" lon="-1.57329">
        <ele>26.68</ele>
        <time>2020-06-06T09:19:42Z</time>
      </trkpt>
      <trkpt lat="47.01322" lon="-1.57305">
        <ele>26.46</ele>
        <time>2020-06-06T09:19:44Z</time>
      </trkpt>
      <trkpt lat="47.01326" lon="-1.57283">
        <ele>26.57</ele>
        <time>2020-06-06T09:19:46Z</time>
      </trkpt>
      <trkpt lat="47.01331" lon="-1.57263">
        <ele>25.76</ele>
        <time>2020-06-06T09:19:48Z</time>
      </trkpt>
      <trkpt lat="47.01336" lon="-1.57238">
        <ele>25.13</ele>
        <time>2020-06-06T09:19:50Z</time>
      </trkpt>
      <trkpt lat="47.01341" lon="-1.57216">
        <ele>24.74</ele>
        <time>2020-06-06T09:19:52Z</time>
      </trkpt>
      <trkpt lat="47.01346" lon="-1.57194">
        <ele>24.06</ele>
        <time>2020-06-06T09:19:54Z</time>
      </trkpt>
      <trkpt lat="47.01352" lon="-1.57171">
        <ele>23.23</ele>
        <time>2020-06-06T09:19:56Z</time>
      </trkpt>
      <trkpt lat="47.01359" lon="-1.57148">
        <ele>23.03</ele>
        <time>2020-06-06T09:19:58Z</time>
      </trkpt>
      <trkpt lat="47.01364" lon="-1.57128">
        <ele>22.98</ele>
        <time>2020-06-06T09:20:00Z</time>
      </trkpt>
      <trkpt lat="47.01368" lon="-1.5711">
        <ele>23.68</ele>
        <time>2020-06-06T09:20:02Z</time>
      </trkpt>
      <trkpt lat="47.01374" lon="-1.57089">
        <ele>24.33</ele>
        <time>2020-06-06T09:20:04Z</time>
      </trkpt>
      <trkpt lat="47.01379" lon="-1.57071">
        <ele>24.28</ele>
        <time>2020-06-06T09:20:06Z</time>
      </trkpt>
      <trkpt lat="47.01384" lon="-1.57052">
        <ele>23.9</ele>
        <time>2020-06-06T09:20:08Z</time>
      </trkpt>
      <trkpt lat="47.01386" lon="-1.57038">
        <ele>23.57</ele>
        <time>2020-06-06T09:20:11Z</time>
      </trkpt>
      <trkpt lat="47.01396" lon="-1.57026">
        <ele>22.63</ele>
        <time>2020-06-06T09:20:15Z</time>
      </trkpt>
      <trkpt lat="47.01408" lon="-1.57021">
        <ele>22.01</ele>
        <time>2020-06-06T09:20:17Z</time>
      </trkpt>
      <trkpt lat="47.01423" lon="-1.57019">
        <ele>22.15</ele>
        <time>2020-06-06T09:20:19Z</time>
      </trkpt>
      <trkpt lat="47.01439" lon="-1.57015">
        <ele>22.24</ele>
        <time>2020-06-06T09:20:21Z</time>
      </trkpt>
      <trkpt lat="47.01454" lon="-1.57011">
        <ele>21.81</ele>
        <time>2020-06-06T09:20:23Z</time>
      </trkpt>
      <trkpt lat="47.01468" lon="-1.57005">
        <ele>21.6</ele>
        <time>2020-06-06T09:20:25Z</time>
      </trkpt>
      <trkpt lat="47.01482" lon="-1.56998">
        <ele>21.61</ele>
        <time>2020-06-06T09:20:27Z</time>
      </trkpt>
      <trkpt lat="47.01496" lon="-1.5699">
        <ele>21.8</ele>
        <time>2020-06-06T09:20:29Z</time>
      </trkpt>
      <trkpt lat="47.01509" lon="-1.56976">
        <ele>21.33</ele>
        <time>2020-06-06T09:20:31Z</time>
      </trkpt>
      <trkpt lat="47.01523" lon="-1.56959">
        <ele>20.23</ele>
        <time>2020-06-06T09:20:33Z</time>
      </trkpt>
      <trkpt lat="47.01536" lon="-1.56943">
        <ele>18.77</ele>
        <time>2020-06-06T09:20:35Z</time>
      </trkpt>
      <trkpt lat="47.01548" lon="-1.56927">
        <ele>18.01</ele>
        <time>2020-06-06T09:20:37Z</time>
      </trkpt>
      <trkpt lat="47.01555" lon="-1.56919">
        <ele>17.53</ele>
        <time>2020-06-06T09:20:38Z</time>
      </trkpt>
      <trkpt lat="47.01562" lon="-1.5691">
        <ele>17.08</ele>
        <time>2020-06-06T09:20:39Z</time>
      </trkpt>
      <trkpt lat="47.01571" lon="-1.569">
        <ele>16.52</ele>
        <time>2020-06-06T09:20:40Z</time>
      </trkpt>
      <trkpt lat="47.01584" lon="-1.56884">
        <ele>15.62</ele>
        <time>2020-06-06T09:20:42Z</time>
      </trkpt>
      <trkpt lat="47.01596" lon="-1.56869">
        <ele>14.99</ele>
        <time>2020-06-06T09:20:44Z</time>
      </trkpt>
      <trkpt lat="47.01609" lon="-1.56853">
        <ele>14.21</ele>
        <time>2020-06-06T09:20:46Z</time>
      </trkpt>
      <trkpt lat="47.01616" lon="-1.56844">
        <ele>13.79</ele>
        <time>2020-06-06T09:20:47Z</time>
      </trkpt>
      <trkpt lat="47.0163" lon="-1.5683">
        <ele>13.98</ele>
        <time>2020-06-06T09:20:49Z</time>
      </trkpt>
      <trkpt lat="47.01637" lon="-1.56821">
        <ele>13.83</ele>
        <time>2020-06-06T09:20:50Z</time>
      </trkpt>
      <trkpt lat="47.01649" lon="-1.56808">
        <ele>12.29</ele>
        <time>2020-06-06T09:20:52Z</time>
      </trkpt>
      <trkpt lat="47.01661" lon="-1.56795">
        <ele>11.22</ele>
        <time>2020-06-06T09:20:54Z</time>
      </trkpt>
      <trkpt lat="47.01674" lon="-1.5678">
        <ele>10.82</ele>
        <time>2020-06-06T09:20:56Z</time>
      </trkpt>
      <trkpt lat="47.01687" lon="-1.56764">
        <ele>11.19</ele>
        <time>2020-06-06T09:20:58Z</time>
      </trkpt>
      <trkpt lat="47.01698" lon="-1.56751">
        <ele>11.28</ele>
        <time>2020-06-06T09:21:00Z</time>
      </trkpt>
      <trkpt lat="47.0171" lon="-1.56737">
        <ele>11.37</ele>
        <time>2020-06-06T09:21:02Z</time>
      </trkpt>
      <trkpt lat="47.01723" lon="-1.56722">
        <ele>11.66</ele>
        <time>2020-06-06T09:21:04Z</time>
      </trkpt>
      <trkpt lat="47.01736" lon="-1.56706">
        <ele>11.57</ele>
        <time>2020-06-06T09:21:06Z</time>
      </trkpt>
      <trkpt lat="47.01747" lon="-1.56693">
        <ele>11.05</ele>
        <time>2020-06-06T09:21:08Z</time>
      </trkpt>
      <trkpt lat="47.01759" lon="-1.56679">
        <ele>10.67</ele>
        <time>2020-06-06T09:21:10Z</time>
      </trkpt>
      <trkpt lat="47.01768" lon="-1.56661">
        <ele>10.85</ele>
        <time>2020-06-06T09:21:12Z</time>
      </trkpt>
      <trkpt lat="47.0177" lon="-1.56639">
        <ele>11.24</ele>
        <time>2020-06-06T09:21:14Z</time>
      </trkpt>
      <trkpt lat="47.01774" lon="-1.56616">
        <ele>12.01</ele>
        <time>2020-06-06T09:21:16Z</time>
      </trkpt>
      <trkpt lat="47.01777" lon="-1.56596">
        <ele>13.42</ele>
        <time>2020-06-06T09:21:18Z</time>
      </trkpt>
      <trkpt lat="47.01783" lon="-1.56572">
        <ele>13.89</ele>
        <time>2020-06-06T09:21:20Z</time>
      </trkpt>
      <trkpt lat="47.01788" lon="-1.56549">
        <ele>14.67</ele>
        <time>2020-06-06T09:21:22Z</time>
      </trkpt>
      <trkpt lat="47.01793" lon="-1.56528">
        <ele>15.69</ele>
        <time>2020-06-06T09:21:24Z</time>
      </trkpt>
      <trkpt lat="47.01797" lon="-1.56506">
        <ele>16.31</ele>
        <time>2020-06-06T09:21:26Z</time>
      </trkpt>
      <trkpt lat="47.01801" lon="-1.56484">
        <ele>15.91</ele>
        <time>2020-06-06T09:21:28Z</time>
      </trkpt>
      <trkpt lat="47.01806" lon="-1.56462">
        <ele>16.05</ele>
        <time>2020-06-06T09:21:30Z</time>
      </trkpt>
      <trkpt lat="47.0181" lon="-1.56443">
        <ele>16.35</ele>
        <time>2020-06-06T09:21:32Z</time>
      </trkpt>
      <trkpt lat="47.01813" lon="-1.56424">
        <ele>16.55</ele>
        <time>2020-06-06T09:21:34Z</time>
      </trkpt>
      <trkpt lat="47.01817" lon="-1.56405">
        <ele>16.31</ele>
        <time>2020-06-06T09:21:36Z</time>
      </trkpt>
      <trkpt lat="47.01821" lon="-1.56386">
        <ele>15.91</ele>
        <time>2020-06-06T09:21:38Z</time>
      </trkpt>
      <trkpt lat="47.01825" lon="-1.56368">
        <ele>15.26</ele>
        <time>2020-06-06T09:21:40Z</time>
      </trkpt>
      <trkpt lat="47.0183" lon="-1.56348">
        <ele>14.39</ele>
        <time>2020-06-06T09:21:42Z</time>
      </trkpt>
      <trkpt lat="47.01834" lon="-1.56328">
        <ele>14.12</ele>
        <time>2020-06-06T09:21:44Z</time>
      </trkpt>
      <trkpt lat="47.01839" lon="-1.56308">
        <ele>14.13</ele>
        <time>2020-06-06T09:21:46Z</time>
      </trkpt>
      <trkpt lat="47.01842" lon="-1.56292">
        <ele>14.51</ele>
        <time>2020-06-06T09:21:48Z</time>
      </trkpt>
      <trkpt lat="47.01847" lon="-1.56273">
        <ele>14.87</ele>
        <time>2020-06-06T09:21:50Z</time>
      </trkpt>
      <trkpt lat="47.01851" lon="-1.56255">
        <ele>15.34</ele>
        <time>2020-06-06T09:21:52Z</time>
      </trkpt>
      <trkpt lat="47.01855" lon="-1.56237">
        <ele>15.97</ele>
        <time>2020-06-06T09:21:54Z</time>
      </trkpt>
      <trkpt lat="47.01859" lon="-1.56216">
        <ele>16.83</ele>
        <time>2020-06-06T09:21:56Z</time>
      </trkpt>
      <trkpt lat="47.01864" lon="-1.56198">
        <ele>17.5</ele>
        <time>2020-06-06T09:21:58Z</time>
      </trkpt>
      <trkpt lat="47.01868" lon="-1.5618">
        <ele>17.84</ele>
        <time>2020-06-06T09:22:00Z</time>
      </trkpt>
      <trkpt lat="47.01872" lon="-1.56163">
        <ele>18.23</ele>
        <time>2020-06-06T09:22:02Z</time>
      </trkpt>
      <trkpt lat="47.01877" lon="-1.56144">
        <ele>18.86</ele>
        <time>2020-06-06T09:22:04Z</time>
      </trkpt>
      <trkpt lat="47.01882" lon="-1.56124">
        <ele>18.08</ele>
        <time>2020-06-06T09:22:06Z</time>
      </trkpt>
      <trkpt lat="47.01886" lon="-1.56106">
        <ele>17.5</ele>
        <time>2020-06-06T09:22:08Z</time>
      </trkpt>
      <trkpt lat="47.01891" lon="-1.56089">
        <ele>17.54</ele>
        <time>2020-06-06T09:22:10Z</time>
      </trkpt>
      <trkpt lat="47.01898" lon="-1.56072">
        <ele>16.97</ele>
        <time>2020-06-06T09:22:12Z</time>
      </trkpt>
      <trkpt lat="47.01906" lon="-1.56056">
        <ele>17.63</ele>
        <time>2020-06-06T09:22:14Z</time>
      </trkpt>
      <trkpt lat="47.01914" lon="-1.5604">
        <ele>18.49</ele>
        <time>2020-06-06T09:22:16Z</time>
      </trkpt>
      <trkpt lat="47.01921" lon="-1.56026">
        <ele>18.84</ele>
        <time>2020-06-06T09:22:18Z</time>
      </trkpt>
      <trkpt lat="47.01932" lon="-1.5601">
        <ele>19.77</ele>
        <time>2020-06-06T09:22:20Z</time>
      </trkpt>
      <trkpt lat="47.01942" lon="-1.55997">
        <ele>20.65</ele>
        <time>2020-06-06T09:22:22Z</time>
      </trkpt>
      <trkpt lat="47.01952" lon="-1.55985">
        <ele>20.69</ele>
        <time>2020-06-06T09:22:24Z</time>
      </trkpt>
      <trkpt lat="47.01964" lon="-1.55975">
        <ele>19.77</ele>
        <time>2020-06-06T09:22:26Z</time>
      </trkpt>
      <trkpt lat="47.01977" lon="-1.55963">
        <ele>19.05</ele>
        <time>2020-06-06T09:22:28Z</time>
      </trkpt>
      <trkpt lat="47.0199" lon="-1.55953">
        <ele>18.86</ele>
        <time>2020-06-06T09:22:30Z</time>
      </trkpt>
      <trkpt lat="47.02002" lon="-1.55944">
        <ele>18.51</ele>
        <time>2020-06-06T09:22:32Z</time>
      </trkpt>
      <trkpt lat="47.02015" lon="-1.55934">
        <ele>17.24</ele>
        <time>2020-06-06T09:22:34Z</time>
      </trkpt>
      <trkpt lat="47.02029" lon="-1.55924">
        <ele>16.22</ele>
        <time>2020-06-06T09:22:36Z</time>
      </trkpt>
      <trkpt lat="47.02042" lon="-1.55915">
        <ele>15.59</ele>
        <time>2020-06-06T09:22:38Z</time>
      </trkpt>
      <trkpt lat="47.02054" lon="-1.55905">
        <ele>15.41</ele>
        <time>2020-06-06T09:22:40Z</time>
      </trkpt>
      <trkpt lat="47.02067" lon="-1.55896">
        <ele>15.62</ele>
        <time>2020-06-06T09:22:42Z</time>
      </trkpt>
      <trkpt lat="47.0208" lon="-1.55887">
        <ele>15.89</ele>
        <time>2020-06-06T09:22:44Z</time>
      </trkpt>
      <trkpt lat="47.02092" lon="-1.55879">
        <ele>16.44</ele>
        <time>2020-06-06T09:22:46Z</time>
      </trkpt>
      <trkpt lat="47.02104" lon="-1.5587">
        <ele>17.43</ele>
        <time>2020-06-06T09:22:48Z</time>
      </trkpt>
      <trkpt lat="47.02118" lon="-1.55859">
        <ele>18.22</ele>
        <time>2020-06-06T09:22:50Z</time>
      </trkpt>
      <trkpt lat="47.0213" lon="-1.5585">
        <ele>19.4</ele>
        <time>2020-06-06T09:22:52Z</time>
      </trkpt>
      <trkpt lat="47.02142" lon="-1.55841">
        <ele>19.67</ele>
        <time>2020-06-06T09:22:54Z</time>
      </trkpt>
      <trkpt lat="47.02156" lon="-1.55831">
        <ele>19.73</ele>
        <time>2020-06-06T09:22:56Z</time>
      </trkpt>
      <trkpt lat="47.02169" lon="-1.55821">
        <ele>20.4</ele>
        <time>2020-06-06T09:22:58Z</time>
      </trkpt>
      <trkpt lat="47.02182" lon="-1.55812">
        <ele>20.21</ele>
        <time>2020-06-06T09:23:00Z</time>
      </trkpt>
      <trkpt lat="47.02196" lon="-1.55802">
        <ele>19.11</ele>
        <time>2020-06-06T09:23:02Z</time>
      </trkpt>
      <trkpt lat="47.02208" lon="-1.55793">
        <ele>18.84</ele>
        <time>2020-06-06T09:23:04Z</time>
      </trkpt>
      <trkpt lat="47.0222" lon="-1.55783">
        <ele>19.02</ele>
        <time>2020-06-06T09:23:06Z</time>
      </trkpt>
      <trkpt lat="47.02232" lon="-1.55774">
        <ele>19.33</ele>
        <time>2020-06-06T09:23:08Z</time>
      </trkpt>
      <trkpt lat="47.02246" lon="-1.55763">
        <ele>20.13</ele>
        <time>2020-06-06T09:23:10Z</time>
      </trkpt>
      <trkpt lat="47.0226" lon="-1.55752">
        <ele>20.65</ele>
        <time>2020-06-06T09:23:12Z</time>
      </trkpt>
      <trkpt lat="47.02272" lon="-1.55743">
        <ele>20.68</ele>
        <time>2020-06-06T09:23:14Z</time>
      </trkpt>
      <trkpt lat="47.02285" lon="-1.55734">
        <ele>20.54</ele>
        <time>2020-06-06T09:23:16Z</time>
      </trkpt>
      <trkpt lat="47.02297" lon="-1.55726">
        <ele>20.65</ele>
        <time>2020-06-06T09:23:18Z</time>
      </trkpt>
      <trkpt lat="47.02312" lon="-1.55715">
        <ele>20.59</ele>
        <time>2020-06-06T09:23:20Z</time>
      </trkpt>
      <trkpt lat="47.02326" lon="-1.55703">
        <ele>20.18</ele>
        <time>2020-06-06T09:23:22Z</time>
      </trkpt>
      <trkpt lat="47.02339" lon="-1.55694">
        <ele>19.71</ele>
        <time>2020-06-06T09:23:24Z</time>
      </trkpt>
      <trkpt lat="47.02349" lon="-1.55686">
        <ele>19.73</ele>
        <time>2020-06-06T09:23:26Z</time>
      </trkpt>
      <trkpt lat="47.02363" lon="-1.55675">
        <ele>19.96</ele>
        <time>2020-06-06T09:23:28Z</time>
      </trkpt>
      <trkpt lat="47.02376" lon="-1.55666">
        <ele>20.41</ele>
        <time>2020-06-06T09:23:30Z</time>
      </trkpt>
      <trkpt lat="47.02391" lon="-1.55655">
        <ele>20.65</ele>
        <time>2020-06-06T09:23:32Z</time>
      </trkpt>
      <trkpt lat="47.02404" lon="-1.55645">
        <ele>20.6</ele>
        <time>2020-06-06T09:23:34Z</time>
      </trkpt>
      <trkpt lat="47.02418" lon="-1.55635">
        <ele>20.7</ele>
        <time>2020-06-06T09:23:36Z</time>
      </trkpt>
      <trkpt lat="47.02431" lon="-1.55625">
        <ele>20.56</ele>
        <time>2020-06-06T09:23:38Z</time>
      </trkpt>
      <trkpt lat="47.02443" lon="-1.55615">
        <ele>19.94</ele>
        <time>2020-06-06T09:23:40Z</time>
      </trkpt>
      <trkpt lat="47.02455" lon="-1.55604">
        <ele>18.8</ele>
        <time>2020-06-06T09:23:42Z</time>
      </trkpt>
      <trkpt lat="47.02467" lon="-1.55592">
        <ele>17.99</ele>
        <time>2020-06-06T09:23:44Z</time>
      </trkpt>
      <trkpt lat="47.02478" lon="-1.55581">
        <ele>18.35</ele>
        <time>2020-06-06T09:23:46Z</time>
      </trkpt>
      <trkpt lat="47.02491" lon="-1.55566">
        <ele>18.88</ele>
        <time>2020-06-06T09:23:48Z</time>
      </trkpt>
      <trkpt lat="47.02503" lon="-1.5555">
        <ele>19.23</ele>
        <time>2020-06-06T09:23:50Z</time>
      </trkpt>
      <trkpt lat="47.02515" lon="-1.55534">
        <ele>19.54</ele>
        <time>2020-06-06T09:23:52Z</time>
      </trkpt>
      <trkpt lat="47.02525" lon="-1.5552">
        <ele>20.22</ele>
        <time>2020-06-06T09:23:54Z</time>
      </trkpt>
      <trkpt lat="47.02536" lon="-1.55505">
        <ele>20.72</ele>
        <time>2020-06-06T09:23:56Z</time>
      </trkpt>
      <trkpt lat="47.02546" lon="-1.5549">
        <ele>20.64</ele>
        <time>2020-06-06T09:23:58Z</time>
      </trkpt>
      <trkpt lat="47.02557" lon="-1.55476">
        <ele>20.16</ele>
        <time>2020-06-06T09:24:00Z</time>
      </trkpt>
      <trkpt lat="47.02567" lon="-1.55462">
        <ele>19.68</ele>
        <time>2020-06-06T09:24:02Z</time>
      </trkpt>
      <trkpt lat="47.02578" lon="-1.5545">
        <ele>19.16</ele>
        <time>2020-06-06T09:24:04Z</time>
      </trkpt>
      <trkpt lat="47.02589" lon="-1.55438">
        <ele>18.63</ele>
        <time>2020-06-06T09:24:06Z</time>
      </trkpt>
      <trkpt lat="47.02601" lon="-1.55427">
        <ele>19.01</ele>
        <time>2020-06-06T09:24:08Z</time>
      </trkpt>
      <trkpt lat="47.02615" lon="-1.55415">
        <ele>19.01</ele>
        <time>2020-06-06T09:24:10Z</time>
      </trkpt>
      <trkpt lat="47.02628" lon="-1.55406">
        <ele>18.8</ele>
        <time>2020-06-06T09:24:12Z</time>
      </trkpt>
      <trkpt lat="47.02641" lon="-1.55396">
        <ele>19.22</ele>
        <time>2020-06-06T09:24:14Z</time>
      </trkpt>
      <trkpt lat="47.02655" lon="-1.55385">
        <ele>20.32</ele>
        <time>2020-06-06T09:24:16Z</time>
      </trkpt>
      <trkpt lat="47.02668" lon="-1.55376">
        <ele>20.67</ele>
        <time>2020-06-06T09:24:18Z</time>
      </trkpt>
      <trkpt lat="47.02679" lon="-1.55368">
        <ele>20.94</ele>
        <time>2020-06-06T09:24:20Z</time>
      </trkpt>
      <trkpt lat="47.02693" lon="-1.55359">
        <ele>21.05</ele>
        <time>2020-06-06T09:24:22Z</time>
      </trkpt>
      <trkpt lat="47.02706" lon="-1.55349">
        <ele>20.73</ele>
        <time>2020-06-06T09:24:24Z</time>
      </trkpt>
      <trkpt lat="47.02719" lon="-1.5534">
        <ele>20.54</ele>
        <time>2020-06-06T09:24:26Z</time>
      </trkpt>
      <trkpt lat="47.02732" lon="-1.5533">
        <ele>20.89</ele>
        <time>2020-06-06T09:24:28Z</time>
      </trkpt>
      <trkpt lat="47.02745" lon="-1.55321">
        <ele>20.84</ele>
        <time>2020-06-06T09:24:30Z</time>
      </trkpt>
      <trkpt lat="47.02759" lon="-1.55312">
        <ele>19.59</ele>
        <time>2020-06-06T09:24:32Z</time>
      </trkpt>
      <trkpt lat="47.02772" lon="-1.55303">
        <ele>19.33</ele>
        <time>2020-06-06T09:24:34Z</time>
      </trkpt>
      <trkpt lat="47.02786" lon="-1.55293">
        <ele>19.39</ele>
        <time>2020-06-06T09:24:36Z</time>
      </trkpt>
      <trkpt lat="47.02801" lon="-1.55282">
        <ele>19.61</ele>
        <time>2020-06-06T09:24:38Z</time>
      </trkpt>
      <trkpt lat="47.02815" lon="-1.55272">
        <ele>19.31</ele>
        <time>2020-06-06T09:24:40Z</time>
      </trkpt>
      <trkpt lat="47.02829" lon="-1.55261">
        <ele>18.17</ele>
        <time>2020-06-06T09:24:42Z</time>
      </trkpt>
      <trkpt lat="47.02843" lon="-1.55251">
        <ele>17.17</ele>
        <time>2020-06-06T09:24:44Z</time>
      </trkpt>
      <trkpt lat="47.02857" lon="-1.55239">
        <ele>16.66</ele>
        <time>2020-06-06T09:24:46Z</time>
      </trkpt>
      <trkpt lat="47.02871" lon="-1.55227">
        <ele>16.88</ele>
        <time>2020-06-06T09:24:48Z</time>
      </trkpt>
      <trkpt lat="47.02883" lon="-1.55215">
        <ele>16.71</ele>
        <time>2020-06-06T09:24:50Z</time>
      </trkpt>
      <trkpt lat="47.02896" lon="-1.55201">
        <ele>17.26</ele>
        <time>2020-06-06T09:24:52Z</time>
      </trkpt>
      <trkpt lat="47.02909" lon="-1.55184">
        <ele>17.53</ele>
        <time>2020-06-06T09:24:54Z</time>
      </trkpt>
      <trkpt lat="47.02918" lon="-1.55169">
        <ele>17.89</ele>
        <time>2020-06-06T09:24:56Z</time>
      </trkpt>
      <trkpt lat="47.02929" lon="-1.55151">
        <ele>18.5</ele>
        <time>2020-06-06T09:24:58Z</time>
      </trkpt>
      <trkpt lat="47.02938" lon="-1.55132">
        <ele>18.86</ele>
        <time>2020-06-06T09:25:00Z</time>
      </trkpt>
      <trkpt lat="47.02946" lon="-1.55114">
        <ele>18.68</ele>
        <time>2020-06-06T09:25:02Z</time>
      </trkpt>
      <trkpt lat="47.02955" lon="-1.55095">
        <ele>18.4</ele>
        <time>2020-06-06T09:25:04Z</time>
      </trkpt>
      <trkpt lat="47.02964" lon="-1.55076">
        <ele>17.84</ele>
        <time>2020-06-06T09:25:06Z</time>
      </trkpt>
      <trkpt lat="47.02973" lon="-1.55057">
        <ele>17.37</ele>
        <time>2020-06-06T09:25:08Z</time>
      </trkpt>
      <trkpt lat="47.02981" lon="-1.55039">
        <ele>17.09</ele>
        <time>2020-06-06T09:25:10Z</time>
      </trkpt>
      <trkpt lat="47.02989" lon="-1.55021">
        <ele>16.93</ele>
        <time>2020-06-06T09:25:12Z</time>
      </trkpt>
      <trkpt lat="47.02998" lon="-1.55003">
        <ele>17.43</ele>
        <time>2020-06-06T09:25:14Z</time>
      </trkpt>
      <trkpt lat="47.03005" lon="-1.54988">
        <ele>17.74</ele>
        <time>2020-06-06T09:25:16Z</time>
      </trkpt>
      <trkpt lat="47.03014" lon="-1.5497">
        <ele>18.64</ele>
        <time>2020-06-06T09:25:18Z</time>
      </trkpt>
      <trkpt lat="47.03022" lon="-1.54952">
        <ele>19.16</ele>
        <time>2020-06-06T09:25:20Z</time>
      </trkpt>
      <trkpt lat="47.03028" lon="-1.54937">
        <ele>19.51</ele>
        <time>2020-06-06T09:25:22Z</time>
      </trkpt>
      <trkpt lat="47.03035" lon="-1.54921">
        <ele>19.07</ele>
        <time>2020-06-06T09:25:24Z</time>
      </trkpt>
      <trkpt lat="47.03042" lon="-1.54906">
        <ele>18.26</ele>
        <time>2020-06-06T09:25:26Z</time>
      </trkpt>
      <trkpt lat="47.03049" lon="-1.5489">
        <ele>18.34</ele>
        <time>2020-06-06T09:25:28Z</time>
      </trkpt>
      <trkpt lat="47.03057" lon="-1.54872">
        <ele>19.54</ele>
        <time>2020-06-06T09:25:30Z</time>
      </trkpt>
      <trkpt lat="47.03065" lon="-1.54855">
        <ele>20.66</ele>
        <time>2020-06-06T09:25:32Z</time>
      </trkpt>
      <trkpt lat="47.03071" lon="-1.54839">
        <ele>21.71</ele>
        <time>2020-06-06T09:25:34Z</time>
      </trkpt>
      <trkpt lat="47.03078" lon="-1.54824">
        <ele>21.57</ele>
        <time>2020-06-06T09:25:36Z</time>
      </trkpt>
      <trkpt lat="47.03085" lon="-1.54807">
        <ele>21.4</ele>
        <time>2020-06-06T09:25:38Z</time>
      </trkpt>
      <trkpt lat="47.03092" lon="-1.54788">
        <ele>21.7</ele>
        <time>2020-06-06T09:25:40Z</time>
      </trkpt>
      <trkpt lat="47.03098" lon="-1.54768">
        <ele>21.24</ele>
        <time>2020-06-06T09:25:42Z</time>
      </trkpt>
      <trkpt lat="47.03101" lon="-1.5475">
        <ele>21.1</ele>
        <time>2020-06-06T09:25:44Z</time>
      </trkpt>
      <trkpt lat="47.03104" lon="-1.54731">
        <ele>20.83</ele>
        <time>2020-06-06T09:25:46Z</time>
      </trkpt>
      <trkpt lat="47.03106" lon="-1.54712">
        <ele>20.84</ele>
        <time>2020-06-06T09:25:48Z</time>
      </trkpt>
      <trkpt lat="47.03108" lon="-1.54691">
        <ele>20.94</ele>
        <time>2020-06-06T09:25:50Z</time>
      </trkpt>
      <trkpt lat="47.0311" lon="-1.54672">
        <ele>20.68</ele>
        <time>2020-06-06T09:25:52Z</time>
      </trkpt>
      <trkpt lat="47.03111" lon="-1.54653">
        <ele>20.07</ele>
        <time>2020-06-06T09:25:54Z</time>
      </trkpt>
      <trkpt lat="47.03113" lon="-1.54634">
        <ele>19.2</ele>
        <time>2020-06-06T09:25:56Z</time>
      </trkpt>
      <trkpt lat="47.03114" lon="-1.54615">
        <ele>18.66</ele>
        <time>2020-06-06T09:25:58Z</time>
      </trkpt>
      <trkpt lat="47.03116" lon="-1.54597">
        <ele>18.43</ele>
        <time>2020-06-06T09:26:00Z</time>
      </trkpt>
      <trkpt lat="47.03118" lon="-1.54576">
        <ele>17.43</ele>
        <time>2020-06-06T09:26:02Z</time>
      </trkpt>
      <trkpt lat="47.03121" lon="-1.54558">
        <ele>17.91</ele>
        <time>2020-06-06T09:26:04Z</time>
      </trkpt>
      <trkpt lat="47.03125" lon="-1.54538">
        <ele>19.13</ele>
        <time>2020-06-06T09:26:06Z</time>
      </trkpt>
      <trkpt lat="47.03128" lon="-1.54518">
        <ele>19.56</ele>
        <time>2020-06-06T09:26:08Z</time>
      </trkpt>
      <trkpt lat="47.03132" lon="-1.54497">
        <ele>19.94</ele>
        <time>2020-06-06T09:26:10Z</time>
      </trkpt>
      <trkpt lat="47.03135" lon="-1.54479">
        <ele>20.42</ele>
        <time>2020-06-06T09:26:12Z</time>
      </trkpt>
      <trkpt lat="47.03141" lon="-1.54461">
        <ele>20.87</ele>
        <time>2020-06-06T09:26:14Z</time>
      </trkpt>
      <trkpt lat="47.03147" lon="-1.54442">
        <ele>21.43</ele>
        <time>2020-06-06T09:26:16Z</time>
      </trkpt>
      <trkpt lat="47.03154" lon="-1.54429">
        <ele>22.53</ele>
        <time>2020-06-06T09:26:18Z</time>
      </trkpt>
      <trkpt lat="47.03163" lon="-1.54414">
        <ele>22.54</ele>
        <time>2020-06-06T09:26:20Z</time>
      </trkpt>
      <trkpt lat="47.03173" lon="-1.54399">
        <ele>21.83</ele>
        <time>2020-06-06T09:26:22Z</time>
      </trkpt>
      <trkpt lat="47.03182" lon="-1.54384">
        <ele>20.7</ele>
        <time>2020-06-06T09:26:24Z</time>
      </trkpt>
      <trkpt lat="47.03193" lon="-1.54368">
        <ele>20.07</ele>
        <time>2020-06-06T09:26:26Z</time>
      </trkpt>
      <trkpt lat="47.03202" lon="-1.54353">
        <ele>19.67</ele>
        <time>2020-06-06T09:26:28Z</time>
      </trkpt>
      <trkpt lat="47.0321" lon="-1.54341">
        <ele>20.33</ele>
        <time>2020-06-06T09:26:30Z</time>
      </trkpt>
      <trkpt lat="47.03219" lon="-1.54326">
        <ele>20.49</ele>
        <time>2020-06-06T09:26:32Z</time>
      </trkpt>
      <trkpt lat="47.03227" lon="-1.54313">
        <ele>21.36</ele>
        <time>2020-06-06T09:26:34Z</time>
      </trkpt>
      <trkpt lat="47.03236" lon="-1.54298">
        <ele>22.59</ele>
        <time>2020-06-06T09:26:36Z</time>
      </trkpt>
      <trkpt lat="47.03244" lon="-1.54284">
        <ele>23.5</ele>
        <time>2020-06-06T09:26:38Z</time>
      </trkpt>
      <trkpt lat="47.03254" lon="-1.54269">
        <ele>24.06</ele>
        <time>2020-06-06T09:26:40Z</time>
      </trkpt>
      <trkpt lat="47.03263" lon="-1.54254">
        <ele>24.81</ele>
        <time>2020-06-06T09:26:42Z</time>
      </trkpt>
      <trkpt lat="47.03271" lon="-1.5424">
        <ele>24.63</ele>
        <time>2020-06-06T09:26:44Z</time>
      </trkpt>
      <trkpt lat="47.03279" lon="-1.54227">
        <ele>24.4</ele>
        <time>2020-06-06T09:26:46Z</time>
      </trkpt>
      <trkpt lat="47.03287" lon="-1.54217">
        <ele>24.73</ele>
        <time>2020-06-06T09:26:49Z</time>
      </trkpt>
      <trkpt lat="47.03296" lon="-1.54202">
        <ele>24.68</ele>
        <time>2020-06-06T09:26:51Z</time>
      </trkpt>
      <trkpt lat="47.03303" lon="-1.54189">
        <ele>24.58</ele>
        <time>2020-06-06T09:26:53Z</time>
      </trkpt>
      <trkpt lat="47.03312" lon="-1.54174">
        <ele>24.42</ele>
        <time>2020-06-06T09:26:55Z</time>
      </trkpt>
      <trkpt lat="47.0332" lon="-1.54159">
        <ele>25.39</ele>
        <time>2020-06-06T09:26:57Z</time>
      </trkpt>
      <trkpt lat="47.03328" lon="-1.54145">
        <ele>26.15</ele>
        <time>2020-06-06T09:26:59Z</time>
      </trkpt>
      <trkpt lat="47.03336" lon="-1.5413">
        <ele>26.59</ele>
        <time>2020-06-06T09:27:01Z</time>
      </trkpt>
      <trkpt lat="47.03345" lon="-1.54113">
        <ele>26.39</ele>
        <time>2020-06-06T09:27:03Z</time>
      </trkpt>
      <trkpt lat="47.03353" lon="-1.54099">
        <ele>27.78</ele>
        <time>2020-06-06T09:27:05Z</time>
      </trkpt>
      <trkpt lat="47.0336" lon="-1.54082">
        <ele>28.5</ele>
        <time>2020-06-06T09:27:07Z</time>
      </trkpt>
      <trkpt lat="47.03367" lon="-1.54066">
        <ele>29.06</ele>
        <time>2020-06-06T09:27:09Z</time>
      </trkpt>
      <trkpt lat="47.03373" lon="-1.54048">
        <ele>29.11</ele>
        <time>2020-06-06T09:27:11Z</time>
      </trkpt>
      <trkpt lat="47.03378" lon="-1.54032">
        <ele>29.02</ele>
        <time>2020-06-06T09:27:13Z</time>
      </trkpt>
      <trkpt lat="47.03383" lon="-1.54014">
        <ele>28.47</ele>
        <time>2020-06-06T09:27:15Z</time>
      </trkpt>
      <trkpt lat="47.03387" lon="-1.53997">
        <ele>29.26</ele>
        <time>2020-06-06T09:27:17Z</time>
      </trkpt>
      <trkpt lat="47.03392" lon="-1.53979">
        <ele>30.57</ele>
        <time>2020-06-06T09:27:19Z</time>
      </trkpt>
      <trkpt lat="47.03398" lon="-1.5396">
        <ele>31.6</ele>
        <time>2020-06-06T09:27:21Z</time>
      </trkpt>
      <trkpt lat="47.03403" lon="-1.53942">
        <ele>31.56</ele>
        <time>2020-06-06T09:27:23Z</time>
      </trkpt>
      <trkpt lat="47.03407" lon="-1.53927">
        <ele>30.92</ele>
        <time>2020-06-06T09:27:25Z</time>
      </trkpt>
      <trkpt lat="47.03412" lon="-1.53908">
        <ele>30.4</ele>
        <time>2020-06-06T09:27:27Z</time>
      </trkpt>
      <trkpt lat="47.03417" lon="-1.53892">
        <ele>29.68</ele>
        <time>2020-06-06T09:27:29Z</time>
      </trkpt>
      <trkpt lat="47.03423" lon="-1.53874">
        <ele>29.67</ele>
        <time>2020-06-06T09:27:31Z</time>
      </trkpt>
      <trkpt lat="47.03428" lon="-1.53855">
        <ele>29.54</ele>
        <time>2020-06-06T09:27:33Z</time>
      </trkpt>
      <trkpt lat="47.03434" lon="-1.53836">
        <ele>29.02</ele>
        <time>2020-06-06T09:27:35Z</time>
      </trkpt>
      <trkpt lat="47.0344" lon="-1.53818">
        <ele>28.76</ele>
        <time>2020-06-06T09:27:37Z</time>
      </trkpt>
      <trkpt lat="47.03445" lon="-1.538">
        <ele>28.38</ele>
        <time>2020-06-06T09:27:39Z</time>
      </trkpt>
      <trkpt lat="47.0345" lon="-1.53785">
        <ele>28.54</ele>
        <time>2020-06-06T09:27:41Z</time>
      </trkpt>
      <trkpt lat="47.03455" lon="-1.53766">
        <ele>29.05</ele>
        <time>2020-06-06T09:27:43Z</time>
      </trkpt>
      <trkpt lat="47.0346" lon="-1.53748">
        <ele>29.28</ele>
        <time>2020-06-06T09:27:45Z</time>
      </trkpt>
      <trkpt lat="47.03465" lon="-1.53728">
        <ele>29.2</ele>
        <time>2020-06-06T09:27:47Z</time>
      </trkpt>
      <trkpt lat="47.0347" lon="-1.53711">
        <ele>28.95</ele>
        <time>2020-06-06T09:27:49Z</time>
      </trkpt>
      <trkpt lat="47.03476" lon="-1.53689">
        <ele>29.05</ele>
        <time>2020-06-06T09:27:51Z</time>
      </trkpt>
      <trkpt lat="47.03482" lon="-1.5367">
        <ele>29.77</ele>
        <time>2020-06-06T09:27:53Z</time>
      </trkpt>
      <trkpt lat="47.03488" lon="-1.5365">
        <ele>30.03</ele>
        <time>2020-06-06T09:27:55Z</time>
      </trkpt>
      <trkpt lat="47.03494" lon="-1.53633">
        <ele>30.32</ele>
        <time>2020-06-06T09:27:57Z</time>
      </trkpt>
      <trkpt lat="47.03499" lon="-1.53614">
        <ele>30.26</ele>
        <time>2020-06-06T09:27:59Z</time>
      </trkpt>
      <trkpt lat="47.03505" lon="-1.53595">
        <ele>29.83</ele>
        <time>2020-06-06T09:28:01Z</time>
      </trkpt>
      <trkpt lat="47.03511" lon="-1.53577">
        <ele>29.82</ele>
        <time>2020-06-06T09:28:03Z</time>
      </trkpt>
      <trkpt lat="47.03516" lon="-1.53557">
        <ele>30.08</ele>
        <time>2020-06-06T09:28:05Z</time>
      </trkpt>
      <trkpt lat="47.03522" lon="-1.53534">
        <ele>29.72</ele>
        <time>2020-06-06T09:28:07Z</time>
      </trkpt>
      <trkpt lat="47.03527" lon="-1.53515">
        <ele>29.44</ele>
        <time>2020-06-06T09:28:09Z</time>
      </trkpt>
      <trkpt lat="47.03532" lon="-1.53494">
        <ele>29.06</ele>
        <time>2020-06-06T09:28:11Z</time>
      </trkpt>
      <trkpt lat="47.03537" lon="-1.53474">
        <ele>29.28</ele>
        <time>2020-06-06T09:28:13Z</time>
      </trkpt>
      <trkpt lat="47.03544" lon="-1.53452">
        <ele>29.59</ele>
        <time>2020-06-06T09:28:15Z</time>
      </trkpt>
      <trkpt lat="47.0355" lon="-1.53428">
        <ele>29.51</ele>
        <time>2020-06-06T09:28:17Z</time>
      </trkpt>
      <trkpt lat="47.03555" lon="-1.53409">
        <ele>29.14</ele>
        <time>2020-06-06T09:28:19Z</time>
      </trkpt>
      <trkpt lat="47.03561" lon="-1.53389">
        <ele>28.67</ele>
        <time>2020-06-06T09:28:21Z</time>
      </trkpt>
      <trkpt lat="47.03565" lon="-1.53371">
        <ele>27.8</ele>
        <time>2020-06-06T09:28:23Z</time>
      </trkpt>
      <trkpt lat="47.03568" lon="-1.53358">
        <ele>27.52</ele>
        <time>2020-06-06T09:28:24Z</time>
      </trkpt>
      <trkpt lat="47.03573" lon="-1.53338">
        <ele>27.11</ele>
        <time>2020-06-06T09:28:26Z</time>
      </trkpt>
      <trkpt lat="47.03579" lon="-1.53317">
        <ele>27.35</ele>
        <time>2020-06-06T09:28:28Z</time>
      </trkpt>
      <trkpt lat="47.03585" lon="-1.53296">
        <ele>27.65</ele>
        <time>2020-06-06T09:28:30Z</time>
      </trkpt>
      <trkpt lat="47.03591" lon="-1.53274">
        <ele>27.52</ele>
        <time>2020-06-06T09:28:32Z</time>
      </trkpt>
      <trkpt lat="47.03596" lon="-1.53255">
        <ele>27.51</ele>
        <time>2020-06-06T09:28:34Z</time>
      </trkpt>
      <trkpt lat="47.03602" lon="-1.53235">
        <ele>27.6</ele>
        <time>2020-06-06T09:28:36Z</time>
      </trkpt>
      <trkpt lat="47.03608" lon="-1.53213">
        <ele>27.67</ele>
        <time>2020-06-06T09:28:38Z</time>
      </trkpt>
      <trkpt lat="47.03614" lon="-1.53192">
        <ele>27.3</ele>
        <time>2020-06-06T09:28:40Z</time>
      </trkpt>
      <trkpt lat="47.0362" lon="-1.53171">
        <ele>27.35</ele>
        <time>2020-06-06T09:28:42Z</time>
      </trkpt>
      <trkpt lat="47.03626" lon="-1.53151">
        <ele>26.75</ele>
        <time>2020-06-06T09:28:44Z</time>
      </trkpt>
      <trkpt lat="47.03632" lon="-1.53132">
        <ele>26.25</ele>
        <time>2020-06-06T09:28:46Z</time>
      </trkpt>
      <trkpt lat="47.03638" lon="-1.53113">
        <ele>26.08</ele>
        <time>2020-06-06T09:28:48Z</time>
      </trkpt>
      <trkpt lat="47.03645" lon="-1.53094">
        <ele>25.52</ele>
        <time>2020-06-06T09:28:50Z</time>
      </trkpt>
      <trkpt lat="47.03652" lon="-1.53075">
        <ele>25.07</ele>
        <time>2020-06-06T09:28:52Z</time>
      </trkpt>
      <trkpt lat="47.0366" lon="-1.53058">
        <ele>24.67</ele>
        <time>2020-06-06T09:28:54Z</time>
      </trkpt>
      <trkpt lat="47.03668" lon="-1.53043">
        <ele>24.22</ele>
        <time>2020-06-06T09:28:56Z</time>
      </trkpt>
      <trkpt lat="47.03677" lon="-1.53027">
        <ele>24.88</ele>
        <time>2020-06-06T09:28:58Z</time>
      </trkpt>
      <trkpt lat="47.03686" lon="-1.53012">
        <ele>24.81</ele>
        <time>2020-06-06T09:29:00Z</time>
      </trkpt>
      <trkpt lat="47.03695" lon="-1.52997">
        <ele>24.5</ele>
        <time>2020-06-06T09:29:02Z</time>
      </trkpt>
      <trkpt lat="47.03705" lon="-1.52982">
        <ele>25.04</ele>
        <time>2020-06-06T09:29:04Z</time>
      </trkpt>
      <trkpt lat="47.03715" lon="-1.52966">
        <ele>24.91</ele>
        <time>2020-06-06T09:29:06Z</time>
      </trkpt>
      <trkpt lat="47.03724" lon="-1.52952">
        <ele>24.84</ele>
        <time>2020-06-06T09:29:08Z</time>
      </trkpt>
      <trkpt lat="47.03732" lon="-1.52939">
        <ele>25.75</ele>
        <time>2020-06-06T09:29:10Z</time>
      </trkpt>
      <trkpt lat="47.03741" lon="-1.52926">
        <ele>26.08</ele>
        <time>2020-06-06T09:29:12Z</time>
      </trkpt>
      <trkpt lat="47.03749" lon="-1.52913">
        <ele>25.9</ele>
        <time>2020-06-06T09:29:14Z</time>
      </trkpt>
      <trkpt lat="47.03758" lon="-1.52898">
        <ele>27.24</ele>
        <time>2020-06-06T09:29:16Z</time>
      </trkpt>
      <trkpt lat="47.03766" lon="-1.52886">
        <ele>28.73</ele>
        <time>2020-06-06T09:29:18Z</time>
      </trkpt>
      <trkpt lat="47.03775" lon="-1.52873">
        <ele>29.89</ele>
        <time>2020-06-06T09:29:20Z</time>
      </trkpt>
      <trkpt lat="47.03783" lon="-1.5286">
        <ele>30.48</ele>
        <time>2020-06-06T09:29:22Z</time>
      </trkpt>
      <trkpt lat="47.03792" lon="-1.52846">
        <ele>31.58</ele>
        <time>2020-06-06T09:29:24Z</time>
      </trkpt>
      <trkpt lat="47.03801" lon="-1.52832">
        <ele>31.88</ele>
        <time>2020-06-06T09:29:26Z</time>
      </trkpt>
      <trkpt lat="47.0381" lon="-1.52816">
        <ele>31.53</ele>
        <time>2020-06-06T09:29:28Z</time>
      </trkpt>
      <trkpt lat="47.03819" lon="-1.52801">
        <ele>31.04</ele>
        <time>2020-06-06T09:29:30Z</time>
      </trkpt>
      <trkpt lat="47.03828" lon="-1.52788">
        <ele>31.05</ele>
        <time>2020-06-06T09:29:32Z</time>
      </trkpt>
      <trkpt lat="47.03837" lon="-1.52774">
        <ele>30.44</ele>
        <time>2020-06-06T09:29:34Z</time>
      </trkpt>
      <trkpt lat="47.03847" lon="-1.52758">
        <ele>30.28</ele>
        <time>2020-06-06T09:29:36Z</time>
      </trkpt>
      <trkpt lat="47.03856" lon="-1.52741">
        <ele>29.34</ele>
        <time>2020-06-06T09:29:38Z</time>
      </trkpt>
      <trkpt lat="47.03865" lon="-1.52726">
        <ele>28.95</ele>
        <time>2020-06-06T09:29:40Z</time>
      </trkpt>
      <trkpt lat="47.03874" lon="-1.52712">
        <ele>28.93</ele>
        <time>2020-06-06T09:29:42Z</time>
      </trkpt>
      <trkpt lat="47.03882" lon="-1.52698">
        <ele>29.09</ele>
        <time>2020-06-06T09:29:44Z</time>
      </trkpt>
      <trkpt lat="47.03891" lon="-1.52684">
        <ele>29.13</ele>
        <time>2020-06-06T09:29:46Z</time>
      </trkpt>
      <trkpt lat="47.039" lon="-1.5267">
        <ele>29.42</ele>
        <time>2020-06-06T09:29:48Z</time>
      </trkpt>
      <trkpt lat="47.03908" lon="-1.52657">
        <ele>30.25</ele>
        <time>2020-06-06T09:29:50Z</time>
      </trkpt>
      <trkpt lat="47.03916" lon="-1.52643">
        <ele>30.96</ele>
        <time>2020-06-06T09:29:52Z</time>
      </trkpt>
      <trkpt lat="47.03926" lon="-1.52627">
        <ele>31.11</ele>
        <time>2020-06-06T09:29:54Z</time>
      </trkpt>
      <trkpt lat="47.03936" lon="-1.52611">
        <ele>31.2</ele>
        <time>2020-06-06T09:29:56Z</time>
      </trkpt>
      <trkpt lat="47.03944" lon="-1.52598">
        <ele>31.32</ele>
        <time>2020-06-06T09:29:58Z</time>
      </trkpt>
      <trkpt lat="47.03953" lon="-1.52584">
        <ele>31.51</ele>
        <time>2020-06-06T09:30:00Z</time>
      </trkpt>
      <trkpt lat="47.03963" lon="-1.52568">
        <ele>31.35</ele>
        <time>2020-06-06T09:30:02Z</time>
      </trkpt>
      <trkpt lat="47.0397" lon="-1.52554">
        <ele>31.57</ele>
        <time>2020-06-06T09:30:04Z</time>
      </trkpt>
      <trkpt lat="47.03978" lon="-1.52541">
        <ele>31.21</ele>
        <time>2020-06-06T09:30:06Z</time>
      </trkpt>
      <trkpt lat="47.03986" lon="-1.52526">
        <ele>31.23</ele>
        <time>2020-06-06T09:30:08Z</time>
      </trkpt>
      <trkpt lat="47.03995" lon="-1.52511">
        <ele>30.96</ele>
        <time>2020-06-06T09:30:10Z</time>
      </trkpt>
      <trkpt lat="47.04002" lon="-1.525">
        <ele>31.19</ele>
        <time>2020-06-06T09:30:12Z</time>
      </trkpt>
      <trkpt lat="47.04011" lon="-1.52485">
        <ele>31.61</ele>
        <time>2020-06-06T09:30:14Z</time>
      </trkpt>
      <trkpt lat="47.04019" lon="-1.52472">
        <ele>32.49</ele>
        <time>2020-06-06T09:30:16Z</time>
      </trkpt>
      <trkpt lat="47.04028" lon="-1.52457">
        <ele>33.16</ele>
        <time>2020-06-06T09:30:18Z</time>
      </trkpt>
      <trkpt lat="47.04038" lon="-1.5244">
        <ele>33.41</ele>
        <time>2020-06-06T09:30:20Z</time>
      </trkpt>
      <trkpt lat="47.04046" lon="-1.52425">
        <ele>33.65</ele>
        <time>2020-06-06T09:30:22Z</time>
      </trkpt>
      <trkpt lat="47.04055" lon="-1.52411">
        <ele>33.88</ele>
        <time>2020-06-06T09:30:24Z</time>
      </trkpt>
      <trkpt lat="47.04064" lon="-1.52395">
        <ele>32.94</ele>
        <time>2020-06-06T09:30:26Z</time>
      </trkpt>
      <trkpt lat="47.04073" lon="-1.5238">
        <ele>32.97</ele>
        <time>2020-06-06T09:30:28Z</time>
      </trkpt>
      <trkpt lat="47.04081" lon="-1.52366">
        <ele>33.06</ele>
        <time>2020-06-06T09:30:30Z</time>
      </trkpt>
      <trkpt lat="47.04091" lon="-1.52351">
        <ele>32.84</ele>
        <time>2020-06-06T09:30:32Z</time>
      </trkpt>
      <trkpt lat="47.041" lon="-1.52335">
        <ele>32.62</ele>
        <time>2020-06-06T09:30:34Z</time>
      </trkpt>
      <trkpt lat="47.0411" lon="-1.5232">
        <ele>33.4</ele>
        <time>2020-06-06T09:30:36Z</time>
      </trkpt>
      <trkpt lat="47.04119" lon="-1.52304">
        <ele>33.31</ele>
        <time>2020-06-06T09:30:38Z</time>
      </trkpt>
      <trkpt lat="47.04128" lon="-1.5229">
        <ele>33.28</ele>
        <time>2020-06-06T09:30:40Z</time>
      </trkpt>
      <trkpt lat="47.04138" lon="-1.52274">
        <ele>34.23</ele>
        <time>2020-06-06T09:30:42Z</time>
      </trkpt>
      <trkpt lat="47.04147" lon="-1.52258">
        <ele>35.02</ele>
        <time>2020-06-06T09:30:44Z</time>
      </trkpt>
      <trkpt lat="47.04156" lon="-1.52243">
        <ele>34.67</ele>
        <time>2020-06-06T09:30:46Z</time>
      </trkpt>
      <trkpt lat="47.04166" lon="-1.52228">
        <ele>33.73</ele>
        <time>2020-06-06T09:30:48Z</time>
      </trkpt>
      <trkpt lat="47.04175" lon="-1.52212">
        <ele>33.02</ele>
        <time>2020-06-06T09:30:50Z</time>
      </trkpt>
      <trkpt lat="47.04184" lon="-1.52197">
        <ele>33.26</ele>
        <time>2020-06-06T09:30:52Z</time>
      </trkpt>
      <trkpt lat="47.04193" lon="-1.52182">
        <ele>33.33</ele>
        <time>2020-06-06T09:30:54Z</time>
      </trkpt>
      <trkpt lat="47.04202" lon="-1.52166">
        <ele>33.87</ele>
        <time>2020-06-06T09:30:56Z</time>
      </trkpt>
      <trkpt lat="47.04212" lon="-1.5215">
        <ele>33.67</ele>
        <time>2020-06-06T09:30:58Z</time>
      </trkpt>
      <trkpt lat="47.04221" lon="-1.52135">
        <ele>33.33</ele>
        <time>2020-06-06T09:31:00Z</time>
      </trkpt>
      <trkpt lat="47.04229" lon="-1.5212">
        <ele>32.64</ele>
        <time>2020-06-06T09:31:02Z</time>
      </trkpt>
      <trkpt lat="47.04237" lon="-1.52105">
        <ele>32.06</ele>
        <time>2020-06-06T09:31:04Z</time>
      </trkpt>
      <trkpt lat="47.04246" lon="-1.52091">
        <ele>32.17</ele>
        <time>2020-06-06T09:31:06Z</time>
      </trkpt>
      <trkpt lat="47.04255" lon="-1.52077">
        <ele>33.14</ele>
        <time>2020-06-06T09:31:08Z</time>
      </trkpt>
      <trkpt lat="47.04265" lon="-1.52059">
        <ele>32.97</ele>
        <time>2020-06-06T09:31:10Z</time>
      </trkpt>
      <trkpt lat="47.04273" lon="-1.52045">
        <ele>32.89</ele>
        <time>2020-06-06T09:31:12Z</time>
      </trkpt>
      <trkpt lat="47.04282" lon="-1.52031">
        <ele>32.32</ele>
        <time>2020-06-06T09:31:14Z</time>
      </trkpt>
      <trkpt lat="47.04291" lon="-1.52016">
        <ele>32.43</ele>
        <time>2020-06-06T09:31:16Z</time>
      </trkpt>
      <trkpt lat="47.043" lon="-1.52002">
        <ele>32.17</ele>
        <time>2020-06-06T09:31:18Z</time>
      </trkpt>
      <trkpt lat="47.04309" lon="-1.51987">
        <ele>32.87</ele>
        <time>2020-06-06T09:31:20Z</time>
      </trkpt>
      <trkpt lat="47.04318" lon="-1.51973">
        <ele>33.12</ele>
        <time>2020-06-06T09:31:22Z</time>
      </trkpt>
      <trkpt lat="47.04326" lon="-1.51959">
        <ele>33.26</ele>
        <time>2020-06-06T09:31:24Z</time>
      </trkpt>
      <trkpt lat="47.04336" lon="-1.51943">
        <ele>33.72</ele>
        <time>2020-06-06T09:31:26Z</time>
      </trkpt>
      <trkpt lat="47.04345" lon="-1.51928">
        <ele>34.76</ele>
        <time>2020-06-06T09:31:28Z</time>
      </trkpt>
      <trkpt lat="47.04352" lon="-1.51915">
        <ele>35.45</ele>
        <time>2020-06-06T09:31:30Z</time>
      </trkpt>
      <trkpt lat="47.04362" lon="-1.51899">
        <ele>35.71</ele>
        <time>2020-06-06T09:31:32Z</time>
      </trkpt>
      <trkpt lat="47.0437" lon="-1.51884">
        <ele>36.4</ele>
        <time>2020-06-06T09:31:34Z</time>
      </trkpt>
      <trkpt lat="47.04379" lon="-1.51868">
        <ele>35.93</ele>
        <time>2020-06-06T09:31:36Z</time>
      </trkpt>
      <trkpt lat="47.04388" lon="-1.51854">
        <ele>35.03</ele>
        <time>2020-06-06T09:31:38Z</time>
      </trkpt>
      <trkpt lat="47.04398" lon="-1.51838">
        <ele>33.44</ele>
        <time>2020-06-06T09:31:40Z</time>
      </trkpt>
      <trkpt lat="47.04407" lon="-1.51823">
        <ele>32.38</ele>
        <time>2020-06-06T09:31:42Z</time>
      </trkpt>
      <trkpt lat="47.04415" lon="-1.51809">
        <ele>32.28</ele>
        <time>2020-06-06T09:31:44Z</time>
      </trkpt>
      <trkpt lat="47.04424" lon="-1.51795">
        <ele>32.2</ele>
        <time>2020-06-06T09:31:46Z</time>
      </trkpt>
      <trkpt lat="47.04433" lon="-1.5178">
        <ele>32.59</ele>
        <time>2020-06-06T09:31:48Z</time>
      </trkpt>
      <trkpt lat="47.04442" lon="-1.51766">
        <ele>32.71</ele>
        <time>2020-06-06T09:31:50Z</time>
      </trkpt>
      <trkpt lat="47.04451" lon="-1.5175">
        <ele>32.43</ele>
        <time>2020-06-06T09:31:52Z</time>
      </trkpt>
      <trkpt lat="47.04461" lon="-1.51733">
        <ele>32.23</ele>
        <time>2020-06-06T09:31:54Z</time>
      </trkpt>
      <trkpt lat="47.0447" lon="-1.51719">
        <ele>31.65</ele>
        <time>2020-06-06T09:31:56Z</time>
      </trkpt>
      <trkpt lat="47.0448" lon="-1.51702">
        <ele>30.75</ele>
        <time>2020-06-06T09:31:58Z</time>
      </trkpt>
      <trkpt lat="47.04489" lon="-1.51687">
        <ele>30.4</ele>
        <time>2020-06-06T09:32:00Z</time>
      </trkpt>
      <trkpt lat="47.04498" lon="-1.51674">
        <ele>30.24</ele>
        <time>2020-06-06T09:32:02Z</time>
      </trkpt>
      <trkpt lat="47.04507" lon="-1.51658">
        <ele>30.69</ele>
        <time>2020-06-06T09:32:04Z</time>
      </trkpt>
      <trkpt lat="47.04518" lon="-1.5164">
        <ele>31.04</ele>
        <time>2020-06-06T09:32:06Z</time>
      </trkpt>
      <trkpt lat="47.04526" lon="-1.51625">
        <ele>30.78</ele>
        <time>2020-06-06T09:32:08Z</time>
      </trkpt>
      <trkpt lat="47.04535" lon="-1.5161">
        <ele>30.22</ele>
        <time>2020-06-06T09:32:10Z</time>
      </trkpt>
      <trkpt lat="47.04543" lon="-1.51596">
        <ele>30.58</ele>
        <time>2020-06-06T09:32:12Z</time>
      </trkpt>
      <trkpt lat="47.04551" lon="-1.51582">
        <ele>31.49</ele>
        <time>2020-06-06T09:32:14Z</time>
      </trkpt>
      <trkpt lat="47.04561" lon="-1.51564">
        <ele>31.23</ele>
        <time>2020-06-06T09:32:16Z</time>
      </trkpt>
      <trkpt lat="47.04569" lon="-1.51548">
        <ele>31.11</ele>
        <time>2020-06-06T09:32:18Z</time>
      </trkpt>
      <trkpt lat="47.04576" lon="-1.5153">
        <ele>31.51</ele>
        <time>2020-06-06T09:32:20Z</time>
      </trkpt>
      <trkpt lat="47.04582" lon="-1.51512">
        <ele>32.71</ele>
        <time>2020-06-06T09:32:22Z</time>
      </trkpt>
      <trkpt lat="47.04587" lon="-1.51493">
        <ele>32.98</ele>
        <time>2020-06-06T09:32:24Z</time>
      </trkpt>
      <trkpt lat="47.04592" lon="-1.51474">
        <ele>33.1</ele>
        <time>2020-06-06T09:32:26Z</time>
      </trkpt>
      <trkpt lat="47.04596" lon="-1.51459">
        <ele>33.3</ele>
        <time>2020-06-06T09:32:28Z</time>
      </trkpt>
      <trkpt lat="47.04602" lon="-1.51435">
        <ele>32.64</ele>
        <time>2020-06-06T09:32:30Z</time>
      </trkpt>
      <trkpt lat="47.04607" lon="-1.51413">
        <ele>32.53</ele>
        <time>2020-06-06T09:32:32Z</time>
      </trkpt>
      <trkpt lat="47.04611" lon="-1.51395">
        <ele>32.29</ele>
        <time>2020-06-06T09:32:34Z</time>
      </trkpt>
      <trkpt lat="47.04615" lon="-1.51379">
        <ele>32.24</ele>
        <time>2020-06-06T09:32:36Z</time>
      </trkpt>
      <trkpt lat="47.04618" lon="-1.5136">
        <ele>31.62</ele>
        <time>2020-06-06T09:32:38Z</time>
      </trkpt>
      <trkpt lat="47.04623" lon="-1.51339">
        <ele>31.35</ele>
        <time>2020-06-06T09:32:40Z</time>
      </trkpt>
      <trkpt lat="47.04627" lon="-1.51321">
        <ele>31.64</ele>
        <time>2020-06-06T09:32:42Z</time>
      </trkpt>
      <trkpt lat="47.04632" lon="-1.51305">
        <ele>31.96</ele>
        <time>2020-06-06T09:32:44Z</time>
      </trkpt>
      <trkpt lat="47.04636" lon="-1.51286">
        <ele>31.16</ele>
        <time>2020-06-06T09:32:46Z</time>
      </trkpt>
      <trkpt lat="47.04641" lon="-1.51267">
        <ele>31.04</ele>
        <time>2020-06-06T09:32:48Z</time>
      </trkpt>
      <trkpt lat="47.04646" lon="-1.51248">
        <ele>31.23</ele>
        <time>2020-06-06T09:32:50Z</time>
      </trkpt>
      <trkpt lat="47.0465" lon="-1.51229">
        <ele>31.65</ele>
        <time>2020-06-06T09:32:52Z</time>
      </trkpt>
      <trkpt lat="47.04654" lon="-1.51212">
        <ele>31.45</ele>
        <time>2020-06-06T09:32:54Z</time>
      </trkpt>
      <trkpt lat="47.04659" lon="-1.51191">
        <ele>32.01</ele>
        <time>2020-06-06T09:32:56Z</time>
      </trkpt>
      <trkpt lat="47.04663" lon="-1.51176">
        <ele>32.65</ele>
        <time>2020-06-06T09:32:58Z</time>
      </trkpt>
      <trkpt lat="47.04668" lon="-1.51157">
        <ele>33.12</ele>
        <time>2020-06-06T09:33:00Z</time>
      </trkpt>
      <trkpt lat="47.04672" lon="-1.51138">
        <ele>33.58</ele>
        <time>2020-06-06T09:33:02Z</time>
      </trkpt>
      <trkpt lat="47.04676" lon="-1.5112">
        <ele>33.93</ele>
        <time>2020-06-06T09:33:04Z</time>
      </trkpt>
      <trkpt lat="47.0468" lon="-1.51101">
        <ele>33.92</ele>
        <time>2020-06-06T09:33:06Z</time>
      </trkpt>
      <trkpt lat="47.04684" lon="-1.51085">
        <ele>33.34</ele>
        <time>2020-06-06T09:33:08Z</time>
      </trkpt>
      <trkpt lat="47.04687" lon="-1.51068">
        <ele>33.7</ele>
        <time>2020-06-06T09:33:10Z</time>
      </trkpt>
      <trkpt lat="47.0469" lon="-1.51049">
        <ele>33.86</ele>
        <time>2020-06-06T09:33:12Z</time>
      </trkpt>
      <trkpt lat="47.04693" lon="-1.51031">
        <ele>33.63</ele>
        <time>2020-06-06T09:33:14Z</time>
      </trkpt>
      <trkpt lat="47.04697" lon="-1.51014">
        <ele>33.07</ele>
        <time>2020-06-06T09:33:16Z</time>
      </trkpt>
      <trkpt lat="47.047" lon="-1.50996">
        <ele>33.26</ele>
        <time>2020-06-06T09:33:18Z</time>
      </trkpt>
      <trkpt lat="47.04704" lon="-1.50978">
        <ele>34.05</ele>
        <time>2020-06-06T09:33:20Z</time>
      </trkpt>
      <trkpt lat="47.04707" lon="-1.50959">
        <ele>34.59</ele>
        <time>2020-06-06T09:33:22Z</time>
      </trkpt>
      <trkpt lat="47.04711" lon="-1.50943">
        <ele>34.67</ele>
        <time>2020-06-06T09:33:24Z</time>
      </trkpt>
      <trkpt lat="47.04714" lon="-1.50926">
        <ele>34.56</ele>
        <time>2020-06-06T09:33:26Z</time>
      </trkpt>
      <trkpt lat="47.04717" lon="-1.50911">
        <ele>34.18</ele>
        <time>2020-06-06T09:33:28Z</time>
      </trkpt>
      <trkpt lat="47.0472" lon="-1.50894">
        <ele>33.45</ele>
        <time>2020-06-06T09:33:30Z</time>
      </trkpt>
      <trkpt lat="47.04721" lon="-1.50881">
        <ele>33.13</ele>
        <time>2020-06-06T09:33:32Z</time>
      </trkpt>
      <trkpt lat="47.04721" lon="-1.50864">
        <ele>33.18</ele>
        <time>2020-06-06T09:33:35Z</time>
      </trkpt>
      <trkpt lat="47.04724" lon="-1.50846">
        <ele>33.23</ele>
        <time>2020-06-06T09:33:39Z</time>
      </trkpt>
      <trkpt lat="47.0473" lon="-1.50828">
        <ele>32.23</ele>
        <time>2020-06-06T09:33:41Z</time>
      </trkpt>
      <trkpt lat="47.04738" lon="-1.5081">
        <ele>31.48</ele>
        <time>2020-06-06T09:33:43Z</time>
      </trkpt>
      <trkpt lat="47.04746" lon="-1.50793">
        <ele>31.95</ele>
        <time>2020-06-06T09:33:45Z</time>
      </trkpt>
      <trkpt lat="47.04756" lon="-1.50776">
        <ele>32.2</ele>
        <time>2020-06-06T09:33:47Z</time>
      </trkpt>
      <trkpt lat="47.04765" lon="-1.50759">
        <ele>33.3</ele>
        <time>2020-06-06T09:33:49Z</time>
      </trkpt>
      <trkpt lat="47.04772" lon="-1.50741">
        <ele>33.6</ele>
        <time>2020-06-06T09:33:51Z</time>
      </trkpt>
      <trkpt lat="47.04779" lon="-1.50724">
        <ele>33.69</ele>
        <time>2020-06-06T09:33:53Z</time>
      </trkpt>
      <trkpt lat="47.04787" lon="-1.50706">
        <ele>33.97</ele>
        <time>2020-06-06T09:33:55Z</time>
      </trkpt>
      <trkpt lat="47.04793" lon="-1.5069">
        <ele>34.33</ele>
        <time>2020-06-06T09:33:57Z</time>
      </trkpt>
      <trkpt lat="47.04801" lon="-1.50671">
        <ele>34.4</ele>
        <time>2020-06-06T09:33:59Z</time>
      </trkpt>
      <trkpt lat="47.04809" lon="-1.50651">
        <ele>33.91</ele>
        <time>2020-06-06T09:34:01Z</time>
      </trkpt>
      <trkpt lat="47.04816" lon="-1.50634">
        <ele>34.07</ele>
        <time>2020-06-06T09:34:03Z</time>
      </trkpt>
      <trkpt lat="47.04824" lon="-1.50614">
        <ele>34.17</ele>
        <time>2020-06-06T09:34:05Z</time>
      </trkpt>
      <trkpt lat="47.04831" lon="-1.50596">
        <ele>33.45</ele>
        <time>2020-06-06T09:34:07Z</time>
      </trkpt>
      <trkpt lat="47.04839" lon="-1.50578">
        <ele>33.23</ele>
        <time>2020-06-06T09:34:09Z</time>
      </trkpt>
      <trkpt lat="47.04848" lon="-1.5056">
        <ele>33.75</ele>
        <time>2020-06-06T09:34:11Z</time>
      </trkpt>
      <trkpt lat="47.04858" lon="-1.50542">
        <ele>33.74</ele>
        <time>2020-06-06T09:34:13Z</time>
      </trkpt>
      <trkpt lat="47.04868" lon="-1.50524">
        <ele>33.86</ele>
        <time>2020-06-06T09:34:15Z</time>
      </trkpt>
      <trkpt lat="47.04877" lon="-1.50506">
        <ele>33.7</ele>
        <time>2020-06-06T09:34:17Z</time>
      </trkpt>
      <trkpt lat="47.04883" lon="-1.50495">
        <ele>33.19</ele>
        <time>2020-06-06T09:34:18Z</time>
      </trkpt>
      <trkpt lat="47.04892" lon="-1.5048">
        <ele>33.62</ele>
        <time>2020-06-06T09:34:19Z</time>
      </trkpt>
      <trkpt lat="47.04901" lon="-1.50463">
        <ele>33.92</ele>
        <time>2020-06-06T09:34:21Z</time>
      </trkpt>
      <trkpt lat="47.0491" lon="-1.50448">
        <ele>33.65</ele>
        <time>2020-06-06T09:34:23Z</time>
      </trkpt>
      <trkpt lat="47.0492" lon="-1.50431">
        <ele>33.53</ele>
        <time>2020-06-06T09:34:25Z</time>
      </trkpt>
      <trkpt lat="47.0493" lon="-1.50412">
        <ele>34.18</ele>
        <time>2020-06-06T09:34:27Z</time>
      </trkpt>
      <trkpt lat="47.0494" lon="-1.50395">
        <ele>33.78</ele>
        <time>2020-06-06T09:34:29Z</time>
      </trkpt>
      <trkpt lat="47.0495" lon="-1.50377">
        <ele>32.83</ele>
        <time>2020-06-06T09:34:31Z</time>
      </trkpt>
      <trkpt lat="47.0496" lon="-1.5036">
        <ele>32.09</ele>
        <time>2020-06-06T09:34:33Z</time>
      </trkpt>
      <trkpt lat="47.04971" lon="-1.50341">
        <ele>32.03</ele>
        <time>2020-06-06T09:34:35Z</time>
      </trkpt>
      <trkpt lat="47.04981" lon="-1.50323">
        <ele>31.64</ele>
        <time>2020-06-06T09:34:37Z</time>
      </trkpt>
      <trkpt lat="47.04992" lon="-1.50305">
        <ele>31.92</ele>
        <time>2020-06-06T09:34:39Z</time>
      </trkpt>
      <trkpt lat="47.05001" lon="-1.50287">
        <ele>32.14</ele>
        <time>2020-06-06T09:34:41Z</time>
      </trkpt>
      <trkpt lat="47.0501" lon="-1.50267">
        <ele>31.69</ele>
        <time>2020-06-06T09:34:43Z</time>
      </trkpt>
      <trkpt lat="47.05017" lon="-1.50247">
        <ele>30.82</ele>
        <time>2020-06-06T09:34:45Z</time>
      </trkpt>
      <trkpt lat="47.05024" lon="-1.50227">
        <ele>29.53</ele>
        <time>2020-06-06T09:34:47Z</time>
      </trkpt>
      <trkpt lat="47.05031" lon="-1.50207">
        <ele>28.85</ele>
        <time>2020-06-06T09:34:49Z</time>
      </trkpt>
      <trkpt lat="47.05035" lon="-1.50195">
        <ele>28.32</ele>
        <time>2020-06-06T09:34:50Z</time>
      </trkpt>
      <trkpt lat="47.05043" lon="-1.50174">
        <ele>28.31</ele>
        <time>2020-06-06T09:34:52Z</time>
      </trkpt>
      <trkpt lat="47.0505" lon="-1.50155">
        <ele>28.94</ele>
        <time>2020-06-06T09:34:54Z</time>
      </trkpt>
      <trkpt lat="47.05057" lon="-1.50137">
        <ele>29.71</ele>
        <time>2020-06-06T09:34:56Z</time>
      </trkpt>
      <trkpt lat="47.05064" lon="-1.50117">
        <ele>30.29</ele>
        <time>2020-06-06T09:34:58Z</time>
      </trkpt>
      <trkpt lat="47.05072" lon="-1.50098">
        <ele>30.91</ele>
        <time>2020-06-06T09:35:00Z</time>
      </trkpt>
      <trkpt lat="47.0508" lon="-1.50078">
        <ele>31.39</ele>
        <time>2020-06-06T09:35:02Z</time>
      </trkpt>
      <trkpt lat="47.05089" lon="-1.50062">
        <ele>31.33</ele>
        <time>2020-06-06T09:35:04Z</time>
      </trkpt>
      <trkpt lat="47.05098" lon="-1.50046">
        <ele>31.65</ele>
        <time>2020-06-06T09:35:06Z</time>
      </trkpt>
      <trkpt lat="47.05111" lon="-1.50028">
        <ele>31.48</ele>
        <time>2020-06-06T09:35:08Z</time>
      </trkpt>
      <trkpt lat="47.05124" lon="-1.5001">
        <ele>31</ele>
        <time>2020-06-06T09:35:10Z</time>
      </trkpt>
      <trkpt lat="47.05134" lon="-1.49996">
        <ele>31.14</ele>
        <time>2020-06-06T09:35:12Z</time>
      </trkpt>
      <trkpt lat="47.05145" lon="-1.49983">
        <ele>31.77</ele>
        <time>2020-06-06T09:35:14Z</time>
      </trkpt>
      <trkpt lat="47.05158" lon="-1.49967">
        <ele>32.28</ele>
        <time>2020-06-06T09:35:16Z</time>
      </trkpt>
      <trkpt lat="47.05169" lon="-1.49952">
        <ele>32.48</ele>
        <time>2020-06-06T09:35:18Z</time>
      </trkpt>
      <trkpt lat="47.0518" lon="-1.49937">
        <ele>32.92</ele>
        <time>2020-06-06T09:35:20Z</time>
      </trkpt>
      <trkpt lat="47.05191" lon="-1.49923">
        <ele>32.72</ele>
        <time>2020-06-06T09:35:22Z</time>
      </trkpt>
      <trkpt lat="47.05203" lon="-1.49906">
        <ele>33.44</ele>
        <time>2020-06-06T09:35:24Z</time>
      </trkpt>
      <trkpt lat="47.05215" lon="-1.49892">
        <ele>34.35</ele>
        <time>2020-06-06T09:35:26Z</time>
      </trkpt>
      <trkpt lat="47.05226" lon="-1.49878">
        <ele>34.99</ele>
        <time>2020-06-06T09:35:28Z</time>
      </trkpt>
      <trkpt lat="47.05237" lon="-1.49863">
        <ele>35.45</ele>
        <time>2020-06-06T09:35:30Z</time>
      </trkpt>
      <trkpt lat="47.05248" lon="-1.49847">
        <ele>35.88</ele>
        <time>2020-06-06T09:35:32Z</time>
      </trkpt>
      <trkpt lat="47.05258" lon="-1.49829">
        <ele>35.62</ele>
        <time>2020-06-06T09:35:34Z</time>
      </trkpt>
      <trkpt lat="47.05266" lon="-1.49811">
        <ele>35.83</ele>
        <time>2020-06-06T09:35:36Z</time>
      </trkpt>
      <trkpt lat="47.05274" lon="-1.49794">
        <ele>35.47</ele>
        <time>2020-06-06T09:35:38Z</time>
      </trkpt>
      <trkpt lat="47.05283" lon="-1.49775">
        <ele>34.03</ele>
        <time>2020-06-06T09:35:40Z</time>
      </trkpt>
      <trkpt lat="47.05291" lon="-1.49755">
        <ele>33.75</ele>
        <time>2020-06-06T09:35:42Z</time>
      </trkpt>
      <trkpt lat="47.05298" lon="-1.49737">
        <ele>34.23</ele>
        <time>2020-06-06T09:35:44Z</time>
      </trkpt>
      <trkpt lat="47.05306" lon="-1.4972">
        <ele>35.2</ele>
        <time>2020-06-06T09:35:46Z</time>
      </trkpt>
      <trkpt lat="47.05313" lon="-1.49702">
        <ele>35.05</ele>
        <time>2020-06-06T09:35:48Z</time>
      </trkpt>
      <trkpt lat="47.05321" lon="-1.49684">
        <ele>34.79</ele>
        <time>2020-06-06T09:35:50Z</time>
      </trkpt>
      <trkpt lat="47.05329" lon="-1.49667">
        <ele>34.64</ele>
        <time>2020-06-06T09:35:52Z</time>
      </trkpt>
      <trkpt lat="47.05337" lon="-1.49649">
        <ele>34.61</ele>
        <time>2020-06-06T09:35:54Z</time>
      </trkpt>
      <trkpt lat="47.05344" lon="-1.49632">
        <ele>34.87</ele>
        <time>2020-06-06T09:35:56Z</time>
      </trkpt>
      <trkpt lat="47.05352" lon="-1.49614">
        <ele>34.43</ele>
        <time>2020-06-06T09:35:58Z</time>
      </trkpt>
      <trkpt lat="47.0536" lon="-1.49594">
        <ele>34.13</ele>
        <time>2020-06-06T09:36:00Z</time>
      </trkpt>
      <trkpt lat="47.05367" lon="-1.49577">
        <ele>34.4</ele>
        <time>2020-06-06T09:36:02Z</time>
      </trkpt>
      <trkpt lat="47.05375" lon="-1.49559">
        <ele>34.4</ele>
        <time>2020-06-06T09:36:04Z</time>
      </trkpt>
      <trkpt lat="47.05382" lon="-1.49539">
        <ele>34.14</ele>
        <time>2020-06-06T09:36:06Z</time>
      </trkpt>
      <trkpt lat="47.05388" lon="-1.4952">
        <ele>33.03</ele>
        <time>2020-06-06T09:36:08Z</time>
      </trkpt>
      <trkpt lat="47.05392" lon="-1.49501">
        <ele>32.38</ele>
        <time>2020-06-06T09:36:10Z</time>
      </trkpt>
      <trkpt lat="47.05397" lon="-1.49478">
        <ele>32.03</ele>
        <time>2020-06-06T09:36:12Z</time>
      </trkpt>
      <trkpt lat="47.05401" lon="-1.49456">
        <ele>31.95</ele>
        <time>2020-06-06T09:36:14Z</time>
      </trkpt>
      <trkpt lat="47.05404" lon="-1.49437">
        <ele>32.42</ele>
        <time>2020-06-06T09:36:16Z</time>
      </trkpt>
      <trkpt lat="47.05407" lon="-1.49417">
        <ele>32.61</ele>
        <time>2020-06-06T09:36:18Z</time>
      </trkpt>
      <trkpt lat="47.0541" lon="-1.49395">
        <ele>33.02</ele>
        <time>2020-06-06T09:36:20Z</time>
      </trkpt>
      <trkpt lat="47.05414" lon="-1.49375">
        <ele>32.89</ele>
        <time>2020-06-06T09:36:22Z</time>
      </trkpt>
      <trkpt lat="47.05417" lon="-1.49353">
        <ele>32.53</ele>
        <time>2020-06-06T09:36:24Z</time>
      </trkpt>
      <trkpt lat="47.0542" lon="-1.49332">
        <ele>32.69</ele>
        <time>2020-06-06T09:36:26Z</time>
      </trkpt>
      <trkpt lat="47.05424" lon="-1.4931">
        <ele>32.73</ele>
        <time>2020-06-06T09:36:28Z</time>
      </trkpt>
      <trkpt lat="47.05427" lon="-1.49291">
        <ele>33.25</ele>
        <time>2020-06-06T09:36:30Z</time>
      </trkpt>
      <trkpt lat="47.05432" lon="-1.49269">
        <ele>33.44</ele>
        <time>2020-06-06T09:36:32Z</time>
      </trkpt>
      <trkpt lat="47.05437" lon="-1.4925">
        <ele>34</ele>
        <time>2020-06-06T09:36:34Z</time>
      </trkpt>
      <trkpt lat="47.05445" lon="-1.49231">
        <ele>33.91</ele>
        <time>2020-06-06T09:36:36Z</time>
      </trkpt>
      <trkpt lat="47.05452" lon="-1.49211">
        <ele>34.25</ele>
        <time>2020-06-06T09:36:38Z</time>
      </trkpt>
      <trkpt lat="47.05459" lon="-1.49194">
        <ele>34.49</ele>
        <time>2020-06-06T09:36:40Z</time>
      </trkpt>
      <trkpt lat="47.05468" lon="-1.49176">
        <ele>34.25</ele>
        <time>2020-06-06T09:36:42Z</time>
      </trkpt>
      <trkpt lat="47.05475" lon="-1.4916">
        <ele>33.63</ele>
        <time>2020-06-06T09:36:44Z</time>
      </trkpt>
      <trkpt lat="47.05484" lon="-1.49143">
        <ele>33.48</ele>
        <time>2020-06-06T09:36:46Z</time>
      </trkpt>
      <trkpt lat="47.05493" lon="-1.49125">
        <ele>33.03</ele>
        <time>2020-06-06T09:36:48Z</time>
      </trkpt>
      <trkpt lat="47.05502" lon="-1.49105">
        <ele>32.27</ele>
        <time>2020-06-06T09:36:50Z</time>
      </trkpt>
      <trkpt lat="47.0551" lon="-1.49083">
        <ele>31.67</ele>
        <time>2020-06-06T09:36:52Z</time>
      </trkpt>
      <trkpt lat="47.05519" lon="-1.49061">
        <ele>31.46</ele>
        <time>2020-06-06T09:36:54Z</time>
      </trkpt>
      <trkpt lat="47.05528" lon="-1.4904">
        <ele>29.75</ele>
        <time>2020-06-06T09:36:56Z</time>
      </trkpt>
      <trkpt lat="47.05537" lon="-1.49021">
        <ele>28.88</ele>
        <time>2020-06-06T09:36:58Z</time>
      </trkpt>
      <trkpt lat="47.05542" lon="-1.49009">
        <ele>28.89</ele>
        <time>2020-06-06T09:36:59Z</time>
      </trkpt>
      <trkpt lat="47.05551" lon="-1.48987">
        <ele>29.39</ele>
        <time>2020-06-06T09:37:01Z</time>
      </trkpt>
      <trkpt lat="47.05558" lon="-1.48968">
        <ele>30.31</ele>
        <time>2020-06-06T09:37:03Z</time>
      </trkpt>
      <trkpt lat="47.05561" lon="-1.48955">
        <ele>30.56</ele>
        <time>2020-06-06T09:37:04Z</time>
      </trkpt>
      <trkpt lat="47.05568" lon="-1.4893">
        <ele>30.6</ele>
        <time>2020-06-06T09:37:06Z</time>
      </trkpt>
      <trkpt lat="47.05571" lon="-1.48917">
        <ele>29.98</ele>
        <time>2020-06-06T09:37:07Z</time>
      </trkpt>
      <trkpt lat="47.05573" lon="-1.48903">
        <ele>29.5</ele>
        <time>2020-06-06T09:37:08Z</time>
      </trkpt>
      <trkpt lat="47.05577" lon="-1.48887">
        <ele>29.22</ele>
        <time>2020-06-06T09:37:09Z</time>
      </trkpt>
      <trkpt lat="47.0558" lon="-1.48861">
        <ele>29.5</ele>
        <time>2020-06-06T09:37:11Z</time>
      </trkpt>
      <trkpt lat="47.05582" lon="-1.48848">
        <ele>29.44</ele>
        <time>2020-06-06T09:37:12Z</time>
      </trkpt>
      <trkpt lat="47.05584" lon="-1.48833">
        <ele>29.51</ele>
        <time>2020-06-06T09:37:13Z</time>
      </trkpt>
      <trkpt lat="47.05588" lon="-1.48808">
        <ele>28.43</ele>
        <time>2020-06-06T09:37:15Z</time>
      </trkpt>
      <trkpt lat="47.0559" lon="-1.48788">
        <ele>26.48</ele>
        <time>2020-06-06T09:37:17Z</time>
      </trkpt>
      <trkpt lat="47.05593" lon="-1.48775">
        <ele>24.77</ele>
        <time>2020-06-06T09:37:20Z</time>
      </trkpt>
      <trkpt lat="47.05602" lon="-1.48774">
        <ele>24.33</ele>
        <time>2020-06-06T09:37:22Z</time>
      </trkpt>
      <trkpt lat="47.05616" lon="-1.48775">
        <ele>24.17</ele>
        <time>2020-06-06T09:37:24Z</time>
      </trkpt>
      <trkpt lat="47.05634" lon="-1.48776">
        <ele>23.28</ele>
        <time>2020-06-06T09:37:26Z</time>
      </trkpt>
      <trkpt lat="47.05643" lon="-1.48777">
        <ele>22.44</ele>
        <time>2020-06-06T09:37:27Z</time>
      </trkpt>
      <trkpt lat="47.05659" lon="-1.48776">
        <ele>21.21</ele>
        <time>2020-06-06T09:37:29Z</time>
      </trkpt>
      <trkpt lat="47.0567" lon="-1.48766">
        <ele>21.42</ele>
        <time>2020-06-06T09:37:31Z</time>
      </trkpt>
      <trkpt lat="47.05673" lon="-1.48753">
        <ele>21.59</ele>
        <time>2020-06-06T09:37:32Z</time>
      </trkpt>
      <trkpt lat="47.05672" lon="-1.48738">
        <ele>21.33</ele>
        <time>2020-06-06T09:37:33Z</time>
      </trkpt>
      <trkpt lat="47.0567" lon="-1.48722">
        <ele>21.06</ele>
        <time>2020-06-06T09:37:34Z</time>
      </trkpt>
      <trkpt lat="47.05666" lon="-1.487">
        <ele>20.58</ele>
        <time>2020-06-06T09:37:36Z</time>
      </trkpt>
      <trkpt lat="47.05661" lon="-1.48679">
        <ele>19.75</ele>
        <time>2020-06-06T09:37:38Z</time>
      </trkpt>
      <trkpt lat="47.05656" lon="-1.48661">
        <ele>18.94</ele>
        <time>2020-06-06T09:37:40Z</time>
      </trkpt>
      <trkpt lat="47.05651" lon="-1.48642">
        <ele>18.44</ele>
        <time>2020-06-06T09:37:42Z</time>
      </trkpt>
      <trkpt lat="47.05647" lon="-1.48623">
        <ele>17.56</ele>
        <time>2020-06-06T09:37:44Z</time>
      </trkpt>
      <trkpt lat="47.05642" lon="-1.48602">
        <ele>17.82</ele>
        <time>2020-06-06T09:37:46Z</time>
      </trkpt>
      <trkpt lat="47.05639" lon="-1.4858">
        <ele>17.98</ele>
        <time>2020-06-06T09:37:48Z</time>
      </trkpt>
      <trkpt lat="47.05638" lon="-1.48557">
        <ele>16.51</ele>
        <time>2020-06-06T09:37:50Z</time>
      </trkpt>
      <trkpt lat="47.05646" lon="-1.48542">
        <ele>15.66</ele>
        <time>2020-06-06T09:37:52Z</time>
      </trkpt>
      <trkpt lat="47.0566" lon="-1.48531">
        <ele>15.62</ele>
        <time>2020-06-06T09:37:54Z</time>
      </trkpt>
      <trkpt lat="47.05669" lon="-1.48527">
        <ele>15.29</ele>
        <time>2020-06-06T09:37:55Z</time>
      </trkpt>
      <trkpt lat="47.05682" lon="-1.48519">
        <ele>15.28</ele>
        <time>2020-06-06T09:37:57Z</time>
      </trkpt>
      <trkpt lat="47.05697" lon="-1.48509">
        <ele>15.34</ele>
        <time>2020-06-06T09:37:59Z</time>
      </trkpt>
      <trkpt lat="47.05711" lon="-1.48497">
        <ele>15.31</ele>
        <time>2020-06-06T09:38:01Z</time>
      </trkpt>
      <trkpt lat="47.05723" lon="-1.48483">
        <ele>15.79</ele>
        <time>2020-06-06T09:38:03Z</time>
      </trkpt>
      <trkpt lat="47.05732" lon="-1.4847">
        <ele>16.63</ele>
        <time>2020-06-06T09:38:05Z</time>
      </trkpt>
      <trkpt lat="47.0574" lon="-1.48452">
        <ele>16.4</ele>
        <time>2020-06-06T09:38:07Z</time>
      </trkpt>
      <trkpt lat="47.05747" lon="-1.48435">
        <ele>16.93</ele>
        <time>2020-06-06T09:38:09Z</time>
      </trkpt>
      <trkpt lat="47.05754" lon="-1.48417">
        <ele>16.93</ele>
        <time>2020-06-06T09:38:11Z</time>
      </trkpt>
      <trkpt lat="47.05761" lon="-1.484">
        <ele>15.95</ele>
        <time>2020-06-06T09:38:13Z</time>
      </trkpt>
      <trkpt lat="47.05769" lon="-1.48385">
        <ele>16.1</ele>
        <time>2020-06-06T09:38:15Z</time>
      </trkpt>
      <trkpt lat="47.05778" lon="-1.4837">
        <ele>16.95</ele>
        <time>2020-06-06T09:38:17Z</time>
      </trkpt>
      <trkpt lat="47.05788" lon="-1.48358">
        <ele>17.51</ele>
        <time>2020-06-06T09:38:19Z</time>
      </trkpt>
      <trkpt lat="47.05799" lon="-1.48346">
        <ele>18.71</ele>
        <time>2020-06-06T09:38:21Z</time>
      </trkpt>
      <trkpt lat="47.05809" lon="-1.48336">
        <ele>19.13</ele>
        <time>2020-06-06T09:38:23Z</time>
      </trkpt>
      <trkpt lat="47.05821" lon="-1.48327">
        <ele>18.83</ele>
        <time>2020-06-06T09:38:25Z</time>
      </trkpt>
      <trkpt lat="47.05834" lon="-1.48322">
        <ele>19.51</ele>
        <time>2020-06-06T09:38:27Z</time>
      </trkpt>
      <trkpt lat="47.05849" lon="-1.48317">
        <ele>19.72</ele>
        <time>2020-06-06T09:38:29Z</time>
      </trkpt>
      <trkpt lat="47.05861" lon="-1.48314">
        <ele>19.41</ele>
        <time>2020-06-06T09:38:31Z</time>
      </trkpt>
      <trkpt lat="47.05872" lon="-1.4831">
        <ele>19.39</ele>
        <time>2020-06-06T09:38:33Z</time>
      </trkpt>
      <trkpt lat="47.05885" lon="-1.48305">
        <ele>19.41</ele>
        <time>2020-06-06T09:38:35Z</time>
      </trkpt>
      <trkpt lat="47.05899" lon="-1.48301">
        <ele>20.06</ele>
        <time>2020-06-06T09:38:37Z</time>
      </trkpt>
      <trkpt lat="47.05912" lon="-1.48298">
        <ele>19.48</ele>
        <time>2020-06-06T09:38:39Z</time>
      </trkpt>
      <trkpt lat="47.05924" lon="-1.48295">
        <ele>20.36</ele>
        <time>2020-06-06T09:38:41Z</time>
      </trkpt>
      <trkpt lat="47.05939" lon="-1.48293">
        <ele>21.07</ele>
        <time>2020-06-06T09:38:43Z</time>
      </trkpt>
      <trkpt lat="47.05952" lon="-1.48294">
        <ele>20.94</ele>
        <time>2020-06-06T09:38:45Z</time>
      </trkpt>
      <trkpt lat="47.05966" lon="-1.48295">
        <ele>19.92</ele>
        <time>2020-06-06T09:38:47Z</time>
      </trkpt>
      <trkpt lat="47.0598" lon="-1.48296">
        <ele>19.63</ele>
        <time>2020-06-06T09:38:49Z</time>
      </trkpt>
      <trkpt lat="47.05993" lon="-1.48296">
        <ele>18.98</ele>
        <time>2020-06-06T09:38:51Z</time>
      </trkpt>
      <trkpt lat="47.06007" lon="-1.48293">
        <ele>18.6</ele>
        <time>2020-06-06T09:38:53Z</time>
      </trkpt>
      <trkpt lat="47.06021" lon="-1.48288">
        <ele>18.5</ele>
        <time>2020-06-06T09:38:55Z</time>
      </trkpt>
      <trkpt lat="47.06034" lon="-1.48282">
        <ele>18.35</ele>
        <time>2020-06-06T09:38:57Z</time>
      </trkpt>
      <trkpt lat="47.06046" lon="-1.48274">
        <ele>18.31</ele>
        <time>2020-06-06T09:38:59Z</time>
      </trkpt>
      <trkpt lat="47.06057" lon="-1.48267">
        <ele>18.22</ele>
        <time>2020-06-06T09:39:01Z</time>
      </trkpt>
      <trkpt lat="47.06069" lon="-1.48258">
        <ele>18.43</ele>
        <time>2020-06-06T09:39:03Z</time>
      </trkpt>
      <trkpt lat="47.06079" lon="-1.48249">
        <ele>19.16</ele>
        <time>2020-06-06T09:39:05Z</time>
      </trkpt>
      <trkpt lat="47.0609" lon="-1.48241">
        <ele>19.56</ele>
        <time>2020-06-06T09:39:07Z</time>
      </trkpt>
      <trkpt lat="47.06101" lon="-1.48232">
        <ele>18.99</ele>
        <time>2020-06-06T09:39:09Z</time>
      </trkpt>
      <trkpt lat="47.06112" lon="-1.48224">
        <ele>19.35</ele>
        <time>2020-06-06T09:39:11Z</time>
      </trkpt>
      <trkpt lat="47.06122" lon="-1.48215">
        <ele>20.42</ele>
        <time>2020-06-06T09:39:13Z</time>
      </trkpt>
      <trkpt lat="47.06134" lon="-1.48207">
        <ele>22.03</ele>
        <time>2020-06-06T09:39:15Z</time>
      </trkpt>
      <trkpt lat="47.06144" lon="-1.48199">
        <ele>22.37</ele>
        <time>2020-06-06T09:39:17Z</time>
      </trkpt>
      <trkpt lat="47.06153" lon="-1.4819">
        <ele>21.88</ele>
        <time>2020-06-06T09:39:19Z</time>
      </trkpt>
      <trkpt lat="47.06163" lon="-1.48179">
        <ele>21.64</ele>
        <time>2020-06-06T09:39:21Z</time>
      </trkpt>
      <trkpt lat="47.06172" lon="-1.48169">
        <ele>21.67</ele>
        <time>2020-06-06T09:39:23Z</time>
      </trkpt>
      <trkpt lat="47.06183" lon="-1.48156">
        <ele>21.82</ele>
        <time>2020-06-06T09:39:25Z</time>
      </trkpt>
      <trkpt lat="47.06191" lon="-1.48144">
        <ele>20.95</ele>
        <time>2020-06-06T09:39:27Z</time>
      </trkpt>
      <trkpt lat="47.062" lon="-1.48131">
        <ele>20.46</ele>
        <time>2020-06-06T09:39:29Z</time>
      </trkpt>
      <trkpt lat="47.0621" lon="-1.48114">
        <ele>18.88</ele>
        <time>2020-06-06T09:39:31Z</time>
      </trkpt>
      <trkpt lat="47.06218" lon="-1.48101">
        <ele>18.55</ele>
        <time>2020-06-06T09:39:33Z</time>
      </trkpt>
      <trkpt lat="47.06229" lon="-1.48094">
        <ele>18.91</ele>
        <time>2020-06-06T09:39:35Z</time>
      </trkpt>
      <trkpt lat="47.06241" lon="-1.48088">
        <ele>19.34</ele>
        <time>2020-06-06T09:39:37Z</time>
      </trkpt>
      <trkpt lat="47.06254" lon="-1.48083">
        <ele>20.16</ele>
        <time>2020-06-06T09:39:39Z</time>
      </trkpt>
      <trkpt lat="47.06268" lon="-1.48078">
        <ele>20.04</ele>
        <time>2020-06-06T09:39:41Z</time>
      </trkpt>
      <trkpt lat="47.06282" lon="-1.48073">
        <ele>19.3</ele>
        <time>2020-06-06T09:39:43Z</time>
      </trkpt>
      <trkpt lat="47.06297" lon="-1.48068">
        <ele>18.91</ele>
        <time>2020-06-06T09:39:45Z</time>
      </trkpt>
      <trkpt lat="47.06308" lon="-1.48065">
        <ele>19.37</ele>
        <time>2020-06-06T09:39:47Z</time>
      </trkpt>
      <trkpt lat="47.06319" lon="-1.48062">
        <ele>19.63</ele>
        <time>2020-06-06T09:39:49Z</time>
      </trkpt>
      <trkpt lat="47.06331" lon="-1.48058">
        <ele>19.82</ele>
        <time>2020-06-06T09:39:51Z</time>
      </trkpt>
      <trkpt lat="47.06345" lon="-1.48051">
        <ele>19.85</ele>
        <time>2020-06-06T09:39:53Z</time>
      </trkpt>
      <trkpt lat="47.06354" lon="-1.48042">
        <ele>20.76</ele>
        <time>2020-06-06T09:39:55Z</time>
      </trkpt>
      <trkpt lat="47.06364" lon="-1.48026">
        <ele>21.38</ele>
        <time>2020-06-06T09:39:57Z</time>
      </trkpt>
      <trkpt lat="47.06372" lon="-1.48011">
        <ele>22.02</ele>
        <time>2020-06-06T09:39:59Z</time>
      </trkpt>
      <trkpt lat="47.06378" lon="-1.47995">
        <ele>22.71</ele>
        <time>2020-06-06T09:40:01Z</time>
      </trkpt>
      <trkpt lat="47.06385" lon="-1.4798">
        <ele>23.34</ele>
        <time>2020-06-06T09:40:03Z</time>
      </trkpt>
      <trkpt lat="47.06391" lon="-1.47965">
        <ele>24.16</ele>
        <time>2020-06-06T09:40:05Z</time>
      </trkpt>
      <trkpt lat="47.06397" lon="-1.47948">
        <ele>24.36</ele>
        <time>2020-06-06T09:40:07Z</time>
      </trkpt>
      <trkpt lat="47.06402" lon="-1.47935">
        <ele>24.59</ele>
        <time>2020-06-06T09:40:09Z</time>
      </trkpt>
      <trkpt lat="47.06408" lon="-1.47921">
        <ele>25.13</ele>
        <time>2020-06-06T09:40:11Z</time>
      </trkpt>
      <trkpt lat="47.06415" lon="-1.47904">
        <ele>26.01</ele>
        <time>2020-06-06T09:40:13Z</time>
      </trkpt>
      <trkpt lat="47.0642" lon="-1.47891">
        <ele>26.53</ele>
        <time>2020-06-06T09:40:15Z</time>
      </trkpt>
      <trkpt lat="47.06427" lon="-1.47877">
        <ele>26.06</ele>
        <time>2020-06-06T09:40:17Z</time>
      </trkpt>
      <trkpt lat="47.06432" lon="-1.47864">
        <ele>25.54</ele>
        <time>2020-06-06T09:40:19Z</time>
      </trkpt>
      <trkpt lat="47.06439" lon="-1.4785">
        <ele>25.12</ele>
        <time>2020-06-06T09:40:21Z</time>
      </trkpt>
      <trkpt lat="47.06444" lon="-1.47837">
        <ele>26.23</ele>
        <time>2020-06-06T09:40:23Z</time>
      </trkpt>
      <trkpt lat="47.0645" lon="-1.47824">
        <ele>27</ele>
        <time>2020-06-06T09:40:25Z</time>
      </trkpt>
      <trkpt lat="47.06457" lon="-1.4781">
        <ele>25.94</ele>
        <time>2020-06-06T09:40:27Z</time>
      </trkpt>
      <trkpt lat="47.06465" lon="-1.47796">
        <ele>25.14</ele>
        <time>2020-06-06T09:40:29Z</time>
      </trkpt>
      <trkpt lat="47.06474" lon="-1.47781">
        <ele>25.65</ele>
        <time>2020-06-06T09:40:31Z</time>
      </trkpt>
      <trkpt lat="47.06483" lon="-1.47767">
        <ele>27.14</ele>
        <time>2020-06-06T09:40:33Z</time>
      </trkpt>
      <trkpt lat="47.06492" lon="-1.47756">
        <ele>27.46</ele>
        <time>2020-06-06T09:40:35Z</time>
      </trkpt>
      <trkpt lat="47.065" lon="-1.47745">
        <ele>28.05</ele>
        <time>2020-06-06T09:40:37Z</time>
      </trkpt>
      <trkpt lat="47.0651" lon="-1.47731">
        <ele>29.21</ele>
        <time>2020-06-06T09:40:39Z</time>
      </trkpt>
      <trkpt lat="47.06519" lon="-1.47718">
        <ele>29.11</ele>
        <time>2020-06-06T09:40:41Z</time>
      </trkpt>
      <trkpt lat="47.06527" lon="-1.47706">
        <ele>28.43</ele>
        <time>2020-06-06T09:40:43Z</time>
      </trkpt>
      <trkpt lat="47.06535" lon="-1.47693">
        <ele>27.41</ele>
        <time>2020-06-06T09:40:45Z</time>
      </trkpt>
      <trkpt lat="47.06544" lon="-1.47679">
        <ele>28.38</ele>
        <time>2020-06-06T09:40:47Z</time>
      </trkpt>
      <trkpt lat="47.06551" lon="-1.47666">
        <ele>30.25</ele>
        <time>2020-06-06T09:40:49Z</time>
      </trkpt>
      <trkpt lat="47.06558" lon="-1.47652">
        <ele>31.48</ele>
        <time>2020-06-06T09:40:51Z</time>
      </trkpt>
      <trkpt lat="47.06565" lon="-1.47639">
        <ele>32.24</ele>
        <time>2020-06-06T09:40:53Z</time>
      </trkpt>
      <trkpt lat="47.06573" lon="-1.47625">
        <ele>32.26</ele>
        <time>2020-06-06T09:40:55Z</time>
      </trkpt>
      <trkpt lat="47.0658" lon="-1.47612">
        <ele>32.13</ele>
        <time>2020-06-06T09:40:57Z</time>
      </trkpt>
      <trkpt lat="47.06588" lon="-1.476">
        <ele>32.44</ele>
        <time>2020-06-06T09:40:59Z</time>
      </trkpt>
      <trkpt lat="47.06594" lon="-1.4759">
        <ele>32.16</ele>
        <time>2020-06-06T09:41:01Z</time>
      </trkpt>
      <trkpt lat="47.06602" lon="-1.47575">
        <ele>31.74</ele>
        <time>2020-06-06T09:41:03Z</time>
      </trkpt>
      <trkpt lat="47.0661" lon="-1.47563">
        <ele>30.27</ele>
        <time>2020-06-06T09:41:05Z</time>
      </trkpt>
      <trkpt lat="47.06617" lon="-1.4755">
        <ele>30.15</ele>
        <time>2020-06-06T09:41:07Z</time>
      </trkpt>
      <trkpt lat="47.06625" lon="-1.47537">
        <ele>30.26</ele>
        <time>2020-06-06T09:41:09Z</time>
      </trkpt>
      <trkpt lat="47.06633" lon="-1.47521">
        <ele>29.87</ele>
        <time>2020-06-06T09:41:11Z</time>
      </trkpt>
      <trkpt lat="47.06641" lon="-1.47507">
        <ele>29.49</ele>
        <time>2020-06-06T09:41:13Z</time>
      </trkpt>
      <trkpt lat="47.06649" lon="-1.47494">
        <ele>29.88</ele>
        <time>2020-06-06T09:41:15Z</time>
      </trkpt>
      <trkpt lat="47.06657" lon="-1.47482">
        <ele>30.48</ele>
        <time>2020-06-06T09:41:17Z</time>
      </trkpt>
      <trkpt lat="47.06665" lon="-1.47469">
        <ele>29.99</ele>
        <time>2020-06-06T09:41:19Z</time>
      </trkpt>
      <trkpt lat="47.06673" lon="-1.47456">
        <ele>29.42</ele>
        <time>2020-06-06T09:41:21Z</time>
      </trkpt>
      <trkpt lat="47.06681" lon="-1.47443">
        <ele>29.74</ele>
        <time>2020-06-06T09:41:23Z</time>
      </trkpt>
      <trkpt lat="47.06688" lon="-1.47431">
        <ele>30.5</ele>
        <time>2020-06-06T09:41:25Z</time>
      </trkpt>
      <trkpt lat="47.06696" lon="-1.47417">
        <ele>30.62</ele>
        <time>2020-06-06T09:41:27Z</time>
      </trkpt>
      <trkpt lat="47.06704" lon="-1.47402">
        <ele>30.58</ele>
        <time>2020-06-06T09:41:29Z</time>
      </trkpt>
      <trkpt lat="47.06711" lon="-1.47388">
        <ele>30.35</ele>
        <time>2020-06-06T09:41:31Z</time>
      </trkpt>
      <trkpt lat="47.06717" lon="-1.47375">
        <ele>31.21</ele>
        <time>2020-06-06T09:41:33Z</time>
      </trkpt>
      <trkpt lat="47.06723" lon="-1.47359">
        <ele>32.35</ele>
        <time>2020-06-06T09:41:35Z</time>
      </trkpt>
      <trkpt lat="47.06728" lon="-1.47346">
        <ele>33.14</ele>
        <time>2020-06-06T09:41:37Z</time>
      </trkpt>
      <trkpt lat="47.06732" lon="-1.47331">
        <ele>33.61</ele>
        <time>2020-06-06T09:41:39Z</time>
      </trkpt>
      <trkpt lat="47.06736" lon="-1.47315">
        <ele>34.07</ele>
        <time>2020-06-06T09:41:41Z</time>
      </trkpt>
      <trkpt lat="47.0674" lon="-1.47297">
        <ele>34.59</ele>
        <time>2020-06-06T09:41:43Z</time>
      </trkpt>
      <trkpt lat="47.06744" lon="-1.47279">
        <ele>34.82</ele>
        <time>2020-06-06T09:41:45Z</time>
      </trkpt>
      <trkpt lat="47.06748" lon="-1.47263">
        <ele>35.72</ele>
        <time>2020-06-06T09:41:47Z</time>
      </trkpt>
      <trkpt lat="47.06752" lon="-1.47246">
        <ele>36.46</ele>
        <time>2020-06-06T09:41:49Z</time>
      </trkpt>
      <trkpt lat="47.06756" lon="-1.4723">
        <ele>36.06</ele>
        <time>2020-06-06T09:41:51Z</time>
      </trkpt>
      <trkpt lat="47.0676" lon="-1.47213">
        <ele>36.13</ele>
        <time>2020-06-06T09:41:53Z</time>
      </trkpt>
      <trkpt lat="47.06765" lon="-1.47197">
        <ele>37.48</ele>
        <time>2020-06-06T09:41:55Z</time>
      </trkpt>
      <trkpt lat="47.06769" lon="-1.47181">
        <ele>38.59</ele>
        <time>2020-06-06T09:41:57Z</time>
      </trkpt>
      <trkpt lat="47.06773" lon="-1.47164">
        <ele>39.38</ele>
        <time>2020-06-06T09:41:59Z</time>
      </trkpt>
      <trkpt lat="47.06777" lon="-1.47151">
        <ele>39.14</ele>
        <time>2020-06-06T09:42:01Z</time>
      </trkpt>
      <trkpt lat="47.06782" lon="-1.47134">
        <ele>38.43</ele>
        <time>2020-06-06T09:42:03Z</time>
      </trkpt>
      <trkpt lat="47.06787" lon="-1.47115">
        <ele>37.52</ele>
        <time>2020-06-06T09:42:05Z</time>
      </trkpt>
      <trkpt lat="47.06793" lon="-1.47097">
        <ele>36.75</ele>
        <time>2020-06-06T09:42:07Z</time>
      </trkpt>
      <trkpt lat="47.06802" lon="-1.47084">
        <ele>37.47</ele>
        <time>2020-06-06T09:42:09Z</time>
      </trkpt>
      <trkpt lat="47.06815" lon="-1.47074">
        <ele>37.83</ele>
        <time>2020-06-06T09:42:11Z</time>
      </trkpt>
      <trkpt lat="47.06826" lon="-1.47069">
        <ele>37.93</ele>
        <time>2020-06-06T09:42:13Z</time>
      </trkpt>
      <trkpt lat="47.06839" lon="-1.4707">
        <ele>37.8</ele>
        <time>2020-06-06T09:42:15Z</time>
      </trkpt>
      <trkpt lat="47.06852" lon="-1.47071">
        <ele>38.68</ele>
        <time>2020-06-06T09:42:17Z</time>
      </trkpt>
      <trkpt lat="47.06865" lon="-1.47073">
        <ele>38.76</ele>
        <time>2020-06-06T09:42:19Z</time>
      </trkpt>
      <trkpt lat="47.06876" lon="-1.47076">
        <ele>38.46</ele>
        <time>2020-06-06T09:42:21Z</time>
      </trkpt>
      <trkpt lat="47.06889" lon="-1.47077">
        <ele>39.01</ele>
        <time>2020-06-06T09:42:23Z</time>
      </trkpt>
      <trkpt lat="47.06901" lon="-1.4708">
        <ele>40.17</ele>
        <time>2020-06-06T09:42:25Z</time>
      </trkpt>
      <trkpt lat="47.06915" lon="-1.47082">
        <ele>39.8</ele>
        <time>2020-06-06T09:42:27Z</time>
      </trkpt>
      <trkpt lat="47.06929" lon="-1.47084">
        <ele>40.35</ele>
        <time>2020-06-06T09:42:29Z</time>
      </trkpt>
      <trkpt lat="47.06941" lon="-1.47086">
        <ele>40.75</ele>
        <time>2020-06-06T09:42:31Z</time>
      </trkpt>
      <trkpt lat="47.06953" lon="-1.47087">
        <ele>40.91</ele>
        <time>2020-06-06T09:42:33Z</time>
      </trkpt>
      <trkpt lat="47.06966" lon="-1.47087">
        <ele>41.04</ele>
        <time>2020-06-06T09:42:35Z</time>
      </trkpt>
      <trkpt lat="47.06978" lon="-1.47087">
        <ele>40.91</ele>
        <time>2020-06-06T09:42:37Z</time>
      </trkpt>
      <trkpt lat="47.06989" lon="-1.47086">
        <ele>40.38</ele>
        <time>2020-06-06T09:42:39Z</time>
      </trkpt>
      <trkpt lat="47.07" lon="-1.47084">
        <ele>41.17</ele>
        <time>2020-06-06T09:42:41Z</time>
      </trkpt>
      <trkpt lat="47.07013" lon="-1.47081">
        <ele>41.31</ele>
        <time>2020-06-06T09:42:43Z</time>
      </trkpt>
      <trkpt lat="47.07025" lon="-1.47079">
        <ele>41.36</ele>
        <time>2020-06-06T09:42:45Z</time>
      </trkpt>
      <trkpt lat="47.07038" lon="-1.47075">
        <ele>42.06</ele>
        <time>2020-06-06T09:42:47Z</time>
      </trkpt>
      <trkpt lat="47.07049" lon="-1.47072">
        <ele>43.01</ele>
        <time>2020-06-06T09:42:49Z</time>
      </trkpt>
      <trkpt lat="47.07062" lon="-1.47069">
        <ele>43.05</ele>
        <time>2020-06-06T09:42:51Z</time>
      </trkpt>
      <trkpt lat="47.07073" lon="-1.47066">
        <ele>42.51</ele>
        <time>2020-06-06T09:42:53Z</time>
      </trkpt>
      <trkpt lat="47.07084" lon="-1.47064">
        <ele>42.54</ele>
        <time>2020-06-06T09:42:55Z</time>
      </trkpt>
      <trkpt lat="47.07097" lon="-1.47061">
        <ele>42.42</ele>
        <time>2020-06-06T09:42:57Z</time>
      </trkpt>
      <trkpt lat="47.07111" lon="-1.47058">
        <ele>42.86</ele>
        <time>2020-06-06T09:43:00Z</time>
      </trkpt>
      <trkpt lat="47.07125" lon="-1.47057">
        <ele>42.37</ele>
        <time>2020-06-06T09:43:01Z</time>
      </trkpt>
      <trkpt lat="47.0714" lon="-1.47056">
        <ele>41.42</ele>
        <time>2020-06-06T09:43:03Z</time>
      </trkpt>
      <trkpt lat="47.07154" lon="-1.47056">
        <ele>39.75</ele>
        <time>2020-06-06T09:43:05Z</time>
      </trkpt>
      <trkpt lat="47.07167" lon="-1.47059">
        <ele>38.83</ele>
        <time>2020-06-06T09:43:07Z</time>
      </trkpt>
      <trkpt lat="47.07182" lon="-1.47062">
        <ele>38.61</ele>
        <time>2020-06-06T09:43:09Z</time>
      </trkpt>
      <trkpt lat="47.07196" lon="-1.47065">
        <ele>38.5</ele>
        <time>2020-06-06T09:43:12Z</time>
      </trkpt>
      <trkpt lat="47.07211" lon="-1.47065">
        <ele>38.37</ele>
        <time>2020-06-06T09:43:14Z</time>
      </trkpt>
      <trkpt lat="47.07228" lon="-1.47064">
        <ele>37.87</ele>
        <time>2020-06-06T09:43:16Z</time>
      </trkpt>
      <trkpt lat="47.07238" lon="-1.47062">
        <ele>37.72</ele>
        <time>2020-06-06T09:43:17Z</time>
      </trkpt>
      <trkpt lat="47.07247" lon="-1.4706">
        <ele>37.45</ele>
        <time>2020-06-06T09:43:18Z</time>
      </trkpt>
      <trkpt lat="47.07263" lon="-1.47055">
        <ele>37.02</ele>
        <time>2020-06-06T09:43:20Z</time>
      </trkpt>
      <trkpt lat="47.07279" lon="-1.4705">
        <ele>36.34</ele>
        <time>2020-06-06T09:43:22Z</time>
      </trkpt>
      <trkpt lat="47.07289" lon="-1.47046">
        <ele>35.86</ele>
        <time>2020-06-06T09:43:23Z</time>
      </trkpt>
      <trkpt lat="47.07298" lon="-1.47041">
        <ele>35.64</ele>
        <time>2020-06-06T09:43:24Z</time>
      </trkpt>
      <trkpt lat="47.07306" lon="-1.47036">
        <ele>34.99</ele>
        <time>2020-06-06T09:43:25Z</time>
      </trkpt>
      <trkpt lat="47.07322" lon="-1.47025">
        <ele>33.99</ele>
        <time>2020-06-06T09:43:27Z</time>
      </trkpt>
      <trkpt lat="47.07331" lon="-1.47018">
        <ele>33.62</ele>
        <time>2020-06-06T09:43:28Z</time>
      </trkpt>
      <trkpt lat="47.07344" lon="-1.47006">
        <ele>33.14</ele>
        <time>2020-06-06T09:43:30Z</time>
      </trkpt>
      <trkpt lat="47.07352" lon="-1.46998">
        <ele>32.44</ele>
        <time>2020-06-06T09:43:31Z</time>
      </trkpt>
      <trkpt lat="47.0736" lon="-1.46991">
        <ele>32.01</ele>
        <time>2020-06-06T09:43:32Z</time>
      </trkpt>
      <trkpt lat="47.07374" lon="-1.46976">
        <ele>31.65</ele>
        <time>2020-06-06T09:43:34Z</time>
      </trkpt>
      <trkpt lat="47.07381" lon="-1.46966">
        <ele>31.6</ele>
        <time>2020-06-06T09:43:35Z</time>
      </trkpt>
      <trkpt lat="47.07388" lon="-1.46957">
        <ele>31.32</ele>
        <time>2020-06-06T09:43:36Z</time>
      </trkpt>
      <trkpt lat="47.07399" lon="-1.46938">
        <ele>31.5</ele>
        <time>2020-06-06T09:43:38Z</time>
      </trkpt>
      <trkpt lat="47.07408" lon="-1.46918">
        <ele>31.67</ele>
        <time>2020-06-06T09:43:40Z</time>
      </trkpt>
      <trkpt lat="47.07413" lon="-1.46907">
        <ele>31.64</ele>
        <time>2020-06-06T09:43:41Z</time>
      </trkpt>
      <trkpt lat="47.07419" lon="-1.46896">
        <ele>31.75</ele>
        <time>2020-06-06T09:43:42Z</time>
      </trkpt>
      <trkpt lat="47.07429" lon="-1.46875">
        <ele>31.75</ele>
        <time>2020-06-06T09:43:44Z</time>
      </trkpt>
      <trkpt lat="47.07437" lon="-1.4686">
        <ele>31.35</ele>
        <time>2020-06-06T09:43:46Z</time>
      </trkpt>
      <trkpt lat="47.07447" lon="-1.46844">
        <ele>31.73</ele>
        <time>2020-06-06T09:43:48Z</time>
      </trkpt>
      <trkpt lat="47.07458" lon="-1.4683">
        <ele>31.82</ele>
        <time>2020-06-06T09:43:50Z</time>
      </trkpt>
      <trkpt lat="47.0747" lon="-1.46818">
        <ele>31.46</ele>
        <time>2020-06-06T09:43:52Z</time>
      </trkpt>
      <trkpt lat="47.07484" lon="-1.46807">
        <ele>31.18</ele>
        <time>2020-06-06T09:43:54Z</time>
      </trkpt>
      <trkpt lat="47.07498" lon="-1.46797">
        <ele>31.22</ele>
        <time>2020-06-06T09:43:56Z</time>
      </trkpt>
      <trkpt lat="47.07512" lon="-1.46789">
        <ele>31.52</ele>
        <time>2020-06-06T09:43:58Z</time>
      </trkpt>
      <trkpt lat="47.07527" lon="-1.46784">
        <ele>32.08</ele>
        <time>2020-06-06T09:44:00Z</time>
      </trkpt>
      <trkpt lat="47.07536" lon="-1.46781">
        <ele>32.31</ele>
        <time>2020-06-06T09:44:01Z</time>
      </trkpt>
      <trkpt lat="47.07551" lon="-1.46779">
        <ele>32.36</ele>
        <time>2020-06-06T09:44:03Z</time>
      </trkpt>
      <trkpt lat="47.07568" lon="-1.46778">
        <ele>31.99</ele>
        <time>2020-06-06T09:44:05Z</time>
      </trkpt>
      <trkpt lat="47.07582" lon="-1.46778">
        <ele>31.44</ele>
        <time>2020-06-06T09:44:07Z</time>
      </trkpt>
      <trkpt lat="47.07598" lon="-1.46781">
        <ele>31.43</ele>
        <time>2020-06-06T09:44:09Z</time>
      </trkpt>
      <trkpt lat="47.07615" lon="-1.46786">
        <ele>31.19</ele>
        <time>2020-06-06T09:44:11Z</time>
      </trkpt>
      <trkpt lat="47.0763" lon="-1.46789">
        <ele>30.85</ele>
        <time>2020-06-06T09:44:13Z</time>
      </trkpt>
      <trkpt lat="47.07646" lon="-1.46794">
        <ele>30.74</ele>
        <time>2020-06-06T09:44:15Z</time>
      </trkpt>
      <trkpt lat="47.07662" lon="-1.46799">
        <ele>30.09</ele>
        <time>2020-06-06T09:44:17Z</time>
      </trkpt>
      <trkpt lat="47.07678" lon="-1.46803">
        <ele>29.17</ele>
        <time>2020-06-06T09:44:19Z</time>
      </trkpt>
      <trkpt lat="47.07694" lon="-1.46807">
        <ele>28.49</ele>
        <time>2020-06-06T09:44:21Z</time>
      </trkpt>
      <trkpt lat="47.07709" lon="-1.46811">
        <ele>28.71</ele>
        <time>2020-06-06T09:44:23Z</time>
      </trkpt>
      <trkpt lat="47.07725" lon="-1.46815">
        <ele>28.45</ele>
        <time>2020-06-06T09:44:25Z</time>
      </trkpt>
      <trkpt lat="47.07741" lon="-1.46817">
        <ele>27.52</ele>
        <time>2020-06-06T09:44:27Z</time>
      </trkpt>
      <trkpt lat="47.07758" lon="-1.4682">
        <ele>27.55</ele>
        <time>2020-06-06T09:44:29Z</time>
      </trkpt>
      <trkpt lat="47.07776" lon="-1.4682">
        <ele>26.82</ele>
        <time>2020-06-06T09:44:31Z</time>
      </trkpt>
      <trkpt lat="47.07791" lon="-1.46817">
        <ele>26.6</ele>
        <time>2020-06-06T09:44:33Z</time>
      </trkpt>
      <trkpt lat="47.07807" lon="-1.46812">
        <ele>27.31</ele>
        <time>2020-06-06T09:44:35Z</time>
      </trkpt>
      <trkpt lat="47.07824" lon="-1.46806">
        <ele>27.85</ele>
        <time>2020-06-06T09:44:37Z</time>
      </trkpt>
      <trkpt lat="47.07837" lon="-1.46802">
        <ele>28.3</ele>
        <time>2020-06-06T09:44:39Z</time>
      </trkpt>
      <trkpt lat="47.0785" lon="-1.46798">
        <ele>28.97</ele>
        <time>2020-06-06T09:44:41Z</time>
      </trkpt>
      <trkpt lat="47.07864" lon="-1.46794">
        <ele>29.83</ele>
        <time>2020-06-06T09:44:43Z</time>
      </trkpt>
      <trkpt lat="47.07877" lon="-1.46791">
        <ele>30.43</ele>
        <time>2020-06-06T09:44:45Z</time>
      </trkpt>
      <trkpt lat="47.0789" lon="-1.46787">
        <ele>30.7</ele>
        <time>2020-06-06T09:44:47Z</time>
      </trkpt>
      <trkpt lat="47.07903" lon="-1.46782">
        <ele>30.75</ele>
        <time>2020-06-06T09:44:49Z</time>
      </trkpt>
      <trkpt lat="47.07918" lon="-1.46778">
        <ele>31.08</ele>
        <time>2020-06-06T09:44:51Z</time>
      </trkpt>
      <trkpt lat="47.0793" lon="-1.46775">
        <ele>31.34</ele>
        <time>2020-06-06T09:44:53Z</time>
      </trkpt>
      <trkpt lat="47.07945" lon="-1.46771">
        <ele>32.02</ele>
        <time>2020-06-06T09:44:55Z</time>
      </trkpt>
      <trkpt lat="47.07958" lon="-1.46767">
        <ele>32.71</ele>
        <time>2020-06-06T09:44:57Z</time>
      </trkpt>
      <trkpt lat="47.07971" lon="-1.46763">
        <ele>33.24</ele>
        <time>2020-06-06T09:44:59Z</time>
      </trkpt>
      <trkpt lat="47.07986" lon="-1.4676">
        <ele>33.73</ele>
        <time>2020-06-06T09:45:01Z</time>
      </trkpt>
      <trkpt lat="47.08" lon="-1.46757">
        <ele>33.95</ele>
        <time>2020-06-06T09:45:03Z</time>
      </trkpt>
      <trkpt lat="47.08015" lon="-1.46754">
        <ele>33.53</ele>
        <time>2020-06-06T09:45:05Z</time>
      </trkpt>
      <trkpt lat="47.0803" lon="-1.46751">
        <ele>33.64</ele>
        <time>2020-06-06T09:45:07Z</time>
      </trkpt>
      <trkpt lat="47.08042" lon="-1.46748">
        <ele>33.69</ele>
        <time>2020-06-06T09:45:09Z</time>
      </trkpt>
      <trkpt lat="47.08056" lon="-1.46744">
        <ele>33.51</ele>
        <time>2020-06-06T09:45:11Z</time>
      </trkpt>
      <trkpt lat="47.08068" lon="-1.4674">
        <ele>32.88</ele>
        <time>2020-06-06T09:45:13Z</time>
      </trkpt>
      <trkpt lat="47.08082" lon="-1.46735">
        <ele>32.75</ele>
        <time>2020-06-06T09:45:15Z</time>
      </trkpt>
      <trkpt lat="47.08095" lon="-1.46732">
        <ele>32.8</ele>
        <time>2020-06-06T09:45:17Z</time>
      </trkpt>
      <trkpt lat="47.0811" lon="-1.46729">
        <ele>33.48</ele>
        <time>2020-06-06T09:45:19Z</time>
      </trkpt>
      <trkpt lat="47.08125" lon="-1.46726">
        <ele>33.39</ele>
        <time>2020-06-06T09:45:21Z</time>
      </trkpt>
      <trkpt lat="47.08137" lon="-1.46722">
        <ele>33.56</ele>
        <time>2020-06-06T09:45:23Z</time>
      </trkpt>
      <trkpt lat="47.0815" lon="-1.46719">
        <ele>33.6</ele>
        <time>2020-06-06T09:45:25Z</time>
      </trkpt>
      <trkpt lat="47.08163" lon="-1.46715">
        <ele>33.65</ele>
        <time>2020-06-06T09:45:27Z</time>
      </trkpt>
      <trkpt lat="47.08179" lon="-1.46711">
        <ele>33.76</ele>
        <time>2020-06-06T09:45:29Z</time>
      </trkpt>
      <trkpt lat="47.08193" lon="-1.46708">
        <ele>33.32</ele>
        <time>2020-06-06T09:45:31Z</time>
      </trkpt>
      <trkpt lat="47.08208" lon="-1.46705">
        <ele>32.94</ele>
        <time>2020-06-06T09:45:33Z</time>
      </trkpt>
      <trkpt lat="47.08223" lon="-1.467">
        <ele>33.08</ele>
        <time>2020-06-06T09:45:35Z</time>
      </trkpt>
      <trkpt lat="47.08238" lon="-1.46694">
        <ele>33.46</ele>
        <time>2020-06-06T09:45:37Z</time>
      </trkpt>
      <trkpt lat="47.08252" lon="-1.46689">
        <ele>34.39</ele>
        <time>2020-06-06T09:45:39Z</time>
      </trkpt>
      <trkpt lat="47.08268" lon="-1.46681">
        <ele>34.65</ele>
        <time>2020-06-06T09:45:41Z</time>
      </trkpt>
      <trkpt lat="47.08282" lon="-1.46672">
        <ele>34.09</ele>
        <time>2020-06-06T09:45:43Z</time>
      </trkpt>
      <trkpt lat="47.08293" lon="-1.46662">
        <ele>33.43</ele>
        <time>2020-06-06T09:45:45Z</time>
      </trkpt>
      <trkpt lat="47.08306" lon="-1.46649">
        <ele>33.23</ele>
        <time>2020-06-06T09:45:47Z</time>
      </trkpt>
      <trkpt lat="47.08316" lon="-1.46635">
        <ele>32.59</ele>
        <time>2020-06-06T09:45:49Z</time>
      </trkpt>
      <trkpt lat="47.08326" lon="-1.46619">
        <ele>32.5</ele>
        <time>2020-06-06T09:45:51Z</time>
      </trkpt>
      <trkpt lat="47.08334" lon="-1.46604">
        <ele>32.81</ele>
        <time>2020-06-06T09:45:53Z</time>
      </trkpt>
      <trkpt lat="47.08343" lon="-1.46588">
        <ele>33.29</ele>
        <time>2020-06-06T09:45:55Z</time>
      </trkpt>
      <trkpt lat="47.08351" lon="-1.46574">
        <ele>33.2</ele>
        <time>2020-06-06T09:45:57Z</time>
      </trkpt>
      <trkpt lat="47.0836" lon="-1.46559">
        <ele>33.05</ele>
        <time>2020-06-06T09:45:59Z</time>
      </trkpt>
      <trkpt lat="47.08368" lon="-1.46543">
        <ele>33.15</ele>
        <time>2020-06-06T09:46:01Z</time>
      </trkpt>
      <trkpt lat="47.08375" lon="-1.4653">
        <ele>33.38</ele>
        <time>2020-06-06T09:46:03Z</time>
      </trkpt>
      <trkpt lat="47.08385" lon="-1.46513">
        <ele>33.54</ele>
        <time>2020-06-06T09:46:05Z</time>
      </trkpt>
      <trkpt lat="47.08394" lon="-1.46497">
        <ele>33.85</ele>
        <time>2020-06-06T09:46:07Z</time>
      </trkpt>
      <trkpt lat="47.08403" lon="-1.46482">
        <ele>33.81</ele>
        <time>2020-06-06T09:46:09Z</time>
      </trkpt>
      <trkpt lat="47.08411" lon="-1.46468">
        <ele>33.71</ele>
        <time>2020-06-06T09:46:11Z</time>
      </trkpt>
      <trkpt lat="47.08419" lon="-1.46454">
        <ele>34.15</ele>
        <time>2020-06-06T09:46:13Z</time>
      </trkpt>
      <trkpt lat="47.08429" lon="-1.46439">
        <ele>34.41</ele>
        <time>2020-06-06T09:46:15Z</time>
      </trkpt>
      <trkpt lat="47.08437" lon="-1.46426">
        <ele>35.08</ele>
        <time>2020-06-06T09:46:17Z</time>
      </trkpt>
      <trkpt lat="47.08447" lon="-1.4641">
        <ele>35.11</ele>
        <time>2020-06-06T09:46:19Z</time>
      </trkpt>
      <trkpt lat="47.08456" lon="-1.46395">
        <ele>35.68</ele>
        <time>2020-06-06T09:46:21Z</time>
      </trkpt>
      <trkpt lat="47.08464" lon="-1.46381">
        <ele>36.49</ele>
        <time>2020-06-06T09:46:23Z</time>
      </trkpt>
      <trkpt lat="47.08473" lon="-1.46365">
        <ele>36.98</ele>
        <time>2020-06-06T09:46:25Z</time>
      </trkpt>
      <trkpt lat="47.08482" lon="-1.46349">
        <ele>36.89</ele>
        <time>2020-06-06T09:46:27Z</time>
      </trkpt>
      <trkpt lat="47.08491" lon="-1.46335">
        <ele>37.11</ele>
        <time>2020-06-06T09:46:29Z</time>
      </trkpt>
      <trkpt lat="47.08498" lon="-1.46323">
        <ele>37.18</ele>
        <time>2020-06-06T09:46:31Z</time>
      </trkpt>
      <trkpt lat="47.08506" lon="-1.46308">
        <ele>38.11</ele>
        <time>2020-06-06T09:46:33Z</time>
      </trkpt>
      <trkpt lat="47.08516" lon="-1.46293">
        <ele>38.59</ele>
        <time>2020-06-06T09:46:35Z</time>
      </trkpt>
      <trkpt lat="47.08524" lon="-1.4628">
        <ele>38.76</ele>
        <time>2020-06-06T09:46:37Z</time>
      </trkpt>
      <trkpt lat="47.08533" lon="-1.46266">
        <ele>38.98</ele>
        <time>2020-06-06T09:46:39Z</time>
      </trkpt>
      <trkpt lat="47.08542" lon="-1.4625">
        <ele>39.31</ele>
        <time>2020-06-06T09:46:41Z</time>
      </trkpt>
      <trkpt lat="47.08549" lon="-1.46237">
        <ele>39.39</ele>
        <time>2020-06-06T09:46:43Z</time>
      </trkpt>
      <trkpt lat="47.08558" lon="-1.46222">
        <ele>39.3</ele>
        <time>2020-06-06T09:46:45Z</time>
      </trkpt>
      <trkpt lat="47.08565" lon="-1.46207">
        <ele>39.17</ele>
        <time>2020-06-06T09:46:47Z</time>
      </trkpt>
      <trkpt lat="47.08574" lon="-1.46192">
        <ele>39.7</ele>
        <time>2020-06-06T09:46:49Z</time>
      </trkpt>
      <trkpt lat="47.08582" lon="-1.46178">
        <ele>40.12</ele>
        <time>2020-06-06T09:46:51Z</time>
      </trkpt>
      <trkpt lat="47.08592" lon="-1.46159">
        <ele>39.94</ele>
        <time>2020-06-06T09:46:53Z</time>
      </trkpt>
      <trkpt lat="47.086" lon="-1.46142">
        <ele>39.53</ele>
        <time>2020-06-06T09:46:55Z</time>
      </trkpt>
      <trkpt lat="47.08606" lon="-1.46124">
        <ele>39.48</ele>
        <time>2020-06-06T09:46:57Z</time>
      </trkpt>
      <trkpt lat="47.08614" lon="-1.46102">
        <ele>39.12</ele>
        <time>2020-06-06T09:46:59Z</time>
      </trkpt>
      <trkpt lat="47.08622" lon="-1.4608">
        <ele>38.47</ele>
        <time>2020-06-06T09:47:01Z</time>
      </trkpt>
      <trkpt lat="47.08628" lon="-1.4606">
        <ele>37.95</ele>
        <time>2020-06-06T09:47:03Z</time>
      </trkpt>
      <trkpt lat="47.08633" lon="-1.46047">
        <ele>37.58</ele>
        <time>2020-06-06T09:47:04Z</time>
      </trkpt>
      <trkpt lat="47.0864" lon="-1.46026">
        <ele>37.03</ele>
        <time>2020-06-06T09:47:06Z</time>
      </trkpt>
      <trkpt lat="47.08646" lon="-1.46005">
        <ele>36.08</ele>
        <time>2020-06-06T09:47:08Z</time>
      </trkpt>
      <trkpt lat="47.08653" lon="-1.45984">
        <ele>34.88</ele>
        <time>2020-06-06T09:47:10Z</time>
      </trkpt>
      <trkpt lat="47.08661" lon="-1.45961">
        <ele>34.24</ele>
        <time>2020-06-06T09:47:12Z</time>
      </trkpt>
      <trkpt lat="47.0867" lon="-1.45938">
        <ele>33.74</ele>
        <time>2020-06-06T09:47:14Z</time>
      </trkpt>
      <trkpt lat="47.08677" lon="-1.45917">
        <ele>33.54</ele>
        <time>2020-06-06T09:47:16Z</time>
      </trkpt>
      <trkpt lat="47.08685" lon="-1.45896">
        <ele>34.33</ele>
        <time>2020-06-06T09:47:18Z</time>
      </trkpt>
      <trkpt lat="47.08692" lon="-1.45876">
        <ele>33.3</ele>
        <time>2020-06-06T09:47:20Z</time>
      </trkpt>
      <trkpt lat="47.087" lon="-1.45854">
        <ele>32.96</ele>
        <time>2020-06-06T09:47:22Z</time>
      </trkpt>
      <trkpt lat="47.08707" lon="-1.45834">
        <ele>32.57</ele>
        <time>2020-06-06T09:47:24Z</time>
      </trkpt>
      <trkpt lat="47.08712" lon="-1.45815">
        <ele>32.15</ele>
        <time>2020-06-06T09:47:26Z</time>
      </trkpt>
      <trkpt lat="47.08719" lon="-1.45796">
        <ele>32.76</ele>
        <time>2020-06-06T09:47:28Z</time>
      </trkpt>
      <trkpt lat="47.08726" lon="-1.45774">
        <ele>32.3</ele>
        <time>2020-06-06T09:47:30Z</time>
      </trkpt>
      <trkpt lat="47.08731" lon="-1.45758">
        <ele>31.84</ele>
        <time>2020-06-06T09:47:32Z</time>
      </trkpt>
      <trkpt lat="47.08737" lon="-1.45742">
        <ele>31.62</ele>
        <time>2020-06-06T09:47:34Z</time>
      </trkpt>
      <trkpt lat="47.08742" lon="-1.45728">
        <ele>31.56</ele>
        <time>2020-06-06T09:47:36Z</time>
      </trkpt>
      <trkpt lat="47.08748" lon="-1.45715">
        <ele>30.98</ele>
        <time>2020-06-06T09:47:38Z</time>
      </trkpt>
      <trkpt lat="47.08754" lon="-1.45702">
        <ele>30.67</ele>
        <time>2020-06-06T09:47:40Z</time>
      </trkpt>
      <trkpt lat="47.08761" lon="-1.45689">
        <ele>30.81</ele>
        <time>2020-06-06T09:47:42Z</time>
      </trkpt>
      <trkpt lat="47.08769" lon="-1.45674">
        <ele>32.36</ele>
        <time>2020-06-06T09:47:44Z</time>
      </trkpt>
      <trkpt lat="47.08777" lon="-1.4566">
        <ele>33.28</ele>
        <time>2020-06-06T09:47:46Z</time>
      </trkpt>
      <trkpt lat="47.08786" lon="-1.45646">
        <ele>34.33</ele>
        <time>2020-06-06T09:47:48Z</time>
      </trkpt>
      <trkpt lat="47.08796" lon="-1.45632">
        <ele>35.78</ele>
        <time>2020-06-06T09:47:50Z</time>
      </trkpt>
      <trkpt lat="47.08804" lon="-1.45619">
        <ele>37.53</ele>
        <time>2020-06-06T09:47:52Z</time>
      </trkpt>
      <trkpt lat="47.08812" lon="-1.45609">
        <ele>39</ele>
        <time>2020-06-06T09:47:54Z</time>
      </trkpt>
      <trkpt lat="47.0882" lon="-1.45597">
        <ele>40.59</ele>
        <time>2020-06-06T09:47:56Z</time>
      </trkpt>
      <trkpt lat="47.08826" lon="-1.45587">
        <ele>41.91</ele>
        <time>2020-06-06T09:47:58Z</time>
      </trkpt>
      <trkpt lat="47.08834" lon="-1.45576">
        <ele>43.31</ele>
        <time>2020-06-06T09:48:00Z</time>
      </trkpt>
      <trkpt lat="47.08841" lon="-1.45564">
        <ele>43.67</ele>
        <time>2020-06-06T09:48:02Z</time>
      </trkpt>
      <trkpt lat="47.08848" lon="-1.45552">
        <ele>43.53</ele>
        <time>2020-06-06T09:48:04Z</time>
      </trkpt>
      <trkpt lat="47.08855" lon="-1.45542">
        <ele>43.26</ele>
        <time>2020-06-06T09:48:06Z</time>
      </trkpt>
      <trkpt lat="47.08861" lon="-1.45531">
        <ele>43.59</ele>
        <time>2020-06-06T09:48:08Z</time>
      </trkpt>
      <trkpt lat="47.0887" lon="-1.45518">
        <ele>43.64</ele>
        <time>2020-06-06T09:48:10Z</time>
      </trkpt>
      <trkpt lat="47.08878" lon="-1.45507">
        <ele>44.02</ele>
        <time>2020-06-06T09:48:12Z</time>
      </trkpt>
      <trkpt lat="47.08886" lon="-1.45493">
        <ele>45.14</ele>
        <time>2020-06-06T09:48:14Z</time>
      </trkpt>
      <trkpt lat="47.08893" lon="-1.45484">
        <ele>46.62</ele>
        <time>2020-06-06T09:48:16Z</time>
      </trkpt>
      <trkpt lat="47.08901" lon="-1.45471">
        <ele>47.33</ele>
        <time>2020-06-06T09:48:18Z</time>
      </trkpt>
      <trkpt lat="47.08909" lon="-1.4546">
        <ele>47.26</ele>
        <time>2020-06-06T09:48:20Z</time>
      </trkpt>
      <trkpt lat="47.08918" lon="-1.45449">
        <ele>47.96</ele>
        <time>2020-06-06T09:48:22Z</time>
      </trkpt>
      <trkpt lat="47.08929" lon="-1.45436">
        <ele>48.03</ele>
        <time>2020-06-06T09:48:24Z</time>
      </trkpt>
      <trkpt lat="47.0894" lon="-1.45423">
        <ele>47.42</ele>
        <time>2020-06-06T09:48:26Z</time>
      </trkpt>
      <trkpt lat="47.08951" lon="-1.45409">
        <ele>46.45</ele>
        <time>2020-06-06T09:48:28Z</time>
      </trkpt>
      <trkpt lat="47.08963" lon="-1.45396">
        <ele>44.98</ele>
        <time>2020-06-06T09:48:30Z</time>
      </trkpt>
      <trkpt lat="47.08975" lon="-1.45383">
        <ele>44.35</ele>
        <time>2020-06-06T09:48:32Z</time>
      </trkpt>
      <trkpt lat="47.08987" lon="-1.45371">
        <ele>42.97</ele>
        <time>2020-06-06T09:48:34Z</time>
      </trkpt>
      <trkpt lat="47.08999" lon="-1.45358">
        <ele>42.51</ele>
        <time>2020-06-06T09:48:36Z</time>
      </trkpt>
      <trkpt lat="47.0901" lon="-1.45347">
        <ele>42.97</ele>
        <time>2020-06-06T09:48:38Z</time>
      </trkpt>
      <trkpt lat="47.09021" lon="-1.45334">
        <ele>43.22</ele>
        <time>2020-06-06T09:48:40Z</time>
      </trkpt>
      <trkpt lat="47.09033" lon="-1.4532">
        <ele>42.29</ele>
        <time>2020-06-06T09:48:42Z</time>
      </trkpt>
      <trkpt lat="47.09044" lon="-1.45308">
        <ele>41.78</ele>
        <time>2020-06-06T09:48:44Z</time>
      </trkpt>
      <trkpt lat="47.09057" lon="-1.45293">
        <ele>41.01</ele>
        <time>2020-06-06T09:48:46Z</time>
      </trkpt>
      <trkpt lat="47.0907" lon="-1.45279">
        <ele>40.4</ele>
        <time>2020-06-06T09:48:48Z</time>
      </trkpt>
      <trkpt lat="47.09084" lon="-1.45262">
        <ele>40.17</ele>
        <time>2020-06-06T09:48:50Z</time>
      </trkpt>
      <trkpt lat="47.09095" lon="-1.45249">
        <ele>40.43</ele>
        <time>2020-06-06T09:48:52Z</time>
      </trkpt>
      <trkpt lat="47.09108" lon="-1.45235">
        <ele>41.01</ele>
        <time>2020-06-06T09:48:54Z</time>
      </trkpt>
      <trkpt lat="47.09121" lon="-1.45222">
        <ele>40.56</ele>
        <time>2020-06-06T09:48:56Z</time>
      </trkpt>
      <trkpt lat="47.09133" lon="-1.4521">
        <ele>40.31</ele>
        <time>2020-06-06T09:48:58Z</time>
      </trkpt>
      <trkpt lat="47.09147" lon="-1.45198">
        <ele>40</ele>
        <time>2020-06-06T09:49:00Z</time>
      </trkpt>
      <trkpt lat="47.0916" lon="-1.45187">
        <ele>40.16</ele>
        <time>2020-06-06T09:49:02Z</time>
      </trkpt>
      <trkpt lat="47.09174" lon="-1.45176">
        <ele>40.35</ele>
        <time>2020-06-06T09:49:04Z</time>
      </trkpt>
      <trkpt lat="47.09186" lon="-1.45167">
        <ele>40.19</ele>
        <time>2020-06-06T09:49:06Z</time>
      </trkpt>
      <trkpt lat="47.09199" lon="-1.45156">
        <ele>39.97</ele>
        <time>2020-06-06T09:49:08Z</time>
      </trkpt>
      <trkpt lat="47.0921" lon="-1.45146">
        <ele>39.68</ele>
        <time>2020-06-06T09:49:10Z</time>
      </trkpt>
      <trkpt lat="47.09223" lon="-1.45134">
        <ele>40.33</ele>
        <time>2020-06-06T09:49:12Z</time>
      </trkpt>
      <trkpt lat="47.09235" lon="-1.45125">
        <ele>40.67</ele>
        <time>2020-06-06T09:49:14Z</time>
      </trkpt>
      <trkpt lat="47.09247" lon="-1.45115">
        <ele>40.38</ele>
        <time>2020-06-06T09:49:16Z</time>
      </trkpt>
      <trkpt lat="47.09259" lon="-1.45105">
        <ele>40.81</ele>
        <time>2020-06-06T09:49:18Z</time>
      </trkpt>
      <trkpt lat="47.09271" lon="-1.45095">
        <ele>40.68</ele>
        <time>2020-06-06T09:49:20Z</time>
      </trkpt>
      <trkpt lat="47.09282" lon="-1.45086">
        <ele>40.94</ele>
        <time>2020-06-06T09:49:22Z</time>
      </trkpt>
      <trkpt lat="47.09293" lon="-1.45076">
        <ele>40.82</ele>
        <time>2020-06-06T09:49:24Z</time>
      </trkpt>
      <trkpt lat="47.09304" lon="-1.45065">
        <ele>39.55</ele>
        <time>2020-06-06T09:49:26Z</time>
      </trkpt>
      <trkpt lat="47.09316" lon="-1.45055">
        <ele>39.26</ele>
        <time>2020-06-06T09:49:28Z</time>
      </trkpt>
      <trkpt lat="47.09328" lon="-1.45045">
        <ele>39.65</ele>
        <time>2020-06-06T09:49:30Z</time>
      </trkpt>
      <trkpt lat="47.09339" lon="-1.45036">
        <ele>40.04</ele>
        <time>2020-06-06T09:49:32Z</time>
      </trkpt>
      <trkpt lat="47.09351" lon="-1.45026">
        <ele>40.1</ele>
        <time>2020-06-06T09:49:34Z</time>
      </trkpt>
      <trkpt lat="47.09361" lon="-1.45017">
        <ele>40.65</ele>
        <time>2020-06-06T09:49:36Z</time>
      </trkpt>
      <trkpt lat="47.09373" lon="-1.45008">
        <ele>41.33</ele>
        <time>2020-06-06T09:49:38Z</time>
      </trkpt>
      <trkpt lat="47.09384" lon="-1.44997">
        <ele>41.39</ele>
        <time>2020-06-06T09:49:40Z</time>
      </trkpt>
      <trkpt lat="47.09395" lon="-1.44987">
        <ele>41.37</ele>
        <time>2020-06-06T09:49:42Z</time>
      </trkpt>
      <trkpt lat="47.09405" lon="-1.44978">
        <ele>42.29</ele>
        <time>2020-06-06T09:49:44Z</time>
      </trkpt>
      <trkpt lat="47.09414" lon="-1.4497">
        <ele>43.25</ele>
        <time>2020-06-06T09:49:46Z</time>
      </trkpt>
      <trkpt lat="47.09423" lon="-1.44961">
        <ele>44.2</ele>
        <time>2020-06-06T09:49:48Z</time>
      </trkpt>
      <trkpt lat="47.09431" lon="-1.44952">
        <ele>44.87</ele>
        <time>2020-06-06T09:49:50Z</time>
      </trkpt>
      <trkpt lat="47.09441" lon="-1.44941">
        <ele>46</ele>
        <time>2020-06-06T09:49:52Z</time>
      </trkpt>
      <trkpt lat="47.09452" lon="-1.44927">
        <ele>46.8</ele>
        <time>2020-06-06T09:49:54Z</time>
      </trkpt>
      <trkpt lat="47.09461" lon="-1.44916">
        <ele>47.31</ele>
        <time>2020-06-06T09:49:56Z</time>
      </trkpt>
      <trkpt lat="47.0947" lon="-1.44903">
        <ele>47.44</ele>
        <time>2020-06-06T09:49:58Z</time>
      </trkpt>
      <trkpt lat="47.09479" lon="-1.44893">
        <ele>48.25</ele>
        <time>2020-06-06T09:50:00Z</time>
      </trkpt>
      <trkpt lat="47.0949" lon="-1.44885">
        <ele>48.91</ele>
        <time>2020-06-06T09:50:02Z</time>
      </trkpt>
      <trkpt lat="47.09502" lon="-1.44882">
        <ele>49.47</ele>
        <time>2020-06-06T09:50:04Z</time>
      </trkpt>
      <trkpt lat="47.09515" lon="-1.44881">
        <ele>49.17</ele>
        <time>2020-06-06T09:50:06Z</time>
      </trkpt>
      <trkpt lat="47.09528" lon="-1.44887">
        <ele>48.88</ele>
        <time>2020-06-06T09:50:08Z</time>
      </trkpt>
      <trkpt lat="47.09538" lon="-1.44893">
        <ele>48.29</ele>
        <time>2020-06-06T09:50:10Z</time>
      </trkpt>
      <trkpt lat="47.09547" lon="-1.44904">
        <ele>48.05</ele>
        <time>2020-06-06T09:50:12Z</time>
      </trkpt>
      <trkpt lat="47.09555" lon="-1.44916">
        <ele>46.99</ele>
        <time>2020-06-06T09:50:14Z</time>
      </trkpt>
      <trkpt lat="47.09564" lon="-1.44927">
        <ele>47.07</ele>
        <time>2020-06-06T09:50:16Z</time>
      </trkpt>
      <trkpt lat="47.09574" lon="-1.44934">
        <ele>46.9</ele>
        <time>2020-06-06T09:50:18Z</time>
      </trkpt>
      <trkpt lat="47.09585" lon="-1.44935">
        <ele>46.69</ele>
        <time>2020-06-06T09:50:20Z</time>
      </trkpt>
      <trkpt lat="47.09597" lon="-1.44934">
        <ele>46.83</ele>
        <time>2020-06-06T09:50:22Z</time>
      </trkpt>
      <trkpt lat="47.09608" lon="-1.44931">
        <ele>48.49</ele>
        <time>2020-06-06T09:50:24Z</time>
      </trkpt>
      <trkpt lat="47.09617" lon="-1.44927">
        <ele>48.78</ele>
        <time>2020-06-06T09:50:26Z</time>
      </trkpt>
      <trkpt lat="47.09626" lon="-1.4492">
        <ele>49.52</ele>
        <time>2020-06-06T09:50:28Z</time>
      </trkpt>
      <trkpt lat="47.09634" lon="-1.44906">
        <ele>50.52</ele>
        <time>2020-06-06T09:50:30Z</time>
      </trkpt>
      <trkpt lat="47.09644" lon="-1.44891">
        <ele>49.84</ele>
        <time>2020-06-06T09:50:32Z</time>
      </trkpt>
      <trkpt lat="47.09655" lon="-1.44884">
        <ele>48.84</ele>
        <time>2020-06-06T09:50:34Z</time>
      </trkpt>
      <trkpt lat="47.09666" lon="-1.44875">
        <ele>48.68</ele>
        <time>2020-06-06T09:50:36Z</time>
      </trkpt>
      <trkpt lat="47.09675" lon="-1.4486">
        <ele>48.49</ele>
        <time>2020-06-06T09:50:38Z</time>
      </trkpt>
      <trkpt lat="47.09685" lon="-1.44842">
        <ele>47.65</ele>
        <time>2020-06-06T09:50:40Z</time>
      </trkpt>
      <trkpt lat="47.09688" lon="-1.44822">
        <ele>47.24</ele>
        <time>2020-06-06T09:50:42Z</time>
      </trkpt>
      <trkpt lat="47.09688" lon="-1.44803">
        <ele>46.76</ele>
        <time>2020-06-06T09:50:44Z</time>
      </trkpt>
      <trkpt lat="47.09683" lon="-1.44783">
        <ele>46.5</ele>
        <time>2020-06-06T09:50:46Z</time>
      </trkpt>
      <trkpt lat="47.09675" lon="-1.44764">
        <ele>46.63</ele>
        <time>2020-06-06T09:50:48Z</time>
      </trkpt>
      <trkpt lat="47.09666" lon="-1.44749">
        <ele>46.89</ele>
        <time>2020-06-06T09:50:50Z</time>
      </trkpt>
      <trkpt lat="47.09656" lon="-1.44733">
        <ele>47.17</ele>
        <time>2020-06-06T09:50:52Z</time>
      </trkpt>
      <trkpt lat="47.0965" lon="-1.44718">
        <ele>48.52</ele>
        <time>2020-06-06T09:50:54Z</time>
      </trkpt>
      <trkpt lat="47.09645" lon="-1.44701">
        <ele>49.45</ele>
        <time>2020-06-06T09:50:56Z</time>
      </trkpt>
      <trkpt lat="47.09644" lon="-1.44684">
        <ele>49.69</ele>
        <time>2020-06-06T09:50:58Z</time>
      </trkpt>
      <trkpt lat="47.09645" lon="-1.44666">
        <ele>49.75</ele>
        <time>2020-06-06T09:51:00Z</time>
      </trkpt>
      <trkpt lat="47.0965" lon="-1.44648">
        <ele>49.37</ele>
        <time>2020-06-06T09:51:02Z</time>
      </trkpt>
      <trkpt lat="47.09656" lon="-1.4463">
        <ele>48.67</ele>
        <time>2020-06-06T09:51:04Z</time>
      </trkpt>
      <trkpt lat="47.09667" lon="-1.44613">
        <ele>48.99</ele>
        <time>2020-06-06T09:51:06Z</time>
      </trkpt>
      <trkpt lat="47.09679" lon="-1.44601">
        <ele>49.58</ele>
        <time>2020-06-06T09:51:08Z</time>
      </trkpt>
      <trkpt lat="47.09693" lon="-1.44591">
        <ele>49.83</ele>
        <time>2020-06-06T09:51:10Z</time>
      </trkpt>
      <trkpt lat="47.09707" lon="-1.44583">
        <ele>48.8</ele>
        <time>2020-06-06T09:51:12Z</time>
      </trkpt>
      <trkpt lat="47.09722" lon="-1.44575">
        <ele>48.3</ele>
        <time>2020-06-06T09:51:14Z</time>
      </trkpt>
      <trkpt lat="47.09737" lon="-1.44568">
        <ele>48.26</ele>
        <time>2020-06-06T09:51:16Z</time>
      </trkpt>
      <trkpt lat="47.09751" lon="-1.44561">
        <ele>47.6</ele>
        <time>2020-06-06T09:51:18Z</time>
      </trkpt>
      <trkpt lat="47.09767" lon="-1.44555">
        <ele>47.2</ele>
        <time>2020-06-06T09:51:20Z</time>
      </trkpt>
      <trkpt lat="47.09783" lon="-1.4455">
        <ele>48.2</ele>
        <time>2020-06-06T09:51:22Z</time>
      </trkpt>
      <trkpt lat="47.098" lon="-1.44543">
        <ele>48.46</ele>
        <time>2020-06-06T09:51:24Z</time>
      </trkpt>
      <trkpt lat="47.0981" lon="-1.4454">
        <ele>48.93</ele>
        <time>2020-06-06T09:51:25Z</time>
      </trkpt>
      <trkpt lat="47.09827" lon="-1.44535">
        <ele>49.32</ele>
        <time>2020-06-06T09:51:27Z</time>
      </trkpt>
      <trkpt lat="47.09844" lon="-1.4453">
        <ele>48.47</ele>
        <time>2020-06-06T09:51:29Z</time>
      </trkpt>
      <trkpt lat="47.09853" lon="-1.44526">
        <ele>47.69</ele>
        <time>2020-06-06T09:51:30Z</time>
      </trkpt>
      <trkpt lat="47.09863" lon="-1.44523">
        <ele>46.73</ele>
        <time>2020-06-06T09:51:31Z</time>
      </trkpt>
      <trkpt lat="47.09881" lon="-1.44516">
        <ele>45.32</ele>
        <time>2020-06-06T09:51:33Z</time>
      </trkpt>
      <trkpt lat="47.09899" lon="-1.44509">
        <ele>44.84</ele>
        <time>2020-06-06T09:51:35Z</time>
      </trkpt>
      <trkpt lat="47.09909" lon="-1.44504">
        <ele>45</ele>
        <time>2020-06-06T09:51:36Z</time>
      </trkpt>
      <trkpt lat="47.0992" lon="-1.445">
        <ele>44.68</ele>
        <time>2020-06-06T09:51:37Z</time>
      </trkpt>
      <trkpt lat="47.09931" lon="-1.44496">
        <ele>44.2</ele>
        <time>2020-06-06T09:51:38Z</time>
      </trkpt>
      <trkpt lat="47.09942" lon="-1.44492">
        <ele>43.54</ele>
        <time>2020-06-06T09:51:39Z</time>
      </trkpt>
      <trkpt lat="47.09953" lon="-1.44488">
        <ele>42.85</ele>
        <time>2020-06-06T09:51:40Z</time>
      </trkpt>
      <trkpt lat="47.09963" lon="-1.44484">
        <ele>41.88</ele>
        <time>2020-06-06T09:51:41Z</time>
      </trkpt>
      <trkpt lat="47.09975" lon="-1.4448">
        <ele>41.15</ele>
        <time>2020-06-06T09:51:42Z</time>
      </trkpt>
      <trkpt lat="47.09985" lon="-1.44476">
        <ele>40.16</ele>
        <time>2020-06-06T09:51:43Z</time>
      </trkpt>
      <trkpt lat="47.09994" lon="-1.44473">
        <ele>39.15</ele>
        <time>2020-06-06T09:51:44Z</time>
      </trkpt>
      <trkpt lat="47.10005" lon="-1.44468">
        <ele>38.2</ele>
        <time>2020-06-06T09:51:45Z</time>
      </trkpt>
      <trkpt lat="47.10017" lon="-1.44464">
        <ele>37.48</ele>
        <time>2020-06-06T09:51:46Z</time>
      </trkpt>
      <trkpt lat="47.10028" lon="-1.4446">
        <ele>37.07</ele>
        <time>2020-06-06T09:51:47Z</time>
      </trkpt>
      <trkpt lat="47.10039" lon="-1.44456">
        <ele>36.69</ele>
        <time>2020-06-06T09:51:48Z</time>
      </trkpt>
      <trkpt lat="47.10051" lon="-1.44451">
        <ele>36.02</ele>
        <time>2020-06-06T09:51:49Z</time>
      </trkpt>
      <trkpt lat="47.10061" lon="-1.44447">
        <ele>35.37</ele>
        <time>2020-06-06T09:51:50Z</time>
      </trkpt>
      <trkpt lat="47.10071" lon="-1.44444">
        <ele>34.85</ele>
        <time>2020-06-06T09:51:51Z</time>
      </trkpt>
      <trkpt lat="47.10082" lon="-1.4444">
        <ele>34.51</ele>
        <time>2020-06-06T09:51:52Z</time>
      </trkpt>
      <trkpt lat="47.10093" lon="-1.44437">
        <ele>34.43</ele>
        <time>2020-06-06T09:51:53Z</time>
      </trkpt>
      <trkpt lat="47.10103" lon="-1.44433">
        <ele>34.12</ele>
        <time>2020-06-06T09:51:54Z</time>
      </trkpt>
      <trkpt lat="47.10114" lon="-1.44428">
        <ele>33.34</ele>
        <time>2020-06-06T09:51:55Z</time>
      </trkpt>
      <trkpt lat="47.10123" lon="-1.44423">
        <ele>32.84</ele>
        <time>2020-06-06T09:51:56Z</time>
      </trkpt>
      <trkpt lat="47.10133" lon="-1.44417">
        <ele>32.47</ele>
        <time>2020-06-06T09:51:57Z</time>
      </trkpt>
      <trkpt lat="47.10144" lon="-1.4441">
        <ele>31.79</ele>
        <time>2020-06-06T09:51:58Z</time>
      </trkpt>
      <trkpt lat="47.10152" lon="-1.444">
        <ele>31.45</ele>
        <time>2020-06-06T09:51:59Z</time>
      </trkpt>
      <trkpt lat="47.1016" lon="-1.44391">
        <ele>31.1</ele>
        <time>2020-06-06T09:52:00Z</time>
      </trkpt>
      <trkpt lat="47.10168" lon="-1.44382">
        <ele>30.72</ele>
        <time>2020-06-06T09:52:01Z</time>
      </trkpt>
      <trkpt lat="47.10175" lon="-1.44374">
        <ele>30.55</ele>
        <time>2020-06-06T09:52:02Z</time>
      </trkpt>
      <trkpt lat="47.10183" lon="-1.44365">
        <ele>30.61</ele>
        <time>2020-06-06T09:52:03Z</time>
      </trkpt>
      <trkpt lat="47.1019" lon="-1.44356">
        <ele>30.8</ele>
        <time>2020-06-06T09:52:04Z</time>
      </trkpt>
      <trkpt lat="47.10198" lon="-1.44346">
        <ele>31.22</ele>
        <time>2020-06-06T09:52:05Z</time>
      </trkpt>
      <trkpt lat="47.10206" lon="-1.44336">
        <ele>31.48</ele>
        <time>2020-06-06T09:52:05Z</time>
      </trkpt>
      <trkpt lat="47.10219" lon="-1.4432">
        <ele>31.46</ele>
        <time>2020-06-06T09:52:07Z</time>
      </trkpt>
      <trkpt lat="47.10233" lon="-1.44304">
        <ele>31.5</ele>
        <time>2020-06-06T09:52:09Z</time>
      </trkpt>
      <trkpt lat="47.10247" lon="-1.44289">
        <ele>30.87</ele>
        <time>2020-06-06T09:52:11Z</time>
      </trkpt>
      <trkpt lat="47.10254" lon="-1.4428">
        <ele>30.81</ele>
        <time>2020-06-06T09:52:12Z</time>
      </trkpt>
      <trkpt lat="47.10267" lon="-1.44265">
        <ele>29.99</ele>
        <time>2020-06-06T09:52:14Z</time>
      </trkpt>
      <trkpt lat="47.10274" lon="-1.44257">
        <ele>30.02</ele>
        <time>2020-06-06T09:52:15Z</time>
      </trkpt>
      <trkpt lat="47.10288" lon="-1.44243">
        <ele>29.51</ele>
        <time>2020-06-06T09:52:17Z</time>
      </trkpt>
      <trkpt lat="47.10302" lon="-1.44232">
        <ele>28.68</ele>
        <time>2020-06-06T09:52:19Z</time>
      </trkpt>
      <trkpt lat="47.10311" lon="-1.44226">
        <ele>28.31</ele>
        <time>2020-06-06T09:52:20Z</time>
      </trkpt>
      <trkpt lat="47.1032" lon="-1.44221">
        <ele>28.26</ele>
        <time>2020-06-06T09:52:21Z</time>
      </trkpt>
      <trkpt lat="47.10329" lon="-1.44216">
        <ele>28.13</ele>
        <time>2020-06-06T09:52:22Z</time>
      </trkpt>
      <trkpt lat="47.10345" lon="-1.4421">
        <ele>27.85</ele>
        <time>2020-06-06T09:52:24Z</time>
      </trkpt>
      <trkpt lat="47.1036" lon="-1.44203">
        <ele>27.51</ele>
        <time>2020-06-06T09:52:26Z</time>
      </trkpt>
      <trkpt lat="47.10374" lon="-1.44198">
        <ele>27.45</ele>
        <time>2020-06-06T09:52:28Z</time>
      </trkpt>
      <trkpt lat="47.1039" lon="-1.4419">
        <ele>27.83</ele>
        <time>2020-06-06T09:52:30Z</time>
      </trkpt>
      <trkpt lat="47.10404" lon="-1.44183">
        <ele>28.3</ele>
        <time>2020-06-06T09:52:32Z</time>
      </trkpt>
      <trkpt lat="47.10418" lon="-1.44177">
        <ele>28.24</ele>
        <time>2020-06-06T09:52:34Z</time>
      </trkpt>
      <trkpt lat="47.10432" lon="-1.44172">
        <ele>29.05</ele>
        <time>2020-06-06T09:52:36Z</time>
      </trkpt>
      <trkpt lat="47.10448" lon="-1.44165">
        <ele>30.04</ele>
        <time>2020-06-06T09:52:38Z</time>
      </trkpt>
      <trkpt lat="47.10463" lon="-1.44158">
        <ele>30.27</ele>
        <time>2020-06-06T09:52:40Z</time>
      </trkpt>
      <trkpt lat="47.10477" lon="-1.44151">
        <ele>30.28</ele>
        <time>2020-06-06T09:52:42Z</time>
      </trkpt>
      <trkpt lat="47.10491" lon="-1.44144">
        <ele>31.07</ele>
        <time>2020-06-06T09:52:44Z</time>
      </trkpt>
      <trkpt lat="47.10504" lon="-1.44136">
        <ele>31.56</ele>
        <time>2020-06-06T09:52:46Z</time>
      </trkpt>
      <trkpt lat="47.10517" lon="-1.44128">
        <ele>31.56</ele>
        <time>2020-06-06T09:52:48Z</time>
      </trkpt>
      <trkpt lat="47.1053" lon="-1.44117">
        <ele>30.84</ele>
        <time>2020-06-06T09:52:50Z</time>
      </trkpt>
      <trkpt lat="47.10544" lon="-1.44106">
        <ele>30.09</ele>
        <time>2020-06-06T09:52:52Z</time>
      </trkpt>
      <trkpt lat="47.10559" lon="-1.44094">
        <ele>30</ele>
        <time>2020-06-06T09:52:54Z</time>
      </trkpt>
      <trkpt lat="47.10572" lon="-1.44081">
        <ele>29.55</ele>
        <time>2020-06-06T09:52:56Z</time>
      </trkpt>
      <trkpt lat="47.10585" lon="-1.44068">
        <ele>29.7</ele>
        <time>2020-06-06T09:52:58Z</time>
      </trkpt>
      <trkpt lat="47.10598" lon="-1.44055">
        <ele>29.26</ele>
        <time>2020-06-06T09:53:00Z</time>
      </trkpt>
      <trkpt lat="47.1061" lon="-1.44044">
        <ele>28.99</ele>
        <time>2020-06-06T09:53:02Z</time>
      </trkpt>
      <trkpt lat="47.10624" lon="-1.44034">
        <ele>28.05</ele>
        <time>2020-06-06T09:53:04Z</time>
      </trkpt>
      <trkpt lat="47.10638" lon="-1.44025">
        <ele>27.5</ele>
        <time>2020-06-06T09:53:06Z</time>
      </trkpt>
      <trkpt lat="47.10651" lon="-1.44016">
        <ele>28.11</ele>
        <time>2020-06-06T09:53:08Z</time>
      </trkpt>
      <trkpt lat="47.10665" lon="-1.44009">
        <ele>29.08</ele>
        <time>2020-06-06T09:53:10Z</time>
      </trkpt>
      <trkpt lat="47.10679" lon="-1.44001">
        <ele>30.35</ele>
        <time>2020-06-06T09:53:12Z</time>
      </trkpt>
      <trkpt lat="47.10694" lon="-1.43994">
        <ele>31.48</ele>
        <time>2020-06-06T09:53:14Z</time>
      </trkpt>
      <trkpt lat="47.10707" lon="-1.43986">
        <ele>32.94</ele>
        <time>2020-06-06T09:53:16Z</time>
      </trkpt>
      <trkpt lat="47.10721" lon="-1.43977">
        <ele>33.7</ele>
        <time>2020-06-06T09:53:18Z</time>
      </trkpt>
      <trkpt lat="47.10734" lon="-1.43966">
        <ele>34.65</ele>
        <time>2020-06-06T09:53:20Z</time>
      </trkpt>
      <trkpt lat="47.10746" lon="-1.43954">
        <ele>35.22</ele>
        <time>2020-06-06T09:53:22Z</time>
      </trkpt>
      <trkpt lat="47.10759" lon="-1.43941">
        <ele>34.88</ele>
        <time>2020-06-06T09:53:24Z</time>
      </trkpt>
      <trkpt lat="47.1077" lon="-1.43928">
        <ele>34.95</ele>
        <time>2020-06-06T09:53:26Z</time>
      </trkpt>
      <trkpt lat="47.10781" lon="-1.43917">
        <ele>35.61</ele>
        <time>2020-06-06T09:53:28Z</time>
      </trkpt>
      <trkpt lat="47.10794" lon="-1.43907">
        <ele>36.3</ele>
        <time>2020-06-06T09:53:30Z</time>
      </trkpt>
      <trkpt lat="47.10807" lon="-1.43896">
        <ele>35.93</ele>
        <time>2020-06-06T09:53:32Z</time>
      </trkpt>
      <trkpt lat="47.10819" lon="-1.43885">
        <ele>36.19</ele>
        <time>2020-06-06T09:53:34Z</time>
      </trkpt>
      <trkpt lat="47.1083" lon="-1.43876">
        <ele>36.84</ele>
        <time>2020-06-06T09:53:36Z</time>
      </trkpt>
      <trkpt lat="47.10842" lon="-1.43866">
        <ele>37.15</ele>
        <time>2020-06-06T09:53:38Z</time>
      </trkpt>
      <trkpt lat="47.10852" lon="-1.43855">
        <ele>37.56</ele>
        <time>2020-06-06T09:53:40Z</time>
      </trkpt>
      <trkpt lat="47.10862" lon="-1.43843">
        <ele>38.79</ele>
        <time>2020-06-06T09:53:42Z</time>
      </trkpt>
      <trkpt lat="47.10874" lon="-1.43833">
        <ele>40.31</ele>
        <time>2020-06-06T09:53:44Z</time>
      </trkpt>
      <trkpt lat="47.10885" lon="-1.43823">
        <ele>41.37</ele>
        <time>2020-06-06T09:53:46Z</time>
      </trkpt>
      <trkpt lat="47.10896" lon="-1.43813">
        <ele>41.92</ele>
        <time>2020-06-06T09:53:48Z</time>
      </trkpt>
      <trkpt lat="47.10908" lon="-1.43801">
        <ele>42.14</ele>
        <time>2020-06-06T09:53:50Z</time>
      </trkpt>
      <trkpt lat="47.10919" lon="-1.43791">
        <ele>41.96</ele>
        <time>2020-06-06T09:53:52Z</time>
      </trkpt>
      <trkpt lat="47.10931" lon="-1.4378">
        <ele>41.23</ele>
        <time>2020-06-06T09:53:54Z</time>
      </trkpt>
      <trkpt lat="47.10941" lon="-1.43769">
        <ele>40.55</ele>
        <time>2020-06-06T09:53:56Z</time>
      </trkpt>
      <trkpt lat="47.10952" lon="-1.43757">
        <ele>41.37</ele>
        <time>2020-06-06T09:53:58Z</time>
      </trkpt>
      <trkpt lat="47.10963" lon="-1.43745">
        <ele>42.02</ele>
        <time>2020-06-06T09:54:00Z</time>
      </trkpt>
      <trkpt lat="47.10972" lon="-1.43735">
        <ele>42.05</ele>
        <time>2020-06-06T09:54:02Z</time>
      </trkpt>
      <trkpt lat="47.10983" lon="-1.43723">
        <ele>42.3</ele>
        <time>2020-06-06T09:54:04Z</time>
      </trkpt>
      <trkpt lat="47.10993" lon="-1.43712">
        <ele>42.13</ele>
        <time>2020-06-06T09:54:06Z</time>
      </trkpt>
      <trkpt lat="47.11004" lon="-1.43701">
        <ele>42.09</ele>
        <time>2020-06-06T09:54:08Z</time>
      </trkpt>
      <trkpt lat="47.11014" lon="-1.43689">
        <ele>42.05</ele>
        <time>2020-06-06T09:54:10Z</time>
      </trkpt>
      <trkpt lat="47.11023" lon="-1.43678">
        <ele>41.89</ele>
        <time>2020-06-06T09:54:12Z</time>
      </trkpt>
      <trkpt lat="47.11034" lon="-1.43665">
        <ele>41.41</ele>
        <time>2020-06-06T09:54:14Z</time>
      </trkpt>
      <trkpt lat="47.11042" lon="-1.43655">
        <ele>41.5</ele>
        <time>2020-06-06T09:54:16Z</time>
      </trkpt>
      <trkpt lat="47.11051" lon="-1.43641">
        <ele>42.26</ele>
        <time>2020-06-06T09:54:18Z</time>
      </trkpt>
      <trkpt lat="47.11059" lon="-1.4363">
        <ele>43.81</ele>
        <time>2020-06-06T09:54:20Z</time>
      </trkpt>
      <trkpt lat="47.11068" lon="-1.43616">
        <ele>44.51</ele>
        <time>2020-06-06T09:54:22Z</time>
      </trkpt>
      <trkpt lat="47.11079" lon="-1.43603">
        <ele>44.81</ele>
        <time>2020-06-06T09:54:24Z</time>
      </trkpt>
      <trkpt lat="47.1109" lon="-1.43591">
        <ele>45.08</ele>
        <time>2020-06-06T09:54:26Z</time>
      </trkpt>
      <trkpt lat="47.11101" lon="-1.43582">
        <ele>45.63</ele>
        <time>2020-06-06T09:54:28Z</time>
      </trkpt>
      <trkpt lat="47.11112" lon="-1.4357">
        <ele>45.25</ele>
        <time>2020-06-06T09:54:30Z</time>
      </trkpt>
      <trkpt lat="47.11119" lon="-1.43559">
        <ele>46.08</ele>
        <time>2020-06-06T09:54:32Z</time>
      </trkpt>
      <trkpt lat="47.11129" lon="-1.43545">
        <ele>46.61</ele>
        <time>2020-06-06T09:54:34Z</time>
      </trkpt>
      <trkpt lat="47.11136" lon="-1.43531">
        <ele>46.73</ele>
        <time>2020-06-06T09:54:36Z</time>
      </trkpt>
      <trkpt lat="47.11144" lon="-1.43518">
        <ele>47.19</ele>
        <time>2020-06-06T09:54:38Z</time>
      </trkpt>
      <trkpt lat="47.11152" lon="-1.43503">
        <ele>47.23</ele>
        <time>2020-06-06T09:54:40Z</time>
      </trkpt>
      <trkpt lat="47.11162" lon="-1.43487">
        <ele>46.42</ele>
        <time>2020-06-06T09:54:42Z</time>
      </trkpt>
      <trkpt lat="47.11171" lon="-1.43471">
        <ele>45.89</ele>
        <time>2020-06-06T09:54:44Z</time>
      </trkpt>
      <trkpt lat="47.1118" lon="-1.43455">
        <ele>45.51</ele>
        <time>2020-06-06T09:54:46Z</time>
      </trkpt>
      <trkpt lat="47.11189" lon="-1.43439">
        <ele>45.38</ele>
        <time>2020-06-06T09:54:48Z</time>
      </trkpt>
      <trkpt lat="47.11198" lon="-1.43425">
        <ele>45.09</ele>
        <time>2020-06-06T09:54:50Z</time>
      </trkpt>
      <trkpt lat="47.11207" lon="-1.43407">
        <ele>45.3</ele>
        <time>2020-06-06T09:54:52Z</time>
      </trkpt>
      <trkpt lat="47.11215" lon="-1.43391">
        <ele>44.97</ele>
        <time>2020-06-06T09:54:54Z</time>
      </trkpt>
      <trkpt lat="47.11223" lon="-1.43376">
        <ele>43.72</ele>
        <time>2020-06-06T09:54:56Z</time>
      </trkpt>
      <trkpt lat="47.11232" lon="-1.43359">
        <ele>43.32</ele>
        <time>2020-06-06T09:54:58Z</time>
      </trkpt>
      <trkpt lat="47.11241" lon="-1.43344">
        <ele>42.95</ele>
        <time>2020-06-06T09:55:00Z</time>
      </trkpt>
      <trkpt lat="47.11251" lon="-1.43328">
        <ele>41.62</ele>
        <time>2020-06-06T09:55:02Z</time>
      </trkpt>
      <trkpt lat="47.11261" lon="-1.43313">
        <ele>41.32</ele>
        <time>2020-06-06T09:55:04Z</time>
      </trkpt>
      <trkpt lat="47.11273" lon="-1.43296">
        <ele>41.19</ele>
        <time>2020-06-06T09:55:06Z</time>
      </trkpt>
      <trkpt lat="47.11285" lon="-1.43282">
        <ele>41.31</ele>
        <time>2020-06-06T09:55:08Z</time>
      </trkpt>
      <trkpt lat="47.11297" lon="-1.43268">
        <ele>40.76</ele>
        <time>2020-06-06T09:55:10Z</time>
      </trkpt>
      <trkpt lat="47.11311" lon="-1.43252">
        <ele>39.95</ele>
        <time>2020-06-06T09:55:12Z</time>
      </trkpt>
      <trkpt lat="47.11318" lon="-1.43244">
        <ele>39.84</ele>
        <time>2020-06-06T09:55:13Z</time>
      </trkpt>
      <trkpt lat="47.11326" lon="-1.43237">
        <ele>40.42</ele>
        <time>2020-06-06T09:55:14Z</time>
      </trkpt>
      <trkpt lat="47.11333" lon="-1.43229">
        <ele>40.88</ele>
        <time>2020-06-06T09:55:15Z</time>
      </trkpt>
      <trkpt lat="47.11341" lon="-1.4322">
        <ele>41.43</ele>
        <time>2020-06-06T09:55:16Z</time>
      </trkpt>
      <trkpt lat="47.11355" lon="-1.43204">
        <ele>41.94</ele>
        <time>2020-06-06T09:55:18Z</time>
      </trkpt>
      <trkpt lat="47.11368" lon="-1.43188">
        <ele>41.72</ele>
        <time>2020-06-06T09:55:20Z</time>
      </trkpt>
      <trkpt lat="47.11382" lon="-1.43171">
        <ele>41.84</ele>
        <time>2020-06-06T09:55:22Z</time>
      </trkpt>
      <trkpt lat="47.11394" lon="-1.43156">
        <ele>41.28</ele>
        <time>2020-06-06T09:55:24Z</time>
      </trkpt>
      <trkpt lat="47.11407" lon="-1.43139">
        <ele>39.81</ele>
        <time>2020-06-06T09:55:26Z</time>
      </trkpt>
      <trkpt lat="47.11421" lon="-1.43122">
        <ele>38.15</ele>
        <time>2020-06-06T09:55:28Z</time>
      </trkpt>
      <trkpt lat="47.11433" lon="-1.43106">
        <ele>38.35</ele>
        <time>2020-06-06T09:55:30Z</time>
      </trkpt>
      <trkpt lat="47.1144" lon="-1.43097">
        <ele>38.67</ele>
        <time>2020-06-06T09:55:31Z</time>
      </trkpt>
      <trkpt lat="47.11454" lon="-1.43082">
        <ele>38.76</ele>
        <time>2020-06-06T09:55:33Z</time>
      </trkpt>
      <trkpt lat="47.11468" lon="-1.43067">
        <ele>38.68</ele>
        <time>2020-06-06T09:55:35Z</time>
      </trkpt>
      <trkpt lat="47.11476" lon="-1.4306">
        <ele>38.28</ele>
        <time>2020-06-06T09:55:36Z</time>
      </trkpt>
      <trkpt lat="47.11491" lon="-1.43047">
        <ele>37.23</ele>
        <time>2020-06-06T09:55:38Z</time>
      </trkpt>
      <trkpt lat="47.11506" lon="-1.43034">
        <ele>37.79</ele>
        <time>2020-06-06T09:55:40Z</time>
      </trkpt>
      <trkpt lat="47.11519" lon="-1.43021">
        <ele>38.01</ele>
        <time>2020-06-06T09:55:42Z</time>
      </trkpt>
      <trkpt lat="47.11533" lon="-1.43009">
        <ele>37.3</ele>
        <time>2020-06-06T09:55:44Z</time>
      </trkpt>
      <trkpt lat="47.11541" lon="-1.43001">
        <ele>36.74</ele>
        <time>2020-06-06T09:55:45Z</time>
      </trkpt>
      <trkpt lat="47.11556" lon="-1.42988">
        <ele>35.65</ele>
        <time>2020-06-06T09:55:47Z</time>
      </trkpt>
      <trkpt lat="47.11571" lon="-1.42974">
        <ele>34.77</ele>
        <time>2020-06-06T09:55:49Z</time>
      </trkpt>
      <trkpt lat="47.11585" lon="-1.42961">
        <ele>35.18</ele>
        <time>2020-06-06T09:55:51Z</time>
      </trkpt>
      <trkpt lat="47.11599" lon="-1.42948">
        <ele>35.49</ele>
        <time>2020-06-06T09:55:53Z</time>
      </trkpt>
      <trkpt lat="47.11614" lon="-1.42933">
        <ele>35.79</ele>
        <time>2020-06-06T09:55:55Z</time>
      </trkpt>
      <trkpt lat="47.11621" lon="-1.42925">
        <ele>35.79</ele>
        <time>2020-06-06T09:55:56Z</time>
      </trkpt>
      <trkpt lat="47.11633" lon="-1.42906">
        <ele>35.29</ele>
        <time>2020-06-06T09:55:58Z</time>
      </trkpt>
      <trkpt lat="47.11639" lon="-1.42894">
        <ele>34.84</ele>
        <time>2020-06-06T09:55:59Z</time>
      </trkpt>
      <trkpt lat="47.11643" lon="-1.42883">
        <ele>34.57</ele>
        <time>2020-06-06T09:56:00Z</time>
      </trkpt>
      <trkpt lat="47.11652" lon="-1.4286">
        <ele>34.37</ele>
        <time>2020-06-06T09:56:02Z</time>
      </trkpt>
      <trkpt lat="47.11657" lon="-1.42849">
        <ele>33.94</ele>
        <time>2020-06-06T09:56:03Z</time>
      </trkpt>
      <trkpt lat="47.11665" lon="-1.4283">
        <ele>33.95</ele>
        <time>2020-06-06T09:56:05Z</time>
      </trkpt>
      <trkpt lat="47.11673" lon="-1.42811">
        <ele>33.18</ele>
        <time>2020-06-06T09:56:07Z</time>
      </trkpt>
      <trkpt lat="47.11679" lon="-1.42794">
        <ele>32.12</ele>
        <time>2020-06-06T09:56:09Z</time>
      </trkpt>
      <trkpt lat="47.11683" lon="-1.42776">
        <ele>31.73</ele>
        <time>2020-06-06T09:56:11Z</time>
      </trkpt>
      <trkpt lat="47.11687" lon="-1.42757">
        <ele>31.07</ele>
        <time>2020-06-06T09:56:13Z</time>
      </trkpt>
      <trkpt lat="47.1169" lon="-1.42739">
        <ele>30.68</ele>
        <time>2020-06-06T09:56:15Z</time>
      </trkpt>
      <trkpt lat="47.11697" lon="-1.42723">
        <ele>31.59</ele>
        <time>2020-06-06T09:56:17Z</time>
      </trkpt>
      <trkpt lat="47.11705" lon="-1.42707">
        <ele>33.42</ele>
        <time>2020-06-06T09:56:19Z</time>
      </trkpt>
      <trkpt lat="47.11714" lon="-1.42694">
        <ele>35.03</ele>
        <time>2020-06-06T09:56:21Z</time>
      </trkpt>
      <trkpt lat="47.11725" lon="-1.42685">
        <ele>35.97</ele>
        <time>2020-06-06T09:56:23Z</time>
      </trkpt>
      <trkpt lat="47.11735" lon="-1.42679">
        <ele>36.74</ele>
        <time>2020-06-06T09:56:25Z</time>
      </trkpt>
      <trkpt lat="47.11747" lon="-1.42673">
        <ele>37.03</ele>
        <time>2020-06-06T09:56:27Z</time>
      </trkpt>
      <trkpt lat="47.11761" lon="-1.42665">
        <ele>39.18</ele>
        <time>2020-06-06T09:56:29Z</time>
      </trkpt>
      <trkpt lat="47.11772" lon="-1.42658">
        <ele>40.46</ele>
        <time>2020-06-06T09:56:31Z</time>
      </trkpt>
      <trkpt lat="47.11786" lon="-1.42652">
        <ele>40.3</ele>
        <time>2020-06-06T09:56:34Z</time>
      </trkpt>
      <trkpt lat="47.11796" lon="-1.42647">
        <ele>40.67</ele>
        <time>2020-06-06T09:56:36Z</time>
      </trkpt>
      <trkpt lat="47.11807" lon="-1.42641">
        <ele>40.75</ele>
        <time>2020-06-06T09:56:38Z</time>
      </trkpt>
      <trkpt lat="47.11818" lon="-1.42635">
        <ele>41.05</ele>
        <time>2020-06-06T09:56:40Z</time>
      </trkpt>
      <trkpt lat="47.11828" lon="-1.42629">
        <ele>41.66</ele>
        <time>2020-06-06T09:56:42Z</time>
      </trkpt>
      <trkpt lat="47.11837" lon="-1.42623">
        <ele>43.33</ele>
        <time>2020-06-06T09:56:44Z</time>
      </trkpt>
      <trkpt lat="47.11845" lon="-1.42617">
        <ele>44.67</ele>
        <time>2020-06-06T09:56:46Z</time>
      </trkpt>
      <trkpt lat="47.11857" lon="-1.42609">
        <ele>44.56</ele>
        <time>2020-06-06T09:56:48Z</time>
      </trkpt>
      <trkpt lat="47.11867" lon="-1.42603">
        <ele>44.83</ele>
        <time>2020-06-06T09:56:50Z</time>
      </trkpt>
      <trkpt lat="47.11877" lon="-1.42596">
        <ele>46.43</ele>
        <time>2020-06-06T09:56:52Z</time>
      </trkpt>
      <trkpt lat="47.11885" lon="-1.42589">
        <ele>47.94</ele>
        <time>2020-06-06T09:56:54Z</time>
      </trkpt>
      <trkpt lat="47.11893" lon="-1.4258">
        <ele>47.8</ele>
        <time>2020-06-06T09:56:56Z</time>
      </trkpt>
      <trkpt lat="47.11902" lon="-1.42572">
        <ele>48.6</ele>
        <time>2020-06-06T09:56:58Z</time>
      </trkpt>
      <trkpt lat="47.1191" lon="-1.42563">
        <ele>49.31</ele>
        <time>2020-06-06T09:57:00Z</time>
      </trkpt>
      <trkpt lat="47.11918" lon="-1.42555">
        <ele>49.24</ele>
        <time>2020-06-06T09:57:02Z</time>
      </trkpt>
      <trkpt lat="47.11925" lon="-1.42546">
        <ele>48.6</ele>
        <time>2020-06-06T09:57:04Z</time>
      </trkpt>
      <trkpt lat="47.11934" lon="-1.42536">
        <ele>50.18</ele>
        <time>2020-06-06T09:57:07Z</time>
      </trkpt>
      <trkpt lat="47.11944" lon="-1.42527">
        <ele>51.55</ele>
        <time>2020-06-06T09:57:09Z</time>
      </trkpt>
      <trkpt lat="47.11953" lon="-1.42519">
        <ele>51.57</ele>
        <time>2020-06-06T09:57:11Z</time>
      </trkpt>
      <trkpt lat="47.11962" lon="-1.42511">
        <ele>52.87</ele>
        <time>2020-06-06T09:57:13Z</time>
      </trkpt>
      <trkpt lat="47.11972" lon="-1.42503">
        <ele>53.66</ele>
        <time>2020-06-06T09:57:15Z</time>
      </trkpt>
      <trkpt lat="47.1198" lon="-1.42494">
        <ele>53.42</ele>
        <time>2020-06-06T09:57:17Z</time>
      </trkpt>
      <trkpt lat="47.11989" lon="-1.42485">
        <ele>53.12</ele>
        <time>2020-06-06T09:57:19Z</time>
      </trkpt>
      <trkpt lat="47.11997" lon="-1.42477">
        <ele>53.3</ele>
        <time>2020-06-06T09:57:21Z</time>
      </trkpt>
      <trkpt lat="47.12005" lon="-1.42467">
        <ele>53.49</ele>
        <time>2020-06-06T09:57:23Z</time>
      </trkpt>
      <trkpt lat="47.12014" lon="-1.42458">
        <ele>53.62</ele>
        <time>2020-06-06T09:57:25Z</time>
      </trkpt>
      <trkpt lat="47.12022" lon="-1.4245">
        <ele>54.03</ele>
        <time>2020-06-06T09:57:27Z</time>
      </trkpt>
      <trkpt lat="47.12033" lon="-1.42441">
        <ele>52.7</ele>
        <time>2020-06-06T09:57:29Z</time>
      </trkpt>
      <trkpt lat="47.12043" lon="-1.42432">
        <ele>51.63</ele>
        <time>2020-06-06T09:57:31Z</time>
      </trkpt>
      <trkpt lat="47.12052" lon="-1.42422">
        <ele>51.67</ele>
        <time>2020-06-06T09:57:33Z</time>
      </trkpt>
      <trkpt lat="47.12059" lon="-1.42411">
        <ele>52.58</ele>
        <time>2020-06-06T09:57:35Z</time>
      </trkpt>
      <trkpt lat="47.12067" lon="-1.42396">
        <ele>52.68</ele>
        <time>2020-06-06T09:57:37Z</time>
      </trkpt>
      <trkpt lat="47.12073" lon="-1.42378">
        <ele>53.45</ele>
        <time>2020-06-06T09:57:39Z</time>
      </trkpt>
      <trkpt lat="47.12079" lon="-1.4236">
        <ele>54</ele>
        <time>2020-06-06T09:57:41Z</time>
      </trkpt>
      <trkpt lat="47.12084" lon="-1.42341">
        <ele>54.2</ele>
        <time>2020-06-06T09:57:43Z</time>
      </trkpt>
      <trkpt lat="47.12089" lon="-1.4232">
        <ele>53.98</ele>
        <time>2020-06-06T09:57:45Z</time>
      </trkpt>
      <trkpt lat="47.12095" lon="-1.42299">
        <ele>54</ele>
        <time>2020-06-06T09:57:47Z</time>
      </trkpt>
      <trkpt lat="47.121" lon="-1.42276">
        <ele>53.95</ele>
        <time>2020-06-06T09:57:49Z</time>
      </trkpt>
      <trkpt lat="47.12106" lon="-1.42254">
        <ele>53.5</ele>
        <time>2020-06-06T09:57:51Z</time>
      </trkpt>
      <trkpt lat="47.12112" lon="-1.42233">
        <ele>53.44</ele>
        <time>2020-06-06T09:57:53Z</time>
      </trkpt>
      <trkpt lat="47.12118" lon="-1.42212">
        <ele>52.68</ele>
        <time>2020-06-06T09:57:55Z</time>
      </trkpt>
      <trkpt lat="47.12125" lon="-1.42195">
        <ele>52.02</ele>
        <time>2020-06-06T09:57:57Z</time>
      </trkpt>
      <trkpt lat="47.12132" lon="-1.42185">
        <ele>51.69</ele>
        <time>2020-06-06T09:57:58Z</time>
      </trkpt>
      <trkpt lat="47.12143" lon="-1.42171">
        <ele>51.88</ele>
        <time>2020-06-06T09:58:00Z</time>
      </trkpt>
      <trkpt lat="47.12156" lon="-1.42159">
        <ele>51.96</ele>
        <time>2020-06-06T09:58:02Z</time>
      </trkpt>
      <trkpt lat="47.12165" lon="-1.42154">
        <ele>52.18</ele>
        <time>2020-06-06T09:58:03Z</time>
      </trkpt>
      <trkpt lat="47.12181" lon="-1.42148">
        <ele>52.37</ele>
        <time>2020-06-06T09:58:05Z</time>
      </trkpt>
      <trkpt lat="47.12196" lon="-1.4214">
        <ele>53.01</ele>
        <time>2020-06-06T09:58:07Z</time>
      </trkpt>
      <trkpt lat="47.12209" lon="-1.42134">
        <ele>53.65</ele>
        <time>2020-06-06T09:58:09Z</time>
      </trkpt>
      <trkpt lat="47.12224" lon="-1.42127">
        <ele>54.63</ele>
        <time>2020-06-06T09:58:11Z</time>
      </trkpt>
      <trkpt lat="47.12235" lon="-1.42116">
        <ele>54.59</ele>
        <time>2020-06-06T09:58:13Z</time>
      </trkpt>
      <trkpt lat="47.12248" lon="-1.42105">
        <ele>54.37</ele>
        <time>2020-06-06T09:58:15Z</time>
      </trkpt>
      <trkpt lat="47.1226" lon="-1.42095">
        <ele>54.23</ele>
        <time>2020-06-06T09:58:17Z</time>
      </trkpt>
      <trkpt lat="47.12274" lon="-1.42083">
        <ele>54.62</ele>
        <time>2020-06-06T09:58:19Z</time>
      </trkpt>
      <trkpt lat="47.12286" lon="-1.42072">
        <ele>53.58</ele>
        <time>2020-06-06T09:58:21Z</time>
      </trkpt>
      <trkpt lat="47.12298" lon="-1.42063">
        <ele>52.67</ele>
        <time>2020-06-06T09:58:23Z</time>
      </trkpt>
      <trkpt lat="47.1231" lon="-1.42053">
        <ele>52.05</ele>
        <time>2020-06-06T09:58:25Z</time>
      </trkpt>
      <trkpt lat="47.12322" lon="-1.42044">
        <ele>51.79</ele>
        <time>2020-06-06T09:58:27Z</time>
      </trkpt>
      <trkpt lat="47.12334" lon="-1.42048">
        <ele>51.95</ele>
        <time>2020-06-06T09:58:29Z</time>
      </trkpt>
      <trkpt lat="47.12345" lon="-1.42054">
        <ele>51.11</ele>
        <time>2020-06-06T09:58:31Z</time>
      </trkpt>
      <trkpt lat="47.12355" lon="-1.4205">
        <ele>49.86</ele>
        <time>2020-06-06T09:58:33Z</time>
      </trkpt>
      <trkpt lat="47.12369" lon="-1.42041">
        <ele>48.91</ele>
        <time>2020-06-06T09:58:35Z</time>
      </trkpt>
      <trkpt lat="47.12383" lon="-1.4203">
        <ele>48.6</ele>
        <time>2020-06-06T09:58:37Z</time>
      </trkpt>
      <trkpt lat="47.12396" lon="-1.42018">
        <ele>48.13</ele>
        <time>2020-06-06T09:58:39Z</time>
      </trkpt>
      <trkpt lat="47.12407" lon="-1.42002">
        <ele>48.46</ele>
        <time>2020-06-06T09:58:41Z</time>
      </trkpt>
      <trkpt lat="47.12417" lon="-1.41985">
        <ele>49.79</ele>
        <time>2020-06-06T09:58:43Z</time>
      </trkpt>
      <trkpt lat="47.12428" lon="-1.41968">
        <ele>50.7</ele>
        <time>2020-06-06T09:58:45Z</time>
      </trkpt>
      <trkpt lat="47.12436" lon="-1.41952">
        <ele>51.79</ele>
        <time>2020-06-06T09:58:47Z</time>
      </trkpt>
      <trkpt lat="47.12447" lon="-1.41935">
        <ele>51.76</ele>
        <time>2020-06-06T09:58:49Z</time>
      </trkpt>
      <trkpt lat="47.12459" lon="-1.41916">
        <ele>50.4</ele>
        <time>2020-06-06T09:58:51Z</time>
      </trkpt>
      <trkpt lat="47.1247" lon="-1.41903">
        <ele>50.03</ele>
        <time>2020-06-06T09:58:53Z</time>
      </trkpt>
      <trkpt lat="47.12482" lon="-1.41892">
        <ele>51.39</ele>
        <time>2020-06-06T09:58:55Z</time>
      </trkpt>
      <trkpt lat="47.12495" lon="-1.41882">
        <ele>52.66</ele>
        <time>2020-06-06T09:58:57Z</time>
      </trkpt>
      <trkpt lat="47.12509" lon="-1.41872">
        <ele>52.2</ele>
        <time>2020-06-06T09:58:59Z</time>
      </trkpt>
      <trkpt lat="47.12523" lon="-1.41863">
        <ele>51.43</ele>
        <time>2020-06-06T09:59:01Z</time>
      </trkpt>
      <trkpt lat="47.12532" lon="-1.41859">
        <ele>51.42</ele>
        <time>2020-06-06T09:59:02Z</time>
      </trkpt>
      <trkpt lat="47.12541" lon="-1.41855">
        <ele>50.95</ele>
        <time>2020-06-06T09:59:03Z</time>
      </trkpt>
      <trkpt lat="47.12555" lon="-1.41849">
        <ele>50.56</ele>
        <time>2020-06-06T09:59:05Z</time>
      </trkpt>
      <trkpt lat="47.12567" lon="-1.41834">
        <ele>49.95</ele>
        <time>2020-06-06T09:59:07Z</time>
      </trkpt>
      <trkpt lat="47.12572" lon="-1.41821">
        <ele>49.31</ele>
        <time>2020-06-06T09:59:08Z</time>
      </trkpt>
      <trkpt lat="47.12576" lon="-1.41808">
        <ele>48.63</ele>
        <time>2020-06-06T09:59:09Z</time>
      </trkpt>
      <trkpt lat="47.12582" lon="-1.41783">
        <ele>46.59</ele>
        <time>2020-06-06T09:59:11Z</time>
      </trkpt>
      <trkpt lat="47.12585" lon="-1.41769">
        <ele>45.35</ele>
        <time>2020-06-06T09:59:12Z</time>
      </trkpt>
      <trkpt lat="47.12591" lon="-1.41756">
        <ele>44.21</ele>
        <time>2020-06-06T09:59:13Z</time>
      </trkpt>
      <trkpt lat="47.12596" lon="-1.41746">
        <ele>43.3</ele>
        <time>2020-06-06T09:59:14Z</time>
      </trkpt>
      <trkpt lat="47.12607" lon="-1.41738">
        <ele>42.73</ele>
        <time>2020-06-06T09:59:15Z</time>
      </trkpt>
      <trkpt lat="47.12617" lon="-1.41733">
        <ele>41.62</ele>
        <time>2020-06-06T09:59:16Z</time>
      </trkpt>
      <trkpt lat="47.12626" lon="-1.41729">
        <ele>40.2</ele>
        <time>2020-06-06T09:59:17Z</time>
      </trkpt>
      <trkpt lat="47.12637" lon="-1.41725">
        <ele>39.3</ele>
        <time>2020-06-06T09:59:18Z</time>
      </trkpt>
      <trkpt lat="47.12647" lon="-1.41721">
        <ele>38.93</ele>
        <time>2020-06-06T09:59:19Z</time>
      </trkpt>
      <trkpt lat="47.12656" lon="-1.41717">
        <ele>38.83</ele>
        <time>2020-06-06T09:59:20Z</time>
      </trkpt>
      <trkpt lat="47.12667" lon="-1.41711">
        <ele>38.65</ele>
        <time>2020-06-06T09:59:21Z</time>
      </trkpt>
      <trkpt lat="47.12678" lon="-1.41705">
        <ele>37.98</ele>
        <time>2020-06-06T09:59:22Z</time>
      </trkpt>
      <trkpt lat="47.12688" lon="-1.41697">
        <ele>37.06</ele>
        <time>2020-06-06T09:59:23Z</time>
      </trkpt>
      <trkpt lat="47.12699" lon="-1.41689">
        <ele>36.36</ele>
        <time>2020-06-06T09:59:24Z</time>
      </trkpt>
      <trkpt lat="47.12709" lon="-1.41682">
        <ele>36.14</ele>
        <time>2020-06-06T09:59:25Z</time>
      </trkpt>
      <trkpt lat="47.1272" lon="-1.41679">
        <ele>35.51</ele>
        <time>2020-06-06T09:59:26Z</time>
      </trkpt>
      <trkpt lat="47.12729" lon="-1.41676">
        <ele>35.59</ele>
        <time>2020-06-06T09:59:27Z</time>
      </trkpt>
      <trkpt lat="47.12739" lon="-1.41674">
        <ele>35.24</ele>
        <time>2020-06-06T09:59:28Z</time>
      </trkpt>
      <trkpt lat="47.12749" lon="-1.41673">
        <ele>34.4</ele>
        <time>2020-06-06T09:59:29Z</time>
      </trkpt>
      <trkpt lat="47.12758" lon="-1.41672">
        <ele>33.32</ele>
        <time>2020-06-06T09:59:30Z</time>
      </trkpt>
      <trkpt lat="47.12768" lon="-1.41668">
        <ele>32.41</ele>
        <time>2020-06-06T09:59:31Z</time>
      </trkpt>
      <trkpt lat="47.12773" lon="-1.41655">
        <ele>31.28</ele>
        <time>2020-06-06T09:59:32Z</time>
      </trkpt>
      <trkpt lat="47.12776" lon="-1.41641">
        <ele>30.12</ele>
        <time>2020-06-06T09:59:33Z</time>
      </trkpt>
      <trkpt lat="47.12772" lon="-1.41613">
        <ele>27</ele>
        <time>2020-06-06T09:59:35Z</time>
      </trkpt>
      <trkpt lat="47.12764" lon="-1.41602">
        <ele>25.78</ele>
        <time>2020-06-06T09:59:36Z</time>
      </trkpt>
      <trkpt lat="47.12754" lon="-1.41591">
        <ele>24.49</ele>
        <time>2020-06-06T09:59:37Z</time>
      </trkpt>
      <trkpt lat="47.12743" lon="-1.41591">
        <ele>23.59</ele>
        <time>2020-06-06T09:59:38Z</time>
      </trkpt>
      <trkpt lat="47.12732" lon="-1.41592">
        <ele>22.87</ele>
        <time>2020-06-06T09:59:39Z</time>
      </trkpt>
      <trkpt lat="47.12723" lon="-1.41594">
        <ele>22.17</ele>
        <time>2020-06-06T09:59:40Z</time>
      </trkpt>
      <trkpt lat="47.12712" lon="-1.41595">
        <ele>21.55</ele>
        <time>2020-06-06T09:59:41Z</time>
      </trkpt>
      <trkpt lat="47.12702" lon="-1.41595">
        <ele>21.32</ele>
        <time>2020-06-06T09:59:42Z</time>
      </trkpt>
      <trkpt lat="47.12693" lon="-1.4159">
        <ele>20.91</ele>
        <time>2020-06-06T09:59:43Z</time>
      </trkpt>
      <trkpt lat="47.12684" lon="-1.41583">
        <ele>20.05</ele>
        <time>2020-06-06T09:59:44Z</time>
      </trkpt>
      <trkpt lat="47.12674" lon="-1.4158">
        <ele>19.37</ele>
        <time>2020-06-06T09:59:45Z</time>
      </trkpt>
      <trkpt lat="47.12664" lon="-1.41578">
        <ele>18.73</ele>
        <time>2020-06-06T09:59:46Z</time>
      </trkpt>
      <trkpt lat="47.12654" lon="-1.41577">
        <ele>18.41</ele>
        <time>2020-06-06T09:59:47Z</time>
      </trkpt>
      <trkpt lat="47.12644" lon="-1.41582">
        <ele>17.5</ele>
        <time>2020-06-06T09:59:48Z</time>
      </trkpt>
      <trkpt lat="47.12633" lon="-1.41587">
        <ele>16.54</ele>
        <time>2020-06-06T09:59:49Z</time>
      </trkpt>
      <trkpt lat="47.12621" lon="-1.41586">
        <ele>15.2</ele>
        <time>2020-06-06T09:59:50Z</time>
      </trkpt>
      <trkpt lat="47.1261" lon="-1.41578">
        <ele>14.27</ele>
        <time>2020-06-06T09:59:51Z</time>
      </trkpt>
      <trkpt lat="47.12601" lon="-1.41568">
        <ele>13.21</ele>
        <time>2020-06-06T09:59:52Z</time>
      </trkpt>
      <trkpt lat="47.12593" lon="-1.41558">
        <ele>12.48</ele>
        <time>2020-06-06T09:59:53Z</time>
      </trkpt>
      <trkpt lat="47.12586" lon="-1.41547">
        <ele>12.85</ele>
        <time>2020-06-06T09:59:54Z</time>
      </trkpt>
      <trkpt lat="47.12577" lon="-1.41534">
        <ele>13</ele>
        <time>2020-06-06T09:59:55Z</time>
      </trkpt>
      <trkpt lat="47.12569" lon="-1.4152">
        <ele>12.91</ele>
        <time>2020-06-06T09:59:56Z</time>
      </trkpt>
      <trkpt lat="47.12561" lon="-1.41506">
        <ele>13.2</ele>
        <time>2020-06-06T09:59:57Z</time>
      </trkpt>
      <trkpt lat="47.12554" lon="-1.41495">
        <ele>13.38</ele>
        <time>2020-06-06T09:59:58Z</time>
      </trkpt>
      <trkpt lat="47.12548" lon="-1.41484">
        <ele>13.55</ele>
        <time>2020-06-06T09:59:59Z</time>
      </trkpt>
      <trkpt lat="47.12536" lon="-1.41464">
        <ele>14.36</ele>
        <time>2020-06-06T10:00:01Z</time>
      </trkpt>
      <trkpt lat="47.12527" lon="-1.41444">
        <ele>13.99</ele>
        <time>2020-06-06T10:00:03Z</time>
      </trkpt>
      <trkpt lat="47.12521" lon="-1.41426">
        <ele>12.7</ele>
        <time>2020-06-06T10:00:05Z</time>
      </trkpt>
      <trkpt lat="47.12526" lon="-1.41412">
        <ele>11.76</ele>
        <time>2020-06-06T10:00:07Z</time>
      </trkpt>
      <trkpt lat="47.12536" lon="-1.41396">
        <ele>11.19</ele>
        <time>2020-06-06T10:00:09Z</time>
      </trkpt>
      <trkpt lat="47.12545" lon="-1.41384">
        <ele>11.73</ele>
        <time>2020-06-06T10:00:11Z</time>
      </trkpt>
      <trkpt lat="47.12554" lon="-1.41373">
        <ele>12.96</ele>
        <time>2020-06-06T10:00:13Z</time>
      </trkpt>
      <trkpt lat="47.12563" lon="-1.41362">
        <ele>11.85</ele>
        <time>2020-06-06T10:00:15Z</time>
      </trkpt>
      <trkpt lat="47.12572" lon="-1.4135">
        <ele>11.58</ele>
        <time>2020-06-06T10:00:17Z</time>
      </trkpt>
      <trkpt lat="47.12579" lon="-1.41339">
        <ele>11.67</ele>
        <time>2020-06-06T10:00:19Z</time>
      </trkpt>
      <trkpt lat="47.12587" lon="-1.41324">
        <ele>11.99</ele>
        <time>2020-06-06T10:00:22Z</time>
      </trkpt>
      <trkpt lat="47.12595" lon="-1.41309">
        <ele>11.3</ele>
        <time>2020-06-06T10:00:25Z</time>
      </trkpt>
      <trkpt lat="47.12603" lon="-1.41293">
        <ele>11.41</ele>
        <time>2020-06-06T10:00:28Z</time>
      </trkpt>
      <trkpt lat="47.12612" lon="-1.41279">
        <ele>11.49</ele>
        <time>2020-06-06T10:00:31Z</time>
      </trkpt>
      <trkpt lat="47.12621" lon="-1.41276">
        <ele>12.98</ele>
        <time>2020-06-06T10:00:34Z</time>
      </trkpt>
      <trkpt lat="47.12632" lon="-1.41269">
        <ele>14.71</ele>
        <time>2020-06-06T10:00:37Z</time>
      </trkpt>
      <trkpt lat="47.12643" lon="-1.4126">
        <ele>15.58</ele>
        <time>2020-06-06T10:00:40Z</time>
      </trkpt>
      <trkpt lat="47.12652" lon="-1.41256">
        <ele>15.96</ele>
        <time>2020-06-06T10:00:42Z</time>
      </trkpt>
      <trkpt lat="47.12661" lon="-1.41254">
        <ele>19.79</ele>
        <time>2020-06-06T10:00:44Z</time>
      </trkpt>
      <trkpt lat="47.12673" lon="-1.41252">
        <ele>22.86</ele>
        <time>2020-06-06T10:00:47Z</time>
      </trkpt>
      <trkpt lat="47.12685" lon="-1.41245">
        <ele>23.47</ele>
        <time>2020-06-06T10:00:50Z</time>
      </trkpt>
      <trkpt lat="47.12693" lon="-1.41239">
        <ele>23.86</ele>
        <time>2020-06-06T10:00:53Z</time>
      </trkpt>
      <trkpt lat="47.12706" lon="-1.41232">
        <ele>24.29</ele>
        <time>2020-06-06T10:00:56Z</time>
      </trkpt>
      <trkpt lat="47.12717" lon="-1.41224">
        <ele>24.56</ele>
        <time>2020-06-06T10:01:00Z</time>
      </trkpt>
      <trkpt lat="47.12729" lon="-1.41216">
        <ele>24.9</ele>
        <time>2020-06-06T10:01:03Z</time>
      </trkpt>
      <trkpt lat="47.12739" lon="-1.41208">
        <ele>25.12</ele>
        <time>2020-06-06T10:01:06Z</time>
      </trkpt>
      <trkpt lat="47.12748" lon="-1.41197">
        <ele>25.51</ele>
        <time>2020-06-06T10:01:09Z</time>
      </trkpt>
      <trkpt lat="47.12756" lon="-1.41187">
        <ele>26.82</ele>
        <time>2020-06-06T10:01:12Z</time>
      </trkpt>
      <trkpt lat="47.12763" lon="-1.41173">
        <ele>28.12</ele>
        <time>2020-06-06T10:01:15Z</time>
      </trkpt>
      <trkpt lat="47.1277" lon="-1.4116">
        <ele>28.58</ele>
        <time>2020-06-06T10:01:18Z</time>
      </trkpt>
      <trkpt lat="47.12777" lon="-1.41146">
        <ele>28.66</ele>
        <time>2020-06-06T10:01:21Z</time>
      </trkpt>
      <trkpt lat="47.12783" lon="-1.41134">
        <ele>28.62</ele>
        <time>2020-06-06T10:01:23Z</time>
      </trkpt>
      <trkpt lat="47.12789" lon="-1.41122">
        <ele>28.72</ele>
        <time>2020-06-06T10:01:26Z</time>
      </trkpt>
      <trkpt lat="47.12796" lon="-1.41107">
        <ele>29.16</ele>
        <time>2020-06-06T10:01:30Z</time>
      </trkpt>
      <trkpt lat="47.12803" lon="-1.41093">
        <ele>29.91</ele>
        <time>2020-06-06T10:01:34Z</time>
      </trkpt>
      <trkpt lat="47.12809" lon="-1.41078">
        <ele>30.31</ele>
        <time>2020-06-06T10:01:37Z</time>
      </trkpt>
      <trkpt lat="47.12812" lon="-1.41058">
        <ele>30.6</ele>
        <time>2020-06-06T10:01:40Z</time>
      </trkpt>
      <trkpt lat="47.12811" lon="-1.41043">
        <ele>30.96</ele>
        <time>2020-06-06T10:01:42Z</time>
      </trkpt>
      <trkpt lat="47.12806" lon="-1.41026">
        <ele>31.17</ele>
        <time>2020-06-06T10:01:45Z</time>
      </trkpt>
      <trkpt lat="47.128" lon="-1.41011">
        <ele>31.38</ele>
        <time>2020-06-06T10:01:48Z</time>
      </trkpt>
      <trkpt lat="47.12795" lon="-1.40999">
        <ele>32.17</ele>
        <time>2020-06-06T10:01:50Z</time>
      </trkpt>
      <trkpt lat="47.1279" lon="-1.40987">
        <ele>32.61</ele>
        <time>2020-06-06T10:01:52Z</time>
      </trkpt>
      <trkpt lat="47.12784" lon="-1.40974">
        <ele>32.97</ele>
        <time>2020-06-06T10:01:55Z</time>
      </trkpt>
      <trkpt lat="47.12779" lon="-1.40962">
        <ele>33.34</ele>
        <time>2020-06-06T10:01:58Z</time>
      </trkpt>
      <trkpt lat="47.12774" lon="-1.40949">
        <ele>33.85</ele>
        <time>2020-06-06T10:02:01Z</time>
      </trkpt>
      <trkpt lat="47.12767" lon="-1.40938">
        <ele>34.39</ele>
        <time>2020-06-06T10:02:04Z</time>
      </trkpt>
      <trkpt lat="47.12758" lon="-1.40928">
        <ele>34.82</ele>
        <time>2020-06-06T10:02:07Z</time>
      </trkpt>
      <trkpt lat="47.12747" lon="-1.40921">
        <ele>35.15</ele>
        <time>2020-06-06T10:02:10Z</time>
      </trkpt>
      <trkpt lat="47.12736" lon="-1.40917">
        <ele>36.07</ele>
        <time>2020-06-06T10:02:13Z</time>
      </trkpt>
      <trkpt lat="47.12724" lon="-1.40916">
        <ele>37.4</ele>
        <time>2020-06-06T10:02:16Z</time>
      </trkpt>
      <trkpt lat="47.12713" lon="-1.40913">
        <ele>37.73</ele>
        <time>2020-06-06T10:02:19Z</time>
      </trkpt>
      <trkpt lat="47.12702" lon="-1.4091">
        <ele>41.25</ele>
        <time>2020-06-06T10:02:22Z</time>
      </trkpt>
      <trkpt lat="47.1269" lon="-1.40908">
        <ele>43.13</ele>
        <time>2020-06-06T10:02:25Z</time>
      </trkpt>
      <trkpt lat="47.12679" lon="-1.40905">
        <ele>44.48</ele>
        <time>2020-06-06T10:02:28Z</time>
      </trkpt>
      <trkpt lat="47.12667" lon="-1.40902">
        <ele>45.4</ele>
        <time>2020-06-06T10:02:31Z</time>
      </trkpt>
      <trkpt lat="47.12655" lon="-1.40899">
        <ele>45.17</ele>
        <time>2020-06-06T10:02:34Z</time>
      </trkpt>
      <trkpt lat="47.12646" lon="-1.40897">
        <ele>45.14</ele>
        <time>2020-06-06T10:02:36Z</time>
      </trkpt>
      <trkpt lat="47.12633" lon="-1.40894">
        <ele>46.12</ele>
        <time>2020-06-06T10:02:39Z</time>
      </trkpt>
      <trkpt lat="47.12624" lon="-1.40892">
        <ele>46.34</ele>
        <time>2020-06-06T10:02:41Z</time>
      </trkpt>
      <trkpt lat="47.12614" lon="-1.40891">
        <ele>46.68</ele>
        <time>2020-06-06T10:02:43Z</time>
      </trkpt>
      <trkpt lat="47.126" lon="-1.40888">
        <ele>47.42</ele>
        <time>2020-06-06T10:02:46Z</time>
      </trkpt>
      <trkpt lat="47.1259" lon="-1.40886">
        <ele>47.32</ele>
        <time>2020-06-06T10:02:48Z</time>
      </trkpt>
      <trkpt lat="47.12581" lon="-1.40885">
        <ele>47.04</ele>
        <time>2020-06-06T10:02:50Z</time>
      </trkpt>
      <trkpt lat="47.1257" lon="-1.40883">
        <ele>47.21</ele>
        <time>2020-06-06T10:02:52Z</time>
      </trkpt>
      <trkpt lat="47.12559" lon="-1.40881">
        <ele>47.18</ele>
        <time>2020-06-06T10:02:54Z</time>
      </trkpt>
      <trkpt lat="47.12549" lon="-1.40878">
        <ele>47.5</ele>
        <time>2020-06-06T10:02:56Z</time>
      </trkpt>
      <trkpt lat="47.12539" lon="-1.40875">
        <ele>48.86</ele>
        <time>2020-06-06T10:02:58Z</time>
      </trkpt>
      <trkpt lat="47.12529" lon="-1.40872">
        <ele>49.69</ele>
        <time>2020-06-06T10:03:00Z</time>
      </trkpt>
      <trkpt lat="47.12518" lon="-1.40871">
        <ele>51.57</ele>
        <time>2020-06-06T10:03:02Z</time>
      </trkpt>
      <trkpt lat="47.12507" lon="-1.40868">
        <ele>52.2</ele>
        <time>2020-06-06T10:03:04Z</time>
      </trkpt>
      <trkpt lat="47.12497" lon="-1.40865">
        <ele>51.97</ele>
        <time>2020-06-06T10:03:06Z</time>
      </trkpt>
      <trkpt lat="47.12487" lon="-1.40862">
        <ele>51.43</ele>
        <time>2020-06-06T10:03:08Z</time>
      </trkpt>
      <trkpt lat="47.12476" lon="-1.40859">
        <ele>50.93</ele>
        <time>2020-06-06T10:03:10Z</time>
      </trkpt>
      <trkpt lat="47.12466" lon="-1.40856">
        <ele>50.88</ele>
        <time>2020-06-06T10:03:12Z</time>
      </trkpt>
      <trkpt lat="47.12456" lon="-1.40852">
        <ele>51.19</ele>
        <time>2020-06-06T10:03:14Z</time>
      </trkpt>
      <trkpt lat="47.12446" lon="-1.40846">
        <ele>50.62</ele>
        <time>2020-06-06T10:03:16Z</time>
      </trkpt>
      <trkpt lat="47.12436" lon="-1.40839">
        <ele>51.36</ele>
        <time>2020-06-06T10:03:18Z</time>
      </trkpt>
      <trkpt lat="47.12427" lon="-1.4083">
        <ele>52.15</ele>
        <time>2020-06-06T10:03:20Z</time>
      </trkpt>
      <trkpt lat="47.12417" lon="-1.40817">
        <ele>52.76</ele>
        <time>2020-06-06T10:03:22Z</time>
      </trkpt>
      <trkpt lat="47.12409" lon="-1.40806">
        <ele>53.08</ele>
        <time>2020-06-06T10:03:24Z</time>
      </trkpt>
      <trkpt lat="47.12402" lon="-1.40794">
        <ele>53.45</ele>
        <time>2020-06-06T10:03:26Z</time>
      </trkpt>
      <trkpt lat="47.12394" lon="-1.40782">
        <ele>53.5</ele>
        <time>2020-06-06T10:03:28Z</time>
      </trkpt>
      <trkpt lat="47.12386" lon="-1.4077">
        <ele>53.33</ele>
        <time>2020-06-06T10:03:30Z</time>
      </trkpt>
      <trkpt lat="47.12378" lon="-1.40757">
        <ele>53.07</ele>
        <time>2020-06-06T10:03:32Z</time>
      </trkpt>
      <trkpt lat="47.12371" lon="-1.40745">
        <ele>52.68</ele>
        <time>2020-06-06T10:03:34Z</time>
      </trkpt>
      <trkpt lat="47.12363" lon="-1.40733">
        <ele>52.84</ele>
        <time>2020-06-06T10:03:36Z</time>
      </trkpt>
      <trkpt lat="47.12355" lon="-1.40721">
        <ele>53.4</ele>
        <time>2020-06-06T10:03:38Z</time>
      </trkpt>
      <trkpt lat="47.12347" lon="-1.40711">
        <ele>54.57</ele>
        <time>2020-06-06T10:03:40Z</time>
      </trkpt>
      <trkpt lat="47.12338" lon="-1.40704">
        <ele>55.09</ele>
        <time>2020-06-06T10:03:42Z</time>
      </trkpt>
      <trkpt lat="47.12327" lon="-1.40698">
        <ele>55.36</ele>
        <time>2020-06-06T10:03:44Z</time>
      </trkpt>
      <trkpt lat="47.12315" lon="-1.40693">
        <ele>54.74</ele>
        <time>2020-06-06T10:03:46Z</time>
      </trkpt>
      <trkpt lat="47.12304" lon="-1.40688">
        <ele>53.58</ele>
        <time>2020-06-06T10:03:48Z</time>
      </trkpt>
      <trkpt lat="47.1229" lon="-1.40681">
        <ele>52.78</ele>
        <time>2020-06-06T10:03:50Z</time>
      </trkpt>
      <trkpt lat="47.12279" lon="-1.40672">
        <ele>53.76</ele>
        <time>2020-06-06T10:03:52Z</time>
      </trkpt>
      <trkpt lat="47.12271" lon="-1.40659">
        <ele>53.55</ele>
        <time>2020-06-06T10:03:54Z</time>
      </trkpt>
      <trkpt lat="47.12264" lon="-1.40641">
        <ele>53.68</ele>
        <time>2020-06-06T10:03:56Z</time>
      </trkpt>
      <trkpt lat="47.12259" lon="-1.40624">
        <ele>54.53</ele>
        <time>2020-06-06T10:03:58Z</time>
      </trkpt>
      <trkpt lat="47.12253" lon="-1.40606">
        <ele>54.68</ele>
        <time>2020-06-06T10:04:00Z</time>
      </trkpt>
      <trkpt lat="47.12247" lon="-1.40589">
        <ele>55.42</ele>
        <time>2020-06-06T10:04:02Z</time>
      </trkpt>
      <trkpt lat="47.12239" lon="-1.40571">
        <ele>55.66</ele>
        <time>2020-06-06T10:04:04Z</time>
      </trkpt>
      <trkpt lat="47.12232" lon="-1.40551">
        <ele>55.69</ele>
        <time>2020-06-06T10:04:06Z</time>
      </trkpt>
      <trkpt lat="47.12227" lon="-1.40532">
        <ele>55.54</ele>
        <time>2020-06-06T10:04:08Z</time>
      </trkpt>
      <trkpt lat="47.12222" lon="-1.40513">
        <ele>55.4</ele>
        <time>2020-06-06T10:04:10Z</time>
      </trkpt>
      <trkpt lat="47.12217" lon="-1.40491">
        <ele>55.67</ele>
        <time>2020-06-06T10:04:12Z</time>
      </trkpt>
      <trkpt lat="47.12214" lon="-1.40472">
        <ele>57.18</ele>
        <time>2020-06-06T10:04:14Z</time>
      </trkpt>
      <trkpt lat="47.1221" lon="-1.40453">
        <ele>58.3</ele>
        <time>2020-06-06T10:04:16Z</time>
      </trkpt>
      <trkpt lat="47.12206" lon="-1.40434">
        <ele>58.07</ele>
        <time>2020-06-06T10:04:18Z</time>
      </trkpt>
      <trkpt lat="47.12203" lon="-1.40416">
        <ele>57.56</ele>
        <time>2020-06-06T10:04:20Z</time>
      </trkpt>
      <trkpt lat="47.12199" lon="-1.40398">
        <ele>57.33</ele>
        <time>2020-06-06T10:04:22Z</time>
      </trkpt>
      <trkpt lat="47.12196" lon="-1.40381">
        <ele>58</ele>
        <time>2020-06-06T10:04:24Z</time>
      </trkpt>
      <trkpt lat="47.12193" lon="-1.40362">
        <ele>57.66</ele>
        <time>2020-06-06T10:04:26Z</time>
      </trkpt>
      <trkpt lat="47.1219" lon="-1.40345">
        <ele>56.94</ele>
        <time>2020-06-06T10:04:28Z</time>
      </trkpt>
      <trkpt lat="47.12187" lon="-1.40329">
        <ele>56.61</ele>
        <time>2020-06-06T10:04:30Z</time>
      </trkpt>
      <trkpt lat="47.12183" lon="-1.40315">
        <ele>56.88</ele>
        <time>2020-06-06T10:04:32Z</time>
      </trkpt>
      <trkpt lat="47.12183" lon="-1.40301">
        <ele>57.62</ele>
        <time>2020-06-06T10:04:34Z</time>
      </trkpt>
      <trkpt lat="47.12191" lon="-1.40292">
        <ele>56.91</ele>
        <time>2020-06-06T10:04:36Z</time>
      </trkpt>
      <trkpt lat="47.12205" lon="-1.40287">
        <ele>56.7</ele>
        <time>2020-06-06T10:04:38Z</time>
      </trkpt>
      <trkpt lat="47.12217" lon="-1.40283">
        <ele>56.66</ele>
        <time>2020-06-06T10:04:40Z</time>
      </trkpt>
      <trkpt lat="47.1223" lon="-1.40279">
        <ele>56.73</ele>
        <time>2020-06-06T10:04:42Z</time>
      </trkpt>
      <trkpt lat="47.12244" lon="-1.40274">
        <ele>57.09</ele>
        <time>2020-06-06T10:04:44Z</time>
      </trkpt>
      <trkpt lat="47.12258" lon="-1.40268">
        <ele>57.09</ele>
        <time>2020-06-06T10:04:46Z</time>
      </trkpt>
      <trkpt lat="47.1227" lon="-1.40264">
        <ele>57.19</ele>
        <time>2020-06-06T10:04:48Z</time>
      </trkpt>
      <trkpt lat="47.12281" lon="-1.40259">
        <ele>56.01</ele>
        <time>2020-06-06T10:04:50Z</time>
      </trkpt>
      <trkpt lat="47.12294" lon="-1.40253">
        <ele>55.29</ele>
        <time>2020-06-06T10:04:52Z</time>
      </trkpt>
      <trkpt lat="47.12305" lon="-1.40247">
        <ele>54.42</ele>
        <time>2020-06-06T10:04:54Z</time>
      </trkpt>
      <trkpt lat="47.12317" lon="-1.40242">
        <ele>53.15</ele>
        <time>2020-06-06T10:04:56Z</time>
      </trkpt>
      <trkpt lat="47.12331" lon="-1.40236">
        <ele>53.8</ele>
        <time>2020-06-06T10:04:58Z</time>
      </trkpt>
      <trkpt lat="47.12343" lon="-1.4023">
        <ele>54.75</ele>
        <time>2020-06-06T10:05:00Z</time>
      </trkpt>
      <trkpt lat="47.12357" lon="-1.40224">
        <ele>55.21</ele>
        <time>2020-06-06T10:05:02Z</time>
      </trkpt>
      <trkpt lat="47.1237" lon="-1.40218">
        <ele>55.35</ele>
        <time>2020-06-06T10:05:04Z</time>
      </trkpt>
      <trkpt lat="47.12384" lon="-1.40212">
        <ele>55.13</ele>
        <time>2020-06-06T10:05:06Z</time>
      </trkpt>
      <trkpt lat="47.12398" lon="-1.40205">
        <ele>54.2</ele>
        <time>2020-06-06T10:05:08Z</time>
      </trkpt>
      <trkpt lat="47.12413" lon="-1.40199">
        <ele>53.97</ele>
        <time>2020-06-06T10:05:10Z</time>
      </trkpt>
      <trkpt lat="47.12427" lon="-1.40193">
        <ele>53.6</ele>
        <time>2020-06-06T10:05:12Z</time>
      </trkpt>
      <trkpt lat="47.12441" lon="-1.40185">
        <ele>52.29</ele>
        <time>2020-06-06T10:05:14Z</time>
      </trkpt>
      <trkpt lat="47.12457" lon="-1.40178">
        <ele>51.76</ele>
        <time>2020-06-06T10:05:16Z</time>
      </trkpt>
      <trkpt lat="47.12472" lon="-1.4017">
        <ele>51.22</ele>
        <time>2020-06-06T10:05:18Z</time>
      </trkpt>
      <trkpt lat="47.12487" lon="-1.40163">
        <ele>50.83</ele>
        <time>2020-06-06T10:05:20Z</time>
      </trkpt>
      <trkpt lat="47.12501" lon="-1.40158">
        <ele>51.56</ele>
        <time>2020-06-06T10:05:22Z</time>
      </trkpt>
      <trkpt lat="47.1251" lon="-1.40155">
        <ele>52.17</ele>
        <time>2020-06-06T10:05:23Z</time>
      </trkpt>
      <trkpt lat="47.12528" lon="-1.40152">
        <ele>52.81</ele>
        <time>2020-06-06T10:05:25Z</time>
      </trkpt>
      <trkpt lat="47.12545" lon="-1.40153">
        <ele>52.78</ele>
        <time>2020-06-06T10:05:27Z</time>
      </trkpt>
      <trkpt lat="47.12559" lon="-1.40156">
        <ele>52.23</ele>
        <time>2020-06-06T10:05:29Z</time>
      </trkpt>
      <trkpt lat="47.12575" lon="-1.40161">
        <ele>51.76</ele>
        <time>2020-06-06T10:05:31Z</time>
      </trkpt>
      <trkpt lat="47.12589" lon="-1.40166">
        <ele>51.46</ele>
        <time>2020-06-06T10:05:33Z</time>
      </trkpt>
      <trkpt lat="47.12603" lon="-1.4017">
        <ele>51.55</ele>
        <time>2020-06-06T10:05:35Z</time>
      </trkpt>
      <trkpt lat="47.12619" lon="-1.4017">
        <ele>50.73</ele>
        <time>2020-06-06T10:05:37Z</time>
      </trkpt>
      <trkpt lat="47.12635" lon="-1.40168">
        <ele>50.6</ele>
        <time>2020-06-06T10:05:39Z</time>
      </trkpt>
      <trkpt lat="47.12652" lon="-1.40165">
        <ele>50.1</ele>
        <time>2020-06-06T10:05:41Z</time>
      </trkpt>
      <trkpt lat="47.12667" lon="-1.40163">
        <ele>49.79</ele>
        <time>2020-06-06T10:05:43Z</time>
      </trkpt>
      <trkpt lat="47.12683" lon="-1.40159">
        <ele>49.42</ele>
        <time>2020-06-06T10:05:45Z</time>
      </trkpt>
      <trkpt lat="47.127" lon="-1.4015">
        <ele>47.73</ele>
        <time>2020-06-06T10:05:47Z</time>
      </trkpt>
      <trkpt lat="47.12713" lon="-1.40138">
        <ele>45.63</ele>
        <time>2020-06-06T10:05:49Z</time>
      </trkpt>
      <trkpt lat="47.12727" lon="-1.40125">
        <ele>44.46</ele>
        <time>2020-06-06T10:05:51Z</time>
      </trkpt>
      <trkpt lat="47.1274" lon="-1.40111">
        <ele>44.53</ele>
        <time>2020-06-06T10:05:53Z</time>
      </trkpt>
      <trkpt lat="47.12752" lon="-1.40098">
        <ele>45.39</ele>
        <time>2020-06-06T10:05:55Z</time>
      </trkpt>
      <trkpt lat="47.12765" lon="-1.40086">
        <ele>45.63</ele>
        <time>2020-06-06T10:05:57Z</time>
      </trkpt>
      <trkpt lat="47.12778" lon="-1.40074">
        <ele>44.54</ele>
        <time>2020-06-06T10:05:59Z</time>
      </trkpt>
      <trkpt lat="47.12793" lon="-1.4006">
        <ele>43.33</ele>
        <time>2020-06-06T10:06:01Z</time>
      </trkpt>
      <trkpt lat="47.12807" lon="-1.40046">
        <ele>42.77</ele>
        <time>2020-06-06T10:06:03Z</time>
      </trkpt>
      <trkpt lat="47.1282" lon="-1.40033">
        <ele>42.63</ele>
        <time>2020-06-06T10:06:05Z</time>
      </trkpt>
      <trkpt lat="47.12832" lon="-1.40022">
        <ele>43.17</ele>
        <time>2020-06-06T10:06:07Z</time>
      </trkpt>
      <trkpt lat="47.12846" lon="-1.4001">
        <ele>44.38</ele>
        <time>2020-06-06T10:06:09Z</time>
      </trkpt>
      <trkpt lat="47.12855" lon="-1.39999">
        <ele>44.21</ele>
        <time>2020-06-06T10:06:11Z</time>
      </trkpt>
      <trkpt lat="47.12866" lon="-1.39987">
        <ele>44.14</ele>
        <time>2020-06-06T10:06:13Z</time>
      </trkpt>
      <trkpt lat="47.12877" lon="-1.39977">
        <ele>43.23</ele>
        <time>2020-06-06T10:06:15Z</time>
      </trkpt>
      <trkpt lat="47.1289" lon="-1.39966">
        <ele>41.55</ele>
        <time>2020-06-06T10:06:17Z</time>
      </trkpt>
      <trkpt lat="47.12902" lon="-1.39958">
        <ele>41.61</ele>
        <time>2020-06-06T10:06:19Z</time>
      </trkpt>
      <trkpt lat="47.12915" lon="-1.39951">
        <ele>41.89</ele>
        <time>2020-06-06T10:06:21Z</time>
      </trkpt>
      <trkpt lat="47.12927" lon="-1.39945">
        <ele>41.65</ele>
        <time>2020-06-06T10:06:23Z</time>
      </trkpt>
      <trkpt lat="47.1294" lon="-1.3994">
        <ele>41.71</ele>
        <time>2020-06-06T10:06:25Z</time>
      </trkpt>
      <trkpt lat="47.12954" lon="-1.39933">
        <ele>43.37</ele>
        <time>2020-06-06T10:06:27Z</time>
      </trkpt>
      <trkpt lat="47.12966" lon="-1.39927">
        <ele>44.89</ele>
        <time>2020-06-06T10:06:29Z</time>
      </trkpt>
      <trkpt lat="47.12977" lon="-1.39921">
        <ele>45.11</ele>
        <time>2020-06-06T10:06:31Z</time>
      </trkpt>
      <trkpt lat="47.12985" lon="-1.39913">
        <ele>45.74</ele>
        <time>2020-06-06T10:06:33Z</time>
      </trkpt>
      <trkpt lat="47.12994" lon="-1.39898">
        <ele>45.87</ele>
        <time>2020-06-06T10:06:36Z</time>
      </trkpt>
      <trkpt lat="47.13003" lon="-1.39895">
        <ele>46.18</ele>
        <time>2020-06-06T10:06:39Z</time>
      </trkpt>
      <trkpt lat="47.13012" lon="-1.39915">
        <ele>46.08</ele>
        <time>2020-06-06T10:06:41Z</time>
      </trkpt>
      <trkpt lat="47.13018" lon="-1.39931">
        <ele>46.78</ele>
        <time>2020-06-06T10:06:43Z</time>
      </trkpt>
      <trkpt lat="47.13026" lon="-1.39947">
        <ele>46.24</ele>
        <time>2020-06-06T10:06:45Z</time>
      </trkpt>
      <trkpt lat="47.13036" lon="-1.39964">
        <ele>45.42</ele>
        <time>2020-06-06T10:06:47Z</time>
      </trkpt>
      <trkpt lat="47.13046" lon="-1.39975">
        <ele>44.3</ele>
        <time>2020-06-06T10:06:49Z</time>
      </trkpt>
      <trkpt lat="47.13058" lon="-1.39989">
        <ele>42.63</ele>
        <time>2020-06-06T10:06:51Z</time>
      </trkpt>
      <trkpt lat="47.13072" lon="-1.39999">
        <ele>41.16</ele>
        <time>2020-06-06T10:06:53Z</time>
      </trkpt>
      <trkpt lat="47.13085" lon="-1.40006">
        <ele>40.25</ele>
        <time>2020-06-06T10:06:55Z</time>
      </trkpt>
      <trkpt lat="47.13099" lon="-1.40014">
        <ele>39.55</ele>
        <time>2020-06-06T10:06:57Z</time>
      </trkpt>
      <trkpt lat="47.13114" lon="-1.4002">
        <ele>38.61</ele>
        <time>2020-06-06T10:06:59Z</time>
      </trkpt>
      <trkpt lat="47.13128" lon="-1.40026">
        <ele>38.51</ele>
        <time>2020-06-06T10:07:01Z</time>
      </trkpt>
      <trkpt lat="47.13143" lon="-1.40033">
        <ele>38.76</ele>
        <time>2020-06-06T10:07:03Z</time>
      </trkpt>
      <trkpt lat="47.13157" lon="-1.4004">
        <ele>40.21</ele>
        <time>2020-06-06T10:07:05Z</time>
      </trkpt>
      <trkpt lat="47.13172" lon="-1.40046">
        <ele>41.97</ele>
        <time>2020-06-06T10:07:07Z</time>
      </trkpt>
      <trkpt lat="47.13186" lon="-1.40053">
        <ele>43.13</ele>
        <time>2020-06-06T10:07:09Z</time>
      </trkpt>
      <trkpt lat="47.13199" lon="-1.4006">
        <ele>43.65</ele>
        <time>2020-06-06T10:07:11Z</time>
      </trkpt>
      <trkpt lat="47.13213" lon="-1.40069">
        <ele>43.88</ele>
        <time>2020-06-06T10:07:13Z</time>
      </trkpt>
      <trkpt lat="47.13225" lon="-1.40078">
        <ele>44.14</ele>
        <time>2020-06-06T10:07:15Z</time>
      </trkpt>
      <trkpt lat="47.13236" lon="-1.40087">
        <ele>44.62</ele>
        <time>2020-06-06T10:07:17Z</time>
      </trkpt>
      <trkpt lat="47.13248" lon="-1.40096">
        <ele>45.16</ele>
        <time>2020-06-06T10:07:19Z</time>
      </trkpt>
      <trkpt lat="47.13261" lon="-1.40107">
        <ele>45.2</ele>
        <time>2020-06-06T10:07:21Z</time>
      </trkpt>
      <trkpt lat="47.13273" lon="-1.40117">
        <ele>45.77</ele>
        <time>2020-06-06T10:07:23Z</time>
      </trkpt>
      <trkpt lat="47.13284" lon="-1.40127">
        <ele>45.61</ele>
        <time>2020-06-06T10:07:25Z</time>
      </trkpt>
      <trkpt lat="47.13294" lon="-1.40136">
        <ele>45.45</ele>
        <time>2020-06-06T10:07:27Z</time>
      </trkpt>
      <trkpt lat="47.13305" lon="-1.40144">
        <ele>45.67</ele>
        <time>2020-06-06T10:07:29Z</time>
      </trkpt>
      <trkpt lat="47.13316" lon="-1.40153">
        <ele>45.36</ele>
        <time>2020-06-06T10:07:31Z</time>
      </trkpt>
      <trkpt lat="47.13328" lon="-1.40162">
        <ele>45.12</ele>
        <time>2020-06-06T10:07:33Z</time>
      </trkpt>
      <trkpt lat="47.13341" lon="-1.40172">
        <ele>45.15</ele>
        <time>2020-06-06T10:07:35Z</time>
      </trkpt>
      <trkpt lat="47.13351" lon="-1.40178">
        <ele>44.66</ele>
        <time>2020-06-06T10:07:37Z</time>
      </trkpt>
      <trkpt lat="47.13361" lon="-1.40183">
        <ele>44.32</ele>
        <time>2020-06-06T10:07:39Z</time>
      </trkpt>
      <trkpt lat="47.13373" lon="-1.40186">
        <ele>44.52</ele>
        <time>2020-06-06T10:07:41Z</time>
      </trkpt>
      <trkpt lat="47.13386" lon="-1.40187">
        <ele>44.36</ele>
        <time>2020-06-06T10:07:43Z</time>
      </trkpt>
      <trkpt lat="47.134" lon="-1.40187">
        <ele>45.02</ele>
        <time>2020-06-06T10:07:45Z</time>
      </trkpt>
      <trkpt lat="47.13414" lon="-1.40187">
        <ele>45.65</ele>
        <time>2020-06-06T10:07:47Z</time>
      </trkpt>
      <trkpt lat="47.13427" lon="-1.40187">
        <ele>45.83</ele>
        <time>2020-06-06T10:07:49Z</time>
      </trkpt>
      <trkpt lat="47.13438" lon="-1.40188">
        <ele>46.29</ele>
        <time>2020-06-06T10:07:51Z</time>
      </trkpt>
      <trkpt lat="47.1345" lon="-1.4019">
        <ele>46.98</ele>
        <time>2020-06-06T10:07:53Z</time>
      </trkpt>
      <trkpt lat="47.13462" lon="-1.40194">
        <ele>47.57</ele>
        <time>2020-06-06T10:07:55Z</time>
      </trkpt>
      <trkpt lat="47.13473" lon="-1.40199">
        <ele>47.53</ele>
        <time>2020-06-06T10:07:57Z</time>
      </trkpt>
      <trkpt lat="47.13485" lon="-1.40205">
        <ele>46.95</ele>
        <time>2020-06-06T10:07:59Z</time>
      </trkpt>
      <trkpt lat="47.13499" lon="-1.40211">
        <ele>46.3</ele>
        <time>2020-06-06T10:08:01Z</time>
      </trkpt>
      <trkpt lat="47.13511" lon="-1.40217">
        <ele>45.11</ele>
        <time>2020-06-06T10:08:03Z</time>
      </trkpt>
      <trkpt lat="47.13523" lon="-1.40222">
        <ele>44.02</ele>
        <time>2020-06-06T10:08:05Z</time>
      </trkpt>
      <trkpt lat="47.13535" lon="-1.40228">
        <ele>43.77</ele>
        <time>2020-06-06T10:08:07Z</time>
      </trkpt>
      <trkpt lat="47.13548" lon="-1.40234">
        <ele>43.83</ele>
        <time>2020-06-06T10:08:09Z</time>
      </trkpt>
      <trkpt lat="47.1356" lon="-1.4024">
        <ele>43.98</ele>
        <time>2020-06-06T10:08:11Z</time>
      </trkpt>
      <trkpt lat="47.13572" lon="-1.40246">
        <ele>44.41</ele>
        <time>2020-06-06T10:08:13Z</time>
      </trkpt>
      <trkpt lat="47.13585" lon="-1.40252">
        <ele>44.64</ele>
        <time>2020-06-06T10:08:15Z</time>
      </trkpt>
      <trkpt lat="47.13597" lon="-1.40258">
        <ele>45.33</ele>
        <time>2020-06-06T10:08:17Z</time>
      </trkpt>
      <trkpt lat="47.1361" lon="-1.40264">
        <ele>45.68</ele>
        <time>2020-06-06T10:08:19Z</time>
      </trkpt>
      <trkpt lat="47.13623" lon="-1.4027">
        <ele>46.03</ele>
        <time>2020-06-06T10:08:21Z</time>
      </trkpt>
      <trkpt lat="47.13636" lon="-1.40277">
        <ele>46.64</ele>
        <time>2020-06-06T10:08:23Z</time>
      </trkpt>
      <trkpt lat="47.13647" lon="-1.40282">
        <ele>46.52</ele>
        <time>2020-06-06T10:08:25Z</time>
      </trkpt>
      <trkpt lat="47.1366" lon="-1.40285">
        <ele>46</ele>
        <time>2020-06-06T10:08:27Z</time>
      </trkpt>
      <trkpt lat="47.13673" lon="-1.40287">
        <ele>45.63</ele>
        <time>2020-06-06T10:08:29Z</time>
      </trkpt>
      <trkpt lat="47.13685" lon="-1.40288">
        <ele>44.93</ele>
        <time>2020-06-06T10:08:31Z</time>
      </trkpt>
      <trkpt lat="47.13699" lon="-1.40286">
        <ele>44.33</ele>
        <time>2020-06-06T10:08:33Z</time>
      </trkpt>
      <trkpt lat="47.13714" lon="-1.40283">
        <ele>43.79</ele>
        <time>2020-06-06T10:08:35Z</time>
      </trkpt>
      <trkpt lat="47.13727" lon="-1.40279">
        <ele>43.8</ele>
        <time>2020-06-06T10:08:37Z</time>
      </trkpt>
      <trkpt lat="47.1374" lon="-1.40276">
        <ele>43.38</ele>
        <time>2020-06-06T10:08:39Z</time>
      </trkpt>
      <trkpt lat="47.13752" lon="-1.40273">
        <ele>43.29</ele>
        <time>2020-06-06T10:08:41Z</time>
      </trkpt>
      <trkpt lat="47.13766" lon="-1.40269">
        <ele>43.71</ele>
        <time>2020-06-06T10:08:43Z</time>
      </trkpt>
      <trkpt lat="47.13778" lon="-1.40266">
        <ele>43.92</ele>
        <time>2020-06-06T10:08:45Z</time>
      </trkpt>
      <trkpt lat="47.1379" lon="-1.40265">
        <ele>44.15</ele>
        <time>2020-06-06T10:08:47Z</time>
      </trkpt>
      <trkpt lat="47.13803" lon="-1.40263">
        <ele>44.55</ele>
        <time>2020-06-06T10:08:49Z</time>
      </trkpt>
      <trkpt lat="47.13817" lon="-1.4026">
        <ele>45.73</ele>
        <time>2020-06-06T10:08:51Z</time>
      </trkpt>
      <trkpt lat="47.1383" lon="-1.40257">
        <ele>46.27</ele>
        <time>2020-06-06T10:08:53Z</time>
      </trkpt>
      <trkpt lat="47.13843" lon="-1.40256">
        <ele>46.55</ele>
        <time>2020-06-06T10:08:55Z</time>
      </trkpt>
      <trkpt lat="47.13855" lon="-1.40253">
        <ele>46.36</ele>
        <time>2020-06-06T10:08:57Z</time>
      </trkpt>
      <trkpt lat="47.13867" lon="-1.40251">
        <ele>45.54</ele>
        <time>2020-06-06T10:08:59Z</time>
      </trkpt>
      <trkpt lat="47.1388" lon="-1.40249">
        <ele>44.38</ele>
        <time>2020-06-06T10:09:01Z</time>
      </trkpt>
      <trkpt lat="47.13893" lon="-1.40247">
        <ele>44.33</ele>
        <time>2020-06-06T10:09:03Z</time>
      </trkpt>
      <trkpt lat="47.13906" lon="-1.40245">
        <ele>44.76</ele>
        <time>2020-06-06T10:09:05Z</time>
      </trkpt>
      <trkpt lat="47.13917" lon="-1.40246">
        <ele>45.07</ele>
        <time>2020-06-06T10:09:07Z</time>
      </trkpt>
      <trkpt lat="47.1393" lon="-1.40248">
        <ele>44.92</ele>
        <time>2020-06-06T10:09:09Z</time>
      </trkpt>
      <trkpt lat="47.13943" lon="-1.40251">
        <ele>44.78</ele>
        <time>2020-06-06T10:09:11Z</time>
      </trkpt>
      <trkpt lat="47.13953" lon="-1.40254">
        <ele>44.52</ele>
        <time>2020-06-06T10:09:13Z</time>
      </trkpt>
      <trkpt lat="47.13965" lon="-1.4026">
        <ele>43.96</ele>
        <time>2020-06-06T10:09:15Z</time>
      </trkpt>
      <trkpt lat="47.13978" lon="-1.40267">
        <ele>43.29</ele>
        <time>2020-06-06T10:09:17Z</time>
      </trkpt>
      <trkpt lat="47.13989" lon="-1.40274">
        <ele>43.63</ele>
        <time>2020-06-06T10:09:19Z</time>
      </trkpt>
      <trkpt lat="47.14" lon="-1.40283">
        <ele>43.92</ele>
        <time>2020-06-06T10:09:21Z</time>
      </trkpt>
      <trkpt lat="47.14011" lon="-1.40293">
        <ele>43.74</ele>
        <time>2020-06-06T10:09:23Z</time>
      </trkpt>
      <trkpt lat="47.1402" lon="-1.40304">
        <ele>43.59</ele>
        <time>2020-06-06T10:09:25Z</time>
      </trkpt>
      <trkpt lat="47.14028" lon="-1.40317">
        <ele>43.16</ele>
        <time>2020-06-06T10:09:27Z</time>
      </trkpt>
      <trkpt lat="47.14035" lon="-1.40329">
        <ele>43.04</ele>
        <time>2020-06-06T10:09:29Z</time>
      </trkpt>
      <trkpt lat="47.14044" lon="-1.40347">
        <ele>43.37</ele>
        <time>2020-06-06T10:09:31Z</time>
      </trkpt>
      <trkpt lat="47.1405" lon="-1.40363">
        <ele>43.61</ele>
        <time>2020-06-06T10:09:33Z</time>
      </trkpt>
      <trkpt lat="47.14053" lon="-1.40377">
        <ele>43.82</ele>
        <time>2020-06-06T10:09:35Z</time>
      </trkpt>
      <trkpt lat="47.14058" lon="-1.40394">
        <ele>43.2</ele>
        <time>2020-06-06T10:09:37Z</time>
      </trkpt>
      <trkpt lat="47.14062" lon="-1.4041">
        <ele>42.66</ele>
        <time>2020-06-06T10:09:39Z</time>
      </trkpt>
      <trkpt lat="47.14066" lon="-1.40427">
        <ele>42.26</ele>
        <time>2020-06-06T10:09:41Z</time>
      </trkpt>
      <trkpt lat="47.14071" lon="-1.40443">
        <ele>42.61</ele>
        <time>2020-06-06T10:09:43Z</time>
      </trkpt>
      <trkpt lat="47.14077" lon="-1.40461">
        <ele>42.69</ele>
        <time>2020-06-06T10:09:45Z</time>
      </trkpt>
      <trkpt lat="47.14085" lon="-1.40479">
        <ele>41.66</ele>
        <time>2020-06-06T10:09:47Z</time>
      </trkpt>
      <trkpt lat="47.14093" lon="-1.40493">
        <ele>40.47</ele>
        <time>2020-06-06T10:09:49Z</time>
      </trkpt>
      <trkpt lat="47.141" lon="-1.40505">
        <ele>38.95</ele>
        <time>2020-06-06T10:09:51Z</time>
      </trkpt>
      <trkpt lat="47.1411" lon="-1.40517">
        <ele>39.44</ele>
        <time>2020-06-06T10:09:53Z</time>
      </trkpt>
      <trkpt lat="47.14119" lon="-1.40529">
        <ele>39.49</ele>
        <time>2020-06-06T10:09:55Z</time>
      </trkpt>
      <trkpt lat="47.14129" lon="-1.40542">
        <ele>40.37</ele>
        <time>2020-06-06T10:09:57Z</time>
      </trkpt>
      <trkpt lat="47.14138" lon="-1.40552">
        <ele>41.78</ele>
        <time>2020-06-06T10:09:59Z</time>
      </trkpt>
      <trkpt lat="47.14146" lon="-1.40564">
        <ele>42.11</ele>
        <time>2020-06-06T10:10:00Z</time>
      </trkpt>
      <trkpt lat="47.14155" lon="-1.40576">
        <ele>42.32</ele>
        <time>2020-06-06T10:10:02Z</time>
      </trkpt>
      <trkpt lat="47.14165" lon="-1.40588">
        <ele>42.7</ele>
        <time>2020-06-06T10:10:04Z</time>
      </trkpt>
      <trkpt lat="47.14175" lon="-1.40601">
        <ele>42.74</ele>
        <time>2020-06-06T10:10:06Z</time>
      </trkpt>
      <trkpt lat="47.14184" lon="-1.40614">
        <ele>42.9</ele>
        <time>2020-06-06T10:10:08Z</time>
      </trkpt>
      <trkpt lat="47.14191" lon="-1.40623">
        <ele>41.94</ele>
        <time>2020-06-06T10:10:10Z</time>
      </trkpt>
      <trkpt lat="47.14201" lon="-1.40637">
        <ele>40.69</ele>
        <time>2020-06-06T10:10:12Z</time>
      </trkpt>
      <trkpt lat="47.1421" lon="-1.4065">
        <ele>40.75</ele>
        <time>2020-06-06T10:10:14Z</time>
      </trkpt>
      <trkpt lat="47.14218" lon="-1.40661">
        <ele>41.35</ele>
        <time>2020-06-06T10:10:16Z</time>
      </trkpt>
      <trkpt lat="47.14227" lon="-1.40674">
        <ele>41.32</ele>
        <time>2020-06-06T10:10:18Z</time>
      </trkpt>
      <trkpt lat="47.14236" lon="-1.40687">
        <ele>40.54</ele>
        <time>2020-06-06T10:10:20Z</time>
      </trkpt>
      <trkpt lat="47.14243" lon="-1.40701">
        <ele>39.32</ele>
        <time>2020-06-06T10:10:22Z</time>
      </trkpt>
      <trkpt lat="47.14251" lon="-1.40715">
        <ele>38.38</ele>
        <time>2020-06-06T10:10:24Z</time>
      </trkpt>
      <trkpt lat="47.14259" lon="-1.4073">
        <ele>39.02</ele>
        <time>2020-06-06T10:10:26Z</time>
      </trkpt>
      <trkpt lat="47.14267" lon="-1.40745">
        <ele>39</ele>
        <time>2020-06-06T10:10:28Z</time>
      </trkpt>
      <trkpt lat="47.14275" lon="-1.40761">
        <ele>38.87</ele>
        <time>2020-06-06T10:10:30Z</time>
      </trkpt>
      <trkpt lat="47.14281" lon="-1.40774">
        <ele>39.12</ele>
        <time>2020-06-06T10:10:32Z</time>
      </trkpt>
      <trkpt lat="47.14289" lon="-1.40786">
        <ele>39.61</ele>
        <time>2020-06-06T10:10:34Z</time>
      </trkpt>
      <trkpt lat="47.14297" lon="-1.408">
        <ele>39.64</ele>
        <time>2020-06-06T10:10:36Z</time>
      </trkpt>
      <trkpt lat="47.14305" lon="-1.40814">
        <ele>39.03</ele>
        <time>2020-06-06T10:10:38Z</time>
      </trkpt>
      <trkpt lat="47.14313" lon="-1.40828">
        <ele>38.69</ele>
        <time>2020-06-06T10:10:40Z</time>
      </trkpt>
      <trkpt lat="47.14319" lon="-1.4084">
        <ele>38.85</ele>
        <time>2020-06-06T10:10:42Z</time>
      </trkpt>
      <trkpt lat="47.14325" lon="-1.40851">
        <ele>38.81</ele>
        <time>2020-06-06T10:10:44Z</time>
      </trkpt>
      <trkpt lat="47.14332" lon="-1.40863">
        <ele>38.29</ele>
        <time>2020-06-06T10:10:46Z</time>
      </trkpt>
      <trkpt lat="47.1434" lon="-1.4088">
        <ele>37.47</ele>
        <time>2020-06-06T10:10:49Z</time>
      </trkpt>
      <trkpt lat="47.14347" lon="-1.40891">
        <ele>37.06</ele>
        <time>2020-06-06T10:10:51Z</time>
      </trkpt>
      <trkpt lat="47.14353" lon="-1.40901">
        <ele>36.65</ele>
        <time>2020-06-06T10:10:53Z</time>
      </trkpt>
      <trkpt lat="47.1436" lon="-1.40913">
        <ele>37.02</ele>
        <time>2020-06-06T10:10:55Z</time>
      </trkpt>
      <trkpt lat="47.14367" lon="-1.40927">
        <ele>37.23</ele>
        <time>2020-06-06T10:10:57Z</time>
      </trkpt>
      <trkpt lat="47.14374" lon="-1.40939">
        <ele>37.65</ele>
        <time>2020-06-06T10:10:59Z</time>
      </trkpt>
      <trkpt lat="47.1438" lon="-1.4095">
        <ele>37.64</ele>
        <time>2020-06-06T10:11:01Z</time>
      </trkpt>
      <trkpt lat="47.14386" lon="-1.4096">
        <ele>38.32</ele>
        <time>2020-06-06T10:11:03Z</time>
      </trkpt>
      <trkpt lat="47.14393" lon="-1.40972">
        <ele>38.77</ele>
        <time>2020-06-06T10:11:05Z</time>
      </trkpt>
      <trkpt lat="47.14399" lon="-1.40983">
        <ele>39.4</ele>
        <time>2020-06-06T10:11:07Z</time>
      </trkpt>
      <trkpt lat="47.14404" lon="-1.40995">
        <ele>39.71</ele>
        <time>2020-06-06T10:11:09Z</time>
      </trkpt>
      <trkpt lat="47.14409" lon="-1.41008">
        <ele>40.74</ele>
        <time>2020-06-06T10:11:11Z</time>
      </trkpt>
      <trkpt lat="47.14412" lon="-1.41022">
        <ele>40.77</ele>
        <time>2020-06-06T10:11:13Z</time>
      </trkpt>
      <trkpt lat="47.14415" lon="-1.41036">
        <ele>41.25</ele>
        <time>2020-06-06T10:11:15Z</time>
      </trkpt>
      <trkpt lat="47.14415" lon="-1.4105">
        <ele>41.83</ele>
        <time>2020-06-06T10:11:17Z</time>
      </trkpt>
      <trkpt lat="47.14413" lon="-1.41067">
        <ele>41.98</ele>
        <time>2020-06-06T10:11:19Z</time>
      </trkpt>
      <trkpt lat="47.14411" lon="-1.41082">
        <ele>42.69</ele>
        <time>2020-06-06T10:11:21Z</time>
      </trkpt>
      <trkpt lat="47.1441" lon="-1.41097">
        <ele>43.14</ele>
        <time>2020-06-06T10:11:23Z</time>
      </trkpt>
      <trkpt lat="47.14408" lon="-1.41112">
        <ele>42.27</ele>
        <time>2020-06-06T10:11:25Z</time>
      </trkpt>
      <trkpt lat="47.14406" lon="-1.41127">
        <ele>42.04</ele>
        <time>2020-06-06T10:11:27Z</time>
      </trkpt>
      <trkpt lat="47.14405" lon="-1.41146">
        <ele>41.47</ele>
        <time>2020-06-06T10:11:29Z</time>
      </trkpt>
      <trkpt lat="47.14404" lon="-1.41167">
        <ele>40.87</ele>
        <time>2020-06-06T10:11:32Z</time>
      </trkpt>
      <trkpt lat="47.14402" lon="-1.41182">
        <ele>40.3</ele>
        <time>2020-06-06T10:11:34Z</time>
      </trkpt>
      <trkpt lat="47.14401" lon="-1.41195">
        <ele>40.31</ele>
        <time>2020-06-06T10:11:36Z</time>
      </trkpt>
      <trkpt lat="47.144" lon="-1.4121">
        <ele>40.65</ele>
        <time>2020-06-06T10:11:38Z</time>
      </trkpt>
      <trkpt lat="47.14399" lon="-1.41224">
        <ele>40.81</ele>
        <time>2020-06-06T10:11:40Z</time>
      </trkpt>
      <trkpt lat="47.14398" lon="-1.41238">
        <ele>40.6</ele>
        <time>2020-06-06T10:11:42Z</time>
      </trkpt>
      <trkpt lat="47.14397" lon="-1.41254">
        <ele>39.69</ele>
        <time>2020-06-06T10:11:44Z</time>
      </trkpt>
      <trkpt lat="47.14396" lon="-1.4127">
        <ele>39.82</ele>
        <time>2020-06-06T10:11:46Z</time>
      </trkpt>
      <trkpt lat="47.14395" lon="-1.41283">
        <ele>41.22</ele>
        <time>2020-06-06T10:11:48Z</time>
      </trkpt>
      <trkpt lat="47.14394" lon="-1.413">
        <ele>42.45</ele>
        <time>2020-06-06T10:11:50Z</time>
      </trkpt>
      <trkpt lat="47.14394" lon="-1.41315">
        <ele>43.17</ele>
        <time>2020-06-06T10:11:52Z</time>
      </trkpt>
      <trkpt lat="47.14393" lon="-1.4133">
        <ele>43.9</ele>
        <time>2020-06-06T10:11:54Z</time>
      </trkpt>
      <trkpt lat="47.14393" lon="-1.41346">
        <ele>43.85</ele>
        <time>2020-06-06T10:11:56Z</time>
      </trkpt>
      <trkpt lat="47.14392" lon="-1.41363">
        <ele>42.9</ele>
        <time>2020-06-06T10:11:58Z</time>
      </trkpt>
      <trkpt lat="47.14392" lon="-1.41377">
        <ele>41.1</ele>
        <time>2020-06-06T10:12:00Z</time>
      </trkpt>
      <trkpt lat="47.14392" lon="-1.414">
        <ele>38.18</ele>
        <time>2020-06-06T10:12:03Z</time>
      </trkpt>
      <trkpt lat="47.14393" lon="-1.41417">
        <ele>38.63</ele>
        <time>2020-06-06T10:12:05Z</time>
      </trkpt>
      <trkpt lat="47.14393" lon="-1.41434">
        <ele>38.68</ele>
        <time>2020-06-06T10:12:07Z</time>
      </trkpt>
      <trkpt lat="47.14393" lon="-1.41448">
        <ele>37.64</ele>
        <time>2020-06-06T10:12:09Z</time>
      </trkpt>
      <trkpt lat="47.14393" lon="-1.41465">
        <ele>36.79</ele>
        <time>2020-06-06T10:12:11Z</time>
      </trkpt>
      <trkpt lat="47.14393" lon="-1.41479">
        <ele>36.55</ele>
        <time>2020-06-06T10:12:13Z</time>
      </trkpt>
      <trkpt lat="47.14393" lon="-1.41494">
        <ele>36.74</ele>
        <time>2020-06-06T10:12:15Z</time>
      </trkpt>
      <trkpt lat="47.14394" lon="-1.41509">
        <ele>37.58</ele>
        <time>2020-06-06T10:12:17Z</time>
      </trkpt>
      <trkpt lat="47.14394" lon="-1.41525">
        <ele>37.72</ele>
        <time>2020-06-06T10:12:19Z</time>
      </trkpt>
      <trkpt lat="47.14394" lon="-1.41543">
        <ele>37.89</ele>
        <time>2020-06-06T10:12:21Z</time>
      </trkpt>
      <trkpt lat="47.14394" lon="-1.41559">
        <ele>37.82</ele>
        <time>2020-06-06T10:12:23Z</time>
      </trkpt>
      <trkpt lat="47.14394" lon="-1.41573">
        <ele>39.58</ele>
        <time>2020-06-06T10:12:25Z</time>
      </trkpt>
      <trkpt lat="47.14395" lon="-1.41586">
        <ele>40.76</ele>
        <time>2020-06-06T10:12:27Z</time>
      </trkpt>
      <trkpt lat="47.14392" lon="-1.41601">
        <ele>40.95</ele>
        <time>2020-06-06T10:12:29Z</time>
      </trkpt>
      <trkpt lat="47.14388" lon="-1.41618">
        <ele>41.27</ele>
        <time>2020-06-06T10:12:31Z</time>
      </trkpt>
      <trkpt lat="47.14384" lon="-1.41635">
        <ele>40.54</ele>
        <time>2020-06-06T10:12:33Z</time>
      </trkpt>
      <trkpt lat="47.14381" lon="-1.4165">
        <ele>39.5</ele>
        <time>2020-06-06T10:12:35Z</time>
      </trkpt>
      <trkpt lat="47.14381" lon="-1.41665">
        <ele>39.1</ele>
        <time>2020-06-06T10:12:37Z</time>
      </trkpt>
      <trkpt lat="47.14383" lon="-1.41678">
        <ele>39.62</ele>
        <time>2020-06-06T10:12:39Z</time>
      </trkpt>
      <trkpt lat="47.14386" lon="-1.41693">
        <ele>40.61</ele>
        <time>2020-06-06T10:12:41Z</time>
      </trkpt>
      <trkpt lat="47.14391" lon="-1.41711">
        <ele>40.17</ele>
        <time>2020-06-06T10:12:43Z</time>
      </trkpt>
      <trkpt lat="47.14395" lon="-1.41727">
        <ele>39.83</ele>
        <time>2020-06-06T10:12:45Z</time>
      </trkpt>
      <trkpt lat="47.14399" lon="-1.41745">
        <ele>38.56</ele>
        <time>2020-06-06T10:12:47Z</time>
      </trkpt>
      <trkpt lat="47.14402" lon="-1.41766">
        <ele>37.23</ele>
        <time>2020-06-06T10:12:49Z</time>
      </trkpt>
      <trkpt lat="47.14404" lon="-1.41785">
        <ele>35.5</ele>
        <time>2020-06-06T10:12:51Z</time>
      </trkpt>
      <trkpt lat="47.14405" lon="-1.41806">
        <ele>33.51</ele>
        <time>2020-06-06T10:12:53Z</time>
      </trkpt>
      <trkpt lat="47.14405" lon="-1.41826">
        <ele>32.28</ele>
        <time>2020-06-06T10:12:55Z</time>
      </trkpt>
      <trkpt lat="47.14407" lon="-1.41842">
        <ele>33.68</ele>
        <time>2020-06-06T10:12:57Z</time>
      </trkpt>
      <trkpt lat="47.1441" lon="-1.41862">
        <ele>35.81</ele>
        <time>2020-06-06T10:12:59Z</time>
      </trkpt>
      <trkpt lat="47.14414" lon="-1.4188">
        <ele>37.71</ele>
        <time>2020-06-06T10:13:01Z</time>
      </trkpt>
      <trkpt lat="47.14419" lon="-1.41902">
        <ele>38.14</ele>
        <time>2020-06-06T10:13:03Z</time>
      </trkpt>
      <trkpt lat="47.14424" lon="-1.41923">
        <ele>38.22</ele>
        <time>2020-06-06T10:13:05Z</time>
      </trkpt>
      <trkpt lat="47.14429" lon="-1.41944">
        <ele>38.02</ele>
        <time>2020-06-06T10:13:07Z</time>
      </trkpt>
      <trkpt lat="47.14433" lon="-1.41963">
        <ele>37.11</ele>
        <time>2020-06-06T10:13:09Z</time>
      </trkpt>
      <trkpt lat="47.14438" lon="-1.41985">
        <ele>35.56</ele>
        <time>2020-06-06T10:13:11Z</time>
      </trkpt>
      <trkpt lat="47.14443" lon="-1.42006">
        <ele>34.62</ele>
        <time>2020-06-06T10:13:13Z</time>
      </trkpt>
      <trkpt lat="47.14448" lon="-1.42028">
        <ele>34.34</ele>
        <time>2020-06-06T10:13:15Z</time>
      </trkpt>
      <trkpt lat="47.14454" lon="-1.42047">
        <ele>33.99</ele>
        <time>2020-06-06T10:13:17Z</time>
      </trkpt>
      <trkpt lat="47.14462" lon="-1.42069">
        <ele>33.22</ele>
        <time>2020-06-06T10:13:19Z</time>
      </trkpt>
      <trkpt lat="47.14472" lon="-1.4209">
        <ele>32.45</ele>
        <time>2020-06-06T10:13:21Z</time>
      </trkpt>
      <trkpt lat="47.14481" lon="-1.42111">
        <ele>31.68</ele>
        <time>2020-06-06T10:13:23Z</time>
      </trkpt>
      <trkpt lat="47.14487" lon="-1.42122">
        <ele>31.32</ele>
        <time>2020-06-06T10:13:24Z</time>
      </trkpt>
      <trkpt lat="47.14496" lon="-1.42142">
        <ele>30.69</ele>
        <time>2020-06-06T10:13:26Z</time>
      </trkpt>
      <trkpt lat="47.14505" lon="-1.42163">
        <ele>29.77</ele>
        <time>2020-06-06T10:13:28Z</time>
      </trkpt>
      <trkpt lat="47.1451" lon="-1.42174">
        <ele>29.65</ele>
        <time>2020-06-06T10:13:29Z</time>
      </trkpt>
      <trkpt lat="47.14515" lon="-1.42187">
        <ele>29.67</ele>
        <time>2020-06-06T10:13:30Z</time>
      </trkpt>
      <trkpt lat="47.1452" lon="-1.42199">
        <ele>29.58</ele>
        <time>2020-06-06T10:13:31Z</time>
      </trkpt>
      <trkpt lat="47.14528" lon="-1.42222">
        <ele>28.9</ele>
        <time>2020-06-06T10:13:33Z</time>
      </trkpt>
      <trkpt lat="47.14535" lon="-1.42243">
        <ele>28.21</ele>
        <time>2020-06-06T10:13:35Z</time>
      </trkpt>
      <trkpt lat="47.14543" lon="-1.42264">
        <ele>27.36</ele>
        <time>2020-06-06T10:13:37Z</time>
      </trkpt>
      <trkpt lat="47.1455" lon="-1.42284">
        <ele>26.05</ele>
        <time>2020-06-06T10:13:39Z</time>
      </trkpt>
      <trkpt lat="47.14559" lon="-1.42302">
        <ele>25.16</ele>
        <time>2020-06-06T10:13:41Z</time>
      </trkpt>
      <trkpt lat="47.14568" lon="-1.42318">
        <ele>24.63</ele>
        <time>2020-06-06T10:13:43Z</time>
      </trkpt>
      <trkpt lat="47.14577" lon="-1.42332">
        <ele>23.51</ele>
        <time>2020-06-06T10:13:45Z</time>
      </trkpt>
      <trkpt lat="47.14588" lon="-1.42343">
        <ele>22.8</ele>
        <time>2020-06-06T10:13:47Z</time>
      </trkpt>
      <trkpt lat="47.14599" lon="-1.42354">
        <ele>22.46</ele>
        <time>2020-06-06T10:13:49Z</time>
      </trkpt>
      <trkpt lat="47.1461" lon="-1.42366">
        <ele>23.06</ele>
        <time>2020-06-06T10:13:51Z</time>
      </trkpt>
      <trkpt lat="47.14621" lon="-1.42375">
        <ele>24.37</ele>
        <time>2020-06-06T10:13:53Z</time>
      </trkpt>
      <trkpt lat="47.14631" lon="-1.42384">
        <ele>24.22</ele>
        <time>2020-06-06T10:13:55Z</time>
      </trkpt>
      <trkpt lat="47.1464" lon="-1.42392">
        <ele>24.17</ele>
        <time>2020-06-06T10:13:57Z</time>
      </trkpt>
      <trkpt lat="47.14649" lon="-1.42401">
        <ele>23.9</ele>
        <time>2020-06-06T10:13:59Z</time>
      </trkpt>
      <trkpt lat="47.14658" lon="-1.42408">
        <ele>25.03</ele>
        <time>2020-06-06T10:14:01Z</time>
      </trkpt>
      <trkpt lat="47.14667" lon="-1.42418">
        <ele>25.15</ele>
        <time>2020-06-06T10:14:03Z</time>
      </trkpt>
      <trkpt lat="47.14676" lon="-1.42426">
        <ele>25.64</ele>
        <time>2020-06-06T10:14:05Z</time>
      </trkpt>
      <trkpt lat="47.14684" lon="-1.42434">
        <ele>25.91</ele>
        <time>2020-06-06T10:14:07Z</time>
      </trkpt>
      <trkpt lat="47.14693" lon="-1.42443">
        <ele>25.91</ele>
        <time>2020-06-06T10:14:09Z</time>
      </trkpt>
      <trkpt lat="47.14701" lon="-1.42451">
        <ele>25.84</ele>
        <time>2020-06-06T10:14:11Z</time>
      </trkpt>
      <trkpt lat="47.1471" lon="-1.42458">
        <ele>25.98</ele>
        <time>2020-06-06T10:14:13Z</time>
      </trkpt>
      <trkpt lat="47.14718" lon="-1.42465">
        <ele>26.04</ele>
        <time>2020-06-06T10:14:15Z</time>
      </trkpt>
      <trkpt lat="47.14726" lon="-1.42473">
        <ele>26.03</ele>
        <time>2020-06-06T10:14:17Z</time>
      </trkpt>
      <trkpt lat="47.14735" lon="-1.42483">
        <ele>27.49</ele>
        <time>2020-06-06T10:14:19Z</time>
      </trkpt>
      <trkpt lat="47.14746" lon="-1.42494">
        <ele>28.95</ele>
        <time>2020-06-06T10:14:22Z</time>
      </trkpt>
      <trkpt lat="47.14755" lon="-1.42502">
        <ele>29.29</ele>
        <time>2020-06-06T10:14:24Z</time>
      </trkpt>
      <trkpt lat="47.14765" lon="-1.42511">
        <ele>30.23</ele>
        <time>2020-06-06T10:14:26Z</time>
      </trkpt>
      <trkpt lat="47.14775" lon="-1.42521">
        <ele>31.44</ele>
        <time>2020-06-06T10:14:28Z</time>
      </trkpt>
      <trkpt lat="47.14783" lon="-1.4253">
        <ele>32.59</ele>
        <time>2020-06-06T10:14:30Z</time>
      </trkpt>
      <trkpt lat="47.14793" lon="-1.42541">
        <ele>32.61</ele>
        <time>2020-06-06T10:14:33Z</time>
      </trkpt>
      <trkpt lat="47.14802" lon="-1.42551">
        <ele>32.12</ele>
        <time>2020-06-06T10:14:35Z</time>
      </trkpt>
      <trkpt lat="47.1481" lon="-1.42561">
        <ele>32.59</ele>
        <time>2020-06-06T10:14:37Z</time>
      </trkpt>
      <trkpt lat="47.14817" lon="-1.42571">
        <ele>32.38</ele>
        <time>2020-06-06T10:14:39Z</time>
      </trkpt>
      <trkpt lat="47.14825" lon="-1.4258">
        <ele>32.03</ele>
        <time>2020-06-06T10:14:41Z</time>
      </trkpt>
      <trkpt lat="47.14834" lon="-1.42591">
        <ele>32.44</ele>
        <time>2020-06-06T10:14:43Z</time>
      </trkpt>
      <trkpt lat="47.14843" lon="-1.42604">
        <ele>31.75</ele>
        <time>2020-06-06T10:14:45Z</time>
      </trkpt>
      <trkpt lat="47.14851" lon="-1.42615">
        <ele>31.32</ele>
        <time>2020-06-06T10:14:47Z</time>
      </trkpt>
      <trkpt lat="47.14859" lon="-1.42625">
        <ele>30.71</ele>
        <time>2020-06-06T10:14:49Z</time>
      </trkpt>
      <trkpt lat="47.14868" lon="-1.42636">
        <ele>31.68</ele>
        <time>2020-06-06T10:14:51Z</time>
      </trkpt>
      <trkpt lat="47.14877" lon="-1.42648">
        <ele>31.21</ele>
        <time>2020-06-06T10:14:53Z</time>
      </trkpt>
      <trkpt lat="47.14885" lon="-1.4266">
        <ele>30.06</ele>
        <time>2020-06-06T10:14:55Z</time>
      </trkpt>
      <trkpt lat="47.14892" lon="-1.42671">
        <ele>29.41</ele>
        <time>2020-06-06T10:14:57Z</time>
      </trkpt>
      <trkpt lat="47.14901" lon="-1.42683">
        <ele>30.07</ele>
        <time>2020-06-06T10:14:59Z</time>
      </trkpt>
      <trkpt lat="47.1491" lon="-1.42697">
        <ele>30.75</ele>
        <time>2020-06-06T10:15:01Z</time>
      </trkpt>
      <trkpt lat="47.1492" lon="-1.42711">
        <ele>30.42</ele>
        <time>2020-06-06T10:15:03Z</time>
      </trkpt>
      <trkpt lat="47.1493" lon="-1.42727">
        <ele>30.1</ele>
        <time>2020-06-06T10:15:05Z</time>
      </trkpt>
      <trkpt lat="47.14939" lon="-1.4274">
        <ele>29.8</ele>
        <time>2020-06-06T10:15:07Z</time>
      </trkpt>
      <trkpt lat="47.14946" lon="-1.42753">
        <ele>29.75</ele>
        <time>2020-06-06T10:15:09Z</time>
      </trkpt>
      <trkpt lat="47.14955" lon="-1.42766">
        <ele>29.85</ele>
        <time>2020-06-06T10:15:11Z</time>
      </trkpt>
      <trkpt lat="47.14964" lon="-1.42781">
        <ele>29.74</ele>
        <time>2020-06-06T10:15:13Z</time>
      </trkpt>
      <trkpt lat="47.14973" lon="-1.42796">
        <ele>29.02</ele>
        <time>2020-06-06T10:15:15Z</time>
      </trkpt>
      <trkpt lat="47.14982" lon="-1.4281">
        <ele>28.64</ele>
        <time>2020-06-06T10:15:17Z</time>
      </trkpt>
      <trkpt lat="47.1499" lon="-1.42824">
        <ele>28.53</ele>
        <time>2020-06-06T10:15:19Z</time>
      </trkpt>
      <trkpt lat="47.14999" lon="-1.42837">
        <ele>27.54</ele>
        <time>2020-06-06T10:15:21Z</time>
      </trkpt>
      <trkpt lat="47.15009" lon="-1.42852">
        <ele>26.34</ele>
        <time>2020-06-06T10:15:23Z</time>
      </trkpt>
      <trkpt lat="47.1502" lon="-1.42865">
        <ele>25.43</ele>
        <time>2020-06-06T10:15:25Z</time>
      </trkpt>
      <trkpt lat="47.15031" lon="-1.42872">
        <ele>24.16</ele>
        <time>2020-06-06T10:15:27Z</time>
      </trkpt>
      <trkpt lat="47.15042" lon="-1.42877">
        <ele>23.62</ele>
        <time>2020-06-06T10:15:29Z</time>
      </trkpt>
      <trkpt lat="47.15054" lon="-1.4288">
        <ele>23.62</ele>
        <time>2020-06-06T10:15:31Z</time>
      </trkpt>
      <trkpt lat="47.15068" lon="-1.42884">
        <ele>23.95</ele>
        <time>2020-06-06T10:15:33Z</time>
      </trkpt>
      <trkpt lat="47.15081" lon="-1.42887">
        <ele>25.09</ele>
        <time>2020-06-06T10:15:35Z</time>
      </trkpt>
      <trkpt lat="47.15095" lon="-1.4289">
        <ele>27.26</ele>
        <time>2020-06-06T10:15:37Z</time>
      </trkpt>
      <trkpt lat="47.15107" lon="-1.42892">
        <ele>28.87</ele>
        <time>2020-06-06T10:15:39Z</time>
      </trkpt>
      <trkpt lat="47.15121" lon="-1.42896">
        <ele>30.17</ele>
        <time>2020-06-06T10:15:41Z</time>
      </trkpt>
      <trkpt lat="47.15134" lon="-1.42901">
        <ele>30.64</ele>
        <time>2020-06-06T10:15:43Z</time>
      </trkpt>
      <trkpt lat="47.15147" lon="-1.42907">
        <ele>30.51</ele>
        <time>2020-06-06T10:15:45Z</time>
      </trkpt>
      <trkpt lat="47.1516" lon="-1.42914">
        <ele>30.34</ele>
        <time>2020-06-06T10:15:47Z</time>
      </trkpt>
      <trkpt lat="47.15171" lon="-1.42921">
        <ele>28.87</ele>
        <time>2020-06-06T10:15:49Z</time>
      </trkpt>
      <trkpt lat="47.15181" lon="-1.42928">
        <ele>26.42</ele>
        <time>2020-06-06T10:15:51Z</time>
      </trkpt>
      <trkpt lat="47.15192" lon="-1.42938">
        <ele>24.66</ele>
        <time>2020-06-06T10:15:53Z</time>
      </trkpt>
      <trkpt lat="47.15203" lon="-1.42954">
        <ele>23.66</ele>
        <time>2020-06-06T10:15:55Z</time>
      </trkpt>
      <trkpt lat="47.15213" lon="-1.4297">
        <ele>22.24</ele>
        <time>2020-06-06T10:15:57Z</time>
      </trkpt>
      <trkpt lat="47.15221" lon="-1.42985">
        <ele>21.11</ele>
        <time>2020-06-06T10:15:59Z</time>
      </trkpt>
      <trkpt lat="47.1523" lon="-1.43001">
        <ele>19.91</ele>
        <time>2020-06-06T10:16:01Z</time>
      </trkpt>
      <trkpt lat="47.15237" lon="-1.43019">
        <ele>18.44</ele>
        <time>2020-06-06T10:16:03Z</time>
      </trkpt>
      <trkpt lat="47.15244" lon="-1.43039">
        <ele>17.2</ele>
        <time>2020-06-06T10:16:05Z</time>
      </trkpt>
      <trkpt lat="47.15251" lon="-1.43061">
        <ele>16.7</ele>
        <time>2020-06-06T10:16:07Z</time>
      </trkpt>
      <trkpt lat="47.15252" lon="-1.43074">
        <ele>16.48</ele>
        <time>2020-06-06T10:16:08Z</time>
      </trkpt>
      <trkpt lat="47.15254" lon="-1.43089">
        <ele>15.9</ele>
        <time>2020-06-06T10:16:09Z</time>
      </trkpt>
      <trkpt lat="47.15256" lon="-1.43115">
        <ele>14.21</ele>
        <time>2020-06-06T10:16:11Z</time>
      </trkpt>
      <trkpt lat="47.15256" lon="-1.43141">
        <ele>12.55</ele>
        <time>2020-06-06T10:16:13Z</time>
      </trkpt>
      <trkpt lat="47.15255" lon="-1.43162">
        <ele>12.83</ele>
        <time>2020-06-06T10:16:15Z</time>
      </trkpt>
      <trkpt lat="47.15255" lon="-1.43187">
        <ele>13.76</ele>
        <time>2020-06-06T10:16:17Z</time>
      </trkpt>
      <trkpt lat="47.15254" lon="-1.43201">
        <ele>13.95</ele>
        <time>2020-06-06T10:16:18Z</time>
      </trkpt>
      <trkpt lat="47.15253" lon="-1.43227">
        <ele>13.33</ele>
        <time>2020-06-06T10:16:20Z</time>
      </trkpt>
      <trkpt lat="47.15253" lon="-1.4324">
        <ele>13.29</ele>
        <time>2020-06-06T10:16:21Z</time>
      </trkpt>
      <trkpt lat="47.15253" lon="-1.43256">
        <ele>12.77</ele>
        <time>2020-06-06T10:16:22Z</time>
      </trkpt>
      <trkpt lat="47.15252" lon="-1.4327">
        <ele>12.03</ele>
        <time>2020-06-06T10:16:23Z</time>
      </trkpt>
      <trkpt lat="47.15252" lon="-1.43284">
        <ele>11.78</ele>
        <time>2020-06-06T10:16:24Z</time>
      </trkpt>
      <trkpt lat="47.1525" lon="-1.4331">
        <ele>10.73</ele>
        <time>2020-06-06T10:16:26Z</time>
      </trkpt>
      <trkpt lat="47.1525" lon="-1.43324">
        <ele>10.28</ele>
        <time>2020-06-06T10:16:27Z</time>
      </trkpt>
      <trkpt lat="47.15249" lon="-1.43349">
        <ele>9.83</ele>
        <time>2020-06-06T10:16:29Z</time>
      </trkpt>
      <trkpt lat="47.15249" lon="-1.43376">
        <ele>9.08</ele>
        <time>2020-06-06T10:16:31Z</time>
      </trkpt>
      <trkpt lat="47.15249" lon="-1.43389">
        <ele>8.25</ele>
        <time>2020-06-06T10:16:32Z</time>
      </trkpt>
      <trkpt lat="47.1525" lon="-1.43415">
        <ele>5.82</ele>
        <time>2020-06-06T10:16:34Z</time>
      </trkpt>
      <trkpt lat="47.15252" lon="-1.43439">
        <ele>3.48</ele>
        <time>2020-06-06T10:16:36Z</time>
      </trkpt>
      <trkpt lat="47.15254" lon="-1.43462">
        <ele>2.32</ele>
        <time>2020-06-06T10:16:38Z</time>
      </trkpt>
      <trkpt lat="47.15256" lon="-1.43475">
        <ele>2.05</ele>
        <time>2020-06-06T10:16:39Z</time>
      </trkpt>
      <trkpt lat="47.15258" lon="-1.43499">
        <ele>1.32</ele>
        <time>2020-06-06T10:16:41Z</time>
      </trkpt>
      <trkpt lat="47.1526" lon="-1.43521">
        <ele>0.23</ele>
        <time>2020-06-06T10:16:43Z</time>
      </trkpt>
      <trkpt lat="47.15263" lon="-1.43545">
        <ele>-1.55</ele>
        <time>2020-06-06T10:16:45Z</time>
      </trkpt>
      <trkpt lat="47.15265" lon="-1.43567">
        <ele>-2.88</ele>
        <time>2020-06-06T10:16:47Z</time>
      </trkpt>
      <trkpt lat="47.15267" lon="-1.43587">
        <ele>-4.03</ele>
        <time>2020-06-06T10:16:49Z</time>
      </trkpt>
      <trkpt lat="47.15268" lon="-1.43607">
        <ele>-4.02</ele>
        <time>2020-06-06T10:16:51Z</time>
      </trkpt>
      <trkpt lat="47.1527" lon="-1.4363">
        <ele>-3.48</ele>
        <time>2020-06-06T10:16:53Z</time>
      </trkpt>
      <trkpt lat="47.15272" lon="-1.43651">
        <ele>-2.69</ele>
        <time>2020-06-06T10:16:55Z</time>
      </trkpt>
      <trkpt lat="47.15275" lon="-1.43672">
        <ele>-1.75</ele>
        <time>2020-06-06T10:16:57Z</time>
      </trkpt>
      <trkpt lat="47.15277" lon="-1.43694">
        <ele>-1.15</ele>
        <time>2020-06-06T10:16:59Z</time>
      </trkpt>
      <trkpt lat="47.15278" lon="-1.43716">
        <ele>-1.15</ele>
        <time>2020-06-06T10:17:01Z</time>
      </trkpt>
      <trkpt lat="47.15278" lon="-1.4374">
        <ele>-0.9</ele>
        <time>2020-06-06T10:17:03Z</time>
      </trkpt>
      <trkpt lat="47.15277" lon="-1.43761">
        <ele>-1.11</ele>
        <time>2020-06-06T10:17:05Z</time>
      </trkpt>
      <trkpt lat="47.15275" lon="-1.43786">
        <ele>-2.18</ele>
        <time>2020-06-06T10:17:07Z</time>
      </trkpt>
      <trkpt lat="47.15273" lon="-1.43811">
        <ele>-2.39</ele>
        <time>2020-06-06T10:17:09Z</time>
      </trkpt>
      <trkpt lat="47.15272" lon="-1.43833">
        <ele>-1.1</ele>
        <time>2020-06-06T10:17:11Z</time>
      </trkpt>
      <trkpt lat="47.15272" lon="-1.43856">
        <ele>0.04</ele>
        <time>2020-06-06T10:17:13Z</time>
      </trkpt>
      <trkpt lat="47.15276" lon="-1.43881">
        <ele>1.03</ele>
        <time>2020-06-06T10:17:15Z</time>
      </trkpt>
      <trkpt lat="47.15282" lon="-1.43901">
        <ele>1.96</ele>
        <time>2020-06-06T10:17:17Z</time>
      </trkpt>
      <trkpt lat="47.1529" lon="-1.4392">
        <ele>1.91</ele>
        <time>2020-06-06T10:17:19Z</time>
      </trkpt>
      <trkpt lat="47.15299" lon="-1.43936">
        <ele>1.9</ele>
        <time>2020-06-06T10:17:21Z</time>
      </trkpt>
      <trkpt lat="47.15309" lon="-1.43951">
        <ele>1.94</ele>
        <time>2020-06-06T10:17:23Z</time>
      </trkpt>
      <trkpt lat="47.15319" lon="-1.43964">
        <ele>1.45</ele>
        <time>2020-06-06T10:17:25Z</time>
      </trkpt>
      <trkpt lat="47.15327" lon="-1.43975">
        <ele>0.75</ele>
        <time>2020-06-06T10:17:27Z</time>
      </trkpt>
      <trkpt lat="47.15336" lon="-1.43986">
        <ele>0.6</ele>
        <time>2020-06-06T10:17:29Z</time>
      </trkpt>
      <trkpt lat="47.15346" lon="-1.43999">
        <ele>1.41</ele>
        <time>2020-06-06T10:17:31Z</time>
      </trkpt>
      <trkpt lat="47.15355" lon="-1.44011">
        <ele>2.02</ele>
        <time>2020-06-06T10:17:33Z</time>
      </trkpt>
      <trkpt lat="47.15366" lon="-1.44025">
        <ele>2.45</ele>
        <time>2020-06-06T10:17:35Z</time>
      </trkpt>
      <trkpt lat="47.15376" lon="-1.4404">
        <ele>3.45</ele>
        <time>2020-06-06T10:17:37Z</time>
      </trkpt>
      <trkpt lat="47.15381" lon="-1.44056">
        <ele>5.1</ele>
        <time>2020-06-06T10:17:39Z</time>
      </trkpt>
      <trkpt lat="47.15383" lon="-1.44076">
        <ele>7.22</ele>
        <time>2020-06-06T10:17:41Z</time>
      </trkpt>
      <trkpt lat="47.15382" lon="-1.44099">
        <ele>8.66</ele>
        <time>2020-06-06T10:17:43Z</time>
      </trkpt>
      <trkpt lat="47.15378" lon="-1.44121">
        <ele>9.77</ele>
        <time>2020-06-06T10:17:45Z</time>
      </trkpt>
      <trkpt lat="47.15373" lon="-1.44144">
        <ele>10.07</ele>
        <time>2020-06-06T10:17:47Z</time>
      </trkpt>
      <trkpt lat="47.1537" lon="-1.44165">
        <ele>9.87</ele>
        <time>2020-06-06T10:17:49Z</time>
      </trkpt>
      <trkpt lat="47.15366" lon="-1.44185">
        <ele>10.04</ele>
        <time>2020-06-06T10:17:51Z</time>
      </trkpt>
      <trkpt lat="47.15365" lon="-1.44205">
        <ele>9.81</ele>
        <time>2020-06-06T10:17:53Z</time>
      </trkpt>
      <trkpt lat="47.15364" lon="-1.44225">
        <ele>9.34</ele>
        <time>2020-06-06T10:17:55Z</time>
      </trkpt>
      <trkpt lat="47.15367" lon="-1.44244">
        <ele>9.21</ele>
        <time>2020-06-06T10:17:57Z</time>
      </trkpt>
      <trkpt lat="47.15369" lon="-1.44266">
        <ele>8.69</ele>
        <time>2020-06-06T10:17:59Z</time>
      </trkpt>
      <trkpt lat="47.15373" lon="-1.44288">
        <ele>8.34</ele>
        <time>2020-06-06T10:18:01Z</time>
      </trkpt>
      <trkpt lat="47.15378" lon="-1.44306">
        <ele>8.11</ele>
        <time>2020-06-06T10:18:03Z</time>
      </trkpt>
      <trkpt lat="47.15384" lon="-1.44321">
        <ele>7.76</ele>
        <time>2020-06-06T10:18:05Z</time>
      </trkpt>
      <trkpt lat="47.15391" lon="-1.44337">
        <ele>6.92</ele>
        <time>2020-06-06T10:18:07Z</time>
      </trkpt>
      <trkpt lat="47.15399" lon="-1.44352">
        <ele>7.32</ele>
        <time>2020-06-06T10:18:09Z</time>
      </trkpt>
      <trkpt lat="47.15407" lon="-1.44367">
        <ele>7.55</ele>
        <time>2020-06-06T10:18:11Z</time>
      </trkpt>
      <trkpt lat="47.15417" lon="-1.44381">
        <ele>7.77</ele>
        <time>2020-06-06T10:18:13Z</time>
      </trkpt>
      <trkpt lat="47.15427" lon="-1.44393">
        <ele>7.72</ele>
        <time>2020-06-06T10:18:15Z</time>
      </trkpt>
      <trkpt lat="47.15438" lon="-1.44401">
        <ele>8</ele>
        <time>2020-06-06T10:18:17Z</time>
      </trkpt>
      <trkpt lat="47.15449" lon="-1.44408">
        <ele>9.09</ele>
        <time>2020-06-06T10:18:19Z</time>
      </trkpt>
      <trkpt lat="47.15461" lon="-1.44414">
        <ele>10.2</ele>
        <time>2020-06-06T10:18:21Z</time>
      </trkpt>
      <trkpt lat="47.15472" lon="-1.44419">
        <ele>10.43</ele>
        <time>2020-06-06T10:18:23Z</time>
      </trkpt>
      <trkpt lat="47.15483" lon="-1.44422">
        <ele>10.2</ele>
        <time>2020-06-06T10:18:25Z</time>
      </trkpt>
      <trkpt lat="47.15493" lon="-1.44424">
        <ele>9.96</ele>
        <time>2020-06-06T10:18:27Z</time>
      </trkpt>
      <trkpt lat="47.15505" lon="-1.44425">
        <ele>9.99</ele>
        <time>2020-06-06T10:18:29Z</time>
      </trkpt>
      <trkpt lat="47.15516" lon="-1.44426">
        <ele>9.94</ele>
        <time>2020-06-06T10:18:31Z</time>
      </trkpt>
      <trkpt lat="47.15529" lon="-1.44426">
        <ele>9.41</ele>
        <time>2020-06-06T10:18:33Z</time>
      </trkpt>
      <trkpt lat="47.15541" lon="-1.44425">
        <ele>10.51</ele>
        <time>2020-06-06T10:18:35Z</time>
      </trkpt>
      <trkpt lat="47.15552" lon="-1.44424">
        <ele>12.64</ele>
        <time>2020-06-06T10:18:37Z</time>
      </trkpt>
      <trkpt lat="47.15564" lon="-1.44423">
        <ele>15.53</ele>
        <time>2020-06-06T10:18:39Z</time>
      </trkpt>
      <trkpt lat="47.15576" lon="-1.44421">
        <ele>18</ele>
        <time>2020-06-06T10:18:41Z</time>
      </trkpt>
      <trkpt lat="47.15587" lon="-1.44418">
        <ele>18.67</ele>
        <time>2020-06-06T10:18:43Z</time>
      </trkpt>
      <trkpt lat="47.15598" lon="-1.44414">
        <ele>20.29</ele>
        <time>2020-06-06T10:18:45Z</time>
      </trkpt>
      <trkpt lat="47.15611" lon="-1.4441">
        <ele>21.76</ele>
        <time>2020-06-06T10:18:47Z</time>
      </trkpt>
      <trkpt lat="47.15623" lon="-1.44405">
        <ele>22.53</ele>
        <time>2020-06-06T10:18:49Z</time>
      </trkpt>
      <trkpt lat="47.15635" lon="-1.444">
        <ele>22.73</ele>
        <time>2020-06-06T10:18:51Z</time>
      </trkpt>
      <trkpt lat="47.15646" lon="-1.44395">
        <ele>22.5</ele>
        <time>2020-06-06T10:18:53Z</time>
      </trkpt>
      <trkpt lat="47.15655" lon="-1.44391">
        <ele>21.27</ele>
        <time>2020-06-06T10:18:56Z</time>
      </trkpt>
      <trkpt lat="47.15664" lon="-1.44385">
        <ele>18.82</ele>
        <time>2020-06-06T10:18:58Z</time>
      </trkpt>
      <trkpt lat="47.15673" lon="-1.4438">
        <ele>17.21</ele>
        <time>2020-06-06T10:19:00Z</time>
      </trkpt>
      <trkpt lat="47.15682" lon="-1.44375">
        <ele>17.01</ele>
        <time>2020-06-06T10:19:02Z</time>
      </trkpt>
      <trkpt lat="47.15691" lon="-1.4437">
        <ele>15.27</ele>
        <time>2020-06-06T10:19:04Z</time>
      </trkpt>
      <trkpt lat="47.15701" lon="-1.44365">
        <ele>13.63</ele>
        <time>2020-06-06T10:19:06Z</time>
      </trkpt>
      <trkpt lat="47.15711" lon="-1.44362">
        <ele>10.36</ele>
        <time>2020-06-06T10:19:08Z</time>
      </trkpt>
      <trkpt lat="47.15722" lon="-1.44356">
        <ele>7.69</ele>
        <time>2020-06-06T10:19:10Z</time>
      </trkpt>
      <trkpt lat="47.15733" lon="-1.44351">
        <ele>5.71</ele>
        <time>2020-06-06T10:19:12Z</time>
      </trkpt>
      <trkpt lat="47.15743" lon="-1.44346">
        <ele>3.4</ele>
        <time>2020-06-06T10:19:14Z</time>
      </trkpt>
      <trkpt lat="47.15752" lon="-1.44343">
        <ele>2.76</ele>
        <time>2020-06-06T10:19:16Z</time>
      </trkpt>
      <trkpt lat="47.15762" lon="-1.44338">
        <ele>2.86</ele>
        <time>2020-06-06T10:19:18Z</time>
      </trkpt>
      <trkpt lat="47.15773" lon="-1.44334">
        <ele>4.58</ele>
        <time>2020-06-06T10:19:20Z</time>
      </trkpt>
      <trkpt lat="47.15785" lon="-1.44331">
        <ele>7.88</ele>
        <time>2020-06-06T10:19:22Z</time>
      </trkpt>
      <trkpt lat="47.15798" lon="-1.44335">
        <ele>10.81</ele>
        <time>2020-06-06T10:19:24Z</time>
      </trkpt>
      <trkpt lat="47.1581" lon="-1.44344">
        <ele>13.41</ele>
        <time>2020-06-06T10:19:26Z</time>
      </trkpt>
      <trkpt lat="47.15818" lon="-1.44355">
        <ele>15.01</ele>
        <time>2020-06-06T10:19:28Z</time>
      </trkpt>
      <trkpt lat="47.15825" lon="-1.44369">
        <ele>15.37</ele>
        <time>2020-06-06T10:19:30Z</time>
      </trkpt>
      <trkpt lat="47.15832" lon="-1.44383">
        <ele>15.07</ele>
        <time>2020-06-06T10:19:32Z</time>
      </trkpt>
      <trkpt lat="47.15838" lon="-1.44397">
        <ele>13.67</ele>
        <time>2020-06-06T10:19:34Z</time>
      </trkpt>
      <trkpt lat="47.15843" lon="-1.44411">
        <ele>13.43</ele>
        <time>2020-06-06T10:19:36Z</time>
      </trkpt>
      <trkpt lat="47.15849" lon="-1.44424">
        <ele>13.28</ele>
        <time>2020-06-06T10:19:38Z</time>
      </trkpt>
      <trkpt lat="47.15854" lon="-1.44438">
        <ele>12.94</ele>
        <time>2020-06-06T10:19:40Z</time>
      </trkpt>
      <trkpt lat="47.15859" lon="-1.4445">
        <ele>13.01</ele>
        <time>2020-06-06T10:19:42Z</time>
      </trkpt>
      <trkpt lat="47.15865" lon="-1.44464">
        <ele>12.5</ele>
        <time>2020-06-06T10:19:44Z</time>
      </trkpt>
      <trkpt lat="47.1587" lon="-1.44479">
        <ele>12.81</ele>
        <time>2020-06-06T10:19:46Z</time>
      </trkpt>
      <trkpt lat="47.15875" lon="-1.44492">
        <ele>12.93</ele>
        <time>2020-06-06T10:19:48Z</time>
      </trkpt>
      <trkpt lat="47.15879" lon="-1.44505">
        <ele>13.46</ele>
        <time>2020-06-06T10:19:50Z</time>
      </trkpt>
      <trkpt lat="47.15886" lon="-1.44521">
        <ele>14.22</ele>
        <time>2020-06-06T10:19:53Z</time>
      </trkpt>
      <trkpt lat="47.15891" lon="-1.44533">
        <ele>14.1</ele>
        <time>2020-06-06T10:19:55Z</time>
      </trkpt>
      <trkpt lat="47.15896" lon="-1.44547">
        <ele>13.52</ele>
        <time>2020-06-06T10:19:57Z</time>
      </trkpt>
      <trkpt lat="47.15902" lon="-1.44561">
        <ele>12.92</ele>
        <time>2020-06-06T10:19:59Z</time>
      </trkpt>
      <trkpt lat="47.15907" lon="-1.44576">
        <ele>12.55</ele>
        <time>2020-06-06T10:20:01Z</time>
      </trkpt>
      <trkpt lat="47.15912" lon="-1.44588">
        <ele>11.56</ele>
        <time>2020-06-06T10:20:03Z</time>
      </trkpt>
      <trkpt lat="47.15916" lon="-1.446">
        <ele>10.78</ele>
        <time>2020-06-06T10:20:05Z</time>
      </trkpt>
      <trkpt lat="47.1592" lon="-1.44612">
        <ele>10.36</ele>
        <time>2020-06-06T10:20:07Z</time>
      </trkpt>
      <trkpt lat="47.15925" lon="-1.44625">
        <ele>10.93</ele>
        <time>2020-06-06T10:20:09Z</time>
      </trkpt>
      <trkpt lat="47.15929" lon="-1.4464">
        <ele>11.05</ele>
        <time>2020-06-06T10:20:11Z</time>
      </trkpt>
      <trkpt lat="47.15936" lon="-1.44658">
        <ele>10.73</ele>
        <time>2020-06-06T10:20:14Z</time>
      </trkpt>
      <trkpt lat="47.1594" lon="-1.44673">
        <ele>10.09</ele>
        <time>2020-06-06T10:20:16Z</time>
      </trkpt>
      <trkpt lat="47.15945" lon="-1.44686">
        <ele>9.3</ele>
        <time>2020-06-06T10:20:18Z</time>
      </trkpt>
      <trkpt lat="47.15949" lon="-1.44699">
        <ele>8.81</ele>
        <time>2020-06-06T10:20:20Z</time>
      </trkpt>
      <trkpt lat="47.15954" lon="-1.44717">
        <ele>9.15</ele>
        <time>2020-06-06T10:20:23Z</time>
      </trkpt>
      <trkpt lat="47.15958" lon="-1.44732">
        <ele>10.31</ele>
        <time>2020-06-06T10:20:25Z</time>
      </trkpt>
      <trkpt lat="47.15962" lon="-1.44746">
        <ele>10.59</ele>
        <time>2020-06-06T10:20:27Z</time>
      </trkpt>
      <trkpt lat="47.15967" lon="-1.44759">
        <ele>11.88</ele>
        <time>2020-06-06T10:20:29Z</time>
      </trkpt>
      <trkpt lat="47.1597" lon="-1.44773">
        <ele>13.79</ele>
        <time>2020-06-06T10:20:31Z</time>
      </trkpt>
      <trkpt lat="47.15975" lon="-1.44789">
        <ele>15.55</ele>
        <time>2020-06-06T10:20:33Z</time>
      </trkpt>
      <trkpt lat="47.15982" lon="-1.44807">
        <ele>15.96</ele>
        <time>2020-06-06T10:20:35Z</time>
      </trkpt>
      <trkpt lat="47.15989" lon="-1.44824">
        <ele>14.93</ele>
        <time>2020-06-06T10:20:37Z</time>
      </trkpt>
      <trkpt lat="47.15997" lon="-1.4484">
        <ele>15.12</ele>
        <time>2020-06-06T10:20:39Z</time>
      </trkpt>
      <trkpt lat="47.16005" lon="-1.44853">
        <ele>17.03</ele>
        <time>2020-06-06T10:20:41Z</time>
      </trkpt>
      <trkpt lat="47.16016" lon="-1.44869">
        <ele>19.06</ele>
        <time>2020-06-06T10:20:43Z</time>
      </trkpt>
      <trkpt lat="47.16027" lon="-1.44884">
        <ele>20.04</ele>
        <time>2020-06-06T10:20:45Z</time>
      </trkpt>
      <trkpt lat="47.16038" lon="-1.44897">
        <ele>22.42</ele>
        <time>2020-06-06T10:20:47Z</time>
      </trkpt>
      <trkpt lat="47.1605" lon="-1.44909">
        <ele>25.15</ele>
        <time>2020-06-06T10:20:49Z</time>
      </trkpt>
      <trkpt lat="47.1606" lon="-1.44919">
        <ele>27.38</ele>
        <time>2020-06-06T10:20:51Z</time>
      </trkpt>
      <trkpt lat="47.1607" lon="-1.4493">
        <ele>28.95</ele>
        <time>2020-06-06T10:20:53Z</time>
      </trkpt>
      <trkpt lat="47.1608" lon="-1.44942">
        <ele>31.04</ele>
        <time>2020-06-06T10:20:55Z</time>
      </trkpt>
      <trkpt lat="47.16088" lon="-1.44955">
        <ele>32.41</ele>
        <time>2020-06-06T10:20:57Z</time>
      </trkpt>
      <trkpt lat="47.16096" lon="-1.4497">
        <ele>32.42</ele>
        <time>2020-06-06T10:20:59Z</time>
      </trkpt>
      <trkpt lat="47.16104" lon="-1.44985">
        <ele>31.95</ele>
        <time>2020-06-06T10:21:01Z</time>
      </trkpt>
      <trkpt lat="47.16109" lon="-1.45001">
        <ele>31.1</ele>
        <time>2020-06-06T10:21:03Z</time>
      </trkpt>
      <trkpt lat="47.16115" lon="-1.45017">
        <ele>30.14</ele>
        <time>2020-06-06T10:21:05Z</time>
      </trkpt>
      <trkpt lat="47.16121" lon="-1.45034">
        <ele>29.53</ele>
        <time>2020-06-06T10:21:07Z</time>
      </trkpt>
      <trkpt lat="47.16127" lon="-1.45052">
        <ele>28.81</ele>
        <time>2020-06-06T10:21:09Z</time>
      </trkpt>
      <trkpt lat="47.16132" lon="-1.45071">
        <ele>28.71</ele>
        <time>2020-06-06T10:21:11Z</time>
      </trkpt>
      <trkpt lat="47.16136" lon="-1.45087">
        <ele>29.48</ele>
        <time>2020-06-06T10:21:13Z</time>
      </trkpt>
      <trkpt lat="47.16139" lon="-1.45104">
        <ele>29.13</ele>
        <time>2020-06-06T10:21:15Z</time>
      </trkpt>
      <trkpt lat="47.16142" lon="-1.45119">
        <ele>28.51</ele>
        <time>2020-06-06T10:21:17Z</time>
      </trkpt>
      <trkpt lat="47.16147" lon="-1.45137">
        <ele>28.09</ele>
        <time>2020-06-06T10:21:19Z</time>
      </trkpt>
      <trkpt lat="47.16151" lon="-1.45153">
        <ele>28.47</ele>
        <time>2020-06-06T10:21:21Z</time>
      </trkpt>
      <trkpt lat="47.16162" lon="-1.45165">
        <ele>29.98</ele>
        <time>2020-06-06T10:21:23Z</time>
      </trkpt>
      <trkpt lat="47.16174" lon="-1.45175">
        <ele>30.72</ele>
        <time>2020-06-06T10:21:25Z</time>
      </trkpt>
      <trkpt lat="47.16187" lon="-1.45184">
        <ele>31.84</ele>
        <time>2020-06-06T10:21:27Z</time>
      </trkpt>
      <trkpt lat="47.162" lon="-1.45191">
        <ele>32.36</ele>
        <time>2020-06-06T10:21:29Z</time>
      </trkpt>
      <trkpt lat="47.16213" lon="-1.45197">
        <ele>33.86</ele>
        <time>2020-06-06T10:21:31Z</time>
      </trkpt>
      <trkpt lat="47.16227" lon="-1.45205">
        <ele>34.8</ele>
        <time>2020-06-06T10:21:33Z</time>
      </trkpt>
      <trkpt lat="47.16239" lon="-1.45214">
        <ele>36.45</ele>
        <time>2020-06-06T10:21:35Z</time>
      </trkpt>
      <trkpt lat="47.16248" lon="-1.45225">
        <ele>37.16</ele>
        <time>2020-06-06T10:21:37Z</time>
      </trkpt>
      <trkpt lat="47.16258" lon="-1.4524">
        <ele>37.63</ele>
        <time>2020-06-06T10:21:39Z</time>
      </trkpt>
      <trkpt lat="47.16265" lon="-1.45255">
        <ele>37.5</ele>
        <time>2020-06-06T10:21:41Z</time>
      </trkpt>
      <trkpt lat="47.1627" lon="-1.45271">
        <ele>36.38</ele>
        <time>2020-06-06T10:21:43Z</time>
      </trkpt>
      <trkpt lat="47.16275" lon="-1.45288">
        <ele>36.04</ele>
        <time>2020-06-06T10:21:45Z</time>
      </trkpt>
      <trkpt lat="47.16281" lon="-1.45304">
        <ele>36.53</ele>
        <time>2020-06-06T10:21:47Z</time>
      </trkpt>
      <trkpt lat="47.16286" lon="-1.4532">
        <ele>36.63</ele>
        <time>2020-06-06T10:21:49Z</time>
      </trkpt>
      <trkpt lat="47.16292" lon="-1.45341">
        <ele>35.49</ele>
        <time>2020-06-06T10:21:51Z</time>
      </trkpt>
      <trkpt lat="47.16295" lon="-1.45359">
        <ele>33</ele>
        <time>2020-06-06T10:21:53Z</time>
      </trkpt>
      <trkpt lat="47.16297" lon="-1.45382">
        <ele>31.51</ele>
        <time>2020-06-06T10:21:55Z</time>
      </trkpt>
      <trkpt lat="47.163" lon="-1.45405">
        <ele>32.09</ele>
        <time>2020-06-06T10:21:57Z</time>
      </trkpt>
      <trkpt lat="47.16303" lon="-1.45418">
        <ele>33.04</ele>
        <time>2020-06-06T10:21:58Z</time>
      </trkpt>
      <trkpt lat="47.16309" lon="-1.4544">
        <ele>34.35</ele>
        <time>2020-06-06T10:22:00Z</time>
      </trkpt>
      <trkpt lat="47.16317" lon="-1.45458">
        <ele>35.08</ele>
        <time>2020-06-06T10:22:02Z</time>
      </trkpt>
      <trkpt lat="47.16326" lon="-1.45475">
        <ele>34.89</ele>
        <time>2020-06-06T10:22:04Z</time>
      </trkpt>
      <trkpt lat="47.16336" lon="-1.45496">
        <ele>33.96</ele>
        <time>2020-06-06T10:22:06Z</time>
      </trkpt>
      <trkpt lat="47.16345" lon="-1.45515">
        <ele>31.52</ele>
        <time>2020-06-06T10:22:08Z</time>
      </trkpt>
      <trkpt lat="47.16355" lon="-1.45533">
        <ele>29.5</ele>
        <time>2020-06-06T10:22:10Z</time>
      </trkpt>
      <trkpt lat="47.16364" lon="-1.45549">
        <ele>28.58</ele>
        <time>2020-06-06T10:22:12Z</time>
      </trkpt>
      <trkpt lat="47.16373" lon="-1.45566">
        <ele>27.21</ele>
        <time>2020-06-06T10:22:14Z</time>
      </trkpt>
      <trkpt lat="47.16382" lon="-1.45582">
        <ele>26.89</ele>
        <time>2020-06-06T10:22:16Z</time>
      </trkpt>
      <trkpt lat="47.16393" lon="-1.45601">
        <ele>26.59</ele>
        <time>2020-06-06T10:22:18Z</time>
      </trkpt>
      <trkpt lat="47.16401" lon="-1.45618">
        <ele>26.7</ele>
        <time>2020-06-06T10:22:20Z</time>
      </trkpt>
      <trkpt lat="47.16409" lon="-1.45636">
        <ele>27.75</ele>
        <time>2020-06-06T10:22:22Z</time>
      </trkpt>
      <trkpt lat="47.16415" lon="-1.45654">
        <ele>29.92</ele>
        <time>2020-06-06T10:22:24Z</time>
      </trkpt>
      <trkpt lat="47.16421" lon="-1.45672">
        <ele>31.01</ele>
        <time>2020-06-06T10:22:26Z</time>
      </trkpt>
      <trkpt lat="47.16426" lon="-1.45689">
        <ele>31.73</ele>
        <time>2020-06-06T10:22:28Z</time>
      </trkpt>
      <trkpt lat="47.16431" lon="-1.45709">
        <ele>31.58</ele>
        <time>2020-06-06T10:22:30Z</time>
      </trkpt>
      <trkpt lat="47.16435" lon="-1.45727">
        <ele>31.08</ele>
        <time>2020-06-06T10:22:32Z</time>
      </trkpt>
      <trkpt lat="47.1644" lon="-1.45746">
        <ele>30.85</ele>
        <time>2020-06-06T10:22:34Z</time>
      </trkpt>
      <trkpt lat="47.16443" lon="-1.45762">
        <ele>30.38</ele>
        <time>2020-06-06T10:22:36Z</time>
      </trkpt>
      <trkpt lat="47.16447" lon="-1.45779">
        <ele>31.31</ele>
        <time>2020-06-06T10:22:38Z</time>
      </trkpt>
      <trkpt lat="47.1645" lon="-1.45795">
        <ele>31.76</ele>
        <time>2020-06-06T10:22:40Z</time>
      </trkpt>
      <trkpt lat="47.16454" lon="-1.45813">
        <ele>31.45</ele>
        <time>2020-06-06T10:22:42Z</time>
      </trkpt>
      <trkpt lat="47.16458" lon="-1.45831">
        <ele>30.63</ele>
        <time>2020-06-06T10:22:44Z</time>
      </trkpt>
      <trkpt lat="47.16462" lon="-1.45851">
        <ele>28.76</ele>
        <time>2020-06-06T10:22:46Z</time>
      </trkpt>
      <trkpt lat="47.16467" lon="-1.45868">
        <ele>27.34</ele>
        <time>2020-06-06T10:22:48Z</time>
      </trkpt>
      <trkpt lat="47.16471" lon="-1.45885">
        <ele>26.47</ele>
        <time>2020-06-06T10:22:50Z</time>
      </trkpt>
      <trkpt lat="47.16475" lon="-1.45901">
        <ele>25.81</ele>
        <time>2020-06-06T10:22:52Z</time>
      </trkpt>
      <trkpt lat="47.1648" lon="-1.45916">
        <ele>25.43</ele>
        <time>2020-06-06T10:22:54Z</time>
      </trkpt>
      <trkpt lat="47.16485" lon="-1.45933">
        <ele>25.59</ele>
        <time>2020-06-06T10:22:56Z</time>
      </trkpt>
      <trkpt lat="47.16489" lon="-1.45947">
        <ele>26.34</ele>
        <time>2020-06-06T10:22:58Z</time>
      </trkpt>
      <trkpt lat="47.16495" lon="-1.45964">
        <ele>27.31</ele>
        <time>2020-06-06T10:23:00Z</time>
      </trkpt>
      <trkpt lat="47.165" lon="-1.45979">
        <ele>27.43</ele>
        <time>2020-06-06T10:23:02Z</time>
      </trkpt>
      <trkpt lat="47.16505" lon="-1.45995">
        <ele>26.85</ele>
        <time>2020-06-06T10:23:04Z</time>
      </trkpt>
      <trkpt lat="47.16511" lon="-1.46011">
        <ele>26.81</ele>
        <time>2020-06-06T10:23:06Z</time>
      </trkpt>
      <trkpt lat="47.16517" lon="-1.46027">
        <ele>27.46</ele>
        <time>2020-06-06T10:23:08Z</time>
      </trkpt>
      <trkpt lat="47.16523" lon="-1.46039">
        <ele>28.34</ele>
        <time>2020-06-06T10:23:10Z</time>
      </trkpt>
      <trkpt lat="47.16533" lon="-1.46045">
        <ele>28.73</ele>
        <time>2020-06-06T10:23:12Z</time>
      </trkpt>
      <trkpt lat="47.16543" lon="-1.46056">
        <ele>29.17</ele>
        <time>2020-06-06T10:23:14Z</time>
      </trkpt>
      <trkpt lat="47.16548" lon="-1.46069">
        <ele>30.29</ele>
        <time>2020-06-06T10:23:16Z</time>
      </trkpt>
      <trkpt lat="47.16547" lon="-1.46084">
        <ele>31.21</ele>
        <time>2020-06-06T10:23:18Z</time>
      </trkpt>
      <trkpt lat="47.16541" lon="-1.46097">
        <ele>31.91</ele>
        <time>2020-06-06T10:23:20Z</time>
      </trkpt>
      <trkpt lat="47.1653" lon="-1.46104">
        <ele>32.52</ele>
        <time>2020-06-06T10:23:22Z</time>
      </trkpt>
      <trkpt lat="47.16518" lon="-1.46104">
        <ele>33.92</ele>
        <time>2020-06-06T10:23:24Z</time>
      </trkpt>
      <trkpt lat="47.16506" lon="-1.46106">
        <ele>34.37</ele>
        <time>2020-06-06T10:23:26Z</time>
      </trkpt>
      <trkpt lat="47.16495" lon="-1.46116">
        <ele>33.19</ele>
        <time>2020-06-06T10:23:28Z</time>
      </trkpt>
      <trkpt lat="47.16485" lon="-1.46127">
        <ele>32.19</ele>
        <time>2020-06-06T10:23:30Z</time>
      </trkpt>
      <trkpt lat="47.16473" lon="-1.46138">
        <ele>30.07</ele>
        <time>2020-06-06T10:23:32Z</time>
      </trkpt>
      <trkpt lat="47.16463" lon="-1.46148">
        <ele>28.76</ele>
        <time>2020-06-06T10:23:34Z</time>
      </trkpt>
      <trkpt lat="47.16453" lon="-1.46158">
        <ele>27.5</ele>
        <time>2020-06-06T10:23:36Z</time>
      </trkpt>
      <trkpt lat="47.16442" lon="-1.4617">
        <ele>26.77</ele>
        <time>2020-06-06T10:23:38Z</time>
      </trkpt>
      <trkpt lat="47.16432" lon="-1.46181">
        <ele>27.7</ele>
        <time>2020-06-06T10:23:40Z</time>
      </trkpt>
      <trkpt lat="47.16424" lon="-1.46191">
        <ele>28.74</ele>
        <time>2020-06-06T10:23:42Z</time>
      </trkpt>
      <trkpt lat="47.16415" lon="-1.46203">
        <ele>28.4</ele>
        <time>2020-06-06T10:23:44Z</time>
      </trkpt>
      <trkpt lat="47.16406" lon="-1.46213">
        <ele>28.4</ele>
        <time>2020-06-06T10:23:46Z</time>
      </trkpt>
      <trkpt lat="47.16396" lon="-1.46225">
        <ele>27.97</ele>
        <time>2020-06-06T10:23:48Z</time>
      </trkpt>
      <trkpt lat="47.16388" lon="-1.46235">
        <ele>28.59</ele>
        <time>2020-06-06T10:23:50Z</time>
      </trkpt>
      <trkpt lat="47.16379" lon="-1.46248">
        <ele>28.56</ele>
        <time>2020-06-06T10:23:52Z</time>
      </trkpt>
      <trkpt lat="47.16371" lon="-1.4626">
        <ele>27.45</ele>
        <time>2020-06-06T10:23:54Z</time>
      </trkpt>
      <trkpt lat="47.16362" lon="-1.46276">
        <ele>25.36</ele>
        <time>2020-06-06T10:23:56Z</time>
      </trkpt>
      <trkpt lat="47.16355" lon="-1.4629">
        <ele>24.51</ele>
        <time>2020-06-06T10:23:58Z</time>
      </trkpt>
      <trkpt lat="47.16349" lon="-1.46302">
        <ele>24.82</ele>
        <time>2020-06-06T10:24:00Z</time>
      </trkpt>
      <trkpt lat="47.16342" lon="-1.46317">
        <ele>25.1</ele>
        <time>2020-06-06T10:24:02Z</time>
      </trkpt>
      <trkpt lat="47.16336" lon="-1.46333">
        <ele>25.76</ele>
        <time>2020-06-06T10:24:04Z</time>
      </trkpt>
      <trkpt lat="47.1633" lon="-1.46349">
        <ele>25.96</ele>
        <time>2020-06-06T10:24:06Z</time>
      </trkpt>
      <trkpt lat="47.16326" lon="-1.46365">
        <ele>26.29</ele>
        <time>2020-06-06T10:24:08Z</time>
      </trkpt>
      <trkpt lat="47.16321" lon="-1.4638">
        <ele>27.51</ele>
        <time>2020-06-06T10:24:10Z</time>
      </trkpt>
      <trkpt lat="47.16317" lon="-1.46396">
        <ele>27.85</ele>
        <time>2020-06-06T10:24:12Z</time>
      </trkpt>
      <trkpt lat="47.16313" lon="-1.46413">
        <ele>27.49</ele>
        <time>2020-06-06T10:24:14Z</time>
      </trkpt>
      <trkpt lat="47.16308" lon="-1.46432">
        <ele>26.44</ele>
        <time>2020-06-06T10:24:16Z</time>
      </trkpt>
      <trkpt lat="47.16304" lon="-1.4645">
        <ele>25.16</ele>
        <time>2020-06-06T10:24:18Z</time>
      </trkpt>
      <trkpt lat="47.16301" lon="-1.46467">
        <ele>24.91</ele>
        <time>2020-06-06T10:24:20Z</time>
      </trkpt>
      <trkpt lat="47.16299" lon="-1.46482">
        <ele>25.41</ele>
        <time>2020-06-06T10:24:22Z</time>
      </trkpt>
      <trkpt lat="47.16297" lon="-1.465">
        <ele>25.91</ele>
        <time>2020-06-06T10:24:24Z</time>
      </trkpt>
      <trkpt lat="47.16295" lon="-1.46518">
        <ele>26.78</ele>
        <time>2020-06-06T10:24:26Z</time>
      </trkpt>
      <trkpt lat="47.16294" lon="-1.46537">
        <ele>28.12</ele>
        <time>2020-06-06T10:24:28Z</time>
      </trkpt>
      <trkpt lat="47.16293" lon="-1.46551">
        <ele>28.92</ele>
        <time>2020-06-06T10:24:30Z</time>
      </trkpt>
      <trkpt lat="47.16291" lon="-1.46571">
        <ele>28.91</ele>
        <time>2020-06-06T10:24:32Z</time>
      </trkpt>
      <trkpt lat="47.16288" lon="-1.4659">
        <ele>28.6</ele>
        <time>2020-06-06T10:24:34Z</time>
      </trkpt>
      <trkpt lat="47.16286" lon="-1.46611">
        <ele>28.2</ele>
        <time>2020-06-06T10:24:36Z</time>
      </trkpt>
      <trkpt lat="47.16284" lon="-1.4663">
        <ele>26.71</ele>
        <time>2020-06-06T10:24:38Z</time>
      </trkpt>
      <trkpt lat="47.16282" lon="-1.4665">
        <ele>26.14</ele>
        <time>2020-06-06T10:24:40Z</time>
      </trkpt>
      <trkpt lat="47.1628" lon="-1.46671">
        <ele>26.06</ele>
        <time>2020-06-06T10:24:42Z</time>
      </trkpt>
      <trkpt lat="47.16279" lon="-1.46693">
        <ele>25.85</ele>
        <time>2020-06-06T10:24:44Z</time>
      </trkpt>
      <trkpt lat="47.16278" lon="-1.46716">
        <ele>24.9</ele>
        <time>2020-06-06T10:24:46Z</time>
      </trkpt>
      <trkpt lat="47.16277" lon="-1.46736">
        <ele>24.12</ele>
        <time>2020-06-06T10:24:48Z</time>
      </trkpt>
      <trkpt lat="47.16275" lon="-1.46757">
        <ele>23.8</ele>
        <time>2020-06-06T10:24:50Z</time>
      </trkpt>
      <trkpt lat="47.16275" lon="-1.46778">
        <ele>24.15</ele>
        <time>2020-06-06T10:24:52Z</time>
      </trkpt>
      <trkpt lat="47.16276" lon="-1.468">
        <ele>24.03</ele>
        <time>2020-06-06T10:24:54Z</time>
      </trkpt>
      <trkpt lat="47.16278" lon="-1.46821">
        <ele>23.14</ele>
        <time>2020-06-06T10:24:56Z</time>
      </trkpt>
      <trkpt lat="47.16276" lon="-1.4684">
        <ele>23.35</ele>
        <time>2020-06-06T10:24:58Z</time>
      </trkpt>
      <trkpt lat="47.16269" lon="-1.46861">
        <ele>22.76</ele>
        <time>2020-06-06T10:25:00Z</time>
      </trkpt>
      <trkpt lat="47.16264" lon="-1.46883">
        <ele>21.98</ele>
        <time>2020-06-06T10:25:02Z</time>
      </trkpt>
      <trkpt lat="47.16261" lon="-1.46907">
        <ele>21.17</ele>
        <time>2020-06-06T10:25:04Z</time>
      </trkpt>
      <trkpt lat="47.16259" lon="-1.46928">
        <ele>21.41</ele>
        <time>2020-06-06T10:25:06Z</time>
      </trkpt>
      <trkpt lat="47.16258" lon="-1.46948">
        <ele>21.66</ele>
        <time>2020-06-06T10:25:08Z</time>
      </trkpt>
      <trkpt lat="47.16256" lon="-1.46969">
        <ele>20.56</ele>
        <time>2020-06-06T10:25:10Z</time>
      </trkpt>
      <trkpt lat="47.16255" lon="-1.46992">
        <ele>18.4</ele>
        <time>2020-06-06T10:25:12Z</time>
      </trkpt>
      <trkpt lat="47.16256" lon="-1.47014">
        <ele>16.73</ele>
        <time>2020-06-06T10:25:14Z</time>
      </trkpt>
      <trkpt lat="47.16257" lon="-1.47035">
        <ele>16.07</ele>
        <time>2020-06-06T10:25:16Z</time>
      </trkpt>
      <trkpt lat="47.16258" lon="-1.47057">
        <ele>16.17</ele>
        <time>2020-06-06T10:25:18Z</time>
      </trkpt>
      <trkpt lat="47.1626" lon="-1.47082">
        <ele>15.85</ele>
        <time>2020-06-06T10:25:20Z</time>
      </trkpt>
      <trkpt lat="47.16263" lon="-1.47105">
        <ele>14.99</ele>
        <time>2020-06-06T10:25:22Z</time>
      </trkpt>
      <trkpt lat="47.16267" lon="-1.47129">
        <ele>14.2</ele>
        <time>2020-06-06T10:25:24Z</time>
      </trkpt>
      <trkpt lat="47.16272" lon="-1.47153">
        <ele>12.85</ele>
        <time>2020-06-06T10:25:26Z</time>
      </trkpt>
      <trkpt lat="47.16278" lon="-1.47177">
        <ele>11.88</ele>
        <time>2020-06-06T10:25:28Z</time>
      </trkpt>
      <trkpt lat="47.16284" lon="-1.472">
        <ele>10.14</ele>
        <time>2020-06-06T10:25:30Z</time>
      </trkpt>
      <trkpt lat="47.16291" lon="-1.47222">
        <ele>9.59</ele>
        <time>2020-06-06T10:25:32Z</time>
      </trkpt>
      <trkpt lat="47.16298" lon="-1.47242">
        <ele>9.01</ele>
        <time>2020-06-06T10:25:34Z</time>
      </trkpt>
      <trkpt lat="47.16305" lon="-1.4726">
        <ele>9.13</ele>
        <time>2020-06-06T10:25:36Z</time>
      </trkpt>
      <trkpt lat="47.16313" lon="-1.47281">
        <ele>8.55</ele>
        <time>2020-06-06T10:25:38Z</time>
      </trkpt>
      <trkpt lat="47.16321" lon="-1.473">
        <ele>8.31</ele>
        <time>2020-06-06T10:25:40Z</time>
      </trkpt>
      <trkpt lat="47.16327" lon="-1.4732">
        <ele>7.84</ele>
        <time>2020-06-06T10:25:42Z</time>
      </trkpt>
      <trkpt lat="47.16332" lon="-1.47336">
        <ele>6.54</ele>
        <time>2020-06-06T10:25:44Z</time>
      </trkpt>
      <trkpt lat="47.16334" lon="-1.47357">
        <ele>6.98</ele>
        <time>2020-06-06T10:25:46Z</time>
      </trkpt>
      <trkpt lat="47.16331" lon="-1.47375">
        <ele>7.25</ele>
        <time>2020-06-06T10:25:48Z</time>
      </trkpt>
      <trkpt lat="47.16332" lon="-1.47396">
        <ele>6.97</ele>
        <time>2020-06-06T10:25:50Z</time>
      </trkpt>
      <trkpt lat="47.16334" lon="-1.4742">
        <ele>5.89</ele>
        <time>2020-06-06T10:25:52Z</time>
      </trkpt>
      <trkpt lat="47.16338" lon="-1.47438">
        <ele>5.34</ele>
        <time>2020-06-06T10:25:54Z</time>
      </trkpt>
      <trkpt lat="47.16343" lon="-1.47457">
        <ele>5.63</ele>
        <time>2020-06-06T10:25:56Z</time>
      </trkpt>
      <trkpt lat="47.16347" lon="-1.47476">
        <ele>6.28</ele>
        <time>2020-06-06T10:25:58Z</time>
      </trkpt>
      <trkpt lat="47.16352" lon="-1.47496">
        <ele>6.22</ele>
        <time>2020-06-06T10:26:00Z</time>
      </trkpt>
      <trkpt lat="47.16357" lon="-1.47515">
        <ele>5.83</ele>
        <time>2020-06-06T10:26:02Z</time>
      </trkpt>
      <trkpt lat="47.16362" lon="-1.47536">
        <ele>4.62</ele>
        <time>2020-06-06T10:26:04Z</time>
      </trkpt>
      <trkpt lat="47.16366" lon="-1.47552">
        <ele>3.51</ele>
        <time>2020-06-06T10:26:06Z</time>
      </trkpt>
      <trkpt lat="47.1637" lon="-1.4757">
        <ele>2.28</ele>
        <time>2020-06-06T10:26:08Z</time>
      </trkpt>
      <trkpt lat="47.16375" lon="-1.47588">
        <ele>1.49</ele>
        <time>2020-06-06T10:26:10Z</time>
      </trkpt>
      <trkpt lat="47.16378" lon="-1.47602">
        <ele>0.11</ele>
        <time>2020-06-06T10:26:12Z</time>
      </trkpt>
      <trkpt lat="47.16381" lon="-1.47615">
        <ele>-0.58</ele>
        <time>2020-06-06T10:26:14Z</time>
      </trkpt>
      <trkpt lat="47.16385" lon="-1.47634">
        <ele>-1.75</ele>
        <time>2020-06-06T10:26:16Z</time>
      </trkpt>
      <trkpt lat="47.1639" lon="-1.47654">
        <ele>-3.1</ele>
        <time>2020-06-06T10:26:18Z</time>
      </trkpt>
      <trkpt lat="47.16394" lon="-1.47667">
        <ele>-3.9</ele>
        <time>2020-06-06T10:26:20Z</time>
      </trkpt>
      <trkpt lat="47.16397" lon="-1.47685">
        <ele>-5.04</ele>
        <time>2020-06-06T10:26:22Z</time>
      </trkpt>
      <trkpt lat="47.16401" lon="-1.47702">
        <ele>-5.3</ele>
        <time>2020-06-06T10:26:24Z</time>
      </trkpt>
      <trkpt lat="47.16404" lon="-1.47722">
        <ele>-5.23</ele>
        <time>2020-06-06T10:26:26Z</time>
      </trkpt>
      <trkpt lat="47.16408" lon="-1.4774">
        <ele>-4.03</ele>
        <time>2020-06-06T10:26:28Z</time>
      </trkpt>
      <trkpt lat="47.16411" lon="-1.47758">
        <ele>-3.56</ele>
        <time>2020-06-06T10:26:30Z</time>
      </trkpt>
      <trkpt lat="47.16414" lon="-1.47773">
        <ele>-2.95</ele>
        <time>2020-06-06T10:26:32Z</time>
      </trkpt>
      <trkpt lat="47.16418" lon="-1.47789">
        <ele>-2.87</ele>
        <time>2020-06-06T10:26:34Z</time>
      </trkpt>
      <trkpt lat="47.16422" lon="-1.47805">
        <ele>-1.89</ele>
        <time>2020-06-06T10:26:36Z</time>
      </trkpt>
      <trkpt lat="47.16425" lon="-1.47818">
        <ele>-1.53</ele>
        <time>2020-06-06T10:26:38Z</time>
      </trkpt>
      <trkpt lat="47.16428" lon="-1.47837">
        <ele>-1.4</ele>
        <time>2020-06-06T10:26:40Z</time>
      </trkpt>
      <trkpt lat="47.16432" lon="-1.47855">
        <ele>-2.28</ele>
        <time>2020-06-06T10:26:42Z</time>
      </trkpt>
      <trkpt lat="47.16435" lon="-1.47872">
        <ele>-3.28</ele>
        <time>2020-06-06T10:26:44Z</time>
      </trkpt>
      <trkpt lat="47.16438" lon="-1.47888">
        <ele>-2.49</ele>
        <time>2020-06-06T10:26:46Z</time>
      </trkpt>
      <trkpt lat="47.16443" lon="-1.47906">
        <ele>-2.16</ele>
        <time>2020-06-06T10:26:48Z</time>
      </trkpt>
      <trkpt lat="47.16447" lon="-1.47923">
        <ele>-1.96</ele>
        <time>2020-06-06T10:26:50Z</time>
      </trkpt>
      <trkpt lat="47.16451" lon="-1.4794">
        <ele>-2.39</ele>
        <time>2020-06-06T10:26:52Z</time>
      </trkpt>
      <trkpt lat="47.16455" lon="-1.47956">
        <ele>-3.72</ele>
        <time>2020-06-06T10:26:54Z</time>
      </trkpt>
      <trkpt lat="47.1646" lon="-1.47975">
        <ele>-4.24</ele>
        <time>2020-06-06T10:26:56Z</time>
      </trkpt>
      <trkpt lat="47.16464" lon="-1.47994">
        <ele>-4.15</ele>
        <time>2020-06-06T10:26:58Z</time>
      </trkpt>
      <trkpt lat="47.16469" lon="-1.48012">
        <ele>-4.32</ele>
        <time>2020-06-06T10:27:00Z</time>
      </trkpt>
      <trkpt lat="47.16472" lon="-1.48027">
        <ele>-5.44</ele>
        <time>2020-06-06T10:27:02Z</time>
      </trkpt>
      <trkpt lat="47.16476" lon="-1.48042">
        <ele>-5.38</ele>
        <time>2020-06-06T10:27:04Z</time>
      </trkpt>
      <trkpt lat="47.16481" lon="-1.48059">
        <ele>-5.16</ele>
        <time>2020-06-06T10:27:06Z</time>
      </trkpt>
      <trkpt lat="47.16484" lon="-1.48073">
        <ele>-5.46</ele>
        <time>2020-06-06T10:27:08Z</time>
      </trkpt>
      <trkpt lat="47.16487" lon="-1.48086">
        <ele>-3.86</ele>
        <time>2020-06-06T10:27:11Z</time>
      </trkpt>
      <trkpt lat="47.16496" lon="-1.48098">
        <ele>-1.49</ele>
        <time>2020-06-06T10:27:14Z</time>
      </trkpt>
      <trkpt lat="47.16501" lon="-1.48114">
        <ele>0.59</ele>
        <time>2020-06-06T10:27:16Z</time>
      </trkpt>
      <trkpt lat="47.16506" lon="-1.48129">
        <ele>1.8</ele>
        <time>2020-06-06T10:27:18Z</time>
      </trkpt>
      <trkpt lat="47.1651" lon="-1.48142">
        <ele>1.19</ele>
        <time>2020-06-06T10:27:20Z</time>
      </trkpt>
      <trkpt lat="47.1652" lon="-1.48142">
        <ele>0.78</ele>
        <time>2020-06-06T10:27:22Z</time>
      </trkpt>
      <trkpt lat="47.16531" lon="-1.48134">
        <ele>1.48</ele>
        <time>2020-06-06T10:27:24Z</time>
      </trkpt>
      <trkpt lat="47.1654" lon="-1.48126">
        <ele>2.5</ele>
        <time>2020-06-06T10:27:26Z</time>
      </trkpt>
      <trkpt lat="47.1655" lon="-1.48123">
        <ele>3.16</ele>
        <time>2020-06-06T10:27:28Z</time>
      </trkpt>
      <trkpt lat="47.1656" lon="-1.48114">
        <ele>3.37</ele>
        <time>2020-06-06T10:27:30Z</time>
      </trkpt>
      <trkpt lat="47.1657" lon="-1.48105">
        <ele>3</ele>
        <time>2020-06-06T10:27:32Z</time>
      </trkpt>
      <trkpt lat="47.16582" lon="-1.48096">
        <ele>2.14</ele>
        <time>2020-06-06T10:27:34Z</time>
      </trkpt>
      <trkpt lat="47.16593" lon="-1.48089">
        <ele>1.81</ele>
        <time>2020-06-06T10:27:36Z</time>
      </trkpt>
      <trkpt lat="47.16604" lon="-1.48081">
        <ele>1.51</ele>
        <time>2020-06-06T10:27:38Z</time>
      </trkpt>
      <trkpt lat="47.16615" lon="-1.48073">
        <ele>1.98</ele>
        <time>2020-06-06T10:27:40Z</time>
      </trkpt>
      <trkpt lat="47.16628" lon="-1.48066">
        <ele>1.55</ele>
        <time>2020-06-06T10:27:41Z</time>
      </trkpt>
      <trkpt lat="47.1664" lon="-1.48059">
        <ele>2.31</ele>
        <time>2020-06-06T10:27:43Z</time>
      </trkpt>
      <trkpt lat="47.16651" lon="-1.48051">
        <ele>2.92</ele>
        <time>2020-06-06T10:27:45Z</time>
      </trkpt>
      <trkpt lat="47.16662" lon="-1.48043">
        <ele>3.45</ele>
        <time>2020-06-06T10:27:47Z</time>
      </trkpt>
      <trkpt lat="47.16674" lon="-1.48035">
        <ele>4.08</ele>
        <time>2020-06-06T10:27:49Z</time>
      </trkpt>
      <trkpt lat="47.16687" lon="-1.48025">
        <ele>4.49</ele>
        <time>2020-06-06T10:27:51Z</time>
      </trkpt>
      <trkpt lat="47.16699" lon="-1.48017">
        <ele>4.93</ele>
        <time>2020-06-06T10:27:53Z</time>
      </trkpt>
      <trkpt lat="47.16712" lon="-1.48012">
        <ele>4.83</ele>
        <time>2020-06-06T10:27:55Z</time>
      </trkpt>
      <trkpt lat="47.16723" lon="-1.4801">
        <ele>5.77</ele>
        <time>2020-06-06T10:27:57Z</time>
      </trkpt>
      <trkpt lat="47.16735" lon="-1.48007">
        <ele>4.67</ele>
        <time>2020-06-06T10:27:59Z</time>
      </trkpt>
      <trkpt lat="47.16747" lon="-1.48005">
        <ele>3.49</ele>
        <time>2020-06-06T10:28:01Z</time>
      </trkpt>
      <trkpt lat="47.1676" lon="-1.48004">
        <ele>3.1</ele>
        <time>2020-06-06T10:28:03Z</time>
      </trkpt>
      <trkpt lat="47.16772" lon="-1.48006">
        <ele>3.15</ele>
        <time>2020-06-06T10:28:05Z</time>
      </trkpt>
      <trkpt lat="47.16783" lon="-1.48009">
        <ele>3.02</ele>
        <time>2020-06-06T10:28:07Z</time>
      </trkpt>
      <trkpt lat="47.16793" lon="-1.48008">
        <ele>3.45</ele>
        <time>2020-06-06T10:28:09Z</time>
      </trkpt>
      <trkpt lat="47.16804" lon="-1.48015">
        <ele>4.03</ele>
        <time>2020-06-06T10:28:12Z</time>
      </trkpt>
      <trkpt lat="47.1681" lon="-1.4803">
        <ele>3.79</ele>
        <time>2020-06-06T10:28:14Z</time>
      </trkpt>
      <trkpt lat="47.16819" lon="-1.48043">
        <ele>3.69</ele>
        <time>2020-06-06T10:28:16Z</time>
      </trkpt>
      <trkpt lat="47.16826" lon="-1.48053">
        <ele>3.24</ele>
        <time>2020-06-06T10:28:18Z</time>
      </trkpt>
      <trkpt lat="47.16833" lon="-1.48065">
        <ele>3.13</ele>
        <time>2020-06-06T10:28:20Z</time>
      </trkpt>
      <trkpt lat="47.16838" lon="-1.48078">
        <ele>3.29</ele>
        <time>2020-06-06T10:28:22Z</time>
      </trkpt>
      <trkpt lat="47.16848" lon="-1.48089">
        <ele>3.17</ele>
        <time>2020-06-06T10:28:24Z</time>
      </trkpt>
      <trkpt lat="47.16857" lon="-1.48097">
        <ele>2.53</ele>
        <time>2020-06-06T10:28:26Z</time>
      </trkpt>
      <trkpt lat="47.16866" lon="-1.4811">
        <ele>2.25</ele>
        <time>2020-06-06T10:28:28Z</time>
      </trkpt>
      <trkpt lat="47.16874" lon="-1.48125">
        <ele>1.53</ele>
        <time>2020-06-06T10:28:30Z</time>
      </trkpt>
      <trkpt lat="47.16881" lon="-1.48141">
        <ele>0.03</ele>
        <time>2020-06-06T10:28:32Z</time>
      </trkpt>
      <trkpt lat="47.16889" lon="-1.48157">
        <ele>-1.06</ele>
        <time>2020-06-06T10:28:34Z</time>
      </trkpt>
      <trkpt lat="47.16897" lon="-1.48172">
        <ele>-1.69</ele>
        <time>2020-06-06T10:28:36Z</time>
      </trkpt>
      <trkpt lat="47.16903" lon="-1.48185">
        <ele>-2.51</ele>
        <time>2020-06-06T10:28:38Z</time>
      </trkpt>
      <trkpt lat="47.1691" lon="-1.48199">
        <ele>-3.33</ele>
        <time>2020-06-06T10:28:40Z</time>
      </trkpt>
      <trkpt lat="47.16918" lon="-1.48213">
        <ele>-4.4</ele>
        <time>2020-06-06T10:28:42Z</time>
      </trkpt>
      <trkpt lat="47.16926" lon="-1.48228">
        <ele>-5.7</ele>
        <time>2020-06-06T10:28:44Z</time>
      </trkpt>
      <trkpt lat="47.16933" lon="-1.48241">
        <ele>-7.44</ele>
        <time>2020-06-06T10:28:46Z</time>
      </trkpt>
      <trkpt lat="47.16939" lon="-1.48255">
        <ele>-7.43</ele>
        <time>2020-06-06T10:28:48Z</time>
      </trkpt>
      <trkpt lat="47.16944" lon="-1.48277">
        <ele>-7.82</ele>
        <time>2020-06-06T10:28:50Z</time>
      </trkpt>
      <trkpt lat="47.16947" lon="-1.483">
        <ele>-10.01</ele>
        <time>2020-06-06T10:28:52Z</time>
      </trkpt>
      <trkpt lat="47.16947" lon="-1.4832">
        <ele>-11.05</ele>
        <time>2020-06-06T10:28:54Z</time>
      </trkpt>
      <trkpt lat="47.16944" lon="-1.48335">
        <ele>-10.88</ele>
        <time>2020-06-06T10:28:56Z</time>
      </trkpt>
      <trkpt lat="47.1694" lon="-1.48352">
        <ele>-11.88</ele>
        <time>2020-06-06T10:28:58Z</time>
      </trkpt>
      <trkpt lat="47.16935" lon="-1.48371">
        <ele>-12.49</ele>
        <time>2020-06-06T10:29:00Z</time>
      </trkpt>
      <trkpt lat="47.16928" lon="-1.48391">
        <ele>-11.94</ele>
        <time>2020-06-06T10:29:02Z</time>
      </trkpt>
      <trkpt lat="47.16923" lon="-1.48406">
        <ele>-9.72</ele>
        <time>2020-06-06T10:29:04Z</time>
      </trkpt>
      <trkpt lat="47.16917" lon="-1.48424">
        <ele>-8.11</ele>
        <time>2020-06-06T10:29:06Z</time>
      </trkpt>
      <trkpt lat="47.16912" lon="-1.48442">
        <ele>-7.7</ele>
        <time>2020-06-06T10:29:08Z</time>
      </trkpt>
      <trkpt lat="47.16906" lon="-1.48463">
        <ele>-6.95</ele>
        <time>2020-06-06T10:29:10Z</time>
      </trkpt>
      <trkpt lat="47.16901" lon="-1.48479">
        <ele>-6.68</ele>
        <time>2020-06-06T10:29:12Z</time>
      </trkpt>
      <trkpt lat="47.16896" lon="-1.48492">
        <ele>-7.08</ele>
        <time>2020-06-06T10:29:14Z</time>
      </trkpt>
      <trkpt lat="47.16892" lon="-1.48506">
        <ele>-7.02</ele>
        <time>2020-06-06T10:29:16Z</time>
      </trkpt>
      <trkpt lat="47.16888" lon="-1.48524">
        <ele>-6.35</ele>
        <time>2020-06-06T10:29:18Z</time>
      </trkpt>
      <trkpt lat="47.16885" lon="-1.4854">
        <ele>-5.43</ele>
        <time>2020-06-06T10:29:20Z</time>
      </trkpt>
      <trkpt lat="47.16882" lon="-1.48558">
        <ele>-5.81</ele>
        <time>2020-06-06T10:29:22Z</time>
      </trkpt>
      <trkpt lat="47.16881" lon="-1.48576">
        <ele>-5.88</ele>
        <time>2020-06-06T10:29:24Z</time>
      </trkpt>
      <trkpt lat="47.16882" lon="-1.48595">
        <ele>-6.97</ele>
        <time>2020-06-06T10:29:26Z</time>
      </trkpt>
      <trkpt lat="47.16884" lon="-1.48614">
        <ele>-7.62</ele>
        <time>2020-06-06T10:29:28Z</time>
      </trkpt>
      <trkpt lat="47.16886" lon="-1.48631">
        <ele>-7.87</ele>
        <time>2020-06-06T10:29:30Z</time>
      </trkpt>
      <trkpt lat="47.16889" lon="-1.48648">
        <ele>-7.74</ele>
        <time>2020-06-06T10:29:32Z</time>
      </trkpt>
      <trkpt lat="47.16891" lon="-1.48665">
        <ele>-8.5</ele>
        <time>2020-06-06T10:29:34Z</time>
      </trkpt>
      <trkpt lat="47.16894" lon="-1.48683">
        <ele>-9.03</ele>
        <time>2020-06-06T10:29:36Z</time>
      </trkpt>
      <trkpt lat="47.16898" lon="-1.487">
        <ele>-9.9</ele>
        <time>2020-06-06T10:29:38Z</time>
      </trkpt>
      <trkpt lat="47.16902" lon="-1.48716">
        <ele>-11.68</ele>
        <time>2020-06-06T10:29:40Z</time>
      </trkpt>
      <trkpt lat="47.16905" lon="-1.48732">
        <ele>-12.76</ele>
        <time>2020-06-06T10:29:42Z</time>
      </trkpt>
      <trkpt lat="47.16909" lon="-1.48747">
        <ele>-12.63</ele>
        <time>2020-06-06T10:29:44Z</time>
      </trkpt>
      <trkpt lat="47.16914" lon="-1.48763">
        <ele>-12.03</ele>
        <time>2020-06-06T10:29:46Z</time>
      </trkpt>
      <trkpt lat="47.16919" lon="-1.4878">
        <ele>-12.82</ele>
        <time>2020-06-06T10:29:48Z</time>
      </trkpt>
      <trkpt lat="47.16924" lon="-1.48795">
        <ele>-13.29</ele>
        <time>2020-06-06T10:29:50Z</time>
      </trkpt>
      <trkpt lat="47.16928" lon="-1.48811">
        <ele>-14.15</ele>
        <time>2020-06-06T10:29:52Z</time>
      </trkpt>
      <trkpt lat="47.16932" lon="-1.48828">
        <ele>-14.58</ele>
        <time>2020-06-06T10:29:54Z</time>
      </trkpt>
      <trkpt lat="47.16936" lon="-1.48846">
        <ele>-15.19</ele>
        <time>2020-06-06T10:29:56Z</time>
      </trkpt>
      <trkpt lat="47.16941" lon="-1.48865">
        <ele>-16.32</ele>
        <time>2020-06-06T10:29:58Z</time>
      </trkpt>
      <trkpt lat="47.16946" lon="-1.48885">
        <ele>-16.08</ele>
        <time>2020-06-06T10:30:00Z</time>
      </trkpt>
      <trkpt lat="47.16949" lon="-1.48902">
        <ele>-16.17</ele>
        <time>2020-06-06T10:30:02Z</time>
      </trkpt>
      <trkpt lat="47.16952" lon="-1.48917">
        <ele>-15.11</ele>
        <time>2020-06-06T10:30:04Z</time>
      </trkpt>
      <trkpt lat="47.16957" lon="-1.48932">
        <ele>-15.48</ele>
        <time>2020-06-06T10:30:06Z</time>
      </trkpt>
      <trkpt lat="47.16961" lon="-1.48948">
        <ele>-15.99</ele>
        <time>2020-06-06T10:30:08Z</time>
      </trkpt>
      <trkpt lat="47.16965" lon="-1.48968">
        <ele>-16.34</ele>
        <time>2020-06-06T10:30:10Z</time>
      </trkpt>
      <trkpt lat="47.16971" lon="-1.4899">
        <ele>-15.34</ele>
        <time>2020-06-06T10:30:12Z</time>
      </trkpt>
      <trkpt lat="47.16975" lon="-1.49009">
        <ele>-15.23</ele>
        <time>2020-06-06T10:30:14Z</time>
      </trkpt>
      <trkpt lat="47.1698" lon="-1.49025">
        <ele>-15.11</ele>
        <time>2020-06-06T10:30:16Z</time>
      </trkpt>
      <trkpt lat="47.16986" lon="-1.49042">
        <ele>-15.27</ele>
        <time>2020-06-06T10:30:18Z</time>
      </trkpt>
      <trkpt lat="47.16991" lon="-1.49058">
        <ele>-15.03</ele>
        <time>2020-06-06T10:30:20Z</time>
      </trkpt>
      <trkpt lat="47.16997" lon="-1.49075">
        <ele>-15.54</ele>
        <time>2020-06-06T10:30:22Z</time>
      </trkpt>
      <trkpt lat="47.17003" lon="-1.49092">
        <ele>-16.07</ele>
        <time>2020-06-06T10:30:24Z</time>
      </trkpt>
      <trkpt lat="47.17008" lon="-1.4911">
        <ele>-16.1</ele>
        <time>2020-06-06T10:30:26Z</time>
      </trkpt>
      <trkpt lat="47.17013" lon="-1.49127">
        <ele>-15.73</ele>
        <time>2020-06-06T10:30:28Z</time>
      </trkpt>
      <trkpt lat="47.17017" lon="-1.49143">
        <ele>-15.03</ele>
        <time>2020-06-06T10:30:30Z</time>
      </trkpt>
      <trkpt lat="47.17021" lon="-1.49161">
        <ele>-14.65</ele>
        <time>2020-06-06T10:30:32Z</time>
      </trkpt>
      <trkpt lat="47.17027" lon="-1.4918">
        <ele>-14.3</ele>
        <time>2020-06-06T10:30:34Z</time>
      </trkpt>
      <trkpt lat="47.17032" lon="-1.49199">
        <ele>-13.41</ele>
        <time>2020-06-06T10:30:36Z</time>
      </trkpt>
      <trkpt lat="47.17036" lon="-1.49215">
        <ele>-11.5</ele>
        <time>2020-06-06T10:30:38Z</time>
      </trkpt>
      <trkpt lat="47.1704" lon="-1.49231">
        <ele>-9.78</ele>
        <time>2020-06-06T10:30:40Z</time>
      </trkpt>
      <trkpt lat="47.17045" lon="-1.4925">
        <ele>-8.73</ele>
        <time>2020-06-06T10:30:42Z</time>
      </trkpt>
      <trkpt lat="47.1705" lon="-1.49268">
        <ele>-8.23</ele>
        <time>2020-06-06T10:30:44Z</time>
      </trkpt>
      <trkpt lat="47.17057" lon="-1.49286">
        <ele>-8.59</ele>
        <time>2020-06-06T10:30:46Z</time>
      </trkpt>
      <trkpt lat="47.17063" lon="-1.49304">
        <ele>-9.28</ele>
        <time>2020-06-06T10:30:48Z</time>
      </trkpt>
      <trkpt lat="47.17068" lon="-1.49321">
        <ele>-9.98</ele>
        <time>2020-06-06T10:30:50Z</time>
      </trkpt>
      <trkpt lat="47.17073" lon="-1.49337">
        <ele>-10.18</ele>
        <time>2020-06-06T10:30:52Z</time>
      </trkpt>
      <trkpt lat="47.17077" lon="-1.49355">
        <ele>-11.05</ele>
        <time>2020-06-06T10:30:54Z</time>
      </trkpt>
      <trkpt lat="47.17082" lon="-1.49372">
        <ele>-11.39</ele>
        <time>2020-06-06T10:30:56Z</time>
      </trkpt>
      <trkpt lat="47.17086" lon="-1.49389">
        <ele>-11.42</ele>
        <time>2020-06-06T10:30:58Z</time>
      </trkpt>
      <trkpt lat="47.17093" lon="-1.49402">
        <ele>-11.69</ele>
        <time>2020-06-06T10:31:00Z</time>
      </trkpt>
      <trkpt lat="47.17098" lon="-1.49418">
        <ele>-12.48</ele>
        <time>2020-06-06T10:31:02Z</time>
      </trkpt>
      <trkpt lat="47.17103" lon="-1.49437">
        <ele>-11.97</ele>
        <time>2020-06-06T10:31:04Z</time>
      </trkpt>
      <trkpt lat="47.1711" lon="-1.49458">
        <ele>-11.36</ele>
        <time>2020-06-06T10:31:06Z</time>
      </trkpt>
      <trkpt lat="47.17115" lon="-1.49475">
        <ele>-10.2</ele>
        <time>2020-06-06T10:31:08Z</time>
      </trkpt>
      <trkpt lat="47.17119" lon="-1.49489">
        <ele>-8.21</ele>
        <time>2020-06-06T10:31:10Z</time>
      </trkpt>
      <trkpt lat="47.17123" lon="-1.49507">
        <ele>-6.21</ele>
        <time>2020-06-06T10:31:12Z</time>
      </trkpt>
      <trkpt lat="47.17126" lon="-1.49527">
        <ele>-5.39</ele>
        <time>2020-06-06T10:31:14Z</time>
      </trkpt>
      <trkpt lat="47.1713" lon="-1.49547">
        <ele>-5.9</ele>
        <time>2020-06-06T10:31:16Z</time>
      </trkpt>
      <trkpt lat="47.17135" lon="-1.49566">
        <ele>-6.56</ele>
        <time>2020-06-06T10:31:18Z</time>
      </trkpt>
      <trkpt lat="47.1714" lon="-1.49583">
        <ele>-7.42</ele>
        <time>2020-06-06T10:31:20Z</time>
      </trkpt>
      <trkpt lat="47.17145" lon="-1.49602">
        <ele>-9.05</ele>
        <time>2020-06-06T10:31:22Z</time>
      </trkpt>
      <trkpt lat="47.17148" lon="-1.49618">
        <ele>-11.13</ele>
        <time>2020-06-06T10:31:24Z</time>
      </trkpt>
      <trkpt lat="47.17153" lon="-1.49637">
        <ele>-12.55</ele>
        <time>2020-06-06T10:31:26Z</time>
      </trkpt>
      <trkpt lat="47.17158" lon="-1.49656">
        <ele>-12.65</ele>
        <time>2020-06-06T10:31:28Z</time>
      </trkpt>
      <trkpt lat="47.17162" lon="-1.49671">
        <ele>-13.42</ele>
        <time>2020-06-06T10:31:30Z</time>
      </trkpt>
      <trkpt lat="47.17166" lon="-1.49685">
        <ele>-13.93</ele>
        <time>2020-06-06T10:31:32Z</time>
      </trkpt>
      <trkpt lat="47.17171" lon="-1.49701">
        <ele>-14.39</ele>
        <time>2020-06-06T10:31:34Z</time>
      </trkpt>
      <trkpt lat="47.17177" lon="-1.49718">
        <ele>-14.78</ele>
        <time>2020-06-06T10:31:36Z</time>
      </trkpt>
      <trkpt lat="47.17182" lon="-1.49735">
        <ele>-15.33</ele>
        <time>2020-06-06T10:31:38Z</time>
      </trkpt>
      <trkpt lat="47.17188" lon="-1.49752">
        <ele>-15.92</ele>
        <time>2020-06-06T10:31:40Z</time>
      </trkpt>
      <trkpt lat="47.17192" lon="-1.49767">
        <ele>-16.93</ele>
        <time>2020-06-06T10:31:42Z</time>
      </trkpt>
      <trkpt lat="47.17199" lon="-1.49788">
        <ele>-18.24</ele>
        <time>2020-06-06T10:31:44Z</time>
      </trkpt>
      <trkpt lat="47.17207" lon="-1.49805">
        <ele>-19.31</ele>
        <time>2020-06-06T10:31:46Z</time>
      </trkpt>
      <trkpt lat="47.17214" lon="-1.49824">
        <ele>-20.02</ele>
        <time>2020-06-06T10:31:48Z</time>
      </trkpt>
      <trkpt lat="47.1722" lon="-1.49841">
        <ele>-20.49</ele>
        <time>2020-06-06T10:31:50Z</time>
      </trkpt>
      <trkpt lat="47.17226" lon="-1.49857">
        <ele>-20.21</ele>
        <time>2020-06-06T10:31:52Z</time>
      </trkpt>
      <trkpt lat="47.17233" lon="-1.49876">
        <ele>-19.44</ele>
        <time>2020-06-06T10:31:54Z</time>
      </trkpt>
      <trkpt lat="47.17239" lon="-1.49895">
        <ele>-18.08</ele>
        <time>2020-06-06T10:31:56Z</time>
      </trkpt>
      <trkpt lat="47.17243" lon="-1.49911">
        <ele>-16.18</ele>
        <time>2020-06-06T10:31:58Z</time>
      </trkpt>
      <trkpt lat="47.17248" lon="-1.49925">
        <ele>-15.18</ele>
        <time>2020-06-06T10:32:00Z</time>
      </trkpt>
      <trkpt lat="47.17253" lon="-1.49943">
        <ele>-14.32</ele>
        <time>2020-06-06T10:32:02Z</time>
      </trkpt>
      <trkpt lat="47.17258" lon="-1.49959">
        <ele>-13.67</ele>
        <time>2020-06-06T10:32:04Z</time>
      </trkpt>
      <trkpt lat="47.17263" lon="-1.49976">
        <ele>-13.19</ele>
        <time>2020-06-06T10:32:06Z</time>
      </trkpt>
      <trkpt lat="47.17268" lon="-1.49992">
        <ele>-13.1</ele>
        <time>2020-06-06T10:32:08Z</time>
      </trkpt>
      <trkpt lat="47.17274" lon="-1.50011">
        <ele>-13.22</ele>
        <time>2020-06-06T10:32:10Z</time>
      </trkpt>
      <trkpt lat="47.1728" lon="-1.50027">
        <ele>-12.97</ele>
        <time>2020-06-06T10:32:12Z</time>
      </trkpt>
      <trkpt lat="47.17287" lon="-1.50043">
        <ele>-13.9</ele>
        <time>2020-06-06T10:32:14Z</time>
      </trkpt>
      <trkpt lat="47.17294" lon="-1.50055">
        <ele>-14.5</ele>
        <time>2020-06-06T10:32:16Z</time>
      </trkpt>
      <trkpt lat="47.17303" lon="-1.50068">
        <ele>-14.94</ele>
        <time>2020-06-06T10:32:18Z</time>
      </trkpt>
      <trkpt lat="47.17312" lon="-1.50081">
        <ele>-15.73</ele>
        <time>2020-06-06T10:32:20Z</time>
      </trkpt>
      <trkpt lat="47.1732" lon="-1.50093">
        <ele>-17.58</ele>
        <time>2020-06-06T10:32:22Z</time>
      </trkpt>
      <trkpt lat="47.17328" lon="-1.50106">
        <ele>-19.01</ele>
        <time>2020-06-06T10:32:24Z</time>
      </trkpt>
      <trkpt lat="47.17334" lon="-1.50119">
        <ele>-20.33</ele>
        <time>2020-06-06T10:32:26Z</time>
      </trkpt>
      <trkpt lat="47.1734" lon="-1.50132">
        <ele>-18.97</ele>
        <time>2020-06-06T10:32:28Z</time>
      </trkpt>
      <trkpt lat="47.17347" lon="-1.50147">
        <ele>-17.22</ele>
        <time>2020-06-06T10:32:30Z</time>
      </trkpt>
      <trkpt lat="47.17354" lon="-1.50164">
        <ele>-15.96</ele>
        <time>2020-06-06T10:32:32Z</time>
      </trkpt>
      <trkpt lat="47.17359" lon="-1.50178">
        <ele>-14.91</ele>
        <time>2020-06-06T10:32:34Z</time>
      </trkpt>
      <trkpt lat="47.17365" lon="-1.50192">
        <ele>-12.59</ele>
        <time>2020-06-06T10:32:36Z</time>
      </trkpt>
      <trkpt lat="47.17372" lon="-1.5021">
        <ele>-9.72</ele>
        <time>2020-06-06T10:32:38Z</time>
      </trkpt>
      <trkpt lat="47.17378" lon="-1.50226">
        <ele>-7.32</ele>
        <time>2020-06-06T10:32:40Z</time>
      </trkpt>
      <trkpt lat="47.17385" lon="-1.50241">
        <ele>-5.46</ele>
        <time>2020-06-06T10:32:42Z</time>
      </trkpt>
      <trkpt lat="47.17392" lon="-1.50254">
        <ele>-5.2</ele>
        <time>2020-06-06T10:32:44Z</time>
      </trkpt>
      <trkpt lat="47.17398" lon="-1.50269">
        <ele>-5.66</ele>
        <time>2020-06-06T10:32:46Z</time>
      </trkpt>
      <trkpt lat="47.17404" lon="-1.50282">
        <ele>-5.72</ele>
        <time>2020-06-06T10:32:48Z</time>
      </trkpt>
      <trkpt lat="47.17411" lon="-1.50299">
        <ele>-6.05</ele>
        <time>2020-06-06T10:32:50Z</time>
      </trkpt>
      <trkpt lat="47.17418" lon="-1.50317">
        <ele>-7.13</ele>
        <time>2020-06-06T10:32:52Z</time>
      </trkpt>
      <trkpt lat="47.17425" lon="-1.50335">
        <ele>-8.66</ele>
        <time>2020-06-06T10:32:54Z</time>
      </trkpt>
      <trkpt lat="47.17431" lon="-1.50349">
        <ele>-9.64</ele>
        <time>2020-06-06T10:32:56Z</time>
      </trkpt>
      <trkpt lat="47.17438" lon="-1.50365">
        <ele>-10.58</ele>
        <time>2020-06-06T10:32:58Z</time>
      </trkpt>
      <trkpt lat="47.17446" lon="-1.50381">
        <ele>-10.9</ele>
        <time>2020-06-06T10:33:00Z</time>
      </trkpt>
      <trkpt lat="47.17453" lon="-1.50395">
        <ele>-11.07</ele>
        <time>2020-06-06T10:33:02Z</time>
      </trkpt>
      <trkpt lat="47.17461" lon="-1.5041">
        <ele>-11.01</ele>
        <time>2020-06-06T10:33:04Z</time>
      </trkpt>
      <trkpt lat="47.1747" lon="-1.50424">
        <ele>-10.86</ele>
        <time>2020-06-06T10:33:06Z</time>
      </trkpt>
      <trkpt lat="47.17478" lon="-1.50439">
        <ele>-10.49</ele>
        <time>2020-06-06T10:33:08Z</time>
      </trkpt>
      <trkpt lat="47.17486" lon="-1.50454">
        <ele>-10.38</ele>
        <time>2020-06-06T10:33:10Z</time>
      </trkpt>
      <trkpt lat="47.17493" lon="-1.50468">
        <ele>-11.05</ele>
        <time>2020-06-06T10:33:12Z</time>
      </trkpt>
      <trkpt lat="47.17501" lon="-1.50483">
        <ele>-11.48</ele>
        <time>2020-06-06T10:33:14Z</time>
      </trkpt>
      <trkpt lat="47.17507" lon="-1.50495">
        <ele>-12.16</ele>
        <time>2020-06-06T10:33:16Z</time>
      </trkpt>
      <trkpt lat="47.17516" lon="-1.50511">
        <ele>-11.57</ele>
        <time>2020-06-06T10:33:18Z</time>
      </trkpt>
      <trkpt lat="47.17524" lon="-1.50526">
        <ele>-11.87</ele>
        <time>2020-06-06T10:33:20Z</time>
      </trkpt>
      <trkpt lat="47.17532" lon="-1.5054">
        <ele>-12.56</ele>
        <time>2020-06-06T10:33:22Z</time>
      </trkpt>
      <trkpt lat="47.17541" lon="-1.50553">
        <ele>-12.69</ele>
        <time>2020-06-06T10:33:24Z</time>
      </trkpt>
      <trkpt lat="47.17551" lon="-1.50567">
        <ele>-13.39</ele>
        <time>2020-06-06T10:33:26Z</time>
      </trkpt>
      <trkpt lat="47.1756" lon="-1.50583">
        <ele>-14.63</ele>
        <time>2020-06-06T10:33:28Z</time>
      </trkpt>
      <trkpt lat="47.17569" lon="-1.50596">
        <ele>-15.89</ele>
        <time>2020-06-06T10:33:30Z</time>
      </trkpt>
      <trkpt lat="47.17577" lon="-1.5061">
        <ele>-16.89</ele>
        <time>2020-06-06T10:33:32Z</time>
      </trkpt>
      <trkpt lat="47.17585" lon="-1.50623">
        <ele>-17.3</ele>
        <time>2020-06-06T10:33:34Z</time>
      </trkpt>
      <trkpt lat="47.17594" lon="-1.50636">
        <ele>-17.73</ele>
        <time>2020-06-06T10:33:36Z</time>
      </trkpt>
      <trkpt lat="47.17604" lon="-1.50649">
        <ele>-17.71</ele>
        <time>2020-06-06T10:33:38Z</time>
      </trkpt>
      <trkpt lat="47.17614" lon="-1.50663">
        <ele>-17.59</ele>
        <time>2020-06-06T10:33:40Z</time>
      </trkpt>
      <trkpt lat="47.17622" lon="-1.50675">
        <ele>-17.6</ele>
        <time>2020-06-06T10:33:42Z</time>
      </trkpt>
      <trkpt lat="47.17629" lon="-1.5069">
        <ele>-17.74</ele>
        <time>2020-06-06T10:33:44Z</time>
      </trkpt>
      <trkpt lat="47.17636" lon="-1.50704">
        <ele>-18.06</ele>
        <time>2020-06-06T10:33:46Z</time>
      </trkpt>
      <trkpt lat="47.17643" lon="-1.50714">
        <ele>-17.9</ele>
        <time>2020-06-06T10:33:48Z</time>
      </trkpt>
      <trkpt lat="47.17645" lon="-1.50728">
        <ele>-17.77</ele>
        <time>2020-06-06T10:33:50Z</time>
      </trkpt>
      <trkpt lat="47.1764" lon="-1.50743">
        <ele>-17.01</ele>
        <time>2020-06-06T10:33:52Z</time>
      </trkpt>
      <trkpt lat="47.17634" lon="-1.5076">
        <ele>-15.79</ele>
        <time>2020-06-06T10:33:54Z</time>
      </trkpt>
      <trkpt lat="47.1763" lon="-1.50775">
        <ele>-14.11</ele>
        <time>2020-06-06T10:33:56Z</time>
      </trkpt>
      <trkpt lat="47.17633" lon="-1.5079">
        <ele>-12.11</ele>
        <time>2020-06-06T10:33:58Z</time>
      </trkpt>
      <trkpt lat="47.1764" lon="-1.50806">
        <ele>-10.13</ele>
        <time>2020-06-06T10:34:01Z</time>
      </trkpt>
      <trkpt lat="47.17649" lon="-1.50818">
        <ele>-11.02</ele>
        <time>2020-06-06T10:34:04Z</time>
      </trkpt>
      <trkpt lat="47.17659" lon="-1.50821">
        <ele>-10.5</ele>
        <time>2020-06-06T10:34:06Z</time>
      </trkpt>
      <trkpt lat="47.17673" lon="-1.5082">
        <ele>-7.83</ele>
        <time>2020-06-06T10:34:08Z</time>
      </trkpt>
      <trkpt lat="47.17682" lon="-1.50815">
        <ele>-6.48</ele>
        <time>2020-06-06T10:34:09Z</time>
      </trkpt>
      <trkpt lat="47.17693" lon="-1.50803">
        <ele>-4.02</ele>
        <time>2020-06-06T10:34:11Z</time>
      </trkpt>
      <trkpt lat="47.17702" lon="-1.50797">
        <ele>-2.12</ele>
        <time>2020-06-06T10:34:13Z</time>
      </trkpt>
      <trkpt lat="47.17712" lon="-1.50804">
        <ele>-0.91</ele>
        <time>2020-06-06T10:34:15Z</time>
      </trkpt>
      <trkpt lat="47.17722" lon="-1.50817">
        <ele>-0.71</ele>
        <time>2020-06-06T10:34:17Z</time>
      </trkpt>
      <trkpt lat="47.17733" lon="-1.50831">
        <ele>-0.14</ele>
        <time>2020-06-06T10:34:19Z</time>
      </trkpt>
      <trkpt lat="47.17743" lon="-1.50844">
        <ele>0.81</ele>
        <time>2020-06-06T10:34:21Z</time>
      </trkpt>
      <trkpt lat="47.17752" lon="-1.50857">
        <ele>1.81</ele>
        <time>2020-06-06T10:34:23Z</time>
      </trkpt>
      <trkpt lat="47.17762" lon="-1.50869">
        <ele>2.21</ele>
        <time>2020-06-06T10:34:25Z</time>
      </trkpt>
      <trkpt lat="47.17772" lon="-1.50881">
        <ele>2.03</ele>
        <time>2020-06-06T10:34:27Z</time>
      </trkpt>
      <trkpt lat="47.17783" lon="-1.50893">
        <ele>1.61</ele>
        <time>2020-06-06T10:34:29Z</time>
      </trkpt>
      <trkpt lat="47.17795" lon="-1.50904">
        <ele>1.66</ele>
        <time>2020-06-06T10:34:31Z</time>
      </trkpt>
      <trkpt lat="47.17804" lon="-1.50915">
        <ele>1.02</ele>
        <time>2020-06-06T10:34:33Z</time>
      </trkpt>
      <trkpt lat="47.17814" lon="-1.50925">
        <ele>0.03</ele>
        <time>2020-06-06T10:34:35Z</time>
      </trkpt>
      <trkpt lat="47.17824" lon="-1.50934">
        <ele>-1.17</ele>
        <time>2020-06-06T10:34:37Z</time>
      </trkpt>
      <trkpt lat="47.17834" lon="-1.50943">
        <ele>-1.09</ele>
        <time>2020-06-06T10:34:39Z</time>
      </trkpt>
      <trkpt lat="47.17846" lon="-1.50955">
        <ele>-0.38</ele>
        <time>2020-06-06T10:34:41Z</time>
      </trkpt>
      <trkpt lat="47.17855" lon="-1.50966">
        <ele>0.32</ele>
        <time>2020-06-06T10:34:43Z</time>
      </trkpt>
      <trkpt lat="47.17865" lon="-1.50978">
        <ele>-0.08</ele>
        <time>2020-06-06T10:34:45Z</time>
      </trkpt>
      <trkpt lat="47.17874" lon="-1.50991">
        <ele>-1.16</ele>
        <time>2020-06-06T10:34:47Z</time>
      </trkpt>
      <trkpt lat="47.17883" lon="-1.51005">
        <ele>-1.72</ele>
        <time>2020-06-06T10:34:49Z</time>
      </trkpt>
      <trkpt lat="47.17892" lon="-1.51018">
        <ele>-1.39</ele>
        <time>2020-06-06T10:34:51Z</time>
      </trkpt>
      <trkpt lat="47.17902" lon="-1.51032">
        <ele>-1.02</ele>
        <time>2020-06-06T10:34:53Z</time>
      </trkpt>
      <trkpt lat="47.17911" lon="-1.51043">
        <ele>-1.44</ele>
        <time>2020-06-06T10:34:55Z</time>
      </trkpt>
      <trkpt lat="47.17919" lon="-1.51056">
        <ele>-1.27</ele>
        <time>2020-06-06T10:34:57Z</time>
      </trkpt>
      <trkpt lat="47.17927" lon="-1.51071">
        <ele>-0.56</ele>
        <time>2020-06-06T10:34:59Z</time>
      </trkpt>
      <trkpt lat="47.17936" lon="-1.51086">
        <ele>-0.61</ele>
        <time>2020-06-06T10:35:01Z</time>
      </trkpt>
      <trkpt lat="47.17945" lon="-1.511">
        <ele>-1.4</ele>
        <time>2020-06-06T10:35:03Z</time>
      </trkpt>
      <trkpt lat="47.17955" lon="-1.51113">
        <ele>-2.42</ele>
        <time>2020-06-06T10:35:05Z</time>
      </trkpt>
      <trkpt lat="47.17964" lon="-1.51124">
        <ele>-3.62</ele>
        <time>2020-06-06T10:35:07Z</time>
      </trkpt>
      <trkpt lat="47.17973" lon="-1.51132">
        <ele>-4.79</ele>
        <time>2020-06-06T10:35:09Z</time>
      </trkpt>
      <trkpt lat="47.17984" lon="-1.51141">
        <ele>-4.15</ele>
        <time>2020-06-06T10:35:11Z</time>
      </trkpt>
      <trkpt lat="47.17994" lon="-1.51147">
        <ele>-2.82</ele>
        <time>2020-06-06T10:35:13Z</time>
      </trkpt>
      <trkpt lat="47.18006" lon="-1.51153">
        <ele>-1.7</ele>
        <time>2020-06-06T10:35:15Z</time>
      </trkpt>
      <trkpt lat="47.1802" lon="-1.51158">
        <ele>-0.08</ele>
        <time>2020-06-06T10:35:17Z</time>
      </trkpt>
      <trkpt lat="47.18032" lon="-1.5116">
        <ele>0.79</ele>
        <time>2020-06-06T10:35:19Z</time>
      </trkpt>
      <trkpt lat="47.18042" lon="-1.51162">
        <ele>0.75</ele>
        <time>2020-06-06T10:35:21Z</time>
      </trkpt>
      <trkpt lat="47.1805" lon="-1.51171">
        <ele>0.38</ele>
        <time>2020-06-06T10:35:23Z</time>
      </trkpt>
      <trkpt lat="47.18053" lon="-1.51188">
        <ele>0.13</ele>
        <time>2020-06-06T10:35:25Z</time>
      </trkpt>
      <trkpt lat="47.18053" lon="-1.51205">
        <ele>5.6</ele>
        <time>2020-06-06T10:35:27Z</time>
      </trkpt>
      <trkpt lat="47.18054" lon="-1.51225">
        <ele>-0.21</ele>
        <time>2020-06-06T10:35:29Z</time>
      </trkpt>
      <trkpt lat="47.18055" lon="-1.51242">
        <ele>-0.94</ele>
        <time>2020-06-06T10:35:31Z</time>
      </trkpt>
      <trkpt lat="47.18056" lon="-1.5126">
        <ele>-2.3</ele>
        <time>2020-06-06T10:35:33Z</time>
      </trkpt>
      <trkpt lat="47.18057" lon="-1.51279">
        <ele>-3.59</ele>
        <time>2020-06-06T10:35:35Z</time>
      </trkpt>
      <trkpt lat="47.18059" lon="-1.51298">
        <ele>-4.35</ele>
        <time>2020-06-06T10:35:37Z</time>
      </trkpt>
      <trkpt lat="47.18061" lon="-1.51313">
        <ele>-5</ele>
        <time>2020-06-06T10:35:39Z</time>
      </trkpt>
      <trkpt lat="47.18064" lon="-1.5133">
        <ele>-5.55</ele>
        <time>2020-06-06T10:35:41Z</time>
      </trkpt>
      <trkpt lat="47.18069" lon="-1.51347">
        <ele>-6.64</ele>
        <time>2020-06-06T10:35:43Z</time>
      </trkpt>
      <trkpt lat="47.18076" lon="-1.51362">
        <ele>-7.52</ele>
        <time>2020-06-06T10:35:45Z</time>
      </trkpt>
      <trkpt lat="47.18082" lon="-1.51378">
        <ele>-8.07</ele>
        <time>2020-06-06T10:35:47Z</time>
      </trkpt>
      <trkpt lat="47.18088" lon="-1.51396">
        <ele>-9.72</ele>
        <time>2020-06-06T10:35:49Z</time>
      </trkpt>
      <trkpt lat="47.18092" lon="-1.5141">
        <ele>-11.23</ele>
        <time>2020-06-06T10:35:51Z</time>
      </trkpt>
      <trkpt lat="47.18099" lon="-1.51427">
        <ele>-12.87</ele>
        <time>2020-06-06T10:35:53Z</time>
      </trkpt>
      <trkpt lat="47.18105" lon="-1.51443">
        <ele>-14.69</ele>
        <time>2020-06-06T10:35:55Z</time>
      </trkpt>
      <trkpt lat="47.18111" lon="-1.5146">
        <ele>-16.69</ele>
        <time>2020-06-06T10:35:57Z</time>
      </trkpt>
      <trkpt lat="47.18116" lon="-1.51478">
        <ele>-19.16</ele>
        <time>2020-06-06T10:35:59Z</time>
      </trkpt>
      <trkpt lat="47.18121" lon="-1.51498">
        <ele>-20.44</ele>
        <time>2020-06-06T10:36:01Z</time>
      </trkpt>
      <trkpt lat="47.18126" lon="-1.51515">
        <ele>-20.96</ele>
        <time>2020-06-06T10:36:03Z</time>
      </trkpt>
      <trkpt lat="47.1813" lon="-1.51533">
        <ele>-21.34</ele>
        <time>2020-06-06T10:36:05Z</time>
      </trkpt>
      <trkpt lat="47.18134" lon="-1.51551">
        <ele>-20.25</ele>
        <time>2020-06-06T10:36:07Z</time>
      </trkpt>
      <trkpt lat="47.18138" lon="-1.51571">
        <ele>-18.68</ele>
        <time>2020-06-06T10:36:09Z</time>
      </trkpt>
      <trkpt lat="47.1814" lon="-1.51591">
        <ele>-15.46</ele>
        <time>2020-06-06T10:36:11Z</time>
      </trkpt>
      <trkpt lat="47.18141" lon="-1.51609">
        <ele>-15.04</ele>
        <time>2020-06-06T10:36:13Z</time>
      </trkpt>
      <trkpt lat="47.18143" lon="-1.51628">
        <ele>-14.09</ele>
        <time>2020-06-06T10:36:15Z</time>
      </trkpt>
      <trkpt lat="47.18145" lon="-1.51646">
        <ele>-13.24</ele>
        <time>2020-06-06T10:36:17Z</time>
      </trkpt>
      <trkpt lat="47.18146" lon="-1.51664">
        <ele>-13.02</ele>
        <time>2020-06-06T10:36:19Z</time>
      </trkpt>
      <trkpt lat="47.18147" lon="-1.51684">
        <ele>-12.7</ele>
        <time>2020-06-06T10:36:21Z</time>
      </trkpt>
      <trkpt lat="47.18148" lon="-1.51701">
        <ele>-12.84</ele>
        <time>2020-06-06T10:36:23Z</time>
      </trkpt>
      <trkpt lat="47.18149" lon="-1.51716">
        <ele>-12.02</ele>
        <time>2020-06-06T10:36:25Z</time>
      </trkpt>
      <trkpt lat="47.1815" lon="-1.5173">
        <ele>-11.67</ele>
        <time>2020-06-06T10:36:27Z</time>
      </trkpt>
      <trkpt lat="47.18151" lon="-1.51746">
        <ele>-11.44</ele>
        <time>2020-06-06T10:36:30Z</time>
      </trkpt>
      <trkpt lat="47.18148" lon="-1.51769">
        <ele>-11.95</ele>
        <time>2020-06-06T10:36:32Z</time>
      </trkpt>
      <trkpt lat="47.1814" lon="-1.51782">
        <ele>-11.95</ele>
        <time>2020-06-06T10:36:34Z</time>
      </trkpt>
      <trkpt lat="47.18132" lon="-1.51795">
        <ele>-12.51</ele>
        <time>2020-06-06T10:36:36Z</time>
      </trkpt>
      <trkpt lat="47.18126" lon="-1.51805">
        <ele>-13.39</ele>
        <time>2020-06-06T10:36:38Z</time>
      </trkpt>
      <trkpt lat="47.18119" lon="-1.51818">
        <ele>-14.2</ele>
        <time>2020-06-06T10:36:40Z</time>
      </trkpt>
      <trkpt lat="47.1811" lon="-1.5183">
        <ele>-13.97</ele>
        <time>2020-06-06T10:36:42Z</time>
      </trkpt>
      <trkpt lat="47.18104" lon="-1.51845">
        <ele>-13.37</ele>
        <time>2020-06-06T10:36:44Z</time>
      </trkpt>
      <trkpt lat="47.18103" lon="-1.5186">
        <ele>-11.6</ele>
        <time>2020-06-06T10:36:46Z</time>
      </trkpt>
      <trkpt lat="47.18103" lon="-1.51877">
        <ele>-9.95</ele>
        <time>2020-06-06T10:36:48Z</time>
      </trkpt>
      <trkpt lat="47.18106" lon="-1.51891">
        <ele>-9.38</ele>
        <time>2020-06-06T10:36:51Z</time>
      </trkpt>
      <trkpt lat="47.1811" lon="-1.5191">
        <ele>-5.51</ele>
        <time>2020-06-06T10:36:54Z</time>
      </trkpt>
      <trkpt lat="47.18112" lon="-1.51926">
        <ele>-4</ele>
        <time>2020-06-06T10:36:56Z</time>
      </trkpt>
      <trkpt lat="47.18113" lon="-1.51945">
        <ele>-3.23</ele>
        <time>2020-06-06T10:36:58Z</time>
      </trkpt>
      <trkpt lat="47.18114" lon="-1.51962">
        <ele>-1.51</ele>
        <time>2020-06-06T10:37:00Z</time>
      </trkpt>
      <trkpt lat="47.18115" lon="-1.51979">
        <ele>-1.44</ele>
        <time>2020-06-06T10:37:02Z</time>
      </trkpt>
      <trkpt lat="47.18116" lon="-1.51996">
        <ele>-3.15</ele>
        <time>2020-06-06T10:37:04Z</time>
      </trkpt>
      <trkpt lat="47.1812" lon="-1.52013">
        <ele>-3.79</ele>
        <time>2020-06-06T10:37:06Z</time>
      </trkpt>
      <trkpt lat="47.18123" lon="-1.52033">
        <ele>-3.84</ele>
        <time>2020-06-06T10:37:08Z</time>
      </trkpt>
      <trkpt lat="47.18124" lon="-1.52047">
        <ele>-3.54</ele>
        <time>2020-06-06T10:37:10Z</time>
      </trkpt>
      <trkpt lat="47.18127" lon="-1.52062">
        <ele>-4.25</ele>
        <time>2020-06-06T10:37:12Z</time>
      </trkpt>
      <trkpt lat="47.18129" lon="-1.52079">
        <ele>-3.9</ele>
        <time>2020-06-06T10:37:14Z</time>
      </trkpt>
      <trkpt lat="47.18132" lon="-1.52097">
        <ele>-3.66</ele>
        <time>2020-06-06T10:37:16Z</time>
      </trkpt>
      <trkpt lat="47.18135" lon="-1.52116">
        <ele>-4.18</ele>
        <time>2020-06-06T10:37:18Z</time>
      </trkpt>
      <trkpt lat="47.1814" lon="-1.52129">
        <ele>-5.09</ele>
        <time>2020-06-06T10:37:20Z</time>
      </trkpt>
      <trkpt lat="47.18147" lon="-1.52142">
        <ele>-5.32</ele>
        <time>2020-06-06T10:37:22Z</time>
      </trkpt>
      <trkpt lat="47.18153" lon="-1.52155">
        <ele>-5.83</ele>
        <time>2020-06-06T10:37:24Z</time>
      </trkpt>
      <trkpt lat="47.1816" lon="-1.52173">
        <ele>-5.22</ele>
        <time>2020-06-06T10:37:26Z</time>
      </trkpt>
      <trkpt lat="47.18165" lon="-1.52189">
        <ele>-5.87</ele>
        <time>2020-06-06T10:37:28Z</time>
      </trkpt>
      <trkpt lat="47.18169" lon="-1.52204">
        <ele>-5.65</ele>
        <time>2020-06-06T10:37:30Z</time>
      </trkpt>
      <trkpt lat="47.18174" lon="-1.52219">
        <ele>-5.2</ele>
        <time>2020-06-06T10:37:32Z</time>
      </trkpt>
      <trkpt lat="47.18179" lon="-1.52234">
        <ele>-3.97</ele>
        <time>2020-06-06T10:37:34Z</time>
      </trkpt>
      <trkpt lat="47.18184" lon="-1.52247">
        <ele>-3.74</ele>
        <time>2020-06-06T10:37:36Z</time>
      </trkpt>
      <trkpt lat="47.18187" lon="-1.52266">
        <ele>-3.28</ele>
        <time>2020-06-06T10:37:38Z</time>
      </trkpt>
      <trkpt lat="47.18188" lon="-1.52283">
        <ele>-3.2</ele>
        <time>2020-06-06T10:37:40Z</time>
      </trkpt>
      <trkpt lat="47.18189" lon="-1.52303">
        <ele>-3.05</ele>
        <time>2020-06-06T10:37:42Z</time>
      </trkpt>
      <trkpt lat="47.18188" lon="-1.5232">
        <ele>-4.45</ele>
        <time>2020-06-06T10:37:44Z</time>
      </trkpt>
      <trkpt lat="47.18185" lon="-1.52335">
        <ele>-4.97</ele>
        <time>2020-06-06T10:37:46Z</time>
      </trkpt>
      <trkpt lat="47.1818" lon="-1.52356">
        <ele>-5.8</ele>
        <time>2020-06-06T10:37:57Z</time>
      </trkpt>
      <trkpt lat="47.18179" lon="-1.5237">
        <ele>-7.55</ele>
        <time>2020-06-06T10:38:00Z</time>
      </trkpt>
      <trkpt lat="47.18179" lon="-1.52388">
        <ele>-7.45</ele>
        <time>2020-06-06T10:38:02Z</time>
      </trkpt>
      <trkpt lat="47.18179" lon="-1.52404">
        <ele>-6.95</ele>
        <time>2020-06-06T10:38:04Z</time>
      </trkpt>
      <trkpt lat="47.1818" lon="-1.52418">
        <ele>-5.96</ele>
        <time>2020-06-06T10:38:06Z</time>
      </trkpt>
      <trkpt lat="47.18184" lon="-1.52432">
        <ele>-5.81</ele>
        <time>2020-06-06T10:38:08Z</time>
      </trkpt>
      <trkpt lat="47.18191" lon="-1.52442">
        <ele>-5.08</ele>
        <time>2020-06-06T10:38:10Z</time>
      </trkpt>
      <trkpt lat="47.18195" lon="-1.5246">
        <ele>-4.26</ele>
        <time>2020-06-06T10:38:13Z</time>
      </trkpt>
      <trkpt lat="47.18193" lon="-1.52475">
        <ele>-4.82</ele>
        <time>2020-06-06T10:38:15Z</time>
      </trkpt>
      <trkpt lat="47.1819" lon="-1.52492">
        <ele>-6.49</ele>
        <time>2020-06-06T10:38:17Z</time>
      </trkpt>
      <trkpt lat="47.18189" lon="-1.52508">
        <ele>-7.36</ele>
        <time>2020-06-06T10:38:19Z</time>
      </trkpt>
      <trkpt lat="47.18188" lon="-1.52523">
        <ele>-7.3</ele>
        <time>2020-06-06T10:38:21Z</time>
      </trkpt>
      <trkpt lat="47.18194" lon="-1.52538">
        <ele>-7.02</ele>
        <time>2020-06-06T10:38:23Z</time>
      </trkpt>
      <trkpt lat="47.18202" lon="-1.52549">
        <ele>-6.61</ele>
        <time>2020-06-06T10:38:25Z</time>
      </trkpt>
      <trkpt lat="47.18209" lon="-1.52569">
        <ele>-6.56</ele>
        <time>2020-06-06T10:38:27Z</time>
      </trkpt>
      <trkpt lat="47.18216" lon="-1.52584">
        <ele>-6.93</ele>
        <time>2020-06-06T10:38:29Z</time>
      </trkpt>
      <trkpt lat="47.18225" lon="-1.52595">
        <ele>-7.5</ele>
        <time>2020-06-06T10:38:31Z</time>
      </trkpt>
      <trkpt lat="47.18233" lon="-1.52604">
        <ele>-7.58</ele>
        <time>2020-06-06T10:38:33Z</time>
      </trkpt>
      <trkpt lat="47.1824" lon="-1.52619">
        <ele>-8.59</ele>
        <time>2020-06-06T10:38:35Z</time>
      </trkpt>
      <trkpt lat="47.18243" lon="-1.52637">
        <ele>-9.19</ele>
        <time>2020-06-06T10:38:37Z</time>
      </trkpt>
      <trkpt lat="47.18244" lon="-1.52651">
        <ele>-9.5</ele>
        <time>2020-06-06T10:38:39Z</time>
      </trkpt>
      <trkpt lat="47.18242" lon="-1.52673">
        <ele>-10.55</ele>
        <time>2020-06-06T10:38:41Z</time>
      </trkpt>
      <trkpt lat="47.1824" lon="-1.52691">
        <ele>-11.83</ele>
        <time>2020-06-06T10:38:43Z</time>
      </trkpt>
      <trkpt lat="47.18236" lon="-1.52706">
        <ele>-12.49</ele>
        <time>2020-06-06T10:38:45Z</time>
      </trkpt>
      <trkpt lat="47.18232" lon="-1.52724">
        <ele>-13.3</ele>
        <time>2020-06-06T10:38:47Z</time>
      </trkpt>
      <trkpt lat="47.18233" lon="-1.52742">
        <ele>-12.45</ele>
        <time>2020-06-06T10:38:49Z</time>
      </trkpt>
      <trkpt lat="47.18234" lon="-1.52756">
        <ele>-11.19</ele>
        <time>2020-06-06T10:38:51Z</time>
      </trkpt>
      <trkpt lat="47.1824" lon="-1.52773">
        <ele>-7.33</ele>
        <time>2020-06-06T10:38:54Z</time>
      </trkpt>
      <trkpt lat="47.18244" lon="-1.52788">
        <ele>-4.45</ele>
        <time>2020-06-06T10:38:56Z</time>
      </trkpt>
      <trkpt lat="47.1825" lon="-1.52804">
        <ele>-3.01</ele>
        <time>2020-06-06T10:38:58Z</time>
      </trkpt>
      <trkpt lat="47.18255" lon="-1.5282">
        <ele>-3.44</ele>
        <time>2020-06-06T10:39:00Z</time>
      </trkpt>
      <trkpt lat="47.18262" lon="-1.52837">
        <ele>-5.05</ele>
        <time>2020-06-06T10:39:02Z</time>
      </trkpt>
      <trkpt lat="47.18265" lon="-1.52855">
        <ele>-7.13</ele>
        <time>2020-06-06T10:39:04Z</time>
      </trkpt>
      <trkpt lat="47.18268" lon="-1.52875">
        <ele>-9.01</ele>
        <time>2020-06-06T10:39:06Z</time>
      </trkpt>
      <trkpt lat="47.1827" lon="-1.52893">
        <ele>-10.25</ele>
        <time>2020-06-06T10:39:08Z</time>
      </trkpt>
      <trkpt lat="47.18273" lon="-1.52906">
        <ele>-10.71</ele>
        <time>2020-06-06T10:39:10Z</time>
      </trkpt>
      <trkpt lat="47.1828" lon="-1.52921">
        <ele>-11.59</ele>
        <time>2020-06-06T10:39:12Z</time>
      </trkpt>
      <trkpt lat="47.18288" lon="-1.52932">
        <ele>-12.23</ele>
        <time>2020-06-06T10:39:14Z</time>
      </trkpt>
      <trkpt lat="47.18298" lon="-1.52951">
        <ele>-13.76</ele>
        <time>2020-06-06T10:39:17Z</time>
      </trkpt>
      <trkpt lat="47.18303" lon="-1.5297">
        <ele>-15.47</ele>
        <time>2020-06-06T10:39:19Z</time>
      </trkpt>
      <trkpt lat="47.18307" lon="-1.52987">
        <ele>-15.82</ele>
        <time>2020-06-06T10:39:21Z</time>
      </trkpt>
      <trkpt lat="47.18312" lon="-1.53">
        <ele>-15.93</ele>
        <time>2020-06-06T10:39:23Z</time>
      </trkpt>
      <trkpt lat="47.1832" lon="-1.53013">
        <ele>-15.9</ele>
        <time>2020-06-06T10:39:25Z</time>
      </trkpt>
      <trkpt lat="47.18327" lon="-1.53026">
        <ele>-15.53</ele>
        <time>2020-06-06T10:39:27Z</time>
      </trkpt>
      <trkpt lat="47.18333" lon="-1.53036">
        <ele>-14.98</ele>
        <time>2020-06-06T10:39:29Z</time>
      </trkpt>
      <trkpt lat="47.18343" lon="-1.53051">
        <ele>-13.59</ele>
        <time>2020-06-06T10:39:32Z</time>
      </trkpt>
      <trkpt lat="47.18351" lon="-1.53059">
        <ele>-11.46</ele>
        <time>2020-06-06T10:39:34Z</time>
      </trkpt>
      <trkpt lat="47.1836" lon="-1.53054">
        <ele>-10.25</ele>
        <time>2020-06-06T10:39:37Z</time>
      </trkpt>
      <trkpt lat="47.1837" lon="-1.53054">
        <ele>-9.59</ele>
        <time>2020-06-06T10:39:41Z</time>
      </trkpt>
      <trkpt lat="47.18365" lon="-1.5307">
        <ele>-8.49</ele>
        <time>2020-06-06T10:39:49Z</time>
      </trkpt>
      <trkpt lat="47.18355" lon="-1.53083">
        <ele>-7.97</ele>
        <time>2020-06-06T10:39:51Z</time>
      </trkpt>
      <trkpt lat="47.18345" lon="-1.53096">
        <ele>-6.43</ele>
        <time>2020-06-06T10:39:53Z</time>
      </trkpt>
      <trkpt lat="47.18336" lon="-1.53105">
        <ele>-3.61</ele>
        <time>2020-06-06T10:39:55Z</time>
      </trkpt>
      <trkpt lat="47.18326" lon="-1.53113">
        <ele>-1.19</ele>
        <time>2020-06-06T10:39:57Z</time>
      </trkpt>
      <trkpt lat="47.18316" lon="-1.53121">
        <ele>0.65</ele>
        <time>2020-06-06T10:39:59Z</time>
      </trkpt>
      <trkpt lat="47.18303" lon="-1.53131">
        <ele>1.67</ele>
        <time>2020-06-06T10:40:01Z</time>
      </trkpt>
      <trkpt lat="47.18293" lon="-1.53138">
        <ele>2.23</ele>
        <time>2020-06-06T10:40:03Z</time>
      </trkpt>
      <trkpt lat="47.18284" lon="-1.53146">
        <ele>5.07</ele>
        <time>2020-06-06T10:40:05Z</time>
      </trkpt>
      <trkpt lat="47.18274" lon="-1.53153">
        <ele>7.06</ele>
        <time>2020-06-06T10:40:07Z</time>
      </trkpt>
      <trkpt lat="47.18265" lon="-1.53162">
        <ele>7.4</ele>
        <time>2020-06-06T10:40:09Z</time>
      </trkpt>
      <trkpt lat="47.18256" lon="-1.53173">
        <ele>7.05</ele>
        <time>2020-06-06T10:40:11Z</time>
      </trkpt>
      <trkpt lat="47.18246" lon="-1.53189">
        <ele>5.16</ele>
        <time>2020-06-06T10:40:14Z</time>
      </trkpt>
      <trkpt lat="47.18259" lon="-1.53185">
        <ele>6.75</ele>
        <time>2020-06-06T10:40:21Z</time>
      </trkpt>
      <trkpt lat="47.18267" lon="-1.53178">
        <ele>6.96</ele>
        <time>2020-06-06T10:40:23Z</time>
      </trkpt>
      <trkpt lat="47.18275" lon="-1.53172">
        <ele>7.21</ele>
        <time>2020-06-06T10:40:25Z</time>
      </trkpt>
      <trkpt lat="47.18287" lon="-1.5317">
        <ele>5.06</ele>
        <time>2020-06-06T10:40:27Z</time>
      </trkpt>
      <trkpt lat="47.18296" lon="-1.53178">
        <ele>2.71</ele>
        <time>2020-06-06T10:40:29Z</time>
      </trkpt>
      <trkpt lat="47.18304" lon="-1.53189">
        <ele>1.23</ele>
        <time>2020-06-06T10:40:31Z</time>
      </trkpt>
      <trkpt lat="47.18313" lon="-1.53203">
        <ele>-1.11</ele>
        <time>2020-06-06T10:40:33Z</time>
      </trkpt>
      <trkpt lat="47.18322" lon="-1.53214">
        <ele>-3.92</ele>
        <time>2020-06-06T10:40:35Z</time>
      </trkpt>
      <trkpt lat="47.18329" lon="-1.53226">
        <ele>-5.58</ele>
        <time>2020-06-06T10:40:37Z</time>
      </trkpt>
      <trkpt lat="47.18339" lon="-1.53241">
        <ele>-6</ele>
        <time>2020-06-06T10:40:39Z</time>
      </trkpt>
      <trkpt lat="47.18348" lon="-1.53256">
        <ele>-6.89</ele>
        <time>2020-06-06T10:40:41Z</time>
      </trkpt>
      <trkpt lat="47.18358" lon="-1.53269">
        <ele>-7.54</ele>
        <time>2020-06-06T10:40:43Z</time>
      </trkpt>
      <trkpt lat="47.18366" lon="-1.53283">
        <ele>-8.34</ele>
        <time>2020-06-06T10:40:45Z</time>
      </trkpt>
      <trkpt lat="47.18376" lon="-1.53298">
        <ele>-8.22</ele>
        <time>2020-06-06T10:40:47Z</time>
      </trkpt>
      <trkpt lat="47.18386" lon="-1.5331">
        <ele>-7.67</ele>
        <time>2020-06-06T10:40:49Z</time>
      </trkpt>
      <trkpt lat="47.18397" lon="-1.53322">
        <ele>-7.99</ele>
        <time>2020-06-06T10:40:51Z</time>
      </trkpt>
      <trkpt lat="47.18409" lon="-1.53335">
        <ele>-9.26</ele>
        <time>2020-06-06T10:40:53Z</time>
      </trkpt>
      <trkpt lat="47.18418" lon="-1.53344">
        <ele>-10.7</ele>
        <time>2020-06-06T10:40:55Z</time>
      </trkpt>
      <trkpt lat="47.18426" lon="-1.53355">
        <ele>-12.06</ele>
        <time>2020-06-06T10:40:57Z</time>
      </trkpt>
      <trkpt lat="47.18437" lon="-1.53368">
        <ele>-13.32</ele>
        <time>2020-06-06T10:40:59Z</time>
      </trkpt>
      <trkpt lat="47.18447" lon="-1.5338">
        <ele>-14.81</ele>
        <time>2020-06-06T10:41:01Z</time>
      </trkpt>
      <trkpt lat="47.18457" lon="-1.53391">
        <ele>-15.56</ele>
        <time>2020-06-06T10:41:03Z</time>
      </trkpt>
      <trkpt lat="47.18467" lon="-1.53402">
        <ele>-15.79</ele>
        <time>2020-06-06T10:41:05Z</time>
      </trkpt>
      <trkpt lat="47.18475" lon="-1.53412">
        <ele>-15.7</ele>
        <time>2020-06-06T10:41:07Z</time>
      </trkpt>
      <trkpt lat="47.18484" lon="-1.53421">
        <ele>-15.1</ele>
        <time>2020-06-06T10:41:09Z</time>
      </trkpt>
      <trkpt lat="47.18496" lon="-1.53431">
        <ele>-15.25</ele>
        <time>2020-06-06T10:41:12Z</time>
      </trkpt>
      <trkpt lat="47.18507" lon="-1.53448">
        <ele>-15.18</ele>
        <time>2020-06-06T10:41:14Z</time>
      </trkpt>
      <trkpt lat="47.18515" lon="-1.53459">
        <ele>-15.97</ele>
        <time>2020-06-06T10:41:16Z</time>
      </trkpt>
      <trkpt lat="47.18528" lon="-1.53468">
        <ele>-17</ele>
        <time>2020-06-06T10:41:18Z</time>
      </trkpt>
      <trkpt lat="47.1854" lon="-1.53477">
        <ele>-17.28</ele>
        <time>2020-06-06T10:41:20Z</time>
      </trkpt>
      <trkpt lat="47.18552" lon="-1.53488">
        <ele>-17.9</ele>
        <time>2020-06-06T10:41:22Z</time>
      </trkpt>
      <trkpt lat="47.18564" lon="-1.535">
        <ele>-19.28</ele>
        <time>2020-06-06T10:41:24Z</time>
      </trkpt>
      <trkpt lat="47.18575" lon="-1.5351">
        <ele>-20.26</ele>
        <time>2020-06-06T10:41:26Z</time>
      </trkpt>
      <trkpt lat="47.18583" lon="-1.53518">
        <ele>-20.21</ele>
        <time>2020-06-06T10:41:28Z</time>
      </trkpt>
      <trkpt lat="47.18594" lon="-1.53527">
        <ele>-19.57</ele>
        <time>2020-06-06T10:41:30Z</time>
      </trkpt>
      <trkpt lat="47.18605" lon="-1.53535">
        <ele>-18.62</ele>
        <time>2020-06-06T10:41:32Z</time>
      </trkpt>
      <trkpt lat="47.18617" lon="-1.53543">
        <ele>-17.57</ele>
        <time>2020-06-06T10:41:34Z</time>
      </trkpt>
      <trkpt lat="47.1863" lon="-1.5355">
        <ele>-15.47</ele>
        <time>2020-06-06T10:41:36Z</time>
      </trkpt>
      <trkpt lat="47.1864" lon="-1.53556">
        <ele>-14.83</ele>
        <time>2020-06-06T10:41:38Z</time>
      </trkpt>
      <trkpt lat="47.18652" lon="-1.53564">
        <ele>-13.82</ele>
        <time>2020-06-06T10:41:40Z</time>
      </trkpt>
      <trkpt lat="47.18664" lon="-1.5357">
        <ele>-12.02</ele>
        <time>2020-06-06T10:41:42Z</time>
      </trkpt>
      <trkpt lat="47.18678" lon="-1.53575">
        <ele>-10.98</ele>
        <time>2020-06-06T10:41:44Z</time>
      </trkpt>
      <trkpt lat="47.18692" lon="-1.53579">
        <ele>-10.68</ele>
        <time>2020-06-06T10:41:46Z</time>
      </trkpt>
      <trkpt lat="47.18705" lon="-1.53582">
        <ele>-8.08</ele>
        <time>2020-06-06T10:41:48Z</time>
      </trkpt>
      <trkpt lat="47.18715" lon="-1.53585">
        <ele>-5.67</ele>
        <time>2020-06-06T10:41:50Z</time>
      </trkpt>
      <trkpt lat="47.18728" lon="-1.53589">
        <ele>-3.86</ele>
        <time>2020-06-06T10:41:52Z</time>
      </trkpt>
      <trkpt lat="47.18741" lon="-1.53592">
        <ele>-1.61</ele>
        <time>2020-06-06T10:41:54Z</time>
      </trkpt>
      <trkpt lat="47.18756" lon="-1.53597">
        <ele>-0.26</ele>
        <time>2020-06-06T10:41:56Z</time>
      </trkpt>
      <trkpt lat="47.18767" lon="-1.536">
        <ele>0.14</ele>
        <time>2020-06-06T10:41:58Z</time>
      </trkpt>
      <trkpt lat="47.18781" lon="-1.53603">
        <ele>0.88</ele>
        <time>2020-06-06T10:42:00Z</time>
      </trkpt>
      <trkpt lat="47.18793" lon="-1.53607">
        <ele>1.21</ele>
        <time>2020-06-06T10:42:02Z</time>
      </trkpt>
      <trkpt lat="47.18807" lon="-1.53612">
        <ele>0.66</ele>
        <time>2020-06-06T10:42:04Z</time>
      </trkpt>
      <trkpt lat="47.18819" lon="-1.53615">
        <ele>-0.22</ele>
        <time>2020-06-06T10:42:06Z</time>
      </trkpt>
      <trkpt lat="47.18831" lon="-1.53618">
        <ele>-1.37</ele>
        <time>2020-06-06T10:42:08Z</time>
      </trkpt>
      <trkpt lat="47.18843" lon="-1.53622">
        <ele>-2.8</ele>
        <time>2020-06-06T10:42:10Z</time>
      </trkpt>
      <trkpt lat="47.18855" lon="-1.53628">
        <ele>-6.07</ele>
        <time>2020-06-06T10:42:12Z</time>
      </trkpt>
      <trkpt lat="47.18868" lon="-1.53636">
        <ele>-7.27</ele>
        <time>2020-06-06T10:42:14Z</time>
      </trkpt>
      <trkpt lat="47.18878" lon="-1.53643">
        <ele>-8.39</ele>
        <time>2020-06-06T10:42:16Z</time>
      </trkpt>
      <trkpt lat="47.18887" lon="-1.53648">
        <ele>-9.37</ele>
        <time>2020-06-06T10:42:18Z</time>
      </trkpt>
      <trkpt lat="47.18897" lon="-1.53654">
        <ele>-10.52</ele>
        <time>2020-06-06T10:42:20Z</time>
      </trkpt>
      <trkpt lat="47.18907" lon="-1.5366">
        <ele>-11.8</ele>
        <time>2020-06-06T10:42:22Z</time>
      </trkpt>
      <trkpt lat="47.18919" lon="-1.53668">
        <ele>-14.55</ele>
        <time>2020-06-06T10:42:24Z</time>
      </trkpt>
      <trkpt lat="47.18931" lon="-1.53677">
        <ele>-15.5</ele>
        <time>2020-06-06T10:42:26Z</time>
      </trkpt>
      <trkpt lat="47.18943" lon="-1.53688">
        <ele>-15.94</ele>
        <time>2020-06-06T10:42:28Z</time>
      </trkpt>
      <trkpt lat="47.18952" lon="-1.53696">
        <ele>-14.77</ele>
        <time>2020-06-06T10:42:30Z</time>
      </trkpt>
      <trkpt lat="47.18962" lon="-1.53705">
        <ele>-14.19</ele>
        <time>2020-06-06T10:42:32Z</time>
      </trkpt>
      <trkpt lat="47.18971" lon="-1.53711">
        <ele>-13.34</ele>
        <time>2020-06-06T10:42:34Z</time>
      </trkpt>
      <trkpt lat="47.18984" lon="-1.5372">
        <ele>-10.5</ele>
        <time>2020-06-06T10:42:36Z</time>
      </trkpt>
      <trkpt lat="47.18995" lon="-1.53731">
        <ele>-8.22</ele>
        <time>2020-06-06T10:42:38Z</time>
      </trkpt>
      <trkpt lat="47.19008" lon="-1.53742">
        <ele>-7.02</ele>
        <time>2020-06-06T10:42:40Z</time>
      </trkpt>
      <trkpt lat="47.1902" lon="-1.53753">
        <ele>-7.1</ele>
        <time>2020-06-06T10:42:42Z</time>
      </trkpt>
      <trkpt lat="47.1903" lon="-1.53763">
        <ele>-8.52</ele>
        <time>2020-06-06T10:42:44Z</time>
      </trkpt>
      <trkpt lat="47.1904" lon="-1.53774">
        <ele>-10.05</ele>
        <time>2020-06-06T10:42:46Z</time>
      </trkpt>
      <trkpt lat="47.19051" lon="-1.53789">
        <ele>-11.26</ele>
        <time>2020-06-06T10:42:48Z</time>
      </trkpt>
      <trkpt lat="47.19058" lon="-1.53801">
        <ele>-12.49</ele>
        <time>2020-06-06T10:42:50Z</time>
      </trkpt>
      <trkpt lat="47.19065" lon="-1.5381">
        <ele>-13.97</ele>
        <time>2020-06-06T10:42:52Z</time>
      </trkpt>
      <trkpt lat="47.19075" lon="-1.53822">
        <ele>-15.44</ele>
        <time>2020-06-06T10:42:54Z</time>
      </trkpt>
      <trkpt lat="47.19084" lon="-1.53835">
        <ele>-17.2</ele>
        <time>2020-06-06T10:42:56Z</time>
      </trkpt>
      <trkpt lat="47.19094" lon="-1.53846">
        <ele>-18.19</ele>
        <time>2020-06-06T10:42:58Z</time>
      </trkpt>
      <trkpt lat="47.19104" lon="-1.53859">
        <ele>-18.56</ele>
        <time>2020-06-06T10:43:00Z</time>
      </trkpt>
      <trkpt lat="47.19111" lon="-1.53869">
        <ele>-17.1</ele>
        <time>2020-06-06T10:43:02Z</time>
      </trkpt>
      <trkpt lat="47.19119" lon="-1.53881">
        <ele>-15.46</ele>
        <time>2020-06-06T10:43:04Z</time>
      </trkpt>
      <trkpt lat="47.19128" lon="-1.53894">
        <ele>-15.26</ele>
        <time>2020-06-06T10:43:06Z</time>
      </trkpt>
      <trkpt lat="47.19135" lon="-1.53903">
        <ele>-14.72</ele>
        <time>2020-06-06T10:43:08Z</time>
      </trkpt>
      <trkpt lat="47.19146" lon="-1.53916">
        <ele>-12.79</ele>
        <time>2020-06-06T10:43:10Z</time>
      </trkpt>
      <trkpt lat="47.19155" lon="-1.53929">
        <ele>-11.97</ele>
        <time>2020-06-06T10:43:12Z</time>
      </trkpt>
      <trkpt lat="47.19163" lon="-1.53944">
        <ele>-12.43</ele>
        <time>2020-06-06T10:43:14Z</time>
      </trkpt>
      <trkpt lat="47.19171" lon="-1.53957">
        <ele>-13.43</ele>
        <time>2020-06-06T10:43:16Z</time>
      </trkpt>
      <trkpt lat="47.19179" lon="-1.53972">
        <ele>-15.83</ele>
        <time>2020-06-06T10:43:18Z</time>
      </trkpt>
      <trkpt lat="47.19187" lon="-1.53987">
        <ele>-18.4</ele>
        <time>2020-06-06T10:43:20Z</time>
      </trkpt>
      <trkpt lat="47.19195" lon="-1.54">
        <ele>-18.96</ele>
        <time>2020-06-06T10:43:22Z</time>
      </trkpt>
      <trkpt lat="47.19203" lon="-1.54014">
        <ele>-19.44</ele>
        <time>2020-06-06T10:43:24Z</time>
      </trkpt>
      <trkpt lat="47.19211" lon="-1.54029">
        <ele>-19.01</ele>
        <time>2020-06-06T10:43:27Z</time>
      </trkpt>
      <trkpt lat="47.1922" lon="-1.5404">
        <ele>-18.86</ele>
        <time>2020-06-06T10:43:29Z</time>
      </trkpt>
      <trkpt lat="47.19228" lon="-1.54058">
        <ele>-18.76</ele>
        <time>2020-06-06T10:43:31Z</time>
      </trkpt>
      <trkpt lat="47.19235" lon="-1.54077">
        <ele>-18.22</ele>
        <time>2020-06-06T10:43:33Z</time>
      </trkpt>
      <trkpt lat="47.1924" lon="-1.54092">
        <ele>-17.02</ele>
        <time>2020-06-06T10:43:35Z</time>
      </trkpt>
      <trkpt lat="47.19246" lon="-1.54107">
        <ele>-15.24</ele>
        <time>2020-06-06T10:43:37Z</time>
      </trkpt>
      <trkpt lat="47.19253" lon="-1.54121">
        <ele>-13.83</ele>
        <time>2020-06-06T10:43:39Z</time>
      </trkpt>
      <trkpt lat="47.1926" lon="-1.54135">
        <ele>-12.37</ele>
        <time>2020-06-06T10:43:41Z</time>
      </trkpt>
      <trkpt lat="47.19268" lon="-1.5415">
        <ele>-11.95</ele>
        <time>2020-06-06T10:43:43Z</time>
      </trkpt>
      <trkpt lat="47.19275" lon="-1.54167">
        <ele>-12.62</ele>
        <time>2020-06-06T10:43:45Z</time>
      </trkpt>
      <trkpt lat="47.19283" lon="-1.54181">
        <ele>-12.78</ele>
        <time>2020-06-06T10:43:47Z</time>
      </trkpt>
      <trkpt lat="47.19291" lon="-1.54193">
        <ele>-13.13</ele>
        <time>2020-06-06T10:43:49Z</time>
      </trkpt>
      <trkpt lat="47.19301" lon="-1.54202">
        <ele>-14.74</ele>
        <time>2020-06-06T10:43:51Z</time>
      </trkpt>
      <trkpt lat="47.19308" lon="-1.54215">
        <ele>-16.51</ele>
        <time>2020-06-06T10:43:53Z</time>
      </trkpt>
      <trkpt lat="47.19315" lon="-1.54228">
        <ele>-17.97</ele>
        <time>2020-06-06T10:43:55Z</time>
      </trkpt>
      <trkpt lat="47.19321" lon="-1.54244">
        <ele>-19.51</ele>
        <time>2020-06-06T10:43:57Z</time>
      </trkpt>
      <trkpt lat="47.19326" lon="-1.54257">
        <ele>-19.99</ele>
        <time>2020-06-06T10:43:59Z</time>
      </trkpt>
      <trkpt lat="47.19334" lon="-1.54271">
        <ele>-17.84</ele>
        <time>2020-06-06T10:44:01Z</time>
      </trkpt>
      <trkpt lat="47.19344" lon="-1.54282">
        <ele>-16.32</ele>
        <time>2020-06-06T10:44:03Z</time>
      </trkpt>
      <trkpt lat="47.19353" lon="-1.54295">
        <ele>-13.62</ele>
        <time>2020-06-06T10:44:05Z</time>
      </trkpt>
      <trkpt lat="47.19363" lon="-1.54309">
        <ele>-13.09</ele>
        <time>2020-06-06T10:44:07Z</time>
      </trkpt>
      <trkpt lat="47.19371" lon="-1.5432">
        <ele>-12.58</ele>
        <time>2020-06-06T10:44:09Z</time>
      </trkpt>
      <trkpt lat="47.1938" lon="-1.54333">
        <ele>-11.77</ele>
        <time>2020-06-06T10:44:11Z</time>
      </trkpt>
      <trkpt lat="47.19388" lon="-1.54347">
        <ele>-11.99</ele>
        <time>2020-06-06T10:44:13Z</time>
      </trkpt>
      <trkpt lat="47.19397" lon="-1.5436">
        <ele>-13.1</ele>
        <time>2020-06-06T10:44:15Z</time>
      </trkpt>
      <trkpt lat="47.19404" lon="-1.54371">
        <ele>-14.53</ele>
        <time>2020-06-06T10:44:17Z</time>
      </trkpt>
      <trkpt lat="47.19413" lon="-1.54385">
        <ele>-15.22</ele>
        <time>2020-06-06T10:44:19Z</time>
      </trkpt>
      <trkpt lat="47.19421" lon="-1.54397">
        <ele>-15.17</ele>
        <time>2020-06-06T10:44:21Z</time>
      </trkpt>
      <trkpt lat="47.19429" lon="-1.54412">
        <ele>-15.29</ele>
        <time>2020-06-06T10:44:23Z</time>
      </trkpt>
      <trkpt lat="47.19438" lon="-1.54424">
        <ele>-15.78</ele>
        <time>2020-06-06T10:44:25Z</time>
      </trkpt>
      <trkpt lat="47.19447" lon="-1.54435">
        <ele>-15.96</ele>
        <time>2020-06-06T10:44:27Z</time>
      </trkpt>
      <trkpt lat="47.19454" lon="-1.54446">
        <ele>-16.2</ele>
        <time>2020-06-06T10:44:29Z</time>
      </trkpt>
      <trkpt lat="47.19454" lon="-1.54465">
        <ele>-14.98</ele>
        <time>2020-06-06T10:44:32Z</time>
      </trkpt>
      <trkpt lat="47.19448" lon="-1.54477">
        <ele>-12.04</ele>
        <time>2020-06-06T10:44:34Z</time>
      </trkpt>
      <trkpt lat="47.19436" lon="-1.54485">
        <ele>-7.48</ele>
        <time>2020-06-06T10:44:37Z</time>
      </trkpt>
      <trkpt lat="47.19425" lon="-1.54494">
        <ele>-5.36</ele>
        <time>2020-06-06T10:44:39Z</time>
      </trkpt>
      <trkpt lat="47.19428" lon="-1.5451">
        <ele>-4.34</ele>
        <time>2020-06-06T10:44:42Z</time>
      </trkpt>
      <trkpt lat="47.19421" lon="-1.54528">
        <ele>-0.13</ele>
        <time>2020-06-06T10:44:45Z</time>
      </trkpt>
      <trkpt lat="47.19415" lon="-1.54538">
        <ele>1.66</ele>
        <time>2020-06-06T10:44:48Z</time>
      </trkpt>
      <trkpt lat="47.19422" lon="-1.54552">
        <ele>2.65</ele>
        <time>2020-06-06T10:44:52Z</time>
      </trkpt>
      <trkpt lat="47.19432" lon="-1.54561">
        <ele>2.98</ele>
        <time>2020-06-06T10:44:55Z</time>
      </trkpt>
      <trkpt lat="47.1944" lon="-1.54569">
        <ele>3.62</ele>
        <time>2020-06-06T10:44:57Z</time>
      </trkpt>
      <trkpt lat="47.19449" lon="-1.54577">
        <ele>4.03</ele>
        <time>2020-06-06T10:44:59Z</time>
      </trkpt>
      <trkpt lat="47.19461" lon="-1.54585">
        <ele>4.2</ele>
        <time>2020-06-06T10:45:01Z</time>
      </trkpt>
      <trkpt lat="47.19472" lon="-1.54597">
        <ele>4.49</ele>
        <time>2020-06-06T10:45:03Z</time>
      </trkpt>
      <trkpt lat="47.19471" lon="-1.54615">
        <ele>5.18</ele>
        <time>2020-06-06T10:45:05Z</time>
      </trkpt>
      <trkpt lat="47.19463" lon="-1.54634">
        <ele>7.51</ele>
        <time>2020-06-06T10:45:07Z</time>
      </trkpt>
      <trkpt lat="47.19449" lon="-1.54641">
        <ele>7.43</ele>
        <time>2020-06-06T10:45:09Z</time>
      </trkpt>
      <trkpt lat="47.19439" lon="-1.54648">
        <ele>6.69</ele>
        <time>2020-06-06T10:45:11Z</time>
      </trkpt>
      <trkpt lat="47.19433" lon="-1.54665">
        <ele>6.36</ele>
        <time>2020-06-06T10:45:13Z</time>
      </trkpt>
      <trkpt lat="47.19429" lon="-1.54686">
        <ele>5.29</ele>
        <time>2020-06-06T10:45:14Z</time>
      </trkpt>
      <trkpt lat="47.19425" lon="-1.54706">
        <ele>4.68</ele>
        <time>2020-06-06T10:45:16Z</time>
      </trkpt>
      <trkpt lat="47.19421" lon="-1.54723">
        <ele>5.47</ele>
        <time>2020-06-06T10:45:18Z</time>
      </trkpt>
      <trkpt lat="47.19416" lon="-1.54738">
        <ele>6.77</ele>
        <time>2020-06-06T10:45:20Z</time>
      </trkpt>
      <trkpt lat="47.1941" lon="-1.54755">
        <ele>8.45</ele>
        <time>2020-06-06T10:45:23Z</time>
      </trkpt>
      <trkpt lat="47.19405" lon="-1.54768">
        <ele>9.56</ele>
        <time>2020-06-06T10:45:25Z</time>
      </trkpt>
      <trkpt lat="47.19401" lon="-1.54782">
        <ele>10.07</ele>
        <time>2020-06-06T10:45:27Z</time>
      </trkpt>
      <trkpt lat="47.19397" lon="-1.54797">
        <ele>10.28</ele>
        <time>2020-06-06T10:45:29Z</time>
      </trkpt>
      <trkpt lat="47.19393" lon="-1.54814">
        <ele>10.45</ele>
        <time>2020-06-06T10:45:31Z</time>
      </trkpt>
      <trkpt lat="47.19389" lon="-1.54829">
        <ele>10.83</ele>
        <time>2020-06-06T10:45:33Z</time>
      </trkpt>
      <trkpt lat="47.19386" lon="-1.54843">
        <ele>11.52</ele>
        <time>2020-06-06T10:45:35Z</time>
      </trkpt>
      <trkpt lat="47.19383" lon="-1.54858">
        <ele>13.37</ele>
        <time>2020-06-06T10:45:37Z</time>
      </trkpt>
      <trkpt lat="47.19378" lon="-1.54878">
        <ele>15.66</ele>
        <time>2020-06-06T10:45:40Z</time>
      </trkpt>
      <trkpt lat="47.19375" lon="-1.54892">
        <ele>16.16</ele>
        <time>2020-06-06T10:45:42Z</time>
      </trkpt>
      <trkpt lat="47.1937" lon="-1.54906">
        <ele>15.38</ele>
        <time>2020-06-06T10:45:44Z</time>
      </trkpt>
      <trkpt lat="47.19367" lon="-1.5492">
        <ele>13.53</ele>
        <time>2020-06-06T10:45:46Z</time>
      </trkpt>
      <trkpt lat="47.19363" lon="-1.54935">
        <ele>12.21</ele>
        <time>2020-06-06T10:45:48Z</time>
      </trkpt>
      <trkpt lat="47.1936" lon="-1.54949">
        <ele>10.86</ele>
        <time>2020-06-06T10:45:50Z</time>
      </trkpt>
      <trkpt lat="47.19357" lon="-1.54963">
        <ele>9.14</ele>
        <time>2020-06-06T10:45:52Z</time>
      </trkpt>
      <trkpt lat="47.19354" lon="-1.54978">
        <ele>7.75</ele>
        <time>2020-06-06T10:45:54Z</time>
      </trkpt>
      <trkpt lat="47.19351" lon="-1.54993">
        <ele>7.1</ele>
        <time>2020-06-06T10:45:56Z</time>
      </trkpt>
      <trkpt lat="47.19348" lon="-1.55009">
        <ele>7.62</ele>
        <time>2020-06-06T10:45:58Z</time>
      </trkpt>
      <trkpt lat="47.19344" lon="-1.55025">
        <ele>8.06</ele>
        <time>2020-06-06T10:46:00Z</time>
      </trkpt>
      <trkpt lat="47.1934" lon="-1.55042">
        <ele>9.05</ele>
        <time>2020-06-06T10:46:02Z</time>
      </trkpt>
      <trkpt lat="47.19336" lon="-1.55059">
        <ele>9.64</ele>
        <time>2020-06-06T10:46:04Z</time>
      </trkpt>
      <trkpt lat="47.19332" lon="-1.55076">
        <ele>10.69</ele>
        <time>2020-06-06T10:46:06Z</time>
      </trkpt>
      <trkpt lat="47.19327" lon="-1.55091">
        <ele>11.22</ele>
        <time>2020-06-06T10:46:08Z</time>
      </trkpt>
      <trkpt lat="47.19323" lon="-1.55109">
        <ele>10.89</ele>
        <time>2020-06-06T10:46:10Z</time>
      </trkpt>
      <trkpt lat="47.19318" lon="-1.5513">
        <ele>9.84</ele>
        <time>2020-06-06T10:46:12Z</time>
      </trkpt>
      <trkpt lat="47.19313" lon="-1.55148">
        <ele>7.65</ele>
        <time>2020-06-06T10:46:14Z</time>
      </trkpt>
      <trkpt lat="47.19308" lon="-1.55169">
        <ele>6.31</ele>
        <time>2020-06-06T10:46:16Z</time>
      </trkpt>
      <trkpt lat="47.19303" lon="-1.55188">
        <ele>5.8</ele>
        <time>2020-06-06T10:46:18Z</time>
      </trkpt>
      <trkpt lat="47.19298" lon="-1.55207">
        <ele>5.54</ele>
        <time>2020-06-06T10:46:20Z</time>
      </trkpt>
      <trkpt lat="47.19293" lon="-1.55227">
        <ele>5.46</ele>
        <time>2020-06-06T10:46:22Z</time>
      </trkpt>
      <trkpt lat="47.19287" lon="-1.55247">
        <ele>6.39</ele>
        <time>2020-06-06T10:46:24Z</time>
      </trkpt>
      <trkpt lat="47.19283" lon="-1.55265">
        <ele>6.1</ele>
        <time>2020-06-06T10:46:26Z</time>
      </trkpt>
      <trkpt lat="47.19279" lon="-1.55283">
        <ele>5.88</ele>
        <time>2020-06-06T10:46:28Z</time>
      </trkpt>
      <trkpt lat="47.19275" lon="-1.55301">
        <ele>5.16</ele>
        <time>2020-06-06T10:46:30Z</time>
      </trkpt>
      <trkpt lat="47.19271" lon="-1.55323">
        <ele>5.34</ele>
        <time>2020-06-06T10:46:32Z</time>
      </trkpt>
      <trkpt lat="47.19268" lon="-1.55337">
        <ele>5.57</ele>
        <time>2020-06-06T10:46:34Z</time>
      </trkpt>
      <trkpt lat="47.19264" lon="-1.55356">
        <ele>5.75</ele>
        <time>2020-06-06T10:46:36Z</time>
      </trkpt>
      <trkpt lat="47.1926" lon="-1.55373">
        <ele>5.74</ele>
        <time>2020-06-06T10:46:38Z</time>
      </trkpt>
      <trkpt lat="47.19256" lon="-1.55388">
        <ele>6.15</ele>
        <time>2020-06-06T10:46:40Z</time>
      </trkpt>
      <trkpt lat="47.19251" lon="-1.55402">
        <ele>6.94</ele>
        <time>2020-06-06T10:46:42Z</time>
      </trkpt>
      <trkpt lat="47.19248" lon="-1.5542">
        <ele>8.58</ele>
        <time>2020-06-06T10:46:44Z</time>
      </trkpt>
      <trkpt lat="47.19252" lon="-1.55438">
        <ele>9.19</ele>
        <time>2020-06-06T10:46:46Z</time>
      </trkpt>
      <trkpt lat="47.19248" lon="-1.55459">
        <ele>7.81</ele>
        <time>2020-06-06T10:46:48Z</time>
      </trkpt>
      <trkpt lat="47.19243" lon="-1.55481">
        <ele>7.32</ele>
        <time>2020-06-06T10:46:50Z</time>
      </trkpt>
      <trkpt lat="47.19242" lon="-1.555">
        <ele>7.93</ele>
        <time>2020-06-06T10:46:52Z</time>
      </trkpt>
      <trkpt lat="47.1924" lon="-1.55523">
        <ele>8.18</ele>
        <time>2020-06-06T10:46:54Z</time>
      </trkpt>
      <trkpt lat="47.19239" lon="-1.55543">
        <ele>7.76</ele>
        <time>2020-06-06T10:46:56Z</time>
      </trkpt>
      <trkpt lat="47.19238" lon="-1.55563">
        <ele>7.51</ele>
        <time>2020-06-06T10:46:58Z</time>
      </trkpt>
      <trkpt lat="47.19237" lon="-1.55581">
        <ele>7.51</ele>
        <time>2020-06-06T10:47:00Z</time>
      </trkpt>
      <trkpt lat="47.19236" lon="-1.55601">
        <ele>7.76</ele>
        <time>2020-06-06T10:47:02Z</time>
      </trkpt>
      <trkpt lat="47.19235" lon="-1.55622">
        <ele>7.62</ele>
        <time>2020-06-06T10:47:04Z</time>
      </trkpt>
      <trkpt lat="47.19234" lon="-1.55641">
        <ele>7.84</ele>
        <time>2020-06-06T10:47:06Z</time>
      </trkpt>
      <trkpt lat="47.19233" lon="-1.55659">
        <ele>8.82</ele>
        <time>2020-06-06T10:47:08Z</time>
      </trkpt>
      <trkpt lat="47.19232" lon="-1.55675">
        <ele>9.8</ele>
        <time>2020-06-06T10:47:10Z</time>
      </trkpt>
      <trkpt lat="47.19231" lon="-1.55695">
        <ele>10.99</ele>
        <time>2020-06-06T10:47:12Z</time>
      </trkpt>
      <trkpt lat="47.1923" lon="-1.55714">
        <ele>12.44</ele>
        <time>2020-06-06T10:47:14Z</time>
      </trkpt>
      <trkpt lat="47.1923" lon="-1.55728">
        <ele>13.55</ele>
        <time>2020-06-06T10:47:16Z</time>
      </trkpt>
      <trkpt lat="47.19229" lon="-1.55746">
        <ele>12.91</ele>
        <time>2020-06-06T10:47:18Z</time>
      </trkpt>
      <trkpt lat="47.1923" lon="-1.55763">
        <ele>10.97</ele>
        <time>2020-06-06T10:47:20Z</time>
      </trkpt>
      <trkpt lat="47.1923" lon="-1.5578">
        <ele>8.52</ele>
        <time>2020-06-06T10:47:22Z</time>
      </trkpt>
      <trkpt lat="47.1923" lon="-1.558">
        <ele>6.79</ele>
        <time>2020-06-06T10:47:24Z</time>
      </trkpt>
      <trkpt lat="47.19231" lon="-1.55819">
        <ele>7.54</ele>
        <time>2020-06-06T10:47:26Z</time>
      </trkpt>
      <trkpt lat="47.19232" lon="-1.55835">
        <ele>8.65</ele>
        <time>2020-06-06T10:47:28Z</time>
      </trkpt>
      <trkpt lat="47.19233" lon="-1.55854">
        <ele>8.77</ele>
        <time>2020-06-06T10:47:30Z</time>
      </trkpt>
      <trkpt lat="47.19234" lon="-1.55869">
        <ele>8.99</ele>
        <time>2020-06-06T10:47:32Z</time>
      </trkpt>
      <trkpt lat="47.19235" lon="-1.55888">
        <ele>8.67</ele>
        <time>2020-06-06T10:47:34Z</time>
      </trkpt>
      <trkpt lat="47.19236" lon="-1.55909">
        <ele>8.16</ele>
        <time>2020-06-06T10:47:36Z</time>
      </trkpt>
      <trkpt lat="47.19237" lon="-1.55926">
        <ele>7.01</ele>
        <time>2020-06-06T10:47:38Z</time>
      </trkpt>
      <trkpt lat="47.19238" lon="-1.55944">
        <ele>7.11</ele>
        <time>2020-06-06T10:47:40Z</time>
      </trkpt>
      <trkpt lat="47.1924" lon="-1.55964">
        <ele>7.11</ele>
        <time>2020-06-06T10:47:42Z</time>
      </trkpt>
      <trkpt lat="47.19242" lon="-1.55982">
        <ele>7.94</ele>
        <time>2020-06-06T10:47:44Z</time>
      </trkpt>
      <trkpt lat="47.19243" lon="-1.55999">
        <ele>7.87</ele>
        <time>2020-06-06T10:47:46Z</time>
      </trkpt>
      <trkpt lat="47.19246" lon="-1.56016">
        <ele>7.85</ele>
        <time>2020-06-06T10:47:48Z</time>
      </trkpt>
      <trkpt lat="47.19248" lon="-1.56033">
        <ele>8.07</ele>
        <time>2020-06-06T10:47:50Z</time>
      </trkpt>
      <trkpt lat="47.1925" lon="-1.5605">
        <ele>8.2</ele>
        <time>2020-06-06T10:47:52Z</time>
      </trkpt>
      <trkpt lat="47.19252" lon="-1.5607">
        <ele>7.8</ele>
        <time>2020-06-06T10:47:54Z</time>
      </trkpt>
      <trkpt lat="47.19254" lon="-1.56089">
        <ele>7.74</ele>
        <time>2020-06-06T10:47:56Z</time>
      </trkpt>
      <trkpt lat="47.19255" lon="-1.56106">
        <ele>6.86</ele>
        <time>2020-06-06T10:47:58Z</time>
      </trkpt>
      <trkpt lat="47.19256" lon="-1.56126">
        <ele>5.56</ele>
        <time>2020-06-06T10:48:00Z</time>
      </trkpt>
      <trkpt lat="47.19257" lon="-1.56143">
        <ele>6.47</ele>
        <time>2020-06-06T10:48:02Z</time>
      </trkpt>
      <trkpt lat="47.19257" lon="-1.56163">
        <ele>6.46</ele>
        <time>2020-06-06T10:48:04Z</time>
      </trkpt>
      <trkpt lat="47.19257" lon="-1.5618">
        <ele>6.96</ele>
        <time>2020-06-06T10:48:06Z</time>
      </trkpt>
      <trkpt lat="47.19259" lon="-1.56199">
        <ele>7.37</ele>
        <time>2020-06-06T10:48:08Z</time>
      </trkpt>
      <trkpt lat="47.1926" lon="-1.56215">
        <ele>7.18</ele>
        <time>2020-06-06T10:48:10Z</time>
      </trkpt>
      <trkpt lat="47.19263" lon="-1.56232">
        <ele>7.26</ele>
        <time>2020-06-06T10:48:12Z</time>
      </trkpt>
      <trkpt lat="47.19265" lon="-1.56247">
        <ele>7.73</ele>
        <time>2020-06-06T10:48:14Z</time>
      </trkpt>
      <trkpt lat="47.19271" lon="-1.56263">
        <ele>8.95</ele>
        <time>2020-06-06T10:48:16Z</time>
      </trkpt>
      <trkpt lat="47.1928" lon="-1.56276">
        <ele>7.4</ele>
        <time>2020-06-06T10:48:18Z</time>
      </trkpt>
      <trkpt lat="47.19284" lon="-1.56292">
        <ele>5.64</ele>
        <time>2020-06-06T10:48:20Z</time>
      </trkpt>
      <trkpt lat="47.19282" lon="-1.56311">
        <ele>5.16</ele>
        <time>2020-06-06T10:48:22Z</time>
      </trkpt>
      <trkpt lat="47.19278" lon="-1.56327">
        <ele>5.03</ele>
        <time>2020-06-06T10:48:24Z</time>
      </trkpt>
      <trkpt lat="47.19274" lon="-1.56344">
        <ele>5.27</ele>
        <time>2020-06-06T10:48:26Z</time>
      </trkpt>
      <trkpt lat="47.19278" lon="-1.56363">
        <ele>7.03</ele>
        <time>2020-06-06T10:48:28Z</time>
      </trkpt>
      <trkpt lat="47.1928" lon="-1.56382">
        <ele>7.54</ele>
        <time>2020-06-06T10:48:30Z</time>
      </trkpt>
      <trkpt lat="47.19282" lon="-1.56401">
        <ele>6.88</ele>
        <time>2020-06-06T10:48:32Z</time>
      </trkpt>
      <trkpt lat="47.19284" lon="-1.5642">
        <ele>5.88</ele>
        <time>2020-06-06T10:48:34Z</time>
      </trkpt>
      <trkpt lat="47.19286" lon="-1.56437">
        <ele>5.17</ele>
        <time>2020-06-06T10:48:36Z</time>
      </trkpt>
      <trkpt lat="47.19287" lon="-1.56454">
        <ele>5.81</ele>
        <time>2020-06-06T10:48:38Z</time>
      </trkpt>
      <trkpt lat="47.19289" lon="-1.56474">
        <ele>6.02</ele>
        <time>2020-06-06T10:48:40Z</time>
      </trkpt>
      <trkpt lat="47.1929" lon="-1.56493">
        <ele>6.66</ele>
        <time>2020-06-06T10:48:42Z</time>
      </trkpt>
      <trkpt lat="47.19292" lon="-1.5651">
        <ele>7.49</ele>
        <time>2020-06-06T10:48:44Z</time>
      </trkpt>
      <trkpt lat="47.19293" lon="-1.56526">
        <ele>7.88</ele>
        <time>2020-06-06T10:48:46Z</time>
      </trkpt>
      <trkpt lat="47.19295" lon="-1.56548">
        <ele>8.29</ele>
        <time>2020-06-06T10:48:48Z</time>
      </trkpt>
      <trkpt lat="47.19296" lon="-1.56567">
        <ele>8.21</ele>
        <time>2020-06-06T10:48:50Z</time>
      </trkpt>
      <trkpt lat="47.19297" lon="-1.56585">
        <ele>8.57</ele>
        <time>2020-06-06T10:48:52Z</time>
      </trkpt>
      <trkpt lat="47.19299" lon="-1.56602">
        <ele>8.02</ele>
        <time>2020-06-06T10:48:54Z</time>
      </trkpt>
      <trkpt lat="47.19301" lon="-1.56621">
        <ele>7.84</ele>
        <time>2020-06-06T10:48:56Z</time>
      </trkpt>
      <trkpt lat="47.19302" lon="-1.56641">
        <ele>8.08</ele>
        <time>2020-06-06T10:48:58Z</time>
      </trkpt>
      <trkpt lat="47.19304" lon="-1.56658">
        <ele>8.39</ele>
        <time>2020-06-06T10:49:00Z</time>
      </trkpt>
      <trkpt lat="47.19306" lon="-1.56676">
        <ele>8.14</ele>
        <time>2020-06-06T10:49:02Z</time>
      </trkpt>
      <trkpt lat="47.19308" lon="-1.56693">
        <ele>7.88</ele>
        <time>2020-06-06T10:49:04Z</time>
      </trkpt>
      <trkpt lat="47.19309" lon="-1.56713">
        <ele>7.92</ele>
        <time>2020-06-06T10:49:06Z</time>
      </trkpt>
      <trkpt lat="47.19311" lon="-1.56728">
        <ele>8.46</ele>
        <time>2020-06-06T10:49:08Z</time>
      </trkpt>
      <trkpt lat="47.19312" lon="-1.56745">
        <ele>9.92</ele>
        <time>2020-06-06T10:49:10Z</time>
      </trkpt>
      <trkpt lat="47.19313" lon="-1.56762">
        <ele>10.56</ele>
        <time>2020-06-06T10:49:12Z</time>
      </trkpt>
      <trkpt lat="47.19314" lon="-1.56777">
        <ele>9.96</ele>
        <time>2020-06-06T10:49:14Z</time>
      </trkpt>
      <trkpt lat="47.19316" lon="-1.56796">
        <ele>8.53</ele>
        <time>2020-06-06T10:49:16Z</time>
      </trkpt>
      <trkpt lat="47.19319" lon="-1.56815">
        <ele>7.88</ele>
        <time>2020-06-06T10:49:19Z</time>
      </trkpt>
      <trkpt lat="47.1932" lon="-1.56835">
        <ele>7.3</ele>
        <time>2020-06-06T10:49:21Z</time>
      </trkpt>
      <trkpt lat="47.19321" lon="-1.5685">
        <ele>6.39</ele>
        <time>2020-06-06T10:49:23Z</time>
      </trkpt>
      <trkpt lat="47.19322" lon="-1.56866">
        <ele>6.12</ele>
        <time>2020-06-06T10:49:25Z</time>
      </trkpt>
      <trkpt lat="47.19323" lon="-1.56884">
        <ele>5.29</ele>
        <time>2020-06-06T10:49:27Z</time>
      </trkpt>
      <trkpt lat="47.19324" lon="-1.56902">
        <ele>5.83</ele>
        <time>2020-06-06T10:49:29Z</time>
      </trkpt>
      <trkpt lat="47.19325" lon="-1.56918">
        <ele>6.56</ele>
        <time>2020-06-06T10:49:31Z</time>
      </trkpt>
      <trkpt lat="47.19325" lon="-1.56935">
        <ele>7.28</ele>
        <time>2020-06-06T10:49:33Z</time>
      </trkpt>
      <trkpt lat="47.19325" lon="-1.56949">
        <ele>7</ele>
        <time>2020-06-06T10:49:35Z</time>
      </trkpt>
      <trkpt lat="47.19324" lon="-1.56963">
        <ele>6.61</ele>
        <time>2020-06-06T10:49:37Z</time>
      </trkpt>
      <trkpt lat="47.19322" lon="-1.56981">
        <ele>6.48</ele>
        <time>2020-06-06T10:49:39Z</time>
      </trkpt>
      <trkpt lat="47.19321" lon="-1.56998">
        <ele>6.3</ele>
        <time>2020-06-06T10:49:41Z</time>
      </trkpt>
      <trkpt lat="47.19319" lon="-1.57019">
        <ele>7.74</ele>
        <time>2020-06-06T10:49:43Z</time>
      </trkpt>
      <trkpt lat="47.19317" lon="-1.57035">
        <ele>8.34</ele>
        <time>2020-06-06T10:49:45Z</time>
      </trkpt>
      <trkpt lat="47.1932" lon="-1.57048">
        <ele>8.57</ele>
        <time>2020-06-06T10:49:47Z</time>
      </trkpt>
      <trkpt lat="47.19329" lon="-1.57057">
        <ele>7.17</ele>
        <time>2020-06-06T10:49:49Z</time>
      </trkpt>
      <trkpt lat="47.19332" lon="-1.57069">
        <ele>5.66</ele>
        <time>2020-06-06T10:49:51Z</time>
      </trkpt>
      <trkpt lat="47.19328" lon="-1.57084">
        <ele>4.38</ele>
        <time>2020-06-06T10:49:53Z</time>
      </trkpt>
      <trkpt lat="47.19319" lon="-1.5709">
        <ele>4.34</ele>
        <time>2020-06-06T10:49:55Z</time>
      </trkpt>
      <trkpt lat="47.19309" lon="-1.57098">
        <ele>4.38</ele>
        <time>2020-06-06T10:49:59Z</time>
      </trkpt>
      <trkpt lat="47.19307" lon="-1.57116">
        <ele>5.86</ele>
        <time>2020-06-06T10:50:02Z</time>
      </trkpt>
      <trkpt lat="47.19305" lon="-1.57132">
        <ele>7.45</ele>
        <time>2020-06-06T10:50:04Z</time>
      </trkpt>
      <trkpt lat="47.19302" lon="-1.57148">
        <ele>8.81</ele>
        <time>2020-06-06T10:50:06Z</time>
      </trkpt>
      <trkpt lat="47.19299" lon="-1.57167">
        <ele>9.63</ele>
        <time>2020-06-06T10:50:08Z</time>
      </trkpt>
      <trkpt lat="47.19297" lon="-1.57187">
        <ele>9.15</ele>
        <time>2020-06-06T10:50:10Z</time>
      </trkpt>
      <trkpt lat="47.19294" lon="-1.57206">
        <ele>8.3</ele>
        <time>2020-06-06T10:50:12Z</time>
      </trkpt>
      <trkpt lat="47.19291" lon="-1.57223">
        <ele>6.98</ele>
        <time>2020-06-06T10:50:14Z</time>
      </trkpt>
      <trkpt lat="47.19287" lon="-1.5724">
        <ele>5.8</ele>
        <time>2020-06-06T10:50:16Z</time>
      </trkpt>
      <trkpt lat="47.19283" lon="-1.57258">
        <ele>6.62</ele>
        <time>2020-06-06T10:50:18Z</time>
      </trkpt>
      <trkpt lat="47.19278" lon="-1.57273">
        <ele>7.35</ele>
        <time>2020-06-06T10:50:20Z</time>
      </trkpt>
      <trkpt lat="47.19274" lon="-1.57287">
        <ele>7.34</ele>
        <time>2020-06-06T10:50:22Z</time>
      </trkpt>
      <trkpt lat="47.1927" lon="-1.57304">
        <ele>6.9</ele>
        <time>2020-06-06T10:50:24Z</time>
      </trkpt>
      <trkpt lat="47.19263" lon="-1.57323">
        <ele>6.54</ele>
        <time>2020-06-06T10:50:26Z</time>
      </trkpt>
      <trkpt lat="47.19259" lon="-1.57338">
        <ele>6.2</ele>
        <time>2020-06-06T10:50:28Z</time>
      </trkpt>
      <trkpt lat="47.19255" lon="-1.57352">
        <ele>7.04</ele>
        <time>2020-06-06T10:50:30Z</time>
      </trkpt>
      <trkpt lat="47.19249" lon="-1.57368">
        <ele>6.33</ele>
        <time>2020-06-06T10:50:32Z</time>
      </trkpt>
      <trkpt lat="47.19244" lon="-1.57385">
        <ele>6.22</ele>
        <time>2020-06-06T10:50:34Z</time>
      </trkpt>
      <trkpt lat="47.19238" lon="-1.57401">
        <ele>5.6</ele>
        <time>2020-06-06T10:50:36Z</time>
      </trkpt>
      <trkpt lat="47.19232" lon="-1.57418">
        <ele>5.08</ele>
        <time>2020-06-06T10:50:38Z</time>
      </trkpt>
      <trkpt lat="47.19226" lon="-1.57436">
        <ele>3.39</ele>
        <time>2020-06-06T10:50:40Z</time>
      </trkpt>
      <trkpt lat="47.19221" lon="-1.5745">
        <ele>1.84</ele>
        <time>2020-06-06T10:50:42Z</time>
      </trkpt>
      <trkpt lat="47.19215" lon="-1.57466">
        <ele>1.1</ele>
        <time>2020-06-06T10:50:44Z</time>
      </trkpt>
      <trkpt lat="47.19209" lon="-1.57482">
        <ele>1.74</ele>
        <time>2020-06-06T10:50:46Z</time>
      </trkpt>
      <trkpt lat="47.19204" lon="-1.57498">
        <ele>2.15</ele>
        <time>2020-06-06T10:50:48Z</time>
      </trkpt>
      <trkpt lat="47.19199" lon="-1.57514">
        <ele>2.32</ele>
        <time>2020-06-06T10:50:50Z</time>
      </trkpt>
      <trkpt lat="47.19194" lon="-1.57529">
        <ele>3.58</ele>
        <time>2020-06-06T10:50:52Z</time>
      </trkpt>
      <trkpt lat="47.19188" lon="-1.57545">
        <ele>4.81</ele>
        <time>2020-06-06T10:50:54Z</time>
      </trkpt>
      <trkpt lat="47.19182" lon="-1.57561">
        <ele>5.08</ele>
        <time>2020-06-06T10:50:56Z</time>
      </trkpt>
      <trkpt lat="47.19177" lon="-1.57578">
        <ele>5.91</ele>
        <time>2020-06-06T10:50:58Z</time>
      </trkpt>
      <trkpt lat="47.19172" lon="-1.57593">
        <ele>5.69</ele>
        <time>2020-06-06T10:51:00Z</time>
      </trkpt>
      <trkpt lat="47.19166" lon="-1.57605">
        <ele>4.7</ele>
        <time>2020-06-06T10:51:02Z</time>
      </trkpt>
      <trkpt lat="47.1916" lon="-1.5762">
        <ele>2.87</ele>
        <time>2020-06-06T10:51:04Z</time>
      </trkpt>
      <trkpt lat="47.19155" lon="-1.57637">
        <ele>4.05</ele>
        <time>2020-06-06T10:51:06Z</time>
      </trkpt>
      <trkpt lat="47.19149" lon="-1.5765">
        <ele>5.7</ele>
        <time>2020-06-06T10:51:08Z</time>
      </trkpt>
      <trkpt lat="47.19145" lon="-1.57664">
        <ele>5.71</ele>
        <time>2020-06-06T10:51:10Z</time>
      </trkpt>
      <trkpt lat="47.19139" lon="-1.57681">
        <ele>5.92</ele>
        <time>2020-06-06T10:51:12Z</time>
      </trkpt>
      <trkpt lat="47.19133" lon="-1.57697">
        <ele>7.39</ele>
        <time>2020-06-06T10:51:14Z</time>
      </trkpt>
      <trkpt lat="47.19127" lon="-1.57714">
        <ele>8.04</ele>
        <time>2020-06-06T10:51:16Z</time>
      </trkpt>
      <trkpt lat="47.19122" lon="-1.57727">
        <ele>7.23</ele>
        <time>2020-06-06T10:51:18Z</time>
      </trkpt>
      <trkpt lat="47.19116" lon="-1.57744">
        <ele>6.15</ele>
        <time>2020-06-06T10:51:20Z</time>
      </trkpt>
      <trkpt lat="47.1911" lon="-1.57758">
        <ele>4.46</ele>
        <time>2020-06-06T10:51:22Z</time>
      </trkpt>
      <trkpt lat="47.19106" lon="-1.57772">
        <ele>3.93</ele>
        <time>2020-06-06T10:51:24Z</time>
      </trkpt>
      <trkpt lat="47.191" lon="-1.57788">
        <ele>5.72</ele>
        <time>2020-06-06T10:51:26Z</time>
      </trkpt>
      <trkpt lat="47.19094" lon="-1.57804">
        <ele>6.98</ele>
        <time>2020-06-06T10:51:28Z</time>
      </trkpt>
      <trkpt lat="47.19087" lon="-1.57822">
        <ele>7.04</ele>
        <time>2020-06-06T10:51:30Z</time>
      </trkpt>
      <trkpt lat="47.1908" lon="-1.5784">
        <ele>6.65</ele>
        <time>2020-06-06T10:51:32Z</time>
      </trkpt>
      <trkpt lat="47.19075" lon="-1.57855">
        <ele>6.9</ele>
        <time>2020-06-06T10:51:34Z</time>
      </trkpt>
      <trkpt lat="47.19069" lon="-1.5787">
        <ele>7.45</ele>
        <time>2020-06-06T10:51:36Z</time>
      </trkpt>
      <trkpt lat="47.19065" lon="-1.57884">
        <ele>7.22</ele>
        <time>2020-06-06T10:51:38Z</time>
      </trkpt>
      <trkpt lat="47.19059" lon="-1.57901">
        <ele>6.62</ele>
        <time>2020-06-06T10:51:40Z</time>
      </trkpt>
      <trkpt lat="47.19053" lon="-1.57918">
        <ele>6.96</ele>
        <time>2020-06-06T10:51:42Z</time>
      </trkpt>
      <trkpt lat="47.19047" lon="-1.57932">
        <ele>8.45</ele>
        <time>2020-06-06T10:51:44Z</time>
      </trkpt>
      <trkpt lat="47.19042" lon="-1.57948">
        <ele>8.83</ele>
        <time>2020-06-06T10:51:46Z</time>
      </trkpt>
      <trkpt lat="47.19036" lon="-1.57963">
        <ele>8.18</ele>
        <time>2020-06-06T10:51:48Z</time>
      </trkpt>
      <trkpt lat="47.1903" lon="-1.57981">
        <ele>7.73</ele>
        <time>2020-06-06T10:51:50Z</time>
      </trkpt>
      <trkpt lat="47.19025" lon="-1.57996">
        <ele>6.84</ele>
        <time>2020-06-06T10:51:52Z</time>
      </trkpt>
      <trkpt lat="47.19019" lon="-1.58012">
        <ele>6.88</ele>
        <time>2020-06-06T10:51:54Z</time>
      </trkpt>
      <trkpt lat="47.19014" lon="-1.58028">
        <ele>6.82</ele>
        <time>2020-06-06T10:51:56Z</time>
      </trkpt>
      <trkpt lat="47.19007" lon="-1.58046">
        <ele>6.25</ele>
        <time>2020-06-06T10:51:58Z</time>
      </trkpt>
      <trkpt lat="47.19001" lon="-1.58063">
        <ele>5.55</ele>
        <time>2020-06-06T10:52:00Z</time>
      </trkpt>
      <trkpt lat="47.18996" lon="-1.58078">
        <ele>4.78</ele>
        <time>2020-06-06T10:52:02Z</time>
      </trkpt>
      <trkpt lat="47.18991" lon="-1.58094">
        <ele>4.57</ele>
        <time>2020-06-06T10:52:04Z</time>
      </trkpt>
      <trkpt lat="47.18985" lon="-1.58112">
        <ele>4.03</ele>
        <time>2020-06-06T10:52:06Z</time>
      </trkpt>
      <trkpt lat="47.18978" lon="-1.58131">
        <ele>3.46</ele>
        <time>2020-06-06T10:52:08Z</time>
      </trkpt>
      <trkpt lat="47.18972" lon="-1.58147">
        <ele>4.31</ele>
        <time>2020-06-06T10:52:10Z</time>
      </trkpt>
      <trkpt lat="47.18967" lon="-1.58162">
        <ele>5.57</ele>
        <time>2020-06-06T10:52:12Z</time>
      </trkpt>
      <trkpt lat="47.1896" lon="-1.58178">
        <ele>6.51</ele>
        <time>2020-06-06T10:52:14Z</time>
      </trkpt>
      <trkpt lat="47.18953" lon="-1.58196">
        <ele>6.8</ele>
        <time>2020-06-06T10:52:16Z</time>
      </trkpt>
      <trkpt lat="47.18948" lon="-1.58212">
        <ele>6.22</ele>
        <time>2020-06-06T10:52:18Z</time>
      </trkpt>
      <trkpt lat="47.18942" lon="-1.58227">
        <ele>5.72</ele>
        <time>2020-06-06T10:52:20Z</time>
      </trkpt>
      <trkpt lat="47.18938" lon="-1.58241">
        <ele>5.13</ele>
        <time>2020-06-06T10:52:22Z</time>
      </trkpt>
      <trkpt lat="47.18932" lon="-1.58257">
        <ele>5.31</ele>
        <time>2020-06-06T10:52:24Z</time>
      </trkpt>
      <trkpt lat="47.18926" lon="-1.58273">
        <ele>3.55</ele>
        <time>2020-06-06T10:52:26Z</time>
      </trkpt>
      <trkpt lat="47.1892" lon="-1.58291">
        <ele>3.4</ele>
        <time>2020-06-06T10:52:28Z</time>
      </trkpt>
      <trkpt lat="47.18914" lon="-1.58308">
        <ele>4.9</ele>
        <time>2020-06-06T10:52:30Z</time>
      </trkpt>
      <trkpt lat="47.18909" lon="-1.58322">
        <ele>5.95</ele>
        <time>2020-06-06T10:52:32Z</time>
      </trkpt>
      <trkpt lat="47.18904" lon="-1.58336">
        <ele>7.61</ele>
        <time>2020-06-06T10:52:34Z</time>
      </trkpt>
      <trkpt lat="47.18898" lon="-1.58353">
        <ele>8.77</ele>
        <time>2020-06-06T10:52:36Z</time>
      </trkpt>
      <trkpt lat="47.18893" lon="-1.58369">
        <ele>9.29</ele>
        <time>2020-06-06T10:52:38Z</time>
      </trkpt>
      <trkpt lat="47.18888" lon="-1.58386">
        <ele>8.14</ele>
        <time>2020-06-06T10:52:40Z</time>
      </trkpt>
      <trkpt lat="47.18882" lon="-1.58403">
        <ele>7.23</ele>
        <time>2020-06-06T10:52:42Z</time>
      </trkpt>
      <trkpt lat="47.18877" lon="-1.5842">
        <ele>7.1</ele>
        <time>2020-06-06T10:52:44Z</time>
      </trkpt>
      <trkpt lat="47.18871" lon="-1.58437">
        <ele>6.8</ele>
        <time>2020-06-06T10:52:46Z</time>
      </trkpt>
      <trkpt lat="47.18866" lon="-1.58454">
        <ele>7.58</ele>
        <time>2020-06-06T10:52:48Z</time>
      </trkpt>
      <trkpt lat="47.18861" lon="-1.58471">
        <ele>7.64</ele>
        <time>2020-06-06T10:52:50Z</time>
      </trkpt>
      <trkpt lat="47.18856" lon="-1.58487">
        <ele>7.78</ele>
        <time>2020-06-06T10:52:52Z</time>
      </trkpt>
      <trkpt lat="47.18851" lon="-1.58504">
        <ele>6.69</ele>
        <time>2020-06-06T10:52:54Z</time>
      </trkpt>
      <trkpt lat="47.18846" lon="-1.58521">
        <ele>3.97</ele>
        <time>2020-06-06T10:52:56Z</time>
      </trkpt>
      <trkpt lat="47.18841" lon="-1.58539">
        <ele>2.15</ele>
        <time>2020-06-06T10:52:58Z</time>
      </trkpt>
      <trkpt lat="47.18837" lon="-1.58556">
        <ele>2.09</ele>
        <time>2020-06-06T10:53:00Z</time>
      </trkpt>
      <trkpt lat="47.18833" lon="-1.58573">
        <ele>2.59</ele>
        <time>2020-06-06T10:53:02Z</time>
      </trkpt>
      <trkpt lat="47.18829" lon="-1.58588">
        <ele>2.59</ele>
        <time>2020-06-06T10:53:04Z</time>
      </trkpt>
      <trkpt lat="47.18825" lon="-1.58603">
        <ele>2.16</ele>
        <time>2020-06-06T10:53:06Z</time>
      </trkpt>
      <trkpt lat="47.18822" lon="-1.58617">
        <ele>3.01</ele>
        <time>2020-06-06T10:53:08Z</time>
      </trkpt>
      <trkpt lat="47.18819" lon="-1.58634">
        <ele>4.19</ele>
        <time>2020-06-06T10:53:10Z</time>
      </trkpt>
      <trkpt lat="47.18815" lon="-1.5865">
        <ele>4.91</ele>
        <time>2020-06-06T10:53:12Z</time>
      </trkpt>
      <trkpt lat="47.18813" lon="-1.58667">
        <ele>6.86</ele>
        <time>2020-06-06T10:53:14Z</time>
      </trkpt>
      <trkpt lat="47.18809" lon="-1.58683">
        <ele>8.63</ele>
        <time>2020-06-06T10:53:16Z</time>
      </trkpt>
      <trkpt lat="47.18807" lon="-1.58699">
        <ele>9.27</ele>
        <time>2020-06-06T10:53:18Z</time>
      </trkpt>
      <trkpt lat="47.18806" lon="-1.58714">
        <ele>9.55</ele>
        <time>2020-06-06T10:53:20Z</time>
      </trkpt>
      <trkpt lat="47.18817" lon="-1.58731">
        <ele>8.6</ele>
        <time>2020-06-06T10:53:23Z</time>
      </trkpt>
      <trkpt lat="47.18822" lon="-1.58749">
        <ele>8.36</ele>
        <time>2020-06-06T10:53:25Z</time>
      </trkpt>
      <trkpt lat="47.18822" lon="-1.58766">
        <ele>8.24</ele>
        <time>2020-06-06T10:53:27Z</time>
      </trkpt>
      <trkpt lat="47.18819" lon="-1.58786">
        <ele>8.27</ele>
        <time>2020-06-06T10:53:29Z</time>
      </trkpt>
      <trkpt lat="47.18809" lon="-1.588">
        <ele>8.27</ele>
        <time>2020-06-06T10:53:31Z</time>
      </trkpt>
      <trkpt lat="47.18798" lon="-1.5881">
        <ele>7.41</ele>
        <time>2020-06-06T10:53:33Z</time>
      </trkpt>
      <trkpt lat="47.18788" lon="-1.58819">
        <ele>7.12</ele>
        <time>2020-06-06T10:53:35Z</time>
      </trkpt>
      <trkpt lat="47.18783" lon="-1.58837">
        <ele>7.43</ele>
        <time>2020-06-06T10:53:37Z</time>
      </trkpt>
      <trkpt lat="47.18779" lon="-1.58858">
        <ele>8.31</ele>
        <time>2020-06-06T10:53:39Z</time>
      </trkpt>
      <trkpt lat="47.18775" lon="-1.58877">
        <ele>8.68</ele>
        <time>2020-06-06T10:53:41Z</time>
      </trkpt>
      <trkpt lat="47.18772" lon="-1.58896">
        <ele>8.29</ele>
        <time>2020-06-06T10:53:43Z</time>
      </trkpt>
      <trkpt lat="47.18769" lon="-1.58915">
        <ele>8.07</ele>
        <time>2020-06-06T10:53:45Z</time>
      </trkpt>
      <trkpt lat="47.18766" lon="-1.58935">
        <ele>7.08</ele>
        <time>2020-06-06T10:53:47Z</time>
      </trkpt>
      <trkpt lat="47.18763" lon="-1.58956">
        <ele>6.78</ele>
        <time>2020-06-06T10:53:49Z</time>
      </trkpt>
      <trkpt lat="47.18761" lon="-1.58975">
        <ele>6.8</ele>
        <time>2020-06-06T10:53:51Z</time>
      </trkpt>
      <trkpt lat="47.18759" lon="-1.58994">
        <ele>6.35</ele>
        <time>2020-06-06T10:53:53Z</time>
      </trkpt>
      <trkpt lat="47.18757" lon="-1.59011">
        <ele>7.58</ele>
        <time>2020-06-06T10:53:55Z</time>
      </trkpt>
      <trkpt lat="47.18756" lon="-1.59028">
        <ele>8.69</ele>
        <time>2020-06-06T10:53:57Z</time>
      </trkpt>
      <trkpt lat="47.18754" lon="-1.59045">
        <ele>9.5</ele>
        <time>2020-06-06T10:53:59Z</time>
      </trkpt>
      <trkpt lat="47.18753" lon="-1.59062">
        <ele>9.52</ele>
        <time>2020-06-06T10:54:01Z</time>
      </trkpt>
      <trkpt lat="47.18751" lon="-1.59082">
        <ele>9.18</ele>
        <time>2020-06-06T10:54:03Z</time>
      </trkpt>
      <trkpt lat="47.18749" lon="-1.59099">
        <ele>8.86</ele>
        <time>2020-06-06T10:54:05Z</time>
      </trkpt>
      <trkpt lat="47.18747" lon="-1.59116">
        <ele>8.54</ele>
        <time>2020-06-06T10:54:07Z</time>
      </trkpt>
      <trkpt lat="47.18745" lon="-1.59133">
        <ele>8.15</ele>
        <time>2020-06-06T10:54:09Z</time>
      </trkpt>
      <trkpt lat="47.18744" lon="-1.59151">
        <ele>7.62</ele>
        <time>2020-06-06T10:54:12Z</time>
      </trkpt>
      <trkpt lat="47.18742" lon="-1.59168">
        <ele>7.73</ele>
        <time>2020-06-06T10:54:13Z</time>
      </trkpt>
      <trkpt lat="47.1874" lon="-1.59184">
        <ele>7.59</ele>
        <time>2020-06-06T10:54:16Z</time>
      </trkpt>
      <trkpt lat="47.18738" lon="-1.59199">
        <ele>6.99</ele>
        <time>2020-06-06T10:54:18Z</time>
      </trkpt>
      <trkpt lat="47.18736" lon="-1.59217">
        <ele>6.71</ele>
        <time>2020-06-06T10:54:20Z</time>
      </trkpt>
      <trkpt lat="47.18735" lon="-1.59234">
        <ele>6.64</ele>
        <time>2020-06-06T10:54:22Z</time>
      </trkpt>
      <trkpt lat="47.18733" lon="-1.59249">
        <ele>5.82</ele>
        <time>2020-06-06T10:54:24Z</time>
      </trkpt>
      <trkpt lat="47.18732" lon="-1.59265">
        <ele>5.6</ele>
        <time>2020-06-06T10:54:26Z</time>
      </trkpt>
      <trkpt lat="47.1873" lon="-1.59282">
        <ele>6.53</ele>
        <time>2020-06-06T10:54:28Z</time>
      </trkpt>
      <trkpt lat="47.18728" lon="-1.593">
        <ele>7.4</ele>
        <time>2020-06-06T10:54:30Z</time>
      </trkpt>
      <trkpt lat="47.18725" lon="-1.59315">
        <ele>7.49</ele>
        <time>2020-06-06T10:54:32Z</time>
      </trkpt>
      <trkpt lat="47.18724" lon="-1.5933">
        <ele>7.06</ele>
        <time>2020-06-06T10:54:34Z</time>
      </trkpt>
      <trkpt lat="47.18722" lon="-1.59347">
        <ele>7.41</ele>
        <time>2020-06-06T10:54:36Z</time>
      </trkpt>
      <trkpt lat="47.1872" lon="-1.59368">
        <ele>8.58</ele>
        <time>2020-06-06T10:54:38Z</time>
      </trkpt>
      <trkpt lat="47.18719" lon="-1.59381">
        <ele>7.69</ele>
        <time>2020-06-06T10:54:40Z</time>
      </trkpt>
      <trkpt lat="47.18716" lon="-1.59401">
        <ele>5.67</ele>
        <time>2020-06-06T10:54:42Z</time>
      </trkpt>
      <trkpt lat="47.18715" lon="-1.59416">
        <ele>5.21</ele>
        <time>2020-06-06T10:54:44Z</time>
      </trkpt>
      <trkpt lat="47.18713" lon="-1.59433">
        <ele>5.51</ele>
        <time>2020-06-06T10:54:46Z</time>
      </trkpt>
      <trkpt lat="47.18712" lon="-1.59448">
        <ele>5.27</ele>
        <time>2020-06-06T10:54:48Z</time>
      </trkpt>
      <trkpt lat="47.1871" lon="-1.59465">
        <ele>6.6</ele>
        <time>2020-06-06T10:54:50Z</time>
      </trkpt>
      <trkpt lat="47.18708" lon="-1.59483">
        <ele>8.01</ele>
        <time>2020-06-06T10:54:52Z</time>
      </trkpt>
      <trkpt lat="47.18706" lon="-1.59498">
        <ele>8.42</ele>
        <time>2020-06-06T10:54:54Z</time>
      </trkpt>
      <trkpt lat="47.18704" lon="-1.59514">
        <ele>7.96</ele>
        <time>2020-06-06T10:54:56Z</time>
      </trkpt>
      <trkpt lat="47.18701" lon="-1.59533">
        <ele>7.94</ele>
        <time>2020-06-06T10:54:58Z</time>
      </trkpt>
      <trkpt lat="47.18699" lon="-1.5955">
        <ele>7.71</ele>
        <time>2020-06-06T10:55:00Z</time>
      </trkpt>
      <trkpt lat="47.18698" lon="-1.59567">
        <ele>7.44</ele>
        <time>2020-06-06T10:55:02Z</time>
      </trkpt>
      <trkpt lat="47.18696" lon="-1.59584">
        <ele>7.24</ele>
        <time>2020-06-06T10:55:04Z</time>
      </trkpt>
      <trkpt lat="47.18694" lon="-1.596">
        <ele>6.71</ele>
        <time>2020-06-06T10:55:06Z</time>
      </trkpt>
      <trkpt lat="47.18692" lon="-1.59619">
        <ele>7.18</ele>
        <time>2020-06-06T10:55:08Z</time>
      </trkpt>
      <trkpt lat="47.1869" lon="-1.59636">
        <ele>6.52</ele>
        <time>2020-06-06T10:55:10Z</time>
      </trkpt>
      <trkpt lat="47.18688" lon="-1.59651">
        <ele>6.79</ele>
        <time>2020-06-06T10:55:12Z</time>
      </trkpt>
      <trkpt lat="47.18685" lon="-1.59668">
        <ele>7.9</ele>
        <time>2020-06-06T10:55:14Z</time>
      </trkpt>
      <trkpt lat="47.18682" lon="-1.59687">
        <ele>7.83</ele>
        <time>2020-06-06T10:55:16Z</time>
      </trkpt>
      <trkpt lat="47.18679" lon="-1.59703">
        <ele>8.88</ele>
        <time>2020-06-06T10:55:18Z</time>
      </trkpt>
      <trkpt lat="47.18677" lon="-1.59721">
        <ele>9.18</ele>
        <time>2020-06-06T10:55:20Z</time>
      </trkpt>
      <trkpt lat="47.18676" lon="-1.59737">
        <ele>7.95</ele>
        <time>2020-06-06T10:55:22Z</time>
      </trkpt>
      <trkpt lat="47.18676" lon="-1.59761">
        <ele>7.65</ele>
        <time>2020-06-06T10:55:24Z</time>
      </trkpt>
      <trkpt lat="47.18675" lon="-1.59782">
        <ele>7.1</ele>
        <time>2020-06-06T10:55:26Z</time>
      </trkpt>
      <trkpt lat="47.18679" lon="-1.59799">
        <ele>7.01</ele>
        <time>2020-06-06T10:55:28Z</time>
      </trkpt>
      <trkpt lat="47.18678" lon="-1.59818">
        <ele>6.51</ele>
        <time>2020-06-06T10:55:30Z</time>
      </trkpt>
      <trkpt lat="47.18674" lon="-1.59835">
        <ele>6.76</ele>
        <time>2020-06-06T10:55:32Z</time>
      </trkpt>
      <trkpt lat="47.18663" lon="-1.59848">
        <ele>7.33</ele>
        <time>2020-06-06T10:55:34Z</time>
      </trkpt>
      <trkpt lat="47.18649" lon="-1.59854">
        <ele>9.06</ele>
        <time>2020-06-06T10:55:36Z</time>
      </trkpt>
      <trkpt lat="47.18637" lon="-1.59852">
        <ele>10.77</ele>
        <time>2020-06-06T10:55:38Z</time>
      </trkpt>
      <trkpt lat="47.18625" lon="-1.59843">
        <ele>10.12</ele>
        <time>2020-06-06T10:55:40Z</time>
      </trkpt>
      <trkpt lat="47.18614" lon="-1.5984">
        <ele>9.53</ele>
        <time>2020-06-06T10:55:42Z</time>
      </trkpt>
      <trkpt lat="47.18613" lon="-1.59853">
        <ele>9.62</ele>
        <time>2020-06-06T10:55:44Z</time>
      </trkpt>
      <trkpt lat="47.18617" lon="-1.5987">
        <ele>9.62</ele>
        <time>2020-06-06T10:55:46Z</time>
      </trkpt>
      <trkpt lat="47.18616" lon="-1.59885">
        <ele>8.78</ele>
        <time>2020-06-06T10:55:48Z</time>
      </trkpt>
      <trkpt lat="47.18613" lon="-1.59903">
        <ele>7.49</ele>
        <time>2020-06-06T10:55:50Z</time>
      </trkpt>
      <trkpt lat="47.18609" lon="-1.59921">
        <ele>6.98</ele>
        <time>2020-06-06T10:55:52Z</time>
      </trkpt>
      <trkpt lat="47.18604" lon="-1.59938">
        <ele>7.07</ele>
        <time>2020-06-06T10:55:54Z</time>
      </trkpt>
      <trkpt lat="47.18599" lon="-1.59954">
        <ele>7.08</ele>
        <time>2020-06-06T10:55:56Z</time>
      </trkpt>
      <trkpt lat="47.18594" lon="-1.59969">
        <ele>7.53</ele>
        <time>2020-06-06T10:55:58Z</time>
      </trkpt>
      <trkpt lat="47.18589" lon="-1.59986">
        <ele>8.12</ele>
        <time>2020-06-06T10:56:00Z</time>
      </trkpt>
      <trkpt lat="47.18583" lon="-1.6">
        <ele>8.81</ele>
        <time>2020-06-06T10:56:02Z</time>
      </trkpt>
      <trkpt lat="47.18579" lon="-1.60016">
        <ele>9.33</ele>
        <time>2020-06-06T10:56:04Z</time>
      </trkpt>
      <trkpt lat="47.18575" lon="-1.60032">
        <ele>10</ele>
        <time>2020-06-06T10:56:06Z</time>
      </trkpt>
      <trkpt lat="47.1857" lon="-1.60045">
        <ele>10.21</ele>
        <time>2020-06-06T10:56:08Z</time>
      </trkpt>
      <trkpt lat="47.18564" lon="-1.60063">
        <ele>10.32</ele>
        <time>2020-06-06T10:56:10Z</time>
      </trkpt>
      <trkpt lat="47.18558" lon="-1.6008">
        <ele>10.28</ele>
        <time>2020-06-06T10:56:12Z</time>
      </trkpt>
      <trkpt lat="47.18552" lon="-1.60093">
        <ele>9.05</ele>
        <time>2020-06-06T10:56:14Z</time>
      </trkpt>
      <trkpt lat="47.18547" lon="-1.60106">
        <ele>8.41</ele>
        <time>2020-06-06T10:56:16Z</time>
      </trkpt>
      <trkpt lat="47.18541" lon="-1.60121">
        <ele>9.63</ele>
        <time>2020-06-06T10:56:18Z</time>
      </trkpt>
      <trkpt lat="47.18534" lon="-1.60136">
        <ele>10.01</ele>
        <time>2020-06-06T10:56:20Z</time>
      </trkpt>
      <trkpt lat="47.18528" lon="-1.60149">
        <ele>9.76</ele>
        <time>2020-06-06T10:56:22Z</time>
      </trkpt>
      <trkpt lat="47.18521" lon="-1.60162">
        <ele>9.17</ele>
        <time>2020-06-06T10:56:24Z</time>
      </trkpt>
      <trkpt lat="47.18514" lon="-1.60178">
        <ele>8.22</ele>
        <time>2020-06-06T10:56:26Z</time>
      </trkpt>
      <trkpt lat="47.18507" lon="-1.60193">
        <ele>7.36</ele>
        <time>2020-06-06T10:56:28Z</time>
      </trkpt>
      <trkpt lat="47.185" lon="-1.60205">
        <ele>7.85</ele>
        <time>2020-06-06T10:56:30Z</time>
      </trkpt>
      <trkpt lat="47.18492" lon="-1.6022">
        <ele>8.43</ele>
        <time>2020-06-06T10:56:32Z</time>
      </trkpt>
      <trkpt lat="47.18487" lon="-1.60231">
        <ele>8.45</ele>
        <time>2020-06-06T10:56:34Z</time>
      </trkpt>
      <trkpt lat="47.18479" lon="-1.60247">
        <ele>9.19</ele>
        <time>2020-06-06T10:56:36Z</time>
      </trkpt>
      <trkpt lat="47.18472" lon="-1.60259">
        <ele>9.72</ele>
        <time>2020-06-06T10:56:38Z</time>
      </trkpt>
      <trkpt lat="47.18465" lon="-1.6027">
        <ele>10.64</ele>
        <time>2020-06-06T10:56:40Z</time>
      </trkpt>
      <trkpt lat="47.18458" lon="-1.60283">
        <ele>11.25</ele>
        <time>2020-06-06T10:56:42Z</time>
      </trkpt>
      <trkpt lat="47.1845" lon="-1.60296">
        <ele>10.31</ele>
        <time>2020-06-06T10:56:44Z</time>
      </trkpt>
      <trkpt lat="47.18443" lon="-1.60308">
        <ele>8.2</ele>
        <time>2020-06-06T10:56:46Z</time>
      </trkpt>
      <trkpt lat="47.18436" lon="-1.60321">
        <ele>6.81</ele>
        <time>2020-06-06T10:56:48Z</time>
      </trkpt>
      <trkpt lat="47.18429" lon="-1.60333">
        <ele>5.58</ele>
        <time>2020-06-06T10:56:50Z</time>
      </trkpt>
      <trkpt lat="47.18422" lon="-1.60346">
        <ele>5.46</ele>
        <time>2020-06-06T10:56:52Z</time>
      </trkpt>
      <trkpt lat="47.18411" lon="-1.60361">
        <ele>4.47</ele>
        <time>2020-06-06T10:56:54Z</time>
      </trkpt>
      <trkpt lat="47.18403" lon="-1.60372">
        <ele>2.97</ele>
        <time>2020-06-06T10:56:56Z</time>
      </trkpt>
      <trkpt lat="47.18395" lon="-1.60384">
        <ele>1.92</ele>
        <time>2020-06-06T10:56:58Z</time>
      </trkpt>
      <trkpt lat="47.18387" lon="-1.60394">
        <ele>0.66</ele>
        <time>2020-06-06T10:57:00Z</time>
      </trkpt>
      <trkpt lat="47.18379" lon="-1.60406">
        <ele>-0.64</ele>
        <time>2020-06-06T10:57:02Z</time>
      </trkpt>
      <trkpt lat="47.18371" lon="-1.60416">
        <ele>-1.66</ele>
        <time>2020-06-06T10:57:04Z</time>
      </trkpt>
      <trkpt lat="47.18361" lon="-1.60428">
        <ele>-2.04</ele>
        <time>2020-06-06T10:57:06Z</time>
      </trkpt>
      <trkpt lat="47.18352" lon="-1.60439">
        <ele>-2.22</ele>
        <time>2020-06-06T10:57:08Z</time>
      </trkpt>
      <trkpt lat="47.18344" lon="-1.60447">
        <ele>-2.4</ele>
        <time>2020-06-06T10:57:10Z</time>
      </trkpt>
      <trkpt lat="47.18335" lon="-1.60457">
        <ele>-1.79</ele>
        <time>2020-06-06T10:57:12Z</time>
      </trkpt>
      <trkpt lat="47.18326" lon="-1.60469">
        <ele>-1.82</ele>
        <time>2020-06-06T10:57:14Z</time>
      </trkpt>
      <trkpt lat="47.18316" lon="-1.6048">
        <ele>-0.27</ele>
        <time>2020-06-06T10:57:16Z</time>
      </trkpt>
      <trkpt lat="47.18307" lon="-1.6049">
        <ele>2.25</ele>
        <time>2020-06-06T10:57:18Z</time>
      </trkpt>
      <trkpt lat="47.18299" lon="-1.60499">
        <ele>4.09</ele>
        <time>2020-06-06T10:57:20Z</time>
      </trkpt>
      <trkpt lat="47.1829" lon="-1.60509">
        <ele>4.89</ele>
        <time>2020-06-06T10:57:22Z</time>
      </trkpt>
      <trkpt lat="47.18278" lon="-1.60523">
        <ele>4.97</ele>
        <time>2020-06-06T10:57:24Z</time>
      </trkpt>
      <trkpt lat="47.18267" lon="-1.60535">
        <ele>6.98</ele>
        <time>2020-06-06T10:57:26Z</time>
      </trkpt>
      <trkpt lat="47.18259" lon="-1.60542">
        <ele>7.89</ele>
        <time>2020-06-06T10:57:28Z</time>
      </trkpt>
      <trkpt lat="47.18249" lon="-1.60551">
        <ele>7.9</ele>
        <time>2020-06-06T10:57:30Z</time>
      </trkpt>
      <trkpt lat="47.18239" lon="-1.60559">
        <ele>7.82</ele>
        <time>2020-06-06T10:57:32Z</time>
      </trkpt>
      <trkpt lat="47.18227" lon="-1.60567">
        <ele>7.24</ele>
        <time>2020-06-06T10:57:34Z</time>
      </trkpt>
      <trkpt lat="47.18218" lon="-1.60573">
        <ele>5.72</ele>
        <time>2020-06-06T10:57:36Z</time>
      </trkpt>
      <trkpt lat="47.18208" lon="-1.6058">
        <ele>4.03</ele>
        <time>2020-06-06T10:57:39Z</time>
      </trkpt>
      <trkpt lat="47.18196" lon="-1.60586">
        <ele>1.29</ele>
        <time>2020-06-06T10:57:42Z</time>
      </trkpt>
      <trkpt lat="47.18187" lon="-1.60593">
        <ele>0.84</ele>
        <time>2020-06-06T10:57:47Z</time>
      </trkpt>
      <trkpt lat="47.18178" lon="-1.60604">
        <ele>-0.48</ele>
        <time>2020-06-06T10:57:50Z</time>
      </trkpt>
      <trkpt lat="47.18166" lon="-1.60606">
        <ele>-2.24</ele>
        <time>2020-06-06T10:57:52Z</time>
      </trkpt>
      <trkpt lat="47.18152" lon="-1.6061">
        <ele>-1.52</ele>
        <time>2020-06-06T10:57:54Z</time>
      </trkpt>
      <trkpt lat="47.18141" lon="-1.60611">
        <ele>1.2</ele>
        <time>2020-06-06T10:57:56Z</time>
      </trkpt>
      <trkpt lat="47.18129" lon="-1.60611">
        <ele>3.23</ele>
        <time>2020-06-06T10:57:58Z</time>
      </trkpt>
      <trkpt lat="47.18116" lon="-1.60608">
        <ele>4.76</ele>
        <time>2020-06-06T10:58:00Z</time>
      </trkpt>
      <trkpt lat="47.18103" lon="-1.60603">
        <ele>5.56</ele>
        <time>2020-06-06T10:58:02Z</time>
      </trkpt>
      <trkpt lat="47.1809" lon="-1.60597">
        <ele>6.97</ele>
        <time>2020-06-06T10:58:04Z</time>
      </trkpt>
      <trkpt lat="47.18078" lon="-1.6059">
        <ele>8.12</ele>
        <time>2020-06-06T10:58:06Z</time>
      </trkpt>
      <trkpt lat="47.18064" lon="-1.60581">
        <ele>7.83</ele>
        <time>2020-06-06T10:58:08Z</time>
      </trkpt>
      <trkpt lat="47.18052" lon="-1.60574">
        <ele>7.21</ele>
        <time>2020-06-06T10:58:10Z</time>
      </trkpt>
      <trkpt lat="47.18041" lon="-1.60566">
        <ele>6.63</ele>
        <time>2020-06-06T10:58:12Z</time>
      </trkpt>
      <trkpt lat="47.1803" lon="-1.60559">
        <ele>8.12</ele>
        <time>2020-06-06T10:58:14Z</time>
      </trkpt>
      <trkpt lat="47.18017" lon="-1.60556">
        <ele>8.28</ele>
        <time>2020-06-06T10:58:16Z</time>
      </trkpt>
      <trkpt lat="47.18006" lon="-1.60557">
        <ele>8.51</ele>
        <time>2020-06-06T10:58:18Z</time>
      </trkpt>
      <trkpt lat="47.17994" lon="-1.6056">
        <ele>9.14</ele>
        <time>2020-06-06T10:58:20Z</time>
      </trkpt>
      <trkpt lat="47.17982" lon="-1.60564">
        <ele>9.96</ele>
        <time>2020-06-06T10:58:22Z</time>
      </trkpt>
      <trkpt lat="47.1797" lon="-1.60569">
        <ele>9.73</ele>
        <time>2020-06-06T10:58:24Z</time>
      </trkpt>
      <trkpt lat="47.17957" lon="-1.60571">
        <ele>8.86</ele>
        <time>2020-06-06T10:58:26Z</time>
      </trkpt>
      <trkpt lat="47.17947" lon="-1.60576">
        <ele>7.85</ele>
        <time>2020-06-06T10:58:28Z</time>
      </trkpt>
      <trkpt lat="47.17935" lon="-1.60583">
        <ele>7.58</ele>
        <time>2020-06-06T10:58:31Z</time>
      </trkpt>
      <trkpt lat="47.17925" lon="-1.60583">
        <ele>6.71</ele>
        <time>2020-06-06T10:58:34Z</time>
      </trkpt>
      <trkpt lat="47.17915" lon="-1.60584">
        <ele>6.5</ele>
        <time>2020-06-06T10:58:47Z</time>
      </trkpt>
      <trkpt lat="47.17905" lon="-1.60592">
        <ele>4.38</ele>
        <time>2020-06-06T10:58:50Z</time>
      </trkpt>
      <trkpt lat="47.17903" lon="-1.60608">
        <ele>3.44</ele>
        <time>2020-06-06T10:58:52Z</time>
      </trkpt>
      <trkpt lat="47.17897" lon="-1.60625">
        <ele>2.37</ele>
        <time>2020-06-06T10:58:54Z</time>
      </trkpt>
      <trkpt lat="47.17893" lon="-1.60639">
        <ele>1.19</ele>
        <time>2020-06-06T10:58:56Z</time>
      </trkpt>
      <trkpt lat="47.17888" lon="-1.60657">
        <ele>0.46</ele>
        <time>2020-06-06T10:58:58Z</time>
      </trkpt>
      <trkpt lat="47.17883" lon="-1.60673">
        <ele>0.36</ele>
        <time>2020-06-06T10:59:00Z</time>
      </trkpt>
      <trkpt lat="47.17877" lon="-1.6069">
        <ele>-0.94</ele>
        <time>2020-06-06T10:59:02Z</time>
      </trkpt>
      <trkpt lat="47.17872" lon="-1.60709">
        <ele>-2.94</ele>
        <time>2020-06-06T10:59:04Z</time>
      </trkpt>
      <trkpt lat="47.17869" lon="-1.60727">
        <ele>-4.18</ele>
        <time>2020-06-06T10:59:06Z</time>
      </trkpt>
      <trkpt lat="47.17866" lon="-1.60745">
        <ele>-4.17</ele>
        <time>2020-06-06T10:59:08Z</time>
      </trkpt>
      <trkpt lat="47.17862" lon="-1.60763">
        <ele>-4.71</ele>
        <time>2020-06-06T10:59:10Z</time>
      </trkpt>
      <trkpt lat="47.17858" lon="-1.60779">
        <ele>-5.8</ele>
        <time>2020-06-06T10:59:12Z</time>
      </trkpt>
      <trkpt lat="47.17855" lon="-1.60793">
        <ele>-6.64</ele>
        <time>2020-06-06T10:59:14Z</time>
      </trkpt>
      <trkpt lat="47.17851" lon="-1.60812">
        <ele>-8</ele>
        <time>2020-06-06T10:59:16Z</time>
      </trkpt>
      <trkpt lat="47.17847" lon="-1.60831">
        <ele>-9.33</ele>
        <time>2020-06-06T10:59:18Z</time>
      </trkpt>
      <trkpt lat="47.17841" lon="-1.60845">
        <ele>-10.46</ele>
        <time>2020-06-06T10:59:20Z</time>
      </trkpt>
      <trkpt lat="47.17833" lon="-1.60859">
        <ele>-11.43</ele>
        <time>2020-06-06T10:59:22Z</time>
      </trkpt>
      <trkpt lat="47.17824" lon="-1.60874">
        <ele>-11.4</ele>
        <time>2020-06-06T10:59:24Z</time>
      </trkpt>
      <trkpt lat="47.17814" lon="-1.60887">
        <ele>-11</ele>
        <time>2020-06-06T10:59:26Z</time>
      </trkpt>
      <trkpt lat="47.17803" lon="-1.60896">
        <ele>-10.18</ele>
        <time>2020-06-06T10:59:28Z</time>
      </trkpt>
      <trkpt lat="47.17791" lon="-1.60905">
        <ele>-9.24</ele>
        <time>2020-06-06T10:59:30Z</time>
      </trkpt>
      <trkpt lat="47.17777" lon="-1.60916">
        <ele>-9.08</ele>
        <time>2020-06-06T10:59:32Z</time>
      </trkpt>
      <trkpt lat="47.17766" lon="-1.60926">
        <ele>-8.52</ele>
        <time>2020-06-06T10:59:34Z</time>
      </trkpt>
      <trkpt lat="47.17755" lon="-1.60936">
        <ele>-6.46</ele>
        <time>2020-06-06T10:59:36Z</time>
      </trkpt>
      <trkpt lat="47.17744" lon="-1.60946">
        <ele>-4.1</ele>
        <time>2020-06-06T10:59:38Z</time>
      </trkpt>
      <trkpt lat="47.17731" lon="-1.60956">
        <ele>-2.27</ele>
        <time>2020-06-06T10:59:40Z</time>
      </trkpt>
      <trkpt lat="47.17721" lon="-1.60963">
        <ele>-0.96</ele>
        <time>2020-06-06T10:59:42Z</time>
      </trkpt>
      <trkpt lat="47.17711" lon="-1.60969">
        <ele>0.09</ele>
        <time>2020-06-06T10:59:44Z</time>
      </trkpt>
      <trkpt lat="47.17699" lon="-1.60976">
        <ele>0.81</ele>
        <time>2020-06-06T10:59:46Z</time>
      </trkpt>
      <trkpt lat="47.17686" lon="-1.60981">
        <ele>2.51</ele>
        <time>2020-06-06T10:59:48Z</time>
      </trkpt>
      <trkpt lat="47.17673" lon="-1.60977">
        <ele>5.46</ele>
        <time>2020-06-06T10:59:50Z</time>
      </trkpt>
      <trkpt lat="47.1766" lon="-1.60976">
        <ele>8.02</ele>
        <time>2020-06-06T10:59:52Z</time>
      </trkpt>
      <trkpt lat="47.17649" lon="-1.60979">
        <ele>8.94</ele>
        <time>2020-06-06T10:59:54Z</time>
      </trkpt>
      <trkpt lat="47.17638" lon="-1.60987">
        <ele>9</ele>
        <time>2020-06-06T10:59:56Z</time>
      </trkpt>
      <trkpt lat="47.17627" lon="-1.60997">
        <ele>8.78</ele>
        <time>2020-06-06T10:59:58Z</time>
      </trkpt>
      <trkpt lat="47.17616" lon="-1.61008">
        <ele>6.85</ele>
        <time>2020-06-06T11:00:00Z</time>
      </trkpt>
      <trkpt lat="47.17607" lon="-1.61018">
        <ele>5.78</ele>
        <time>2020-06-06T11:00:02Z</time>
      </trkpt>
      <trkpt lat="47.17596" lon="-1.61028">
        <ele>5.02</ele>
        <time>2020-06-06T11:00:04Z</time>
      </trkpt>
      <trkpt lat="47.17586" lon="-1.61038">
        <ele>4.3</ele>
        <time>2020-06-06T11:00:06Z</time>
      </trkpt>
      <trkpt lat="47.17575" lon="-1.61048">
        <ele>4.04</ele>
        <time>2020-06-06T11:00:08Z</time>
      </trkpt>
      <trkpt lat="47.17567" lon="-1.61055">
        <ele>3.15</ele>
        <time>2020-06-06T11:00:10Z</time>
      </trkpt>
      <trkpt lat="47.17557" lon="-1.61064">
        <ele>1.46</ele>
        <time>2020-06-06T11:00:12Z</time>
      </trkpt>
      <trkpt lat="47.17546" lon="-1.61073">
        <ele>2.05</ele>
        <time>2020-06-06T11:00:14Z</time>
      </trkpt>
      <trkpt lat="47.17535" lon="-1.61082">
        <ele>3.12</ele>
        <time>2020-06-06T11:00:16Z</time>
      </trkpt>
      <trkpt lat="47.17525" lon="-1.6109">
        <ele>5.05</ele>
        <time>2020-06-06T11:00:18Z</time>
      </trkpt>
      <trkpt lat="47.17517" lon="-1.61098">
        <ele>7.03</ele>
        <time>2020-06-06T11:00:20Z</time>
      </trkpt>
      <trkpt lat="47.17506" lon="-1.61108">
        <ele>8.65</ele>
        <time>2020-06-06T11:00:22Z</time>
      </trkpt>
      <trkpt lat="47.17495" lon="-1.61113">
        <ele>8.95</ele>
        <time>2020-06-06T11:00:24Z</time>
      </trkpt>
      <trkpt lat="47.17485" lon="-1.61114">
        <ele>8.55</ele>
        <time>2020-06-06T11:00:26Z</time>
      </trkpt>
      <trkpt lat="47.17473" lon="-1.61112">
        <ele>8.53</ele>
        <time>2020-06-06T11:00:28Z</time>
      </trkpt>
      <trkpt lat="47.17462" lon="-1.61105">
        <ele>8.99</ele>
        <time>2020-06-06T11:00:30Z</time>
      </trkpt>
      <trkpt lat="47.17454" lon="-1.61096">
        <ele>10.43</ele>
        <time>2020-06-06T11:00:32Z</time>
      </trkpt>
      <trkpt lat="47.17445" lon="-1.61085">
        <ele>13.39</ele>
        <time>2020-06-06T11:00:34Z</time>
      </trkpt>
      <trkpt lat="47.17437" lon="-1.61071">
        <ele>14.52</ele>
        <time>2020-06-06T11:00:36Z</time>
      </trkpt>
      <trkpt lat="47.1743" lon="-1.61053">
        <ele>13.91</ele>
        <time>2020-06-06T11:00:38Z</time>
      </trkpt>
      <trkpt lat="47.17425" lon="-1.61038">
        <ele>12.09</ele>
        <time>2020-06-06T11:00:40Z</time>
      </trkpt>
      <trkpt lat="47.17422" lon="-1.61024">
        <ele>11.32</ele>
        <time>2020-06-06T11:00:42Z</time>
      </trkpt>
      <trkpt lat="47.1742" lon="-1.61043">
        <ele>14.09</ele>
        <time>2020-06-06T11:00:47Z</time>
      </trkpt>
      <trkpt lat="47.17422" lon="-1.61055">
        <ele>15.48</ele>
        <time>2020-06-06T11:00:49Z</time>
      </trkpt>
      <trkpt lat="47.17426" lon="-1.61068">
        <ele>16.17</ele>
        <time>2020-06-06T11:00:51Z</time>
      </trkpt>
      <trkpt lat="47.17431" lon="-1.61079">
        <ele>16.97</ele>
        <time>2020-06-06T11:00:53Z</time>
      </trkpt>
      <trkpt lat="47.17438" lon="-1.61092">
        <ele>16.67</ele>
        <time>2020-06-06T11:00:55Z</time>
      </trkpt>
      <trkpt lat="47.17445" lon="-1.61107">
        <ele>15.62</ele>
        <time>2020-06-06T11:00:57Z</time>
      </trkpt>
      <trkpt lat="47.17451" lon="-1.61121">
        <ele>14.09</ele>
        <time>2020-06-06T11:00:59Z</time>
      </trkpt>
      <trkpt lat="47.17458" lon="-1.61136">
        <ele>12.58</ele>
        <time>2020-06-06T11:01:02Z</time>
      </trkpt>
      <trkpt lat="47.17463" lon="-1.61149">
        <ele>12.78</ele>
        <time>2020-06-06T11:01:04Z</time>
      </trkpt>
      <trkpt lat="47.17469" lon="-1.61162">
        <ele>12.91</ele>
        <time>2020-06-06T11:01:06Z</time>
      </trkpt>
      <trkpt lat="47.17476" lon="-1.6118">
        <ele>12.56</ele>
        <time>2020-06-06T11:01:09Z</time>
      </trkpt>
      <trkpt lat="47.17481" lon="-1.61195">
        <ele>12.47</ele>
        <time>2020-06-06T11:01:11Z</time>
      </trkpt>
      <trkpt lat="47.17487" lon="-1.6121">
        <ele>12.58</ele>
        <time>2020-06-06T11:01:13Z</time>
      </trkpt>
      <trkpt lat="47.17492" lon="-1.61222">
        <ele>12.33</ele>
        <time>2020-06-06T11:01:15Z</time>
      </trkpt>
      <trkpt lat="47.17497" lon="-1.61238">
        <ele>11.39</ele>
        <time>2020-06-06T11:01:17Z</time>
      </trkpt>
      <trkpt lat="47.17502" lon="-1.61251">
        <ele>13.23</ele>
        <time>2020-06-06T11:01:19Z</time>
      </trkpt>
      <trkpt lat="47.1751" lon="-1.61268">
        <ele>15.63</ele>
        <time>2020-06-06T11:01:22Z</time>
      </trkpt>
      <trkpt lat="47.17517" lon="-1.6128">
        <ele>15.2</ele>
        <time>2020-06-06T11:01:24Z</time>
      </trkpt>
      <trkpt lat="47.17524" lon="-1.6129">
        <ele>14.76</ele>
        <time>2020-06-06T11:01:26Z</time>
      </trkpt>
      <trkpt lat="47.17533" lon="-1.61298">
        <ele>12.85</ele>
        <time>2020-06-06T11:01:28Z</time>
      </trkpt>
      <trkpt lat="47.17544" lon="-1.61303">
        <ele>11.13</ele>
        <time>2020-06-06T11:01:30Z</time>
      </trkpt>
      <trkpt lat="47.17555" lon="-1.61311">
        <ele>9.49</ele>
        <time>2020-06-06T11:01:32Z</time>
      </trkpt>
      <trkpt lat="47.17559" lon="-1.61327">
        <ele>9.21</ele>
        <time>2020-06-06T11:01:34Z</time>
      </trkpt>
      <trkpt lat="47.17555" lon="-1.61345">
        <ele>10.61</ele>
        <time>2020-06-06T11:01:36Z</time>
      </trkpt>
      <trkpt lat="47.17547" lon="-1.61357">
        <ele>13.41</ele>
        <time>2020-06-06T11:01:38Z</time>
      </trkpt>
      <trkpt lat="47.17536" lon="-1.61366">
        <ele>15.17</ele>
        <time>2020-06-06T11:01:40Z</time>
      </trkpt>
      <trkpt lat="47.17528" lon="-1.61376">
        <ele>17.01</ele>
        <time>2020-06-06T11:01:42Z</time>
      </trkpt>
      <trkpt lat="47.17523" lon="-1.61391">
        <ele>17.66</ele>
        <time>2020-06-06T11:01:44Z</time>
      </trkpt>
      <trkpt lat="47.17519" lon="-1.61407">
        <ele>17.65</ele>
        <time>2020-06-06T11:01:46Z</time>
      </trkpt>
      <trkpt lat="47.17515" lon="-1.61425">
        <ele>18.22</ele>
        <time>2020-06-06T11:01:49Z</time>
      </trkpt>
      <trkpt lat="47.17512" lon="-1.61444">
        <ele>17.15</ele>
        <time>2020-06-06T11:01:51Z</time>
      </trkpt>
      <trkpt lat="47.17509" lon="-1.61457">
        <ele>16.8</ele>
        <time>2020-06-06T11:01:53Z</time>
      </trkpt>
      <trkpt lat="47.17502" lon="-1.61466">
        <ele>17.2</ele>
        <time>2020-06-06T11:01:55Z</time>
      </trkpt>
      <trkpt lat="47.1749" lon="-1.6147">
        <ele>18.52</ele>
        <time>2020-06-06T11:01:57Z</time>
      </trkpt>
      <trkpt lat="47.17478" lon="-1.61474">
        <ele>20.76</ele>
        <time>2020-06-06T11:01:59Z</time>
      </trkpt>
      <trkpt lat="47.17467" lon="-1.61478">
        <ele>22.59</ele>
        <time>2020-06-06T11:02:01Z</time>
      </trkpt>
      <trkpt lat="47.17453" lon="-1.61483">
        <ele>24.19</ele>
        <time>2020-06-06T11:02:04Z</time>
      </trkpt>
      <trkpt lat="47.17443" lon="-1.61488">
        <ele>24.8</ele>
        <time>2020-06-06T11:02:06Z</time>
      </trkpt>
      <trkpt lat="47.17433" lon="-1.61493">
        <ele>24.7</ele>
        <time>2020-06-06T11:02:08Z</time>
      </trkpt>
      <trkpt lat="47.17424" lon="-1.615">
        <ele>24.51</ele>
        <time>2020-06-06T11:02:10Z</time>
      </trkpt>
      <trkpt lat="47.17411" lon="-1.61509">
        <ele>23.78</ele>
        <time>2020-06-06T11:02:13Z</time>
      </trkpt>
      <trkpt lat="47.17401" lon="-1.61516">
        <ele>23.49</ele>
        <time>2020-06-06T11:02:15Z</time>
      </trkpt>
      <trkpt lat="47.1739" lon="-1.61526">
        <ele>21.42</ele>
        <time>2020-06-06T11:02:18Z</time>
      </trkpt>
      <trkpt lat="47.17383" lon="-1.61534">
        <ele>21.35</ele>
        <time>2020-06-06T11:02:20Z</time>
      </trkpt>
      <trkpt lat="47.17374" lon="-1.61541">
        <ele>22.59</ele>
        <time>2020-06-06T11:02:22Z</time>
      </trkpt>
      <trkpt lat="47.17366" lon="-1.61548">
        <ele>22.84</ele>
        <time>2020-06-06T11:02:24Z</time>
      </trkpt>
      <trkpt lat="47.17356" lon="-1.61559">
        <ele>22.06</ele>
        <time>2020-06-06T11:02:27Z</time>
      </trkpt>
      <trkpt lat="47.17348" lon="-1.61568">
        <ele>21.8</ele>
        <time>2020-06-06T11:02:29Z</time>
      </trkpt>
      <trkpt lat="47.17337" lon="-1.61581">
        <ele>20.63</ele>
        <time>2020-06-06T11:02:32Z</time>
      </trkpt>
      <trkpt lat="47.17328" lon="-1.61592">
        <ele>19.36</ele>
        <time>2020-06-06T11:02:35Z</time>
      </trkpt>
      <trkpt lat="47.1732" lon="-1.61604">
        <ele>18.14</ele>
        <time>2020-06-06T11:02:37Z</time>
      </trkpt>
      <trkpt lat="47.17313" lon="-1.61616">
        <ele>18.22</ele>
        <time>2020-06-06T11:02:39Z</time>
      </trkpt>
      <trkpt lat="47.17302" lon="-1.61631">
        <ele>17.89</ele>
        <time>2020-06-06T11:02:42Z</time>
      </trkpt>
      <trkpt lat="47.17295" lon="-1.61642">
        <ele>18.54</ele>
        <time>2020-06-06T11:02:44Z</time>
      </trkpt>
      <trkpt lat="47.17287" lon="-1.61659">
        <ele>19.6</ele>
        <time>2020-06-06T11:02:47Z</time>
      </trkpt>
      <trkpt lat="47.17281" lon="-1.61669">
        <ele>20.57</ele>
        <time>2020-06-06T11:02:49Z</time>
      </trkpt>
      <trkpt lat="47.17276" lon="-1.61681">
        <ele>20.91</ele>
        <time>2020-06-06T11:02:51Z</time>
      </trkpt>
      <trkpt lat="47.1727" lon="-1.61693">
        <ele>21.37</ele>
        <time>2020-06-06T11:02:53Z</time>
      </trkpt>
      <trkpt lat="47.17264" lon="-1.61704">
        <ele>21.55</ele>
        <time>2020-06-06T11:02:55Z</time>
      </trkpt>
      <trkpt lat="47.17256" lon="-1.6172">
        <ele>20.52</ele>
        <time>2020-06-06T11:02:58Z</time>
      </trkpt>
      <trkpt lat="47.17249" lon="-1.61735">
        <ele>20.17</ele>
        <time>2020-06-06T11:03:00Z</time>
      </trkpt>
      <trkpt lat="47.17243" lon="-1.61755">
        <ele>20.99</ele>
        <time>2020-06-06T11:03:02Z</time>
      </trkpt>
      <trkpt lat="47.17241" lon="-1.61771">
        <ele>22.3</ele>
        <time>2020-06-06T11:03:04Z</time>
      </trkpt>
      <trkpt lat="47.17235" lon="-1.61782">
        <ele>23.53</ele>
        <time>2020-06-06T11:03:06Z</time>
      </trkpt>
      <trkpt lat="47.17226" lon="-1.6179">
        <ele>24.61</ele>
        <time>2020-06-06T11:03:08Z</time>
      </trkpt>
      <trkpt lat="47.17216" lon="-1.618">
        <ele>26.15</ele>
        <time>2020-06-06T11:03:10Z</time>
      </trkpt>
      <trkpt lat="47.17205" lon="-1.61809">
        <ele>27.75</ele>
        <time>2020-06-06T11:03:12Z</time>
      </trkpt>
      <trkpt lat="47.17197" lon="-1.61816">
        <ele>28.11</ele>
        <time>2020-06-06T11:03:14Z</time>
      </trkpt>
      <trkpt lat="47.17188" lon="-1.61823">
        <ele>28.83</ele>
        <time>2020-06-06T11:03:16Z</time>
      </trkpt>
      <trkpt lat="47.17179" lon="-1.61831">
        <ele>29.17</ele>
        <time>2020-06-06T11:03:18Z</time>
      </trkpt>
      <trkpt lat="47.17171" lon="-1.61839">
        <ele>29.45</ele>
        <time>2020-06-06T11:03:20Z</time>
      </trkpt>
      <trkpt lat="47.17161" lon="-1.61848">
        <ele>29.24</ele>
        <time>2020-06-06T11:03:22Z</time>
      </trkpt>
      <trkpt lat="47.17154" lon="-1.61855">
        <ele>29.11</ele>
        <time>2020-06-06T11:03:24Z</time>
      </trkpt>
      <trkpt lat="47.17145" lon="-1.61863">
        <ele>28.54</ele>
        <time>2020-06-06T11:03:26Z</time>
      </trkpt>
      <trkpt lat="47.17136" lon="-1.6187">
        <ele>28.02</ele>
        <time>2020-06-06T11:03:28Z</time>
      </trkpt>
      <trkpt lat="47.17126" lon="-1.61879">
        <ele>28.93</ele>
        <time>2020-06-06T11:03:30Z</time>
      </trkpt>
      <trkpt lat="47.17117" lon="-1.61888">
        <ele>30.91</ele>
        <time>2020-06-06T11:03:31Z</time>
      </trkpt>
      <trkpt lat="47.17108" lon="-1.61898">
        <ele>32.62</ele>
        <time>2020-06-06T11:03:33Z</time>
      </trkpt>
      <trkpt lat="47.17099" lon="-1.61907">
        <ele>33.47</ele>
        <time>2020-06-06T11:03:35Z</time>
      </trkpt>
      <trkpt lat="47.17088" lon="-1.61919">
        <ele>33.88</ele>
        <time>2020-06-06T11:03:37Z</time>
      </trkpt>
      <trkpt lat="47.17079" lon="-1.61928">
        <ele>33.79</ele>
        <time>2020-06-06T11:03:39Z</time>
      </trkpt>
      <trkpt lat="47.1707" lon="-1.61936">
        <ele>34.36</ele>
        <time>2020-06-06T11:03:41Z</time>
      </trkpt>
      <trkpt lat="47.17061" lon="-1.61945">
        <ele>33.19</ele>
        <time>2020-06-06T11:03:43Z</time>
      </trkpt>
      <trkpt lat="47.17051" lon="-1.61956">
        <ele>32.03</ele>
        <time>2020-06-06T11:03:45Z</time>
      </trkpt>
      <trkpt lat="47.17042" lon="-1.6197">
        <ele>31.02</ele>
        <time>2020-06-06T11:03:47Z</time>
      </trkpt>
      <trkpt lat="47.17034" lon="-1.61982">
        <ele>30.1</ele>
        <time>2020-06-06T11:03:49Z</time>
      </trkpt>
      <trkpt lat="47.17026" lon="-1.61994">
        <ele>28.86</ele>
        <time>2020-06-06T11:03:51Z</time>
      </trkpt>
      <trkpt lat="47.17018" lon="-1.62007">
        <ele>27.11</ele>
        <time>2020-06-06T11:03:53Z</time>
      </trkpt>
      <trkpt lat="47.1701" lon="-1.62021">
        <ele>25.58</ele>
        <time>2020-06-06T11:03:55Z</time>
      </trkpt>
      <trkpt lat="47.17001" lon="-1.62037">
        <ele>25.64</ele>
        <time>2020-06-06T11:03:57Z</time>
      </trkpt>
      <trkpt lat="47.16993" lon="-1.6205">
        <ele>25.2</ele>
        <time>2020-06-06T11:03:59Z</time>
      </trkpt>
      <trkpt lat="47.16985" lon="-1.62066">
        <ele>25.77</ele>
        <time>2020-06-06T11:04:01Z</time>
      </trkpt>
      <trkpt lat="47.16977" lon="-1.6208">
        <ele>26.08</ele>
        <time>2020-06-06T11:04:03Z</time>
      </trkpt>
      <trkpt lat="47.16968" lon="-1.62094">
        <ele>26.07</ele>
        <time>2020-06-06T11:04:05Z</time>
      </trkpt>
      <trkpt lat="47.1696" lon="-1.62109">
        <ele>27.21</ele>
        <time>2020-06-06T11:04:08Z</time>
      </trkpt>
      <trkpt lat="47.16951" lon="-1.62126">
        <ele>26.26</ele>
        <time>2020-06-06T11:04:10Z</time>
      </trkpt>
      <trkpt lat="47.16945" lon="-1.6214">
        <ele>25.49</ele>
        <time>2020-06-06T11:04:12Z</time>
      </trkpt>
      <trkpt lat="47.16937" lon="-1.62156">
        <ele>24.81</ele>
        <time>2020-06-06T11:04:14Z</time>
      </trkpt>
      <trkpt lat="47.16931" lon="-1.6217">
        <ele>25.06</ele>
        <time>2020-06-06T11:04:16Z</time>
      </trkpt>
      <trkpt lat="47.16925" lon="-1.62184">
        <ele>25.49</ele>
        <time>2020-06-06T11:04:18Z</time>
      </trkpt>
      <trkpt lat="47.16917" lon="-1.622">
        <ele>25.91</ele>
        <time>2020-06-06T11:04:20Z</time>
      </trkpt>
      <trkpt lat="47.16909" lon="-1.62213">
        <ele>25.37</ele>
        <time>2020-06-06T11:04:22Z</time>
      </trkpt>
      <trkpt lat="47.16901" lon="-1.62227">
        <ele>25.73</ele>
        <time>2020-06-06T11:04:24Z</time>
      </trkpt>
      <trkpt lat="47.16892" lon="-1.62237">
        <ele>26.29</ele>
        <time>2020-06-06T11:04:26Z</time>
      </trkpt>
      <trkpt lat="47.16881" lon="-1.6225">
        <ele>25.58</ele>
        <time>2020-06-06T11:04:28Z</time>
      </trkpt>
      <trkpt lat="47.16873" lon="-1.6226">
        <ele>24.71</ele>
        <time>2020-06-06T11:04:30Z</time>
      </trkpt>
      <trkpt lat="47.16863" lon="-1.62271">
        <ele>24.08</ele>
        <time>2020-06-06T11:04:32Z</time>
      </trkpt>
      <trkpt lat="47.16853" lon="-1.62282">
        <ele>24.38</ele>
        <time>2020-06-06T11:04:34Z</time>
      </trkpt>
      <trkpt lat="47.16843" lon="-1.62293">
        <ele>24.84</ele>
        <time>2020-06-06T11:04:36Z</time>
      </trkpt>
      <trkpt lat="47.16835" lon="-1.62304">
        <ele>26.19</ele>
        <time>2020-06-06T11:04:38Z</time>
      </trkpt>
      <trkpt lat="47.16826" lon="-1.62314">
        <ele>26.83</ele>
        <time>2020-06-06T11:04:40Z</time>
      </trkpt>
      <trkpt lat="47.16816" lon="-1.62322">
        <ele>26.74</ele>
        <time>2020-06-06T11:04:42Z</time>
      </trkpt>
      <trkpt lat="47.16805" lon="-1.6233">
        <ele>25.89</ele>
        <time>2020-06-06T11:04:44Z</time>
      </trkpt>
      <trkpt lat="47.16792" lon="-1.62337">
        <ele>24.72</ele>
        <time>2020-06-06T11:04:46Z</time>
      </trkpt>
      <trkpt lat="47.16782" lon="-1.62342">
        <ele>24.41</ele>
        <time>2020-06-06T11:04:48Z</time>
      </trkpt>
      <trkpt lat="47.1677" lon="-1.62349">
        <ele>24.04</ele>
        <time>2020-06-06T11:04:50Z</time>
      </trkpt>
      <trkpt lat="47.16758" lon="-1.62356">
        <ele>24.18</ele>
        <time>2020-06-06T11:04:52Z</time>
      </trkpt>
      <trkpt lat="47.16749" lon="-1.62365">
        <ele>23.68</ele>
        <time>2020-06-06T11:04:54Z</time>
      </trkpt>
      <trkpt lat="47.1674" lon="-1.62377">
        <ele>23.07</ele>
        <time>2020-06-06T11:04:56Z</time>
      </trkpt>
      <trkpt lat="47.16732" lon="-1.62395">
        <ele>22.53</ele>
        <time>2020-06-06T11:04:58Z</time>
      </trkpt>
      <trkpt lat="47.16727" lon="-1.62412">
        <ele>22.73</ele>
        <time>2020-06-06T11:05:00Z</time>
      </trkpt>
      <trkpt lat="47.16724" lon="-1.62428">
        <ele>23.06</ele>
        <time>2020-06-06T11:05:02Z</time>
      </trkpt>
      <trkpt lat="47.16722" lon="-1.62443">
        <ele>23.51</ele>
        <time>2020-06-06T11:05:04Z</time>
      </trkpt>
      <trkpt lat="47.16719" lon="-1.62459">
        <ele>23.62</ele>
        <time>2020-06-06T11:05:06Z</time>
      </trkpt>
      <trkpt lat="47.16716" lon="-1.62477">
        <ele>23.82</ele>
        <time>2020-06-06T11:05:08Z</time>
      </trkpt>
      <trkpt lat="47.16712" lon="-1.62491">
        <ele>24.24</ele>
        <time>2020-06-06T11:05:10Z</time>
      </trkpt>
      <trkpt lat="47.16726" lon="-1.62502">
        <ele>24.4</ele>
        <time>2020-06-06T11:05:13Z</time>
      </trkpt>
      <trkpt lat="47.16738" lon="-1.62511">
        <ele>24.22</ele>
        <time>2020-06-06T11:05:15Z</time>
      </trkpt>
      <trkpt lat="47.1675" lon="-1.62519">
        <ele>24.53</ele>
        <time>2020-06-06T11:05:17Z</time>
      </trkpt>
      <trkpt lat="47.16762" lon="-1.62525">
        <ele>24.98</ele>
        <time>2020-06-06T11:05:19Z</time>
      </trkpt>
      <trkpt lat="47.16772" lon="-1.62531">
        <ele>24.9</ele>
        <time>2020-06-06T11:05:21Z</time>
      </trkpt>
      <trkpt lat="47.16784" lon="-1.62537">
        <ele>25.8</ele>
        <time>2020-06-06T11:05:23Z</time>
      </trkpt>
      <trkpt lat="47.16794" lon="-1.62543">
        <ele>26.59</ele>
        <time>2020-06-06T11:05:25Z</time>
      </trkpt>
      <trkpt lat="47.16804" lon="-1.62549">
        <ele>27.53</ele>
        <time>2020-06-06T11:05:27Z</time>
      </trkpt>
      <trkpt lat="47.16812" lon="-1.62554">
        <ele>27.11</ele>
        <time>2020-06-06T11:05:29Z</time>
      </trkpt>
      <trkpt lat="47.16822" lon="-1.62564">
        <ele>26.4</ele>
        <time>2020-06-06T11:05:31Z</time>
      </trkpt>
      <trkpt lat="47.16828" lon="-1.62576">
        <ele>26.1</ele>
        <time>2020-06-06T11:05:33Z</time>
      </trkpt>
      <trkpt lat="47.16826" lon="-1.62593">
        <ele>25.49</ele>
        <time>2020-06-06T11:05:35Z</time>
      </trkpt>
      <trkpt lat="47.16819" lon="-1.62605">
        <ele>25.88</ele>
        <time>2020-06-06T11:05:37Z</time>
      </trkpt>
      <trkpt lat="47.1681" lon="-1.62617">
        <ele>25.55</ele>
        <time>2020-06-06T11:05:39Z</time>
      </trkpt>
      <trkpt lat="47.16803" lon="-1.62628">
        <ele>26.15</ele>
        <time>2020-06-06T11:05:41Z</time>
      </trkpt>
      <trkpt lat="47.16796" lon="-1.62641">
        <ele>26.08</ele>
        <time>2020-06-06T11:05:43Z</time>
      </trkpt>
      <trkpt lat="47.16789" lon="-1.62651">
        <ele>25.87</ele>
        <time>2020-06-06T11:05:45Z</time>
      </trkpt>
      <trkpt lat="47.16782" lon="-1.62662">
        <ele>25.29</ele>
        <time>2020-06-06T11:05:48Z</time>
      </trkpt>
      <trkpt lat="47.16772" lon="-1.62657">
        <ele>25.09</ele>
        <time>2020-06-06T11:05:51Z</time>
      </trkpt>
    </trkseg>
  </trk>
</gpx>